<?xml version='1.0' encoding='UTF-8'?><gpx version="1.1" creator="JPX - https://github.com/jenetics/jpx" xmlns="http://www.topografix.com/GPX/1/1"><trk><trkseg><trkpt lat="43.0766751" lon="12.5414753"><ele>201.0</ele><time>2026-04-19T08:31:06.949Z</time></trkpt><trkpt lat="43.0766236" lon="12.541533"><ele>201.0</ele><time>2026-04-19T08:32:16.949Z</time></trkpt><trkpt lat="43.0765496" lon="12.5416442"><ele>201.0</ele><time>2026-04-19T08:32:29.949Z</time></trkpt><trkpt lat="43.0765578" lon="12.541763"><ele>201.0</ele><time>2026-04-19T08:32:31.948Z</time></trkpt><trkpt lat="43.0765614" lon="12.5418736"><ele>201.0</ele><time>2026-04-19T08:32:33.949Z</time></trkpt><trkpt lat="43.0765586" lon="12.5419906"><ele>201.0</ele><time>2026-04-19T08:32:41.949Z</time></trkpt><trkpt lat="43.0765381" lon="12.5421523"><ele>201.16666666666666</ele><time>2026-04-19T08:32:43.948Z</time></trkpt><trkpt lat="43.076518" lon="12.5422627"><ele>201.33333333333331</ele><time>2026-04-19T08:32:44.948Z</time></trkpt><trkpt lat="43.0765022" lon="12.54236"><ele>201.5</ele><time>2026-04-19T08:32:45.949Z</time></trkpt><trkpt lat="43.0764835" lon="12.5424668"><ele>201.66666666666666</ele><time>2026-04-19T08:32:46.947Z</time></trkpt><trkpt lat="43.0764673" lon="12.5425761"><ele>201.83333333333331</ele><time>2026-04-19T08:32:47.948Z</time></trkpt><trkpt lat="43.0764491" lon="12.5426829"><ele>202.0</ele><time>2026-04-19T08:32:48.949Z</time></trkpt><trkpt lat="43.0764253" lon="12.5427752"><ele>202.0</ele><time>2026-04-19T08:32:49.948Z</time></trkpt><trkpt lat="43.0763851" lon="12.5429264"><ele>202.0</ele><time>2026-04-19T08:32:51.948Z</time></trkpt><trkpt lat="43.0763292" lon="12.5430436"><ele>202.0</ele><time>2026-04-19T08:32:53.948Z</time></trkpt><trkpt lat="43.0762772" lon="12.5431786"><ele>202.0</ele><time>2026-04-19T08:32:55.949Z</time></trkpt><trkpt lat="43.0763092" lon="12.5433101"><ele>202.0</ele><time>2026-04-19T08:32:57.948Z</time></trkpt><trkpt lat="43.0764135" lon="12.5433537"><ele>201.99999999999997</ele><time>2026-04-19T08:32:59.949Z</time></trkpt><trkpt lat="43.0764754" lon="12.5433246"><ele>202.0</ele><time>2026-04-19T08:33:00.949Z</time></trkpt><trkpt lat="43.0765395" lon="12.5432733"><ele>202.0</ele><time>2026-04-19T08:33:01.947Z</time></trkpt><trkpt lat="43.0766102" lon="12.5432287"><ele>202.0</ele><time>2026-04-19T08:33:02.948Z</time></trkpt><trkpt lat="43.0766981" lon="12.5432139"><ele>201.99999999999997</ele><time>2026-04-19T08:33:03.948Z</time></trkpt><trkpt lat="43.0767915" lon="12.5432065"><ele>202.0</ele><time>2026-04-19T08:33:04.947Z</time></trkpt><trkpt lat="43.0768767" lon="12.5432528"><ele>202.0</ele><time>2026-04-19T08:33:05.948Z</time></trkpt><trkpt lat="43.0769744" lon="12.543281"><ele>202.0</ele><time>2026-04-19T08:33:06.946Z</time></trkpt><trkpt lat="43.0770848" lon="12.5433159"><ele>202.0</ele><time>2026-04-19T08:33:07.947Z</time></trkpt><trkpt lat="43.0772047" lon="12.5433726"><ele>202.0</ele><time>2026-04-19T08:33:08.946Z</time></trkpt><trkpt lat="43.0773321" lon="12.5434291"><ele>201.75</ele><time>2026-04-19T08:33:09.946Z</time></trkpt><trkpt lat="43.0774574" lon="12.5434796"><ele>201.5</ele><time>2026-04-19T08:33:10.948Z</time></trkpt><trkpt lat="43.0775767" lon="12.5435272"><ele>201.25</ele><time>2026-04-19T08:33:11.948Z</time></trkpt><trkpt lat="43.0777071" lon="12.5435829"><ele>201.0</ele><time>2026-04-19T08:33:12.947Z</time></trkpt><trkpt lat="43.0778366" lon="12.5436335"><ele>201.0</ele><time>2026-04-19T08:33:13.948Z</time></trkpt><trkpt lat="43.0779703" lon="12.5436832"><ele>201.0</ele><time>2026-04-19T08:33:14.946Z</time></trkpt><trkpt lat="43.0781055" lon="12.5437361"><ele>201.0</ele><time>2026-04-19T08:33:15.948Z</time></trkpt><trkpt lat="43.0782421" lon="12.5437872"><ele>201.0</ele><time>2026-04-19T08:33:16.947Z</time></trkpt><trkpt lat="43.078381" lon="12.5438433"><ele>200.0</ele><time>2026-04-19T08:33:17.947Z</time></trkpt><trkpt lat="43.0785297" lon="12.5438975"><ele>199.0</ele><time>2026-04-19T08:33:18.948Z</time></trkpt><trkpt lat="43.0786772" lon="12.5439604"><ele>198.0</ele><time>2026-04-19T08:33:19.947Z</time></trkpt><trkpt lat="43.0788212" lon="12.5440324"><ele>198.0</ele><time>2026-04-19T08:33:20.947Z</time></trkpt><trkpt lat="43.0789683" lon="12.5441101"><ele>198.0</ele><time>2026-04-19T08:33:21.948Z</time></trkpt><trkpt lat="43.0791179" lon="12.5441949"><ele>198.0</ele><time>2026-04-19T08:33:22.946Z</time></trkpt><trkpt lat="43.0792696" lon="12.5442849"><ele>198.33333333333331</ele><time>2026-04-19T08:33:23.947Z</time></trkpt><trkpt lat="43.0794227" lon="12.5443742"><ele>198.66666666666666</ele><time>2026-04-19T08:33:24.947Z</time></trkpt><trkpt lat="43.079581" lon="12.5444651"><ele>199.0</ele><time>2026-04-19T08:33:25.946Z</time></trkpt><trkpt lat="43.0797374" lon="12.5445591"><ele>200.0</ele><time>2026-04-19T08:33:26.947Z</time></trkpt><trkpt lat="43.079892" lon="12.5446584"><ele>201.0</ele><time>2026-04-19T08:33:27.947Z</time></trkpt><trkpt lat="43.08004" lon="12.5447454"><ele>202.0</ele><time>2026-04-19T08:33:28.947Z</time></trkpt><trkpt lat="43.0801821" lon="12.5448325"><ele>202.25</ele><time>2026-04-19T08:33:29.947Z</time></trkpt><trkpt lat="43.0803187" lon="12.5449152"><ele>202.5</ele><time>2026-04-19T08:33:30.947Z</time></trkpt><trkpt lat="43.0804528" lon="12.5449951"><ele>202.75</ele><time>2026-04-19T08:33:31.946Z</time></trkpt><trkpt lat="43.0805864" lon="12.5450758"><ele>203.0</ele><time>2026-04-19T08:33:32.947Z</time></trkpt><trkpt lat="43.080723" lon="12.5451506"><ele>202.66666666666669</ele><time>2026-04-19T08:33:33.947Z</time></trkpt><trkpt lat="43.0808624" lon="12.5452151"><ele>202.33333333333331</ele><time>2026-04-19T08:33:34.948Z</time></trkpt><trkpt lat="43.081012" lon="12.5452718"><ele>202.0</ele><time>2026-04-19T08:33:35.948Z</time></trkpt><trkpt lat="43.0811692" lon="12.5453207"><ele>202.0</ele><time>2026-04-19T08:33:36.948Z</time></trkpt><trkpt lat="43.0813344" lon="12.5453653"><ele>202.0</ele><time>2026-04-19T08:33:37.947Z</time></trkpt><trkpt lat="43.0815053" lon="12.5453978"><ele>202.0</ele><time>2026-04-19T08:33:38.947Z</time></trkpt><trkpt lat="43.0816879" lon="12.5454156"><ele>201.33333333333331</ele><time>2026-04-19T08:33:39.947Z</time></trkpt><trkpt lat="43.0818744" lon="12.5454206"><ele>200.66666666666669</ele><time>2026-04-19T08:33:40.948Z</time></trkpt><trkpt lat="43.0820723" lon="12.5454098"><ele>200.0</ele><time>2026-04-19T08:33:41.948Z</time></trkpt><trkpt lat="43.0822654" lon="12.5453959"><ele>201.0</ele><time>2026-04-19T08:33:42.947Z</time></trkpt><trkpt lat="43.0824544" lon="12.5453767"><ele>202.0</ele><time>2026-04-19T08:33:43.948Z</time></trkpt><trkpt lat="43.0826408" lon="12.5453584"><ele>203.0</ele><time>2026-04-19T08:33:44.948Z</time></trkpt><trkpt lat="43.0828312" lon="12.5453423"><ele>203.0</ele><time>2026-04-19T08:33:45.946Z</time></trkpt><trkpt lat="43.0830249" lon="12.5453275"><ele>203.0</ele><time>2026-04-19T08:33:46.946Z</time></trkpt><trkpt lat="43.0832195" lon="12.5453118"><ele>203.0</ele><time>2026-04-19T08:33:47.947Z</time></trkpt><trkpt lat="43.0834171" lon="12.5452975"><ele>203.0</ele><time>2026-04-19T08:33:48.948Z</time></trkpt><trkpt lat="43.0836154" lon="12.5452834"><ele>203.0</ele><time>2026-04-19T08:33:49.947Z</time></trkpt><trkpt lat="43.0838118" lon="12.5452664"><ele>203.0</ele><time>2026-04-19T08:33:50.948Z</time></trkpt><trkpt lat="43.0840156" lon="12.5452523"><ele>202.66666666666669</ele><time>2026-04-19T08:33:51.947Z</time></trkpt><trkpt lat="43.0842189" lon="12.5452346"><ele>202.33333333333331</ele><time>2026-04-19T08:33:52.946Z</time></trkpt><trkpt lat="43.0844286" lon="12.5452206"><ele>202.0</ele><time>2026-04-19T08:33:53.946Z</time></trkpt><trkpt lat="43.0846355" lon="12.5452072"><ele>202.0</ele><time>2026-04-19T08:33:54.947Z</time></trkpt><trkpt lat="43.0848455" lon="12.5451946"><ele>202.0</ele><time>2026-04-19T08:33:55.946Z</time></trkpt><trkpt lat="43.0850556" lon="12.5451814"><ele>202.0</ele><time>2026-04-19T08:33:56.947Z</time></trkpt><trkpt lat="43.0852638" lon="12.5451681"><ele>202.0</ele><time>2026-04-19T08:33:57.948Z</time></trkpt><trkpt lat="43.0854748" lon="12.5451518"><ele>202.0</ele><time>2026-04-19T08:33:58.948Z</time></trkpt><trkpt lat="43.085686" lon="12.5451373"><ele>202.0</ele><time>2026-04-19T08:33:59.948Z</time></trkpt><trkpt lat="43.0858971" lon="12.5451206"><ele>202.0</ele><time>2026-04-19T08:34:00.947Z</time></trkpt><trkpt lat="43.0861117" lon="12.5451091"><ele>202.0</ele><time>2026-04-19T08:34:01.948Z</time></trkpt><trkpt lat="43.0863242" lon="12.54509"><ele>202.0</ele><time>2026-04-19T08:34:02.947Z</time></trkpt><trkpt lat="43.0865374" lon="12.5450677"><ele>202.0</ele><time>2026-04-19T08:34:03.947Z</time></trkpt><trkpt lat="43.08675" lon="12.5450487"><ele>202.0</ele><time>2026-04-19T08:34:04.946Z</time></trkpt><trkpt lat="43.0869605" lon="12.5450329"><ele>202.0</ele><time>2026-04-19T08:34:05.946Z</time></trkpt><trkpt lat="43.0871692" lon="12.5450183"><ele>202.0</ele><time>2026-04-19T08:34:06.948Z</time></trkpt><trkpt lat="43.0873781" lon="12.5449987"><ele>202.0</ele><time>2026-04-19T08:34:07.948Z</time></trkpt><trkpt lat="43.0875822" lon="12.5449814"><ele>202.0</ele><time>2026-04-19T08:34:08.948Z</time></trkpt><trkpt lat="43.0877812" lon="12.5449655"><ele>202.0</ele><time>2026-04-19T08:34:09.946Z</time></trkpt><trkpt lat="43.0879685" lon="12.544947"><ele>202.0</ele><time>2026-04-19T08:34:10.947Z</time></trkpt><trkpt lat="43.088154" lon="12.5449331"><ele>202.0</ele><time>2026-04-19T08:34:11.948Z</time></trkpt><trkpt lat="43.0883431" lon="12.5449203"><ele>202.66666666666666</ele><time>2026-04-19T08:34:12.947Z</time></trkpt><trkpt lat="43.0885326" lon="12.5449064"><ele>203.33333333333331</ele><time>2026-04-19T08:34:13.947Z</time></trkpt><trkpt lat="43.0887263" lon="12.5448942"><ele>204.0</ele><time>2026-04-19T08:34:14.948Z</time></trkpt><trkpt lat="43.0889202" lon="12.544879"><ele>205.0</ele><time>2026-04-19T08:34:15.947Z</time></trkpt><trkpt lat="43.0891161" lon="12.5448608"><ele>206.0</ele><time>2026-04-19T08:34:16.947Z</time></trkpt><trkpt lat="43.0893162" lon="12.544848"><ele>207.0</ele><time>2026-04-19T08:34:17.947Z</time></trkpt><trkpt lat="43.08952" lon="12.5448346"><ele>207.0</ele><time>2026-04-19T08:34:18.946Z</time></trkpt><trkpt lat="43.0897293" lon="12.5448219"><ele>207.0</ele><time>2026-04-19T08:34:19.948Z</time></trkpt><trkpt lat="43.0899435" lon="12.5448075"><ele>207.0</ele><time>2026-04-19T08:34:20.947Z</time></trkpt><trkpt lat="43.0901555" lon="12.5447856"><ele>205.0</ele><time>2026-04-19T08:34:21.947Z</time></trkpt><trkpt lat="43.0903781" lon="12.5447568"><ele>203.0</ele><time>2026-04-19T08:34:22.948Z</time></trkpt><trkpt lat="43.0906073" lon="12.5447173"><ele>203.0</ele><time>2026-04-19T08:34:23.947Z</time></trkpt><trkpt lat="43.090828" lon="12.5446827"><ele>203.0</ele><time>2026-04-19T08:34:24.947Z</time></trkpt><trkpt lat="43.0910386" lon="12.5446418"><ele>203.0</ele><time>2026-04-19T08:34:25.947Z</time></trkpt><trkpt lat="43.0912516" lon="12.5446083"><ele>203.0</ele><time>2026-04-19T08:34:26.947Z</time></trkpt><trkpt lat="43.0914633" lon="12.5445683"><ele>203.0</ele><time>2026-04-19T08:34:27.947Z</time></trkpt><trkpt lat="43.0916698" lon="12.5445304"><ele>203.0</ele><time>2026-04-19T08:34:28.947Z</time></trkpt><trkpt lat="43.0918762" lon="12.5444946"><ele>203.66666666666669</ele><time>2026-04-19T08:34:29.947Z</time></trkpt><trkpt lat="43.0920757" lon="12.5444575"><ele>204.33333333333331</ele><time>2026-04-19T08:34:30.948Z</time></trkpt><trkpt lat="43.0922785" lon="12.5444027"><ele>205.0</ele><time>2026-04-19T08:34:31.947Z</time></trkpt><trkpt lat="43.0924825" lon="12.544333"><ele>205.0</ele><time>2026-04-19T08:34:32.947Z</time></trkpt><trkpt lat="43.0926846" lon="12.5442403"><ele>205.0</ele><time>2026-04-19T08:34:33.946Z</time></trkpt><trkpt lat="43.0928836" lon="12.5441293"><ele>205.0</ele><time>2026-04-19T08:34:34.947Z</time></trkpt><trkpt lat="43.093079" lon="12.5440174"><ele>204.66666666666666</ele><time>2026-04-19T08:34:35.948Z</time></trkpt><trkpt lat="43.0932741" lon="12.5439046"><ele>204.33333333333331</ele><time>2026-04-19T08:34:36.948Z</time></trkpt><trkpt lat="43.0934702" lon="12.543799"><ele>204.0</ele><time>2026-04-19T08:34:37.947Z</time></trkpt><trkpt lat="43.0936541" lon="12.5436935"><ele>205.0</ele><time>2026-04-19T08:34:38.948Z</time></trkpt><trkpt lat="43.0938301" lon="12.5435979"><ele>206.0</ele><time>2026-04-19T08:34:39.947Z</time></trkpt><trkpt lat="43.0939931" lon="12.5435001"><ele>207.0</ele><time>2026-04-19T08:34:40.948Z</time></trkpt><trkpt lat="43.0941502" lon="12.5433982"><ele>207.0</ele><time>2026-04-19T08:34:41.947Z</time></trkpt><trkpt lat="43.0943044" lon="12.5432864"><ele>207.0</ele><time>2026-04-19T08:34:42.948Z</time></trkpt><trkpt lat="43.0944533" lon="12.543152"><ele>207.0</ele><time>2026-04-19T08:34:43.948Z</time></trkpt><trkpt lat="43.0945972" lon="12.5430007"><ele>207.0</ele><time>2026-04-19T08:34:44.947Z</time></trkpt><trkpt lat="43.0947289" lon="12.5428493"><ele>207.0</ele><time>2026-04-19T08:34:45.946Z</time></trkpt><trkpt lat="43.0948497" lon="12.5427066"><ele>207.0</ele><time>2026-04-19T08:34:46.947Z</time></trkpt><trkpt lat="43.0949592" lon="12.5425749"><ele>207.0</ele><time>2026-04-19T08:34:47.947Z</time></trkpt><trkpt lat="43.0950616" lon="12.5424478"><ele>207.0</ele><time>2026-04-19T08:34:48.945Z</time></trkpt><trkpt lat="43.0951615" lon="12.54233"><ele>207.0</ele><time>2026-04-19T08:34:49.946Z</time></trkpt><trkpt lat="43.0952677" lon="12.542208"><ele>207.0</ele><time>2026-04-19T08:34:50.946Z</time></trkpt><trkpt lat="43.0953767" lon="12.542077"><ele>207.33333333333331</ele><time>2026-04-19T08:34:51.946Z</time></trkpt><trkpt lat="43.0954967" lon="12.5419323"><ele>207.66666666666666</ele><time>2026-04-19T08:34:52.947Z</time></trkpt><trkpt lat="43.0956216" lon="12.5417831"><ele>208.0</ele><time>2026-04-19T08:34:53.947Z</time></trkpt><trkpt lat="43.0957536" lon="12.5416257"><ele>208.0</ele><time>2026-04-19T08:34:54.947Z</time></trkpt><trkpt lat="43.0958898" lon="12.5414613"><ele>208.0</ele><time>2026-04-19T08:34:55.947Z</time></trkpt><trkpt lat="43.0960278" lon="12.5412918"><ele>208.0</ele><time>2026-04-19T08:34:56.947Z</time></trkpt><trkpt lat="43.0961692" lon="12.5411117"><ele>208.0</ele><time>2026-04-19T08:34:57.947Z</time></trkpt><trkpt lat="43.0963045" lon="12.5409293"><ele>208.0</ele><time>2026-04-19T08:34:58.946Z</time></trkpt><trkpt lat="43.0964342" lon="12.5407321"><ele>208.0</ele><time>2026-04-19T08:34:59.946Z</time></trkpt><trkpt lat="43.0965629" lon="12.5405334"><ele>208.0</ele><time>2026-04-19T08:35:00.946Z</time></trkpt><trkpt lat="43.0966892" lon="12.5403267"><ele>208.0</ele><time>2026-04-19T08:35:01.947Z</time></trkpt><trkpt lat="43.096818" lon="12.5401187"><ele>208.0</ele><time>2026-04-19T08:35:02.945Z</time></trkpt><trkpt lat="43.0969451" lon="12.5399109"><ele>208.0</ele><time>2026-04-19T08:35:03.945Z</time></trkpt><trkpt lat="43.0970712" lon="12.5397065"><ele>208.0</ele><time>2026-04-19T08:35:04.947Z</time></trkpt><trkpt lat="43.0971973" lon="12.5395063"><ele>208.0</ele><time>2026-04-19T08:35:05.946Z</time></trkpt><trkpt lat="43.0973299" lon="12.5393015"><ele>208.66666666666666</ele><time>2026-04-19T08:35:06.946Z</time></trkpt><trkpt lat="43.0974572" lon="12.5391068"><ele>209.33333333333331</ele><time>2026-04-19T08:35:07.947Z</time></trkpt><trkpt lat="43.0975931" lon="12.5389037"><ele>210.0</ele><time>2026-04-19T08:35:08.946Z</time></trkpt><trkpt lat="43.0977286" lon="12.538709"><ele>210.0</ele><time>2026-04-19T08:35:09.945Z</time></trkpt><trkpt lat="43.0978683" lon="12.5385113"><ele>210.0</ele><time>2026-04-19T08:35:10.946Z</time></trkpt><trkpt lat="43.0980054" lon="12.538302"><ele>210.0</ele><time>2026-04-19T08:35:11.946Z</time></trkpt><trkpt lat="43.0981467" lon="12.5380997"><ele>209.33333333333331</ele><time>2026-04-19T08:35:12.946Z</time></trkpt><trkpt lat="43.0982874" lon="12.5379079"><ele>208.66666666666666</ele><time>2026-04-19T08:35:13.947Z</time></trkpt><trkpt lat="43.0984214" lon="12.5377177"><ele>208.0</ele><time>2026-04-19T08:35:14.946Z</time></trkpt><trkpt lat="43.0985548" lon="12.5375216"><ele>208.0</ele><time>2026-04-19T08:35:15.947Z</time></trkpt><trkpt lat="43.0986894" lon="12.5373248"><ele>208.0</ele><time>2026-04-19T08:35:16.947Z</time></trkpt><trkpt lat="43.0988321" lon="12.5371302"><ele>208.0</ele><time>2026-04-19T08:35:17.946Z</time></trkpt><trkpt lat="43.0989755" lon="12.5369291"><ele>207.66666666666666</ele><time>2026-04-19T08:35:18.946Z</time></trkpt><trkpt lat="43.0991108" lon="12.5367273"><ele>207.33333333333331</ele><time>2026-04-19T08:35:19.947Z</time></trkpt><trkpt lat="43.0992415" lon="12.5365375"><ele>207.0</ele><time>2026-04-19T08:35:20.946Z</time></trkpt><trkpt lat="43.099364" lon="12.5363634"><ele>207.25</ele><time>2026-04-19T08:35:21.947Z</time></trkpt><trkpt lat="43.0994713" lon="12.5362139"><ele>207.5</ele><time>2026-04-19T08:35:22.945Z</time></trkpt><trkpt lat="43.099573" lon="12.5360819"><ele>207.75</ele><time>2026-04-19T08:35:23.946Z</time></trkpt><trkpt lat="43.0996808" lon="12.5359814"><ele>208.0</ele><time>2026-04-19T08:35:24.946Z</time></trkpt><trkpt lat="43.0997918" lon="12.5359069"><ele>208.0</ele><time>2026-04-19T08:35:25.946Z</time></trkpt><trkpt lat="43.0998934" lon="12.5358359"><ele>208.0</ele><time>2026-04-19T08:35:26.947Z</time></trkpt><trkpt lat="43.0999932" lon="12.5357711"><ele>208.0</ele><time>2026-04-19T08:35:27.946Z</time></trkpt><trkpt lat="43.1000866" lon="12.5357315"><ele>208.0</ele><time>2026-04-19T08:35:28.945Z</time></trkpt><trkpt lat="43.1001577" lon="12.5356772"><ele>208.0</ele><time>2026-04-19T08:35:29.945Z</time></trkpt><trkpt lat="43.1002132" lon="12.5355998"><ele>208.33333333333331</ele><time>2026-04-19T08:35:30.945Z</time></trkpt><trkpt lat="43.1002261" lon="12.5355036"><ele>208.66666666666666</ele><time>2026-04-19T08:35:31.946Z</time></trkpt><trkpt lat="43.1002527" lon="12.5354004"><ele>209.0</ele><time>2026-04-19T08:35:32.947Z</time></trkpt><trkpt lat="43.1003011" lon="12.5352933"><ele>209.33333333333331</ele><time>2026-04-19T08:35:33.946Z</time></trkpt><trkpt lat="43.1003729" lon="12.5352037"><ele>209.66666666666666</ele><time>2026-04-19T08:35:34.947Z</time></trkpt><trkpt lat="43.1004535" lon="12.5351592"><ele>210.0</ele><time>2026-04-19T08:35:35.946Z</time></trkpt><trkpt lat="43.1005529" lon="12.535136"><ele>210.16666666666666</ele><time>2026-04-19T08:35:36.946Z</time></trkpt><trkpt lat="43.1006585" lon="12.5351419"><ele>210.33333333333331</ele><time>2026-04-19T08:35:37.947Z</time></trkpt><trkpt lat="43.100762" lon="12.5351613"><ele>210.5</ele><time>2026-04-19T08:35:38.945Z</time></trkpt><trkpt lat="43.1008471" lon="12.535181"><ele>210.66666666666666</ele><time>2026-04-19T08:35:39.947Z</time></trkpt><trkpt lat="43.1009172" lon="12.5352035"><ele>210.83333333333331</ele><time>2026-04-19T08:35:40.945Z</time></trkpt><trkpt lat="43.1009826" lon="12.5352216"><ele>211.0</ele><time>2026-04-19T08:35:41.946Z</time></trkpt><trkpt lat="43.101091" lon="12.5352452"><ele>211.0</ele><time>2026-04-19T08:35:43.947Z</time></trkpt><trkpt lat="43.1012021" lon="12.5352739"><ele>211.0</ele><time>2026-04-19T08:35:45.947Z</time></trkpt><trkpt lat="43.1012806" lon="12.5352872"><ele>211.0</ele><time>2026-04-19T08:35:46.946Z</time></trkpt><trkpt lat="43.1013757" lon="12.5353074"><ele>211.0</ele><time>2026-04-19T08:35:47.946Z</time></trkpt><trkpt lat="43.1014747" lon="12.5353291"><ele>211.0</ele><time>2026-04-19T08:35:48.945Z</time></trkpt><trkpt lat="43.1015721" lon="12.5353496"><ele>211.0</ele><time>2026-04-19T08:35:49.947Z</time></trkpt><trkpt lat="43.1016872" lon="12.5353724"><ele>211.0</ele><time>2026-04-19T08:35:50.946Z</time></trkpt><trkpt lat="43.1018067" lon="12.5353981"><ele>211.0</ele><time>2026-04-19T08:35:51.947Z</time></trkpt><trkpt lat="43.1019244" lon="12.5354238"><ele>211.0</ele><time>2026-04-19T08:35:52.946Z</time></trkpt><trkpt lat="43.1020343" lon="12.5354476"><ele>211.0</ele><time>2026-04-19T08:35:53.946Z</time></trkpt><trkpt lat="43.1021428" lon="12.5354776"><ele>211.0</ele><time>2026-04-19T08:35:54.945Z</time></trkpt><trkpt lat="43.102248" lon="12.5355033"><ele>211.0</ele><time>2026-04-19T08:35:55.945Z</time></trkpt><trkpt lat="43.1023435" lon="12.5355324"><ele>211.0</ele><time>2026-04-19T08:35:56.946Z</time></trkpt><trkpt lat="43.1024407" lon="12.5355743"><ele>211.0</ele><time>2026-04-19T08:35:57.947Z</time></trkpt><trkpt lat="43.1025407" lon="12.5356235"><ele>211.0</ele><time>2026-04-19T08:35:58.946Z</time></trkpt><trkpt lat="43.1026462" lon="12.5356881"><ele>211.0</ele><time>2026-04-19T08:35:59.945Z</time></trkpt><trkpt lat="43.1027389" lon="12.535747"><ele>211.0</ele><time>2026-04-19T08:36:00.947Z</time></trkpt><trkpt lat="43.1028278" lon="12.5358044"><ele>211.0</ele><time>2026-04-19T08:36:01.947Z</time></trkpt><trkpt lat="43.1029018" lon="12.5358605"><ele>211.0</ele><time>2026-04-19T08:36:02.946Z</time></trkpt><trkpt lat="43.1029727" lon="12.5359228"><ele>210.99999999999997</ele><time>2026-04-19T08:36:03.947Z</time></trkpt><trkpt lat="43.1030277" lon="12.5359794"><ele>211.0</ele><time>2026-04-19T08:36:04.945Z</time></trkpt><trkpt lat="43.1030789" lon="12.5360398"><ele>211.0</ele><time>2026-04-19T08:36:05.946Z</time></trkpt><trkpt lat="43.1031296" lon="12.5361705"><ele>211.0</ele><time>2026-04-19T08:36:07.946Z</time></trkpt><trkpt lat="43.1032405" lon="12.5362199"><ele>210.99999999999997</ele><time>2026-04-19T08:36:09.946Z</time></trkpt><trkpt lat="43.103306" lon="12.5362355"><ele>211.0</ele><time>2026-04-19T08:36:10.947Z</time></trkpt><trkpt lat="43.1033725" lon="12.5362566"><ele>211.0</ele><time>2026-04-19T08:36:11.946Z</time></trkpt><trkpt lat="43.1034515" lon="12.5362877"><ele>211.0</ele><time>2026-04-19T08:36:12.946Z</time></trkpt><trkpt lat="43.1035512" lon="12.5363284"><ele>211.0</ele><time>2026-04-19T08:36:13.946Z</time></trkpt><trkpt lat="43.1036526" lon="12.5363663"><ele>211.0</ele><time>2026-04-19T08:36:14.946Z</time></trkpt><trkpt lat="43.1037577" lon="12.5363945"><ele>211.0</ele><time>2026-04-19T08:36:15.947Z</time></trkpt><trkpt lat="43.1038754" lon="12.5364191"><ele>211.0</ele><time>2026-04-19T08:36:16.947Z</time></trkpt><trkpt lat="43.1040233" lon="12.53641"><ele>211.0</ele><time>2026-04-19T08:36:17.946Z</time></trkpt><trkpt lat="43.1041572" lon="12.5364173"><ele>211.0</ele><time>2026-04-19T08:36:18.946Z</time></trkpt><trkpt lat="43.1042906" lon="12.536428"><ele>211.0</ele><time>2026-04-19T08:36:19.946Z</time></trkpt><trkpt lat="43.1044369" lon="12.5364284"><ele>211.0</ele><time>2026-04-19T08:36:20.946Z</time></trkpt><trkpt lat="43.1045943" lon="12.5364339"><ele>211.0</ele><time>2026-04-19T08:36:21.947Z</time></trkpt><trkpt lat="43.1047567" lon="12.5364489"><ele>211.0</ele><time>2026-04-19T08:36:22.945Z</time></trkpt><trkpt lat="43.1049356" lon="12.5364687"><ele>211.0</ele><time>2026-04-19T08:36:23.947Z</time></trkpt><trkpt lat="43.1050967" lon="12.5364747"><ele>211.0</ele><time>2026-04-19T08:36:24.945Z</time></trkpt><trkpt lat="43.1052606" lon="12.5364873"><ele>211.0</ele><time>2026-04-19T08:36:25.946Z</time></trkpt><trkpt lat="43.1054211" lon="12.5365022"><ele>211.0</ele><time>2026-04-19T08:36:26.947Z</time></trkpt><trkpt lat="43.1055742" lon="12.536512"><ele>211.0</ele><time>2026-04-19T08:36:27.947Z</time></trkpt><trkpt lat="43.1057247" lon="12.5365178"><ele>211.0</ele><time>2026-04-19T08:36:28.946Z</time></trkpt><trkpt lat="43.1058746" lon="12.5365238"><ele>211.5</ele><time>2026-04-19T08:36:29.945Z</time></trkpt><trkpt lat="43.1060199" lon="12.5365314"><ele>212.0</ele><time>2026-04-19T08:36:30.946Z</time></trkpt><trkpt lat="43.1061647" lon="12.5365367"><ele>212.5</ele><time>2026-04-19T08:36:31.946Z</time></trkpt><trkpt lat="43.1063079" lon="12.5365439"><ele>213.0</ele><time>2026-04-19T08:36:32.946Z</time></trkpt><trkpt lat="43.1064498" lon="12.5365508"><ele>213.0</ele><time>2026-04-19T08:36:33.946Z</time></trkpt><trkpt lat="43.10659" lon="12.5365579"><ele>213.0</ele><time>2026-04-19T08:36:34.946Z</time></trkpt><trkpt lat="43.1067318" lon="12.5365646"><ele>213.0</ele><time>2026-04-19T08:36:35.946Z</time></trkpt><trkpt lat="43.1068742" lon="12.5365679"><ele>213.0</ele><time>2026-04-19T08:36:36.946Z</time></trkpt><trkpt lat="43.1070203" lon="12.5365776"><ele>213.0</ele><time>2026-04-19T08:36:37.945Z</time></trkpt><trkpt lat="43.1071671" lon="12.5365827"><ele>213.0</ele><time>2026-04-19T08:36:38.944Z</time></trkpt><trkpt lat="43.1073141" lon="12.5365909"><ele>213.0</ele><time>2026-04-19T08:36:39.946Z</time></trkpt><trkpt lat="43.1074618" lon="12.5365998"><ele>213.0</ele><time>2026-04-19T08:36:40.946Z</time></trkpt><trkpt lat="43.1076084" lon="12.5366096"><ele>212.75</ele><time>2026-04-19T08:36:41.946Z</time></trkpt><trkpt lat="43.1077554" lon="12.5366195"><ele>212.5</ele><time>2026-04-19T08:36:42.946Z</time></trkpt><trkpt lat="43.1078992" lon="12.5366306"><ele>212.25</ele><time>2026-04-19T08:36:43.945Z</time></trkpt><trkpt lat="43.1080433" lon="12.5366335"><ele>212.0</ele><time>2026-04-19T08:36:44.945Z</time></trkpt><trkpt lat="43.1081923" lon="12.5366455"><ele>212.75</ele><time>2026-04-19T08:36:45.946Z</time></trkpt><trkpt lat="43.1083313" lon="12.5366563"><ele>213.5</ele><time>2026-04-19T08:36:46.945Z</time></trkpt><trkpt lat="43.1084631" lon="12.536666"><ele>214.25</ele><time>2026-04-19T08:36:47.946Z</time></trkpt><trkpt lat="43.1085849" lon="12.5366753"><ele>215.0</ele><time>2026-04-19T08:36:48.944Z</time></trkpt><trkpt lat="43.1086986" lon="12.5366823"><ele>215.0</ele><time>2026-04-19T08:36:49.945Z</time></trkpt><trkpt lat="43.1088037" lon="12.5366871"><ele>215.0</ele><time>2026-04-19T08:36:50.946Z</time></trkpt><trkpt lat="43.1089068" lon="12.5366878"><ele>215.0</ele><time>2026-04-19T08:36:51.945Z</time></trkpt><trkpt lat="43.1090064" lon="12.536687"><ele>215.0</ele><time>2026-04-19T08:36:52.945Z</time></trkpt><trkpt lat="43.109115" lon="12.5366775"><ele>215.0</ele><time>2026-04-19T08:36:53.945Z</time></trkpt><trkpt lat="43.1092198" lon="12.5366658"><ele>215.0</ele><time>2026-04-19T08:36:54.946Z</time></trkpt><trkpt lat="43.1093194" lon="12.5366455"><ele>215.0</ele><time>2026-04-19T08:36:55.945Z</time></trkpt><trkpt lat="43.1094215" lon="12.5366253"><ele>215.0</ele><time>2026-04-19T08:36:56.945Z</time></trkpt><trkpt lat="43.1095225" lon="12.5365985"><ele>215.0</ele><time>2026-04-19T08:36:57.944Z</time></trkpt><trkpt lat="43.1096257" lon="12.536567"><ele>215.0</ele><time>2026-04-19T08:36:58.944Z</time></trkpt><trkpt lat="43.1097222" lon="12.5365321"><ele>215.0</ele><time>2026-04-19T08:36:59.946Z</time></trkpt><trkpt lat="43.1098199" lon="12.5364937"><ele>215.0</ele><time>2026-04-19T08:37:00.946Z</time></trkpt><trkpt lat="43.1099151" lon="12.5364515"><ele>215.0</ele><time>2026-04-19T08:37:01.946Z</time></trkpt><trkpt lat="43.1100174" lon="12.5364097"><ele>215.0</ele><time>2026-04-19T08:37:02.945Z</time></trkpt><trkpt lat="43.1101226" lon="12.5363702"><ele>215.0</ele><time>2026-04-19T08:37:03.945Z</time></trkpt><trkpt lat="43.1102348" lon="12.5363338"><ele>215.25</ele><time>2026-04-19T08:37:04.945Z</time></trkpt><trkpt lat="43.110358" lon="12.5362937"><ele>215.5</ele><time>2026-04-19T08:37:05.946Z</time></trkpt><trkpt lat="43.1104806" lon="12.536248"><ele>215.75</ele><time>2026-04-19T08:37:06.946Z</time></trkpt><trkpt lat="43.1106127" lon="12.536187"><ele>216.0</ele><time>2026-04-19T08:37:07.945Z</time></trkpt><trkpt lat="43.1107638" lon="12.5361246"><ele>216.0</ele><time>2026-04-19T08:37:08.944Z</time></trkpt><trkpt lat="43.1109013" lon="12.5360726"><ele>216.0</ele><time>2026-04-19T08:37:09.945Z</time></trkpt><trkpt lat="43.1110445" lon="12.5360152"><ele>216.0</ele><time>2026-04-19T08:37:10.945Z</time></trkpt><trkpt lat="43.1111871" lon="12.5359419"><ele>216.0</ele><time>2026-04-19T08:37:11.944Z</time></trkpt><trkpt lat="43.1113313" lon="12.5358696"><ele>216.0</ele><time>2026-04-19T08:37:12.945Z</time></trkpt><trkpt lat="43.1114761" lon="12.5357999"><ele>216.0</ele><time>2026-04-19T08:37:13.946Z</time></trkpt><trkpt lat="43.1116154" lon="12.5357174"><ele>216.0</ele><time>2026-04-19T08:37:14.946Z</time></trkpt><trkpt lat="43.1117466" lon="12.5356322"><ele>215.75</ele><time>2026-04-19T08:37:15.946Z</time></trkpt><trkpt lat="43.1118722" lon="12.5355504"><ele>215.5</ele><time>2026-04-19T08:37:16.945Z</time></trkpt><trkpt lat="43.1119785" lon="12.5354687"><ele>215.25</ele><time>2026-04-19T08:37:17.946Z</time></trkpt><trkpt lat="43.1120824" lon="12.5353929"><ele>215.0</ele><time>2026-04-19T08:37:18.945Z</time></trkpt><trkpt lat="43.1121843" lon="12.5353256"><ele>215.0</ele><time>2026-04-19T08:37:19.945Z</time></trkpt><trkpt lat="43.1122835" lon="12.5352562"><ele>215.0</ele><time>2026-04-19T08:37:20.944Z</time></trkpt><trkpt lat="43.1123974" lon="12.5351839"><ele>215.0</ele><time>2026-04-19T08:37:21.944Z</time></trkpt><trkpt lat="43.1125196" lon="12.5350956"><ele>215.0</ele><time>2026-04-19T08:37:22.946Z</time></trkpt><trkpt lat="43.1126571" lon="12.5350035"><ele>215.33333333333334</ele><time>2026-04-19T08:37:23.946Z</time></trkpt><trkpt lat="43.1128079" lon="12.5349188"><ele>215.66666666666669</ele><time>2026-04-19T08:37:24.946Z</time></trkpt><trkpt lat="43.1129626" lon="12.5348667"><ele>216.0</ele><time>2026-04-19T08:37:25.946Z</time></trkpt><trkpt lat="43.1131314" lon="12.5348464"><ele>216.33333333333331</ele><time>2026-04-19T08:37:26.946Z</time></trkpt><trkpt lat="43.1133007" lon="12.5348613"><ele>216.66666666666666</ele><time>2026-04-19T08:37:27.945Z</time></trkpt><trkpt lat="43.113474" lon="12.5349166"><ele>217.0</ele><time>2026-04-19T08:37:28.945Z</time></trkpt><trkpt lat="43.1136559" lon="12.534998"><ele>217.0</ele><time>2026-04-19T08:37:29.945Z</time></trkpt><trkpt lat="43.1138384" lon="12.5350845"><ele>217.0</ele><time>2026-04-19T08:37:30.945Z</time></trkpt><trkpt lat="43.1140176" lon="12.5351705"><ele>217.0</ele><time>2026-04-19T08:37:31.945Z</time></trkpt><trkpt lat="43.1142027" lon="12.5352536"><ele>217.33333333333331</ele><time>2026-04-19T08:37:32.945Z</time></trkpt><trkpt lat="43.1143865" lon="12.5353411"><ele>217.66666666666669</ele><time>2026-04-19T08:37:33.946Z</time></trkpt><trkpt lat="43.1145613" lon="12.5354275"><ele>218.0</ele><time>2026-04-19T08:37:34.945Z</time></trkpt><trkpt lat="43.1147456" lon="12.535506"><ele>217.66666666666669</ele><time>2026-04-19T08:37:35.945Z</time></trkpt><trkpt lat="43.1149316" lon="12.5355739"><ele>217.33333333333331</ele><time>2026-04-19T08:37:36.945Z</time></trkpt><trkpt lat="43.1151217" lon="12.5356333"><ele>217.0</ele><time>2026-04-19T08:37:37.944Z</time></trkpt><trkpt lat="43.1153165" lon="12.5356732"><ele>217.0</ele><time>2026-04-19T08:37:38.945Z</time></trkpt><trkpt lat="43.1155221" lon="12.5357073"><ele>217.0</ele><time>2026-04-19T08:37:39.944Z</time></trkpt><trkpt lat="43.1157253" lon="12.5357423"><ele>217.0</ele><time>2026-04-19T08:37:40.944Z</time></trkpt><trkpt lat="43.1159198" lon="12.5357753"><ele>217.66666666666666</ele><time>2026-04-19T08:37:41.945Z</time></trkpt><trkpt lat="43.1161128" lon="12.5358137"><ele>218.33333333333331</ele><time>2026-04-19T08:37:42.945Z</time></trkpt><trkpt lat="43.1163109" lon="12.5358522"><ele>219.0</ele><time>2026-04-19T08:37:43.946Z</time></trkpt><trkpt lat="43.1165021" lon="12.5358869"><ele>218.33333333333331</ele><time>2026-04-19T08:37:44.946Z</time></trkpt><trkpt lat="43.1166935" lon="12.5359279"><ele>217.66666666666666</ele><time>2026-04-19T08:37:45.945Z</time></trkpt><trkpt lat="43.1168844" lon="12.5359575"><ele>217.0</ele><time>2026-04-19T08:37:46.945Z</time></trkpt><trkpt lat="43.1170755" lon="12.5359598"><ele>217.0</ele><time>2026-04-19T08:37:47.946Z</time></trkpt><trkpt lat="43.1172575" lon="12.5359606"><ele>217.0</ele><time>2026-04-19T08:37:48.946Z</time></trkpt><trkpt lat="43.1174274" lon="12.5359505"><ele>217.0</ele><time>2026-04-19T08:37:49.945Z</time></trkpt><trkpt lat="43.1176008" lon="12.5359371"><ele>217.0</ele><time>2026-04-19T08:37:50.945Z</time></trkpt><trkpt lat="43.1177775" lon="12.5359202"><ele>217.0</ele><time>2026-04-19T08:37:51.945Z</time></trkpt><trkpt lat="43.1179543" lon="12.5359134"><ele>217.0</ele><time>2026-04-19T08:37:52.945Z</time></trkpt><trkpt lat="43.1181209" lon="12.5359012"><ele>217.33333333333331</ele><time>2026-04-19T08:37:53.946Z</time></trkpt><trkpt lat="43.118278" lon="12.5358914"><ele>217.66666666666669</ele><time>2026-04-19T08:37:54.946Z</time></trkpt><trkpt lat="43.1184342" lon="12.5358829"><ele>218.0</ele><time>2026-04-19T08:37:55.944Z</time></trkpt><trkpt lat="43.1185894" lon="12.5358809"><ele>218.0</ele><time>2026-04-19T08:37:56.945Z</time></trkpt><trkpt lat="43.1187457" lon="12.5358876"><ele>218.0</ele><time>2026-04-19T08:37:57.945Z</time></trkpt><trkpt lat="43.1189072" lon="12.5359003"><ele>218.0</ele><time>2026-04-19T08:37:58.945Z</time></trkpt><trkpt lat="43.1190798" lon="12.5359267"><ele>218.0</ele><time>2026-04-19T08:37:59.945Z</time></trkpt><trkpt lat="43.119251" lon="12.5359604"><ele>218.0</ele><time>2026-04-19T08:38:00.945Z</time></trkpt><trkpt lat="43.1194216" lon="12.536"><ele>218.0</ele><time>2026-04-19T08:38:01.946Z</time></trkpt><trkpt lat="43.1195917" lon="12.5360398"><ele>218.0</ele><time>2026-04-19T08:38:02.945Z</time></trkpt><trkpt lat="43.1197602" lon="12.5360861"><ele>218.0</ele><time>2026-04-19T08:38:03.945Z</time></trkpt><trkpt lat="43.11993" lon="12.5361293"><ele>218.0</ele><time>2026-04-19T08:38:04.945Z</time></trkpt><trkpt lat="43.1201019" lon="12.5361747"><ele>218.33333333333334</ele><time>2026-04-19T08:38:05.945Z</time></trkpt><trkpt lat="43.1202672" lon="12.5362158"><ele>218.66666666666669</ele><time>2026-04-19T08:38:06.945Z</time></trkpt><trkpt lat="43.1204369" lon="12.5362611"><ele>219.0</ele><time>2026-04-19T08:38:07.945Z</time></trkpt><trkpt lat="43.1206025" lon="12.5363058"><ele>219.0</ele><time>2026-04-19T08:38:08.944Z</time></trkpt><trkpt lat="43.1207603" lon="12.5363469"><ele>219.0</ele><time>2026-04-19T08:38:09.946Z</time></trkpt><trkpt lat="43.1209125" lon="12.5363826"><ele>219.0</ele><time>2026-04-19T08:38:10.945Z</time></trkpt><trkpt lat="43.1210647" lon="12.5364147"><ele>219.0</ele><time>2026-04-19T08:38:11.945Z</time></trkpt><trkpt lat="43.1212025" lon="12.5364294"><ele>219.0</ele><time>2026-04-19T08:38:12.945Z</time></trkpt><trkpt lat="43.121341" lon="12.536408"><ele>219.0</ele><time>2026-04-19T08:38:13.945Z</time></trkpt><trkpt lat="43.1214728" lon="12.5363598"><ele>219.0</ele><time>2026-04-19T08:38:14.945Z</time></trkpt><trkpt lat="43.1216002" lon="12.5362825"><ele>218.5</ele><time>2026-04-19T08:38:15.945Z</time></trkpt><trkpt lat="43.1217363" lon="12.5362101"><ele>218.0</ele><time>2026-04-19T08:38:16.944Z</time></trkpt><trkpt lat="43.1218694" lon="12.5361376"><ele>217.5</ele><time>2026-04-19T08:38:17.944Z</time></trkpt><trkpt lat="43.1220062" lon="12.5360654"><ele>217.0</ele><time>2026-04-19T08:38:18.944Z</time></trkpt><trkpt lat="43.1221414" lon="12.5359895"><ele>217.0</ele><time>2026-04-19T08:38:19.944Z</time></trkpt><trkpt lat="43.1222793" lon="12.5359083"><ele>217.0</ele><time>2026-04-19T08:38:20.944Z</time></trkpt><trkpt lat="43.1224275" lon="12.535829"><ele>217.0</ele><time>2026-04-19T08:38:21.944Z</time></trkpt><trkpt lat="43.1225747" lon="12.5357573"><ele>217.0</ele><time>2026-04-19T08:38:22.944Z</time></trkpt><trkpt lat="43.1227174" lon="12.5356879"><ele>217.0</ele><time>2026-04-19T08:38:23.945Z</time></trkpt><trkpt lat="43.1228549" lon="12.5356205"><ele>217.0</ele><time>2026-04-19T08:38:24.944Z</time></trkpt><trkpt lat="43.1229832" lon="12.535551"><ele>217.0</ele><time>2026-04-19T08:38:25.945Z</time></trkpt><trkpt lat="43.1231013" lon="12.5354817"><ele>217.0</ele><time>2026-04-19T08:38:26.944Z</time></trkpt><trkpt lat="43.1232165" lon="12.5354091"><ele>217.0</ele><time>2026-04-19T08:38:27.945Z</time></trkpt><trkpt lat="43.1233382" lon="12.5353632"><ele>217.0</ele><time>2026-04-19T08:38:28.944Z</time></trkpt><trkpt lat="43.1234635" lon="12.5353491"><ele>217.0</ele><time>2026-04-19T08:38:29.944Z</time></trkpt><trkpt lat="43.123596" lon="12.5353644"><ele>217.33333333333331</ele><time>2026-04-19T08:38:30.945Z</time></trkpt><trkpt lat="43.1237381" lon="12.5353864"><ele>217.66666666666669</ele><time>2026-04-19T08:38:31.944Z</time></trkpt><trkpt lat="43.1238883" lon="12.5354017"><ele>218.0</ele><time>2026-04-19T08:38:32.945Z</time></trkpt><trkpt lat="43.1240494" lon="12.5354027"><ele>218.33333333333334</ele><time>2026-04-19T08:38:33.944Z</time></trkpt><trkpt lat="43.1242226" lon="12.535387"><ele>218.66666666666669</ele><time>2026-04-19T08:38:34.943Z</time></trkpt><trkpt lat="43.1244046" lon="12.5353533"><ele>219.0</ele><time>2026-04-19T08:38:35.945Z</time></trkpt><trkpt lat="43.1245935" lon="12.5353023"><ele>219.0</ele><time>2026-04-19T08:38:36.944Z</time></trkpt><trkpt lat="43.1247775" lon="12.5352543"><ele>219.0</ele><time>2026-04-19T08:38:37.944Z</time></trkpt><trkpt lat="43.1249705" lon="12.5352006"><ele>219.0</ele><time>2026-04-19T08:38:38.945Z</time></trkpt><trkpt lat="43.1251621" lon="12.5351503"><ele>219.33333333333331</ele><time>2026-04-19T08:38:39.945Z</time></trkpt><trkpt lat="43.1253572" lon="12.535096"><ele>219.66666666666666</ele><time>2026-04-19T08:38:40.945Z</time></trkpt><trkpt lat="43.1255438" lon="12.5350394"><ele>220.0</ele><time>2026-04-19T08:38:41.944Z</time></trkpt><trkpt lat="43.1257355" lon="12.534983"><ele>220.0</ele><time>2026-04-19T08:38:42.944Z</time></trkpt><trkpt lat="43.1259222" lon="12.5349302"><ele>220.0</ele><time>2026-04-19T08:38:43.945Z</time></trkpt><trkpt lat="43.126117" lon="12.5348706"><ele>220.0</ele><time>2026-04-19T08:38:44.945Z</time></trkpt><trkpt lat="43.1263277" lon="12.5348138"><ele>220.0</ele><time>2026-04-19T08:38:45.945Z</time></trkpt><trkpt lat="43.1265403" lon="12.534763"><ele>220.0</ele><time>2026-04-19T08:38:46.944Z</time></trkpt><trkpt lat="43.1267653" lon="12.5347009"><ele>220.0</ele><time>2026-04-19T08:38:47.944Z</time></trkpt><trkpt lat="43.1269877" lon="12.5346462"><ele>219.33333333333331</ele><time>2026-04-19T08:38:48.944Z</time></trkpt><trkpt lat="43.1272009" lon="12.5345876"><ele>218.66666666666669</ele><time>2026-04-19T08:38:49.945Z</time></trkpt><trkpt lat="43.1274117" lon="12.5345273"><ele>218.0</ele><time>2026-04-19T08:38:50.944Z</time></trkpt><trkpt lat="43.1276235" lon="12.5344669"><ele>217.66666666666669</ele><time>2026-04-19T08:38:51.945Z</time></trkpt><trkpt lat="43.1278297" lon="12.5344141"><ele>217.33333333333331</ele><time>2026-04-19T08:38:52.945Z</time></trkpt><trkpt lat="43.1280386" lon="12.5343595"><ele>217.0</ele><time>2026-04-19T08:38:53.944Z</time></trkpt><trkpt lat="43.128242" lon="12.5343036"><ele>218.0</ele><time>2026-04-19T08:38:54.943Z</time></trkpt><trkpt lat="43.1284302" lon="12.5342521"><ele>219.0</ele><time>2026-04-19T08:38:55.945Z</time></trkpt><trkpt lat="43.1286141" lon="12.5342044"><ele>220.0</ele><time>2026-04-19T08:38:56.944Z</time></trkpt><trkpt lat="43.1288004" lon="12.5341694"><ele>220.0</ele><time>2026-04-19T08:38:57.945Z</time></trkpt><trkpt lat="43.1289923" lon="12.5341514"><ele>220.0</ele><time>2026-04-19T08:38:58.943Z</time></trkpt><trkpt lat="43.1291809" lon="12.5341672"><ele>220.0</ele><time>2026-04-19T08:38:59.943Z</time></trkpt><trkpt lat="43.1293565" lon="12.5342167"><ele>219.33333333333331</ele><time>2026-04-19T08:39:00.943Z</time></trkpt><trkpt lat="43.1295193" lon="12.534271"><ele>218.66666666666669</ele><time>2026-04-19T08:39:01.944Z</time></trkpt><trkpt lat="43.1296733" lon="12.5343051"><ele>218.0</ele><time>2026-04-19T08:39:02.944Z</time></trkpt><trkpt lat="43.1298208" lon="12.5343222"><ele>218.0</ele><time>2026-04-19T08:39:03.944Z</time></trkpt><trkpt lat="43.1299674" lon="12.5343055"><ele>218.0</ele><time>2026-04-19T08:39:04.944Z</time></trkpt><trkpt lat="43.130114" lon="12.5342512"><ele>218.0</ele><time>2026-04-19T08:39:05.945Z</time></trkpt><trkpt lat="43.130253" lon="12.5341606"><ele>218.0</ele><time>2026-04-19T08:39:06.943Z</time></trkpt><trkpt lat="43.1303848" lon="12.5340323"><ele>218.0</ele><time>2026-04-19T08:39:07.945Z</time></trkpt><trkpt lat="43.1304966" lon="12.5338738"><ele>218.0</ele><time>2026-04-19T08:39:08.944Z</time></trkpt><trkpt lat="43.1305878" lon="12.5336869"><ele>218.33333333333334</ele><time>2026-04-19T08:39:09.945Z</time></trkpt><trkpt lat="43.1306593" lon="12.5334784"><ele>218.66666666666669</ele><time>2026-04-19T08:39:10.945Z</time></trkpt><trkpt lat="43.1307174" lon="12.5332519"><ele>219.0</ele><time>2026-04-19T08:39:11.944Z</time></trkpt><trkpt lat="43.1307855" lon="12.5330403"><ele>219.66666666666669</ele><time>2026-04-19T08:39:12.943Z</time></trkpt><trkpt lat="43.1308615" lon="12.5328507"><ele>220.33333333333334</ele><time>2026-04-19T08:39:13.944Z</time></trkpt><trkpt lat="43.1309562" lon="12.5326837"><ele>221.0</ele><time>2026-04-19T08:39:14.944Z</time></trkpt><trkpt lat="43.1310542" lon="12.5325167"><ele>221.0</ele><time>2026-04-19T08:39:15.944Z</time></trkpt><trkpt lat="43.1312224" lon="12.5323829"><ele>221.0</ele><time>2026-04-19T08:39:16.944Z</time></trkpt><trkpt lat="43.1313696" lon="12.5322349"><ele>221.0</ele><time>2026-04-19T08:39:17.943Z</time></trkpt><trkpt lat="43.1315265" lon="12.5320831"><ele>221.0</ele><time>2026-04-19T08:39:18.945Z</time></trkpt><trkpt lat="43.1316836" lon="12.5319324"><ele>221.0</ele><time>2026-04-19T08:39:19.944Z</time></trkpt><trkpt lat="43.1318334" lon="12.5317816"><ele>221.0</ele><time>2026-04-19T08:39:20.944Z</time></trkpt><trkpt lat="43.1319871" lon="12.5316263"><ele>221.0</ele><time>2026-04-19T08:39:21.944Z</time></trkpt><trkpt lat="43.1321416" lon="12.5314763"><ele>221.0</ele><time>2026-04-19T08:39:22.944Z</time></trkpt><trkpt lat="43.1322924" lon="12.5313272"><ele>221.0</ele><time>2026-04-19T08:39:23.945Z</time></trkpt><trkpt lat="43.1324449" lon="12.5311813"><ele>221.33333333333334</ele><time>2026-04-19T08:39:24.944Z</time></trkpt><trkpt lat="43.132601" lon="12.5310223"><ele>221.66666666666669</ele><time>2026-04-19T08:39:25.944Z</time></trkpt><trkpt lat="43.1327525" lon="12.5308756"><ele>222.0</ele><time>2026-04-19T08:39:26.944Z</time></trkpt><trkpt lat="43.132894" lon="12.5307396"><ele>222.0</ele><time>2026-04-19T08:39:27.943Z</time></trkpt><trkpt lat="43.1330215" lon="12.530618"><ele>222.0</ele><time>2026-04-19T08:39:28.945Z</time></trkpt><trkpt lat="43.1331353" lon="12.5304965"><ele>222.0</ele><time>2026-04-19T08:39:29.943Z</time></trkpt><trkpt lat="43.1332363" lon="12.530381"><ele>222.0</ele><time>2026-04-19T08:39:30.943Z</time></trkpt><trkpt lat="43.1333338" lon="12.5302706"><ele>222.0</ele><time>2026-04-19T08:39:31.944Z</time></trkpt><trkpt lat="43.1334205" lon="12.5301621"><ele>222.0</ele><time>2026-04-19T08:39:32.944Z</time></trkpt><trkpt lat="43.1335101" lon="12.5300461"><ele>222.0</ele><time>2026-04-19T08:39:33.945Z</time></trkpt><trkpt lat="43.1336078" lon="12.5299254"><ele>222.0</ele><time>2026-04-19T08:39:34.944Z</time></trkpt><trkpt lat="43.1337192" lon="12.5297947"><ele>222.0</ele><time>2026-04-19T08:39:35.944Z</time></trkpt><trkpt lat="43.1338437" lon="12.5296553"><ele>222.0</ele><time>2026-04-19T08:39:36.943Z</time></trkpt><trkpt lat="43.1339806" lon="12.5295155"><ele>222.0</ele><time>2026-04-19T08:39:37.944Z</time></trkpt><trkpt lat="43.1341149" lon="12.529374"><ele>223.0</ele><time>2026-04-19T08:39:38.945Z</time></trkpt><trkpt lat="43.1342485" lon="12.5292268"><ele>224.0</ele><time>2026-04-19T08:39:39.944Z</time></trkpt><trkpt lat="43.134378" lon="12.5290885"><ele>225.0</ele><time>2026-04-19T08:39:40.945Z</time></trkpt><trkpt lat="43.1345015" lon="12.5289546"><ele>225.0</ele><time>2026-04-19T08:39:41.944Z</time></trkpt><trkpt lat="43.1346238" lon="12.5288177"><ele>225.0</ele><time>2026-04-19T08:39:42.944Z</time></trkpt><trkpt lat="43.1347481" lon="12.5286755"><ele>225.0</ele><time>2026-04-19T08:39:43.944Z</time></trkpt><trkpt lat="43.1348765" lon="12.5285342"><ele>225.0</ele><time>2026-04-19T08:39:44.945Z</time></trkpt><trkpt lat="43.1350058" lon="12.528387"><ele>225.0</ele><time>2026-04-19T08:39:45.944Z</time></trkpt><trkpt lat="43.1351383" lon="12.5282401"><ele>225.0</ele><time>2026-04-19T08:39:46.944Z</time></trkpt><trkpt lat="43.1352798" lon="12.5280901"><ele>225.0</ele><time>2026-04-19T08:39:47.945Z</time></trkpt><trkpt lat="43.1354319" lon="12.5279364"><ele>225.0</ele><time>2026-04-19T08:39:48.943Z</time></trkpt><trkpt lat="43.135588" lon="12.5277762"><ele>225.0</ele><time>2026-04-19T08:39:49.945Z</time></trkpt><trkpt lat="43.135736" lon="12.5276262"><ele>226.33333333333331</ele><time>2026-04-19T08:39:50.944Z</time></trkpt><trkpt lat="43.1358829" lon="12.5274717"><ele>227.66666666666666</ele><time>2026-04-19T08:39:51.945Z</time></trkpt><trkpt lat="43.1360128" lon="12.5273211"><ele>229.0</ele><time>2026-04-19T08:39:52.944Z</time></trkpt><trkpt lat="43.1361378" lon="12.5271825"><ele>228.75</ele><time>2026-04-19T08:39:53.944Z</time></trkpt><trkpt lat="43.1362618" lon="12.5270468"><ele>228.5</ele><time>2026-04-19T08:39:54.944Z</time></trkpt><trkpt lat="43.1363816" lon="12.5269337"><ele>228.25</ele><time>2026-04-19T08:39:55.944Z</time></trkpt><trkpt lat="43.136479" lon="12.5267965"><ele>228.0</ele><time>2026-04-19T08:39:56.945Z</time></trkpt><trkpt lat="43.1365558" lon="12.5266367"><ele>228.5</ele><time>2026-04-19T08:39:57.944Z</time></trkpt><trkpt lat="43.136608" lon="12.5264677"><ele>229.0</ele><time>2026-04-19T08:39:58.944Z</time></trkpt><trkpt lat="43.1366426" lon="12.5262924"><ele>229.5</ele><time>2026-04-19T08:39:59.944Z</time></trkpt><trkpt lat="43.1366672" lon="12.5260994"><ele>230.0</ele><time>2026-04-19T08:40:00.944Z</time></trkpt><trkpt lat="43.1366904" lon="12.525902"><ele>230.25</ele><time>2026-04-19T08:40:01.944Z</time></trkpt><trkpt lat="43.1367383" lon="12.5257169"><ele>230.5</ele><time>2026-04-19T08:40:02.944Z</time></trkpt><trkpt lat="43.1367986" lon="12.5255545"><ele>230.75</ele><time>2026-04-19T08:40:03.943Z</time></trkpt><trkpt lat="43.1368683" lon="12.5254203"><ele>231.0</ele><time>2026-04-19T08:40:04.944Z</time></trkpt><trkpt lat="43.1369404" lon="12.5253077"><ele>231.16666666666666</ele><time>2026-04-19T08:40:05.943Z</time></trkpt><trkpt lat="43.1370174" lon="12.5252195"><ele>231.33333333333331</ele><time>2026-04-19T08:40:06.944Z</time></trkpt><trkpt lat="43.1370948" lon="12.5251568"><ele>231.5</ele><time>2026-04-19T08:40:07.944Z</time></trkpt><trkpt lat="43.137174" lon="12.5251172"><ele>231.66666666666666</ele><time>2026-04-19T08:40:08.943Z</time></trkpt><trkpt lat="43.1372466" lon="12.5250887"><ele>231.83333333333331</ele><time>2026-04-19T08:40:09.944Z</time></trkpt><trkpt lat="43.1373104" lon="12.5250663"><ele>232.0</ele><time>2026-04-19T08:40:10.943Z</time></trkpt><trkpt lat="43.1373927" lon="12.5250373"><ele>232.39999999999998</ele><time>2026-04-19T08:40:12.944Z</time></trkpt><trkpt lat="43.1374717" lon="12.5249796"><ele>232.79999999999998</ele><time>2026-04-19T08:40:15.943Z</time></trkpt><trkpt lat="43.1375077" lon="12.5248194"><ele>233.2</ele><time>2026-04-19T08:40:17.943Z</time></trkpt><trkpt lat="43.1375141" lon="12.5247284"><ele>233.6</ele><time>2026-04-19T08:40:18.944Z</time></trkpt><trkpt lat="43.1375179" lon="12.5246194"><ele>234.0</ele><time>2026-04-19T08:40:19.943Z</time></trkpt><trkpt lat="43.1375213" lon="12.524486"><ele>234.5</ele><time>2026-04-19T08:40:20.943Z</time></trkpt><trkpt lat="43.1375259" lon="12.5243415"><ele>235.0</ele><time>2026-04-19T08:40:21.944Z</time></trkpt><trkpt lat="43.1375265" lon="12.5242006"><ele>235.5</ele><time>2026-04-19T08:40:22.943Z</time></trkpt><trkpt lat="43.1375247" lon="12.5240379"><ele>236.0</ele><time>2026-04-19T08:40:23.943Z</time></trkpt><trkpt lat="43.1375256" lon="12.5238523"><ele>236.0</ele><time>2026-04-19T08:40:24.943Z</time></trkpt><trkpt lat="43.1375263" lon="12.5236613"><ele>236.0</ele><time>2026-04-19T08:40:25.943Z</time></trkpt><trkpt lat="43.1375302" lon="12.5234585"><ele>236.0</ele><time>2026-04-19T08:40:26.943Z</time></trkpt><trkpt lat="43.1375314" lon="12.5232355"><ele>236.0</ele><time>2026-04-19T08:40:27.943Z</time></trkpt><trkpt lat="43.1375334" lon="12.5229937"><ele>236.0</ele><time>2026-04-19T08:40:28.944Z</time></trkpt><trkpt lat="43.1375356" lon="12.5227526"><ele>236.0</ele><time>2026-04-19T08:40:29.944Z</time></trkpt><trkpt lat="43.137542" lon="12.5225008"><ele>237.33333333333334</ele><time>2026-04-19T08:40:30.944Z</time></trkpt><trkpt lat="43.1375452" lon="12.5222354"><ele>238.66666666666669</ele><time>2026-04-19T08:40:31.943Z</time></trkpt><trkpt lat="43.1375471" lon="12.5219621"><ele>240.0</ele><time>2026-04-19T08:40:32.943Z</time></trkpt><trkpt lat="43.1375468" lon="12.5216783"><ele>240.0</ele><time>2026-04-19T08:40:33.943Z</time></trkpt><trkpt lat="43.1375484" lon="12.5213833"><ele>240.0</ele><time>2026-04-19T08:40:34.942Z</time></trkpt><trkpt lat="43.1375508" lon="12.5211117"><ele>240.0</ele><time>2026-04-19T08:40:35.943Z</time></trkpt><trkpt lat="43.1375475" lon="12.5208508"><ele>240.66666666666669</ele><time>2026-04-19T08:40:36.943Z</time></trkpt><trkpt lat="43.13753" lon="12.5206044"><ele>241.33333333333334</ele><time>2026-04-19T08:40:37.942Z</time></trkpt><trkpt lat="43.137491" lon="12.5203582"><ele>242.0</ele><time>2026-04-19T08:40:38.944Z</time></trkpt><trkpt lat="43.1374311" lon="12.5201149"><ele>242.0</ele><time>2026-04-19T08:40:39.944Z</time></trkpt><trkpt lat="43.1373542" lon="12.5198741"><ele>242.0</ele><time>2026-04-19T08:40:40.942Z</time></trkpt><trkpt lat="43.1372499" lon="12.5196403"><ele>242.0</ele><time>2026-04-19T08:40:41.944Z</time></trkpt><trkpt lat="43.1371378" lon="12.5194325"><ele>243.75</ele><time>2026-04-19T08:40:42.942Z</time></trkpt><trkpt lat="43.1370451" lon="12.5192492"><ele>245.5</ele><time>2026-04-19T08:40:43.944Z</time></trkpt><trkpt lat="43.1369819" lon="12.5190783"><ele>247.25</ele><time>2026-04-19T08:40:44.942Z</time></trkpt><trkpt lat="43.1369433" lon="12.5188989"><ele>249.0</ele><time>2026-04-19T08:40:45.944Z</time></trkpt><trkpt lat="43.1369349" lon="12.5187134"><ele>250.25</ele><time>2026-04-19T08:40:46.942Z</time></trkpt><trkpt lat="43.1369469" lon="12.518532"><ele>251.5</ele><time>2026-04-19T08:40:47.943Z</time></trkpt><trkpt lat="43.136961" lon="12.5183538"><ele>252.75</ele><time>2026-04-19T08:40:48.943Z</time></trkpt><trkpt lat="43.1369612" lon="12.5181515"><ele>254.0</ele><time>2026-04-19T08:40:49.944Z</time></trkpt><trkpt lat="43.136937" lon="12.5179348"><ele>255.0</ele><time>2026-04-19T08:40:50.944Z</time></trkpt><trkpt lat="43.1368898" lon="12.5177071"><ele>256.0</ele><time>2026-04-19T08:40:51.942Z</time></trkpt><trkpt lat="43.1368399" lon="12.5174894"><ele>257.0</ele><time>2026-04-19T08:40:52.944Z</time></trkpt><trkpt lat="43.1367881" lon="12.5172674"><ele>257.0</ele><time>2026-04-19T08:40:53.942Z</time></trkpt><trkpt lat="43.1367417" lon="12.5170629"><ele>257.0</ele><time>2026-04-19T08:40:54.943Z</time></trkpt><trkpt lat="43.1366968" lon="12.5168708"><ele>257.0</ele><time>2026-04-19T08:40:55.944Z</time></trkpt><trkpt lat="43.1366552" lon="12.5166974"><ele>257.0</ele><time>2026-04-19T08:40:56.942Z</time></trkpt><trkpt lat="43.1366225" lon="12.5165578"><ele>257.0</ele><time>2026-04-19T08:40:57.944Z</time></trkpt><trkpt lat="43.1366041" lon="12.5164426"><ele>257.0</ele><time>2026-04-19T08:40:58.944Z</time></trkpt><trkpt lat="43.1366047" lon="12.5163413"><ele>257.0</ele><time>2026-04-19T08:40:59.943Z</time></trkpt><trkpt lat="43.1366287" lon="12.5162505"><ele>257.0</ele><time>2026-04-19T08:41:00.944Z</time></trkpt><trkpt lat="43.1366736" lon="12.5161742"><ele>257.0</ele><time>2026-04-19T08:41:01.943Z</time></trkpt><trkpt lat="43.1367506" lon="12.516094"><ele>257.0</ele><time>2026-04-19T08:41:02.943Z</time></trkpt><trkpt lat="43.1368492" lon="12.5160059"><ele>257.75</ele><time>2026-04-19T08:41:03.943Z</time></trkpt><trkpt lat="43.1369628" lon="12.5159099"><ele>258.5</ele><time>2026-04-19T08:41:04.944Z</time></trkpt><trkpt lat="43.1370749" lon="12.5158177"><ele>259.25</ele><time>2026-04-19T08:41:05.943Z</time></trkpt><trkpt lat="43.1372037" lon="12.5157178"><ele>260.0</ele><time>2026-04-19T08:41:06.944Z</time></trkpt><trkpt lat="43.1373398" lon="12.5156142"><ele>259.33333333333337</ele><time>2026-04-19T08:41:07.944Z</time></trkpt><trkpt lat="43.1374794" lon="12.5155026"><ele>258.6666666666667</ele><time>2026-04-19T08:41:08.943Z</time></trkpt><trkpt lat="43.1376194" lon="12.5153874"><ele>258.0</ele><time>2026-04-19T08:41:09.943Z</time></trkpt><trkpt lat="43.1377647" lon="12.5152586"><ele>258.0</ele><time>2026-04-19T08:41:10.944Z</time></trkpt><trkpt lat="43.1379088" lon="12.5151105"><ele>258.0</ele><time>2026-04-19T08:41:11.943Z</time></trkpt><trkpt lat="43.1380512" lon="12.5149367"><ele>258.0</ele><time>2026-04-19T08:41:12.943Z</time></trkpt><trkpt lat="43.138182" lon="12.5147284"><ele>256.3333333333333</ele><time>2026-04-19T08:41:13.944Z</time></trkpt><trkpt lat="43.138314" lon="12.5145033"><ele>254.66666666666666</ele><time>2026-04-19T08:41:14.942Z</time></trkpt><trkpt lat="43.1384461" lon="12.514282"><ele>253.0</ele><time>2026-04-19T08:41:15.944Z</time></trkpt><trkpt lat="43.1385874" lon="12.514058"><ele>253.0</ele><time>2026-04-19T08:41:16.943Z</time></trkpt><trkpt lat="43.1387442" lon="12.5138371"><ele>253.0</ele><time>2026-04-19T08:41:17.943Z</time></trkpt><trkpt lat="43.1389115" lon="12.5136148"><ele>252.0</ele><time>2026-04-19T08:41:18.943Z</time></trkpt><trkpt lat="43.1390828" lon="12.5133907"><ele>251.0</ele><time>2026-04-19T08:41:19.943Z</time></trkpt><trkpt lat="43.1392555" lon="12.5131658"><ele>251.0</ele><time>2026-04-19T08:41:20.943Z</time></trkpt><trkpt lat="43.1394252" lon="12.5129551"><ele>251.0</ele><time>2026-04-19T08:41:21.943Z</time></trkpt><trkpt lat="43.1396016" lon="12.5127433"><ele>250.33333333333334</ele><time>2026-04-19T08:41:22.944Z</time></trkpt><trkpt lat="43.1397652" lon="12.5125461"><ele>249.66666666666669</ele><time>2026-04-19T08:41:23.943Z</time></trkpt><trkpt lat="43.1399183" lon="12.5123531"><ele>249.0</ele><time>2026-04-19T08:41:24.943Z</time></trkpt><trkpt lat="43.1400651" lon="12.5121702"><ele>249.0</ele><time>2026-04-19T08:41:25.943Z</time></trkpt><trkpt lat="43.1402039" lon="12.5119875"><ele>249.0</ele><time>2026-04-19T08:41:26.944Z</time></trkpt><trkpt lat="43.140339" lon="12.5117973"><ele>249.0</ele><time>2026-04-19T08:41:27.943Z</time></trkpt><trkpt lat="43.1404765" lon="12.5116005"><ele>249.0</ele><time>2026-04-19T08:41:28.943Z</time></trkpt><trkpt lat="43.1406109" lon="12.5114102"><ele>249.0</ele><time>2026-04-19T08:41:29.944Z</time></trkpt><trkpt lat="43.1407413" lon="12.5112227"><ele>249.0</ele><time>2026-04-19T08:41:30.943Z</time></trkpt><trkpt lat="43.1408648" lon="12.5110416"><ele>248.33333333333331</ele><time>2026-04-19T08:41:31.943Z</time></trkpt><trkpt lat="43.140982" lon="12.5108397"><ele>247.66666666666666</ele><time>2026-04-19T08:41:32.944Z</time></trkpt><trkpt lat="43.1410931" lon="12.5106192"><ele>247.0</ele><time>2026-04-19T08:41:33.942Z</time></trkpt><trkpt lat="43.1411937" lon="12.5103989"><ele>246.33333333333331</ele><time>2026-04-19T08:41:34.944Z</time></trkpt><trkpt lat="43.1412906" lon="12.5101873"><ele>245.66666666666669</ele><time>2026-04-19T08:41:35.943Z</time></trkpt><trkpt lat="43.1413824" lon="12.5099809"><ele>245.0</ele><time>2026-04-19T08:41:36.943Z</time></trkpt><trkpt lat="43.1414692" lon="12.5097906"><ele>245.0</ele><time>2026-04-19T08:41:37.943Z</time></trkpt><trkpt lat="43.1415506" lon="12.509615"><ele>245.0</ele><time>2026-04-19T08:41:38.943Z</time></trkpt><trkpt lat="43.1416246" lon="12.5094607"><ele>245.0</ele><time>2026-04-19T08:41:39.943Z</time></trkpt><trkpt lat="43.1417079" lon="12.5093342"><ele>245.0</ele><time>2026-04-19T08:41:40.943Z</time></trkpt><trkpt lat="43.1417971" lon="12.5092512"><ele>244.5</ele><time>2026-04-19T08:41:41.944Z</time></trkpt><trkpt lat="43.1419062" lon="12.5092117"><ele>244.0</ele><time>2026-04-19T08:41:42.943Z</time></trkpt><trkpt lat="43.1420275" lon="12.5092179"><ele>243.5</ele><time>2026-04-19T08:41:43.943Z</time></trkpt><trkpt lat="43.1421672" lon="12.5092544"><ele>243.0</ele><time>2026-04-19T08:41:44.944Z</time></trkpt><trkpt lat="43.1423144" lon="12.5093131"><ele>244.66666666666669</ele><time>2026-04-19T08:41:45.944Z</time></trkpt><trkpt lat="43.1424698" lon="12.5093706"><ele>246.33333333333334</ele><time>2026-04-19T08:41:46.942Z</time></trkpt><trkpt lat="43.1426443" lon="12.5094327"><ele>248.0</ele><time>2026-04-19T08:41:47.944Z</time></trkpt><trkpt lat="43.1428221" lon="12.509497"><ele>248.0</ele><time>2026-04-19T08:41:48.944Z</time></trkpt><trkpt lat="43.143004" lon="12.5095584"><ele>248.0</ele><time>2026-04-19T08:41:49.943Z</time></trkpt><trkpt lat="43.143193" lon="12.5096202"><ele>248.0</ele><time>2026-04-19T08:41:50.943Z</time></trkpt><trkpt lat="43.1433943" lon="12.5096933"><ele>249.0</ele><time>2026-04-19T08:41:51.943Z</time></trkpt><trkpt lat="43.1436" lon="12.5097661"><ele>250.0</ele><time>2026-04-19T08:41:52.943Z</time></trkpt><trkpt lat="43.143816" lon="12.5098412"><ele>251.0</ele><time>2026-04-19T08:41:53.941Z</time></trkpt><trkpt lat="43.1440218" lon="12.5099114"><ele>252.66666666666669</ele><time>2026-04-19T08:41:54.943Z</time></trkpt><trkpt lat="43.1442395" lon="12.5099809"><ele>254.33333333333331</ele><time>2026-04-19T08:41:55.942Z</time></trkpt><trkpt lat="43.144456" lon="12.5100485"><ele>256.0</ele><time>2026-04-19T08:41:56.942Z</time></trkpt><trkpt lat="43.1446721" lon="12.5101173"><ele>256.0</ele><time>2026-04-19T08:41:57.942Z</time></trkpt><trkpt lat="43.1448727" lon="12.51019"><ele>256.0</ele><time>2026-04-19T08:41:58.943Z</time></trkpt><trkpt lat="43.1450605" lon="12.5102559"><ele>256.0</ele><time>2026-04-19T08:41:59.943Z</time></trkpt><trkpt lat="43.1452334" lon="12.510306"><ele>257.3333333333333</ele><time>2026-04-19T08:42:00.941Z</time></trkpt><trkpt lat="43.1453939" lon="12.5103572"><ele>258.6666666666667</ele><time>2026-04-19T08:42:01.943Z</time></trkpt><trkpt lat="43.1455406" lon="12.5104083"><ele>260.0</ele><time>2026-04-19T08:42:02.943Z</time></trkpt><trkpt lat="43.1456874" lon="12.5104584"><ele>261.33333333333337</ele><time>2026-04-19T08:42:03.943Z</time></trkpt><trkpt lat="43.1458407" lon="12.5105085"><ele>262.6666666666667</ele><time>2026-04-19T08:42:04.941Z</time></trkpt><trkpt lat="43.145999" lon="12.5105652"><ele>264.0</ele><time>2026-04-19T08:42:05.943Z</time></trkpt><trkpt lat="43.1461658" lon="12.5106272"><ele>264.0</ele><time>2026-04-19T08:42:06.942Z</time></trkpt><trkpt lat="43.1463397" lon="12.5106889"><ele>264.0</ele><time>2026-04-19T08:42:07.942Z</time></trkpt><trkpt lat="43.1465177" lon="12.5107519"><ele>264.0</ele><time>2026-04-19T08:42:08.941Z</time></trkpt><trkpt lat="43.1467045" lon="12.5108189"><ele>263.6666666666667</ele><time>2026-04-19T08:42:09.942Z</time></trkpt><trkpt lat="43.1468841" lon="12.5108805"><ele>263.33333333333337</ele><time>2026-04-19T08:42:10.943Z</time></trkpt><trkpt lat="43.1470688" lon="12.5109426"><ele>263.0</ele><time>2026-04-19T08:42:11.942Z</time></trkpt><trkpt lat="43.1472568" lon="12.5110118"><ele>261.6666666666667</ele><time>2026-04-19T08:42:12.942Z</time></trkpt><trkpt lat="43.1474327" lon="12.5110784"><ele>260.3333333333333</ele><time>2026-04-19T08:42:13.942Z</time></trkpt><trkpt lat="43.1476154" lon="12.5111398"><ele>259.0</ele><time>2026-04-19T08:42:14.943Z</time></trkpt><trkpt lat="43.1477996" lon="12.5111934"><ele>259.0</ele><time>2026-04-19T08:42:15.942Z</time></trkpt><trkpt lat="43.1479811" lon="12.5112294"><ele>259.0</ele><time>2026-04-19T08:42:16.941Z</time></trkpt><trkpt lat="43.148175" lon="12.5112375"><ele>259.0</ele><time>2026-04-19T08:42:17.942Z</time></trkpt><trkpt lat="43.1483796" lon="12.5112257"><ele>257.0</ele><time>2026-04-19T08:42:18.943Z</time></trkpt><trkpt lat="43.1485884" lon="12.5111986"><ele>255.0</ele><time>2026-04-19T08:42:19.942Z</time></trkpt><trkpt lat="43.1487947" lon="12.5111651"><ele>253.0</ele><time>2026-04-19T08:42:20.943Z</time></trkpt><trkpt lat="43.1489903" lon="12.5111284"><ele>253.66666666666666</ele><time>2026-04-19T08:42:21.943Z</time></trkpt><trkpt lat="43.149175" lon="12.5110923"><ele>254.33333333333331</ele><time>2026-04-19T08:42:22.941Z</time></trkpt><trkpt lat="43.1493508" lon="12.5110712"><ele>255.0</ele><time>2026-04-19T08:42:23.942Z</time></trkpt><trkpt lat="43.1495284" lon="12.5110834"><ele>255.0</ele><time>2026-04-19T08:42:24.943Z</time></trkpt><trkpt lat="43.1497122" lon="12.5111272"><ele>255.0</ele><time>2026-04-19T08:42:25.941Z</time></trkpt><trkpt lat="43.1499057" lon="12.5111861"><ele>255.0</ele><time>2026-04-19T08:42:26.942Z</time></trkpt><trkpt lat="43.1501093" lon="12.511253"><ele>257.0</ele><time>2026-04-19T08:42:27.941Z</time></trkpt><trkpt lat="43.1503246" lon="12.5113261"><ele>259.0</ele><time>2026-04-19T08:42:28.942Z</time></trkpt><trkpt lat="43.1505433" lon="12.5113997"><ele>261.0</ele><time>2026-04-19T08:42:29.942Z</time></trkpt><trkpt lat="43.1507733" lon="12.5114685"><ele>261.0</ele><time>2026-04-19T08:42:30.942Z</time></trkpt><trkpt lat="43.1509972" lon="12.5115396"><ele>261.0</ele><time>2026-04-19T08:42:31.943Z</time></trkpt><trkpt lat="43.1512109" lon="12.5116067"><ele>261.0</ele><time>2026-04-19T08:42:32.941Z</time></trkpt><trkpt lat="43.1514291" lon="12.5116594"><ele>261.0</ele><time>2026-04-19T08:42:33.943Z</time></trkpt><trkpt lat="43.151648" lon="12.5117092"><ele>261.0</ele><time>2026-04-19T08:42:34.943Z</time></trkpt><trkpt lat="43.1518719" lon="12.5117555"><ele>261.0</ele><time>2026-04-19T08:42:35.941Z</time></trkpt><trkpt lat="43.152098" lon="12.511798"><ele>261.0</ele><time>2026-04-19T08:42:36.942Z</time></trkpt><trkpt lat="43.1523222" lon="12.5118434"><ele>261.0</ele><time>2026-04-19T08:42:37.942Z</time></trkpt><trkpt lat="43.1525463" lon="12.5118896"><ele>262.0</ele><time>2026-04-19T08:42:38.942Z</time></trkpt><trkpt lat="43.1527682" lon="12.511935"><ele>263.0</ele><time>2026-04-19T08:42:39.942Z</time></trkpt><trkpt lat="43.15299" lon="12.5119811"><ele>264.0</ele><time>2026-04-19T08:42:40.943Z</time></trkpt><trkpt lat="43.1532067" lon="12.5120238"><ele>264.6666666666667</ele><time>2026-04-19T08:42:41.943Z</time></trkpt><trkpt lat="43.1534232" lon="12.5120647"><ele>265.33333333333337</ele><time>2026-04-19T08:42:42.942Z</time></trkpt><trkpt lat="43.1536334" lon="12.5121077"><ele>266.0</ele><time>2026-04-19T08:42:43.943Z</time></trkpt><trkpt lat="43.1538325" lon="12.5121435"><ele>266.6666666666667</ele><time>2026-04-19T08:42:44.943Z</time></trkpt><trkpt lat="43.1540248" lon="12.5121819"><ele>267.3333333333333</ele><time>2026-04-19T08:42:45.942Z</time></trkpt><trkpt lat="43.1542075" lon="12.5122237"><ele>268.0</ele><time>2026-04-19T08:42:46.942Z</time></trkpt><trkpt lat="43.1543765" lon="12.512265"><ele>268.3333333333333</ele><time>2026-04-19T08:42:47.942Z</time></trkpt><trkpt lat="43.1545453" lon="12.5123087"><ele>268.6666666666667</ele><time>2026-04-19T08:42:48.941Z</time></trkpt><trkpt lat="43.1547063" lon="12.5123788"><ele>269.0</ele><time>2026-04-19T08:42:49.942Z</time></trkpt><trkpt lat="43.154866" lon="12.5124753"><ele>270.33333333333337</ele><time>2026-04-19T08:42:50.942Z</time></trkpt><trkpt lat="43.1550066" lon="12.5126019"><ele>271.6666666666667</ele><time>2026-04-19T08:42:51.942Z</time></trkpt><trkpt lat="43.1551364" lon="12.512772"><ele>273.0</ele><time>2026-04-19T08:42:52.942Z</time></trkpt><trkpt lat="43.1552684" lon="12.5129465"><ele>273.3333333333333</ele><time>2026-04-19T08:42:53.942Z</time></trkpt><trkpt lat="43.1553789" lon="12.5131267"><ele>273.66666666666663</ele><time>2026-04-19T08:42:54.943Z</time></trkpt><trkpt lat="43.1554788" lon="12.5132943"><ele>274.0</ele><time>2026-04-19T08:42:55.943Z</time></trkpt><trkpt lat="43.1555682" lon="12.5134357"><ele>274.0</ele><time>2026-04-19T08:42:56.942Z</time></trkpt><trkpt lat="43.1556471" lon="12.5135591"><ele>274.0</ele><time>2026-04-19T08:42:57.943Z</time></trkpt><trkpt lat="43.1557407" lon="12.5136691"><ele>274.0</ele><time>2026-04-19T08:42:58.942Z</time></trkpt><trkpt lat="43.1558481" lon="12.5137193"><ele>274.0</ele><time>2026-04-19T08:42:59.943Z</time></trkpt><trkpt lat="43.1559505" lon="12.5137547"><ele>274.66666666666663</ele><time>2026-04-19T08:43:00.941Z</time></trkpt><trkpt lat="43.1560915" lon="12.5137604"><ele>275.3333333333333</ele><time>2026-04-19T08:43:01.941Z</time></trkpt><trkpt lat="43.1562697" lon="12.5137121"><ele>276.0</ele><time>2026-04-19T08:43:02.942Z</time></trkpt><trkpt lat="43.156435" lon="12.5137273"><ele>276.0</ele><time>2026-04-19T08:43:03.942Z</time></trkpt><trkpt lat="43.1565961" lon="12.5137835"><ele>276.0</ele><time>2026-04-19T08:43:04.943Z</time></trkpt><trkpt lat="43.1567524" lon="12.5138888"><ele>276.0</ele><time>2026-04-19T08:43:05.942Z</time></trkpt><trkpt lat="43.1569032" lon="12.5140314"><ele>276.0</ele><time>2026-04-19T08:43:06.942Z</time></trkpt><trkpt lat="43.1570655" lon="12.5141939"><ele>276.0</ele><time>2026-04-19T08:43:07.943Z</time></trkpt><trkpt lat="43.1572423" lon="12.5143538"><ele>276.0</ele><time>2026-04-19T08:43:08.942Z</time></trkpt><trkpt lat="43.1574375" lon="12.5145096"><ele>277.0</ele><time>2026-04-19T08:43:09.943Z</time></trkpt><trkpt lat="43.1576339" lon="12.5146576"><ele>278.0</ele><time>2026-04-19T08:43:10.941Z</time></trkpt><trkpt lat="43.1578404" lon="12.5148196"><ele>278.0</ele><time>2026-04-19T08:43:11.943Z</time></trkpt><trkpt lat="43.1580592" lon="12.514987"><ele>278.0</ele><time>2026-04-19T08:43:12.942Z</time></trkpt><trkpt lat="43.1582851" lon="12.5151638"><ele>278.0</ele><time>2026-04-19T08:43:13.942Z</time></trkpt><trkpt lat="43.1585179" lon="12.51535"><ele>278.0</ele><time>2026-04-19T08:43:14.943Z</time></trkpt><trkpt lat="43.1587442" lon="12.5155351"><ele>278.0</ele><time>2026-04-19T08:43:15.942Z</time></trkpt><trkpt lat="43.1589769" lon="12.5157178"><ele>278.0</ele><time>2026-04-19T08:43:16.942Z</time></trkpt><trkpt lat="43.1592067" lon="12.5158968"><ele>280.5</ele><time>2026-04-19T08:43:17.942Z</time></trkpt><trkpt lat="43.1594227" lon="12.516063"><ele>283.0</ele><time>2026-04-19T08:43:18.943Z</time></trkpt><trkpt lat="43.1596385" lon="12.5162308"><ele>283.5</ele><time>2026-04-19T08:43:19.942Z</time></trkpt><trkpt lat="43.1598517" lon="12.516403"><ele>284.0</ele><time>2026-04-19T08:43:20.943Z</time></trkpt><trkpt lat="43.1600602" lon="12.5165782"><ele>284.0</ele><time>2026-04-19T08:43:21.943Z</time></trkpt><trkpt lat="43.1602823" lon="12.5167515"><ele>284.0</ele><time>2026-04-19T08:43:22.942Z</time></trkpt><trkpt lat="43.160498" lon="12.5169252"><ele>285.5</ele><time>2026-04-19T08:43:23.943Z</time></trkpt><trkpt lat="43.1607008" lon="12.5170901"><ele>287.0</ele><time>2026-04-19T08:43:24.942Z</time></trkpt><trkpt lat="43.1608899" lon="12.5172475"><ele>287.0</ele><time>2026-04-19T08:43:25.943Z</time></trkpt><trkpt lat="43.1610727" lon="12.5173943"><ele>287.0</ele><time>2026-04-19T08:43:26.942Z</time></trkpt><trkpt lat="43.1612476" lon="12.5175346"><ele>287.0</ele><time>2026-04-19T08:43:27.942Z</time></trkpt><trkpt lat="43.1614131" lon="12.5176676"><ele>288.0</ele><time>2026-04-19T08:43:28.942Z</time></trkpt><trkpt lat="43.1615823" lon="12.5177862"><ele>289.0</ele><time>2026-04-19T08:43:29.942Z</time></trkpt><trkpt lat="43.161761" lon="12.5178936"><ele>290.0</ele><time>2026-04-19T08:43:30.943Z</time></trkpt><trkpt lat="43.1619454" lon="12.5179822"><ele>290.0</ele><time>2026-04-19T08:43:31.942Z</time></trkpt><trkpt lat="43.1621529" lon="12.5180461"><ele>290.0</ele><time>2026-04-19T08:43:32.942Z</time></trkpt><trkpt lat="43.1623748" lon="12.518094"><ele>290.0</ele><time>2026-04-19T08:43:33.943Z</time></trkpt><trkpt lat="43.1626073" lon="12.5181427"><ele>292.0</ele><time>2026-04-19T08:43:34.942Z</time></trkpt><trkpt lat="43.162843" lon="12.518187"><ele>294.0</ele><time>2026-04-19T08:43:35.943Z</time></trkpt><trkpt lat="43.1630799" lon="12.5182294"><ele>294.5</ele><time>2026-04-19T08:43:36.942Z</time></trkpt><trkpt lat="43.1633192" lon="12.5182685"><ele>295.0</ele><time>2026-04-19T08:43:37.942Z</time></trkpt><trkpt lat="43.1635614" lon="12.5183078"><ele>295.0</ele><time>2026-04-19T08:43:38.941Z</time></trkpt><trkpt lat="43.1638009" lon="12.5183465"><ele>295.0</ele><time>2026-04-19T08:43:39.943Z</time></trkpt><trkpt lat="43.1640326" lon="12.518385"><ele>296.0</ele><time>2026-04-19T08:43:40.942Z</time></trkpt><trkpt lat="43.1642531" lon="12.518424"><ele>297.0</ele><time>2026-04-19T08:43:41.94Z</time></trkpt><trkpt lat="43.1644625" lon="12.5184651"><ele>298.0</ele><time>2026-04-19T08:43:42.942Z</time></trkpt><trkpt lat="43.1646596" lon="12.5185048"><ele>298.0</ele><time>2026-04-19T08:43:43.941Z</time></trkpt><trkpt lat="43.1648534" lon="12.5185374"><ele>298.0</ele><time>2026-04-19T08:43:44.942Z</time></trkpt><trkpt lat="43.1650439" lon="12.5185653"><ele>298.0</ele><time>2026-04-19T08:43:45.941Z</time></trkpt><trkpt lat="43.165226" lon="12.5185972"><ele>298.66666666666663</ele><time>2026-04-19T08:43:46.941Z</time></trkpt><trkpt lat="43.1654098" lon="12.5186357"><ele>299.3333333333333</ele><time>2026-04-19T08:43:47.942Z</time></trkpt><trkpt lat="43.1656032" lon="12.5186877"><ele>300.0</ele><time>2026-04-19T08:43:48.94Z</time></trkpt><trkpt lat="43.1658049" lon="12.5187518"><ele>300.3333333333333</ele><time>2026-04-19T08:43:49.942Z</time></trkpt><trkpt lat="43.1660007" lon="12.5188227"><ele>300.66666666666663</ele><time>2026-04-19T08:43:50.941Z</time></trkpt><trkpt lat="43.1661873" lon="12.5188987"><ele>301.0</ele><time>2026-04-19T08:43:51.941Z</time></trkpt><trkpt lat="43.1663651" lon="12.5189746"><ele>300.66666666666663</ele><time>2026-04-19T08:43:52.941Z</time></trkpt><trkpt lat="43.1665343" lon="12.5190438"><ele>300.3333333333333</ele><time>2026-04-19T08:43:53.94Z</time></trkpt><trkpt lat="43.1666962" lon="12.5191039"><ele>300.0</ele><time>2026-04-19T08:43:54.941Z</time></trkpt><trkpt lat="43.1668543" lon="12.5191488"><ele>300.0</ele><time>2026-04-19T08:43:55.942Z</time></trkpt><trkpt lat="43.1670188" lon="12.5191813"><ele>300.0</ele><time>2026-04-19T08:43:56.94Z</time></trkpt><trkpt lat="43.1671996" lon="12.5191541"><ele>300.0</ele><time>2026-04-19T08:43:57.942Z</time></trkpt><trkpt lat="43.1673831" lon="12.5190862"><ele>298.6666666666667</ele><time>2026-04-19T08:43:58.941Z</time></trkpt><trkpt lat="43.1675697" lon="12.5189737"><ele>297.33333333333337</ele><time>2026-04-19T08:43:59.94Z</time></trkpt><trkpt lat="43.1677657" lon="12.5188238"><ele>296.0</ele><time>2026-04-19T08:44:00.941Z</time></trkpt><trkpt lat="43.1679603" lon="12.5186692"><ele>293.0</ele><time>2026-04-19T08:44:01.942Z</time></trkpt><trkpt lat="43.1681698" lon="12.5185008"><ele>290.0</ele><time>2026-04-19T08:44:02.941Z</time></trkpt><trkpt lat="43.1683937" lon="12.5183286"><ele>290.0</ele><time>2026-04-19T08:44:03.942Z</time></trkpt><trkpt lat="43.1686189" lon="12.5181484"><ele>290.0</ele><time>2026-04-19T08:44:04.942Z</time></trkpt><trkpt lat="43.1688298" lon="12.5179809"><ele>288.0</ele><time>2026-04-19T08:44:05.941Z</time></trkpt><trkpt lat="43.1690444" lon="12.5178082"><ele>286.0</ele><time>2026-04-19T08:44:06.942Z</time></trkpt><trkpt lat="43.1692594" lon="12.517635"><ele>286.0</ele><time>2026-04-19T08:44:07.942Z</time></trkpt><trkpt lat="43.1694751" lon="12.5174615"><ele>286.0</ele><time>2026-04-19T08:44:08.941Z</time></trkpt><trkpt lat="43.1696874" lon="12.5172916"><ele>286.5</ele><time>2026-04-19T08:44:09.942Z</time></trkpt><trkpt lat="43.1699019" lon="12.5171191"><ele>287.0</ele><time>2026-04-19T08:44:10.941Z</time></trkpt><trkpt lat="43.1701184" lon="12.516947"><ele>286.0</ele><time>2026-04-19T08:44:11.942Z</time></trkpt><trkpt lat="43.170338" lon="12.5167704"><ele>285.0</ele><time>2026-04-19T08:44:12.941Z</time></trkpt><trkpt lat="43.1705588" lon="12.5165898"><ele>285.0</ele><time>2026-04-19T08:44:13.941Z</time></trkpt><trkpt lat="43.1707802" lon="12.5164106"><ele>285.0</ele><time>2026-04-19T08:44:14.941Z</time></trkpt><trkpt lat="43.1710095" lon="12.5162255"><ele>285.5</ele><time>2026-04-19T08:44:15.942Z</time></trkpt><trkpt lat="43.1712345" lon="12.5160441"><ele>286.0</ele><time>2026-04-19T08:44:16.94Z</time></trkpt><trkpt lat="43.1714521" lon="12.5158735"><ele>286.5</ele><time>2026-04-19T08:44:17.942Z</time></trkpt><trkpt lat="43.1716707" lon="12.5157021"><ele>287.0</ele><time>2026-04-19T08:44:18.941Z</time></trkpt><trkpt lat="43.1718851" lon="12.515527"><ele>287.5</ele><time>2026-04-19T08:44:19.941Z</time></trkpt><trkpt lat="43.1720881" lon="12.5153638"><ele>288.0</ele><time>2026-04-19T08:44:20.941Z</time></trkpt><trkpt lat="43.1722791" lon="12.5152142"><ele>288.6666666666667</ele><time>2026-04-19T08:44:21.94Z</time></trkpt><trkpt lat="43.1724616" lon="12.5150728"><ele>289.33333333333337</ele><time>2026-04-19T08:44:22.942Z</time></trkpt><trkpt lat="43.1726338" lon="12.5149366"><ele>290.0</ele><time>2026-04-19T08:44:23.942Z</time></trkpt><trkpt lat="43.1728043" lon="12.5148016"><ele>290.0</ele><time>2026-04-19T08:44:24.941Z</time></trkpt><trkpt lat="43.1729688" lon="12.5146707"><ele>290.0</ele><time>2026-04-19T08:44:25.941Z</time></trkpt><trkpt lat="43.1731209" lon="12.5145469"><ele>290.0</ele><time>2026-04-19T08:44:26.942Z</time></trkpt><trkpt lat="43.1732669" lon="12.514429"><ele>289.6666666666667</ele><time>2026-04-19T08:44:27.941Z</time></trkpt><trkpt lat="43.1734112" lon="12.5143106"><ele>289.3333333333333</ele><time>2026-04-19T08:44:28.942Z</time></trkpt><trkpt lat="43.1735582" lon="12.5141754"><ele>289.0</ele><time>2026-04-19T08:44:29.94Z</time></trkpt><trkpt lat="43.1737048" lon="12.5140201"><ele>289.0</ele><time>2026-04-19T08:44:30.941Z</time></trkpt><trkpt lat="43.1738595" lon="12.5138427"><ele>289.0</ele><time>2026-04-19T08:44:31.941Z</time></trkpt><trkpt lat="43.1740151" lon="12.5136403"><ele>289.0</ele><time>2026-04-19T08:44:32.942Z</time></trkpt><trkpt lat="43.1741663" lon="12.5134206"><ele>289.3333333333333</ele><time>2026-04-19T08:44:33.942Z</time></trkpt><trkpt lat="43.1743005" lon="12.5131992"><ele>289.6666666666667</ele><time>2026-04-19T08:44:34.941Z</time></trkpt><trkpt lat="43.174439" lon="12.5129604"><ele>290.0</ele><time>2026-04-19T08:44:35.941Z</time></trkpt><trkpt lat="43.1745807" lon="12.5127069"><ele>289.0</ele><time>2026-04-19T08:44:36.942Z</time></trkpt><trkpt lat="43.1747219" lon="12.5124605"><ele>288.0</ele><time>2026-04-19T08:44:37.941Z</time></trkpt><trkpt lat="43.1748584" lon="12.5122205"><ele>288.0</ele><time>2026-04-19T08:44:38.942Z</time></trkpt><trkpt lat="43.1749907" lon="12.5119865"><ele>288.0</ele><time>2026-04-19T08:44:39.942Z</time></trkpt><trkpt lat="43.175121" lon="12.5117546"><ele>288.0</ele><time>2026-04-19T08:44:40.941Z</time></trkpt><trkpt lat="43.1752502" lon="12.5115224"><ele>288.0</ele><time>2026-04-19T08:44:41.942Z</time></trkpt><trkpt lat="43.1753767" lon="12.511293"><ele>288.0</ele><time>2026-04-19T08:44:42.942Z</time></trkpt><trkpt lat="43.1754971" lon="12.5110732"><ele>288.0</ele><time>2026-04-19T08:44:43.941Z</time></trkpt><trkpt lat="43.1756142" lon="12.5108601"><ele>288.3333333333333</ele><time>2026-04-19T08:44:44.942Z</time></trkpt><trkpt lat="43.1757279" lon="12.5106603"><ele>288.66666666666663</ele><time>2026-04-19T08:44:45.942Z</time></trkpt><trkpt lat="43.1758354" lon="12.5104701"><ele>289.0</ele><time>2026-04-19T08:44:46.94Z</time></trkpt><trkpt lat="43.1759375" lon="12.5102898"><ele>289.0</ele><time>2026-04-19T08:44:47.941Z</time></trkpt><trkpt lat="43.1760349" lon="12.5101199"><ele>289.0</ele><time>2026-04-19T08:44:48.941Z</time></trkpt><trkpt lat="43.1761268" lon="12.5099604"><ele>289.0</ele><time>2026-04-19T08:44:49.942Z</time></trkpt><trkpt lat="43.1762145" lon="12.5098059"><ele>289.0</ele><time>2026-04-19T08:44:50.942Z</time></trkpt><trkpt lat="43.1762992" lon="12.509659"><ele>289.0</ele><time>2026-04-19T08:44:51.942Z</time></trkpt><trkpt lat="43.1763807" lon="12.509508"><ele>289.0</ele><time>2026-04-19T08:44:52.942Z</time></trkpt><trkpt lat="43.1764667" lon="12.509353"><ele>289.0</ele><time>2026-04-19T08:44:53.942Z</time></trkpt><trkpt lat="43.1765531" lon="12.5091995"><ele>289.0</ele><time>2026-04-19T08:44:54.94Z</time></trkpt><trkpt lat="43.1766444" lon="12.509045"><ele>289.0</ele><time>2026-04-19T08:44:55.941Z</time></trkpt><trkpt lat="43.1767373" lon="12.5088873"><ele>289.0</ele><time>2026-04-19T08:44:56.941Z</time></trkpt><trkpt lat="43.1768232" lon="12.5087381"><ele>289.0</ele><time>2026-04-19T08:44:57.941Z</time></trkpt><trkpt lat="43.1769031" lon="12.5085975"><ele>289.0</ele><time>2026-04-19T08:44:58.941Z</time></trkpt><trkpt lat="43.1769769" lon="12.5084674"><ele>289.0</ele><time>2026-04-19T08:44:59.941Z</time></trkpt><trkpt lat="43.177049" lon="12.5083456"><ele>289.0</ele><time>2026-04-19T08:45:00.942Z</time></trkpt><trkpt lat="43.1771157" lon="12.5082347"><ele>289.0</ele><time>2026-04-19T08:45:01.94Z</time></trkpt><trkpt lat="43.177178" lon="12.5081304"><ele>289.0</ele><time>2026-04-19T08:45:02.942Z</time></trkpt><trkpt lat="43.1772349" lon="12.5080327"><ele>289.0</ele><time>2026-04-19T08:45:03.941Z</time></trkpt><trkpt lat="43.177286" lon="12.5079446"><ele>289.0</ele><time>2026-04-19T08:45:04.942Z</time></trkpt><trkpt lat="43.1773327" lon="12.5078636"><ele>289.0</ele><time>2026-04-19T08:45:05.941Z</time></trkpt><trkpt lat="43.1773724" lon="12.5077897"><ele>289.0</ele><time>2026-04-19T08:45:06.942Z</time></trkpt><trkpt lat="43.1774112" lon="12.5077199"><ele>289.0</ele><time>2026-04-19T08:45:07.942Z</time></trkpt><trkpt lat="43.1774796" lon="12.5076006"><ele>289.0</ele><time>2026-04-19T08:45:09.941Z</time></trkpt><trkpt lat="43.1775367" lon="12.507496"><ele>289.0</ele><time>2026-04-19T08:45:11.942Z</time></trkpt><trkpt lat="43.1776019" lon="12.5073676"><ele>289.5</ele><time>2026-04-19T08:45:13.941Z</time></trkpt><trkpt lat="43.1776438" lon="12.5072992"><ele>290.0</ele><time>2026-04-19T08:45:14.942Z</time></trkpt><trkpt lat="43.1776891" lon="12.5072214"><ele>290.5</ele><time>2026-04-19T08:45:15.942Z</time></trkpt><trkpt lat="43.17774" lon="12.5071254"><ele>291.0</ele><time>2026-04-19T08:45:16.941Z</time></trkpt><trkpt lat="43.1778032" lon="12.5070174"><ele>291.5</ele><time>2026-04-19T08:45:17.941Z</time></trkpt><trkpt lat="43.1778623" lon="12.5069157"><ele>292.0</ele><time>2026-04-19T08:45:18.941Z</time></trkpt><trkpt lat="43.1779229" lon="12.5068057"><ele>292.16666666666663</ele><time>2026-04-19T08:45:19.94Z</time></trkpt><trkpt lat="43.1779723" lon="12.5067177"><ele>292.3333333333333</ele><time>2026-04-19T08:45:20.942Z</time></trkpt><trkpt lat="43.1780204" lon="12.5066327"><ele>292.5</ele><time>2026-04-19T08:45:21.942Z</time></trkpt><trkpt lat="43.1780658" lon="12.5065481"><ele>292.6666666666667</ele><time>2026-04-19T08:45:22.942Z</time></trkpt><trkpt lat="43.1781188" lon="12.5064583"><ele>292.83333333333337</ele><time>2026-04-19T08:45:23.942Z</time></trkpt><trkpt lat="43.178172" lon="12.5063652"><ele>293.0</ele><time>2026-04-19T08:45:24.942Z</time></trkpt><trkpt lat="43.1782276" lon="12.5062664"><ele>294.2</ele><time>2026-04-19T08:45:25.94Z</time></trkpt><trkpt lat="43.1782907" lon="12.5061623"><ele>295.4</ele><time>2026-04-19T08:45:26.941Z</time></trkpt><trkpt lat="43.1783628" lon="12.506053"><ele>296.59999999999997</ele><time>2026-04-19T08:45:27.941Z</time></trkpt><trkpt lat="43.1784415" lon="12.5059498"><ele>297.8</ele><time>2026-04-19T08:45:28.941Z</time></trkpt><trkpt lat="43.1785077" lon="12.5058595"><ele>299.0</ele><time>2026-04-19T08:45:29.941Z</time></trkpt><trkpt lat="43.1785624" lon="12.5057785"><ele>299.0</ele><time>2026-04-19T08:45:30.942Z</time></trkpt><trkpt lat="43.1786088" lon="12.5056985"><ele>299.0</ele><time>2026-04-19T08:45:31.941Z</time></trkpt><trkpt lat="43.178644" lon="12.5056182"><ele>299.0</ele><time>2026-04-19T08:45:32.94Z</time></trkpt><trkpt lat="43.1786766" lon="12.5055308"><ele>299.0</ele><time>2026-04-19T08:45:33.939Z</time></trkpt><trkpt lat="43.1787027" lon="12.5054383"><ele>299.0</ele><time>2026-04-19T08:45:34.941Z</time></trkpt><trkpt lat="43.1787386" lon="12.5053301"><ele>299.0</ele><time>2026-04-19T08:45:35.941Z</time></trkpt><trkpt lat="43.178797" lon="12.5052109"><ele>299.5</ele><time>2026-04-19T08:45:36.94Z</time></trkpt><trkpt lat="43.1788699" lon="12.5050914"><ele>300.0</ele><time>2026-04-19T08:45:37.94Z</time></trkpt><trkpt lat="43.1789489" lon="12.504954"><ele>300.5</ele><time>2026-04-19T08:45:38.941Z</time></trkpt><trkpt lat="43.1790295" lon="12.504808"><ele>301.0</ele><time>2026-04-19T08:45:39.94Z</time></trkpt><trkpt lat="43.179105" lon="12.5046771"><ele>301.25</ele><time>2026-04-19T08:45:40.941Z</time></trkpt><trkpt lat="43.1791927" lon="12.5045253"><ele>301.5</ele><time>2026-04-19T08:45:41.941Z</time></trkpt><trkpt lat="43.1792797" lon="12.5043607"><ele>301.75</ele><time>2026-04-19T08:45:42.941Z</time></trkpt><trkpt lat="43.1793723" lon="12.5041857"><ele>302.0</ele><time>2026-04-19T08:45:43.94Z</time></trkpt><trkpt lat="43.1794722" lon="12.5040016"><ele>302.0</ele><time>2026-04-19T08:45:44.941Z</time></trkpt><trkpt lat="43.1795786" lon="12.5038175"><ele>302.0</ele><time>2026-04-19T08:45:45.941Z</time></trkpt><trkpt lat="43.1796828" lon="12.5036458"><ele>302.0</ele><time>2026-04-19T08:45:46.941Z</time></trkpt><trkpt lat="43.1798083" lon="12.5034912"><ele>303.0</ele><time>2026-04-19T08:45:47.94Z</time></trkpt><trkpt lat="43.1799353" lon="12.5033363"><ele>304.0</ele><time>2026-04-19T08:45:48.94Z</time></trkpt><trkpt lat="43.180075" lon="12.503197"><ele>305.0</ele><time>2026-04-19T08:45:49.94Z</time></trkpt><trkpt lat="43.1802282" lon="12.5030786"><ele>305.0</ele><time>2026-04-19T08:45:50.94Z</time></trkpt><trkpt lat="43.1803876" lon="12.5029713"><ele>305.0</ele><time>2026-04-19T08:45:51.939Z</time></trkpt><trkpt lat="43.1805544" lon="12.5028716"><ele>305.0</ele><time>2026-04-19T08:45:52.94Z</time></trkpt><trkpt lat="43.1807222" lon="12.502789"><ele>308.0</ele><time>2026-04-19T08:45:53.941Z</time></trkpt><trkpt lat="43.1808811" lon="12.5027121"><ele>311.0</ele><time>2026-04-19T08:45:54.94Z</time></trkpt><trkpt lat="43.1810254" lon="12.5026356"><ele>314.0</ele><time>2026-04-19T08:45:55.94Z</time></trkpt><trkpt lat="43.1811611" lon="12.5025642"><ele>314.0</ele><time>2026-04-19T08:45:56.939Z</time></trkpt><trkpt lat="43.181297" lon="12.5024946"><ele>314.0</ele><time>2026-04-19T08:45:57.939Z</time></trkpt><trkpt lat="43.1814318" lon="12.5024309"><ele>314.0</ele><time>2026-04-19T08:45:58.939Z</time></trkpt><trkpt lat="43.1815633" lon="12.5023677"><ele>314.0</ele><time>2026-04-19T08:45:59.939Z</time></trkpt><trkpt lat="43.1816971" lon="12.5023183"><ele>315.5</ele><time>2026-04-19T08:46:00.94Z</time></trkpt><trkpt lat="43.1818343" lon="12.5022837"><ele>317.0</ele><time>2026-04-19T08:46:01.94Z</time></trkpt><trkpt lat="43.1819591" lon="12.5022655"><ele>318.5</ele><time>2026-04-19T08:46:02.941Z</time></trkpt><trkpt lat="43.1820777" lon="12.5022653"><ele>320.0</ele><time>2026-04-19T08:46:03.94Z</time></trkpt><trkpt lat="43.1821852" lon="12.5022729"><ele>320.0</ele><time>2026-04-19T08:46:04.94Z</time></trkpt><trkpt lat="43.1822867" lon="12.5022787"><ele>320.0</ele><time>2026-04-19T08:46:05.94Z</time></trkpt><trkpt lat="43.1824008" lon="12.5022827"><ele>320.0</ele><time>2026-04-19T08:46:06.94Z</time></trkpt><trkpt lat="43.1825242" lon="12.5022886"><ele>320.0</ele><time>2026-04-19T08:46:07.941Z</time></trkpt><trkpt lat="43.1826605" lon="12.5022955"><ele>322.6666666666667</ele><time>2026-04-19T08:46:08.941Z</time></trkpt><trkpt lat="43.1828123" lon="12.5023126"><ele>325.3333333333333</ele><time>2026-04-19T08:46:09.939Z</time></trkpt><trkpt lat="43.1829767" lon="12.5023271"><ele>328.0</ele><time>2026-04-19T08:46:10.94Z</time></trkpt><trkpt lat="43.1831522" lon="12.5023394"><ele>330.3333333333333</ele><time>2026-04-19T08:46:11.941Z</time></trkpt><trkpt lat="43.1833357" lon="12.502354"><ele>332.6666666666667</ele><time>2026-04-19T08:46:12.941Z</time></trkpt><trkpt lat="43.1835224" lon="12.5023726"><ele>335.0</ele><time>2026-04-19T08:46:13.939Z</time></trkpt><trkpt lat="43.1837103" lon="12.5023902"><ele>335.0</ele><time>2026-04-19T08:46:14.94Z</time></trkpt><trkpt lat="43.1839066" lon="12.5024058"><ele>335.0</ele><time>2026-04-19T08:46:15.94Z</time></trkpt><trkpt lat="43.184115" lon="12.5024298"><ele>335.0</ele><time>2026-04-19T08:46:16.939Z</time></trkpt><trkpt lat="43.1843264" lon="12.5024473"><ele>338.6666666666667</ele><time>2026-04-19T08:46:17.941Z</time></trkpt><trkpt lat="43.1845399" lon="12.5024662"><ele>342.3333333333333</ele><time>2026-04-19T08:46:18.941Z</time></trkpt><trkpt lat="43.1847558" lon="12.5024897"><ele>346.0</ele><time>2026-04-19T08:46:19.94Z</time></trkpt><trkpt lat="43.1849556" lon="12.502511"><ele>347.3333333333333</ele><time>2026-04-19T08:46:20.94Z</time></trkpt><trkpt lat="43.1851461" lon="12.5025295"><ele>348.6666666666667</ele><time>2026-04-19T08:46:21.94Z</time></trkpt><trkpt lat="43.1853283" lon="12.5025446"><ele>350.0</ele><time>2026-04-19T08:46:22.94Z</time></trkpt><trkpt lat="43.185493" lon="12.50256"><ele>350.0</ele><time>2026-04-19T08:46:23.941Z</time></trkpt><trkpt lat="43.1856441" lon="12.5025782"><ele>350.0</ele><time>2026-04-19T08:46:24.94Z</time></trkpt><trkpt lat="43.18579" lon="12.5026133"><ele>350.0</ele><time>2026-04-19T08:46:25.941Z</time></trkpt><trkpt lat="43.185932" lon="12.5026819"><ele>352.0</ele><time>2026-04-19T08:46:26.939Z</time></trkpt><trkpt lat="43.1860648" lon="12.5027862"><ele>354.0</ele><time>2026-04-19T08:46:27.94Z</time></trkpt><trkpt lat="43.1861819" lon="12.5029275"><ele>356.0</ele><time>2026-04-19T08:46:28.941Z</time></trkpt><trkpt lat="43.1862697" lon="12.5030974"><ele>358.33333333333337</ele><time>2026-04-19T08:46:29.94Z</time></trkpt><trkpt lat="43.1863271" lon="12.5033064"><ele>360.6666666666667</ele><time>2026-04-19T08:46:30.941Z</time></trkpt><trkpt lat="43.1863628" lon="12.5035398"><ele>363.0</ele><time>2026-04-19T08:46:31.939Z</time></trkpt><trkpt lat="43.1863924" lon="12.5037923"><ele>365.3333333333333</ele><time>2026-04-19T08:46:32.94Z</time></trkpt><trkpt lat="43.1864252" lon="12.5040595"><ele>367.66666666666663</ele><time>2026-04-19T08:46:33.94Z</time></trkpt><trkpt lat="43.1864629" lon="12.5043409"><ele>370.0</ele><time>2026-04-19T08:46:34.94Z</time></trkpt><trkpt lat="43.1865003" lon="12.5046326"><ele>369.3333333333333</ele><time>2026-04-19T08:46:35.941Z</time></trkpt><trkpt lat="43.1865372" lon="12.5049414"><ele>368.6666666666667</ele><time>2026-04-19T08:46:36.941Z</time></trkpt><trkpt lat="43.1865696" lon="12.5052398"><ele>368.0</ele><time>2026-04-19T08:46:37.941Z</time></trkpt><trkpt lat="43.186605" lon="12.505539"><ele>370.5</ele><time>2026-04-19T08:46:38.941Z</time></trkpt><trkpt lat="43.1866426" lon="12.5058444"><ele>373.0</ele><time>2026-04-19T08:46:39.941Z</time></trkpt><trkpt lat="43.1866835" lon="12.506157"><ele>374.0</ele><time>2026-04-19T08:46:40.941Z</time></trkpt><trkpt lat="43.1867261" lon="12.5064764"><ele>375.0</ele><time>2026-04-19T08:46:41.94Z</time></trkpt><trkpt lat="43.1867799" lon="12.5067971"><ele>376.0</ele><time>2026-04-19T08:46:42.939Z</time></trkpt><trkpt lat="43.1868384" lon="12.507124"><ele>377.0</ele><time>2026-04-19T08:46:43.94Z</time></trkpt><trkpt lat="43.1869071" lon="12.5074529"><ele>377.0</ele><time>2026-04-19T08:46:44.941Z</time></trkpt><trkpt lat="43.1869766" lon="12.5077691"><ele>377.0</ele><time>2026-04-19T08:46:45.94Z</time></trkpt><trkpt lat="43.1870491" lon="12.5080635"><ele>377.33333333333337</ele><time>2026-04-19T08:46:46.941Z</time></trkpt><trkpt lat="43.1871135" lon="12.5083309"><ele>377.6666666666667</ele><time>2026-04-19T08:46:47.941Z</time></trkpt><trkpt lat="43.1871669" lon="12.5085783"><ele>378.0</ele><time>2026-04-19T08:46:48.94Z</time></trkpt><trkpt lat="43.1872114" lon="12.5088107"><ele>378.3333333333333</ele><time>2026-04-19T08:46:49.941Z</time></trkpt><trkpt lat="43.1872323" lon="12.5090332"><ele>378.66666666666663</ele><time>2026-04-19T08:46:50.94Z</time></trkpt><trkpt lat="43.1872292" lon="12.5092466"><ele>379.0</ele><time>2026-04-19T08:46:51.939Z</time></trkpt><trkpt lat="43.1872016" lon="12.5094459"><ele>382.66666666666663</ele><time>2026-04-19T08:46:52.941Z</time></trkpt><trkpt lat="43.1871448" lon="12.5096333"><ele>386.3333333333333</ele><time>2026-04-19T08:46:53.94Z</time></trkpt><trkpt lat="43.1870611" lon="12.5097924"><ele>390.0</ele><time>2026-04-19T08:46:54.94Z</time></trkpt><trkpt lat="43.1869538" lon="12.5099533"><ele>390.0</ele><time>2026-04-19T08:46:55.941Z</time></trkpt><trkpt lat="43.1868392" lon="12.5101193"><ele>390.0</ele><time>2026-04-19T08:46:56.941Z</time></trkpt><trkpt lat="43.1867308" lon="12.5102941"><ele>390.0</ele><time>2026-04-19T08:46:57.94Z</time></trkpt><trkpt lat="43.1866385" lon="12.5104767"><ele>395.0</ele><time>2026-04-19T08:46:58.941Z</time></trkpt><trkpt lat="43.1865628" lon="12.5106886"><ele>400.0</ele><time>2026-04-19T08:46:59.941Z</time></trkpt><trkpt lat="43.1865157" lon="12.510911"><ele>405.0</ele><time>2026-04-19T08:47:00.941Z</time></trkpt><trkpt lat="43.1864942" lon="12.5111462"><ele>407.0</ele><time>2026-04-19T08:47:01.94Z</time></trkpt><trkpt lat="43.186492" lon="12.5114035"><ele>409.0</ele><time>2026-04-19T08:47:02.939Z</time></trkpt><trkpt lat="43.1865087" lon="12.511676"><ele>411.0</ele><time>2026-04-19T08:47:03.94Z</time></trkpt><trkpt lat="43.1865271" lon="12.5119487"><ele>411.0</ele><time>2026-04-19T08:47:04.941Z</time></trkpt><trkpt lat="43.18654" lon="12.5122154"><ele>411.0</ele><time>2026-04-19T08:47:05.941Z</time></trkpt><trkpt lat="43.186554" lon="12.5124654"><ele>411.0</ele><time>2026-04-19T08:47:06.94Z</time></trkpt><trkpt lat="43.186568" lon="12.5126985"><ele>411.0</ele><time>2026-04-19T08:47:07.939Z</time></trkpt><trkpt lat="43.1865797" lon="12.5129135"><ele>411.0</ele><time>2026-04-19T08:47:08.94Z</time></trkpt><trkpt lat="43.1865955" lon="12.5131161"><ele>411.0</ele><time>2026-04-19T08:47:09.941Z</time></trkpt><trkpt lat="43.1866433" lon="12.5133069"><ele>411.0</ele><time>2026-04-19T08:47:10.94Z</time></trkpt><trkpt lat="43.1867165" lon="12.5134863"><ele>411.0</ele><time>2026-04-19T08:47:11.94Z</time></trkpt><trkpt lat="43.1868112" lon="12.5136387"><ele>411.0</ele><time>2026-04-19T08:47:12.941Z</time></trkpt><trkpt lat="43.1869272" lon="12.5137667"><ele>411.0</ele><time>2026-04-19T08:47:13.94Z</time></trkpt><trkpt lat="43.1870668" lon="12.5138771"><ele>408.75</ele><time>2026-04-19T08:47:14.941Z</time></trkpt><trkpt lat="43.1872107" lon="12.5139749"><ele>406.5</ele><time>2026-04-19T08:47:15.941Z</time></trkpt><trkpt lat="43.1873423" lon="12.514053"><ele>404.25</ele><time>2026-04-19T08:47:16.94Z</time></trkpt><trkpt lat="43.1874664" lon="12.5141088"><ele>402.0</ele><time>2026-04-19T08:47:17.94Z</time></trkpt><trkpt lat="43.1875941" lon="12.514148"><ele>407.5</ele><time>2026-04-19T08:47:18.941Z</time></trkpt><trkpt lat="43.1877122" lon="12.5141736"><ele>413.0</ele><time>2026-04-19T08:47:19.94Z</time></trkpt><trkpt lat="43.1878348" lon="12.5140131"><ele>418.5</ele><time>2026-04-19T08:47:20.939Z</time></trkpt><trkpt lat="43.1879426" lon="12.5139128"><ele>424.0</ele><time>2026-04-19T08:47:21.941Z</time></trkpt><trkpt lat="43.1880468" lon="12.5137557"><ele>423.6666666666667</ele><time>2026-04-19T08:47:22.941Z</time></trkpt><trkpt lat="43.1881493" lon="12.5135766"><ele>423.33333333333337</ele><time>2026-04-19T08:47:23.941Z</time></trkpt><trkpt lat="43.1882382" lon="12.5133704"><ele>423.0</ele><time>2026-04-19T08:47:24.94Z</time></trkpt><trkpt lat="43.1883435" lon="12.5131672"><ele>428.66666666666663</ele><time>2026-04-19T08:47:25.94Z</time></trkpt><trkpt lat="43.188465" lon="12.5129596"><ele>434.3333333333333</ele><time>2026-04-19T08:47:26.94Z</time></trkpt><trkpt lat="43.1885823" lon="12.5127587"><ele>440.0</ele><time>2026-04-19T08:47:27.939Z</time></trkpt><trkpt lat="43.1886954" lon="12.5125468"><ele>440.0</ele><time>2026-04-19T08:47:28.94Z</time></trkpt><trkpt lat="43.1888014" lon="12.5123312"><ele>440.0</ele><time>2026-04-19T08:47:29.938Z</time></trkpt><trkpt lat="43.1888824" lon="12.5121282"><ele>440.0</ele><time>2026-04-19T08:47:30.939Z</time></trkpt><trkpt lat="43.1889503" lon="12.5119356"><ele>442.0</ele><time>2026-04-19T08:47:31.94Z</time></trkpt><trkpt lat="43.1890116" lon="12.5117593"><ele>444.0</ele><time>2026-04-19T08:47:32.939Z</time></trkpt><trkpt lat="43.189074" lon="12.5116032"><ele>446.0</ele><time>2026-04-19T08:47:33.938Z</time></trkpt><trkpt lat="43.1891466" lon="12.5114749"><ele>448.0</ele><time>2026-04-19T08:47:34.94Z</time></trkpt><trkpt lat="43.1892417" lon="12.5113615"><ele>448.0</ele><time>2026-04-19T08:47:35.939Z</time></trkpt><trkpt lat="43.1893532" lon="12.511278"><ele>448.0</ele><time>2026-04-19T08:47:36.938Z</time></trkpt><trkpt lat="43.1894786" lon="12.5112389"><ele>448.0</ele><time>2026-04-19T08:47:37.94Z</time></trkpt><trkpt lat="43.1896071" lon="12.5112432"><ele>448.0</ele><time>2026-04-19T08:47:38.939Z</time></trkpt><trkpt lat="43.1897329" lon="12.5112856"><ele>451.25</ele><time>2026-04-19T08:47:39.939Z</time></trkpt><trkpt lat="43.189849" lon="12.5113749"><ele>454.5</ele><time>2026-04-19T08:47:40.939Z</time></trkpt><trkpt lat="43.1899415" lon="12.5115005"><ele>457.75</ele><time>2026-04-19T08:47:41.939Z</time></trkpt><trkpt lat="43.1900175" lon="12.5116532"><ele>461.0</ele><time>2026-04-19T08:47:42.94Z</time></trkpt><trkpt lat="43.1900581" lon="12.5118216"><ele>461.0</ele><time>2026-04-19T08:47:43.939Z</time></trkpt><trkpt lat="43.190067" lon="12.5120106"><ele>461.0</ele><time>2026-04-19T08:47:44.938Z</time></trkpt><trkpt lat="43.1900387" lon="12.5121938"><ele>461.0</ele><time>2026-04-19T08:47:45.94Z</time></trkpt><trkpt lat="43.1899706" lon="12.512376"><ele>461.0</ele><time>2026-04-19T08:47:46.939Z</time></trkpt><trkpt lat="43.1898824" lon="12.512557"><ele>460.5</ele><time>2026-04-19T08:47:47.939Z</time></trkpt><trkpt lat="43.1897901" lon="12.5127357"><ele>460.0</ele><time>2026-04-19T08:47:48.94Z</time></trkpt><trkpt lat="43.1897097" lon="12.5129004"><ele>459.5</ele><time>2026-04-19T08:47:49.94Z</time></trkpt><trkpt lat="43.1896378" lon="12.5130539"><ele>459.0</ele><time>2026-04-19T08:47:50.939Z</time></trkpt><trkpt lat="43.189585" lon="12.5131963"><ele>459.0</ele><time>2026-04-19T08:47:51.939Z</time></trkpt><trkpt lat="43.1895549" lon="12.513333"><ele>459.0</ele><time>2026-04-19T08:47:52.939Z</time></trkpt><trkpt lat="43.189555" lon="12.5134643"><ele>459.0</ele><time>2026-04-19T08:47:53.94Z</time></trkpt><trkpt lat="43.1895935" lon="12.513588"><ele>459.0</ele><time>2026-04-19T08:47:54.939Z</time></trkpt><trkpt lat="43.1896585" lon="12.5136944"><ele>459.0</ele><time>2026-04-19T08:47:55.939Z</time></trkpt><trkpt lat="43.1897436" lon="12.5137685"><ele>463.0</ele><time>2026-04-19T08:47:56.939Z</time></trkpt><trkpt lat="43.1898491" lon="12.5137967"><ele>467.0</ele><time>2026-04-19T08:47:57.939Z</time></trkpt><trkpt lat="43.1899596" lon="12.5137757"><ele>471.0</ele><time>2026-04-19T08:47:58.939Z</time></trkpt><trkpt lat="43.190061" lon="12.5137101"><ele>475.0</ele><time>2026-04-19T08:47:59.939Z</time></trkpt><trkpt lat="43.1901758" lon="12.5135984"><ele>475.0</ele><time>2026-04-19T08:48:00.939Z</time></trkpt><trkpt lat="43.1902929" lon="12.5134685"><ele>475.0</ele><time>2026-04-19T08:48:01.939Z</time></trkpt><trkpt lat="43.1904162" lon="12.5133328"><ele>475.0</ele><time>2026-04-19T08:48:02.94Z</time></trkpt><trkpt lat="43.190534" lon="12.5131762"><ele>475.0</ele><time>2026-04-19T08:48:03.94Z</time></trkpt><trkpt lat="43.1906461" lon="12.5129856"><ele>475.0</ele><time>2026-04-19T08:48:04.938Z</time></trkpt><trkpt lat="43.1907556" lon="12.5127761"><ele>475.0</ele><time>2026-04-19T08:48:05.939Z</time></trkpt><trkpt lat="43.1908675" lon="12.5125742"><ele>478.6666666666667</ele><time>2026-04-19T08:48:06.939Z</time></trkpt><trkpt lat="43.190972" lon="12.5123927"><ele>482.33333333333337</ele><time>2026-04-19T08:48:07.939Z</time></trkpt><trkpt lat="43.1910706" lon="12.5122327"><ele>486.0</ele><time>2026-04-19T08:48:08.94Z</time></trkpt><trkpt lat="43.1911873" lon="12.5121091"><ele>486.66666666666663</ele><time>2026-04-19T08:48:09.938Z</time></trkpt><trkpt lat="43.1913222" lon="12.5120224"><ele>487.3333333333333</ele><time>2026-04-19T08:48:10.939Z</time></trkpt><trkpt lat="43.1914768" lon="12.5119658"><ele>488.0</ele><time>2026-04-19T08:48:11.94Z</time></trkpt><trkpt lat="43.1916422" lon="12.511921"><ele>488.0</ele><time>2026-04-19T08:48:12.94Z</time></trkpt><trkpt lat="43.1918248" lon="12.5118811"><ele>488.0</ele><time>2026-04-19T08:48:13.94Z</time></trkpt><trkpt lat="43.1920111" lon="12.5118376"><ele>488.0</ele><time>2026-04-19T08:48:14.94Z</time></trkpt><trkpt lat="43.1921802" lon="12.5117914"><ele>488.0</ele><time>2026-04-19T08:48:15.938Z</time></trkpt><trkpt lat="43.1923343" lon="12.5117525"><ele>488.0</ele><time>2026-04-19T08:48:16.94Z</time></trkpt><trkpt lat="43.1924736" lon="12.5117255"><ele>488.0</ele><time>2026-04-19T08:48:17.938Z</time></trkpt><trkpt lat="43.1926035" lon="12.5117023"><ele>488.0</ele><time>2026-04-19T08:48:18.939Z</time></trkpt><trkpt lat="43.1927132" lon="12.5117068"><ele>490.4</ele><time>2026-04-19T08:48:19.94Z</time></trkpt><trkpt lat="43.1928134" lon="12.5117522"><ele>492.79999999999995</ele><time>2026-04-19T08:48:20.94Z</time></trkpt><trkpt lat="43.1929038" lon="12.5118362"><ele>495.2</ele><time>2026-04-19T08:48:21.94Z</time></trkpt><trkpt lat="43.1929749" lon="12.5119375"><ele>497.6</ele><time>2026-04-19T08:48:22.938Z</time></trkpt><trkpt lat="43.1930142" lon="12.5120457"><ele>500.0</ele><time>2026-04-19T08:48:23.94Z</time></trkpt><trkpt lat="43.1930151" lon="12.5121562"><ele>502.4</ele><time>2026-04-19T08:48:24.94Z</time></trkpt><trkpt lat="43.1929712" lon="12.5122467"><ele>504.8</ele><time>2026-04-19T08:48:25.94Z</time></trkpt><trkpt lat="43.1928985" lon="12.5123097"><ele>507.20000000000005</ele><time>2026-04-19T08:48:26.939Z</time></trkpt><trkpt lat="43.1928015" lon="12.512368"><ele>509.6</ele><time>2026-04-19T08:48:27.939Z</time></trkpt><trkpt lat="43.1926854" lon="12.5124296"><ele>512.0</ele><time>2026-04-19T08:48:28.94Z</time></trkpt><trkpt lat="43.1925568" lon="12.5125147"><ele>512.0</ele><time>2026-04-19T08:48:29.939Z</time></trkpt><trkpt lat="43.1924287" lon="12.512624"><ele>512.0</ele><time>2026-04-19T08:48:30.939Z</time></trkpt><trkpt lat="43.1923171" lon="12.5127276"><ele>512.0</ele><time>2026-04-19T08:48:31.938Z</time></trkpt><trkpt lat="43.1922164" lon="12.5128289"><ele>512.0</ele><time>2026-04-19T08:48:32.939Z</time></trkpt><trkpt lat="43.1921434" lon="12.5129392"><ele>511.40000000000003</ele><time>2026-04-19T08:48:33.938Z</time></trkpt><trkpt lat="43.1920949" lon="12.5130675"><ele>510.80000000000007</ele><time>2026-04-19T08:48:34.939Z</time></trkpt><trkpt lat="43.1920896" lon="12.5132045"><ele>510.2</ele><time>2026-04-19T08:48:35.939Z</time></trkpt><trkpt lat="43.1921152" lon="12.5133374"><ele>509.6</ele><time>2026-04-19T08:48:36.939Z</time></trkpt><trkpt lat="43.1921727" lon="12.5134562"><ele>509.0</ele><time>2026-04-19T08:48:37.939Z</time></trkpt><trkpt lat="43.1922609" lon="12.5135429"><ele>511.25</ele><time>2026-04-19T08:48:38.94Z</time></trkpt><trkpt lat="43.1923716" lon="12.5135824"><ele>513.5</ele><time>2026-04-19T08:48:39.94Z</time></trkpt><trkpt lat="43.1924971" lon="12.5135764"><ele>515.75</ele><time>2026-04-19T08:48:40.94Z</time></trkpt><trkpt lat="43.1926424" lon="12.5135364"><ele>518.0</ele><time>2026-04-19T08:48:41.94Z</time></trkpt><trkpt lat="43.1928007" lon="12.5134816"><ele>518.0</ele><time>2026-04-19T08:48:42.94Z</time></trkpt><trkpt lat="43.1929567" lon="12.5134384"><ele>518.0</ele><time>2026-04-19T08:48:43.939Z</time></trkpt><trkpt lat="43.1931327" lon="12.5133884"><ele>518.0</ele><time>2026-04-19T08:48:44.939Z</time></trkpt><trkpt lat="43.19332" lon="12.5133264"><ele>520.6666666666666</ele><time>2026-04-19T08:48:45.939Z</time></trkpt><trkpt lat="43.1935129" lon="12.5132644"><ele>523.3333333333334</ele><time>2026-04-19T08:48:46.939Z</time></trkpt><trkpt lat="43.1936997" lon="12.5132021"><ele>526.0</ele><time>2026-04-19T08:48:47.938Z</time></trkpt><trkpt lat="43.1939032" lon="12.5131392"><ele>527.0</ele><time>2026-04-19T08:48:48.94Z</time></trkpt><trkpt lat="43.1940982" lon="12.5130916"><ele>528.0</ele><time>2026-04-19T08:48:49.94Z</time></trkpt><trkpt lat="43.1942822" lon="12.5130682"><ele>529.0</ele><time>2026-04-19T08:48:50.939Z</time></trkpt><trkpt lat="43.1944536" lon="12.5130893"><ele>529.0</ele><time>2026-04-19T08:48:51.94Z</time></trkpt><trkpt lat="43.1946235" lon="12.5131519"><ele>529.0</ele><time>2026-04-19T08:48:52.939Z</time></trkpt><trkpt lat="43.1947877" lon="12.5132523"><ele>529.0</ele><time>2026-04-19T08:48:53.939Z</time></trkpt><trkpt lat="43.1949428" lon="12.5133922"><ele>529.6666666666667</ele><time>2026-04-19T08:48:54.939Z</time></trkpt><trkpt lat="43.1950834" lon="12.5135649"><ele>530.3333333333334</ele><time>2026-04-19T08:48:55.94Z</time></trkpt><trkpt lat="43.1952097" lon="12.513772"><ele>531.0</ele><time>2026-04-19T08:48:56.94Z</time></trkpt><trkpt lat="43.1953309" lon="12.5140119"><ele>531.0</ele><time>2026-04-19T08:48:57.94Z</time></trkpt><trkpt lat="43.1954586" lon="12.5142673"><ele>531.0</ele><time>2026-04-19T08:48:58.94Z</time></trkpt><trkpt lat="43.1955883" lon="12.5145138"><ele>531.0</ele><time>2026-04-19T08:48:59.939Z</time></trkpt><trkpt lat="43.1957376" lon="12.5147536"><ele>534.3333333333334</ele><time>2026-04-19T08:49:00.939Z</time></trkpt><trkpt lat="43.1959" lon="12.514976"><ele>537.6666666666667</ele><time>2026-04-19T08:49:01.939Z</time></trkpt><trkpt lat="43.1960638" lon="12.5151675"><ele>541.0</ele><time>2026-04-19T08:49:02.939Z</time></trkpt><trkpt lat="43.1962243" lon="12.5153338"><ele>543.3333333333334</ele><time>2026-04-19T08:49:03.94Z</time></trkpt><trkpt lat="43.1963793" lon="12.515473"><ele>545.6666666666666</ele><time>2026-04-19T08:49:04.938Z</time></trkpt><trkpt lat="43.1965535" lon="12.5155792"><ele>548.0</ele><time>2026-04-19T08:49:05.939Z</time></trkpt><trkpt lat="43.1967389" lon="12.5156688"><ele>548.0</ele><time>2026-04-19T08:49:06.939Z</time></trkpt><trkpt lat="43.1969283" lon="12.5157445"><ele>548.0</ele><time>2026-04-19T08:49:07.938Z</time></trkpt><trkpt lat="43.1971116" lon="12.5158308"><ele>548.0</ele><time>2026-04-19T08:49:08.939Z</time></trkpt><trkpt lat="43.1972985" lon="12.5159349"><ele>549.6666666666666</ele><time>2026-04-19T08:49:09.94Z</time></trkpt><trkpt lat="43.1974796" lon="12.5160707"><ele>551.3333333333334</ele><time>2026-04-19T08:49:10.94Z</time></trkpt><trkpt lat="43.1976644" lon="12.5162228"><ele>553.0</ele><time>2026-04-19T08:49:11.939Z</time></trkpt><trkpt lat="43.1978492" lon="12.5163945"><ele>553.0</ele><time>2026-04-19T08:49:12.938Z</time></trkpt><trkpt lat="43.1980218" lon="12.5165567"><ele>553.0</ele><time>2026-04-19T08:49:13.939Z</time></trkpt><trkpt lat="43.1981843" lon="12.5167045"><ele>553.0</ele><time>2026-04-19T08:49:14.94Z</time></trkpt><trkpt lat="43.1983546" lon="12.5168448"><ele>555.6666666666667</ele><time>2026-04-19T08:49:15.938Z</time></trkpt><trkpt lat="43.1985374" lon="12.5169641"><ele>558.3333333333334</ele><time>2026-04-19T08:49:16.94Z</time></trkpt><trkpt lat="43.1987276" lon="12.5170541"><ele>561.0</ele><time>2026-04-19T08:49:17.939Z</time></trkpt><trkpt lat="43.1989296" lon="12.5171077"><ele>566.0</ele><time>2026-04-19T08:49:18.94Z</time></trkpt><trkpt lat="43.1991278" lon="12.517127"><ele>571.0</ele><time>2026-04-19T08:49:19.94Z</time></trkpt><trkpt lat="43.1993133" lon="12.5171314"><ele>576.0</ele><time>2026-04-19T08:49:20.94Z</time></trkpt><trkpt lat="43.1994938" lon="12.5171427"><ele>576.0</ele><time>2026-04-19T08:49:21.939Z</time></trkpt><trkpt lat="43.1996764" lon="12.5171842"><ele>576.0</ele><time>2026-04-19T08:49:22.939Z</time></trkpt><trkpt lat="43.1998597" lon="12.517272"><ele>576.0</ele><time>2026-04-19T08:49:23.939Z</time></trkpt><trkpt lat="43.2000479" lon="12.5173894"><ele>576.6666666666666</ele><time>2026-04-19T08:49:24.938Z</time></trkpt><trkpt lat="43.2002476" lon="12.5175237"><ele>577.3333333333333</ele><time>2026-04-19T08:49:25.937Z</time></trkpt><trkpt lat="43.2004505" lon="12.5176511"><ele>578.0</ele><time>2026-04-19T08:49:26.938Z</time></trkpt><trkpt lat="43.2006387" lon="12.5177735"><ele>579.0</ele><time>2026-04-19T08:49:27.938Z</time></trkpt><trkpt lat="43.2008111" lon="12.5179031"><ele>580.0</ele><time>2026-04-19T08:49:28.939Z</time></trkpt><trkpt lat="43.2009515" lon="12.5180535"><ele>581.0</ele><time>2026-04-19T08:49:29.938Z</time></trkpt><trkpt lat="43.2010621" lon="12.5182265"><ele>581.0</ele><time>2026-04-19T08:49:30.939Z</time></trkpt><trkpt lat="43.2011427" lon="12.5184178"><ele>581.0</ele><time>2026-04-19T08:49:31.939Z</time></trkpt><trkpt lat="43.2011895" lon="12.5186246"><ele>581.0</ele><time>2026-04-19T08:49:32.937Z</time></trkpt><trkpt lat="43.2012029" lon="12.518849"><ele>584.3333333333333</ele><time>2026-04-19T08:49:33.938Z</time></trkpt><trkpt lat="43.2011863" lon="12.5190793"><ele>587.6666666666666</ele><time>2026-04-19T08:49:34.939Z</time></trkpt><trkpt lat="43.2011605" lon="12.5192936"><ele>591.0</ele><time>2026-04-19T08:49:35.938Z</time></trkpt><trkpt lat="43.2011493" lon="12.5194907"><ele>592.25</ele><time>2026-04-19T08:49:36.938Z</time></trkpt><trkpt lat="43.2011622" lon="12.5196725"><ele>593.5</ele><time>2026-04-19T08:49:37.939Z</time></trkpt><trkpt lat="43.2011977" lon="12.5198291"><ele>594.75</ele><time>2026-04-19T08:49:38.939Z</time></trkpt><trkpt lat="43.2012625" lon="12.5199629"><ele>596.0</ele><time>2026-04-19T08:49:39.938Z</time></trkpt><trkpt lat="43.2013585" lon="12.5200669"><ele>596.0</ele><time>2026-04-19T08:49:40.938Z</time></trkpt><trkpt lat="43.2014841" lon="12.5201485"><ele>596.0</ele><time>2026-04-19T08:49:41.939Z</time></trkpt><trkpt lat="43.201634" lon="12.5201994"><ele>596.0</ele><time>2026-04-19T08:49:42.939Z</time></trkpt><trkpt lat="43.2018056" lon="12.5202371"><ele>590.6666666666666</ele><time>2026-04-19T08:49:43.938Z</time></trkpt><trkpt lat="43.2019872" lon="12.5202731"><ele>585.3333333333334</ele><time>2026-04-19T08:49:44.939Z</time></trkpt><trkpt lat="43.2021624" lon="12.5203199"><ele>580.0</ele><time>2026-04-19T08:49:45.938Z</time></trkpt><trkpt lat="43.2023338" lon="12.5203927"><ele>580.3333333333334</ele><time>2026-04-19T08:49:46.939Z</time></trkpt><trkpt lat="43.2024941" lon="12.5205092"><ele>580.6666666666666</ele><time>2026-04-19T08:49:47.937Z</time></trkpt><trkpt lat="43.2026327" lon="12.5206502"><ele>581.0</ele><time>2026-04-19T08:49:48.938Z</time></trkpt><trkpt lat="43.2027557" lon="12.5208282"><ele>581.0</ele><time>2026-04-19T08:49:49.938Z</time></trkpt><trkpt lat="43.2028545" lon="12.5210333"><ele>581.0</ele><time>2026-04-19T08:49:50.938Z</time></trkpt><trkpt lat="43.202925" lon="12.5212649"><ele>581.0</ele><time>2026-04-19T08:49:51.938Z</time></trkpt><trkpt lat="43.2029739" lon="12.521518"><ele>584.0</ele><time>2026-04-19T08:49:52.938Z</time></trkpt><trkpt lat="43.203" lon="12.5217996"><ele>587.0</ele><time>2026-04-19T08:49:53.938Z</time></trkpt><trkpt lat="43.2030158" lon="12.522098"><ele>590.0</ele><time>2026-04-19T08:49:54.939Z</time></trkpt><trkpt lat="43.2030339" lon="12.5223883"><ele>592.0</ele><time>2026-04-19T08:49:55.937Z</time></trkpt><trkpt lat="43.2030566" lon="12.5226526"><ele>594.0</ele><time>2026-04-19T08:49:56.937Z</time></trkpt><trkpt lat="43.2030875" lon="12.5228866"><ele>596.0</ele><time>2026-04-19T08:49:57.939Z</time></trkpt><trkpt lat="43.2031373" lon="12.5230968"><ele>587.3333333333333</ele><time>2026-04-19T08:49:58.938Z</time></trkpt><trkpt lat="43.2031803" lon="12.5233013"><ele>578.6666666666666</ele><time>2026-04-19T08:49:59.937Z</time></trkpt><trkpt lat="43.2032958" lon="12.5235164"><ele>570.0</ele><time>2026-04-19T08:50:00.937Z</time></trkpt><trkpt lat="43.2034857" lon="12.5236678"><ele>574.3333333333334</ele><time>2026-04-19T08:50:01.939Z</time></trkpt><trkpt lat="43.2036118" lon="12.5238613"><ele>578.6666666666667</ele><time>2026-04-19T08:50:02.938Z</time></trkpt><trkpt lat="43.2037249" lon="12.5240772"><ele>583.0</ele><time>2026-04-19T08:50:03.939Z</time></trkpt><trkpt lat="43.203811" lon="12.5243285"><ele>580.3333333333334</ele><time>2026-04-19T08:50:04.939Z</time></trkpt><trkpt lat="43.2038841" lon="12.5245875"><ele>577.6666666666666</ele><time>2026-04-19T08:50:05.937Z</time></trkpt><trkpt lat="43.2039525" lon="12.5248277"><ele>575.0</ele><time>2026-04-19T08:50:06.938Z</time></trkpt><trkpt lat="43.2040369" lon="12.5250437"><ele>572.0</ele><time>2026-04-19T08:50:07.937Z</time></trkpt><trkpt lat="43.2041506" lon="12.5252371"><ele>569.0</ele><time>2026-04-19T08:50:08.938Z</time></trkpt><trkpt lat="43.2042942" lon="12.5254025"><ele>566.0</ele><time>2026-04-19T08:50:09.939Z</time></trkpt><trkpt lat="43.2044621" lon="12.5255488"><ele>567.0</ele><time>2026-04-19T08:50:10.938Z</time></trkpt><trkpt lat="43.2046488" lon="12.5256937"><ele>568.0</ele><time>2026-04-19T08:50:11.938Z</time></trkpt><trkpt lat="43.2048427" lon="12.5258491"><ele>569.0</ele><time>2026-04-19T08:50:12.938Z</time></trkpt><trkpt lat="43.2050454" lon="12.5260057"><ele>569.0</ele><time>2026-04-19T08:50:13.938Z</time></trkpt><trkpt lat="43.2052463" lon="12.5261606"><ele>569.0</ele><time>2026-04-19T08:50:14.938Z</time></trkpt><trkpt lat="43.2054306" lon="12.5263093"><ele>569.0</ele><time>2026-04-19T08:50:15.939Z</time></trkpt><trkpt lat="43.2056038" lon="12.5264431"><ele>573.3333333333333</ele><time>2026-04-19T08:50:16.938Z</time></trkpt><trkpt lat="43.205773" lon="12.5265696"><ele>577.6666666666666</ele><time>2026-04-19T08:50:17.938Z</time></trkpt><trkpt lat="43.205943" lon="12.5266809"><ele>582.0</ele><time>2026-04-19T08:50:18.938Z</time></trkpt><trkpt lat="43.2061211" lon="12.5267618"><ele>582.0</ele><time>2026-04-19T08:50:19.939Z</time></trkpt><trkpt lat="43.2063124" lon="12.5268116"><ele>582.0</ele><time>2026-04-19T08:50:20.938Z</time></trkpt><trkpt lat="43.2065122" lon="12.5268364"><ele>582.0</ele><time>2026-04-19T08:50:21.939Z</time></trkpt><trkpt lat="43.2067178" lon="12.5268648"><ele>582.3333333333334</ele><time>2026-04-19T08:50:22.937Z</time></trkpt><trkpt lat="43.2069155" lon="12.5268914"><ele>582.6666666666667</ele><time>2026-04-19T08:50:23.938Z</time></trkpt><trkpt lat="43.2071016" lon="12.5269196"><ele>583.0</ele><time>2026-04-19T08:50:24.937Z</time></trkpt><trkpt lat="43.2072695" lon="12.5269613"><ele>582.3333333333334</ele><time>2026-04-19T08:50:25.938Z</time></trkpt><trkpt lat="43.2074157" lon="12.5270282"><ele>581.6666666666666</ele><time>2026-04-19T08:50:26.938Z</time></trkpt><trkpt lat="43.2075397" lon="12.5271328"><ele>581.0</ele><time>2026-04-19T08:50:27.938Z</time></trkpt><trkpt lat="43.2076465" lon="12.5272824"><ele>580.0</ele><time>2026-04-19T08:50:28.938Z</time></trkpt><trkpt lat="43.2077466" lon="12.5274572"><ele>579.0</ele><time>2026-04-19T08:50:29.938Z</time></trkpt><trkpt lat="43.2078387" lon="12.5276503"><ele>578.0</ele><time>2026-04-19T08:50:30.937Z</time></trkpt><trkpt lat="43.2079335" lon="12.5278392"><ele>577.3333333333333</ele><time>2026-04-19T08:50:31.939Z</time></trkpt><trkpt lat="43.20804" lon="12.5280127"><ele>576.6666666666666</ele><time>2026-04-19T08:50:32.938Z</time></trkpt><trkpt lat="43.2081626" lon="12.5281565"><ele>576.0</ele><time>2026-04-19T08:50:33.937Z</time></trkpt><trkpt lat="43.2083081" lon="12.5282676"><ele>581.6666666666666</ele><time>2026-04-19T08:50:34.938Z</time></trkpt><trkpt lat="43.2084712" lon="12.5283549"><ele>587.3333333333333</ele><time>2026-04-19T08:50:35.939Z</time></trkpt><trkpt lat="43.2086487" lon="12.5284336"><ele>593.0</ele><time>2026-04-19T08:50:36.938Z</time></trkpt><trkpt lat="43.2088363" lon="12.5285168"><ele>594.0</ele><time>2026-04-19T08:50:37.939Z</time></trkpt><trkpt lat="43.2090326" lon="12.5285983"><ele>595.0</ele><time>2026-04-19T08:50:38.938Z</time></trkpt><trkpt lat="43.2092346" lon="12.5286815"><ele>596.0</ele><time>2026-04-19T08:50:39.938Z</time></trkpt><trkpt lat="43.2094401" lon="12.5287679"><ele>596.6666666666666</ele><time>2026-04-19T08:50:40.938Z</time></trkpt><trkpt lat="43.2096443" lon="12.5288532"><ele>597.3333333333334</ele><time>2026-04-19T08:50:41.939Z</time></trkpt><trkpt lat="43.2098442" lon="12.5289325"><ele>598.0</ele><time>2026-04-19T08:50:42.939Z</time></trkpt><trkpt lat="43.2100331" lon="12.5290106"><ele>600.3333333333334</ele><time>2026-04-19T08:50:43.939Z</time></trkpt><trkpt lat="43.2102176" lon="12.5290851"><ele>602.6666666666666</ele><time>2026-04-19T08:50:44.937Z</time></trkpt><trkpt lat="43.2103853" lon="12.5291562"><ele>605.0</ele><time>2026-04-19T08:50:45.938Z</time></trkpt><trkpt lat="43.210541" lon="12.5292291"><ele>606.3333333333333</ele><time>2026-04-19T08:50:46.937Z</time></trkpt><trkpt lat="43.2106872" lon="12.5293156"><ele>607.6666666666666</ele><time>2026-04-19T08:50:47.937Z</time></trkpt><trkpt lat="43.2108414" lon="12.5294103"><ele>609.0</ele><time>2026-04-19T08:50:48.939Z</time></trkpt><trkpt lat="43.2109958" lon="12.5295226"><ele>611.0</ele><time>2026-04-19T08:50:49.937Z</time></trkpt><trkpt lat="43.211154" lon="12.5296534"><ele>613.0</ele><time>2026-04-19T08:50:50.939Z</time></trkpt><trkpt lat="43.2113127" lon="12.5297992"><ele>615.0</ele><time>2026-04-19T08:50:51.938Z</time></trkpt><trkpt lat="43.2114609" lon="12.5299638"><ele>615.6666666666666</ele><time>2026-04-19T08:50:52.938Z</time></trkpt><trkpt lat="43.2116019" lon="12.5301373"><ele>616.3333333333333</ele><time>2026-04-19T08:50:53.938Z</time></trkpt><trkpt lat="43.2117328" lon="12.5303194"><ele>617.0</ele><time>2026-04-19T08:50:54.938Z</time></trkpt><trkpt lat="43.2118562" lon="12.53049"><ele>617.0</ele><time>2026-04-19T08:50:55.938Z</time></trkpt><trkpt lat="43.2119715" lon="12.5306529"><ele>617.0</ele><time>2026-04-19T08:50:56.938Z</time></trkpt><trkpt lat="43.212082" lon="12.5308063"><ele>617.0</ele><time>2026-04-19T08:50:57.939Z</time></trkpt><trkpt lat="43.21219" lon="12.5309497"><ele>617.0</ele><time>2026-04-19T08:50:58.939Z</time></trkpt><trkpt lat="43.2123184" lon="12.5310573"><ele>617.0</ele><time>2026-04-19T08:50:59.938Z</time></trkpt><trkpt lat="43.2124697" lon="12.5311363"><ele>617.0</ele><time>2026-04-19T08:51:00.938Z</time></trkpt><trkpt lat="43.2126334" lon="12.5311948"><ele>616.3333333333333</ele><time>2026-04-19T08:51:01.939Z</time></trkpt><trkpt lat="43.2128096" lon="12.5312578"><ele>615.6666666666666</ele><time>2026-04-19T08:51:02.938Z</time></trkpt><trkpt lat="43.2129961" lon="12.5313223"><ele>615.0</ele><time>2026-04-19T08:51:03.937Z</time></trkpt><trkpt lat="43.213189" lon="12.5313873"><ele>612.6666666666666</ele><time>2026-04-19T08:51:04.939Z</time></trkpt><trkpt lat="43.2133881" lon="12.5314553"><ele>610.3333333333333</ele><time>2026-04-19T08:51:05.939Z</time></trkpt><trkpt lat="43.2135785" lon="12.5315214"><ele>608.0</ele><time>2026-04-19T08:51:06.938Z</time></trkpt><trkpt lat="43.2137594" lon="12.5315952"><ele>608.0</ele><time>2026-04-19T08:51:07.938Z</time></trkpt><trkpt lat="43.2139329" lon="12.5316709"><ele>608.0</ele><time>2026-04-19T08:51:08.939Z</time></trkpt><trkpt lat="43.2141027" lon="12.5317697"><ele>608.0</ele><time>2026-04-19T08:51:09.938Z</time></trkpt><trkpt lat="43.2142647" lon="12.5319006"><ele>607.0</ele><time>2026-04-19T08:51:10.937Z</time></trkpt><trkpt lat="43.2144241" lon="12.5320558"><ele>606.0</ele><time>2026-04-19T08:51:11.939Z</time></trkpt><trkpt lat="43.2145733" lon="12.5322308"><ele>605.0</ele><time>2026-04-19T08:51:12.938Z</time></trkpt><trkpt lat="43.2147103" lon="12.5324394"><ele>609.0</ele><time>2026-04-19T08:51:13.939Z</time></trkpt><trkpt lat="43.214838" lon="12.53266"><ele>613.0</ele><time>2026-04-19T08:51:14.938Z</time></trkpt><trkpt lat="43.2149538" lon="12.5328974"><ele>617.0</ele><time>2026-04-19T08:51:15.939Z</time></trkpt><trkpt lat="43.2150715" lon="12.5331222"><ele>617.0</ele><time>2026-04-19T08:51:16.938Z</time></trkpt><trkpt lat="43.2152115" lon="12.5333341"><ele>617.0</ele><time>2026-04-19T08:51:17.938Z</time></trkpt><trkpt lat="43.2153591" lon="12.5335365"><ele>617.0</ele><time>2026-04-19T08:51:18.939Z</time></trkpt><trkpt lat="43.2155046" lon="12.5337174"><ele>620.0</ele><time>2026-04-19T08:51:19.938Z</time></trkpt><trkpt lat="43.2156409" lon="12.5338813"><ele>623.0</ele><time>2026-04-19T08:51:20.937Z</time></trkpt><trkpt lat="43.2157793" lon="12.5340417"><ele>626.0</ele><time>2026-04-19T08:51:21.938Z</time></trkpt><trkpt lat="43.2159183" lon="12.5342055"><ele>626.0</ele><time>2026-04-19T08:51:22.936Z</time></trkpt><trkpt lat="43.2160733" lon="12.5343772"><ele>626.0</ele><time>2026-04-19T08:51:23.937Z</time></trkpt><trkpt lat="43.2162421" lon="12.5345461"><ele>626.0</ele><time>2026-04-19T08:51:24.937Z</time></trkpt><trkpt lat="43.2164239" lon="12.5347126"><ele>625.3333333333333</ele><time>2026-04-19T08:51:25.938Z</time></trkpt><trkpt lat="43.216609" lon="12.5348772"><ele>624.6666666666666</ele><time>2026-04-19T08:51:26.937Z</time></trkpt><trkpt lat="43.2167789" lon="12.5350393"><ele>624.0</ele><time>2026-04-19T08:51:27.937Z</time></trkpt><trkpt lat="43.2169535" lon="12.5351947"><ele>624.0</ele><time>2026-04-19T08:51:28.937Z</time></trkpt><trkpt lat="43.2171181" lon="12.5353433"><ele>624.0</ele><time>2026-04-19T08:51:29.938Z</time></trkpt><trkpt lat="43.2172731" lon="12.535486"><ele>624.0</ele><time>2026-04-19T08:51:30.938Z</time></trkpt><trkpt lat="43.2174186" lon="12.5356225"><ele>627.6666666666666</ele><time>2026-04-19T08:51:31.937Z</time></trkpt><trkpt lat="43.2175434" lon="12.5357601"><ele>631.3333333333333</ele><time>2026-04-19T08:51:32.937Z</time></trkpt><trkpt lat="43.2176613" lon="12.5359105"><ele>635.0</ele><time>2026-04-19T08:51:33.938Z</time></trkpt><trkpt lat="43.2177705" lon="12.5360712"><ele>634.6666666666666</ele><time>2026-04-19T08:51:34.936Z</time></trkpt><trkpt lat="43.2178851" lon="12.5362283"><ele>634.3333333333334</ele><time>2026-04-19T08:51:35.938Z</time></trkpt><trkpt lat="43.2180035" lon="12.5363752"><ele>634.0</ele><time>2026-04-19T08:51:36.937Z</time></trkpt><trkpt lat="43.2181195" lon="12.536515"><ele>633.6666666666667</ele><time>2026-04-19T08:51:37.938Z</time></trkpt><trkpt lat="43.2182438" lon="12.5366502"><ele>633.3333333333334</ele><time>2026-04-19T08:51:38.937Z</time></trkpt><trkpt lat="43.2183723" lon="12.5367782"><ele>633.0</ele><time>2026-04-19T08:51:39.937Z</time></trkpt><trkpt lat="43.2185015" lon="12.5369006"><ele>633.0</ele><time>2026-04-19T08:51:40.937Z</time></trkpt><trkpt lat="43.218627" lon="12.5370191"><ele>633.0</ele><time>2026-04-19T08:51:41.937Z</time></trkpt><trkpt lat="43.2187518" lon="12.537133"><ele>633.0</ele><time>2026-04-19T08:51:42.937Z</time></trkpt><trkpt lat="43.2188764" lon="12.537246"><ele>631.3333333333334</ele><time>2026-04-19T08:51:43.938Z</time></trkpt><trkpt lat="43.219006" lon="12.5373655"><ele>629.6666666666667</ele><time>2026-04-19T08:51:44.936Z</time></trkpt><trkpt lat="43.2191327" lon="12.5374939"><ele>628.0</ele><time>2026-04-19T08:51:45.937Z</time></trkpt><trkpt lat="43.2192493" lon="12.5376239"><ele>628.0</ele><time>2026-04-19T08:51:46.936Z</time></trkpt><trkpt lat="43.2193581" lon="12.5377506"><ele>628.0</ele><time>2026-04-19T08:51:47.936Z</time></trkpt><trkpt lat="43.2194559" lon="12.5378914"><ele>628.0</ele><time>2026-04-19T08:51:48.938Z</time></trkpt><trkpt lat="43.2195426" lon="12.5380497"><ele>628.0</ele><time>2026-04-19T08:51:49.937Z</time></trkpt><trkpt lat="43.2196308" lon="12.538227"><ele>627.6666666666667</ele><time>2026-04-19T08:51:50.936Z</time></trkpt><trkpt lat="43.2197126" lon="12.5384255"><ele>627.3333333333334</ele><time>2026-04-19T08:51:51.936Z</time></trkpt><trkpt lat="43.2197988" lon="12.5386305"><ele>627.0</ele><time>2026-04-19T08:51:52.937Z</time></trkpt><trkpt lat="43.2198915" lon="12.5388296"><ele>627.0</ele><time>2026-04-19T08:51:53.938Z</time></trkpt><trkpt lat="43.2199899" lon="12.5390107"><ele>627.0</ele><time>2026-04-19T08:51:54.937Z</time></trkpt><trkpt lat="43.2200935" lon="12.5391764"><ele>627.0</ele><time>2026-04-19T08:51:55.936Z</time></trkpt><trkpt lat="43.2201987" lon="12.5393311"><ele>627.0</ele><time>2026-04-19T08:51:56.938Z</time></trkpt><trkpt lat="43.2203027" lon="12.5394775"><ele>627.0</ele><time>2026-04-19T08:51:57.937Z</time></trkpt><trkpt lat="43.2204053" lon="12.539632"><ele>627.0</ele><time>2026-04-19T08:51:58.937Z</time></trkpt><trkpt lat="43.2205066" lon="12.5397859"><ele>625.6666666666666</ele><time>2026-04-19T08:51:59.937Z</time></trkpt><trkpt lat="43.2205921" lon="12.5399568"><ele>624.3333333333333</ele><time>2026-04-19T08:52:00.937Z</time></trkpt><trkpt lat="43.2206616" lon="12.5401347"><ele>623.0</ele><time>2026-04-19T08:52:01.937Z</time></trkpt><trkpt lat="43.2207294" lon="12.5403267"><ele>624.3333333333333</ele><time>2026-04-19T08:52:02.936Z</time></trkpt><trkpt lat="43.2207962" lon="12.5405256"><ele>625.6666666666666</ele><time>2026-04-19T08:52:03.937Z</time></trkpt><trkpt lat="43.2208595" lon="12.5407251"><ele>627.0</ele><time>2026-04-19T08:52:04.937Z</time></trkpt><trkpt lat="43.2209234" lon="12.5409227"><ele>627.0</ele><time>2026-04-19T08:52:05.937Z</time></trkpt><trkpt lat="43.2209868" lon="12.5411212"><ele>627.0</ele><time>2026-04-19T08:52:06.937Z</time></trkpt><trkpt lat="43.2210488" lon="12.5413172"><ele>627.0</ele><time>2026-04-19T08:52:07.937Z</time></trkpt><trkpt lat="43.2211251" lon="12.5415141"><ele>626.0</ele><time>2026-04-19T08:52:08.938Z</time></trkpt><trkpt lat="43.2212289" lon="12.541697"><ele>625.0</ele><time>2026-04-19T08:52:09.938Z</time></trkpt><trkpt lat="43.2213619" lon="12.541865"><ele>624.0</ele><time>2026-04-19T08:52:10.938Z</time></trkpt><trkpt lat="43.2215145" lon="12.5420225"><ele>621.0</ele><time>2026-04-19T08:52:11.938Z</time></trkpt><trkpt lat="43.2216728" lon="12.5421844"><ele>618.0</ele><time>2026-04-19T08:52:12.936Z</time></trkpt><trkpt lat="43.2218133" lon="12.542349"><ele>615.0</ele><time>2026-04-19T08:52:13.938Z</time></trkpt><trkpt lat="43.2219409" lon="12.5425322"><ele>615.0</ele><time>2026-04-19T08:52:14.938Z</time></trkpt><trkpt lat="43.2220535" lon="12.5427415"><ele>615.0</ele><time>2026-04-19T08:52:15.937Z</time></trkpt><trkpt lat="43.2221621" lon="12.5429688"><ele>615.0</ele><time>2026-04-19T08:52:16.937Z</time></trkpt><trkpt lat="43.2222676" lon="12.5431978"><ele>616.0</ele><time>2026-04-19T08:52:17.938Z</time></trkpt><trkpt lat="43.2223677" lon="12.543412"><ele>617.0</ele><time>2026-04-19T08:52:18.937Z</time></trkpt><trkpt lat="43.2224581" lon="12.5436082"><ele>618.0</ele><time>2026-04-19T08:52:19.937Z</time></trkpt><trkpt lat="43.2225334" lon="12.5437811"><ele>620.4</ele><time>2026-04-19T08:52:20.938Z</time></trkpt><trkpt lat="43.2225906" lon="12.5439307"><ele>622.8</ele><time>2026-04-19T08:52:21.938Z</time></trkpt><trkpt lat="43.2226178" lon="12.5440683"><ele>625.2</ele><time>2026-04-19T08:52:22.938Z</time></trkpt><trkpt lat="43.2226048" lon="12.5442113"><ele>627.6</ele><time>2026-04-19T08:52:23.938Z</time></trkpt><trkpt lat="43.222553" lon="12.5443521"><ele>630.0</ele><time>2026-04-19T08:52:24.938Z</time></trkpt><trkpt lat="43.2224832" lon="12.5444845"><ele>632.5</ele><time>2026-04-19T08:52:25.937Z</time></trkpt><trkpt lat="43.2224182" lon="12.5446314"><ele>635.0</ele><time>2026-04-19T08:52:26.938Z</time></trkpt><trkpt lat="43.2223644" lon="12.5447939"><ele>637.5</ele><time>2026-04-19T08:52:27.938Z</time></trkpt><trkpt lat="43.2223304" lon="12.5449659"><ele>640.0</ele><time>2026-04-19T08:52:28.936Z</time></trkpt><trkpt lat="43.2223393" lon="12.5451463"><ele>640.0</ele><time>2026-04-19T08:52:29.938Z</time></trkpt><trkpt lat="43.222335" lon="12.5453271"><ele>640.0</ele><time>2026-04-19T08:52:30.937Z</time></trkpt><trkpt lat="43.2224058" lon="12.5455096"><ele>640.0</ele><time>2026-04-19T08:52:31.937Z</time></trkpt><trkpt lat="43.2224547" lon="12.5456958"><ele>640.0</ele><time>2026-04-19T08:52:32.936Z</time></trkpt><trkpt lat="43.2225866" lon="12.5459292"><ele>640.6666666666667</ele><time>2026-04-19T08:52:33.938Z</time></trkpt><trkpt lat="43.2226863" lon="12.5461325"><ele>641.3333333333334</ele><time>2026-04-19T08:52:34.937Z</time></trkpt><trkpt lat="43.2227824" lon="12.5463367"><ele>642.0</ele><time>2026-04-19T08:52:35.938Z</time></trkpt><trkpt lat="43.2228574" lon="12.5465338"><ele>643.0</ele><time>2026-04-19T08:52:36.937Z</time></trkpt><trkpt lat="43.2229003" lon="12.5467514"><ele>644.0</ele><time>2026-04-19T08:52:37.938Z</time></trkpt><trkpt lat="43.2229124" lon="12.5469809"><ele>645.0</ele><time>2026-04-19T08:52:38.937Z</time></trkpt><trkpt lat="43.2228988" lon="12.5472225"><ele>645.0</ele><time>2026-04-19T08:52:39.937Z</time></trkpt><trkpt lat="43.2228841" lon="12.5474747"><ele>645.0</ele><time>2026-04-19T08:52:40.938Z</time></trkpt><trkpt lat="43.2228767" lon="12.5477279"><ele>645.0</ele><time>2026-04-19T08:52:41.937Z</time></trkpt><trkpt lat="43.2228779" lon="12.5479698"><ele>646.0</ele><time>2026-04-19T08:52:42.937Z</time></trkpt><trkpt lat="43.2228958" lon="12.548216"><ele>647.0</ele><time>2026-04-19T08:52:43.938Z</time></trkpt><trkpt lat="43.2229312" lon="12.5484584"><ele>648.0</ele><time>2026-04-19T08:52:44.937Z</time></trkpt><trkpt lat="43.222979" lon="12.5486786"><ele>646.75</ele><time>2026-04-19T08:52:45.937Z</time></trkpt><trkpt lat="43.2230371" lon="12.5488739"><ele>645.5</ele><time>2026-04-19T08:52:46.937Z</time></trkpt><trkpt lat="43.2230918" lon="12.5490528"><ele>644.25</ele><time>2026-04-19T08:52:47.937Z</time></trkpt><trkpt lat="43.2231459" lon="12.5492078"><ele>643.0</ele><time>2026-04-19T08:52:48.937Z</time></trkpt><trkpt lat="43.2232006" lon="12.5493536"><ele>646.4</ele><time>2026-04-19T08:52:49.937Z</time></trkpt><trkpt lat="43.2232521" lon="12.5494938"><ele>649.8</ele><time>2026-04-19T08:52:50.936Z</time></trkpt><trkpt lat="43.2233052" lon="12.5496232"><ele>653.2</ele><time>2026-04-19T08:52:51.937Z</time></trkpt><trkpt lat="43.223351" lon="12.5497461"><ele>656.6</ele><time>2026-04-19T08:52:52.936Z</time></trkpt><trkpt lat="43.2233905" lon="12.5498656"><ele>660.0</ele><time>2026-04-19T08:52:53.936Z</time></trkpt><trkpt lat="43.2234295" lon="12.5499833"><ele>660.0</ele><time>2026-04-19T08:52:54.938Z</time></trkpt><trkpt lat="43.223461" lon="12.5501012"><ele>660.0</ele><time>2026-04-19T08:52:55.937Z</time></trkpt><trkpt lat="43.2234841" lon="12.5502204"><ele>660.0</ele><time>2026-04-19T08:52:56.937Z</time></trkpt><trkpt lat="43.2235025" lon="12.5503476"><ele>660.0</ele><time>2026-04-19T08:52:57.938Z</time></trkpt><trkpt lat="43.2235158" lon="12.5504728"><ele>660.0</ele><time>2026-04-19T08:52:58.938Z</time></trkpt><trkpt lat="43.2235235" lon="12.550594"><ele>659.8333333333334</ele><time>2026-04-19T08:52:59.938Z</time></trkpt><trkpt lat="43.2235313" lon="12.550715"><ele>659.6666666666666</ele><time>2026-04-19T08:53:00.938Z</time></trkpt><trkpt lat="43.2235341" lon="12.5508291"><ele>659.5</ele><time>2026-04-19T08:53:01.938Z</time></trkpt><trkpt lat="43.2235434" lon="12.5509319"><ele>659.3333333333333</ele><time>2026-04-19T08:53:02.938Z</time></trkpt><trkpt lat="43.223554" lon="12.5510272"><ele>659.1666666666666</ele><time>2026-04-19T08:53:03.938Z</time></trkpt><trkpt lat="43.2235718" lon="12.5511218"><ele>659.0</ele><time>2026-04-19T08:53:04.938Z</time></trkpt><trkpt lat="43.2235951" lon="12.5512264"><ele>658.0</ele><time>2026-04-19T08:53:05.937Z</time></trkpt><trkpt lat="43.2236343" lon="12.5513418"><ele>657.0</ele><time>2026-04-19T08:53:06.937Z</time></trkpt><trkpt lat="43.2236907" lon="12.5514627"><ele>656.0</ele><time>2026-04-19T08:53:07.937Z</time></trkpt><trkpt lat="43.2237745" lon="12.5515805"><ele>655.0</ele><time>2026-04-19T08:53:08.938Z</time></trkpt><trkpt lat="43.2238903" lon="12.5516978"><ele>653.0</ele><time>2026-04-19T08:53:09.938Z</time></trkpt><trkpt lat="43.2240041" lon="12.5517861"><ele>651.0</ele><time>2026-04-19T08:53:10.937Z</time></trkpt><trkpt lat="43.2241382" lon="12.5518927"><ele>649.0</ele><time>2026-04-19T08:53:11.938Z</time></trkpt><trkpt lat="43.2242777" lon="12.552007"><ele>647.0</ele><time>2026-04-19T08:53:12.938Z</time></trkpt><trkpt lat="43.2244081" lon="12.5521226"><ele>647.0</ele><time>2026-04-19T08:53:13.938Z</time></trkpt><trkpt lat="43.2245403" lon="12.5522307"><ele>647.0</ele><time>2026-04-19T08:53:14.937Z</time></trkpt><trkpt lat="43.2246663" lon="12.5523376"><ele>647.0</ele><time>2026-04-19T08:53:15.937Z</time></trkpt><trkpt lat="43.2247989" lon="12.5524463"><ele>652.0</ele><time>2026-04-19T08:53:16.937Z</time></trkpt><trkpt lat="43.2249285" lon="12.5525547"><ele>657.0</ele><time>2026-04-19T08:53:17.938Z</time></trkpt><trkpt lat="43.2250656" lon="12.552672"><ele>662.0</ele><time>2026-04-19T08:53:18.937Z</time></trkpt><trkpt lat="43.2252008" lon="12.5527808"><ele>662.0</ele><time>2026-04-19T08:53:19.937Z</time></trkpt><trkpt lat="43.2253328" lon="12.552869"><ele>662.0</ele><time>2026-04-19T08:53:20.937Z</time></trkpt><trkpt lat="43.2254728" lon="12.5529349"><ele>662.0</ele><time>2026-04-19T08:53:21.935Z</time></trkpt><trkpt lat="43.2256114" lon="12.5529798"><ele>662.0</ele><time>2026-04-19T08:53:22.936Z</time></trkpt><trkpt lat="43.2257565" lon="12.5529964"><ele>658.3333333333333</ele><time>2026-04-19T08:53:23.937Z</time></trkpt><trkpt lat="43.2259308" lon="12.5529645"><ele>654.6666666666666</ele><time>2026-04-19T08:53:24.937Z</time></trkpt><trkpt lat="43.2261079" lon="12.5529447"><ele>651.0</ele><time>2026-04-19T08:53:25.937Z</time></trkpt><trkpt lat="43.226287" lon="12.5529172"><ele>651.0</ele><time>2026-04-19T08:53:26.936Z</time></trkpt><trkpt lat="43.2264496" lon="12.5528911"><ele>651.0</ele><time>2026-04-19T08:53:27.937Z</time></trkpt><trkpt lat="43.2266178" lon="12.5528705"><ele>651.0</ele><time>2026-04-19T08:53:28.937Z</time></trkpt><trkpt lat="43.2267996" lon="12.5528564"><ele>655.0</ele><time>2026-04-19T08:53:29.935Z</time></trkpt><trkpt lat="43.2269785" lon="12.5528419"><ele>659.0</ele><time>2026-04-19T08:53:30.936Z</time></trkpt><trkpt lat="43.2271534" lon="12.5528348"><ele>663.0</ele><time>2026-04-19T08:53:31.937Z</time></trkpt><trkpt lat="43.2273273" lon="12.5528257"><ele>663.0</ele><time>2026-04-19T08:53:32.937Z</time></trkpt><trkpt lat="43.2275018" lon="12.5528274"><ele>663.0</ele><time>2026-04-19T08:53:33.935Z</time></trkpt><trkpt lat="43.2276755" lon="12.552827"><ele>663.0</ele><time>2026-04-19T08:53:34.936Z</time></trkpt><trkpt lat="43.2278406" lon="12.5528351"><ele>663.0</ele><time>2026-04-19T08:53:35.936Z</time></trkpt><trkpt lat="43.2279963" lon="12.5528412"><ele>663.0</ele><time>2026-04-19T08:53:36.937Z</time></trkpt><trkpt lat="43.2281414" lon="12.5528571"><ele>663.0</ele><time>2026-04-19T08:53:37.936Z</time></trkpt><trkpt lat="43.2282791" lon="12.5528923"><ele>663.0</ele><time>2026-04-19T08:53:38.936Z</time></trkpt><trkpt lat="43.2284164" lon="12.5529578"><ele>659.6666666666666</ele><time>2026-04-19T08:53:39.937Z</time></trkpt><trkpt lat="43.2285544" lon="12.5530501"><ele>656.3333333333333</ele><time>2026-04-19T08:53:40.936Z</time></trkpt><trkpt lat="43.2286965" lon="12.5531696"><ele>653.0</ele><time>2026-04-19T08:53:41.936Z</time></trkpt><trkpt lat="43.2288308" lon="12.5533031"><ele>653.0</ele><time>2026-04-19T08:53:42.936Z</time></trkpt><trkpt lat="43.2289705" lon="12.5534472"><ele>653.0</ele><time>2026-04-19T08:53:43.935Z</time></trkpt><trkpt lat="43.2291008" lon="12.5535815"><ele>653.0</ele><time>2026-04-19T08:53:44.936Z</time></trkpt><trkpt lat="43.2292214" lon="12.5537054"><ele>654.0</ele><time>2026-04-19T08:53:45.936Z</time></trkpt><trkpt lat="43.2293374" lon="12.5538277"><ele>655.0</ele><time>2026-04-19T08:53:46.936Z</time></trkpt><trkpt lat="43.2294493" lon="12.5539639"><ele>656.0</ele><time>2026-04-19T08:53:47.936Z</time></trkpt><trkpt lat="43.2295491" lon="12.5541004"><ele>657.0</ele><time>2026-04-19T08:53:48.935Z</time></trkpt><trkpt lat="43.2296254" lon="12.554262"><ele>657.0</ele><time>2026-04-19T08:53:49.937Z</time></trkpt><trkpt lat="43.229682" lon="12.5544405"><ele>657.0</ele><time>2026-04-19T08:53:50.936Z</time></trkpt><trkpt lat="43.2297267" lon="12.5546367"><ele>657.0</ele><time>2026-04-19T08:53:51.937Z</time></trkpt><trkpt lat="43.229717" lon="12.5548643"><ele>656.6666666666666</ele><time>2026-04-19T08:53:52.937Z</time></trkpt><trkpt lat="43.2296905" lon="12.5550846"><ele>656.3333333333333</ele><time>2026-04-19T08:53:53.936Z</time></trkpt><trkpt lat="43.2296591" lon="12.555297"><ele>656.0</ele><time>2026-04-19T08:53:54.937Z</time></trkpt><trkpt lat="43.2296401" lon="12.5554925"><ele>656.0</ele><time>2026-04-19T08:53:55.936Z</time></trkpt><trkpt lat="43.2296071" lon="12.5556984"><ele>656.0</ele><time>2026-04-19T08:53:56.935Z</time></trkpt><trkpt lat="43.2295441" lon="12.5558873"><ele>656.0</ele><time>2026-04-19T08:53:57.936Z</time></trkpt><trkpt lat="43.2294641" lon="12.5560699"><ele>659.3333333333333</ele><time>2026-04-19T08:53:58.936Z</time></trkpt><trkpt lat="43.229377" lon="12.55624"><ele>662.6666666666666</ele><time>2026-04-19T08:53:59.936Z</time></trkpt><trkpt lat="43.2292881" lon="12.5564113"><ele>666.0</ele><time>2026-04-19T08:54:00.935Z</time></trkpt><trkpt lat="43.2292132" lon="12.5565817"><ele>666.0</ele><time>2026-04-19T08:54:01.936Z</time></trkpt><trkpt lat="43.2291559" lon="12.5567482"><ele>666.0</ele><time>2026-04-19T08:54:02.936Z</time></trkpt><trkpt lat="43.2291321" lon="12.5569265"><ele>666.0</ele><time>2026-04-19T08:54:03.936Z</time></trkpt><trkpt lat="43.2291318" lon="12.5571234"><ele>666.0</ele><time>2026-04-19T08:54:04.937Z</time></trkpt><trkpt lat="43.2291579" lon="12.5573285"><ele>664.6666666666666</ele><time>2026-04-19T08:54:05.937Z</time></trkpt><trkpt lat="43.2291941" lon="12.5575411"><ele>663.3333333333333</ele><time>2026-04-19T08:54:06.936Z</time></trkpt><trkpt lat="43.2292451" lon="12.5577597"><ele>662.0</ele><time>2026-04-19T08:54:07.936Z</time></trkpt><trkpt lat="43.229309" lon="12.5579646"><ele>661.0</ele><time>2026-04-19T08:54:08.936Z</time></trkpt><trkpt lat="43.2293968" lon="12.5581544"><ele>660.0</ele><time>2026-04-19T08:54:09.937Z</time></trkpt><trkpt lat="43.229493" lon="12.5583167"><ele>659.0</ele><time>2026-04-19T08:54:10.937Z</time></trkpt><trkpt lat="43.2296175" lon="12.55845"><ele>659.0</ele><time>2026-04-19T08:54:11.937Z</time></trkpt><trkpt lat="43.2297537" lon="12.5585605"><ele>659.0</ele><time>2026-04-19T08:54:12.937Z</time></trkpt><trkpt lat="43.2298976" lon="12.5586538"><ele>659.0</ele><time>2026-04-19T08:54:13.935Z</time></trkpt><trkpt lat="43.2300597" lon="12.5587216"><ele>658.6666666666666</ele><time>2026-04-19T08:54:14.935Z</time></trkpt><trkpt lat="43.2302168" lon="12.5587956"><ele>658.3333333333334</ele><time>2026-04-19T08:54:15.935Z</time></trkpt><trkpt lat="43.2303878" lon="12.5588624"><ele>658.0</ele><time>2026-04-19T08:54:16.937Z</time></trkpt><trkpt lat="43.2305532" lon="12.5589478"><ele>656.6666666666667</ele><time>2026-04-19T08:54:17.935Z</time></trkpt><trkpt lat="43.2307187" lon="12.5590181"><ele>655.3333333333334</ele><time>2026-04-19T08:54:18.936Z</time></trkpt><trkpt lat="43.2308974" lon="12.5590998"><ele>654.0</ele><time>2026-04-19T08:54:19.936Z</time></trkpt><trkpt lat="43.2310765" lon="12.5591779"><ele>654.0</ele><time>2026-04-19T08:54:20.937Z</time></trkpt><trkpt lat="43.2312586" lon="12.5592535"><ele>654.0</ele><time>2026-04-19T08:54:21.937Z</time></trkpt><trkpt lat="43.2314343" lon="12.5593358"><ele>654.0</ele><time>2026-04-19T08:54:22.935Z</time></trkpt><trkpt lat="43.2316042" lon="12.5594105"><ele>655.0</ele><time>2026-04-19T08:54:23.936Z</time></trkpt><trkpt lat="43.231756" lon="12.5594799"><ele>656.0</ele><time>2026-04-19T08:54:24.935Z</time></trkpt><trkpt lat="43.2319061" lon="12.5595452"><ele>657.0</ele><time>2026-04-19T08:54:25.936Z</time></trkpt><trkpt lat="43.232057" lon="12.5595889"><ele>653.0</ele><time>2026-04-19T08:54:26.937Z</time></trkpt><trkpt lat="43.2322021" lon="12.5596079"><ele>649.0</ele><time>2026-04-19T08:54:27.935Z</time></trkpt><trkpt lat="43.2323592" lon="12.5596253"><ele>645.0</ele><time>2026-04-19T08:54:28.936Z</time></trkpt><trkpt lat="43.2325215" lon="12.5596435"><ele>645.0</ele><time>2026-04-19T08:54:29.935Z</time></trkpt><trkpt lat="43.2326839" lon="12.5596629"><ele>645.0</ele><time>2026-04-19T08:54:30.936Z</time></trkpt><trkpt lat="43.232857" lon="12.559671"><ele>645.0</ele><time>2026-04-19T08:54:31.935Z</time></trkpt><trkpt lat="43.233023" lon="12.5596841"><ele>645.6666666666666</ele><time>2026-04-19T08:54:32.937Z</time></trkpt><trkpt lat="43.2331769" lon="12.5597001"><ele>646.3333333333333</ele><time>2026-04-19T08:54:33.937Z</time></trkpt><trkpt lat="43.2333417" lon="12.5597142"><ele>647.0</ele><time>2026-04-19T08:54:34.936Z</time></trkpt><trkpt lat="43.2335032" lon="12.5597471"><ele>647.0</ele><time>2026-04-19T08:54:35.936Z</time></trkpt><trkpt lat="43.2336732" lon="12.5598148"><ele>647.0</ele><time>2026-04-19T08:54:36.936Z</time></trkpt><trkpt lat="43.2338245" lon="12.5599208"><ele>647.0</ele><time>2026-04-19T08:54:37.936Z</time></trkpt><trkpt lat="43.2339675" lon="12.5600265"><ele>650.0</ele><time>2026-04-19T08:54:38.937Z</time></trkpt><trkpt lat="43.2341037" lon="12.560124"><ele>653.0</ele><time>2026-04-19T08:54:39.936Z</time></trkpt><trkpt lat="43.2342511" lon="12.5602087"><ele>656.0</ele><time>2026-04-19T08:54:40.936Z</time></trkpt><trkpt lat="43.2343967" lon="12.5602649"><ele>656.0</ele><time>2026-04-19T08:54:41.937Z</time></trkpt><trkpt lat="43.2345509" lon="12.5602842"><ele>656.0</ele><time>2026-04-19T08:54:42.936Z</time></trkpt><trkpt lat="43.2346972" lon="12.5602478"><ele>656.0</ele><time>2026-04-19T08:54:43.936Z</time></trkpt><trkpt lat="43.2348465" lon="12.5602062"><ele>655.0</ele><time>2026-04-19T08:54:44.937Z</time></trkpt><trkpt lat="43.2349989" lon="12.5601214"><ele>654.0</ele><time>2026-04-19T08:54:45.936Z</time></trkpt><trkpt lat="43.2351529" lon="12.5601057"><ele>653.0</ele><time>2026-04-19T08:54:46.936Z</time></trkpt><trkpt lat="43.2353088" lon="12.5601329"><ele>653.0</ele><time>2026-04-19T08:54:47.936Z</time></trkpt><trkpt lat="43.2354658" lon="12.5601958"><ele>653.0</ele><time>2026-04-19T08:54:48.936Z</time></trkpt><trkpt lat="43.2356171" lon="12.5602655"><ele>653.0</ele><time>2026-04-19T08:54:49.935Z</time></trkpt><trkpt lat="43.2357572" lon="12.5603258"><ele>646.5</ele><time>2026-04-19T08:54:50.936Z</time></trkpt><trkpt lat="43.235888" lon="12.5603803"><ele>640.0</ele><time>2026-04-19T08:54:51.935Z</time></trkpt><trkpt lat="43.2360135" lon="12.5604494"><ele>633.5</ele><time>2026-04-19T08:54:52.937Z</time></trkpt><trkpt lat="43.2361318" lon="12.5604985"><ele>627.0</ele><time>2026-04-19T08:54:53.936Z</time></trkpt><trkpt lat="43.2362353" lon="12.5604869"><ele>627.0</ele><time>2026-04-19T08:54:54.936Z</time></trkpt><trkpt lat="43.236325" lon="12.5604019"><ele>627.0</ele><time>2026-04-19T08:54:55.937Z</time></trkpt><trkpt lat="43.2363737" lon="12.5603018"><ele>627.0</ele><time>2026-04-19T08:54:56.937Z</time></trkpt><trkpt lat="43.2364077" lon="12.5601542"><ele>627.0</ele><time>2026-04-19T08:54:57.936Z</time></trkpt><trkpt lat="43.2364229" lon="12.5599712"><ele>627.0</ele><time>2026-04-19T08:54:58.936Z</time></trkpt><trkpt lat="43.2364239" lon="12.5597643"><ele>633.0</ele><time>2026-04-19T08:54:59.935Z</time></trkpt><trkpt lat="43.2364294" lon="12.5595471"><ele>639.0</ele><time>2026-04-19T08:55:00.936Z</time></trkpt><trkpt lat="43.2364319" lon="12.5593332"><ele>645.0</ele><time>2026-04-19T08:55:01.937Z</time></trkpt><trkpt lat="43.2364405" lon="12.5591085"><ele>646.6666666666666</ele><time>2026-04-19T08:55:02.936Z</time></trkpt><trkpt lat="43.236454" lon="12.5588809"><ele>648.3333333333333</ele><time>2026-04-19T08:55:03.935Z</time></trkpt><trkpt lat="43.2364661" lon="12.5586634"><ele>650.0</ele><time>2026-04-19T08:55:04.936Z</time></trkpt><trkpt lat="43.2364787" lon="12.5584426"><ele>642.0</ele><time>2026-04-19T08:55:05.937Z</time></trkpt><trkpt lat="43.2364904" lon="12.5582309"><ele>634.0</ele><time>2026-04-19T08:55:06.937Z</time></trkpt><trkpt lat="43.236499" lon="12.5580205"><ele>626.0</ele><time>2026-04-19T08:55:07.937Z</time></trkpt><trkpt lat="43.2365278" lon="12.5578298"><ele>626.0</ele><time>2026-04-19T08:55:08.936Z</time></trkpt><trkpt lat="43.2365739" lon="12.5576327"><ele>626.0</ele><time>2026-04-19T08:55:09.935Z</time></trkpt><trkpt lat="43.2366495" lon="12.5574395"><ele>626.0</ele><time>2026-04-19T08:55:10.937Z</time></trkpt><trkpt lat="43.2367447" lon="12.5572628"><ele>626.0</ele><time>2026-04-19T08:55:11.936Z</time></trkpt><trkpt lat="43.2368597" lon="12.5571196"><ele>626.0</ele><time>2026-04-19T08:55:12.936Z</time></trkpt><trkpt lat="43.236979" lon="12.5569877"><ele>626.0</ele><time>2026-04-19T08:55:13.936Z</time></trkpt><trkpt lat="43.2370966" lon="12.5568749"><ele>628.3333333333333</ele><time>2026-04-19T08:55:14.937Z</time></trkpt><trkpt lat="43.2372126" lon="12.5567449"><ele>630.6666666666666</ele><time>2026-04-19T08:55:15.936Z</time></trkpt><trkpt lat="43.2373121" lon="12.5565681"><ele>633.0</ele><time>2026-04-19T08:55:16.937Z</time></trkpt><trkpt lat="43.2373489" lon="12.5563394"><ele>626.3333333333334</ele><time>2026-04-19T08:55:17.936Z</time></trkpt><trkpt lat="43.2374223" lon="12.5561572"><ele>619.6666666666667</ele><time>2026-04-19T08:55:18.937Z</time></trkpt><trkpt lat="43.2374926" lon="12.5559697"><ele>613.0</ele><time>2026-04-19T08:55:19.937Z</time></trkpt><trkpt lat="43.2375594" lon="12.5557881"><ele>613.0</ele><time>2026-04-19T08:55:20.937Z</time></trkpt><trkpt lat="43.2376128" lon="12.5556134"><ele>613.0</ele><time>2026-04-19T08:55:21.936Z</time></trkpt><trkpt lat="43.2376421" lon="12.5554403"><ele>613.0</ele><time>2026-04-19T08:55:22.936Z</time></trkpt><trkpt lat="43.2376506" lon="12.5552833"><ele>613.0</ele><time>2026-04-19T08:55:23.934Z</time></trkpt><trkpt lat="43.2376133" lon="12.555138"><ele>612.8</ele><time>2026-04-19T08:55:24.934Z</time></trkpt><trkpt lat="43.2375557" lon="12.5550099"><ele>612.5999999999999</ele><time>2026-04-19T08:55:25.936Z</time></trkpt><trkpt lat="43.2374736" lon="12.5548948"><ele>612.4000000000001</ele><time>2026-04-19T08:55:26.936Z</time></trkpt><trkpt lat="43.2374016" lon="12.554793"><ele>612.2</ele><time>2026-04-19T08:55:27.936Z</time></trkpt><trkpt lat="43.2373554" lon="12.5546946"><ele>612.0</ele><time>2026-04-19T08:55:28.934Z</time></trkpt><trkpt lat="43.2373353" lon="12.5545857"><ele>610.3333333333334</ele><time>2026-04-19T08:55:29.935Z</time></trkpt><trkpt lat="43.2373463" lon="12.55448"><ele>608.6666666666666</ele><time>2026-04-19T08:55:30.936Z</time></trkpt><trkpt lat="43.2373968" lon="12.5543926"><ele>607.0</ele><time>2026-04-19T08:55:31.934Z</time></trkpt><trkpt lat="43.2374769" lon="12.5543437"><ele>605.3333333333333</ele><time>2026-04-19T08:55:32.935Z</time></trkpt><trkpt lat="43.2375584" lon="12.5543644"><ele>603.6666666666666</ele><time>2026-04-19T08:55:33.935Z</time></trkpt><trkpt lat="43.2376394" lon="12.5544347"><ele>602.0</ele><time>2026-04-19T08:55:34.935Z</time></trkpt><trkpt lat="43.2377202" lon="12.5545282"><ele>604.5</ele><time>2026-04-19T08:55:35.934Z</time></trkpt><trkpt lat="43.2378066" lon="12.5546269"><ele>607.0</ele><time>2026-04-19T08:55:36.935Z</time></trkpt><trkpt lat="43.2379005" lon="12.5547379"><ele>609.5</ele><time>2026-04-19T08:55:37.934Z</time></trkpt><trkpt lat="43.2380002" lon="12.5548563"><ele>612.0</ele><time>2026-04-19T08:55:38.934Z</time></trkpt><trkpt lat="43.2380988" lon="12.5549691"><ele>608.0</ele><time>2026-04-19T08:55:39.936Z</time></trkpt><trkpt lat="43.2381931" lon="12.5550782"><ele>604.0</ele><time>2026-04-19T08:55:40.935Z</time></trkpt><trkpt lat="43.2382891" lon="12.5551872"><ele>600.0</ele><time>2026-04-19T08:55:41.935Z</time></trkpt><trkpt lat="43.2383839" lon="12.555292"><ele>596.0</ele><time>2026-04-19T08:55:42.934Z</time></trkpt><trkpt lat="43.2384795" lon="12.555371"><ele>596.0</ele><time>2026-04-19T08:55:43.934Z</time></trkpt><trkpt lat="43.238591" lon="12.5554167"><ele>596.0</ele><time>2026-04-19T08:55:44.936Z</time></trkpt><trkpt lat="43.2387132" lon="12.5554313"><ele>596.0</ele><time>2026-04-19T08:55:45.935Z</time></trkpt><trkpt lat="43.2388551" lon="12.5554296"><ele>596.0</ele><time>2026-04-19T08:55:46.935Z</time></trkpt><trkpt lat="43.2390074" lon="12.5554243"><ele>594.3333333333333</ele><time>2026-04-19T08:55:47.935Z</time></trkpt><trkpt lat="43.239168" lon="12.5554231"><ele>592.6666666666666</ele><time>2026-04-19T08:55:48.935Z</time></trkpt><trkpt lat="43.2393219" lon="12.5553902"><ele>591.0</ele><time>2026-04-19T08:55:49.934Z</time></trkpt><trkpt lat="43.2394908" lon="12.5553118"><ele>588.6666666666666</ele><time>2026-04-19T08:55:50.936Z</time></trkpt><trkpt lat="43.2396371" lon="12.5552134"><ele>586.3333333333333</ele><time>2026-04-19T08:55:51.934Z</time></trkpt><trkpt lat="43.2397776" lon="12.5551132"><ele>584.0</ele><time>2026-04-19T08:55:52.935Z</time></trkpt><trkpt lat="43.239937" lon="12.5550394"><ele>581.3333333333333</ele><time>2026-04-19T08:55:53.936Z</time></trkpt><trkpt lat="43.2401118" lon="12.5549998"><ele>578.6666666666666</ele><time>2026-04-19T08:55:54.935Z</time></trkpt><trkpt lat="43.2403004" lon="12.5549869"><ele>576.0</ele><time>2026-04-19T08:55:55.936Z</time></trkpt><trkpt lat="43.2404948" lon="12.5549891"><ele>573.6666666666666</ele><time>2026-04-19T08:55:56.935Z</time></trkpt><trkpt lat="43.2407059" lon="12.5549977"><ele>571.3333333333333</ele><time>2026-04-19T08:55:57.935Z</time></trkpt><trkpt lat="43.2409282" lon="12.555012"><ele>569.0</ele><time>2026-04-19T08:55:58.936Z</time></trkpt><trkpt lat="43.2411466" lon="12.5550221"><ele>569.0</ele><time>2026-04-19T08:55:59.935Z</time></trkpt><trkpt lat="43.241357" lon="12.5550277"><ele>569.0</ele><time>2026-04-19T08:56:00.935Z</time></trkpt><trkpt lat="43.2415704" lon="12.5550419"><ele>569.0</ele><time>2026-04-19T08:56:01.935Z</time></trkpt><trkpt lat="43.2417804" lon="12.5550545"><ele>567.6666666666666</ele><time>2026-04-19T08:56:02.935Z</time></trkpt><trkpt lat="43.2419891" lon="12.5550571"><ele>566.3333333333334</ele><time>2026-04-19T08:56:03.934Z</time></trkpt><trkpt lat="43.2422033" lon="12.5550489"><ele>565.0</ele><time>2026-04-19T08:56:04.935Z</time></trkpt><trkpt lat="43.242424" lon="12.5550259"><ele>564.0</ele><time>2026-04-19T08:56:05.934Z</time></trkpt><trkpt lat="43.2426417" lon="12.5549898"><ele>563.0</ele><time>2026-04-19T08:56:06.934Z</time></trkpt><trkpt lat="43.2428494" lon="12.5549539"><ele>562.0</ele><time>2026-04-19T08:56:07.936Z</time></trkpt><trkpt lat="43.2430465" lon="12.55492"><ele>562.6666666666667</ele><time>2026-04-19T08:56:08.935Z</time></trkpt><trkpt lat="43.2432407" lon="12.5549106"><ele>563.3333333333334</ele><time>2026-04-19T08:56:09.935Z</time></trkpt><trkpt lat="43.2434405" lon="12.5549376"><ele>564.0</ele><time>2026-04-19T08:56:10.935Z</time></trkpt><trkpt lat="43.2436414" lon="12.5550036"><ele>564.0</ele><time>2026-04-19T08:56:11.936Z</time></trkpt><trkpt lat="43.2438457" lon="12.5551005"><ele>564.0</ele><time>2026-04-19T08:56:12.935Z</time></trkpt><trkpt lat="43.2440471" lon="12.5552101"><ele>564.0</ele><time>2026-04-19T08:56:13.935Z</time></trkpt><trkpt lat="43.244239" lon="12.5553114"><ele>566.6666666666666</ele><time>2026-04-19T08:56:14.935Z</time></trkpt><trkpt lat="43.2444214" lon="12.555407"><ele>569.3333333333333</ele><time>2026-04-19T08:56:15.935Z</time></trkpt><trkpt lat="43.2446054" lon="12.5554879"><ele>572.0</ele><time>2026-04-19T08:56:16.935Z</time></trkpt><trkpt lat="43.2447956" lon="12.5555544"><ele>573.0</ele><time>2026-04-19T08:56:17.935Z</time></trkpt><trkpt lat="43.2449976" lon="12.5555987"><ele>574.0</ele><time>2026-04-19T08:56:18.935Z</time></trkpt><trkpt lat="43.2452089" lon="12.5556322"><ele>575.0</ele><time>2026-04-19T08:56:19.935Z</time></trkpt><trkpt lat="43.2454272" lon="12.5556539"><ele>577.0</ele><time>2026-04-19T08:56:20.934Z</time></trkpt><trkpt lat="43.2456294" lon="12.5556724"><ele>579.0</ele><time>2026-04-19T08:56:21.935Z</time></trkpt><trkpt lat="43.2458168" lon="12.5556827"><ele>581.0</ele><time>2026-04-19T08:56:22.936Z</time></trkpt><trkpt lat="43.245994" lon="12.555699"><ele>581.0</ele><time>2026-04-19T08:56:23.935Z</time></trkpt><trkpt lat="43.2461587" lon="12.5557114"><ele>581.0</ele><time>2026-04-19T08:56:24.936Z</time></trkpt><trkpt lat="43.2463342" lon="12.5557155"><ele>581.0</ele><time>2026-04-19T08:56:25.936Z</time></trkpt><trkpt lat="43.2465024" lon="12.5557083"><ele>581.3333333333333</ele><time>2026-04-19T08:56:26.936Z</time></trkpt><trkpt lat="43.2466905" lon="12.5557295"><ele>581.6666666666666</ele><time>2026-04-19T08:56:27.936Z</time></trkpt><trkpt lat="43.2468848" lon="12.555742"><ele>582.0</ele><time>2026-04-19T08:56:28.935Z</time></trkpt><trkpt lat="43.2471094" lon="12.5557681"><ele>582.0</ele><time>2026-04-19T08:56:29.935Z</time></trkpt><trkpt lat="43.2473229" lon="12.5557982"><ele>582.0</ele><time>2026-04-19T08:56:30.936Z</time></trkpt><trkpt lat="43.2475378" lon="12.5558244"><ele>582.0</ele><time>2026-04-19T08:56:31.936Z</time></trkpt><trkpt lat="43.247759" lon="12.555848"><ele>582.0</ele><time>2026-04-19T08:56:32.934Z</time></trkpt><trkpt lat="43.247989" lon="12.5558675"><ele>582.0</ele><time>2026-04-19T08:56:33.936Z</time></trkpt><trkpt lat="43.2482233" lon="12.5558886"><ele>584.0</ele><time>2026-04-19T08:56:34.935Z</time></trkpt><trkpt lat="43.248457" lon="12.5559131"><ele>586.0</ele><time>2026-04-19T08:56:35.935Z</time></trkpt><trkpt lat="43.2486916" lon="12.5559305"><ele>586.0</ele><time>2026-04-19T08:56:36.935Z</time></trkpt><trkpt lat="43.2489271" lon="12.555945"><ele>586.0</ele><time>2026-04-19T08:56:37.935Z</time></trkpt><trkpt lat="43.2491552" lon="12.5559611"><ele>589.6666666666667</ele><time>2026-04-19T08:56:38.935Z</time></trkpt><trkpt lat="43.2493733" lon="12.5559808"><ele>593.3333333333334</ele><time>2026-04-19T08:56:39.935Z</time></trkpt><trkpt lat="43.24958" lon="12.5560046"><ele>597.0</ele><time>2026-04-19T08:56:40.936Z</time></trkpt><trkpt lat="43.2497833" lon="12.5560355"><ele>598.0</ele><time>2026-04-19T08:56:41.934Z</time></trkpt><trkpt lat="43.2499781" lon="12.5560922"><ele>599.0</ele><time>2026-04-19T08:56:42.936Z</time></trkpt><trkpt lat="43.2501616" lon="12.556178"><ele>600.0</ele><time>2026-04-19T08:56:43.936Z</time></trkpt><trkpt lat="43.2503366" lon="12.5562883"><ele>600.6666666666666</ele><time>2026-04-19T08:56:44.935Z</time></trkpt><trkpt lat="43.2505013" lon="12.5564188"><ele>601.3333333333333</ele><time>2026-04-19T08:56:45.935Z</time></trkpt><trkpt lat="43.2506642" lon="12.5565672"><ele>602.0</ele><time>2026-04-19T08:56:46.936Z</time></trkpt><trkpt lat="43.2508204" lon="12.5567288"><ele>602.0</ele><time>2026-04-19T08:56:47.935Z</time></trkpt><trkpt lat="43.2509802" lon="12.5568958"><ele>602.0</ele><time>2026-04-19T08:56:48.935Z</time></trkpt><trkpt lat="43.2511425" lon="12.5570614"><ele>602.0</ele><time>2026-04-19T08:56:49.935Z</time></trkpt><trkpt lat="43.2512934" lon="12.5572234"><ele>600.0</ele><time>2026-04-19T08:56:50.935Z</time></trkpt><trkpt lat="43.2514315" lon="12.557375"><ele>598.0</ele><time>2026-04-19T08:56:51.934Z</time></trkpt><trkpt lat="43.2515584" lon="12.5575184"><ele>596.0</ele><time>2026-04-19T08:56:52.935Z</time></trkpt><trkpt lat="43.2516706" lon="12.5576575"><ele>599.6666666666666</ele><time>2026-04-19T08:56:53.934Z</time></trkpt><trkpt lat="43.2517732" lon="12.557813"><ele>603.3333333333334</ele><time>2026-04-19T08:56:54.936Z</time></trkpt><trkpt lat="43.2518668" lon="12.5579715"><ele>607.0</ele><time>2026-04-19T08:56:55.935Z</time></trkpt><trkpt lat="43.2519652" lon="12.558144"><ele>607.0</ele><time>2026-04-19T08:56:56.935Z</time></trkpt><trkpt lat="43.2520647" lon="12.5583281"><ele>607.0</ele><time>2026-04-19T08:56:57.936Z</time></trkpt><trkpt lat="43.2521698" lon="12.5585272"><ele>607.0</ele><time>2026-04-19T08:56:58.935Z</time></trkpt><trkpt lat="43.2522762" lon="12.5587382"><ele>610.0</ele><time>2026-04-19T08:56:59.935Z</time></trkpt><trkpt lat="43.2523833" lon="12.5589639"><ele>613.0</ele><time>2026-04-19T08:57:00.935Z</time></trkpt><trkpt lat="43.2524728" lon="12.5591829"><ele>616.0</ele><time>2026-04-19T08:57:01.935Z</time></trkpt><trkpt lat="43.2525614" lon="12.5594126"><ele>615.0</ele><time>2026-04-19T08:57:02.935Z</time></trkpt><trkpt lat="43.2526447" lon="12.5596285"><ele>614.0</ele><time>2026-04-19T08:57:03.934Z</time></trkpt><trkpt lat="43.2527194" lon="12.5598292"><ele>613.0</ele><time>2026-04-19T08:57:04.935Z</time></trkpt><trkpt lat="43.252791" lon="12.5600093"><ele>613.0</ele><time>2026-04-19T08:57:05.934Z</time></trkpt><trkpt lat="43.2528577" lon="12.5601722"><ele>613.0</ele><time>2026-04-19T08:57:06.935Z</time></trkpt><trkpt lat="43.2529272" lon="12.5603138"><ele>613.0</ele><time>2026-04-19T08:57:07.934Z</time></trkpt><trkpt lat="43.2530131" lon="12.5604335"><ele>613.0</ele><time>2026-04-19T08:57:08.934Z</time></trkpt><trkpt lat="43.2531125" lon="12.5605138"><ele>613.0</ele><time>2026-04-19T08:57:09.934Z</time></trkpt><trkpt lat="43.2532316" lon="12.5605544"><ele>613.0</ele><time>2026-04-19T08:57:10.935Z</time></trkpt><trkpt lat="43.2533626" lon="12.5605542"><ele>613.0</ele><time>2026-04-19T08:57:11.935Z</time></trkpt><trkpt lat="43.2535083" lon="12.5605293"><ele>613.0</ele><time>2026-04-19T08:57:12.935Z</time></trkpt><trkpt lat="43.2536665" lon="12.5605038"><ele>613.0</ele><time>2026-04-19T08:57:13.936Z</time></trkpt><trkpt lat="43.2538362" lon="12.5604834"><ele>613.0</ele><time>2026-04-19T08:57:14.936Z</time></trkpt><trkpt lat="43.2540088" lon="12.5604723"><ele>613.0</ele><time>2026-04-19T08:57:15.934Z</time></trkpt><trkpt lat="43.2541798" lon="12.5604736"><ele>614.6666666666667</ele><time>2026-04-19T08:57:16.934Z</time></trkpt><trkpt lat="43.2543643" lon="12.5604882"><ele>616.3333333333334</ele><time>2026-04-19T08:57:17.936Z</time></trkpt><trkpt lat="43.2545505" lon="12.5605013"><ele>618.0</ele><time>2026-04-19T08:57:18.936Z</time></trkpt><trkpt lat="43.2547368" lon="12.5605146"><ele>619.0</ele><time>2026-04-19T08:57:19.934Z</time></trkpt><trkpt lat="43.2549253" lon="12.5605353"><ele>620.0</ele><time>2026-04-19T08:57:20.935Z</time></trkpt><trkpt lat="43.2551061" lon="12.5605453"><ele>621.0</ele><time>2026-04-19T08:57:21.935Z</time></trkpt><trkpt lat="43.2552832" lon="12.5605325"><ele>621.0</ele><time>2026-04-19T08:57:22.935Z</time></trkpt><trkpt lat="43.2554508" lon="12.5605093"><ele>621.0</ele><time>2026-04-19T08:57:23.935Z</time></trkpt><trkpt lat="43.2556122" lon="12.5604841"><ele>621.0</ele><time>2026-04-19T08:57:24.936Z</time></trkpt><trkpt lat="43.2557621" lon="12.5604632"><ele>622.0</ele><time>2026-04-19T08:57:25.934Z</time></trkpt><trkpt lat="43.2559129" lon="12.560448"><ele>623.0</ele><time>2026-04-19T08:57:26.934Z</time></trkpt><trkpt lat="43.25606" lon="12.5604637"><ele>624.0</ele><time>2026-04-19T08:57:27.934Z</time></trkpt><trkpt lat="43.2562098" lon="12.560533"><ele>624.0</ele><time>2026-04-19T08:57:28.934Z</time></trkpt><trkpt lat="43.256351" lon="12.5606478"><ele>624.0</ele><time>2026-04-19T08:57:29.934Z</time></trkpt><trkpt lat="43.2564915" lon="12.5607895"><ele>624.0</ele><time>2026-04-19T08:57:30.934Z</time></trkpt><trkpt lat="43.2566341" lon="12.5609535"><ele>626.0</ele><time>2026-04-19T08:57:31.935Z</time></trkpt><trkpt lat="43.2567731" lon="12.5611281"><ele>628.0</ele><time>2026-04-19T08:57:32.934Z</time></trkpt><trkpt lat="43.2568935" lon="12.561303"><ele>630.0</ele><time>2026-04-19T08:57:33.934Z</time></trkpt><trkpt lat="43.2569908" lon="12.5614824"><ele>630.0</ele><time>2026-04-19T08:57:34.934Z</time></trkpt><trkpt lat="43.2570689" lon="12.5616539"><ele>630.0</ele><time>2026-04-19T08:57:35.934Z</time></trkpt><trkpt lat="43.2571556" lon="12.5618206"><ele>630.0</ele><time>2026-04-19T08:57:36.934Z</time></trkpt><trkpt lat="43.2572644" lon="12.5619706"><ele>632.6666666666666</ele><time>2026-04-19T08:57:37.935Z</time></trkpt><trkpt lat="43.257401" lon="12.5621086"><ele>635.3333333333333</ele><time>2026-04-19T08:57:38.933Z</time></trkpt><trkpt lat="43.2575496" lon="12.5622302"><ele>638.0</ele><time>2026-04-19T08:57:39.934Z</time></trkpt><trkpt lat="43.2576939" lon="12.5623252"><ele>638.0</ele><time>2026-04-19T08:57:40.934Z</time></trkpt><trkpt lat="43.2578433" lon="12.5624002"><ele>638.0</ele><time>2026-04-19T08:57:41.935Z</time></trkpt><trkpt lat="43.2579843" lon="12.5624451"><ele>638.0</ele><time>2026-04-19T08:57:42.934Z</time></trkpt><trkpt lat="43.258152" lon="12.5624197"><ele>640.0</ele><time>2026-04-19T08:57:43.935Z</time></trkpt><trkpt lat="43.2583052" lon="12.5623719"><ele>642.0</ele><time>2026-04-19T08:57:44.934Z</time></trkpt><trkpt lat="43.2584683" lon="12.5622906"><ele>644.0</ele><time>2026-04-19T08:57:45.934Z</time></trkpt><trkpt lat="43.2586384" lon="12.5621841"><ele>644.0</ele><time>2026-04-19T08:57:46.933Z</time></trkpt><trkpt lat="43.2588104" lon="12.5620788"><ele>644.0</ele><time>2026-04-19T08:57:47.934Z</time></trkpt><trkpt lat="43.2589805" lon="12.5619816"><ele>644.0</ele><time>2026-04-19T08:57:48.933Z</time></trkpt><trkpt lat="43.2591502" lon="12.5618972"><ele>649.6666666666666</ele><time>2026-04-19T08:57:49.934Z</time></trkpt><trkpt lat="43.2593039" lon="12.5618387"><ele>655.3333333333334</ele><time>2026-04-19T08:57:50.933Z</time></trkpt><trkpt lat="43.2594614" lon="12.5618306"><ele>661.0</ele><time>2026-04-19T08:57:51.935Z</time></trkpt><trkpt lat="43.2596159" lon="12.5618677"><ele>661.0</ele><time>2026-04-19T08:57:52.935Z</time></trkpt><trkpt lat="43.259775" lon="12.5619517"><ele>661.0</ele><time>2026-04-19T08:57:53.935Z</time></trkpt><trkpt lat="43.2599342" lon="12.5620698"><ele>661.0</ele><time>2026-04-19T08:57:54.934Z</time></trkpt><trkpt lat="43.260097" lon="12.5622152"><ele>656.3333333333334</ele><time>2026-04-19T08:57:55.933Z</time></trkpt><trkpt lat="43.2602671" lon="12.5623734"><ele>651.6666666666666</ele><time>2026-04-19T08:57:56.935Z</time></trkpt><trkpt lat="43.2604436" lon="12.5625303"><ele>647.0</ele><time>2026-04-19T08:57:57.933Z</time></trkpt><trkpt lat="43.2606083" lon="12.5626624"><ele>649.3333333333333</ele><time>2026-04-19T08:57:58.934Z</time></trkpt><trkpt lat="43.2607603" lon="12.5627773"><ele>651.6666666666666</ele><time>2026-04-19T08:57:59.935Z</time></trkpt><trkpt lat="43.2609136" lon="12.5628723"><ele>654.0</ele><time>2026-04-19T08:58:00.935Z</time></trkpt><trkpt lat="43.2610589" lon="12.5629283"><ele>654.0</ele><time>2026-04-19T08:58:01.934Z</time></trkpt><trkpt lat="43.261267" lon="12.5629223"><ele>654.0</ele><time>2026-04-19T08:58:02.933Z</time></trkpt><trkpt lat="43.2614418" lon="12.5629311"><ele>654.0</ele><time>2026-04-19T08:58:03.935Z</time></trkpt><trkpt lat="43.2616051" lon="12.5629575"><ele>654.3333333333334</ele><time>2026-04-19T08:58:04.934Z</time></trkpt><trkpt lat="43.2617868" lon="12.5630079"><ele>654.6666666666667</ele><time>2026-04-19T08:58:05.934Z</time></trkpt><trkpt lat="43.2619827" lon="12.5630813"><ele>655.0</ele><time>2026-04-19T08:58:06.934Z</time></trkpt><trkpt lat="43.2621835" lon="12.5631745"><ele>652.6666666666667</ele><time>2026-04-19T08:58:07.933Z</time></trkpt><trkpt lat="43.2623873" lon="12.5632956"><ele>650.3333333333334</ele><time>2026-04-19T08:58:08.934Z</time></trkpt><trkpt lat="43.2625797" lon="12.5634117"><ele>648.0</ele><time>2026-04-19T08:58:09.934Z</time></trkpt><trkpt lat="43.2627811" lon="12.5635347"><ele>648.0</ele><time>2026-04-19T08:58:10.934Z</time></trkpt><trkpt lat="43.2629904" lon="12.5636608"><ele>648.0</ele><time>2026-04-19T08:58:11.935Z</time></trkpt><trkpt lat="43.263198" lon="12.5637933"><ele>644.3333333333334</ele><time>2026-04-19T08:58:12.933Z</time></trkpt><trkpt lat="43.2633923" lon="12.5639195"><ele>640.6666666666667</ele><time>2026-04-19T08:58:13.934Z</time></trkpt><trkpt lat="43.2635897" lon="12.5640292"><ele>637.0</ele><time>2026-04-19T08:58:14.934Z</time></trkpt><trkpt lat="43.2637671" lon="12.5641302"><ele>637.0</ele><time>2026-04-19T08:58:15.934Z</time></trkpt><trkpt lat="43.2639463" lon="12.5641958"><ele>637.0</ele><time>2026-04-19T08:58:16.934Z</time></trkpt><trkpt lat="43.2641349" lon="12.5642185"><ele>637.0</ele><time>2026-04-19T08:58:17.935Z</time></trkpt><trkpt lat="43.2643323" lon="12.5642137"><ele>638.0</ele><time>2026-04-19T08:58:18.934Z</time></trkpt><trkpt lat="43.2645382" lon="12.5641981"><ele>639.0</ele><time>2026-04-19T08:58:19.934Z</time></trkpt><trkpt lat="43.2647499" lon="12.5641808"><ele>640.0</ele><time>2026-04-19T08:58:20.933Z</time></trkpt><trkpt lat="43.2649482" lon="12.564166"><ele>641.3333333333334</ele><time>2026-04-19T08:58:21.935Z</time></trkpt><trkpt lat="43.2651238" lon="12.5641692"><ele>642.6666666666666</ele><time>2026-04-19T08:58:22.935Z</time></trkpt><trkpt lat="43.2652905" lon="12.5641985"><ele>644.0</ele><time>2026-04-19T08:58:23.934Z</time></trkpt><trkpt lat="43.26545" lon="12.5642665"><ele>644.0</ele><time>2026-04-19T08:58:24.934Z</time></trkpt><trkpt lat="43.2656063" lon="12.5643793"><ele>644.0</ele><time>2026-04-19T08:58:25.935Z</time></trkpt><trkpt lat="43.2657653" lon="12.5645148"><ele>644.0</ele><time>2026-04-19T08:58:26.934Z</time></trkpt><trkpt lat="43.2659358" lon="12.5646705"><ele>645.3333333333333</ele><time>2026-04-19T08:58:27.934Z</time></trkpt><trkpt lat="43.266119" lon="12.5648342"><ele>646.6666666666666</ele><time>2026-04-19T08:58:28.934Z</time></trkpt><trkpt lat="43.2663062" lon="12.5650024"><ele>648.0</ele><time>2026-04-19T08:58:29.933Z</time></trkpt><trkpt lat="43.2664827" lon="12.5651635"><ele>647.3333333333334</ele><time>2026-04-19T08:58:30.934Z</time></trkpt><trkpt lat="43.2666545" lon="12.5653147"><ele>646.6666666666667</ele><time>2026-04-19T08:58:31.934Z</time></trkpt><trkpt lat="43.2668103" lon="12.5654521"><ele>646.0</ele><time>2026-04-19T08:58:32.935Z</time></trkpt><trkpt lat="43.2669624" lon="12.5655534"><ele>646.0</ele><time>2026-04-19T08:58:33.935Z</time></trkpt><trkpt lat="43.2671164" lon="12.5656098"><ele>646.0</ele><time>2026-04-19T08:58:34.934Z</time></trkpt><trkpt lat="43.2672806" lon="12.5656224"><ele>646.0</ele><time>2026-04-19T08:58:35.934Z</time></trkpt><trkpt lat="43.2674416" lon="12.5655809"><ele>646.0</ele><time>2026-04-19T08:58:36.933Z</time></trkpt><trkpt lat="43.2676034" lon="12.5654921"><ele>646.0</ele><time>2026-04-19T08:58:37.933Z</time></trkpt><trkpt lat="43.2677697" lon="12.5653661"><ele>646.0</ele><time>2026-04-19T08:58:38.933Z</time></trkpt><trkpt lat="43.2679324" lon="12.565224"><ele>644.0</ele><time>2026-04-19T08:58:39.934Z</time></trkpt><trkpt lat="43.2681069" lon="12.5650705"><ele>642.0</ele><time>2026-04-19T08:58:40.934Z</time></trkpt><trkpt lat="43.268279" lon="12.5649272"><ele>640.0</ele><time>2026-04-19T08:58:41.935Z</time></trkpt><trkpt lat="43.2684525" lon="12.5647798"><ele>640.0</ele><time>2026-04-19T08:58:42.934Z</time></trkpt><trkpt lat="43.2686224" lon="12.5646234"><ele>640.0</ele><time>2026-04-19T08:58:43.935Z</time></trkpt><trkpt lat="43.2687864" lon="12.5644775"><ele>640.0</ele><time>2026-04-19T08:58:44.935Z</time></trkpt><trkpt lat="43.2689372" lon="12.5643448"><ele>641.3333333333334</ele><time>2026-04-19T08:58:45.934Z</time></trkpt><trkpt lat="43.2690812" lon="12.5642452"><ele>642.6666666666666</ele><time>2026-04-19T08:58:46.934Z</time></trkpt><trkpt lat="43.2692271" lon="12.5641694"><ele>644.0</ele><time>2026-04-19T08:58:47.933Z</time></trkpt><trkpt lat="43.2693854" lon="12.5641323"><ele>644.0</ele><time>2026-04-19T08:58:48.934Z</time></trkpt><trkpt lat="43.269556" lon="12.564127"><ele>644.0</ele><time>2026-04-19T08:58:49.934Z</time></trkpt><trkpt lat="43.2697364" lon="12.5641466"><ele>644.0</ele><time>2026-04-19T08:58:50.933Z</time></trkpt><trkpt lat="43.2699215" lon="12.5641792"><ele>644.3333333333333</ele><time>2026-04-19T08:58:51.935Z</time></trkpt><trkpt lat="43.2701011" lon="12.5642157"><ele>644.6666666666666</ele><time>2026-04-19T08:58:52.934Z</time></trkpt><trkpt lat="43.2702762" lon="12.5642584"><ele>645.0</ele><time>2026-04-19T08:58:53.934Z</time></trkpt><trkpt lat="43.2704226" lon="12.5643305"><ele>645.0</ele><time>2026-04-19T08:58:54.935Z</time></trkpt><trkpt lat="43.2705446" lon="12.564436"><ele>645.0</ele><time>2026-04-19T08:58:55.935Z</time></trkpt><trkpt lat="43.2706535" lon="12.564585"><ele>645.0</ele><time>2026-04-19T08:58:56.933Z</time></trkpt><trkpt lat="43.2707506" lon="12.5647758"><ele>644.6666666666666</ele><time>2026-04-19T08:58:57.933Z</time></trkpt><trkpt lat="43.2708417" lon="12.564992"><ele>644.3333333333333</ele><time>2026-04-19T08:58:58.934Z</time></trkpt><trkpt lat="43.2709367" lon="12.5652124"><ele>644.0</ele><time>2026-04-19T08:58:59.934Z</time></trkpt><trkpt lat="43.2710323" lon="12.5654143"><ele>643.5</ele><time>2026-04-19T08:59:00.933Z</time></trkpt><trkpt lat="43.2711347" lon="12.5656094"><ele>643.0</ele><time>2026-04-19T08:59:01.933Z</time></trkpt><trkpt lat="43.2712292" lon="12.5657173"><ele>642.5</ele><time>2026-04-19T08:59:02.933Z</time></trkpt><trkpt lat="43.271349" lon="12.5658157"><ele>642.0</ele><time>2026-04-19T08:59:03.935Z</time></trkpt><trkpt lat="43.2714697" lon="12.565873"><ele>642.0</ele><time>2026-04-19T08:59:04.935Z</time></trkpt><trkpt lat="43.2716013" lon="12.5658864"><ele>642.0</ele><time>2026-04-19T08:59:05.933Z</time></trkpt><trkpt lat="43.2717271" lon="12.5659005"><ele>642.0</ele><time>2026-04-19T08:59:06.933Z</time></trkpt><trkpt lat="43.2718855" lon="12.5658472"><ele>642.0</ele><time>2026-04-19T08:59:07.934Z</time></trkpt><trkpt lat="43.2720811" lon="12.5657592"><ele>642.0</ele><time>2026-04-19T08:59:08.935Z</time></trkpt><trkpt lat="43.2722525" lon="12.5657042"><ele>642.0</ele><time>2026-04-19T08:59:09.935Z</time></trkpt><trkpt lat="43.2724195" lon="12.5656505"><ele>642.0</ele><time>2026-04-19T08:59:10.934Z</time></trkpt><trkpt lat="43.2725798" lon="12.5655964"><ele>642.0</ele><time>2026-04-19T08:59:11.934Z</time></trkpt><trkpt lat="43.2727406" lon="12.565553"><ele>642.0</ele><time>2026-04-19T08:59:12.934Z</time></trkpt><trkpt lat="43.2728982" lon="12.5655211"><ele>642.0</ele><time>2026-04-19T08:59:13.934Z</time></trkpt><trkpt lat="43.273049" lon="12.5654998"><ele>641.0</ele><time>2026-04-19T08:59:14.934Z</time></trkpt><trkpt lat="43.2731909" lon="12.5655034"><ele>640.0</ele><time>2026-04-19T08:59:15.934Z</time></trkpt><trkpt lat="43.2733317" lon="12.5655268"><ele>639.0</ele><time>2026-04-19T08:59:16.934Z</time></trkpt><trkpt lat="43.2734766" lon="12.5655907"><ele>638.0</ele><time>2026-04-19T08:59:17.934Z</time></trkpt><trkpt lat="43.2736176" lon="12.565698"><ele>638.0</ele><time>2026-04-19T08:59:18.933Z</time></trkpt><trkpt lat="43.2737564" lon="12.5658321"><ele>638.0</ele><time>2026-04-19T08:59:19.934Z</time></trkpt><trkpt lat="43.2738993" lon="12.5659714"><ele>638.0</ele><time>2026-04-19T08:59:20.934Z</time></trkpt><trkpt lat="43.2740737" lon="12.5660908"><ele>633.6666666666666</ele><time>2026-04-19T08:59:21.933Z</time></trkpt><trkpt lat="43.274247" lon="12.5662045"><ele>629.3333333333334</ele><time>2026-04-19T08:59:22.934Z</time></trkpt><trkpt lat="43.2744265" lon="12.5663093"><ele>625.0</ele><time>2026-04-19T08:59:23.934Z</time></trkpt><trkpt lat="43.27461" lon="12.5664153"><ele>625.0</ele><time>2026-04-19T08:59:24.934Z</time></trkpt><trkpt lat="43.2747822" lon="12.5665094"><ele>625.0</ele><time>2026-04-19T08:59:25.934Z</time></trkpt><trkpt lat="43.2749377" lon="12.5665949"><ele>625.0</ele><time>2026-04-19T08:59:26.935Z</time></trkpt><trkpt lat="43.27509" lon="12.5666643"><ele>625.0</ele><time>2026-04-19T08:59:27.934Z</time></trkpt><trkpt lat="43.2752421" lon="12.5667097"><ele>625.0</ele><time>2026-04-19T08:59:28.934Z</time></trkpt><trkpt lat="43.2754013" lon="12.5667229"><ele>625.0</ele><time>2026-04-19T08:59:29.934Z</time></trkpt><trkpt lat="43.275559" lon="12.5666968"><ele>622.0</ele><time>2026-04-19T08:59:30.933Z</time></trkpt><trkpt lat="43.2757168" lon="12.5666411"><ele>619.0</ele><time>2026-04-19T08:59:31.933Z</time></trkpt><trkpt lat="43.275874" lon="12.5665536"><ele>616.0</ele><time>2026-04-19T08:59:32.935Z</time></trkpt><trkpt lat="43.276029" lon="12.5664938"><ele>616.0</ele><time>2026-04-19T08:59:33.933Z</time></trkpt><trkpt lat="43.2761978" lon="12.5664639"><ele>616.0</ele><time>2026-04-19T08:59:34.934Z</time></trkpt><trkpt lat="43.2763735" lon="12.5664608"><ele>616.0</ele><time>2026-04-19T08:59:35.933Z</time></trkpt><trkpt lat="43.2765354" lon="12.5664825"><ele>613.3333333333334</ele><time>2026-04-19T08:59:36.932Z</time></trkpt><trkpt lat="43.2766836" lon="12.5665245"><ele>610.6666666666666</ele><time>2026-04-19T08:59:37.933Z</time></trkpt><trkpt lat="43.2768249" lon="12.5665871"><ele>608.0</ele><time>2026-04-19T08:59:38.933Z</time></trkpt><trkpt lat="43.2769785" lon="12.5667167"><ele>608.0</ele><time>2026-04-19T08:59:39.933Z</time></trkpt><trkpt lat="43.2771231" lon="12.5668741"><ele>608.0</ele><time>2026-04-19T08:59:40.934Z</time></trkpt><trkpt lat="43.2772717" lon="12.5670497"><ele>608.0</ele><time>2026-04-19T08:59:41.932Z</time></trkpt><trkpt lat="43.2774189" lon="12.5672142"><ele>604.0</ele><time>2026-04-19T08:59:42.932Z</time></trkpt><trkpt lat="43.2775756" lon="12.5673686"><ele>600.0</ele><time>2026-04-19T08:59:43.933Z</time></trkpt><trkpt lat="43.2777376" lon="12.5675274"><ele>596.0</ele><time>2026-04-19T08:59:44.934Z</time></trkpt><trkpt lat="43.2779068" lon="12.5676891"><ele>596.0</ele><time>2026-04-19T08:59:45.934Z</time></trkpt><trkpt lat="43.2780995" lon="12.5678212"><ele>596.0</ele><time>2026-04-19T08:59:46.934Z</time></trkpt><trkpt lat="43.2782931" lon="12.5679713"><ele>596.0</ele><time>2026-04-19T08:59:47.934Z</time></trkpt><trkpt lat="43.2784738" lon="12.5681129"><ele>593.0</ele><time>2026-04-19T08:59:48.934Z</time></trkpt><trkpt lat="43.2786531" lon="12.568253"><ele>590.0</ele><time>2026-04-19T08:59:49.932Z</time></trkpt><trkpt lat="43.2788338" lon="12.5683875"><ele>587.0</ele><time>2026-04-19T08:59:50.933Z</time></trkpt><trkpt lat="43.2790029" lon="12.5685158"><ele>587.0</ele><time>2026-04-19T08:59:51.932Z</time></trkpt><trkpt lat="43.2791566" lon="12.568632"><ele>587.0</ele><time>2026-04-19T08:59:52.934Z</time></trkpt><trkpt lat="43.2793055" lon="12.5687363"><ele>587.0</ele><time>2026-04-19T08:59:53.933Z</time></trkpt><trkpt lat="43.2794561" lon="12.568822"><ele>583.0</ele><time>2026-04-19T08:59:54.934Z</time></trkpt><trkpt lat="43.279617" lon="12.568869"><ele>579.0</ele><time>2026-04-19T08:59:55.933Z</time></trkpt><trkpt lat="43.2797968" lon="12.5688866"><ele>575.0</ele><time>2026-04-19T08:59:56.932Z</time></trkpt><trkpt lat="43.279985" lon="12.5688911"><ele>574.3333333333333</ele><time>2026-04-19T08:59:57.932Z</time></trkpt><trkpt lat="43.2801758" lon="12.5688895"><ele>573.6666666666666</ele><time>2026-04-19T08:59:58.934Z</time></trkpt><trkpt lat="43.2803614" lon="12.5688905"><ele>573.0</ele><time>2026-04-19T08:59:59.933Z</time></trkpt><trkpt lat="43.2805372" lon="12.5688948"><ele>571.0</ele><time>2026-04-19T09:00:00.933Z</time></trkpt><trkpt lat="43.280704" lon="12.5689241"><ele>569.0</ele><time>2026-04-19T09:00:01.933Z</time></trkpt><trkpt lat="43.2808606" lon="12.5689778"><ele>567.0</ele><time>2026-04-19T09:00:02.933Z</time></trkpt><trkpt lat="43.28101" lon="12.5690726"><ele>567.0</ele><time>2026-04-19T09:00:03.934Z</time></trkpt><trkpt lat="43.2811582" lon="12.5692066"><ele>567.0</ele><time>2026-04-19T09:00:04.933Z</time></trkpt><trkpt lat="43.2812971" lon="12.5693713"><ele>567.0</ele><time>2026-04-19T09:00:05.933Z</time></trkpt><trkpt lat="43.2814293" lon="12.56955"><ele>566.3333333333334</ele><time>2026-04-19T09:00:06.933Z</time></trkpt><trkpt lat="43.2815504" lon="12.5697421"><ele>565.6666666666667</ele><time>2026-04-19T09:00:07.933Z</time></trkpt><trkpt lat="43.2816626" lon="12.5699286"><ele>565.0</ele><time>2026-04-19T09:00:08.933Z</time></trkpt><trkpt lat="43.2817527" lon="12.57013"><ele>565.0</ele><time>2026-04-19T09:00:09.932Z</time></trkpt><trkpt lat="43.2818162" lon="12.5703282"><ele>565.0</ele><time>2026-04-19T09:00:10.933Z</time></trkpt><trkpt lat="43.2818495" lon="12.5705303"><ele>565.0</ele><time>2026-04-19T09:00:11.933Z</time></trkpt><trkpt lat="43.2818681" lon="12.5707351"><ele>563.0</ele><time>2026-04-19T09:00:12.934Z</time></trkpt><trkpt lat="43.281912" lon="12.570921"><ele>561.0</ele><time>2026-04-19T09:00:13.934Z</time></trkpt><trkpt lat="43.2819905" lon="12.5710976"><ele>559.0</ele><time>2026-04-19T09:00:14.933Z</time></trkpt><trkpt lat="43.2821029" lon="12.5712604"><ele>561.3333333333334</ele><time>2026-04-19T09:00:15.934Z</time></trkpt><trkpt lat="43.2822386" lon="12.5714261"><ele>563.6666666666666</ele><time>2026-04-19T09:00:16.933Z</time></trkpt><trkpt lat="43.2823823" lon="12.5716073"><ele>566.0</ele><time>2026-04-19T09:00:17.934Z</time></trkpt><trkpt lat="43.2825329" lon="12.5717963"><ele>566.0</ele><time>2026-04-19T09:00:18.934Z</time></trkpt><trkpt lat="43.2826842" lon="12.571968"><ele>566.0</ele><time>2026-04-19T09:00:19.933Z</time></trkpt><trkpt lat="43.2828302" lon="12.5721268"><ele>566.0</ele><time>2026-04-19T09:00:20.933Z</time></trkpt><trkpt lat="43.282964" lon="12.5722532"><ele>563.6666666666666</ele><time>2026-04-19T09:00:21.933Z</time></trkpt><trkpt lat="43.2830991" lon="12.5723531"><ele>561.3333333333334</ele><time>2026-04-19T09:00:22.933Z</time></trkpt><trkpt lat="43.2832509" lon="12.5724161"><ele>559.0</ele><time>2026-04-19T09:00:23.933Z</time></trkpt><trkpt lat="43.2834075" lon="12.5724807"><ele>559.0</ele><time>2026-04-19T09:00:24.932Z</time></trkpt><trkpt lat="43.2835936" lon="12.5725012"><ele>559.0</ele><time>2026-04-19T09:00:25.933Z</time></trkpt><trkpt lat="43.2837854" lon="12.572537"><ele>559.0</ele><time>2026-04-19T09:00:26.932Z</time></trkpt><trkpt lat="43.283981" lon="12.5725785"><ele>556.6666666666667</ele><time>2026-04-19T09:00:27.932Z</time></trkpt><trkpt lat="43.2841812" lon="12.5726278"><ele>554.3333333333334</ele><time>2026-04-19T09:00:28.933Z</time></trkpt><trkpt lat="43.2843754" lon="12.572671"><ele>552.0</ele><time>2026-04-19T09:00:29.934Z</time></trkpt><trkpt lat="43.2845659" lon="12.5727168"><ele>552.0</ele><time>2026-04-19T09:00:30.934Z</time></trkpt><trkpt lat="43.2847518" lon="12.572764"><ele>552.0</ele><time>2026-04-19T09:00:31.932Z</time></trkpt><trkpt lat="43.2849488" lon="12.5728596"><ele>552.0</ele><time>2026-04-19T09:00:32.933Z</time></trkpt><trkpt lat="43.2851377" lon="12.5729631"><ele>545.0</ele><time>2026-04-19T09:00:33.933Z</time></trkpt><trkpt lat="43.2853117" lon="12.5730827"><ele>538.0</ele><time>2026-04-19T09:00:34.933Z</time></trkpt><trkpt lat="43.2854608" lon="12.5732226"><ele>531.0</ele><time>2026-04-19T09:00:35.933Z</time></trkpt><trkpt lat="43.2855883" lon="12.5734067"><ele>529.6666666666666</ele><time>2026-04-19T09:00:36.933Z</time></trkpt><trkpt lat="43.2857122" lon="12.5736219"><ele>528.3333333333333</ele><time>2026-04-19T09:00:37.934Z</time></trkpt><trkpt lat="43.2858308" lon="12.5738399"><ele>527.0</ele><time>2026-04-19T09:00:38.933Z</time></trkpt><trkpt lat="43.2859534" lon="12.5740609"><ele>527.0</ele><time>2026-04-19T09:00:39.934Z</time></trkpt><trkpt lat="43.28605" lon="12.5742563"><ele>527.0</ele><time>2026-04-19T09:00:40.934Z</time></trkpt><trkpt lat="43.2861539" lon="12.5744533"><ele>527.0</ele><time>2026-04-19T09:00:41.934Z</time></trkpt><trkpt lat="43.2862228" lon="12.5745898"><ele>524.5</ele><time>2026-04-19T09:00:42.934Z</time></trkpt><trkpt lat="43.2863021" lon="12.5747298"><ele>522.0</ele><time>2026-04-19T09:00:43.933Z</time></trkpt><trkpt lat="43.2863964" lon="12.5748463"><ele>519.5</ele><time>2026-04-19T09:00:44.934Z</time></trkpt><trkpt lat="43.2864954" lon="12.5749214"><ele>517.0</ele><time>2026-04-19T09:00:45.934Z</time></trkpt><trkpt lat="43.286599" lon="12.5749389"><ele>517.0</ele><time>2026-04-19T09:00:46.933Z</time></trkpt><trkpt lat="43.2867087" lon="12.5749083"><ele>517.0</ele><time>2026-04-19T09:00:47.933Z</time></trkpt><trkpt lat="43.2868043" lon="12.5748253"><ele>517.0</ele><time>2026-04-19T09:00:48.933Z</time></trkpt><trkpt lat="43.2868967" lon="12.5747018"><ele>517.0</ele><time>2026-04-19T09:00:49.934Z</time></trkpt><trkpt lat="43.2869865" lon="12.5745515"><ele>521.3333333333334</ele><time>2026-04-19T09:00:50.934Z</time></trkpt><trkpt lat="43.2870873" lon="12.5743487"><ele>525.6666666666666</ele><time>2026-04-19T09:00:51.933Z</time></trkpt><trkpt lat="43.2871708" lon="12.5741321"><ele>530.0</ele><time>2026-04-19T09:00:52.934Z</time></trkpt><trkpt lat="43.2872332" lon="12.5739213"><ele>524.25</ele><time>2026-04-19T09:00:53.934Z</time></trkpt><trkpt lat="43.2872774" lon="12.5736993"><ele>518.5</ele><time>2026-04-19T09:00:54.932Z</time></trkpt><trkpt lat="43.2872981" lon="12.5735112"><ele>512.75</ele><time>2026-04-19T09:00:55.933Z</time></trkpt><trkpt lat="43.2873146" lon="12.573337"><ele>507.0</ele><time>2026-04-19T09:00:56.933Z</time></trkpt><trkpt lat="43.2873334" lon="12.5731877"><ele>507.0</ele><time>2026-04-19T09:00:57.933Z</time></trkpt><trkpt lat="43.2873705" lon="12.5730627"><ele>507.00000000000006</ele><time>2026-04-19T09:00:58.934Z</time></trkpt><trkpt lat="43.2874391" lon="12.5729731"><ele>507.00000000000006</ele><time>2026-04-19T09:00:59.934Z</time></trkpt><trkpt lat="43.2875396" lon="12.5729222"><ele>507.0</ele><time>2026-04-19T09:01:00.932Z</time></trkpt><trkpt lat="43.2876586" lon="12.5729241"><ele>507.0</ele><time>2026-04-19T09:01:01.933Z</time></trkpt><trkpt lat="43.2878037" lon="12.5729677"><ele>507.0</ele><time>2026-04-19T09:01:02.933Z</time></trkpt><trkpt lat="43.2879556" lon="12.5730192"><ele>507.0</ele><time>2026-04-19T09:01:03.934Z</time></trkpt><trkpt lat="43.2881232" lon="12.5730713"><ele>507.0</ele><time>2026-04-19T09:01:04.933Z</time></trkpt><trkpt lat="43.2883065" lon="12.5731246"><ele>505.33333333333337</ele><time>2026-04-19T09:01:05.934Z</time></trkpt><trkpt lat="43.2884975" lon="12.5731883"><ele>503.6666666666667</ele><time>2026-04-19T09:01:06.934Z</time></trkpt><trkpt lat="43.2886796" lon="12.5732476"><ele>502.0</ele><time>2026-04-19T09:01:07.934Z</time></trkpt><trkpt lat="43.2888597" lon="12.5733051"><ele>499.0</ele><time>2026-04-19T09:01:08.933Z</time></trkpt><trkpt lat="43.2890235" lon="12.5733815"><ele>496.0</ele><time>2026-04-19T09:01:09.932Z</time></trkpt><trkpt lat="43.2891755" lon="12.5734841"><ele>493.0</ele><time>2026-04-19T09:01:10.933Z</time></trkpt><trkpt lat="43.2893119" lon="12.5736256"><ele>491.0</ele><time>2026-04-19T09:01:11.932Z</time></trkpt><trkpt lat="43.2894359" lon="12.5738156"><ele>489.0</ele><time>2026-04-19T09:01:12.934Z</time></trkpt><trkpt lat="43.289548" lon="12.5740279"><ele>487.0</ele><time>2026-04-19T09:01:13.934Z</time></trkpt><trkpt lat="43.2896604" lon="12.5742394"><ele>486.33333333333337</ele><time>2026-04-19T09:01:14.933Z</time></trkpt><trkpt lat="43.2897722" lon="12.5744378"><ele>485.66666666666663</ele><time>2026-04-19T09:01:15.932Z</time></trkpt><trkpt lat="43.2898888" lon="12.5746192"><ele>485.0</ele><time>2026-04-19T09:01:16.933Z</time></trkpt><trkpt lat="43.2900235" lon="12.5747706"><ele>483.66666666666663</ele><time>2026-04-19T09:01:17.933Z</time></trkpt><trkpt lat="43.2901782" lon="12.5748954"><ele>482.33333333333337</ele><time>2026-04-19T09:01:18.933Z</time></trkpt><trkpt lat="43.2903412" lon="12.5750226"><ele>481.0</ele><time>2026-04-19T09:01:19.933Z</time></trkpt><trkpt lat="43.2905101" lon="12.5751486"><ele>478.33333333333337</ele><time>2026-04-19T09:01:20.934Z</time></trkpt><trkpt lat="43.2906814" lon="12.5752679"><ele>475.66666666666663</ele><time>2026-04-19T09:01:21.933Z</time></trkpt><trkpt lat="43.2908487" lon="12.5753851"><ele>473.0</ele><time>2026-04-19T09:01:22.934Z</time></trkpt><trkpt lat="43.2910152" lon="12.5754997"><ele>473.0</ele><time>2026-04-19T09:01:23.933Z</time></trkpt><trkpt lat="43.2911773" lon="12.575611"><ele>473.0</ele><time>2026-04-19T09:01:24.933Z</time></trkpt><trkpt lat="43.2913348" lon="12.5757189"><ele>473.0</ele><time>2026-04-19T09:01:25.933Z</time></trkpt><trkpt lat="43.291491" lon="12.5758334"><ele>472.0</ele><time>2026-04-19T09:01:26.933Z</time></trkpt><trkpt lat="43.2916504" lon="12.575959"><ele>471.0</ele><time>2026-04-19T09:01:27.933Z</time></trkpt><trkpt lat="43.2918119" lon="12.576103"><ele>470.0</ele><time>2026-04-19T09:01:28.934Z</time></trkpt><trkpt lat="43.2919639" lon="12.5762638"><ele>470.0</ele><time>2026-04-19T09:01:29.932Z</time></trkpt><trkpt lat="43.292119" lon="12.5764133"><ele>470.0</ele><time>2026-04-19T09:01:30.933Z</time></trkpt><trkpt lat="43.2922856" lon="12.5765571"><ele>470.0</ele><time>2026-04-19T09:01:31.933Z</time></trkpt><trkpt lat="43.2924664" lon="12.5767039"><ele>467.66666666666663</ele><time>2026-04-19T09:01:32.932Z</time></trkpt><trkpt lat="43.292657" lon="12.57682"><ele>465.33333333333337</ele><time>2026-04-19T09:01:33.934Z</time></trkpt><trkpt lat="43.2928507" lon="12.5769254"><ele>463.0</ele><time>2026-04-19T09:01:34.933Z</time></trkpt><trkpt lat="43.2930397" lon="12.5770297"><ele>459.6666666666667</ele><time>2026-04-19T09:01:35.933Z</time></trkpt><trkpt lat="43.2932289" lon="12.577108"><ele>456.33333333333337</ele><time>2026-04-19T09:01:36.934Z</time></trkpt><trkpt lat="43.2934172" lon="12.5771824"><ele>453.0</ele><time>2026-04-19T09:01:37.932Z</time></trkpt><trkpt lat="43.2936015" lon="12.5772377"><ele>453.0</ele><time>2026-04-19T09:01:38.933Z</time></trkpt><trkpt lat="43.2937754" lon="12.5772919"><ele>453.0</ele><time>2026-04-19T09:01:39.934Z</time></trkpt><trkpt lat="43.2939417" lon="12.5773415"><ele>453.0</ele><time>2026-04-19T09:01:40.933Z</time></trkpt><trkpt lat="43.2941062" lon="12.5773922"><ele>447.0</ele><time>2026-04-19T09:01:41.932Z</time></trkpt><trkpt lat="43.2942692" lon="12.5774408"><ele>441.0</ele><time>2026-04-19T09:01:42.931Z</time></trkpt><trkpt lat="43.2944258" lon="12.5774791"><ele>435.0</ele><time>2026-04-19T09:01:43.933Z</time></trkpt><trkpt lat="43.2945856" lon="12.5775121"><ele>432.33333333333337</ele><time>2026-04-19T09:01:44.932Z</time></trkpt><trkpt lat="43.2947575" lon="12.5775468"><ele>429.6666666666667</ele><time>2026-04-19T09:01:45.932Z</time></trkpt><trkpt lat="43.2949421" lon="12.5775932"><ele>427.0</ele><time>2026-04-19T09:01:46.932Z</time></trkpt><trkpt lat="43.2951212" lon="12.5776444"><ele>427.0</ele><time>2026-04-19T09:01:47.932Z</time></trkpt><trkpt lat="43.2953017" lon="12.5777145"><ele>427.0</ele><time>2026-04-19T09:01:48.932Z</time></trkpt><trkpt lat="43.2954938" lon="12.577791"><ele>427.0</ele><time>2026-04-19T09:01:49.932Z</time></trkpt><trkpt lat="43.295684" lon="12.5778746"><ele>425.33333333333337</ele><time>2026-04-19T09:01:50.933Z</time></trkpt><trkpt lat="43.2958767" lon="12.5779784"><ele>423.66666666666663</ele><time>2026-04-19T09:01:51.932Z</time></trkpt><trkpt lat="43.2960763" lon="12.5781028"><ele>422.0</ele><time>2026-04-19T09:01:52.933Z</time></trkpt><trkpt lat="43.2962782" lon="12.578235"><ele>420.3333333333333</ele><time>2026-04-19T09:01:53.931Z</time></trkpt><trkpt lat="43.2964746" lon="12.5783653"><ele>418.66666666666663</ele><time>2026-04-19T09:01:54.932Z</time></trkpt><trkpt lat="43.2966621" lon="12.5784958"><ele>417.0</ele><time>2026-04-19T09:01:55.931Z</time></trkpt><trkpt lat="43.2968519" lon="12.578631"><ele>416.66666666666663</ele><time>2026-04-19T09:01:56.932Z</time></trkpt><trkpt lat="43.2970386" lon="12.5787684"><ele>416.3333333333333</ele><time>2026-04-19T09:01:57.931Z</time></trkpt><trkpt lat="43.2972267" lon="12.5789136"><ele>416.0</ele><time>2026-04-19T09:01:58.933Z</time></trkpt><trkpt lat="43.2974189" lon="12.5790608"><ele>416.0</ele><time>2026-04-19T09:01:59.933Z</time></trkpt><trkpt lat="43.2976196" lon="12.5792201"><ele>416.0</ele><time>2026-04-19T09:02:00.932Z</time></trkpt><trkpt lat="43.2978266" lon="12.5793831"><ele>415.0</ele><time>2026-04-19T09:02:01.932Z</time></trkpt><trkpt lat="43.2980405" lon="12.5795481"><ele>414.0</ele><time>2026-04-19T09:02:02.933Z</time></trkpt><trkpt lat="43.2982549" lon="12.5797253"><ele>413.5</ele><time>2026-04-19T09:02:03.932Z</time></trkpt><trkpt lat="43.2984707" lon="12.5799034"><ele>413.0</ele><time>2026-04-19T09:02:04.931Z</time></trkpt><trkpt lat="43.2986808" lon="12.5800646"><ele>413.0</ele><time>2026-04-19T09:02:05.931Z</time></trkpt><trkpt lat="43.2988887" lon="12.5802331"><ele>413.0</ele><time>2026-04-19T09:02:06.932Z</time></trkpt><trkpt lat="43.2990956" lon="12.5803996"><ele>413.5</ele><time>2026-04-19T09:02:07.932Z</time></trkpt><trkpt lat="43.2993004" lon="12.5805673"><ele>414.0</ele><time>2026-04-19T09:02:08.933Z</time></trkpt><trkpt lat="43.2995064" lon="12.5807332"><ele>414.0</ele><time>2026-04-19T09:02:09.933Z</time></trkpt><trkpt lat="43.2997097" lon="12.5809006"><ele>414.0</ele><time>2026-04-19T09:02:10.932Z</time></trkpt><trkpt lat="43.2999123" lon="12.581071"><ele>414.33333333333337</ele><time>2026-04-19T09:02:11.931Z</time></trkpt><trkpt lat="43.30011" lon="12.5812329"><ele>414.6666666666667</ele><time>2026-04-19T09:02:12.931Z</time></trkpt><trkpt lat="43.300292" lon="12.5813922"><ele>415.0</ele><time>2026-04-19T09:02:13.93Z</time></trkpt><trkpt lat="43.3004628" lon="12.5815221"><ele>416.6666666666667</ele><time>2026-04-19T09:02:14.932Z</time></trkpt><trkpt lat="43.3006283" lon="12.581644"><ele>418.33333333333337</ele><time>2026-04-19T09:02:15.931Z</time></trkpt><trkpt lat="43.3007868" lon="12.5817271"><ele>420.0</ele><time>2026-04-19T09:02:16.932Z</time></trkpt><trkpt lat="43.3009602" lon="12.5817628"><ele>420.0</ele><time>2026-04-19T09:02:17.931Z</time></trkpt><trkpt lat="43.3011171" lon="12.5817731"><ele>420.0</ele><time>2026-04-19T09:02:18.931Z</time></trkpt><trkpt lat="43.3012937" lon="12.5817224"><ele>420.0</ele><time>2026-04-19T09:02:19.931Z</time></trkpt><trkpt lat="43.3014481" lon="12.5816399"><ele>422.33333333333337</ele><time>2026-04-19T09:02:20.931Z</time></trkpt><trkpt lat="43.3015998" lon="12.5815094"><ele>424.6666666666667</ele><time>2026-04-19T09:02:21.931Z</time></trkpt><trkpt lat="43.3017461" lon="12.5813405"><ele>427.0</ele><time>2026-04-19T09:02:22.931Z</time></trkpt><trkpt lat="43.3019012" lon="12.5811522"><ele>429.0</ele><time>2026-04-19T09:02:23.932Z</time></trkpt><trkpt lat="43.3020539" lon="12.580962"><ele>431.0</ele><time>2026-04-19T09:02:24.932Z</time></trkpt><trkpt lat="43.3022083" lon="12.5807742"><ele>433.0</ele><time>2026-04-19T09:02:25.931Z</time></trkpt><trkpt lat="43.3023498" lon="12.5805974"><ele>433.33333333333337</ele><time>2026-04-19T09:02:26.931Z</time></trkpt><trkpt lat="43.3024806" lon="12.580427"><ele>433.66666666666663</ele><time>2026-04-19T09:02:27.931Z</time></trkpt><trkpt lat="43.3026199" lon="12.5802536"><ele>434.0</ele><time>2026-04-19T09:02:28.932Z</time></trkpt><trkpt lat="43.3027624" lon="12.5800859"><ele>434.0</ele><time>2026-04-19T09:02:29.932Z</time></trkpt><trkpt lat="43.3029126" lon="12.5799229"><ele>434.0</ele><time>2026-04-19T09:02:30.932Z</time></trkpt><trkpt lat="43.303058" lon="12.5797865"><ele>434.0</ele><time>2026-04-19T09:02:31.931Z</time></trkpt><trkpt lat="43.3031977" lon="12.5796496"><ele>434.0</ele><time>2026-04-19T09:02:32.932Z</time></trkpt><trkpt lat="43.3033524" lon="12.5795378"><ele>434.0</ele><time>2026-04-19T09:02:33.932Z</time></trkpt><trkpt lat="43.3035212" lon="12.5794465"><ele>434.0</ele><time>2026-04-19T09:02:34.932Z</time></trkpt><trkpt lat="43.3037051" lon="12.5793589"><ele>433.66666666666663</ele><time>2026-04-19T09:02:35.932Z</time></trkpt><trkpt lat="43.3039029" lon="12.5792759"><ele>433.33333333333337</ele><time>2026-04-19T09:02:36.932Z</time></trkpt><trkpt lat="43.3041088" lon="12.579195"><ele>433.0</ele><time>2026-04-19T09:02:37.932Z</time></trkpt><trkpt lat="43.3043195" lon="12.5791219"><ele>431.0</ele><time>2026-04-19T09:02:38.932Z</time></trkpt><trkpt lat="43.3045194" lon="12.5790483"><ele>429.0</ele><time>2026-04-19T09:02:39.93Z</time></trkpt><trkpt lat="43.3047127" lon="12.5789848"><ele>427.0</ele><time>2026-04-19T09:02:40.931Z</time></trkpt><trkpt lat="43.3048959" lon="12.5789216"><ele>426.0</ele><time>2026-04-19T09:02:41.931Z</time></trkpt><trkpt lat="43.3050841" lon="12.5788517"><ele>425.0</ele><time>2026-04-19T09:02:42.932Z</time></trkpt><trkpt lat="43.3052791" lon="12.5787744"><ele>424.0</ele><time>2026-04-19T09:02:43.932Z</time></trkpt><trkpt lat="43.3054745" lon="12.5786892"><ele>423.33333333333337</ele><time>2026-04-19T09:02:44.932Z</time></trkpt><trkpt lat="43.3056739" lon="12.5785626"><ele>422.66666666666663</ele><time>2026-04-19T09:02:45.931Z</time></trkpt><trkpt lat="43.3058764" lon="12.5784146"><ele>422.0</ele><time>2026-04-19T09:02:46.932Z</time></trkpt><trkpt lat="43.3060698" lon="12.5782662"><ele>422.0</ele><time>2026-04-19T09:02:47.932Z</time></trkpt><trkpt lat="43.3062569" lon="12.5781238"><ele>422.0</ele><time>2026-04-19T09:02:48.932Z</time></trkpt><trkpt lat="43.3064383" lon="12.5779835"><ele>422.0</ele><time>2026-04-19T09:02:49.932Z</time></trkpt><trkpt lat="43.306614" lon="12.5778458"><ele>420.3333333333333</ele><time>2026-04-19T09:02:50.932Z</time></trkpt><trkpt lat="43.3067858" lon="12.5777082"><ele>418.66666666666663</ele><time>2026-04-19T09:02:51.931Z</time></trkpt><trkpt lat="43.3069516" lon="12.5775758"><ele>417.0</ele><time>2026-04-19T09:02:52.93Z</time></trkpt><trkpt lat="43.3071129" lon="12.5774485"><ele>417.0</ele><time>2026-04-19T09:02:53.932Z</time></trkpt><trkpt lat="43.3072641" lon="12.577329"><ele>417.0</ele><time>2026-04-19T09:02:54.931Z</time></trkpt><trkpt lat="43.3074171" lon="12.5772047"><ele>417.0</ele><time>2026-04-19T09:02:55.93Z</time></trkpt><trkpt lat="43.3075678" lon="12.5770853"><ele>417.0</ele><time>2026-04-19T09:02:56.93Z</time></trkpt><trkpt lat="43.3077054" lon="12.5769756"><ele>417.0</ele><time>2026-04-19T09:02:57.931Z</time></trkpt><trkpt lat="43.3078293" lon="12.5768741"><ele>417.0</ele><time>2026-04-19T09:02:58.931Z</time></trkpt><trkpt lat="43.3079506" lon="12.5767771"><ele>417.0</ele><time>2026-04-19T09:02:59.932Z</time></trkpt><trkpt lat="43.3080701" lon="12.5766824"><ele>416.25</ele><time>2026-04-19T09:03:00.93Z</time></trkpt><trkpt lat="43.3081903" lon="12.5765891"><ele>415.5</ele><time>2026-04-19T09:03:01.932Z</time></trkpt><trkpt lat="43.3083102" lon="12.5764969"><ele>414.75</ele><time>2026-04-19T09:03:02.932Z</time></trkpt><trkpt lat="43.3084334" lon="12.5764002"><ele>414.0</ele><time>2026-04-19T09:03:03.93Z</time></trkpt><trkpt lat="43.3085495" lon="12.5763167"><ele>414.0</ele><time>2026-04-19T09:03:04.932Z</time></trkpt><trkpt lat="43.3086687" lon="12.5762587"><ele>414.0</ele><time>2026-04-19T09:03:05.931Z</time></trkpt><trkpt lat="43.3087881" lon="12.5762205"><ele>414.0</ele><time>2026-04-19T09:03:06.93Z</time></trkpt><trkpt lat="43.3089094" lon="12.5761998"><ele>414.0</ele><time>2026-04-19T09:03:07.931Z</time></trkpt><trkpt lat="43.309033" lon="12.5761867"><ele>413.75</ele><time>2026-04-19T09:03:08.931Z</time></trkpt><trkpt lat="43.309166" lon="12.576179"><ele>413.5</ele><time>2026-04-19T09:03:09.932Z</time></trkpt><trkpt lat="43.3092972" lon="12.5761705"><ele>413.25</ele><time>2026-04-19T09:03:10.93Z</time></trkpt><trkpt lat="43.3094348" lon="12.5761691"><ele>413.0</ele><time>2026-04-19T09:03:11.931Z</time></trkpt><trkpt lat="43.3095744" lon="12.5761673"><ele>413.0</ele><time>2026-04-19T09:03:12.931Z</time></trkpt><trkpt lat="43.3097054" lon="12.5761644"><ele>413.0</ele><time>2026-04-19T09:03:13.93Z</time></trkpt><trkpt lat="43.3098356" lon="12.5761675"><ele>413.0</ele><time>2026-04-19T09:03:14.93Z</time></trkpt><trkpt lat="43.3099644" lon="12.5761706"><ele>413.0</ele><time>2026-04-19T09:03:15.93Z</time></trkpt><trkpt lat="43.3100996" lon="12.5761752"><ele>413.5</ele><time>2026-04-19T09:03:16.931Z</time></trkpt><trkpt lat="43.3102321" lon="12.5761748"><ele>414.0</ele><time>2026-04-19T09:03:17.93Z</time></trkpt><trkpt lat="43.3103581" lon="12.5761754"><ele>414.5</ele><time>2026-04-19T09:03:18.93Z</time></trkpt><trkpt lat="43.3104751" lon="12.5761733"><ele>415.0</ele><time>2026-04-19T09:03:19.93Z</time></trkpt><trkpt lat="43.3105968" lon="12.5761695"><ele>415.0</ele><time>2026-04-19T09:03:20.932Z</time></trkpt><trkpt lat="43.3107294" lon="12.5761574"><ele>415.0</ele><time>2026-04-19T09:03:21.932Z</time></trkpt><trkpt lat="43.3108622" lon="12.5761327"><ele>415.0</ele><time>2026-04-19T09:03:22.932Z</time></trkpt><trkpt lat="43.311006" lon="12.5760921"><ele>415.0</ele><time>2026-04-19T09:03:23.932Z</time></trkpt><trkpt lat="43.3111552" lon="12.5760431"><ele>415.0</ele><time>2026-04-19T09:03:24.932Z</time></trkpt><trkpt lat="43.3113034" lon="12.5759885"><ele>415.0</ele><time>2026-04-19T09:03:25.932Z</time></trkpt><trkpt lat="43.3114511" lon="12.5759354"><ele>415.0</ele><time>2026-04-19T09:03:26.93Z</time></trkpt><trkpt lat="43.3115971" lon="12.5758866"><ele>414.75</ele><time>2026-04-19T09:03:27.931Z</time></trkpt><trkpt lat="43.3117386" lon="12.5758368"><ele>414.5</ele><time>2026-04-19T09:03:28.93Z</time></trkpt><trkpt lat="43.3118735" lon="12.5757873"><ele>414.25</ele><time>2026-04-19T09:03:29.931Z</time></trkpt><trkpt lat="43.312008" lon="12.5757367"><ele>414.0</ele><time>2026-04-19T09:03:30.931Z</time></trkpt><trkpt lat="43.3121387" lon="12.5756868"><ele>413.5</ele><time>2026-04-19T09:03:31.931Z</time></trkpt><trkpt lat="43.3122698" lon="12.5756358"><ele>413.0</ele><time>2026-04-19T09:03:32.931Z</time></trkpt><trkpt lat="43.3123998" lon="12.57559"><ele>412.5</ele><time>2026-04-19T09:03:33.931Z</time></trkpt><trkpt lat="43.3125315" lon="12.5755428"><ele>412.0</ele><time>2026-04-19T09:03:34.931Z</time></trkpt><trkpt lat="43.3126597" lon="12.5754977"><ele>412.0</ele><time>2026-04-19T09:03:35.932Z</time></trkpt><trkpt lat="43.3127871" lon="12.5754523"><ele>412.0</ele><time>2026-04-19T09:03:36.931Z</time></trkpt><trkpt lat="43.3129147" lon="12.5754056"><ele>412.0</ele><time>2026-04-19T09:03:37.93Z</time></trkpt><trkpt lat="43.3130434" lon="12.5753577"><ele>412.0</ele><time>2026-04-19T09:03:38.932Z</time></trkpt><trkpt lat="43.3131724" lon="12.5753108"><ele>412.75</ele><time>2026-04-19T09:03:39.932Z</time></trkpt><trkpt lat="43.3133025" lon="12.5752622"><ele>413.5</ele><time>2026-04-19T09:03:40.93Z</time></trkpt><trkpt lat="43.313431" lon="12.5752183"><ele>414.25</ele><time>2026-04-19T09:03:41.932Z</time></trkpt><trkpt lat="43.3135619" lon="12.5751687"><ele>415.0</ele><time>2026-04-19T09:03:42.931Z</time></trkpt><trkpt lat="43.313696" lon="12.5751154"><ele>415.0</ele><time>2026-04-19T09:03:43.931Z</time></trkpt><trkpt lat="43.3138281" lon="12.5750672"><ele>415.0</ele><time>2026-04-19T09:03:44.93Z</time></trkpt><trkpt lat="43.3139659" lon="12.5750156"><ele>415.0</ele><time>2026-04-19T09:03:45.93Z</time></trkpt><trkpt lat="43.3141031" lon="12.5749677"><ele>415.0</ele><time>2026-04-19T09:03:46.93Z</time></trkpt><trkpt lat="43.3142416" lon="12.5749268"><ele>415.5</ele><time>2026-04-19T09:03:47.931Z</time></trkpt><trkpt lat="43.3143794" lon="12.5748818"><ele>416.0</ele><time>2026-04-19T09:03:48.931Z</time></trkpt><trkpt lat="43.3145161" lon="12.5748343"><ele>416.5</ele><time>2026-04-19T09:03:49.931Z</time></trkpt><trkpt lat="43.3146534" lon="12.5747875"><ele>417.0</ele><time>2026-04-19T09:03:50.932Z</time></trkpt><trkpt lat="43.3147953" lon="12.5747385"><ele>417.66666666666663</ele><time>2026-04-19T09:03:51.932Z</time></trkpt><trkpt lat="43.3149385" lon="12.5746995"><ele>418.3333333333333</ele><time>2026-04-19T09:03:52.931Z</time></trkpt><trkpt lat="43.3150884" lon="12.574663"><ele>419.0</ele><time>2026-04-19T09:03:53.93Z</time></trkpt><trkpt lat="43.3152398" lon="12.5746286"><ele>419.0</ele><time>2026-04-19T09:03:54.929Z</time></trkpt><trkpt lat="43.3153923" lon="12.5745879"><ele>419.0</ele><time>2026-04-19T09:03:55.93Z</time></trkpt><trkpt lat="43.3155495" lon="12.5745495"><ele>419.0</ele><time>2026-04-19T09:03:56.93Z</time></trkpt><trkpt lat="43.3157018" lon="12.5745102"><ele>418.66666666666663</ele><time>2026-04-19T09:03:57.929Z</time></trkpt><trkpt lat="43.315855" lon="12.5744735"><ele>418.33333333333337</ele><time>2026-04-19T09:03:58.931Z</time></trkpt><trkpt lat="43.3160106" lon="12.5744341"><ele>418.0</ele><time>2026-04-19T09:03:59.93Z</time></trkpt><trkpt lat="43.3161703" lon="12.5743899"><ele>418.0</ele><time>2026-04-19T09:04:00.929Z</time></trkpt><trkpt lat="43.3163305" lon="12.5743465"><ele>418.0</ele><time>2026-04-19T09:04:01.931Z</time></trkpt><trkpt lat="43.3164888" lon="12.5743129"><ele>418.0</ele><time>2026-04-19T09:04:02.931Z</time></trkpt><trkpt lat="43.3166448" lon="12.5742852"><ele>417.33333333333337</ele><time>2026-04-19T09:04:03.931Z</time></trkpt><trkpt lat="43.3168037" lon="12.5742632"><ele>416.66666666666663</ele><time>2026-04-19T09:04:04.931Z</time></trkpt><trkpt lat="43.3169694" lon="12.5742639"><ele>416.0</ele><time>2026-04-19T09:04:05.929Z</time></trkpt><trkpt lat="43.3171396" lon="12.5742736"><ele>417.3333333333333</ele><time>2026-04-19T09:04:06.931Z</time></trkpt><trkpt lat="43.3173119" lon="12.574296"><ele>418.66666666666663</ele><time>2026-04-19T09:04:07.93Z</time></trkpt><trkpt lat="43.3174905" lon="12.5743348"><ele>420.0</ele><time>2026-04-19T09:04:08.93Z</time></trkpt><trkpt lat="43.3176784" lon="12.5743831"><ele>420.0</ele><time>2026-04-19T09:04:09.93Z</time></trkpt><trkpt lat="43.3178659" lon="12.5744362"><ele>420.0</ele><time>2026-04-19T09:04:10.931Z</time></trkpt><trkpt lat="43.3180556" lon="12.574486"><ele>420.0</ele><time>2026-04-19T09:04:11.929Z</time></trkpt><trkpt lat="43.3182361" lon="12.5745371"><ele>420.33333333333337</ele><time>2026-04-19T09:04:12.93Z</time></trkpt><trkpt lat="43.3184138" lon="12.5745853"><ele>420.6666666666667</ele><time>2026-04-19T09:04:13.931Z</time></trkpt><trkpt lat="43.3186019" lon="12.5746324"><ele>421.0</ele><time>2026-04-19T09:04:14.931Z</time></trkpt><trkpt lat="43.3187876" lon="12.5746842"><ele>421.33333333333337</ele><time>2026-04-19T09:04:15.931Z</time></trkpt><trkpt lat="43.3189809" lon="12.5747351"><ele>421.66666666666663</ele><time>2026-04-19T09:04:16.931Z</time></trkpt><trkpt lat="43.3191682" lon="12.5747846"><ele>422.0</ele><time>2026-04-19T09:04:17.93Z</time></trkpt><trkpt lat="43.3193537" lon="12.5748409"><ele>422.0</ele><time>2026-04-19T09:04:18.929Z</time></trkpt><trkpt lat="43.319544" lon="12.5749038"><ele>422.0</ele><time>2026-04-19T09:04:19.93Z</time></trkpt><trkpt lat="43.3197366" lon="12.5749775"><ele>422.0</ele><time>2026-04-19T09:04:20.93Z</time></trkpt><trkpt lat="43.3199285" lon="12.575062"><ele>423.0</ele><time>2026-04-19T09:04:21.931Z</time></trkpt><trkpt lat="43.3201117" lon="12.5751463"><ele>424.0</ele><time>2026-04-19T09:04:22.931Z</time></trkpt><trkpt lat="43.3202875" lon="12.5752267"><ele>425.0</ele><time>2026-04-19T09:04:23.93Z</time></trkpt><trkpt lat="43.3204635" lon="12.5753041"><ele>425.3333333333333</ele><time>2026-04-19T09:04:24.93Z</time></trkpt><trkpt lat="43.3206398" lon="12.5753857"><ele>425.66666666666663</ele><time>2026-04-19T09:04:25.93Z</time></trkpt><trkpt lat="43.3208192" lon="12.575463"><ele>426.0</ele><time>2026-04-19T09:04:26.93Z</time></trkpt><trkpt lat="43.3209958" lon="12.5755448"><ele>426.0</ele><time>2026-04-19T09:04:27.93Z</time></trkpt><trkpt lat="43.3211741" lon="12.5756269"><ele>426.0</ele><time>2026-04-19T09:04:28.931Z</time></trkpt><trkpt lat="43.3213476" lon="12.5757135"><ele>426.0</ele><time>2026-04-19T09:04:29.931Z</time></trkpt><trkpt lat="43.3215206" lon="12.5757911"><ele>426.66666666666663</ele><time>2026-04-19T09:04:30.931Z</time></trkpt><trkpt lat="43.321693" lon="12.5758641"><ele>427.3333333333333</ele><time>2026-04-19T09:04:31.931Z</time></trkpt><trkpt lat="43.3218618" lon="12.5759374"><ele>428.0</ele><time>2026-04-19T09:04:32.931Z</time></trkpt><trkpt lat="43.3220267" lon="12.5760068"><ele>428.0</ele><time>2026-04-19T09:04:33.93Z</time></trkpt><trkpt lat="43.3221914" lon="12.5760783"><ele>428.0</ele><time>2026-04-19T09:04:34.931Z</time></trkpt><trkpt lat="43.3223556" lon="12.5761498"><ele>428.0</ele><time>2026-04-19T09:04:35.931Z</time></trkpt><trkpt lat="43.3225192" lon="12.5762161"><ele>428.3333333333333</ele><time>2026-04-19T09:04:36.93Z</time></trkpt><trkpt lat="43.3226842" lon="12.5762718"><ele>428.66666666666663</ele><time>2026-04-19T09:04:37.93Z</time></trkpt><trkpt lat="43.3228427" lon="12.5763164"><ele>429.0</ele><time>2026-04-19T09:04:38.93Z</time></trkpt><trkpt lat="43.3229978" lon="12.5763473"><ele>429.33333333333337</ele><time>2026-04-19T09:04:39.93Z</time></trkpt><trkpt lat="43.3231541" lon="12.5763618"><ele>429.6666666666667</ele><time>2026-04-19T09:04:40.93Z</time></trkpt><trkpt lat="43.3233128" lon="12.5763584"><ele>430.0</ele><time>2026-04-19T09:04:41.93Z</time></trkpt><trkpt lat="43.3234736" lon="12.5763536"><ele>430.0</ele><time>2026-04-19T09:04:42.93Z</time></trkpt><trkpt lat="43.3236266" lon="12.5763451"><ele>430.0</ele><time>2026-04-19T09:04:43.931Z</time></trkpt><trkpt lat="43.3237833" lon="12.5763308"><ele>430.0</ele><time>2026-04-19T09:04:44.929Z</time></trkpt><trkpt lat="43.3239403" lon="12.5763216"><ele>430.0</ele><time>2026-04-19T09:04:45.93Z</time></trkpt><trkpt lat="43.3240906" lon="12.5763083"><ele>430.0</ele><time>2026-04-19T09:04:46.93Z</time></trkpt><trkpt lat="43.3242359" lon="12.576299"><ele>430.0</ele><time>2026-04-19T09:04:47.93Z</time></trkpt><trkpt lat="43.3243785" lon="12.5762919"><ele>430.0</ele><time>2026-04-19T09:04:48.929Z</time></trkpt><trkpt lat="43.3245215" lon="12.5762821"><ele>430.0</ele><time>2026-04-19T09:04:49.931Z</time></trkpt><trkpt lat="43.3246747" lon="12.5762742"><ele>430.0</ele><time>2026-04-19T09:04:50.93Z</time></trkpt><trkpt lat="43.3248293" lon="12.5762676"><ele>430.0</ele><time>2026-04-19T09:04:51.93Z</time></trkpt><trkpt lat="43.3249868" lon="12.576258"><ele>430.6666666666667</ele><time>2026-04-19T09:04:52.931Z</time></trkpt><trkpt lat="43.325149" lon="12.5762381"><ele>431.33333333333337</ele><time>2026-04-19T09:04:53.931Z</time></trkpt><trkpt lat="43.3253155" lon="12.5761941"><ele>432.0</ele><time>2026-04-19T09:04:54.929Z</time></trkpt><trkpt lat="43.3254848" lon="12.5761332"><ele>432.66666666666663</ele><time>2026-04-19T09:04:55.931Z</time></trkpt><trkpt lat="43.3256455" lon="12.5760752"><ele>433.3333333333333</ele><time>2026-04-19T09:04:56.929Z</time></trkpt><trkpt lat="43.3257984" lon="12.5760188"><ele>434.0</ele><time>2026-04-19T09:04:57.93Z</time></trkpt><trkpt lat="43.3259514" lon="12.5759631"><ele>434.0</ele><time>2026-04-19T09:04:58.929Z</time></trkpt><trkpt lat="43.3261048" lon="12.5759074"><ele>434.0</ele><time>2026-04-19T09:04:59.93Z</time></trkpt><trkpt lat="43.326257" lon="12.5758548"><ele>434.0</ele><time>2026-04-19T09:05:00.93Z</time></trkpt><trkpt lat="43.3264086" lon="12.5757927"><ele>434.0</ele><time>2026-04-19T09:05:01.929Z</time></trkpt><trkpt lat="43.3265573" lon="12.575738"><ele>434.0</ele><time>2026-04-19T09:05:02.931Z</time></trkpt><trkpt lat="43.3267047" lon="12.5756798"><ele>434.0</ele><time>2026-04-19T09:05:03.93Z</time></trkpt><trkpt lat="43.3268547" lon="12.575627"><ele>434.0</ele><time>2026-04-19T09:05:04.93Z</time></trkpt><trkpt lat="43.327002" lon="12.5755738"><ele>434.0</ele><time>2026-04-19T09:05:05.929Z</time></trkpt><trkpt lat="43.3271462" lon="12.5755195"><ele>434.0</ele><time>2026-04-19T09:05:06.931Z</time></trkpt><trkpt lat="43.3272818" lon="12.5754694"><ele>434.0</ele><time>2026-04-19T09:05:07.931Z</time></trkpt><trkpt lat="43.3274131" lon="12.575428"><ele>434.5</ele><time>2026-04-19T09:05:08.93Z</time></trkpt><trkpt lat="43.3275416" lon="12.5753898"><ele>435.0</ele><time>2026-04-19T09:05:09.931Z</time></trkpt><trkpt lat="43.3276669" lon="12.5753556"><ele>435.5</ele><time>2026-04-19T09:05:10.931Z</time></trkpt><trkpt lat="43.3277976" lon="12.5753161"><ele>436.0</ele><time>2026-04-19T09:05:11.929Z</time></trkpt><trkpt lat="43.32793" lon="12.575276"><ele>436.25</ele><time>2026-04-19T09:05:12.93Z</time></trkpt><trkpt lat="43.3280667" lon="12.5752403"><ele>436.5</ele><time>2026-04-19T09:05:13.93Z</time></trkpt><trkpt lat="43.3282065" lon="12.5752023"><ele>436.75</ele><time>2026-04-19T09:05:14.93Z</time></trkpt><trkpt lat="43.3283446" lon="12.5751646"><ele>437.0</ele><time>2026-04-19T09:05:15.93Z</time></trkpt><trkpt lat="43.3284827" lon="12.5751236"><ele>437.0</ele><time>2026-04-19T09:05:16.93Z</time></trkpt><trkpt lat="43.3286207" lon="12.5750893"><ele>437.0</ele><time>2026-04-19T09:05:17.931Z</time></trkpt><trkpt lat="43.3287668" lon="12.575046"><ele>437.0</ele><time>2026-04-19T09:05:18.931Z</time></trkpt><trkpt lat="43.3289107" lon="12.5750089"><ele>437.0</ele><time>2026-04-19T09:05:19.931Z</time></trkpt><trkpt lat="43.3290561" lon="12.5749688"><ele>437.66666666666663</ele><time>2026-04-19T09:05:20.929Z</time></trkpt><trkpt lat="43.3292076" lon="12.5749314"><ele>438.33333333333337</ele><time>2026-04-19T09:05:21.93Z</time></trkpt><trkpt lat="43.3293581" lon="12.5748879"><ele>439.0</ele><time>2026-04-19T09:05:22.93Z</time></trkpt><trkpt lat="43.3295135" lon="12.5748393"><ele>439.0</ele><time>2026-04-19T09:05:23.929Z</time></trkpt><trkpt lat="43.3296713" lon="12.5747935"><ele>439.0</ele><time>2026-04-19T09:05:24.931Z</time></trkpt><trkpt lat="43.3298316" lon="12.574751"><ele>439.0</ele><time>2026-04-19T09:05:25.93Z</time></trkpt><trkpt lat="43.3299983" lon="12.574705"><ele>439.6666666666667</ele><time>2026-04-19T09:05:26.93Z</time></trkpt><trkpt lat="43.3301633" lon="12.5746566"><ele>440.33333333333337</ele><time>2026-04-19T09:05:27.931Z</time></trkpt><trkpt lat="43.3303171" lon="12.5746012"><ele>441.0</ele><time>2026-04-19T09:05:28.931Z</time></trkpt><trkpt lat="43.3304633" lon="12.574536"><ele>441.66666666666663</ele><time>2026-04-19T09:05:29.929Z</time></trkpt><trkpt lat="43.3306085" lon="12.5744688"><ele>442.3333333333333</ele><time>2026-04-19T09:05:30.931Z</time></trkpt><trkpt lat="43.3307567" lon="12.5743924"><ele>443.0</ele><time>2026-04-19T09:05:31.931Z</time></trkpt><trkpt lat="43.3309111" lon="12.5743157"><ele>443.0</ele><time>2026-04-19T09:05:32.93Z</time></trkpt><trkpt lat="43.3310716" lon="12.5742382"><ele>443.0</ele><time>2026-04-19T09:05:33.931Z</time></trkpt><trkpt lat="43.3312326" lon="12.5741595"><ele>443.0</ele><time>2026-04-19T09:05:34.929Z</time></trkpt><trkpt lat="43.3313846" lon="12.5740869"><ele>443.66666666666663</ele><time>2026-04-19T09:05:35.929Z</time></trkpt><trkpt lat="43.3315283" lon="12.5740127"><ele>444.33333333333337</ele><time>2026-04-19T09:05:36.931Z</time></trkpt><trkpt lat="43.3316715" lon="12.5739395"><ele>445.0</ele><time>2026-04-19T09:05:37.93Z</time></trkpt><trkpt lat="43.3318183" lon="12.5738644"><ele>445.0</ele><time>2026-04-19T09:05:38.929Z</time></trkpt><trkpt lat="43.3319722" lon="12.5737924"><ele>445.0</ele><time>2026-04-19T09:05:39.93Z</time></trkpt><trkpt lat="43.3321322" lon="12.573711"><ele>445.0</ele><time>2026-04-19T09:05:40.93Z</time></trkpt><trkpt lat="43.3322921" lon="12.573631"><ele>444.6666666666667</ele><time>2026-04-19T09:05:41.93Z</time></trkpt><trkpt lat="43.3324518" lon="12.5735518"><ele>444.33333333333337</ele><time>2026-04-19T09:05:42.93Z</time></trkpt><trkpt lat="43.3326088" lon="12.5734751"><ele>444.0</ele><time>2026-04-19T09:05:43.93Z</time></trkpt><trkpt lat="43.3327609" lon="12.5734004"><ele>444.0</ele><time>2026-04-19T09:05:44.93Z</time></trkpt><trkpt lat="43.3329119" lon="12.5733267"><ele>444.0</ele><time>2026-04-19T09:05:45.93Z</time></trkpt><trkpt lat="43.3330645" lon="12.5732497"><ele>444.0</ele><time>2026-04-19T09:05:46.931Z</time></trkpt><trkpt lat="43.333217" lon="12.5731692"><ele>444.33333333333337</ele><time>2026-04-19T09:05:47.929Z</time></trkpt><trkpt lat="43.3333736" lon="12.5730933"><ele>444.6666666666667</ele><time>2026-04-19T09:05:48.929Z</time></trkpt><trkpt lat="43.3335295" lon="12.5730135"><ele>445.0</ele><time>2026-04-19T09:05:49.93Z</time></trkpt><trkpt lat="43.3336868" lon="12.5729385"><ele>445.0</ele><time>2026-04-19T09:05:50.931Z</time></trkpt><trkpt lat="43.3338346" lon="12.5728673"><ele>445.0</ele><time>2026-04-19T09:05:51.93Z</time></trkpt><trkpt lat="43.333976" lon="12.5728016"><ele>445.0</ele><time>2026-04-19T09:05:52.929Z</time></trkpt><trkpt lat="43.334116" lon="12.5727397"><ele>445.5</ele><time>2026-04-19T09:05:53.93Z</time></trkpt><trkpt lat="43.3342585" lon="12.5726831"><ele>446.0</ele><time>2026-04-19T09:05:54.93Z</time></trkpt><trkpt lat="43.3344022" lon="12.5726385"><ele>446.5</ele><time>2026-04-19T09:05:55.93Z</time></trkpt><trkpt lat="43.334539" lon="12.5726104"><ele>447.0</ele><time>2026-04-19T09:05:56.93Z</time></trkpt><trkpt lat="43.3346654" lon="12.5725902"><ele>447.25</ele><time>2026-04-19T09:05:57.93Z</time></trkpt><trkpt lat="43.3347841" lon="12.5725815"><ele>447.5</ele><time>2026-04-19T09:05:58.93Z</time></trkpt><trkpt lat="43.3348995" lon="12.5725847"><ele>447.75</ele><time>2026-04-19T09:05:59.93Z</time></trkpt><trkpt lat="43.3350077" lon="12.5725984"><ele>448.0</ele><time>2026-04-19T09:06:00.931Z</time></trkpt><trkpt lat="43.3351174" lon="12.5726158"><ele>448.0</ele><time>2026-04-19T09:06:01.93Z</time></trkpt><trkpt lat="43.3352324" lon="12.5726425"><ele>447.99999999999994</ele><time>2026-04-19T09:06:02.93Z</time></trkpt><trkpt lat="43.3353502" lon="12.5726754"><ele>447.99999999999994</ele><time>2026-04-19T09:06:03.93Z</time></trkpt><trkpt lat="43.3354554" lon="12.5727129"><ele>448.0</ele><time>2026-04-19T09:06:04.93Z</time></trkpt><trkpt lat="43.3355529" lon="12.5727491"><ele>448.0</ele><time>2026-04-19T09:06:05.93Z</time></trkpt><trkpt lat="43.3356419" lon="12.5727819"><ele>448.00000000000006</ele><time>2026-04-19T09:06:06.929Z</time></trkpt><trkpt lat="43.3357237" lon="12.5728064"><ele>448.0</ele><time>2026-04-19T09:06:07.93Z</time></trkpt><trkpt lat="43.3357984" lon="12.5728248"><ele>448.0</ele><time>2026-04-19T09:06:08.928Z</time></trkpt><trkpt lat="43.335874" lon="12.5728464"><ele>448.0</ele><time>2026-04-19T09:06:09.93Z</time></trkpt><trkpt lat="43.3359487" lon="12.5728739"><ele>448.00000000000006</ele><time>2026-04-19T09:06:10.929Z</time></trkpt><trkpt lat="43.3360226" lon="12.5729191"><ele>448.0</ele><time>2026-04-19T09:06:11.929Z</time></trkpt><trkpt lat="43.3360974" lon="12.5729747"><ele>448.2</ele><time>2026-04-19T09:06:12.93Z</time></trkpt><trkpt lat="43.3361877" lon="12.5730126"><ele>448.4</ele><time>2026-04-19T09:06:13.93Z</time></trkpt><trkpt lat="43.3362929" lon="12.5730316"><ele>448.59999999999997</ele><time>2026-04-19T09:06:14.929Z</time></trkpt><trkpt lat="43.3363935" lon="12.5730531"><ele>448.79999999999995</ele><time>2026-04-19T09:06:15.93Z</time></trkpt><trkpt lat="43.3364883" lon="12.5730845"><ele>449.0</ele><time>2026-04-19T09:06:16.928Z</time></trkpt><trkpt lat="43.3365826" lon="12.5731137"><ele>449.4</ele><time>2026-04-19T09:06:17.929Z</time></trkpt><trkpt lat="43.3366793" lon="12.5731435"><ele>449.79999999999995</ele><time>2026-04-19T09:06:18.928Z</time></trkpt><trkpt lat="43.3367788" lon="12.5731802"><ele>450.20000000000005</ele><time>2026-04-19T09:06:19.928Z</time></trkpt><trkpt lat="43.3368821" lon="12.5732227"><ele>450.6</ele><time>2026-04-19T09:06:20.929Z</time></trkpt><trkpt lat="43.3369875" lon="12.5732647"><ele>451.0</ele><time>2026-04-19T09:06:21.93Z</time></trkpt><trkpt lat="43.3370924" lon="12.5733011"><ele>451.0</ele><time>2026-04-19T09:06:22.93Z</time></trkpt><trkpt lat="43.3371935" lon="12.5733413"><ele>451.0</ele><time>2026-04-19T09:06:23.929Z</time></trkpt><trkpt lat="43.3372998" lon="12.5733775"><ele>451.0</ele><time>2026-04-19T09:06:24.93Z</time></trkpt><trkpt lat="43.3374072" lon="12.573418"><ele>451.0</ele><time>2026-04-19T09:06:25.929Z</time></trkpt><trkpt lat="43.3375181" lon="12.5734598"><ele>451.0</ele><time>2026-04-19T09:06:26.93Z</time></trkpt><trkpt lat="43.3376334" lon="12.5734989"><ele>452.0</ele><time>2026-04-19T09:06:27.928Z</time></trkpt><trkpt lat="43.3377485" lon="12.5735414"><ele>453.0</ele><time>2026-04-19T09:06:28.929Z</time></trkpt><trkpt lat="43.337859" lon="12.5735841"><ele>454.0</ele><time>2026-04-19T09:06:29.93Z</time></trkpt><trkpt lat="43.3379742" lon="12.5736276"><ele>455.0</ele><time>2026-04-19T09:06:30.93Z</time></trkpt><trkpt lat="43.3380961" lon="12.5736701"><ele>455.0</ele><time>2026-04-19T09:06:31.929Z</time></trkpt><trkpt lat="43.3382168" lon="12.5737138"><ele>455.0</ele><time>2026-04-19T09:06:32.93Z</time></trkpt><trkpt lat="43.3383317" lon="12.5737589"><ele>455.0</ele><time>2026-04-19T09:06:33.929Z</time></trkpt><trkpt lat="43.3384441" lon="12.5738055"><ele>455.0</ele><time>2026-04-19T09:06:34.929Z</time></trkpt><trkpt lat="43.3385603" lon="12.5738526"><ele>455.0</ele><time>2026-04-19T09:06:35.93Z</time></trkpt><trkpt lat="43.3386796" lon="12.5739001"><ele>455.0</ele><time>2026-04-19T09:06:36.929Z</time></trkpt><trkpt lat="43.3387982" lon="12.5739476"><ele>455.0</ele><time>2026-04-19T09:06:37.93Z</time></trkpt><trkpt lat="43.338916" lon="12.5739976"><ele>455.0</ele><time>2026-04-19T09:06:38.93Z</time></trkpt><trkpt lat="43.3390311" lon="12.574043"><ele>455.5</ele><time>2026-04-19T09:06:39.928Z</time></trkpt><trkpt lat="43.339145" lon="12.5740904"><ele>456.0</ele><time>2026-04-19T09:06:40.93Z</time></trkpt><trkpt lat="43.3392573" lon="12.5741365"><ele>456.5</ele><time>2026-04-19T09:06:41.93Z</time></trkpt><trkpt lat="43.3393617" lon="12.5741858"><ele>457.0</ele><time>2026-04-19T09:06:42.929Z</time></trkpt><trkpt lat="43.3394686" lon="12.5742335"><ele>457.0</ele><time>2026-04-19T09:06:43.93Z</time></trkpt><trkpt lat="43.3395777" lon="12.5742829"><ele>457.00000000000006</ele><time>2026-04-19T09:06:44.93Z</time></trkpt><trkpt lat="43.3396817" lon="12.5743177"><ele>457.00000000000006</ele><time>2026-04-19T09:06:45.929Z</time></trkpt><trkpt lat="43.3397818" lon="12.5743438"><ele>457.0</ele><time>2026-04-19T09:06:46.93Z</time></trkpt><trkpt lat="43.3398707" lon="12.5743668"><ele>457.0</ele><time>2026-04-19T09:06:47.93Z</time></trkpt><trkpt lat="43.3399388" lon="12.5743829"><ele>457.75</ele><time>2026-04-19T09:06:48.93Z</time></trkpt><trkpt lat="43.3400522" lon="12.5743335"><ele>458.5</ele><time>2026-04-19T09:06:50.93Z</time></trkpt><trkpt lat="43.3401131" lon="12.5741824"><ele>459.25</ele><time>2026-04-19T09:06:52.928Z</time></trkpt><trkpt lat="43.3401326" lon="12.5740559"><ele>460.0</ele><time>2026-04-19T09:06:53.929Z</time></trkpt><trkpt lat="43.3401597" lon="12.5739074"><ele>460.0</ele><time>2026-04-19T09:06:54.93Z</time></trkpt><trkpt lat="43.3401899" lon="12.5737589"><ele>460.0</ele><time>2026-04-19T09:06:55.928Z</time></trkpt><trkpt lat="43.3402271" lon="12.5735912"><ele>460.0</ele><time>2026-04-19T09:06:56.928Z</time></trkpt><trkpt lat="43.3402527" lon="12.5734154"><ele>460.0</ele><time>2026-04-19T09:06:57.929Z</time></trkpt><trkpt lat="43.3402804" lon="12.573207"><ele>460.0</ele><time>2026-04-19T09:06:58.929Z</time></trkpt><trkpt lat="43.3403131" lon="12.5730082"><ele>460.0</ele><time>2026-04-19T09:06:59.928Z</time></trkpt><trkpt lat="43.3403579" lon="12.5728065"><ele>460.0</ele><time>2026-04-19T09:07:00.929Z</time></trkpt><trkpt lat="43.3404203" lon="12.5725897"><ele>460.0</ele><time>2026-04-19T09:07:01.929Z</time></trkpt><trkpt lat="43.3405002" lon="12.5723627"><ele>460.0</ele><time>2026-04-19T09:07:02.929Z</time></trkpt><trkpt lat="43.3405815" lon="12.5721211"><ele>460.0</ele><time>2026-04-19T09:07:03.929Z</time></trkpt><trkpt lat="43.3406627" lon="12.5718761"><ele>460.0</ele><time>2026-04-19T09:07:04.93Z</time></trkpt><trkpt lat="43.3407468" lon="12.5716242"><ele>460.0</ele><time>2026-04-19T09:07:05.93Z</time></trkpt><trkpt lat="43.3408357" lon="12.5713582"><ele>460.0</ele><time>2026-04-19T09:07:06.929Z</time></trkpt><trkpt lat="43.3409499" lon="12.571089"><ele>459.5</ele><time>2026-04-19T09:07:07.928Z</time></trkpt><trkpt lat="43.3410705" lon="12.5708141"><ele>459.0</ele><time>2026-04-19T09:07:08.929Z</time></trkpt><trkpt lat="43.3411923" lon="12.5705452"><ele>457.5</ele><time>2026-04-19T09:07:09.929Z</time></trkpt><trkpt lat="43.3413206" lon="12.5702731"><ele>456.0</ele><time>2026-04-19T09:07:10.93Z</time></trkpt><trkpt lat="43.3414563" lon="12.5699969"><ele>456.0</ele><time>2026-04-19T09:07:11.93Z</time></trkpt><trkpt lat="43.3415996" lon="12.5697121"><ele>456.0</ele><time>2026-04-19T09:07:12.929Z</time></trkpt><trkpt lat="43.3417495" lon="12.5694203"><ele>457.5</ele><time>2026-04-19T09:07:13.929Z</time></trkpt><trkpt lat="43.3419081" lon="12.5691283"><ele>459.0</ele><time>2026-04-19T09:07:14.929Z</time></trkpt><trkpt lat="43.3420727" lon="12.56884"><ele>459.5</ele><time>2026-04-19T09:07:15.93Z</time></trkpt><trkpt lat="43.3422434" lon="12.5685601"><ele>460.0</ele><time>2026-04-19T09:07:16.928Z</time></trkpt><trkpt lat="43.3424124" lon="12.5682848"><ele>460.0</ele><time>2026-04-19T09:07:17.929Z</time></trkpt><trkpt lat="43.3425883" lon="12.5680188"><ele>460.0</ele><time>2026-04-19T09:07:18.93Z</time></trkpt><trkpt lat="43.3427645" lon="12.5677567"><ele>460.5</ele><time>2026-04-19T09:07:19.93Z</time></trkpt><trkpt lat="43.3429437" lon="12.5675015"><ele>461.0</ele><time>2026-04-19T09:07:20.93Z</time></trkpt><trkpt lat="43.3431248" lon="12.567249"><ele>461.0</ele><time>2026-04-19T09:07:21.93Z</time></trkpt><trkpt lat="43.3433103" lon="12.5670018"><ele>461.0</ele><time>2026-04-19T09:07:22.93Z</time></trkpt><trkpt lat="43.3434955" lon="12.5667628"><ele>461.0</ele><time>2026-04-19T09:07:23.93Z</time></trkpt><trkpt lat="43.3436869" lon="12.5665324"><ele>461.0</ele><time>2026-04-19T09:07:24.929Z</time></trkpt><trkpt lat="43.3438844" lon="12.5663001"><ele>461.5</ele><time>2026-04-19T09:07:25.929Z</time></trkpt><trkpt lat="43.3440782" lon="12.5660754"><ele>462.0</ele><time>2026-04-19T09:07:26.929Z</time></trkpt><trkpt lat="43.3442729" lon="12.5658581"><ele>462.0</ele><time>2026-04-19T09:07:27.929Z</time></trkpt><trkpt lat="43.344469" lon="12.5656522"><ele>462.0</ele><time>2026-04-19T09:07:28.93Z</time></trkpt><trkpt lat="43.3446663" lon="12.5654427"><ele>463.0</ele><time>2026-04-19T09:07:29.929Z</time></trkpt><trkpt lat="43.3448597" lon="12.5652385"><ele>464.0</ele><time>2026-04-19T09:07:30.929Z</time></trkpt><trkpt lat="43.3450493" lon="12.5650345"><ele>464.0</ele><time>2026-04-19T09:07:31.928Z</time></trkpt><trkpt lat="43.3452415" lon="12.5648324"><ele>464.0</ele><time>2026-04-19T09:07:32.929Z</time></trkpt><trkpt lat="43.345433" lon="12.5646302"><ele>464.0</ele><time>2026-04-19T09:07:33.929Z</time></trkpt><trkpt lat="43.3456255" lon="12.5644242"><ele>464.0</ele><time>2026-04-19T09:07:34.929Z</time></trkpt><trkpt lat="43.3458194" lon="12.5642194"><ele>464.0</ele><time>2026-04-19T09:07:35.93Z</time></trkpt><trkpt lat="43.346013" lon="12.5640154"><ele>464.0</ele><time>2026-04-19T09:07:36.929Z</time></trkpt><trkpt lat="43.346207" lon="12.5638089"><ele>464.5</ele><time>2026-04-19T09:07:37.929Z</time></trkpt><trkpt lat="43.3464007" lon="12.563603"><ele>465.0</ele><time>2026-04-19T09:07:38.929Z</time></trkpt><trkpt lat="43.3465942" lon="12.5633993"><ele>465.0</ele><time>2026-04-19T09:07:39.929Z</time></trkpt><trkpt lat="43.346786" lon="12.5631947"><ele>465.0</ele><time>2026-04-19T09:07:40.929Z</time></trkpt><trkpt lat="43.3469778" lon="12.5629994"><ele>465.0</ele><time>2026-04-19T09:07:41.929Z</time></trkpt><trkpt lat="43.3471708" lon="12.562796"><ele>465.0</ele><time>2026-04-19T09:07:42.93Z</time></trkpt><trkpt lat="43.3473625" lon="12.562593"><ele>465.0</ele><time>2026-04-19T09:07:43.93Z</time></trkpt><trkpt lat="43.3475512" lon="12.5623884"><ele>465.0</ele><time>2026-04-19T09:07:44.93Z</time></trkpt><trkpt lat="43.3477384" lon="12.5621918"><ele>464.5</ele><time>2026-04-19T09:07:45.929Z</time></trkpt><trkpt lat="43.3479205" lon="12.561998"><ele>464.0</ele><time>2026-04-19T09:07:46.93Z</time></trkpt><trkpt lat="43.3481075" lon="12.5617942"><ele>465.0</ele><time>2026-04-19T09:07:47.93Z</time></trkpt><trkpt lat="43.3482965" lon="12.5615908"><ele>466.0</ele><time>2026-04-19T09:07:48.929Z</time></trkpt><trkpt lat="43.348477" lon="12.5614052"><ele>466.0</ele><time>2026-04-19T09:07:49.93Z</time></trkpt><trkpt lat="43.3486458" lon="12.5612181"><ele>466.0</ele><time>2026-04-19T09:07:50.929Z</time></trkpt><trkpt lat="43.3488249" lon="12.5610225"><ele>466.0</ele><time>2026-04-19T09:07:51.928Z</time></trkpt><trkpt lat="43.3490035" lon="12.5608269"><ele>464.6666666666667</ele><time>2026-04-19T09:07:52.929Z</time></trkpt><trkpt lat="43.3491769" lon="12.560634"><ele>463.33333333333337</ele><time>2026-04-19T09:07:53.929Z</time></trkpt><trkpt lat="43.349346" lon="12.5604439"><ele>462.0</ele><time>2026-04-19T09:07:54.928Z</time></trkpt><trkpt lat="43.3495099" lon="12.5602529"><ele>461.66666666666663</ele><time>2026-04-19T09:07:55.929Z</time></trkpt><trkpt lat="43.3496703" lon="12.5600592"><ele>461.3333333333333</ele><time>2026-04-19T09:07:56.929Z</time></trkpt><trkpt lat="43.3498336" lon="12.5598581"><ele>461.0</ele><time>2026-04-19T09:07:57.929Z</time></trkpt><trkpt lat="43.3499997" lon="12.5596502"><ele>462.0</ele><time>2026-04-19T09:07:58.93Z</time></trkpt><trkpt lat="43.3501708" lon="12.5594339"><ele>463.0</ele><time>2026-04-19T09:07:59.929Z</time></trkpt><trkpt lat="43.3503332" lon="12.5592203"><ele>463.0</ele><time>2026-04-19T09:08:00.928Z</time></trkpt><trkpt lat="43.3504945" lon="12.5589982"><ele>463.0</ele><time>2026-04-19T09:08:01.928Z</time></trkpt><trkpt lat="43.3506532" lon="12.5587783"><ele>462.5</ele><time>2026-04-19T09:08:02.93Z</time></trkpt><trkpt lat="43.3508082" lon="12.5585482"><ele>462.0</ele><time>2026-04-19T09:08:03.93Z</time></trkpt><trkpt lat="43.3509617" lon="12.5583173"><ele>462.0</ele><time>2026-04-19T09:08:04.929Z</time></trkpt><trkpt lat="43.3511082" lon="12.5580949"><ele>462.0</ele><time>2026-04-19T09:08:05.928Z</time></trkpt><trkpt lat="43.3512497" lon="12.5578735"><ele>462.0</ele><time>2026-04-19T09:08:06.929Z</time></trkpt><trkpt lat="43.3513897" lon="12.5576476"><ele>460.66666666666663</ele><time>2026-04-19T09:08:07.928Z</time></trkpt><trkpt lat="43.3515285" lon="12.5574274"><ele>459.3333333333333</ele><time>2026-04-19T09:08:08.93Z</time></trkpt><trkpt lat="43.351665" lon="12.5572047"><ele>458.0</ele><time>2026-04-19T09:08:09.93Z</time></trkpt><trkpt lat="43.3517987" lon="12.5569778"><ele>457.3333333333333</ele><time>2026-04-19T09:08:10.93Z</time></trkpt><trkpt lat="43.3519203" lon="12.5567651"><ele>456.66666666666663</ele><time>2026-04-19T09:08:11.929Z</time></trkpt><trkpt lat="43.3520365" lon="12.5565551"><ele>456.0</ele><time>2026-04-19T09:08:12.93Z</time></trkpt><trkpt lat="43.3521508" lon="12.5563465"><ele>457.33333333333337</ele><time>2026-04-19T09:08:13.929Z</time></trkpt><trkpt lat="43.352262" lon="12.5561471"><ele>458.6666666666667</ele><time>2026-04-19T09:08:14.93Z</time></trkpt><trkpt lat="43.3523762" lon="12.5559445"><ele>460.0</ele><time>2026-04-19T09:08:15.93Z</time></trkpt><trkpt lat="43.3524881" lon="12.5557328"><ele>460.0</ele><time>2026-04-19T09:08:16.93Z</time></trkpt><trkpt lat="43.3526088" lon="12.5555175"><ele>460.0</ele><time>2026-04-19T09:08:17.929Z</time></trkpt><trkpt lat="43.3527301" lon="12.5553021"><ele>460.0</ele><time>2026-04-19T09:08:18.929Z</time></trkpt><trkpt lat="43.352851" lon="12.5550839"><ele>460.0</ele><time>2026-04-19T09:08:19.93Z</time></trkpt><trkpt lat="43.3529728" lon="12.5548662"><ele>460.0</ele><time>2026-04-19T09:08:20.93Z</time></trkpt><trkpt lat="43.3530912" lon="12.5546457"><ele>460.0</ele><time>2026-04-19T09:08:21.929Z</time></trkpt><trkpt lat="43.3532146" lon="12.5544203"><ele>459.33333333333337</ele><time>2026-04-19T09:08:22.928Z</time></trkpt><trkpt lat="43.3533322" lon="12.5542083"><ele>458.66666666666663</ele><time>2026-04-19T09:08:23.929Z</time></trkpt><trkpt lat="43.3534529" lon="12.5539944"><ele>458.0</ele><time>2026-04-19T09:08:24.928Z</time></trkpt><trkpt lat="43.353576" lon="12.5537773"><ele>458.0</ele><time>2026-04-19T09:08:25.927Z</time></trkpt><trkpt lat="43.3537095" lon="12.5535545"><ele>458.0</ele><time>2026-04-19T09:08:26.928Z</time></trkpt><trkpt lat="43.3538468" lon="12.553322"><ele>458.0</ele><time>2026-04-19T09:08:27.928Z</time></trkpt><trkpt lat="43.3539784" lon="12.5530935"><ele>458.3333333333333</ele><time>2026-04-19T09:08:28.928Z</time></trkpt><trkpt lat="43.3541005" lon="12.5528755"><ele>458.66666666666663</ele><time>2026-04-19T09:08:29.928Z</time></trkpt><trkpt lat="43.3542165" lon="12.5526645"><ele>459.0</ele><time>2026-04-19T09:08:30.929Z</time></trkpt><trkpt lat="43.3543275" lon="12.5524612"><ele>459.0</ele><time>2026-04-19T09:08:31.927Z</time></trkpt><trkpt lat="43.3544412" lon="12.5522734"><ele>459.0</ele><time>2026-04-19T09:08:32.927Z</time></trkpt><trkpt lat="43.3545653" lon="12.5520803"><ele>459.0</ele><time>2026-04-19T09:08:33.929Z</time></trkpt><trkpt lat="43.3546963" lon="12.5518943"><ele>459.33333333333337</ele><time>2026-04-19T09:08:34.927Z</time></trkpt><trkpt lat="43.354844" lon="12.5517244"><ele>459.6666666666667</ele><time>2026-04-19T09:08:35.929Z</time></trkpt><trkpt lat="43.3550114" lon="12.5515721"><ele>460.0</ele><time>2026-04-19T09:08:36.929Z</time></trkpt><trkpt lat="43.3551883" lon="12.5514292"><ele>460.0</ele><time>2026-04-19T09:08:37.928Z</time></trkpt><trkpt lat="43.3553802" lon="12.5513013"><ele>460.0</ele><time>2026-04-19T09:08:38.928Z</time></trkpt><trkpt lat="43.3555834" lon="12.5512178"><ele>460.0</ele><time>2026-04-19T09:08:39.928Z</time></trkpt><trkpt lat="43.3557799" lon="12.5511516"><ele>460.0</ele><time>2026-04-19T09:08:40.929Z</time></trkpt><trkpt lat="43.3559872" lon="12.5511217"><ele>460.0</ele><time>2026-04-19T09:08:41.929Z</time></trkpt><trkpt lat="43.3562098" lon="12.5511131"><ele>460.0</ele><time>2026-04-19T09:08:42.928Z</time></trkpt><trkpt lat="43.3564413" lon="12.5511236"><ele>462.0</ele><time>2026-04-19T09:08:43.927Z</time></trkpt><trkpt lat="43.3566823" lon="12.5511421"><ele>464.0</ele><time>2026-04-19T09:08:44.929Z</time></trkpt><trkpt lat="43.3569304" lon="12.5511655"><ele>464.0</ele><time>2026-04-19T09:08:45.929Z</time></trkpt><trkpt lat="43.3571688" lon="12.5511927"><ele>464.0</ele><time>2026-04-19T09:08:46.928Z</time></trkpt><trkpt lat="43.3573991" lon="12.5512212"><ele>465.0</ele><time>2026-04-19T09:08:47.927Z</time></trkpt><trkpt lat="43.3576273" lon="12.5512524"><ele>466.0</ele><time>2026-04-19T09:08:48.928Z</time></trkpt><trkpt lat="43.3578568" lon="12.5512802"><ele>466.5</ele><time>2026-04-19T09:08:49.928Z</time></trkpt><trkpt lat="43.3580857" lon="12.5513121"><ele>467.0</ele><time>2026-04-19T09:08:50.928Z</time></trkpt><trkpt lat="43.3583135" lon="12.5513529"><ele>467.0</ele><time>2026-04-19T09:08:51.928Z</time></trkpt><trkpt lat="43.3585404" lon="12.5514051"><ele>467.0</ele><time>2026-04-19T09:08:52.929Z</time></trkpt><trkpt lat="43.3587608" lon="12.5514731"><ele>467.5</ele><time>2026-04-19T09:08:53.929Z</time></trkpt><trkpt lat="43.3589776" lon="12.5515545"><ele>468.0</ele><time>2026-04-19T09:08:54.928Z</time></trkpt><trkpt lat="43.3591943" lon="12.5516545"><ele>468.0</ele><time>2026-04-19T09:08:55.928Z</time></trkpt><trkpt lat="43.3594097" lon="12.5517713"><ele>468.0</ele><time>2026-04-19T09:08:56.928Z</time></trkpt><trkpt lat="43.359623" lon="12.5519003"><ele>469.0</ele><time>2026-04-19T09:08:57.928Z</time></trkpt><trkpt lat="43.3598351" lon="12.5520404"><ele>470.0</ele><time>2026-04-19T09:08:58.929Z</time></trkpt><trkpt lat="43.360037" lon="12.5521967"><ele>470.0</ele><time>2026-04-19T09:08:59.928Z</time></trkpt><trkpt lat="43.3602299" lon="12.552349"><ele>470.0</ele><time>2026-04-19T09:09:00.927Z</time></trkpt><trkpt lat="43.3604085" lon="12.5524936"><ele>470.0</ele><time>2026-04-19T09:09:01.929Z</time></trkpt><trkpt lat="43.3605779" lon="12.5526291"><ele>471.3333333333333</ele><time>2026-04-19T09:09:02.928Z</time></trkpt><trkpt lat="43.3607318" lon="12.5527582"><ele>472.66666666666663</ele><time>2026-04-19T09:09:03.929Z</time></trkpt><trkpt lat="43.360864" lon="12.5528746"><ele>474.0</ele><time>2026-04-19T09:09:04.928Z</time></trkpt><trkpt lat="43.3609857" lon="12.5529823"><ele>474.0</ele><time>2026-04-19T09:09:05.929Z</time></trkpt><trkpt lat="43.3610906" lon="12.5530848"><ele>474.0</ele><time>2026-04-19T09:09:06.929Z</time></trkpt><trkpt lat="43.3611726" lon="12.5531949"><ele>474.0</ele><time>2026-04-19T09:09:07.929Z</time></trkpt><trkpt lat="43.3612292" lon="12.5533088"><ele>474.0</ele><time>2026-04-19T09:09:08.928Z</time></trkpt><trkpt lat="43.361271" lon="12.5534427"><ele>474.0</ele><time>2026-04-19T09:09:09.929Z</time></trkpt><trkpt lat="43.3613237" lon="12.5535638"><ele>474.4</ele><time>2026-04-19T09:09:10.929Z</time></trkpt><trkpt lat="43.3613873" lon="12.5536761"><ele>474.79999999999995</ele><time>2026-04-19T09:09:11.927Z</time></trkpt><trkpt lat="43.3614689" lon="12.5537685"><ele>475.20000000000005</ele><time>2026-04-19T09:09:12.928Z</time></trkpt><trkpt lat="43.3615588" lon="12.5538269"><ele>475.6</ele><time>2026-04-19T09:09:13.929Z</time></trkpt><trkpt lat="43.3616439" lon="12.5538649"><ele>476.0</ele><time>2026-04-19T09:09:14.928Z</time></trkpt><trkpt lat="43.3617468" lon="12.5538544"><ele>476.6</ele><time>2026-04-19T09:09:15.929Z</time></trkpt><trkpt lat="43.3618382" lon="12.5538245"><ele>477.20000000000005</ele><time>2026-04-19T09:09:16.927Z</time></trkpt><trkpt lat="43.3619449" lon="12.5537677"><ele>477.79999999999995</ele><time>2026-04-19T09:09:17.929Z</time></trkpt><trkpt lat="43.362054" lon="12.5537208"><ele>478.4</ele><time>2026-04-19T09:09:18.929Z</time></trkpt><trkpt lat="43.362168" lon="12.5537079"><ele>479.0</ele><time>2026-04-19T09:09:19.928Z</time></trkpt><trkpt lat="43.3622849" lon="12.5537393"><ele>479.25</ele><time>2026-04-19T09:09:20.929Z</time></trkpt><trkpt lat="43.3624085" lon="12.5538185"><ele>479.5</ele><time>2026-04-19T09:09:21.928Z</time></trkpt><trkpt lat="43.362545" lon="12.5539211"><ele>479.75</ele><time>2026-04-19T09:09:22.929Z</time></trkpt><trkpt lat="43.3626825" lon="12.5540167"><ele>480.0</ele><time>2026-04-19T09:09:23.928Z</time></trkpt><trkpt lat="43.3628349" lon="12.5541284"><ele>480.0</ele><time>2026-04-19T09:09:24.929Z</time></trkpt><trkpt lat="43.3630006" lon="12.5542511"><ele>480.0</ele><time>2026-04-19T09:09:25.927Z</time></trkpt><trkpt lat="43.3631711" lon="12.5543826"><ele>480.0</ele><time>2026-04-19T09:09:26.927Z</time></trkpt><trkpt lat="43.3633335" lon="12.5544987"><ele>481.33333333333337</ele><time>2026-04-19T09:09:27.929Z</time></trkpt><trkpt lat="43.3635035" lon="12.5546285"><ele>482.6666666666667</ele><time>2026-04-19T09:09:28.928Z</time></trkpt><trkpt lat="43.3636559" lon="12.5547647"><ele>484.0</ele><time>2026-04-19T09:09:29.928Z</time></trkpt><trkpt lat="43.3637955" lon="12.5549294"><ele>487.33333333333337</ele><time>2026-04-19T09:09:30.929Z</time></trkpt><trkpt lat="43.3639151" lon="12.5551282"><ele>490.66666666666663</ele><time>2026-04-19T09:09:31.928Z</time></trkpt><trkpt lat="43.3640132" lon="12.5553507"><ele>494.0</ele><time>2026-04-19T09:09:32.928Z</time></trkpt><trkpt lat="43.3640958" lon="12.5555807"><ele>494.0</ele><time>2026-04-19T09:09:33.927Z</time></trkpt><trkpt lat="43.3641812" lon="12.5557865"><ele>494.0</ele><time>2026-04-19T09:09:34.929Z</time></trkpt><trkpt lat="43.3642758" lon="12.5559738"><ele>494.0</ele><time>2026-04-19T09:09:35.929Z</time></trkpt><trkpt lat="43.3643965" lon="12.5561344"><ele>492.66666666666663</ele><time>2026-04-19T09:09:36.928Z</time></trkpt><trkpt lat="43.3645465" lon="12.5562767"><ele>491.33333333333337</ele><time>2026-04-19T09:09:37.928Z</time></trkpt><trkpt lat="43.3647069" lon="12.556411"><ele>490.0</ele><time>2026-04-19T09:09:38.928Z</time></trkpt><trkpt lat="43.3648615" lon="12.556563"><ele>491.6666666666667</ele><time>2026-04-19T09:09:39.927Z</time></trkpt><trkpt lat="43.364992" lon="12.556743"><ele>493.33333333333337</ele><time>2026-04-19T09:09:40.928Z</time></trkpt><trkpt lat="43.3651074" lon="12.5569324"><ele>495.0</ele><time>2026-04-19T09:09:41.929Z</time></trkpt><trkpt lat="43.3652316" lon="12.557102"><ele>495.0</ele><time>2026-04-19T09:09:42.929Z</time></trkpt><trkpt lat="43.3653793" lon="12.5572569"><ele>495.0</ele><time>2026-04-19T09:09:43.929Z</time></trkpt><trkpt lat="43.3655416" lon="12.5573991"><ele>495.0</ele><time>2026-04-19T09:09:44.928Z</time></trkpt><trkpt lat="43.3657165" lon="12.5575369"><ele>497.33333333333337</ele><time>2026-04-19T09:09:45.928Z</time></trkpt><trkpt lat="43.3658925" lon="12.5576743"><ele>499.6666666666667</ele><time>2026-04-19T09:09:46.927Z</time></trkpt><trkpt lat="43.3660529" lon="12.5578051"><ele>502.0</ele><time>2026-04-19T09:09:47.929Z</time></trkpt><trkpt lat="43.3662079" lon="12.5579194"><ele>502.0</ele><time>2026-04-19T09:09:48.929Z</time></trkpt><trkpt lat="43.366354" lon="12.55801"><ele>502.0</ele><time>2026-04-19T09:09:49.928Z</time></trkpt><trkpt lat="43.3665" lon="12.5580821"><ele>502.0</ele><time>2026-04-19T09:09:50.929Z</time></trkpt><trkpt lat="43.3666538" lon="12.558133"><ele>506.33333333333337</ele><time>2026-04-19T09:09:51.928Z</time></trkpt><trkpt lat="43.3668161" lon="12.5581548"><ele>510.66666666666663</ele><time>2026-04-19T09:09:52.928Z</time></trkpt><trkpt lat="43.3669813" lon="12.5581534"><ele>515.0</ele><time>2026-04-19T09:09:53.929Z</time></trkpt><trkpt lat="43.3671514" lon="12.5581244"><ele>514.3333333333333</ele><time>2026-04-19T09:09:54.929Z</time></trkpt><trkpt lat="43.3673322" lon="12.5580719"><ele>513.6666666666666</ele><time>2026-04-19T09:09:55.927Z</time></trkpt><trkpt lat="43.3675165" lon="12.5580168"><ele>513.0</ele><time>2026-04-19T09:09:56.927Z</time></trkpt><trkpt lat="43.3676994" lon="12.5579598"><ele>513.0</ele><time>2026-04-19T09:09:57.929Z</time></trkpt><trkpt lat="43.3678712" lon="12.5579104"><ele>513.0</ele><time>2026-04-19T09:09:58.927Z</time></trkpt><trkpt lat="43.3680329" lon="12.5578686"><ele>513.0</ele><time>2026-04-19T09:09:59.928Z</time></trkpt><trkpt lat="43.3682" lon="12.557835"><ele>513.0</ele><time>2026-04-19T09:10:00.929Z</time></trkpt><trkpt lat="43.3683761" lon="12.5578323"><ele>513.0</ele><time>2026-04-19T09:10:01.928Z</time></trkpt><trkpt lat="43.3685641" lon="12.557858"><ele>513.0</ele><time>2026-04-19T09:10:02.927Z</time></trkpt><trkpt lat="43.3687464" lon="12.5579007"><ele>518.0</ele><time>2026-04-19T09:10:03.927Z</time></trkpt><trkpt lat="43.3689235" lon="12.5579405"><ele>523.0</ele><time>2026-04-19T09:10:04.929Z</time></trkpt><trkpt lat="43.3690914" lon="12.5579831"><ele>528.0</ele><time>2026-04-19T09:10:05.929Z</time></trkpt><trkpt lat="43.3692539" lon="12.558012"><ele>528.0</ele><time>2026-04-19T09:10:06.928Z</time></trkpt><trkpt lat="43.3694191" lon="12.5580047"><ele>528.0</ele><time>2026-04-19T09:10:07.928Z</time></trkpt><trkpt lat="43.3695983" lon="12.5579624"><ele>528.0</ele><time>2026-04-19T09:10:08.929Z</time></trkpt><trkpt lat="43.3697864" lon="12.5579168"><ele>543.6666666666666</ele><time>2026-04-19T09:10:09.928Z</time></trkpt><trkpt lat="43.3699766" lon="12.5578674"><ele>559.3333333333333</ele><time>2026-04-19T09:10:10.928Z</time></trkpt><trkpt lat="43.3701633" lon="12.5578269"><ele>575.0</ele><time>2026-04-19T09:10:11.929Z</time></trkpt><trkpt lat="43.3703522" lon="12.55781"><ele>574.0</ele><time>2026-04-19T09:10:12.928Z</time></trkpt><trkpt lat="43.3705395" lon="12.5578219"><ele>573.0</ele><time>2026-04-19T09:10:13.929Z</time></trkpt><trkpt lat="43.3707294" lon="12.5578642"><ele>572.0</ele><time>2026-04-19T09:10:14.929Z</time></trkpt><trkpt lat="43.370904" lon="12.557916"><ele>555.6666666666666</ele><time>2026-04-19T09:10:15.928Z</time></trkpt><trkpt lat="43.3710835" lon="12.5579668"><ele>539.3333333333334</ele><time>2026-04-19T09:10:16.928Z</time></trkpt><trkpt lat="43.3712619" lon="12.558004"><ele>523.0</ele><time>2026-04-19T09:10:17.929Z</time></trkpt><trkpt lat="43.3714429" lon="12.5580321"><ele>523.0</ele><time>2026-04-19T09:10:18.929Z</time></trkpt><trkpt lat="43.3716364" lon="12.557998"><ele>523.0</ele><time>2026-04-19T09:10:19.928Z</time></trkpt><trkpt lat="43.3718301" lon="12.5579613"><ele>523.0</ele><time>2026-04-19T09:10:20.928Z</time></trkpt><trkpt lat="43.3720202" lon="12.5579318"><ele>527.6666666666667</ele><time>2026-04-19T09:10:21.929Z</time></trkpt><trkpt lat="43.372196" lon="12.5579254"><ele>532.3333333333334</ele><time>2026-04-19T09:10:22.928Z</time></trkpt><trkpt lat="43.3723733" lon="12.5579519"><ele>537.0</ele><time>2026-04-19T09:10:23.928Z</time></trkpt><trkpt lat="43.3725591" lon="12.5580067"><ele>537.0</ele><time>2026-04-19T09:10:24.928Z</time></trkpt><trkpt lat="43.372746" lon="12.5580792"><ele>537.0</ele><time>2026-04-19T09:10:25.928Z</time></trkpt><trkpt lat="43.3729512" lon="12.5581578"><ele>537.0</ele><time>2026-04-19T09:10:26.929Z</time></trkpt><trkpt lat="43.3731451" lon="12.5582295"><ele>544.3333333333334</ele><time>2026-04-19T09:10:27.927Z</time></trkpt><trkpt lat="43.3733265" lon="12.5582954"><ele>551.6666666666667</ele><time>2026-04-19T09:10:28.929Z</time></trkpt><trkpt lat="43.3735036" lon="12.558363"><ele>559.0</ele><time>2026-04-19T09:10:29.928Z</time></trkpt><trkpt lat="43.373677" lon="12.5584472"><ele>559.0</ele><time>2026-04-19T09:10:30.928Z</time></trkpt><trkpt lat="43.3738488" lon="12.5585476"><ele>559.0</ele><time>2026-04-19T09:10:31.929Z</time></trkpt><trkpt lat="43.3740291" lon="12.5586597"><ele>559.0</ele><time>2026-04-19T09:10:32.927Z</time></trkpt><trkpt lat="43.374211" lon="12.5587705"><ele>562.3333333333334</ele><time>2026-04-19T09:10:33.928Z</time></trkpt><trkpt lat="43.3743913" lon="12.5588752"><ele>565.6666666666666</ele><time>2026-04-19T09:10:34.929Z</time></trkpt><trkpt lat="43.3745808" lon="12.5589621"><ele>569.0</ele><time>2026-04-19T09:10:35.929Z</time></trkpt><trkpt lat="43.3747672" lon="12.5590425"><ele>569.0</ele><time>2026-04-19T09:10:36.929Z</time></trkpt><trkpt lat="43.3749409" lon="12.5591053"><ele>569.0</ele><time>2026-04-19T09:10:37.928Z</time></trkpt><trkpt lat="43.3751746" lon="12.5591468"><ele>569.0</ele><time>2026-04-19T09:10:38.928Z</time></trkpt><trkpt lat="43.3753654" lon="12.5592274"><ele>574.6666666666666</ele><time>2026-04-19T09:10:39.928Z</time></trkpt><trkpt lat="43.3755658" lon="12.5593152"><ele>580.3333333333334</ele><time>2026-04-19T09:10:40.926Z</time></trkpt><trkpt lat="43.3757521" lon="12.5594183"><ele>586.0</ele><time>2026-04-19T09:10:41.926Z</time></trkpt><trkpt lat="43.3759492" lon="12.5595531"><ele>581.0</ele><time>2026-04-19T09:10:42.926Z</time></trkpt><trkpt lat="43.3761377" lon="12.5596907"><ele>576.0</ele><time>2026-04-19T09:10:43.926Z</time></trkpt><trkpt lat="43.3763189" lon="12.5598136"><ele>571.0</ele><time>2026-04-19T09:10:44.926Z</time></trkpt><trkpt lat="43.3764931" lon="12.5599207"><ele>571.0</ele><time>2026-04-19T09:10:45.927Z</time></trkpt><trkpt lat="43.3766717" lon="12.5600335"><ele>571.0</ele><time>2026-04-19T09:10:46.926Z</time></trkpt><trkpt lat="43.3768551" lon="12.5601266"><ele>571.0</ele><time>2026-04-19T09:10:47.927Z</time></trkpt><trkpt lat="43.3770344" lon="12.5602069"><ele>566.0</ele><time>2026-04-19T09:10:48.926Z</time></trkpt><trkpt lat="43.3772169" lon="12.5602762"><ele>561.0</ele><time>2026-04-19T09:10:49.926Z</time></trkpt><trkpt lat="43.377394" lon="12.5603381"><ele>556.0</ele><time>2026-04-19T09:10:50.927Z</time></trkpt><trkpt lat="43.3775723" lon="12.5604031"><ele>556.0</ele><time>2026-04-19T09:10:51.926Z</time></trkpt><trkpt lat="43.3777548" lon="12.5604647"><ele>556.0</ele><time>2026-04-19T09:10:52.926Z</time></trkpt><trkpt lat="43.3779393" lon="12.5605522"><ele>556.0</ele><time>2026-04-19T09:10:53.926Z</time></trkpt><trkpt lat="43.3781149" lon="12.560671"><ele>565.6666666666667</ele><time>2026-04-19T09:10:54.926Z</time></trkpt><trkpt lat="43.3782811" lon="12.5608141"><ele>575.3333333333334</ele><time>2026-04-19T09:10:55.925Z</time></trkpt><trkpt lat="43.3784402" lon="12.5609655"><ele>585.0</ele><time>2026-04-19T09:10:56.926Z</time></trkpt><trkpt lat="43.3785922" lon="12.5611226"><ele>585.0</ele><time>2026-04-19T09:10:57.927Z</time></trkpt><trkpt lat="43.3787421" lon="12.5612751"><ele>585.0</ele><time>2026-04-19T09:10:58.927Z</time></trkpt><trkpt lat="43.3788921" lon="12.561425"><ele>585.0</ele><time>2026-04-19T09:10:59.927Z</time></trkpt><trkpt lat="43.3790459" lon="12.5615728"><ele>585.0</ele><time>2026-04-19T09:11:00.925Z</time></trkpt><trkpt lat="43.379212" lon="12.561709"><ele>585.0</ele><time>2026-04-19T09:11:01.925Z</time></trkpt><trkpt lat="43.3793766" lon="12.5618461"><ele>585.0</ele><time>2026-04-19T09:11:02.927Z</time></trkpt><trkpt lat="43.379543" lon="12.5619843"><ele>581.0</ele><time>2026-04-19T09:11:03.927Z</time></trkpt><trkpt lat="43.3797286" lon="12.5621153"><ele>577.0</ele><time>2026-04-19T09:11:04.927Z</time></trkpt><trkpt lat="43.3799146" lon="12.5622533"><ele>573.0</ele><time>2026-04-19T09:11:05.927Z</time></trkpt><trkpt lat="43.3800908" lon="12.5624027"><ele>573.0</ele><time>2026-04-19T09:11:06.926Z</time></trkpt><trkpt lat="43.3802702" lon="12.5625324"><ele>573.0</ele><time>2026-04-19T09:11:07.926Z</time></trkpt><trkpt lat="43.3804498" lon="12.5626386"><ele>573.0</ele><time>2026-04-19T09:11:08.926Z</time></trkpt><trkpt lat="43.3806346" lon="12.5627167"><ele>577.6666666666666</ele><time>2026-04-19T09:11:09.926Z</time></trkpt><trkpt lat="43.3808201" lon="12.5627735"><ele>582.3333333333333</ele><time>2026-04-19T09:11:10.926Z</time></trkpt><trkpt lat="43.3810037" lon="12.5628172"><ele>587.0</ele><time>2026-04-19T09:11:11.927Z</time></trkpt><trkpt lat="43.3811844" lon="12.5628605"><ele>585.6666666666666</ele><time>2026-04-19T09:11:12.926Z</time></trkpt><trkpt lat="43.3813569" lon="12.5629005"><ele>584.3333333333334</ele><time>2026-04-19T09:11:13.926Z</time></trkpt><trkpt lat="43.381525" lon="12.5629368"><ele>583.0</ele><time>2026-04-19T09:11:14.926Z</time></trkpt><trkpt lat="43.3816941" lon="12.5629679"><ele>583.0</ele><time>2026-04-19T09:11:15.926Z</time></trkpt><trkpt lat="43.3818719" lon="12.5629921"><ele>583.0</ele><time>2026-04-19T09:11:16.925Z</time></trkpt><trkpt lat="43.3820532" lon="12.5630362"><ele>583.0</ele><time>2026-04-19T09:11:17.926Z</time></trkpt><trkpt lat="43.3822247" lon="12.5630938"><ele>588.3333333333334</ele><time>2026-04-19T09:11:18.925Z</time></trkpt><trkpt lat="43.3823895" lon="12.5631705"><ele>593.6666666666666</ele><time>2026-04-19T09:11:19.926Z</time></trkpt><trkpt lat="43.3825494" lon="12.5632739"><ele>599.0</ele><time>2026-04-19T09:11:20.925Z</time></trkpt><trkpt lat="43.3827025" lon="12.563408"><ele>599.0</ele><time>2026-04-19T09:11:21.926Z</time></trkpt><trkpt lat="43.3828501" lon="12.5635563"><ele>599.0</ele><time>2026-04-19T09:11:22.925Z</time></trkpt><trkpt lat="43.3829794" lon="12.5637162"><ele>599.0</ele><time>2026-04-19T09:11:23.925Z</time></trkpt><trkpt lat="43.383093" lon="12.5638754"><ele>605.3333333333333</ele><time>2026-04-19T09:11:24.926Z</time></trkpt><trkpt lat="43.3831975" lon="12.5640279"><ele>611.6666666666666</ele><time>2026-04-19T09:11:25.927Z</time></trkpt><trkpt lat="43.3832992" lon="12.5641852"><ele>618.0</ele><time>2026-04-19T09:11:26.926Z</time></trkpt><trkpt lat="43.3834047" lon="12.5643462"><ele>618.0</ele><time>2026-04-19T09:11:27.927Z</time></trkpt><trkpt lat="43.3835179" lon="12.5645156"><ele>618.0</ele><time>2026-04-19T09:11:28.927Z</time></trkpt><trkpt lat="43.3836348" lon="12.5646915"><ele>618.0</ele><time>2026-04-19T09:11:29.927Z</time></trkpt><trkpt lat="43.3837561" lon="12.5648838"><ele>615.6666666666666</ele><time>2026-04-19T09:11:30.926Z</time></trkpt><trkpt lat="43.3838826" lon="12.5650882"><ele>613.3333333333333</ele><time>2026-04-19T09:11:31.926Z</time></trkpt><trkpt lat="43.3840118" lon="12.5652912"><ele>611.0</ele><time>2026-04-19T09:11:32.927Z</time></trkpt><trkpt lat="43.384131" lon="12.5654771"><ele>611.0</ele><time>2026-04-19T09:11:33.927Z</time></trkpt><trkpt lat="43.3842482" lon="12.5656549"><ele>611.0</ele><time>2026-04-19T09:11:34.926Z</time></trkpt><trkpt lat="43.384368" lon="12.5658325"><ele>611.0</ele><time>2026-04-19T09:11:35.927Z</time></trkpt><trkpt lat="43.3844845" lon="12.5660022"><ele>611.0</ele><time>2026-04-19T09:11:36.927Z</time></trkpt><trkpt lat="43.3846048" lon="12.5661659"><ele>611.0</ele><time>2026-04-19T09:11:37.927Z</time></trkpt><trkpt lat="43.3847262" lon="12.5663203"><ele>611.0</ele><time>2026-04-19T09:11:38.927Z</time></trkpt><trkpt lat="43.3848494" lon="12.5664673"><ele>614.6666666666666</ele><time>2026-04-19T09:11:39.927Z</time></trkpt><trkpt lat="43.3849727" lon="12.566611"><ele>618.3333333333334</ele><time>2026-04-19T09:11:40.927Z</time></trkpt><trkpt lat="43.3850963" lon="12.5667555"><ele>622.0</ele><time>2026-04-19T09:11:41.927Z</time></trkpt><trkpt lat="43.385226" lon="12.5669088"><ele>620.3333333333334</ele><time>2026-04-19T09:11:42.925Z</time></trkpt><trkpt lat="43.3853484" lon="12.5670807"><ele>618.6666666666666</ele><time>2026-04-19T09:11:43.925Z</time></trkpt><trkpt lat="43.3854654" lon="12.5672627"><ele>617.0</ele><time>2026-04-19T09:11:44.926Z</time></trkpt><trkpt lat="43.3855799" lon="12.5674389"><ele>619.6666666666666</ele><time>2026-04-19T09:11:45.927Z</time></trkpt><trkpt lat="43.3856885" lon="12.5676062"><ele>622.3333333333334</ele><time>2026-04-19T09:11:46.926Z</time></trkpt><trkpt lat="43.3857933" lon="12.5677653"><ele>625.0</ele><time>2026-04-19T09:11:47.927Z</time></trkpt><trkpt lat="43.38589" lon="12.5679109"><ele>625.0</ele><time>2026-04-19T09:11:48.927Z</time></trkpt><trkpt lat="43.3859847" lon="12.5680537"><ele>625.0</ele><time>2026-04-19T09:11:49.926Z</time></trkpt><trkpt lat="43.3860778" lon="12.5681875"><ele>625.0</ele><time>2026-04-19T09:11:50.926Z</time></trkpt><trkpt lat="43.3861753" lon="12.5683197"><ele>625.0</ele><time>2026-04-19T09:11:51.927Z</time></trkpt><trkpt lat="43.3862974" lon="12.5684257"><ele>633.3333333333334</ele><time>2026-04-19T09:11:52.927Z</time></trkpt><trkpt lat="43.3864371" lon="12.5685115"><ele>641.6666666666666</ele><time>2026-04-19T09:11:53.926Z</time></trkpt><trkpt lat="43.3865862" lon="12.5685619"><ele>650.0</ele><time>2026-04-19T09:11:54.926Z</time></trkpt><trkpt lat="43.3867435" lon="12.5685843"><ele>650.0</ele><time>2026-04-19T09:11:55.925Z</time></trkpt><trkpt lat="43.386892" lon="12.5685733"><ele>650.0</ele><time>2026-04-19T09:11:56.926Z</time></trkpt><trkpt lat="43.3870224" lon="12.5685331"><ele>650.0</ele><time>2026-04-19T09:11:57.925Z</time></trkpt><trkpt lat="43.3871495" lon="12.5684905"><ele>650.0</ele><time>2026-04-19T09:11:58.925Z</time></trkpt><trkpt lat="43.3872703" lon="12.5684805"><ele>651.75</ele><time>2026-04-19T09:11:59.926Z</time></trkpt><trkpt lat="43.3873936" lon="12.5685036"><ele>653.5</ele><time>2026-04-19T09:12:00.926Z</time></trkpt><trkpt lat="43.387512" lon="12.5685623"><ele>655.25</ele><time>2026-04-19T09:12:01.927Z</time></trkpt><trkpt lat="43.3876199" lon="12.568659"><ele>657.0</ele><time>2026-04-19T09:12:02.926Z</time></trkpt><trkpt lat="43.3877135" lon="12.5687943"><ele>653.0</ele><time>2026-04-19T09:12:03.926Z</time></trkpt><trkpt lat="43.3877937" lon="12.5689496"><ele>649.0</ele><time>2026-04-19T09:12:04.927Z</time></trkpt><trkpt lat="43.3878774" lon="12.5691289"><ele>645.0</ele><time>2026-04-19T09:12:05.925Z</time></trkpt><trkpt lat="43.3879597" lon="12.5693096"><ele>641.0</ele><time>2026-04-19T09:12:06.927Z</time></trkpt><trkpt lat="43.3880362" lon="12.5694859"><ele>643.25</ele><time>2026-04-19T09:12:07.926Z</time></trkpt><trkpt lat="43.3881112" lon="12.5696607"><ele>645.5</ele><time>2026-04-19T09:12:08.926Z</time></trkpt><trkpt lat="43.3881895" lon="12.5698375"><ele>647.75</ele><time>2026-04-19T09:12:09.927Z</time></trkpt><trkpt lat="43.3882669" lon="12.570015"><ele>650.0</ele><time>2026-04-19T09:12:10.925Z</time></trkpt><trkpt lat="43.3883459" lon="12.5701966"><ele>651.0</ele><time>2026-04-19T09:12:11.926Z</time></trkpt><trkpt lat="43.3884227" lon="12.5703755"><ele>652.0</ele><time>2026-04-19T09:12:12.926Z</time></trkpt><trkpt lat="43.388507" lon="12.5705617"><ele>653.0</ele><time>2026-04-19T09:12:13.925Z</time></trkpt><trkpt lat="43.3885909" lon="12.5707542"><ele>653.0</ele><time>2026-04-19T09:12:14.927Z</time></trkpt><trkpt lat="43.388678" lon="12.5709485"><ele>653.0</ele><time>2026-04-19T09:12:15.926Z</time></trkpt><trkpt lat="43.3887648" lon="12.5711414"><ele>653.0</ele><time>2026-04-19T09:12:16.927Z</time></trkpt><trkpt lat="43.398682" lon="12.5762155"><ele>653.6666666666666</ele><time>2026-04-19T09:13:14.926Z</time></trkpt><trkpt lat="43.3987944" lon="12.5763924"><ele>654.3333333333334</ele><time>2026-04-19T09:13:15.926Z</time></trkpt><trkpt lat="43.3989128" lon="12.5766004"><ele>655.0</ele><time>2026-04-19T09:13:16.924Z</time></trkpt><trkpt lat="43.3990261" lon="12.5767996"><ele>653.0</ele><time>2026-04-19T09:13:17.926Z</time></trkpt><trkpt lat="43.3991399" lon="12.576988"><ele>651.0</ele><time>2026-04-19T09:13:18.926Z</time></trkpt><trkpt lat="43.3992735" lon="12.5771434"><ele>649.0</ele><time>2026-04-19T09:13:19.925Z</time></trkpt><trkpt lat="43.3994161" lon="12.577291"><ele>645.0</ele><time>2026-04-19T09:13:20.926Z</time></trkpt><trkpt lat="43.3995666" lon="12.5774339"><ele>641.0</ele><time>2026-04-19T09:13:21.925Z</time></trkpt><trkpt lat="43.3997435" lon="12.5775652"><ele>637.0</ele><time>2026-04-19T09:13:22.926Z</time></trkpt><trkpt lat="43.399934" lon="12.5776944"><ele>637.0</ele><time>2026-04-19T09:13:23.925Z</time></trkpt><trkpt lat="43.4001311" lon="12.5778071"><ele>637.0</ele><time>2026-04-19T09:13:24.926Z</time></trkpt><trkpt lat="43.4003215" lon="12.5779112"><ele>637.0</ele><time>2026-04-19T09:13:25.926Z</time></trkpt><trkpt lat="43.4005187" lon="12.5780099"><ele>632.3333333333334</ele><time>2026-04-19T09:13:26.926Z</time></trkpt><trkpt lat="43.4007265" lon="12.5781015"><ele>627.6666666666666</ele><time>2026-04-19T09:13:27.926Z</time></trkpt><trkpt lat="43.4009292" lon="12.5781823"><ele>623.0</ele><time>2026-04-19T09:13:28.926Z</time></trkpt><trkpt lat="43.4011347" lon="12.5782484"><ele>623.0</ele><time>2026-04-19T09:13:29.925Z</time></trkpt><trkpt lat="43.4013286" lon="12.5783103"><ele>623.0</ele><time>2026-04-19T09:13:30.926Z</time></trkpt><trkpt lat="43.4015163" lon="12.5783589"><ele>623.0</ele><time>2026-04-19T09:13:31.926Z</time></trkpt><trkpt lat="43.4016969" lon="12.5783921"><ele>623.6666666666666</ele><time>2026-04-19T09:13:32.924Z</time></trkpt><trkpt lat="43.4018763" lon="12.5783929"><ele>624.3333333333334</ele><time>2026-04-19T09:13:33.925Z</time></trkpt><trkpt lat="43.4020727" lon="12.5783542"><ele>625.0</ele><time>2026-04-19T09:13:34.925Z</time></trkpt><trkpt lat="43.4022793" lon="12.5782978"><ele>619.6666666666667</ele><time>2026-04-19T09:13:35.924Z</time></trkpt><trkpt lat="43.402501" lon="12.5782484"><ele>614.3333333333334</ele><time>2026-04-19T09:13:36.926Z</time></trkpt><trkpt lat="43.4027189" lon="12.578206"><ele>609.0</ele><time>2026-04-19T09:13:37.925Z</time></trkpt><trkpt lat="43.4029298" lon="12.5781684"><ele>604.0</ele><time>2026-04-19T09:13:38.925Z</time></trkpt><trkpt lat="43.4031397" lon="12.5781352"><ele>599.0</ele><time>2026-04-19T09:13:39.924Z</time></trkpt><trkpt lat="43.4033451" lon="12.5781149"><ele>594.0</ele><time>2026-04-19T09:13:40.926Z</time></trkpt><trkpt lat="43.4035456" lon="12.5781128"><ele>594.0</ele><time>2026-04-19T09:13:41.926Z</time></trkpt><trkpt lat="43.4037601" lon="12.5781401"><ele>594.0</ele><time>2026-04-19T09:13:42.925Z</time></trkpt><trkpt lat="43.403978" lon="12.578204"><ele>594.0</ele><time>2026-04-19T09:13:43.924Z</time></trkpt><trkpt lat="43.4042026" lon="12.5782718"><ele>594.5</ele><time>2026-04-19T09:13:44.925Z</time></trkpt><trkpt lat="43.4044412" lon="12.578354"><ele>595.0</ele><time>2026-04-19T09:13:45.925Z</time></trkpt><trkpt lat="43.4046743" lon="12.5784414"><ele>598.0</ele><time>2026-04-19T09:13:46.925Z</time></trkpt><trkpt lat="43.404903" lon="12.5785298"><ele>601.0</ele><time>2026-04-19T09:13:47.925Z</time></trkpt><trkpt lat="43.4051515" lon="12.5786126"><ele>587.5</ele><time>2026-04-19T09:13:48.925Z</time></trkpt><trkpt lat="43.4053883" lon="12.5786948"><ele>574.0</ele><time>2026-04-19T09:13:49.924Z</time></trkpt><trkpt lat="43.4056213" lon="12.5787768"><ele>574.0</ele><time>2026-04-19T09:13:50.925Z</time></trkpt><trkpt lat="43.4058462" lon="12.5788623"><ele>574.0</ele><time>2026-04-19T09:13:51.924Z</time></trkpt><trkpt lat="43.4060641" lon="12.5789507"><ele>574.0</ele><time>2026-04-19T09:13:52.926Z</time></trkpt><trkpt lat="43.4062764" lon="12.5790401"><ele>574.0</ele><time>2026-04-19T09:13:53.925Z</time></trkpt><trkpt lat="43.4064821" lon="12.5791367"><ele>574.0</ele><time>2026-04-19T09:13:54.926Z</time></trkpt><trkpt lat="43.4066781" lon="12.5792446"><ele>574.3333333333334</ele><time>2026-04-19T09:13:55.926Z</time></trkpt><trkpt lat="43.406871" lon="12.5794071"><ele>574.6666666666666</ele><time>2026-04-19T09:13:56.925Z</time></trkpt><trkpt lat="43.4070524" lon="12.5795657"><ele>575.0</ele><time>2026-04-19T09:13:57.926Z</time></trkpt><trkpt lat="43.4072375" lon="12.5797247"><ele>571.3333333333333</ele><time>2026-04-19T09:13:58.926Z</time></trkpt><trkpt lat="43.4074044" lon="12.5798888"><ele>567.6666666666666</ele><time>2026-04-19T09:13:59.925Z</time></trkpt><trkpt lat="43.4075792" lon="12.5800317"><ele>564.0</ele><time>2026-04-19T09:14:00.926Z</time></trkpt><trkpt lat="43.4077503" lon="12.5801485"><ele>564.0</ele><time>2026-04-19T09:14:01.925Z</time></trkpt><trkpt lat="43.4079291" lon="12.5802272"><ele>564.0</ele><time>2026-04-19T09:14:02.925Z</time></trkpt><trkpt lat="43.4081078" lon="12.5802751"><ele>564.0</ele><time>2026-04-19T09:14:03.924Z</time></trkpt><trkpt lat="43.4083125" lon="12.5803031"><ele>569.0</ele><time>2026-04-19T09:14:04.925Z</time></trkpt><trkpt lat="43.4085163" lon="12.5803463"><ele>574.0</ele><time>2026-04-19T09:14:05.926Z</time></trkpt><trkpt lat="43.4087131" lon="12.5803962"><ele>579.0</ele><time>2026-04-19T09:14:06.926Z</time></trkpt><trkpt lat="43.4089033" lon="12.5804552"><ele>566.6666666666666</ele><time>2026-04-19T09:14:07.926Z</time></trkpt><trkpt lat="43.4090944" lon="12.5805192"><ele>554.3333333333333</ele><time>2026-04-19T09:14:08.926Z</time></trkpt><trkpt lat="43.4092695" lon="12.5805703"><ele>542.0</ele><time>2026-04-19T09:14:09.925Z</time></trkpt><trkpt lat="43.409468" lon="12.5805782"><ele>540.6666666666666</ele><time>2026-04-19T09:14:10.924Z</time></trkpt><trkpt lat="43.4096691" lon="12.5805917"><ele>539.3333333333334</ele><time>2026-04-19T09:14:11.925Z</time></trkpt><trkpt lat="43.4098797" lon="12.580626"><ele>538.0</ele><time>2026-04-19T09:14:12.926Z</time></trkpt><trkpt lat="43.4100918" lon="12.5806866"><ele>538.0</ele><time>2026-04-19T09:14:13.926Z</time></trkpt><trkpt lat="43.4102948" lon="12.5807683"><ele>538.0</ele><time>2026-04-19T09:14:14.924Z</time></trkpt><trkpt lat="43.4104969" lon="12.5808718"><ele>538.0</ele><time>2026-04-19T09:14:15.924Z</time></trkpt><trkpt lat="43.4106976" lon="12.5810185"><ele>541.0</ele><time>2026-04-19T09:14:16.926Z</time></trkpt><trkpt lat="43.4109039" lon="12.581167"><ele>544.0</ele><time>2026-04-19T09:14:17.925Z</time></trkpt><trkpt lat="43.411111" lon="12.5813582"><ele>535.5</ele><time>2026-04-19T09:14:18.926Z</time></trkpt><trkpt lat="43.4113203" lon="12.5815333"><ele>527.0</ele><time>2026-04-19T09:14:19.925Z</time></trkpt><trkpt lat="43.4115312" lon="12.5817115"><ele>526.0</ele><time>2026-04-19T09:14:20.924Z</time></trkpt><trkpt lat="43.4117337" lon="12.5818857"><ele>525.0</ele><time>2026-04-19T09:14:21.926Z</time></trkpt><trkpt lat="43.4119353" lon="12.5820653"><ele>521.5</ele><time>2026-04-19T09:14:22.925Z</time></trkpt><trkpt lat="43.4121314" lon="12.5822492"><ele>518.0</ele><time>2026-04-19T09:14:23.925Z</time></trkpt><trkpt lat="43.4123191" lon="12.5824268"><ele>518.0</ele><time>2026-04-19T09:14:24.924Z</time></trkpt><trkpt lat="43.412508" lon="12.5825981"><ele>518.0</ele><time>2026-04-19T09:14:25.925Z</time></trkpt><trkpt lat="43.4127003" lon="12.5827736"><ele>518.5</ele><time>2026-04-19T09:14:26.926Z</time></trkpt><trkpt lat="43.4128951" lon="12.5829505"><ele>519.0</ele><time>2026-04-19T09:14:27.926Z</time></trkpt><trkpt lat="43.4130931" lon="12.5831314"><ele>519.0</ele><time>2026-04-19T09:14:28.925Z</time></trkpt><trkpt lat="43.4132883" lon="12.5833156"><ele>519.0</ele><time>2026-04-19T09:14:29.925Z</time></trkpt><trkpt lat="43.4134809" lon="12.5834987"><ele>519.0</ele><time>2026-04-19T09:14:30.925Z</time></trkpt><trkpt lat="43.4136748" lon="12.5836796"><ele>519.0</ele><time>2026-04-19T09:14:31.926Z</time></trkpt><trkpt lat="43.4138672" lon="12.5838614"><ele>515.0</ele><time>2026-04-19T09:14:32.926Z</time></trkpt><trkpt lat="43.4140616" lon="12.5840416"><ele>511.0</ele><time>2026-04-19T09:14:33.926Z</time></trkpt><trkpt lat="43.4142568" lon="12.5842231"><ele>511.0</ele><time>2026-04-19T09:14:34.925Z</time></trkpt><trkpt lat="43.4144549" lon="12.5844032"><ele>511.0</ele><time>2026-04-19T09:14:35.926Z</time></trkpt><trkpt lat="43.4146535" lon="12.5845852"><ele>510.0</ele><time>2026-04-19T09:14:36.925Z</time></trkpt><trkpt lat="43.4148527" lon="12.5847614"><ele>509.0</ele><time>2026-04-19T09:14:37.926Z</time></trkpt><trkpt lat="43.4150529" lon="12.5849359"><ele>509.0</ele><time>2026-04-19T09:14:38.926Z</time></trkpt><trkpt lat="43.4152555" lon="12.5850965"><ele>509.0</ele><time>2026-04-19T09:14:39.926Z</time></trkpt><trkpt lat="43.41546" lon="12.5852407"><ele>507.3333333333333</ele><time>2026-04-19T09:14:40.926Z</time></trkpt><trkpt lat="43.4156614" lon="12.5853657"><ele>505.66666666666663</ele><time>2026-04-19T09:14:41.926Z</time></trkpt><trkpt lat="43.4158553" lon="12.585479"><ele>504.0</ele><time>2026-04-19T09:14:42.926Z</time></trkpt><trkpt lat="43.4160269" lon="12.5855824"><ele>504.0</ele><time>2026-04-19T09:14:43.926Z</time></trkpt><trkpt lat="43.4161833" lon="12.5856848"><ele>504.0</ele><time>2026-04-19T09:14:44.926Z</time></trkpt><trkpt lat="43.4163325" lon="12.5857815"><ele>504.0</ele><time>2026-04-19T09:14:45.926Z</time></trkpt><trkpt lat="43.4164813" lon="12.5858735"><ele>505.0</ele><time>2026-04-19T09:14:46.926Z</time></trkpt><trkpt lat="43.416624" lon="12.5859598"><ele>506.0</ele><time>2026-04-19T09:14:47.926Z</time></trkpt><trkpt lat="43.4167621" lon="12.5860466"><ele>507.0</ele><time>2026-04-19T09:14:48.926Z</time></trkpt><trkpt lat="43.4168927" lon="12.5861314"><ele>504.5</ele><time>2026-04-19T09:14:49.924Z</time></trkpt><trkpt lat="43.4170202" lon="12.58621"><ele>502.0</ele><time>2026-04-19T09:14:50.926Z</time></trkpt><trkpt lat="43.4171413" lon="12.586279"><ele>499.5</ele><time>2026-04-19T09:14:51.926Z</time></trkpt><trkpt lat="43.4172632" lon="12.5863509"><ele>497.0</ele><time>2026-04-19T09:14:52.926Z</time></trkpt><trkpt lat="43.4173878" lon="12.5864234"><ele>497.0</ele><time>2026-04-19T09:14:53.926Z</time></trkpt><trkpt lat="43.4175113" lon="12.5864951"><ele>497.0</ele><time>2026-04-19T09:14:54.926Z</time></trkpt><trkpt lat="43.4176387" lon="12.5865705"><ele>497.0</ele><time>2026-04-19T09:14:55.924Z</time></trkpt><trkpt lat="43.4177639" lon="12.5866552"><ele>497.0</ele><time>2026-04-19T09:14:56.925Z</time></trkpt><trkpt lat="43.4178908" lon="12.5867556"><ele>496.66666666666663</ele><time>2026-04-19T09:14:57.925Z</time></trkpt><trkpt lat="43.4180279" lon="12.5868752"><ele>496.33333333333337</ele><time>2026-04-19T09:14:58.925Z</time></trkpt><trkpt lat="43.4181647" lon="12.5870231"><ele>496.0</ele><time>2026-04-19T09:14:59.924Z</time></trkpt><trkpt lat="43.4183088" lon="12.5871982"><ele>496.0</ele><time>2026-04-19T09:15:00.925Z</time></trkpt><trkpt lat="43.4184523" lon="12.5873984"><ele>496.0</ele><time>2026-04-19T09:15:01.925Z</time></trkpt><trkpt lat="43.4186028" lon="12.5876048"><ele>496.0</ele><time>2026-04-19T09:15:02.926Z</time></trkpt><trkpt lat="43.4187511" lon="12.5878071"><ele>494.5</ele><time>2026-04-19T09:15:03.926Z</time></trkpt><trkpt lat="43.4189076" lon="12.5880174"><ele>493.0</ele><time>2026-04-19T09:15:04.924Z</time></trkpt><trkpt lat="43.4190725" lon="12.5882423"><ele>493.0</ele><time>2026-04-19T09:15:05.925Z</time></trkpt><trkpt lat="43.4192384" lon="12.5884671"><ele>493.0</ele><time>2026-04-19T09:15:06.924Z</time></trkpt><trkpt lat="43.4194048" lon="12.5887002"><ele>491.6666666666667</ele><time>2026-04-19T09:15:07.925Z</time></trkpt><trkpt lat="43.4195605" lon="12.5889216"><ele>490.33333333333337</ele><time>2026-04-19T09:15:08.926Z</time></trkpt><trkpt lat="43.4197108" lon="12.589138"><ele>489.0</ele><time>2026-04-19T09:15:09.925Z</time></trkpt><trkpt lat="43.4198553" lon="12.5893636"><ele>490.0</ele><time>2026-04-19T09:15:10.925Z</time></trkpt><trkpt lat="43.4199863" lon="12.589597"><ele>491.0</ele><time>2026-04-19T09:15:11.925Z</time></trkpt><trkpt lat="43.4201054" lon="12.5898314"><ele>492.0</ele><time>2026-04-19T09:15:12.924Z</time></trkpt><trkpt lat="43.4202129" lon="12.5900818"><ele>492.0</ele><time>2026-04-19T09:15:13.924Z</time></trkpt><trkpt lat="43.4203072" lon="12.5903311"><ele>492.0</ele><time>2026-04-19T09:15:14.925Z</time></trkpt><trkpt lat="43.4204072" lon="12.590561"><ele>492.0</ele><time>2026-04-19T09:15:15.925Z</time></trkpt><trkpt lat="43.4205143" lon="12.5907856"><ele>492.0</ele><time>2026-04-19T09:15:16.926Z</time></trkpt><trkpt lat="43.4206279" lon="12.5910017"><ele>492.0</ele><time>2026-04-19T09:15:17.925Z</time></trkpt><trkpt lat="43.4207472" lon="12.5912057"><ele>492.0</ele><time>2026-04-19T09:15:18.926Z</time></trkpt><trkpt lat="43.4208661" lon="12.5913998"><ele>492.0</ele><time>2026-04-19T09:15:19.926Z</time></trkpt><trkpt lat="43.4209858" lon="12.5915894"><ele>492.0</ele><time>2026-04-19T09:15:20.925Z</time></trkpt><trkpt lat="43.4211065" lon="12.5917826"><ele>492.0</ele><time>2026-04-19T09:15:21.926Z</time></trkpt><trkpt lat="43.4212328" lon="12.5919814"><ele>493.0</ele><time>2026-04-19T09:15:22.925Z</time></trkpt><trkpt lat="43.4213588" lon="12.5921717"><ele>494.0</ele><time>2026-04-19T09:15:23.926Z</time></trkpt><trkpt lat="43.4214916" lon="12.592361"><ele>495.0</ele><time>2026-04-19T09:15:24.925Z</time></trkpt><trkpt lat="43.4216233" lon="12.5925497"><ele>495.0</ele><time>2026-04-19T09:15:25.926Z</time></trkpt><trkpt lat="43.4217546" lon="12.5927307"><ele>495.0</ele><time>2026-04-19T09:15:26.924Z</time></trkpt><trkpt lat="43.4218831" lon="12.5929064"><ele>495.0</ele><time>2026-04-19T09:15:27.925Z</time></trkpt><trkpt lat="43.4220122" lon="12.5930745"><ele>489.33333333333337</ele><time>2026-04-19T09:15:28.926Z</time></trkpt><trkpt lat="43.4221427" lon="12.5932331"><ele>483.6666666666667</ele><time>2026-04-19T09:15:29.925Z</time></trkpt><trkpt lat="43.4222727" lon="12.5933884"><ele>478.0</ele><time>2026-04-19T09:15:30.926Z</time></trkpt><trkpt lat="43.4224076" lon="12.5935464"><ele>476.33333333333337</ele><time>2026-04-19T09:15:31.925Z</time></trkpt><trkpt lat="43.4225443" lon="12.5937112"><ele>474.66666666666663</ele><time>2026-04-19T09:15:32.924Z</time></trkpt><trkpt lat="43.4226817" lon="12.5938891"><ele>473.0</ele><time>2026-04-19T09:15:33.923Z</time></trkpt><trkpt lat="43.4228048" lon="12.5940815"><ele>473.0</ele><time>2026-04-19T09:15:34.924Z</time></trkpt><trkpt lat="43.4229221" lon="12.5943084"><ele>473.0</ele><time>2026-04-19T09:15:35.925Z</time></trkpt><trkpt lat="43.4230275" lon="12.594553"><ele>473.0</ele><time>2026-04-19T09:15:36.925Z</time></trkpt><trkpt lat="43.4231196" lon="12.5947935"><ele>473.3333333333333</ele><time>2026-04-19T09:15:37.923Z</time></trkpt><trkpt lat="43.4232074" lon="12.5950332"><ele>473.66666666666663</ele><time>2026-04-19T09:15:38.924Z</time></trkpt><trkpt lat="43.4232877" lon="12.5952771"><ele>474.0</ele><time>2026-04-19T09:15:39.925Z</time></trkpt><trkpt lat="43.4233708" lon="12.5955215"><ele>472.66666666666663</ele><time>2026-04-19T09:15:40.924Z</time></trkpt><trkpt lat="43.4234544" lon="12.5957644"><ele>471.3333333333333</ele><time>2026-04-19T09:15:41.924Z</time></trkpt><trkpt lat="43.4235372" lon="12.5960053"><ele>470.0</ele><time>2026-04-19T09:15:42.923Z</time></trkpt><trkpt lat="43.4236132" lon="12.5962475"><ele>469.3333333333333</ele><time>2026-04-19T09:15:43.924Z</time></trkpt><trkpt lat="43.4236857" lon="12.5964855"><ele>468.66666666666663</ele><time>2026-04-19T09:15:44.924Z</time></trkpt><trkpt lat="43.4237585" lon="12.5967139"><ele>468.0</ele><time>2026-04-19T09:15:45.924Z</time></trkpt><trkpt lat="43.4238401" lon="12.5969435"><ele>468.66666666666663</ele><time>2026-04-19T09:15:46.924Z</time></trkpt><trkpt lat="43.4239234" lon="12.5971773"><ele>469.3333333333333</ele><time>2026-04-19T09:15:47.925Z</time></trkpt><trkpt lat="43.4239986" lon="12.5974052"><ele>470.0</ele><time>2026-04-19T09:15:48.924Z</time></trkpt><trkpt lat="43.4240711" lon="12.5976238"><ele>469.0</ele><time>2026-04-19T09:15:49.924Z</time></trkpt><trkpt lat="43.4241481" lon="12.5978524"><ele>468.0</ele><time>2026-04-19T09:15:50.923Z</time></trkpt><trkpt lat="43.4242264" lon="12.59808"><ele>467.0</ele><time>2026-04-19T09:15:51.923Z</time></trkpt><trkpt lat="43.4242973" lon="12.5983"><ele>467.0</ele><time>2026-04-19T09:15:52.923Z</time></trkpt><trkpt lat="43.424367" lon="12.5985241"><ele>467.0</ele><time>2026-04-19T09:15:53.923Z</time></trkpt><trkpt lat="43.4244399" lon="12.5987451"><ele>467.0</ele><time>2026-04-19T09:15:54.924Z</time></trkpt><trkpt lat="43.4245126" lon="12.5989726"><ele>467.0</ele><time>2026-04-19T09:15:55.924Z</time></trkpt><trkpt lat="43.4245915" lon="12.5992023"><ele>467.0</ele><time>2026-04-19T09:15:56.924Z</time></trkpt><trkpt lat="43.4246735" lon="12.5994334"><ele>467.0</ele><time>2026-04-19T09:15:57.925Z</time></trkpt><trkpt lat="43.4247562" lon="12.5996723"><ele>467.3333333333333</ele><time>2026-04-19T09:15:58.924Z</time></trkpt><trkpt lat="43.4248362" lon="12.5999204"><ele>467.66666666666663</ele><time>2026-04-19T09:15:59.924Z</time></trkpt><trkpt lat="43.4249199" lon="12.6001761"><ele>468.0</ele><time>2026-04-19T09:16:00.924Z</time></trkpt><trkpt lat="43.4250083" lon="12.6004391"><ele>466.0</ele><time>2026-04-19T09:16:01.924Z</time></trkpt><trkpt lat="43.4250996" lon="12.6007148"><ele>464.0</ele><time>2026-04-19T09:16:02.924Z</time></trkpt><trkpt lat="43.4251904" lon="12.6009977"><ele>462.0</ele><time>2026-04-19T09:16:03.924Z</time></trkpt><trkpt lat="43.4252787" lon="12.6012788"><ele>462.0</ele><time>2026-04-19T09:16:04.923Z</time></trkpt><trkpt lat="43.4253605" lon="12.6015436"><ele>462.0</ele><time>2026-04-19T09:16:05.924Z</time></trkpt><trkpt lat="43.4254391" lon="12.6017945"><ele>462.0</ele><time>2026-04-19T09:16:06.923Z</time></trkpt><trkpt lat="43.4255266" lon="12.6020456"><ele>464.0</ele><time>2026-04-19T09:16:07.925Z</time></trkpt><trkpt lat="43.4256111" lon="12.6023055"><ele>466.0</ele><time>2026-04-19T09:16:08.924Z</time></trkpt><trkpt lat="43.4257003" lon="12.6025619"><ele>468.0</ele><time>2026-04-19T09:16:09.925Z</time></trkpt><trkpt lat="43.4257857" lon="12.6028178"><ele>466.66666666666663</ele><time>2026-04-19T09:16:10.923Z</time></trkpt><trkpt lat="43.4258698" lon="12.6030717"><ele>465.3333333333333</ele><time>2026-04-19T09:16:11.924Z</time></trkpt><trkpt lat="43.4259477" lon="12.6033103"><ele>464.0</ele><time>2026-04-19T09:16:12.923Z</time></trkpt><trkpt lat="43.4260238" lon="12.6035395"><ele>464.0</ele><time>2026-04-19T09:16:13.924Z</time></trkpt><trkpt lat="43.4261035" lon="12.603757"><ele>464.0</ele><time>2026-04-19T09:16:14.925Z</time></trkpt><trkpt lat="43.4261929" lon="12.603969"><ele>464.0</ele><time>2026-04-19T09:16:15.925Z</time></trkpt><trkpt lat="43.4263133" lon="12.6041797"><ele>464.0</ele><time>2026-04-19T09:16:16.925Z</time></trkpt><trkpt lat="43.4264422" lon="12.6043719"><ele>464.0</ele><time>2026-04-19T09:16:17.925Z</time></trkpt><trkpt lat="43.4265746" lon="12.6045877"><ele>464.0</ele><time>2026-04-19T09:16:18.925Z</time></trkpt><trkpt lat="43.4267112" lon="12.6047452"><ele>467.0</ele><time>2026-04-19T09:16:19.924Z</time></trkpt><trkpt lat="43.4268433" lon="12.6049184"><ele>470.0</ele><time>2026-04-19T09:16:20.925Z</time></trkpt><trkpt lat="43.4269816" lon="12.6050759"><ele>473.0</ele><time>2026-04-19T09:16:21.923Z</time></trkpt><trkpt lat="43.4271172" lon="12.605248"><ele>472.3333333333333</ele><time>2026-04-19T09:16:22.923Z</time></trkpt><trkpt lat="43.4272537" lon="12.6054302"><ele>471.66666666666663</ele><time>2026-04-19T09:16:23.925Z</time></trkpt><trkpt lat="43.4273893" lon="12.6056118"><ele>471.0</ele><time>2026-04-19T09:16:24.925Z</time></trkpt><trkpt lat="43.4275255" lon="12.6057949"><ele>471.0</ele><time>2026-04-19T09:16:25.925Z</time></trkpt><trkpt lat="43.4276588" lon="12.6059951"><ele>471.0</ele><time>2026-04-19T09:16:26.924Z</time></trkpt><trkpt lat="43.4277873" lon="12.6062045"><ele>471.0</ele><time>2026-04-19T09:16:27.924Z</time></trkpt><trkpt lat="43.4279096" lon="12.606409"><ele>468.33333333333337</ele><time>2026-04-19T09:16:28.924Z</time></trkpt><trkpt lat="43.4280373" lon="12.6066138"><ele>465.6666666666667</ele><time>2026-04-19T09:16:29.924Z</time></trkpt><trkpt lat="43.4281655" lon="12.6068185"><ele>463.0</ele><time>2026-04-19T09:16:30.925Z</time></trkpt><trkpt lat="43.4283004" lon="12.6070098"><ele>469.6666666666667</ele><time>2026-04-19T09:16:31.924Z</time></trkpt><trkpt lat="43.4284385" lon="12.6071677"><ele>476.33333333333337</ele><time>2026-04-19T09:16:32.923Z</time></trkpt><trkpt lat="43.4285701" lon="12.6073309"><ele>483.0</ele><time>2026-04-19T09:16:33.924Z</time></trkpt><trkpt lat="43.428709" lon="12.6074725"><ele>482.66666666666663</ele><time>2026-04-19T09:16:34.924Z</time></trkpt><trkpt lat="43.4288492" lon="12.6075937"><ele>482.3333333333333</ele><time>2026-04-19T09:16:35.924Z</time></trkpt><trkpt lat="43.4289779" lon="12.6077141"><ele>482.0</ele><time>2026-04-19T09:16:36.924Z</time></trkpt><trkpt lat="43.4291004" lon="12.607846"><ele>482.0</ele><time>2026-04-19T09:16:37.924Z</time></trkpt><trkpt lat="43.4292157" lon="12.6079841"><ele>482.0</ele><time>2026-04-19T09:16:38.924Z</time></trkpt><trkpt lat="43.4293293" lon="12.6081344"><ele>482.0</ele><time>2026-04-19T09:16:39.925Z</time></trkpt><trkpt lat="43.4294423" lon="12.6082919"><ele>482.0</ele><time>2026-04-19T09:16:40.924Z</time></trkpt><trkpt lat="43.4295559" lon="12.6084456"><ele>482.0</ele><time>2026-04-19T09:16:41.925Z</time></trkpt><trkpt lat="43.4296737" lon="12.6086048"><ele>482.0</ele><time>2026-04-19T09:16:42.923Z</time></trkpt><trkpt lat="43.4297816" lon="12.6087696"><ele>477.66666666666663</ele><time>2026-04-19T09:16:43.925Z</time></trkpt><trkpt lat="43.4298943" lon="12.6089274"><ele>473.33333333333337</ele><time>2026-04-19T09:16:44.925Z</time></trkpt><trkpt lat="43.4300108" lon="12.6090828"><ele>469.0</ele><time>2026-04-19T09:16:45.924Z</time></trkpt><trkpt lat="43.4301249" lon="12.6092519"><ele>469.0</ele><time>2026-04-19T09:16:46.924Z</time></trkpt><trkpt lat="43.4302719" lon="12.6093986"><ele>469.0</ele><time>2026-04-19T09:16:47.923Z</time></trkpt><trkpt lat="43.4304253" lon="12.6095485"><ele>469.0</ele><time>2026-04-19T09:16:48.924Z</time></trkpt><trkpt lat="43.4305707" lon="12.6096948"><ele>467.6666666666667</ele><time>2026-04-19T09:16:49.924Z</time></trkpt><trkpt lat="43.430719" lon="12.6098337"><ele>466.33333333333337</ele><time>2026-04-19T09:16:50.925Z</time></trkpt><trkpt lat="43.430862" lon="12.6099625"><ele>465.0</ele><time>2026-04-19T09:16:51.924Z</time></trkpt><trkpt lat="43.4310001" lon="12.6100779"><ele>465.0</ele><time>2026-04-19T09:16:52.924Z</time></trkpt><trkpt lat="43.4311471" lon="12.6101631"><ele>465.0</ele><time>2026-04-19T09:16:53.924Z</time></trkpt><trkpt lat="43.431299" lon="12.6102288"><ele>465.0</ele><time>2026-04-19T09:16:54.925Z</time></trkpt><trkpt lat="43.4314661" lon="12.6102824"><ele>465.33333333333337</ele><time>2026-04-19T09:16:55.925Z</time></trkpt><trkpt lat="43.4316299" lon="12.6103321"><ele>465.6666666666667</ele><time>2026-04-19T09:16:56.925Z</time></trkpt><trkpt lat="43.4317986" lon="12.6103968"><ele>466.0</ele><time>2026-04-19T09:16:57.924Z</time></trkpt><trkpt lat="43.4319602" lon="12.6104842"><ele>466.0</ele><time>2026-04-19T09:16:58.923Z</time></trkpt><trkpt lat="43.4321244" lon="12.6105979"><ele>466.0</ele><time>2026-04-19T09:16:59.924Z</time></trkpt><trkpt lat="43.4322804" lon="12.6107296"><ele>466.0</ele><time>2026-04-19T09:17:00.923Z</time></trkpt><trkpt lat="43.4324395" lon="12.6108606"><ele>460.0</ele><time>2026-04-19T09:17:01.925Z</time></trkpt><trkpt lat="43.4326125" lon="12.6109665"><ele>454.0</ele><time>2026-04-19T09:17:02.925Z</time></trkpt><trkpt lat="43.4327877" lon="12.6110511"><ele>448.0</ele><time>2026-04-19T09:17:03.923Z</time></trkpt><trkpt lat="43.4329614" lon="12.6111285"><ele>446.33333333333337</ele><time>2026-04-19T09:17:04.923Z</time></trkpt><trkpt lat="43.4331272" lon="12.6112039"><ele>444.66666666666663</ele><time>2026-04-19T09:17:05.925Z</time></trkpt><trkpt lat="43.4332831" lon="12.6112756"><ele>443.0</ele><time>2026-04-19T09:17:06.925Z</time></trkpt><trkpt lat="43.433424" lon="12.611357"><ele>443.0</ele><time>2026-04-19T09:17:07.925Z</time></trkpt><trkpt lat="43.4335525" lon="12.6114634"><ele>443.0</ele><time>2026-04-19T09:17:08.925Z</time></trkpt><trkpt lat="43.4336583" lon="12.6116082"><ele>443.0</ele><time>2026-04-19T09:17:09.925Z</time></trkpt><trkpt lat="43.4337576" lon="12.6117889"><ele>443.3333333333333</ele><time>2026-04-19T09:17:10.924Z</time></trkpt><trkpt lat="43.4338523" lon="12.6119915"><ele>443.66666666666663</ele><time>2026-04-19T09:17:11.924Z</time></trkpt><trkpt lat="43.4339464" lon="12.6122074"><ele>444.0</ele><time>2026-04-19T09:17:12.925Z</time></trkpt><trkpt lat="43.4340389" lon="12.612416"><ele>444.0</ele><time>2026-04-19T09:17:13.923Z</time></trkpt><trkpt lat="43.4341274" lon="12.6126249"><ele>444.0</ele><time>2026-04-19T09:17:14.925Z</time></trkpt><trkpt lat="43.4342207" lon="12.612834"><ele>444.0</ele><time>2026-04-19T09:17:15.925Z</time></trkpt><trkpt lat="43.4343129" lon="12.6130501"><ele>442.33333333333337</ele><time>2026-04-19T09:17:16.923Z</time></trkpt><trkpt lat="43.4344039" lon="12.6132776"><ele>440.6666666666667</ele><time>2026-04-19T09:17:17.925Z</time></trkpt><trkpt lat="43.4345018" lon="12.6135107"><ele>439.0</ele><time>2026-04-19T09:17:18.925Z</time></trkpt><trkpt lat="43.4345983" lon="12.6137432"><ele>440.6666666666667</ele><time>2026-04-19T09:17:19.924Z</time></trkpt><trkpt lat="43.4346953" lon="12.6139773"><ele>442.33333333333337</ele><time>2026-04-19T09:17:20.923Z</time></trkpt><trkpt lat="43.4347875" lon="12.6142312"><ele>444.0</ele><time>2026-04-19T09:17:21.924Z</time></trkpt><trkpt lat="43.4348663" lon="12.6144965"><ele>444.0</ele><time>2026-04-19T09:17:22.924Z</time></trkpt><trkpt lat="43.4349171" lon="12.6147719"><ele>444.0</ele><time>2026-04-19T09:17:23.924Z</time></trkpt><trkpt lat="43.4349595" lon="12.6150396"><ele>444.0</ele><time>2026-04-19T09:17:24.925Z</time></trkpt><trkpt lat="43.4349967" lon="12.6152997"><ele>441.66666666666663</ele><time>2026-04-19T09:17:25.924Z</time></trkpt><trkpt lat="43.4350299" lon="12.6155495"><ele>439.3333333333333</ele><time>2026-04-19T09:17:26.924Z</time></trkpt><trkpt lat="43.4350646" lon="12.6157997"><ele>437.0</ele><time>2026-04-19T09:17:27.924Z</time></trkpt><trkpt lat="43.4350988" lon="12.6160575"><ele>434.66666666666663</ele><time>2026-04-19T09:17:28.924Z</time></trkpt><trkpt lat="43.435133" lon="12.6163202"><ele>432.33333333333337</ele><time>2026-04-19T09:17:29.925Z</time></trkpt><trkpt lat="43.4351677" lon="12.6165784"><ele>430.0</ele><time>2026-04-19T09:17:30.925Z</time></trkpt><trkpt lat="43.4351994" lon="12.6168351"><ele>429.0</ele><time>2026-04-19T09:17:31.924Z</time></trkpt><trkpt lat="43.4352359" lon="12.6170959"><ele>428.0</ele><time>2026-04-19T09:17:32.925Z</time></trkpt><trkpt lat="43.4352708" lon="12.617362"><ele>427.0</ele><time>2026-04-19T09:17:33.924Z</time></trkpt><trkpt lat="43.435307" lon="12.6176363"><ele>426.6666666666667</ele><time>2026-04-19T09:17:34.923Z</time></trkpt><trkpt lat="43.4353484" lon="12.6179026"><ele>426.33333333333337</ele><time>2026-04-19T09:17:35.924Z</time></trkpt><trkpt lat="43.4354017" lon="12.6181515"><ele>426.0</ele><time>2026-04-19T09:17:36.925Z</time></trkpt><trkpt lat="43.4354805" lon="12.6183889"><ele>426.0</ele><time>2026-04-19T09:17:37.924Z</time></trkpt><trkpt lat="43.4355779" lon="12.6186178"><ele>426.0</ele><time>2026-04-19T09:17:38.924Z</time></trkpt><trkpt lat="43.4356929" lon="12.6188331"><ele>426.0</ele><time>2026-04-19T09:17:39.923Z</time></trkpt><trkpt lat="43.4358344" lon="12.6190232"><ele>425.66666666666663</ele><time>2026-04-19T09:17:40.925Z</time></trkpt><trkpt lat="43.4359923" lon="12.6192042"><ele>425.3333333333333</ele><time>2026-04-19T09:17:41.925Z</time></trkpt><trkpt lat="43.4361664" lon="12.6193705"><ele>425.0</ele><time>2026-04-19T09:17:42.924Z</time></trkpt><trkpt lat="43.4363391" lon="12.61953"><ele>422.66666666666663</ele><time>2026-04-19T09:17:43.924Z</time></trkpt><trkpt lat="43.4365034" lon="12.6196831"><ele>420.33333333333337</ele><time>2026-04-19T09:17:44.924Z</time></trkpt><trkpt lat="43.4366595" lon="12.6198319"><ele>418.0</ele><time>2026-04-19T09:17:45.924Z</time></trkpt><trkpt lat="43.4368151" lon="12.6199818"><ele>418.0</ele><time>2026-04-19T09:17:46.924Z</time></trkpt><trkpt lat="43.4369754" lon="12.6201308"><ele>418.0</ele><time>2026-04-19T09:17:47.923Z</time></trkpt><trkpt lat="43.437131" lon="12.6202775"><ele>418.0</ele><time>2026-04-19T09:17:48.923Z</time></trkpt><trkpt lat="43.4372833" lon="12.6204211"><ele>418.6666666666667</ele><time>2026-04-19T09:17:49.925Z</time></trkpt><trkpt lat="43.4374431" lon="12.6205711"><ele>419.33333333333337</ele><time>2026-04-19T09:17:50.923Z</time></trkpt><trkpt lat="43.4376018" lon="12.6207212"><ele>420.0</ele><time>2026-04-19T09:17:51.924Z</time></trkpt><trkpt lat="43.4377638" lon="12.6208737"><ele>420.0</ele><time>2026-04-19T09:17:52.925Z</time></trkpt><trkpt lat="43.4379268" lon="12.6210261"><ele>420.0</ele><time>2026-04-19T09:17:53.923Z</time></trkpt><trkpt lat="43.4380898" lon="12.6211802"><ele>420.0</ele><time>2026-04-19T09:17:54.925Z</time></trkpt><trkpt lat="43.438258" lon="12.6213313"><ele>418.66666666666663</ele><time>2026-04-19T09:17:55.924Z</time></trkpt><trkpt lat="43.4384198" lon="12.6214802"><ele>417.3333333333333</ele><time>2026-04-19T09:17:56.923Z</time></trkpt><trkpt lat="43.4385812" lon="12.6216308"><ele>416.0</ele><time>2026-04-19T09:17:57.925Z</time></trkpt><trkpt lat="43.4387372" lon="12.6217895"><ele>418.66666666666663</ele><time>2026-04-19T09:17:58.925Z</time></trkpt><trkpt lat="43.4388819" lon="12.6219644"><ele>421.33333333333337</ele><time>2026-04-19T09:17:59.924Z</time></trkpt><trkpt lat="43.4390105" lon="12.6221668"><ele>424.0</ele><time>2026-04-19T09:18:00.924Z</time></trkpt><trkpt lat="43.4391218" lon="12.622394"><ele>424.0</ele><time>2026-04-19T09:18:01.924Z</time></trkpt><trkpt lat="43.4392177" lon="12.6226442"><ele>424.0</ele><time>2026-04-19T09:18:02.925Z</time></trkpt><trkpt lat="43.439299" lon="12.622916"><ele>424.0</ele><time>2026-04-19T09:18:03.924Z</time></trkpt><trkpt lat="43.439371" lon="12.6231747"><ele>422.33333333333337</ele><time>2026-04-19T09:18:04.923Z</time></trkpt><trkpt lat="43.439442" lon="12.6234302"><ele>420.66666666666663</ele><time>2026-04-19T09:18:05.923Z</time></trkpt><trkpt lat="43.4395151" lon="12.6236755"><ele>419.0</ele><time>2026-04-19T09:18:06.923Z</time></trkpt><trkpt lat="43.4395864" lon="12.6239095"><ele>418.66666666666663</ele><time>2026-04-19T09:18:07.923Z</time></trkpt><trkpt lat="43.4396577" lon="12.6241329"><ele>418.33333333333337</ele><time>2026-04-19T09:18:08.924Z</time></trkpt><trkpt lat="43.4397274" lon="12.6243655"><ele>418.0</ele><time>2026-04-19T09:18:09.924Z</time></trkpt><trkpt lat="43.4397966" lon="12.6245939"><ele>418.0</ele><time>2026-04-19T09:18:10.923Z</time></trkpt><trkpt lat="43.4398637" lon="12.6248194"><ele>418.0</ele><time>2026-04-19T09:18:11.924Z</time></trkpt><trkpt lat="43.4399294" lon="12.6250405"><ele>418.0</ele><time>2026-04-19T09:18:12.924Z</time></trkpt><trkpt lat="43.4399972" lon="12.6252606"><ele>416.0</ele><time>2026-04-19T09:18:13.924Z</time></trkpt><trkpt lat="43.4400615" lon="12.625476"><ele>414.0</ele><time>2026-04-19T09:18:14.923Z</time></trkpt><trkpt lat="43.4401108" lon="12.6256924"><ele>412.0</ele><time>2026-04-19T09:18:15.923Z</time></trkpt><trkpt lat="43.4401335" lon="12.6259263"><ele>411.6666666666667</ele><time>2026-04-19T09:18:16.923Z</time></trkpt><trkpt lat="43.4401484" lon="12.6261613"><ele>411.33333333333337</ele><time>2026-04-19T09:18:17.923Z</time></trkpt><trkpt lat="43.4401595" lon="12.6263993"><ele>411.0</ele><time>2026-04-19T09:18:18.924Z</time></trkpt><trkpt lat="43.4401647" lon="12.6266236"><ele>411.0</ele><time>2026-04-19T09:18:19.923Z</time></trkpt><trkpt lat="43.4401743" lon="12.6268445"><ele>411.0</ele><time>2026-04-19T09:18:20.923Z</time></trkpt><trkpt lat="43.4401961" lon="12.6270564"><ele>411.0</ele><time>2026-04-19T09:18:21.924Z</time></trkpt><trkpt lat="43.4402429" lon="12.6272589"><ele>410.0</ele><time>2026-04-19T09:18:22.924Z</time></trkpt><trkpt lat="43.4403151" lon="12.627456"><ele>409.0</ele><time>2026-04-19T09:18:23.923Z</time></trkpt><trkpt lat="43.4404079" lon="12.6276441"><ele>408.0</ele><time>2026-04-19T09:18:24.924Z</time></trkpt><trkpt lat="43.4405224" lon="12.6278159"><ele>406.66666666666663</ele><time>2026-04-19T09:18:25.922Z</time></trkpt><trkpt lat="43.4406552" lon="12.627962"><ele>405.3333333333333</ele><time>2026-04-19T09:18:26.923Z</time></trkpt><trkpt lat="43.4408073" lon="12.6280931"><ele>404.0</ele><time>2026-04-19T09:18:27.924Z</time></trkpt><trkpt lat="43.440977" lon="12.6282161"><ele>404.0</ele><time>2026-04-19T09:18:28.924Z</time></trkpt><trkpt lat="43.4411422" lon="12.6283282"><ele>404.0</ele><time>2026-04-19T09:18:29.924Z</time></trkpt><trkpt lat="43.4412952" lon="12.6284335"><ele>404.0</ele><time>2026-04-19T09:18:30.923Z</time></trkpt><trkpt lat="43.4414414" lon="12.6285295"><ele>404.66666666666663</ele><time>2026-04-19T09:18:31.922Z</time></trkpt><trkpt lat="43.4415764" lon="12.6286307"><ele>405.33333333333337</ele><time>2026-04-19T09:18:32.923Z</time></trkpt><trkpt lat="43.4417048" lon="12.6287403"><ele>406.0</ele><time>2026-04-19T09:18:33.923Z</time></trkpt><trkpt lat="43.4418283" lon="12.6288761"><ele>406.0</ele><time>2026-04-19T09:18:34.923Z</time></trkpt><trkpt lat="43.4419444" lon="12.6290381"><ele>406.0</ele><time>2026-04-19T09:18:35.924Z</time></trkpt><trkpt lat="43.442053" lon="12.6292275"><ele>406.0</ele><time>2026-04-19T09:18:36.923Z</time></trkpt><trkpt lat="43.4421463" lon="12.6294259"><ele>405.0</ele><time>2026-04-19T09:18:37.922Z</time></trkpt><trkpt lat="43.4422232" lon="12.6296369"><ele>404.0</ele><time>2026-04-19T09:18:38.923Z</time></trkpt><trkpt lat="43.4422823" lon="12.6298716"><ele>403.0</ele><time>2026-04-19T09:18:39.923Z</time></trkpt><trkpt lat="43.4423161" lon="12.6301231"><ele>403.6666666666667</ele><time>2026-04-19T09:18:40.923Z</time></trkpt><trkpt lat="43.4423497" lon="12.6303652"><ele>404.33333333333337</ele><time>2026-04-19T09:18:41.923Z</time></trkpt><trkpt lat="43.44238" lon="12.6305808"><ele>405.0</ele><time>2026-04-19T09:18:42.924Z</time></trkpt><trkpt lat="43.4424069" lon="12.6307883"><ele>405.0</ele><time>2026-04-19T09:18:43.922Z</time></trkpt><trkpt lat="43.4424294" lon="12.6309985"><ele>405.0</ele><time>2026-04-19T09:18:44.923Z</time></trkpt><trkpt lat="43.4424511" lon="12.6312081"><ele>405.0</ele><time>2026-04-19T09:18:45.921Z</time></trkpt><trkpt lat="43.4424787" lon="12.6314188"><ele>405.0</ele><time>2026-04-19T09:18:46.923Z</time></trkpt><trkpt lat="43.4425065" lon="12.6316334"><ele>405.0</ele><time>2026-04-19T09:18:47.922Z</time></trkpt><trkpt lat="43.4425381" lon="12.6318525"><ele>405.0</ele><time>2026-04-19T09:18:48.922Z</time></trkpt><trkpt lat="43.4425669" lon="12.632063"><ele>405.0</ele><time>2026-04-19T09:18:49.921Z</time></trkpt><trkpt lat="43.4425915" lon="12.6322644"><ele>405.0</ele><time>2026-04-19T09:18:50.923Z</time></trkpt><trkpt lat="43.4426166" lon="12.6324634"><ele>405.0</ele><time>2026-04-19T09:18:51.923Z</time></trkpt><trkpt lat="43.4426416" lon="12.6326507"><ele>405.0</ele><time>2026-04-19T09:18:52.922Z</time></trkpt><trkpt lat="43.4426653" lon="12.6328483"><ele>407.0</ele><time>2026-04-19T09:18:53.922Z</time></trkpt><trkpt lat="43.442684" lon="12.6330405"><ele>409.0</ele><time>2026-04-19T09:18:54.921Z</time></trkpt><trkpt lat="43.4427122" lon="12.6332199"><ele>411.0</ele><time>2026-04-19T09:18:55.923Z</time></trkpt><trkpt lat="43.4427697" lon="12.6333941"><ele>413.0</ele><time>2026-04-19T09:18:56.922Z</time></trkpt><trkpt lat="43.4428528" lon="12.6335567"><ele>410.0</ele><time>2026-04-19T09:18:57.921Z</time></trkpt><trkpt lat="43.4429566" lon="12.6337003"><ele>407.0</ele><time>2026-04-19T09:18:58.922Z</time></trkpt><trkpt lat="43.4430825" lon="12.6338411"><ele>404.0</ele><time>2026-04-19T09:18:59.923Z</time></trkpt><trkpt lat="43.4432194" lon="12.6339743"><ele>404.0</ele><time>2026-04-19T09:19:00.922Z</time></trkpt><trkpt lat="43.4433578" lon="12.6340935"><ele>404.0</ele><time>2026-04-19T09:19:01.922Z</time></trkpt><trkpt lat="43.4435148" lon="12.6342006"><ele>404.0</ele><time>2026-04-19T09:19:02.922Z</time></trkpt><trkpt lat="43.4436831" lon="12.6342929"><ele>402.0</ele><time>2026-04-19T09:19:03.921Z</time></trkpt><trkpt lat="43.4438661" lon="12.634368"><ele>400.0</ele><time>2026-04-19T09:19:04.922Z</time></trkpt><trkpt lat="43.4440571" lon="12.6344157"><ele>398.0</ele><time>2026-04-19T09:19:05.923Z</time></trkpt><trkpt lat="43.4442479" lon="12.6344388"><ele>398.0</ele><time>2026-04-19T09:19:06.922Z</time></trkpt><trkpt lat="43.444436" lon="12.6344349"><ele>398.0</ele><time>2026-04-19T09:19:07.923Z</time></trkpt><trkpt lat="43.444621" lon="12.6344034"><ele>398.0</ele><time>2026-04-19T09:19:08.922Z</time></trkpt><trkpt lat="43.4448012" lon="12.6343482"><ele>397.66666666666663</ele><time>2026-04-19T09:19:09.921Z</time></trkpt><trkpt lat="43.444979" lon="12.6342698"><ele>397.33333333333337</ele><time>2026-04-19T09:19:10.922Z</time></trkpt><trkpt lat="43.4451586" lon="12.6341707"><ele>397.0</ele><time>2026-04-19T09:19:11.923Z</time></trkpt><trkpt lat="43.4453364" lon="12.6340645"><ele>397.6666666666667</ele><time>2026-04-19T09:19:12.922Z</time></trkpt><trkpt lat="43.4455146" lon="12.6339734"><ele>398.33333333333337</ele><time>2026-04-19T09:19:13.922Z</time></trkpt><trkpt lat="43.4457046" lon="12.6339048"><ele>399.0</ele><time>2026-04-19T09:19:14.923Z</time></trkpt><trkpt lat="43.4459035" lon="12.6338666"><ele>399.0</ele><time>2026-04-19T09:19:15.923Z</time></trkpt><trkpt lat="43.4461023" lon="12.6338579"><ele>399.0</ele><time>2026-04-19T09:19:16.923Z</time></trkpt><trkpt lat="43.4463006" lon="12.6338726"><ele>399.0</ele><time>2026-04-19T09:19:17.922Z</time></trkpt><trkpt lat="43.4465051" lon="12.6339142"><ele>399.0</ele><time>2026-04-19T09:19:18.923Z</time></trkpt><trkpt lat="43.4467079" lon="12.6339737"><ele>399.0</ele><time>2026-04-19T09:19:19.921Z</time></trkpt><trkpt lat="43.4468965" lon="12.6340445"><ele>399.0</ele><time>2026-04-19T09:19:20.922Z</time></trkpt><trkpt lat="43.447084" lon="12.6341068"><ele>398.0</ele><time>2026-04-19T09:19:21.923Z</time></trkpt><trkpt lat="43.4472677" lon="12.6341577"><ele>397.0</ele><time>2026-04-19T09:19:22.922Z</time></trkpt><trkpt lat="43.4474442" lon="12.6341942"><ele>396.0</ele><time>2026-04-19T09:19:23.923Z</time></trkpt><trkpt lat="43.4476129" lon="12.6342201"><ele>396.0</ele><time>2026-04-19T09:19:24.923Z</time></trkpt><trkpt lat="43.4477736" lon="12.6342314"><ele>396.0</ele><time>2026-04-19T09:19:25.922Z</time></trkpt><trkpt lat="43.4479312" lon="12.6342403"><ele>396.0</ele><time>2026-04-19T09:19:26.923Z</time></trkpt><trkpt lat="43.4480949" lon="12.6342387"><ele>393.66666666666663</ele><time>2026-04-19T09:19:27.923Z</time></trkpt><trkpt lat="43.4482641" lon="12.6342325"><ele>391.3333333333333</ele><time>2026-04-19T09:19:28.923Z</time></trkpt><trkpt lat="43.4484383" lon="12.6342194"><ele>389.0</ele><time>2026-04-19T09:19:29.923Z</time></trkpt><trkpt lat="43.4486191" lon="12.6342138"><ele>388.3333333333333</ele><time>2026-04-19T09:19:30.923Z</time></trkpt><trkpt lat="43.4488073" lon="12.6342221"><ele>387.66666666666663</ele><time>2026-04-19T09:19:31.922Z</time></trkpt><trkpt lat="43.4489954" lon="12.6342393"><ele>387.0</ele><time>2026-04-19T09:19:32.922Z</time></trkpt><trkpt lat="43.4491826" lon="12.6342567"><ele>387.0</ele><time>2026-04-19T09:19:33.922Z</time></trkpt><trkpt lat="43.4493671" lon="12.6342706"><ele>387.0</ele><time>2026-04-19T09:19:34.922Z</time></trkpt><trkpt lat="43.4495531" lon="12.6342734"><ele>387.0</ele><time>2026-04-19T09:19:35.922Z</time></trkpt><trkpt lat="43.4497492" lon="12.6342681"><ele>386.66666666666663</ele><time>2026-04-19T09:19:36.922Z</time></trkpt><trkpt lat="43.4499571" lon="12.634241"><ele>386.3333333333333</ele><time>2026-04-19T09:19:37.923Z</time></trkpt><trkpt lat="43.4501661" lon="12.6342004"><ele>386.0</ele><time>2026-04-19T09:19:38.921Z</time></trkpt><trkpt lat="43.4503664" lon="12.6341459"><ele>388.0</ele><time>2026-04-19T09:19:39.922Z</time></trkpt><trkpt lat="43.450561" lon="12.6340876"><ele>390.0</ele><time>2026-04-19T09:19:40.922Z</time></trkpt><trkpt lat="43.4507566" lon="12.6340215"><ele>392.0</ele><time>2026-04-19T09:19:41.922Z</time></trkpt><trkpt lat="43.4509564" lon="12.6339348"><ele>392.0</ele><time>2026-04-19T09:19:42.921Z</time></trkpt><trkpt lat="43.4511549" lon="12.6338241"><ele>392.0</ele><time>2026-04-19T09:19:43.922Z</time></trkpt><trkpt lat="43.451347" lon="12.6337092"><ele>392.0</ele><time>2026-04-19T09:19:44.922Z</time></trkpt><trkpt lat="43.4515379" lon="12.6335866"><ele>390.0</ele><time>2026-04-19T09:19:45.923Z</time></trkpt><trkpt lat="43.451721" lon="12.6334571"><ele>388.0</ele><time>2026-04-19T09:19:46.921Z</time></trkpt><trkpt lat="43.4519" lon="12.6333238"><ele>386.0</ele><time>2026-04-19T09:19:47.922Z</time></trkpt><trkpt lat="43.4520726" lon="12.6331861"><ele>386.0</ele><time>2026-04-19T09:19:48.923Z</time></trkpt><trkpt lat="43.4522408" lon="12.633042"><ele>386.0</ele><time>2026-04-19T09:19:49.922Z</time></trkpt><trkpt lat="43.4524037" lon="12.6328924"><ele>386.0</ele><time>2026-04-19T09:19:50.923Z</time></trkpt><trkpt lat="43.4525657" lon="12.6327438"><ele>386.0</ele><time>2026-04-19T09:19:51.923Z</time></trkpt><trkpt lat="43.4527256" lon="12.6325932"><ele>386.0</ele><time>2026-04-19T09:19:52.923Z</time></trkpt><trkpt lat="43.4528831" lon="12.6324325"><ele>386.0</ele><time>2026-04-19T09:19:53.922Z</time></trkpt><trkpt lat="43.4530413" lon="12.6322559"><ele>385.66666666666663</ele><time>2026-04-19T09:19:54.922Z</time></trkpt><trkpt lat="43.4532036" lon="12.6320787"><ele>385.33333333333337</ele><time>2026-04-19T09:19:55.922Z</time></trkpt><trkpt lat="43.4533683" lon="12.6318976"><ele>385.0</ele><time>2026-04-19T09:19:56.923Z</time></trkpt><trkpt lat="43.4535365" lon="12.6317068"><ele>385.0</ele><time>2026-04-19T09:19:57.922Z</time></trkpt><trkpt lat="43.4537019" lon="12.631516"><ele>385.0</ele><time>2026-04-19T09:19:58.923Z</time></trkpt><trkpt lat="43.4538645" lon="12.6313259"><ele>385.0</ele><time>2026-04-19T09:19:59.921Z</time></trkpt><trkpt lat="43.4540269" lon="12.6311308"><ele>383.6666666666667</ele><time>2026-04-19T09:20:00.922Z</time></trkpt><trkpt lat="43.45419" lon="12.6309374"><ele>382.33333333333337</ele><time>2026-04-19T09:20:01.922Z</time></trkpt><trkpt lat="43.4543516" lon="12.6307492"><ele>381.0</ele><time>2026-04-19T09:20:02.922Z</time></trkpt><trkpt lat="43.4545179" lon="12.6305564"><ele>380.3333333333333</ele><time>2026-04-19T09:20:03.922Z</time></trkpt><trkpt lat="43.4546899" lon="12.6303645"><ele>379.66666666666663</ele><time>2026-04-19T09:20:04.923Z</time></trkpt><trkpt lat="43.4548625" lon="12.6301743"><ele>379.0</ele><time>2026-04-19T09:20:05.923Z</time></trkpt><trkpt lat="43.4550383" lon="12.6299904"><ele>379.0</ele><time>2026-04-19T09:20:06.922Z</time></trkpt><trkpt lat="43.4552138" lon="12.6298157"><ele>379.0</ele><time>2026-04-19T09:20:07.921Z</time></trkpt><trkpt lat="43.4553838" lon="12.6296438"><ele>379.0</ele><time>2026-04-19T09:20:08.922Z</time></trkpt><trkpt lat="43.455552" lon="12.6294842"><ele>379.3333333333333</ele><time>2026-04-19T09:20:09.923Z</time></trkpt><trkpt lat="43.4557247" lon="12.6293321"><ele>379.6666666666667</ele><time>2026-04-19T09:20:10.923Z</time></trkpt><trkpt lat="43.4559023" lon="12.6291808"><ele>380.0</ele><time>2026-04-19T09:20:11.922Z</time></trkpt><trkpt lat="43.4560834" lon="12.6290365"><ele>380.0</ele><time>2026-04-19T09:20:12.922Z</time></trkpt><trkpt lat="43.4562757" lon="12.628898"><ele>380.0</ele><time>2026-04-19T09:20:13.921Z</time></trkpt><trkpt lat="43.456471" lon="12.6287662"><ele>380.0</ele><time>2026-04-19T09:20:14.922Z</time></trkpt><trkpt lat="43.4566678" lon="12.6286423"><ele>380.6666666666667</ele><time>2026-04-19T09:20:15.921Z</time></trkpt><trkpt lat="43.456867" lon="12.6285186"><ele>381.3333333333333</ele><time>2026-04-19T09:20:16.921Z</time></trkpt><trkpt lat="43.4570711" lon="12.6284065"><ele>382.0</ele><time>2026-04-19T09:20:17.922Z</time></trkpt><trkpt lat="43.4572765" lon="12.6283072"><ele>382.0</ele><time>2026-04-19T09:20:18.922Z</time></trkpt><trkpt lat="43.4574893" lon="12.628217"><ele>382.0</ele><time>2026-04-19T09:20:19.921Z</time></trkpt><trkpt lat="43.4577058" lon="12.6281321"><ele>382.0</ele><time>2026-04-19T09:20:20.922Z</time></trkpt><trkpt lat="43.4579205" lon="12.6280598"><ele>381.0</ele><time>2026-04-19T09:20:21.923Z</time></trkpt><trkpt lat="43.4581348" lon="12.6279934"><ele>380.0</ele><time>2026-04-19T09:20:22.921Z</time></trkpt><trkpt lat="43.4583533" lon="12.627935"><ele>379.0</ele><time>2026-04-19T09:20:23.922Z</time></trkpt><trkpt lat="43.4585652" lon="12.6278904"><ele>379.0</ele><time>2026-04-19T09:20:24.922Z</time></trkpt><trkpt lat="43.4587767" lon="12.6278602"><ele>379.0</ele><time>2026-04-19T09:20:25.923Z</time></trkpt><trkpt lat="43.4589842" lon="12.6278338"><ele>379.0</ele><time>2026-04-19T09:20:26.922Z</time></trkpt><trkpt lat="43.4591915" lon="12.62782"><ele>377.66666666666663</ele><time>2026-04-19T09:20:27.923Z</time></trkpt><trkpt lat="43.4594026" lon="12.6278078"><ele>376.3333333333333</ele><time>2026-04-19T09:20:28.922Z</time></trkpt><trkpt lat="43.4596148" lon="12.6278025"><ele>375.0</ele><time>2026-04-19T09:20:29.922Z</time></trkpt><trkpt lat="43.4598294" lon="12.6278047"><ele>375.6666666666667</ele><time>2026-04-19T09:20:30.922Z</time></trkpt><trkpt lat="43.4600477" lon="12.6278198"><ele>376.33333333333337</ele><time>2026-04-19T09:20:31.922Z</time></trkpt><trkpt lat="43.4602683" lon="12.6278412"><ele>377.0</ele><time>2026-04-19T09:20:32.922Z</time></trkpt><trkpt lat="43.460488" lon="12.6278739"><ele>377.0</ele><time>2026-04-19T09:20:33.921Z</time></trkpt><trkpt lat="43.4607091" lon="12.6279064"><ele>377.0</ele><time>2026-04-19T09:20:34.922Z</time></trkpt><trkpt lat="43.4609239" lon="12.6279403"><ele>377.0</ele><time>2026-04-19T09:20:35.922Z</time></trkpt><trkpt lat="43.461132" lon="12.6279744"><ele>377.6666666666667</ele><time>2026-04-19T09:20:36.922Z</time></trkpt><trkpt lat="43.4613357" lon="12.6280131"><ele>378.3333333333333</ele><time>2026-04-19T09:20:37.923Z</time></trkpt><trkpt lat="43.4615358" lon="12.62805"><ele>379.0</ele><time>2026-04-19T09:20:38.922Z</time></trkpt><trkpt lat="43.461732" lon="12.628081"><ele>379.0</ele><time>2026-04-19T09:20:39.922Z</time></trkpt><trkpt lat="43.4619324" lon="12.6281147"><ele>379.0</ele><time>2026-04-19T09:20:40.922Z</time></trkpt><trkpt lat="43.4621356" lon="12.62815"><ele>379.0</ele><time>2026-04-19T09:20:41.922Z</time></trkpt><trkpt lat="43.4623518" lon="12.6281847"><ele>378.3333333333333</ele><time>2026-04-19T09:20:42.922Z</time></trkpt><trkpt lat="43.4625619" lon="12.628214"><ele>377.6666666666667</ele><time>2026-04-19T09:20:43.922Z</time></trkpt><trkpt lat="43.4627733" lon="12.6282348"><ele>377.0</ele><time>2026-04-19T09:20:44.922Z</time></trkpt><trkpt lat="43.462982" lon="12.6282481"><ele>377.0</ele><time>2026-04-19T09:20:45.921Z</time></trkpt><trkpt lat="43.463179" lon="12.6282549"><ele>377.0</ele><time>2026-04-19T09:20:46.921Z</time></trkpt><trkpt lat="43.463379" lon="12.6282637"><ele>377.0</ele><time>2026-04-19T09:20:47.92Z</time></trkpt><trkpt lat="43.4635828" lon="12.6282649"><ele>375.0</ele><time>2026-04-19T09:20:48.922Z</time></trkpt><trkpt lat="43.4637921" lon="12.6282653"><ele>373.0</ele><time>2026-04-19T09:20:49.922Z</time></trkpt><trkpt lat="43.4640108" lon="12.6282562"><ele>371.0</ele><time>2026-04-19T09:20:50.922Z</time></trkpt><trkpt lat="43.4642366" lon="12.6282436"><ele>371.0</ele><time>2026-04-19T09:20:51.921Z</time></trkpt><trkpt lat="43.4644675" lon="12.6282221"><ele>371.0</ele><time>2026-04-19T09:20:52.922Z</time></trkpt><trkpt lat="43.464699" lon="12.62819"><ele>370.5</ele><time>2026-04-19T09:20:53.922Z</time></trkpt><trkpt lat="43.4649264" lon="12.6281539"><ele>370.0</ele><time>2026-04-19T09:20:54.922Z</time></trkpt><trkpt lat="43.4651475" lon="12.6281152"><ele>370.0</ele><time>2026-04-19T09:20:55.922Z</time></trkpt><trkpt lat="43.4653574" lon="12.6280658"><ele>370.0</ele><time>2026-04-19T09:20:56.922Z</time></trkpt><trkpt lat="43.4655594" lon="12.6280001"><ele>370.0</ele><time>2026-04-19T09:20:57.921Z</time></trkpt><trkpt lat="43.4657603" lon="12.6279275"><ele>370.3333333333333</ele><time>2026-04-19T09:20:58.922Z</time></trkpt><trkpt lat="43.4659571" lon="12.6278485"><ele>370.6666666666667</ele><time>2026-04-19T09:20:59.921Z</time></trkpt><trkpt lat="43.4661533" lon="12.627776"><ele>371.0</ele><time>2026-04-19T09:21:00.922Z</time></trkpt><trkpt lat="43.4663474" lon="12.6276998"><ele>374.6666666666667</ele><time>2026-04-19T09:21:01.922Z</time></trkpt><trkpt lat="43.4665332" lon="12.6276198"><ele>378.3333333333333</ele><time>2026-04-19T09:21:02.922Z</time></trkpt><trkpt lat="43.4667147" lon="12.6275367"><ele>382.0</ele><time>2026-04-19T09:21:03.921Z</time></trkpt><trkpt lat="43.4668955" lon="12.6274445"><ele>382.0</ele><time>2026-04-19T09:21:04.921Z</time></trkpt><trkpt lat="43.467074" lon="12.6273502"><ele>382.0</ele><time>2026-04-19T09:21:05.921Z</time></trkpt><trkpt lat="43.4672492" lon="12.6272551"><ele>382.0</ele><time>2026-04-19T09:21:06.921Z</time></trkpt><trkpt lat="43.4674293" lon="12.6271584"><ele>384.0</ele><time>2026-04-19T09:21:07.921Z</time></trkpt><trkpt lat="43.467605" lon="12.6270568"><ele>386.0</ele><time>2026-04-19T09:21:08.921Z</time></trkpt><trkpt lat="43.4677805" lon="12.6269518"><ele>388.0</ele><time>2026-04-19T09:21:09.922Z</time></trkpt><trkpt lat="43.4679542" lon="12.626848"><ele>392.5</ele><time>2026-04-19T09:21:10.922Z</time></trkpt><trkpt lat="43.4681269" lon="12.6267416"><ele>397.0</ele><time>2026-04-19T09:21:11.921Z</time></trkpt><trkpt lat="43.4723988" lon="12.6242609"><ele>387.0</ele><time>2026-04-19T09:21:32.921Z</time></trkpt><trkpt lat="43.4725925" lon="12.6241894"><ele>377.0</ele><time>2026-04-19T09:21:33.92Z</time></trkpt><trkpt lat="43.4727809" lon="12.6241618"><ele>367.0</ele><time>2026-04-19T09:21:34.921Z</time></trkpt><trkpt lat="43.472966" lon="12.6241477"><ele>367.0</ele><time>2026-04-19T09:21:35.921Z</time></trkpt><trkpt lat="43.4731527" lon="12.6241431"><ele>367.0</ele><time>2026-04-19T09:21:36.922Z</time></trkpt><trkpt lat="43.4733475" lon="12.6241374"><ele>367.0</ele><time>2026-04-19T09:21:37.921Z</time></trkpt><trkpt lat="43.4735406" lon="12.6241448"><ele>367.0</ele><time>2026-04-19T09:21:38.922Z</time></trkpt><trkpt lat="43.4737315" lon="12.6241638"><ele>367.0</ele><time>2026-04-19T09:21:39.921Z</time></trkpt><trkpt lat="43.4739267" lon="12.6241854"><ele>367.0</ele><time>2026-04-19T09:21:40.922Z</time></trkpt><trkpt lat="43.4741214" lon="12.6242112"><ele>360.0</ele><time>2026-04-19T09:21:41.922Z</time></trkpt><trkpt lat="43.475457" lon="12.62434"><ele>360.0</ele><time>2026-04-19T09:21:47.92Z</time></trkpt><trkpt lat="43.4756316" lon="12.6243224"><ele>360.0</ele><time>2026-04-19T09:21:48.921Z</time></trkpt><trkpt lat="43.4758274" lon="12.6242909"><ele>360.0</ele><time>2026-04-19T09:21:49.92Z</time></trkpt><trkpt lat="43.4760222" lon="12.6242467"><ele>360.0</ele><time>2026-04-19T09:21:50.921Z</time></trkpt><trkpt lat="43.4762106" lon="12.6241916"><ele>360.0</ele><time>2026-04-19T09:21:51.922Z</time></trkpt><trkpt lat="43.4764099" lon="12.6241242"><ele>360.0</ele><time>2026-04-19T09:21:52.921Z</time></trkpt><trkpt lat="43.4766094" lon="12.6240381"><ele>358.3333333333333</ele><time>2026-04-19T09:21:53.921Z</time></trkpt><trkpt lat="43.4768066" lon="12.6239281"><ele>356.66666666666663</ele><time>2026-04-19T09:21:54.922Z</time></trkpt><trkpt lat="43.4769974" lon="12.6238041"><ele>355.0</ele><time>2026-04-19T09:21:55.922Z</time></trkpt><trkpt lat="43.4771816" lon="12.6236752"><ele>355.0</ele><time>2026-04-19T09:21:56.921Z</time></trkpt><trkpt lat="43.4773648" lon="12.6235383"><ele>355.0</ele><time>2026-04-19T09:21:57.92Z</time></trkpt><trkpt lat="43.477542" lon="12.6233998"><ele>355.0</ele><time>2026-04-19T09:21:58.92Z</time></trkpt><trkpt lat="43.4777165" lon="12.6232614"><ele>355.0</ele><time>2026-04-19T09:21:59.92Z</time></trkpt><trkpt lat="43.4778824" lon="12.6231214"><ele>355.0</ele><time>2026-04-19T09:22:00.922Z</time></trkpt><trkpt lat="43.4780502" lon="12.6229829"><ele>355.0</ele><time>2026-04-19T09:22:01.921Z</time></trkpt><trkpt lat="43.4782206" lon="12.6228465"><ele>354.3333333333333</ele><time>2026-04-19T09:22:02.92Z</time></trkpt><trkpt lat="43.4783943" lon="12.62271"><ele>353.6666666666667</ele><time>2026-04-19T09:22:03.922Z</time></trkpt><trkpt lat="43.478565" lon="12.6225718"><ele>353.0</ele><time>2026-04-19T09:22:04.92Z</time></trkpt><trkpt lat="43.4787399" lon="12.6224339"><ele>352.6666666666667</ele><time>2026-04-19T09:22:05.922Z</time></trkpt><trkpt lat="43.478919" lon="12.622297"><ele>352.3333333333333</ele><time>2026-04-19T09:22:06.922Z</time></trkpt><trkpt lat="43.479095" lon="12.6221659"><ele>352.0</ele><time>2026-04-19T09:22:07.921Z</time></trkpt><trkpt lat="43.4792731" lon="12.6220428"><ele>351.3333333333333</ele><time>2026-04-19T09:22:08.92Z</time></trkpt><trkpt lat="43.4794491" lon="12.6219271"><ele>350.6666666666667</ele><time>2026-04-19T09:22:09.92Z</time></trkpt><trkpt lat="43.4796276" lon="12.6218125"><ele>350.0</ele><time>2026-04-19T09:22:10.921Z</time></trkpt><trkpt lat="43.4798129" lon="12.6217002"><ele>350.0</ele><time>2026-04-19T09:22:11.92Z</time></trkpt><trkpt lat="43.4800005" lon="12.6215949"><ele>350.0</ele><time>2026-04-19T09:22:12.92Z</time></trkpt><trkpt lat="43.4801859" lon="12.6214966"><ele>350.0</ele><time>2026-04-19T09:22:13.922Z</time></trkpt><trkpt lat="43.4803721" lon="12.6214007"><ele>349.33333333333337</ele><time>2026-04-19T09:22:14.92Z</time></trkpt><trkpt lat="43.4805593" lon="12.6213184"><ele>348.6666666666667</ele><time>2026-04-19T09:22:15.92Z</time></trkpt><trkpt lat="43.4807504" lon="12.6212427"><ele>348.0</ele><time>2026-04-19T09:22:16.921Z</time></trkpt><trkpt lat="43.480947" lon="12.6211648"><ele>349.3333333333333</ele><time>2026-04-19T09:22:17.921Z</time></trkpt><trkpt lat="43.4811473" lon="12.6210836"><ele>350.66666666666663</ele><time>2026-04-19T09:22:18.922Z</time></trkpt><trkpt lat="43.4813582" lon="12.6210028"><ele>352.0</ele><time>2026-04-19T09:22:19.922Z</time></trkpt><trkpt lat="43.4815761" lon="12.6209231"><ele>352.0</ele><time>2026-04-19T09:22:20.921Z</time></trkpt><trkpt lat="43.4817959" lon="12.6208526"><ele>352.0</ele><time>2026-04-19T09:22:21.922Z</time></trkpt><trkpt lat="43.4820073" lon="12.6207888"><ele>352.0</ele><time>2026-04-19T09:22:22.921Z</time></trkpt><trkpt lat="43.4822164" lon="12.6207267"><ele>351.66666666666663</ele><time>2026-04-19T09:22:23.922Z</time></trkpt><trkpt lat="43.4823982" lon="12.6206791"><ele>351.3333333333333</ele><time>2026-04-19T09:22:24.922Z</time></trkpt><trkpt lat="43.4825954" lon="12.6206264"><ele>351.0</ele><time>2026-04-19T09:22:25.92Z</time></trkpt><trkpt lat="43.4827909" lon="12.6205747"><ele>350.0</ele><time>2026-04-19T09:22:26.922Z</time></trkpt><trkpt lat="43.4829944" lon="12.6205234"><ele>349.0</ele><time>2026-04-19T09:22:27.922Z</time></trkpt><trkpt lat="43.4831926" lon="12.6204703"><ele>348.0</ele><time>2026-04-19T09:22:28.922Z</time></trkpt><trkpt lat="43.4833912" lon="12.6204182"><ele>348.0</ele><time>2026-04-19T09:22:29.922Z</time></trkpt><trkpt lat="43.4835913" lon="12.6203687"><ele>348.0</ele><time>2026-04-19T09:22:30.921Z</time></trkpt><trkpt lat="43.4837956" lon="12.6203235"><ele>348.0</ele><time>2026-04-19T09:22:31.92Z</time></trkpt><trkpt lat="43.484001" lon="12.6202802"><ele>346.3333333333333</ele><time>2026-04-19T09:22:32.922Z</time></trkpt><trkpt lat="43.4842099" lon="12.6202389"><ele>344.66666666666663</ele><time>2026-04-19T09:22:33.922Z</time></trkpt><trkpt lat="43.4844181" lon="12.620197"><ele>343.0</ele><time>2026-04-19T09:22:34.92Z</time></trkpt><trkpt lat="43.4846296" lon="12.620157"><ele>342.66666666666663</ele><time>2026-04-19T09:22:35.921Z</time></trkpt><trkpt lat="43.484845" lon="12.6201258"><ele>342.3333333333333</ele><time>2026-04-19T09:22:36.921Z</time></trkpt><trkpt lat="43.4850628" lon="12.6200982"><ele>342.0</ele><time>2026-04-19T09:22:37.921Z</time></trkpt><trkpt lat="43.4852804" lon="12.6200771"><ele>342.0</ele><time>2026-04-19T09:22:38.921Z</time></trkpt><trkpt lat="43.4855024" lon="12.6200586"><ele>342.0</ele><time>2026-04-19T09:22:39.921Z</time></trkpt><trkpt lat="43.4857251" lon="12.6200487"><ele>342.0</ele><time>2026-04-19T09:22:40.92Z</time></trkpt><trkpt lat="43.4859477" lon="12.6200512"><ele>342.0</ele><time>2026-04-19T09:22:41.92Z</time></trkpt><trkpt lat="43.4861693" lon="12.6200617"><ele>342.0</ele><time>2026-04-19T09:22:42.921Z</time></trkpt><trkpt lat="43.4863836" lon="12.620079"><ele>342.0</ele><time>2026-04-19T09:22:43.921Z</time></trkpt><trkpt lat="43.4865961" lon="12.6201072"><ele>342.3333333333333</ele><time>2026-04-19T09:22:44.921Z</time></trkpt><trkpt lat="43.486812" lon="12.6201505"><ele>342.66666666666663</ele><time>2026-04-19T09:22:45.921Z</time></trkpt><trkpt lat="43.4870176" lon="12.6201985"><ele>343.0</ele><time>2026-04-19T09:22:46.92Z</time></trkpt><trkpt lat="43.4872163" lon="12.620254"><ele>342.3333333333333</ele><time>2026-04-19T09:22:47.921Z</time></trkpt><trkpt lat="43.4874012" lon="12.6203156"><ele>341.6666666666667</ele><time>2026-04-19T09:22:48.92Z</time></trkpt><trkpt lat="43.4875794" lon="12.620384"><ele>341.0</ele><time>2026-04-19T09:22:49.922Z</time></trkpt><trkpt lat="43.4877548" lon="12.6204559"><ele>341.0</ele><time>2026-04-19T09:22:50.921Z</time></trkpt><trkpt lat="43.4879261" lon="12.6205346"><ele>341.0</ele><time>2026-04-19T09:22:51.921Z</time></trkpt><trkpt lat="43.4880957" lon="12.6206227"><ele>341.0</ele><time>2026-04-19T09:22:52.921Z</time></trkpt><trkpt lat="43.4882665" lon="12.620722"><ele>341.0</ele><time>2026-04-19T09:22:53.92Z</time></trkpt><trkpt lat="43.488438" lon="12.6208333"><ele>341.0</ele><time>2026-04-19T09:22:54.921Z</time></trkpt><trkpt lat="43.4886128" lon="12.6209578"><ele>341.0</ele><time>2026-04-19T09:22:55.922Z</time></trkpt><trkpt lat="43.4887906" lon="12.6210964"><ele>346.33333333333337</ele><time>2026-04-19T09:22:56.922Z</time></trkpt><trkpt lat="43.488967" lon="12.6212486"><ele>351.6666666666667</ele><time>2026-04-19T09:22:57.921Z</time></trkpt><trkpt lat="43.4891369" lon="12.6214075"><ele>357.0</ele><time>2026-04-19T09:22:58.922Z</time></trkpt><trkpt lat="43.489299" lon="12.6215744"><ele>357.0</ele><time>2026-04-19T09:22:59.922Z</time></trkpt><trkpt lat="43.4894543" lon="12.621738"><ele>357.0</ele><time>2026-04-19T09:23:00.922Z</time></trkpt><trkpt lat="43.4896101" lon="12.6219003"><ele>357.0</ele><time>2026-04-19T09:23:01.922Z</time></trkpt><trkpt lat="43.4897667" lon="12.6220555"><ele>358.3333333333333</ele><time>2026-04-19T09:23:02.921Z</time></trkpt><trkpt lat="43.4899212" lon="12.6222013"><ele>359.66666666666663</ele><time>2026-04-19T09:23:03.921Z</time></trkpt><trkpt lat="43.4900807" lon="12.6223404"><ele>361.0</ele><time>2026-04-19T09:23:04.922Z</time></trkpt><trkpt lat="43.4902429" lon="12.6224735"><ele>361.0</ele><time>2026-04-19T09:23:05.92Z</time></trkpt><trkpt lat="43.4904128" lon="12.6225892"><ele>361.0</ele><time>2026-04-19T09:23:06.922Z</time></trkpt><trkpt lat="43.4905941" lon="12.622693"><ele>361.0</ele><time>2026-04-19T09:23:07.921Z</time></trkpt><trkpt lat="43.4907841" lon="12.622791"><ele>362.66666666666663</ele><time>2026-04-19T09:23:08.921Z</time></trkpt><trkpt lat="43.4909744" lon="12.6228711"><ele>364.3333333333333</ele><time>2026-04-19T09:23:09.921Z</time></trkpt><trkpt lat="43.4911584" lon="12.622926"><ele>366.0</ele><time>2026-04-19T09:23:10.921Z</time></trkpt><trkpt lat="43.4913532" lon="12.6229696"><ele>366.0</ele><time>2026-04-19T09:23:11.921Z</time></trkpt><trkpt lat="43.4915399" lon="12.6230047"><ele>366.0</ele><time>2026-04-19T09:23:12.921Z</time></trkpt><trkpt lat="43.491735" lon="12.6230398"><ele>366.0</ele><time>2026-04-19T09:23:13.92Z</time></trkpt><trkpt lat="43.4919217" lon="12.6230744"><ele>364.0</ele><time>2026-04-19T09:23:14.921Z</time></trkpt><trkpt lat="43.4921048" lon="12.6231127"><ele>362.0</ele><time>2026-04-19T09:23:15.92Z</time></trkpt><trkpt lat="43.4922892" lon="12.6231663"><ele>360.0</ele><time>2026-04-19T09:23:16.922Z</time></trkpt><trkpt lat="43.4924748" lon="12.6232258"><ele>360.0</ele><time>2026-04-19T09:23:17.921Z</time></trkpt><trkpt lat="43.4926618" lon="12.6232996"><ele>360.0</ele><time>2026-04-19T09:23:18.92Z</time></trkpt><trkpt lat="43.4928436" lon="12.6233895"><ele>360.0</ele><time>2026-04-19T09:23:19.921Z</time></trkpt><trkpt lat="43.4930197" lon="12.6234989"><ele>356.3333333333333</ele><time>2026-04-19T09:23:20.921Z</time></trkpt><trkpt lat="43.4931916" lon="12.6236253"><ele>352.66666666666663</ele><time>2026-04-19T09:23:21.921Z</time></trkpt><trkpt lat="43.49336" lon="12.6237627"><ele>349.0</ele><time>2026-04-19T09:23:22.92Z</time></trkpt><trkpt lat="43.4935241" lon="12.6239151"><ele>349.66666666666663</ele><time>2026-04-19T09:23:23.92Z</time></trkpt><trkpt lat="43.4936852" lon="12.6240817"><ele>350.3333333333333</ele><time>2026-04-19T09:23:24.92Z</time></trkpt><trkpt lat="43.4938383" lon="12.624271"><ele>351.0</ele><time>2026-04-19T09:23:25.921Z</time></trkpt><trkpt lat="43.4939843" lon="12.624468"><ele>350.3333333333333</ele><time>2026-04-19T09:23:26.921Z</time></trkpt><trkpt lat="43.4941157" lon="12.624669"><ele>349.66666666666663</ele><time>2026-04-19T09:23:27.921Z</time></trkpt><trkpt lat="43.4942354" lon="12.6248697"><ele>349.0</ele><time>2026-04-19T09:23:28.921Z</time></trkpt><trkpt lat="43.4943472" lon="12.6250677"><ele>349.0</ele><time>2026-04-19T09:23:29.92Z</time></trkpt><trkpt lat="43.494462" lon="12.6252724"><ele>349.0</ele><time>2026-04-19T09:23:30.92Z</time></trkpt><trkpt lat="43.4945811" lon="12.6254851"><ele>349.0</ele><time>2026-04-19T09:23:31.92Z</time></trkpt><trkpt lat="43.4947016" lon="12.6257079"><ele>348.3333333333333</ele><time>2026-04-19T09:23:32.921Z</time></trkpt><trkpt lat="43.4948289" lon="12.6259379"><ele>347.6666666666667</ele><time>2026-04-19T09:23:33.92Z</time></trkpt><trkpt lat="43.49496" lon="12.6261601"><ele>347.0</ele><time>2026-04-19T09:23:34.92Z</time></trkpt><trkpt lat="43.4950942" lon="12.6263835"><ele>351.6666666666667</ele><time>2026-04-19T09:23:35.921Z</time></trkpt><trkpt lat="43.4952353" lon="12.6266028"><ele>356.3333333333333</ele><time>2026-04-19T09:23:36.921Z</time></trkpt><trkpt lat="43.4953729" lon="12.6268122"><ele>361.0</ele><time>2026-04-19T09:23:37.921Z</time></trkpt><trkpt lat="43.4955124" lon="12.6270168"><ele>366.66666666666663</ele><time>2026-04-19T09:23:38.921Z</time></trkpt><trkpt lat="43.4956574" lon="12.6272087"><ele>372.3333333333333</ele><time>2026-04-19T09:23:39.92Z</time></trkpt><trkpt lat="43.4958071" lon="12.6273966"><ele>378.0</ele><time>2026-04-19T09:23:40.92Z</time></trkpt><trkpt lat="43.4975623" lon="12.6288903"><ele>368.3333333333333</ele><time>2026-04-19T09:23:50.92Z</time></trkpt><trkpt lat="43.4977564" lon="12.6289983"><ele>358.66666666666663</ele><time>2026-04-19T09:23:51.92Z</time></trkpt><trkpt lat="43.4979382" lon="12.6290861"><ele>349.0</ele><time>2026-04-19T09:23:52.921Z</time></trkpt><trkpt lat="43.4981174" lon="12.6291772"><ele>349.0</ele><time>2026-04-19T09:23:53.92Z</time></trkpt><trkpt lat="43.4982981" lon="12.6292688"><ele>349.0</ele><time>2026-04-19T09:23:54.92Z</time></trkpt><trkpt lat="43.4984777" lon="12.6293621"><ele>349.0</ele><time>2026-04-19T09:23:55.919Z</time></trkpt><trkpt lat="43.4986516" lon="12.6294664"><ele>348.0</ele><time>2026-04-19T09:23:56.92Z</time></trkpt><trkpt lat="43.4988386" lon="12.6295585"><ele>347.0</ele><time>2026-04-19T09:23:57.92Z</time></trkpt><trkpt lat="43.4990155" lon="12.6296716"><ele>346.0</ele><time>2026-04-19T09:23:58.919Z</time></trkpt><trkpt lat="43.4991882" lon="12.6297895"><ele>346.0</ele><time>2026-04-19T09:23:59.92Z</time></trkpt><trkpt lat="43.4993555" lon="12.6299147"><ele>346.0</ele><time>2026-04-19T09:24:00.919Z</time></trkpt><trkpt lat="43.4995244" lon="12.6300527"><ele>346.0</ele><time>2026-04-19T09:24:01.921Z</time></trkpt><trkpt lat="43.4996933" lon="12.6302074"><ele>343.66666666666663</ele><time>2026-04-19T09:24:02.921Z</time></trkpt><trkpt lat="43.4998585" lon="12.6303828"><ele>341.3333333333333</ele><time>2026-04-19T09:24:03.92Z</time></trkpt><trkpt lat="43.5000122" lon="12.6305721"><ele>339.0</ele><time>2026-04-19T09:24:04.92Z</time></trkpt><trkpt lat="43.5001625" lon="12.6307773"><ele>339.0</ele><time>2026-04-19T09:24:05.92Z</time></trkpt><trkpt lat="43.5003087" lon="12.6309901"><ele>339.0</ele><time>2026-04-19T09:24:06.92Z</time></trkpt><trkpt lat="43.500446" lon="12.6312183"><ele>339.0</ele><time>2026-04-19T09:24:07.921Z</time></trkpt><trkpt lat="43.5005713" lon="12.63146"><ele>337.6666666666667</ele><time>2026-04-19T09:24:08.919Z</time></trkpt><trkpt lat="43.5006869" lon="12.6317133"><ele>336.33333333333337</ele><time>2026-04-19T09:24:09.92Z</time></trkpt><trkpt lat="43.5007915" lon="12.6319697"><ele>335.0</ele><time>2026-04-19T09:24:10.92Z</time></trkpt><trkpt lat="43.5008999" lon="12.6322194"><ele>333.6666666666667</ele><time>2026-04-19T09:24:11.92Z</time></trkpt><trkpt lat="43.5009976" lon="12.6324628"><ele>332.3333333333333</ele><time>2026-04-19T09:24:12.92Z</time></trkpt><trkpt lat="43.5010896" lon="12.6327038"><ele>331.0</ele><time>2026-04-19T09:24:13.92Z</time></trkpt><trkpt lat="43.5011899" lon="12.6329325"><ele>336.0</ele><time>2026-04-19T09:24:14.92Z</time></trkpt><trkpt lat="43.5012887" lon="12.6331698"><ele>341.0</ele><time>2026-04-19T09:24:15.92Z</time></trkpt><trkpt lat="43.5013894" lon="12.6333988"><ele>346.0</ele><time>2026-04-19T09:24:16.921Z</time></trkpt><trkpt lat="43.5014938" lon="12.6336142"><ele>341.66666666666663</ele><time>2026-04-19T09:24:17.92Z</time></trkpt><trkpt lat="43.5016135" lon="12.6338251"><ele>337.3333333333333</ele><time>2026-04-19T09:24:18.92Z</time></trkpt><trkpt lat="43.5017301" lon="12.6340342"><ele>333.0</ele><time>2026-04-19T09:24:19.92Z</time></trkpt><trkpt lat="43.5018554" lon="12.6342439"><ele>333.0</ele><time>2026-04-19T09:24:20.92Z</time></trkpt><trkpt lat="43.5019963" lon="12.6344404"><ele>333.0</ele><time>2026-04-19T09:24:21.92Z</time></trkpt><trkpt lat="43.502155" lon="12.6346342"><ele>333.0</ele><time>2026-04-19T09:24:22.92Z</time></trkpt><trkpt lat="43.5023241" lon="12.6348077"><ele>331.3333333333333</ele><time>2026-04-19T09:24:23.92Z</time></trkpt><trkpt lat="43.5024995" lon="12.6349687"><ele>329.66666666666663</ele><time>2026-04-19T09:24:24.919Z</time></trkpt><trkpt lat="43.5026798" lon="12.635124"><ele>328.0</ele><time>2026-04-19T09:24:25.921Z</time></trkpt><trkpt lat="43.5028652" lon="12.6352667"><ele>328.0</ele><time>2026-04-19T09:24:26.92Z</time></trkpt><trkpt lat="43.5030511" lon="12.635386"><ele>328.0</ele><time>2026-04-19T09:24:27.92Z</time></trkpt><trkpt lat="43.5032347" lon="12.6354869"><ele>328.0</ele><time>2026-04-19T09:24:28.921Z</time></trkpt><trkpt lat="43.5034152" lon="12.6355729"><ele>328.0</ele><time>2026-04-19T09:24:29.921Z</time></trkpt><trkpt lat="43.5036075" lon="12.6356481"><ele>328.0</ele><time>2026-04-19T09:24:30.92Z</time></trkpt><trkpt lat="43.5037968" lon="12.6357189"><ele>328.0</ele><time>2026-04-19T09:24:31.921Z</time></trkpt><trkpt lat="43.5039864" lon="12.6357791"><ele>327.0</ele><time>2026-04-19T09:24:32.92Z</time></trkpt><trkpt lat="43.5041766" lon="12.6358347"><ele>326.0</ele><time>2026-04-19T09:24:33.921Z</time></trkpt><trkpt lat="43.504366" lon="12.6358844"><ele>325.0</ele><time>2026-04-19T09:24:34.921Z</time></trkpt><trkpt lat="43.504556" lon="12.635935"><ele>324.3333333333333</ele><time>2026-04-19T09:24:35.921Z</time></trkpt><trkpt lat="43.5047515" lon="12.6359877"><ele>323.6666666666667</ele><time>2026-04-19T09:24:36.92Z</time></trkpt><trkpt lat="43.5049516" lon="12.6360447"><ele>323.0</ele><time>2026-04-19T09:24:37.921Z</time></trkpt><trkpt lat="43.5051528" lon="12.6361024"><ele>324.6666666666667</ele><time>2026-04-19T09:24:38.92Z</time></trkpt><trkpt lat="43.5053545" lon="12.6361574"><ele>326.3333333333333</ele><time>2026-04-19T09:24:39.92Z</time></trkpt><trkpt lat="43.5055609" lon="12.6362168"><ele>328.0</ele><time>2026-04-19T09:24:40.919Z</time></trkpt><trkpt lat="43.5057633" lon="12.6362851"><ele>328.0</ele><time>2026-04-19T09:24:41.919Z</time></trkpt><trkpt lat="43.5059601" lon="12.6363466"><ele>328.0</ele><time>2026-04-19T09:24:42.92Z</time></trkpt><trkpt lat="43.5061597" lon="12.6364126"><ele>328.0</ele><time>2026-04-19T09:24:43.919Z</time></trkpt><trkpt lat="43.5063599" lon="12.6364809"><ele>325.66666666666663</ele><time>2026-04-19T09:24:44.92Z</time></trkpt><trkpt lat="43.5065615" lon="12.6365579"><ele>323.3333333333333</ele><time>2026-04-19T09:24:45.919Z</time></trkpt><trkpt lat="43.5067585" lon="12.636635"><ele>321.0</ele><time>2026-04-19T09:24:46.92Z</time></trkpt><trkpt lat="43.5069561" lon="12.6367218"><ele>320.0</ele><time>2026-04-19T09:24:47.92Z</time></trkpt><trkpt lat="43.5071438" lon="12.6368123"><ele>319.0</ele><time>2026-04-19T09:24:48.918Z</time></trkpt><trkpt lat="43.5073269" lon="12.6368978"><ele>318.0</ele><time>2026-04-19T09:24:49.919Z</time></trkpt><trkpt lat="43.5075033" lon="12.6369896"><ele>318.0</ele><time>2026-04-19T09:24:50.918Z</time></trkpt><trkpt lat="43.50768" lon="12.6370893"><ele>318.0</ele><time>2026-04-19T09:24:51.919Z</time></trkpt><trkpt lat="43.5078536" lon="12.6371913"><ele>318.0</ele><time>2026-04-19T09:24:52.918Z</time></trkpt><trkpt lat="43.5080223" lon="12.6372971"><ele>319.3333333333333</ele><time>2026-04-19T09:24:53.919Z</time></trkpt><trkpt lat="43.5081922" lon="12.6374118"><ele>320.66666666666663</ele><time>2026-04-19T09:24:54.919Z</time></trkpt><trkpt lat="43.5083694" lon="12.6375371"><ele>322.0</ele><time>2026-04-19T09:24:55.919Z</time></trkpt><trkpt lat="43.5085517" lon="12.6376697"><ele>321.0</ele><time>2026-04-19T09:24:56.92Z</time></trkpt><trkpt lat="43.5087336" lon="12.6378052"><ele>320.0</ele><time>2026-04-19T09:24:57.919Z</time></trkpt><trkpt lat="43.5089136" lon="12.6379475"><ele>319.0</ele><time>2026-04-19T09:24:58.92Z</time></trkpt><trkpt lat="43.5090839" lon="12.6380908"><ele>318.66666666666663</ele><time>2026-04-19T09:24:59.92Z</time></trkpt><trkpt lat="43.509247" lon="12.6382286"><ele>318.3333333333333</ele><time>2026-04-19T09:25:00.92Z</time></trkpt><trkpt lat="43.5094067" lon="12.6383703"><ele>318.0</ele><time>2026-04-19T09:25:01.92Z</time></trkpt><trkpt lat="43.5095736" lon="12.6385191"><ele>317.0</ele><time>2026-04-19T09:25:02.92Z</time></trkpt><trkpt lat="43.509748" lon="12.6386804"><ele>316.0</ele><time>2026-04-19T09:25:03.919Z</time></trkpt><trkpt lat="43.5099232" lon="12.6388423"><ele>315.0</ele><time>2026-04-19T09:25:04.918Z</time></trkpt><trkpt lat="43.5100971" lon="12.6390024"><ele>315.0</ele><time>2026-04-19T09:25:05.918Z</time></trkpt><trkpt lat="43.5102665" lon="12.639159"><ele>315.0</ele><time>2026-04-19T09:25:06.918Z</time></trkpt><trkpt lat="43.5104398" lon="12.6393192"><ele>315.0</ele><time>2026-04-19T09:25:07.919Z</time></trkpt><trkpt lat="43.5106221" lon="12.6394812"><ele>315.3333333333333</ele><time>2026-04-19T09:25:08.919Z</time></trkpt><trkpt lat="43.5107993" lon="12.6396291"><ele>315.66666666666663</ele><time>2026-04-19T09:25:09.92Z</time></trkpt><trkpt lat="43.5109818" lon="12.6397748"><ele>316.0</ele><time>2026-04-19T09:25:10.919Z</time></trkpt><trkpt lat="43.5111749" lon="12.6399224"><ele>315.5</ele><time>2026-04-19T09:25:11.919Z</time></trkpt><trkpt lat="43.5113784" lon="12.6400641"><ele>315.0</ele><time>2026-04-19T09:25:12.919Z</time></trkpt><trkpt lat="43.5115938" lon="12.6401982"><ele>327.0</ele><time>2026-04-19T09:25:13.92Z</time></trkpt><trkpt lat="43.5118189" lon="12.6403132"><ele>339.0</ele><time>2026-04-19T09:25:14.919Z</time></trkpt><trkpt lat="43.5120372" lon="12.6404073"><ele>339.0</ele><time>2026-04-19T09:25:15.92Z</time></trkpt><trkpt lat="43.5122537" lon="12.6404868"><ele>339.0</ele><time>2026-04-19T09:25:16.92Z</time></trkpt><trkpt lat="43.5124738" lon="12.6405461"><ele>339.0</ele><time>2026-04-19T09:25:17.919Z</time></trkpt><trkpt lat="43.5126882" lon="12.6405861"><ele>339.0</ele><time>2026-04-19T09:25:18.919Z</time></trkpt><trkpt lat="43.5128937" lon="12.6406075"><ele>339.0</ele><time>2026-04-19T09:25:19.919Z</time></trkpt><trkpt lat="43.5131099" lon="12.6406123"><ele>339.0</ele><time>2026-04-19T09:25:20.92Z</time></trkpt><trkpt lat="43.513324" lon="12.6405954"><ele>339.0</ele><time>2026-04-19T09:25:21.92Z</time></trkpt><trkpt lat="43.5135306" lon="12.6405741"><ele>339.0</ele><time>2026-04-19T09:25:22.92Z</time></trkpt><trkpt lat="43.5137287" lon="12.6405512"><ele>339.0</ele><time>2026-04-19T09:25:23.92Z</time></trkpt><trkpt lat="43.513924" lon="12.6405198"><ele>339.0</ele><time>2026-04-19T09:25:24.92Z</time></trkpt><trkpt lat="43.5141139" lon="12.6404824"><ele>339.0</ele><time>2026-04-19T09:25:25.92Z</time></trkpt><trkpt lat="43.5143021" lon="12.6404457"><ele>339.0</ele><time>2026-04-19T09:25:26.919Z</time></trkpt><trkpt lat="43.5144935" lon="12.6404133"><ele>326.0</ele><time>2026-04-19T09:25:27.919Z</time></trkpt><trkpt lat="43.5146848" lon="12.6403814"><ele>313.0</ele><time>2026-04-19T09:25:28.919Z</time></trkpt><trkpt lat="43.5168736" lon="12.6404976"><ele>311.66666666666663</ele><time>2026-04-19T09:25:38.92Z</time></trkpt><trkpt lat="43.5170828" lon="12.6405526"><ele>310.3333333333333</ele><time>2026-04-19T09:25:39.92Z</time></trkpt><trkpt lat="43.5172778" lon="12.6406265"><ele>309.0</ele><time>2026-04-19T09:25:40.919Z</time></trkpt><trkpt lat="43.5175055" lon="12.6406858"><ele>309.0</ele><time>2026-04-19T09:25:41.919Z</time></trkpt><trkpt lat="43.5177123" lon="12.6407693"><ele>309.0</ele><time>2026-04-19T09:25:42.919Z</time></trkpt><trkpt lat="43.5179153" lon="12.6408817"><ele>309.0</ele><time>2026-04-19T09:25:43.92Z</time></trkpt><trkpt lat="43.5181192" lon="12.6409975"><ele>306.0</ele><time>2026-04-19T09:25:44.919Z</time></trkpt><trkpt lat="43.5183268" lon="12.6411208"><ele>303.0</ele><time>2026-04-19T09:25:45.919Z</time></trkpt><trkpt lat="43.5185223" lon="12.6412499"><ele>300.0</ele><time>2026-04-19T09:25:46.919Z</time></trkpt><trkpt lat="43.5187086" lon="12.6413757"><ele>302.3333333333333</ele><time>2026-04-19T09:25:47.919Z</time></trkpt><trkpt lat="43.5188961" lon="12.6414958"><ele>304.66666666666663</ele><time>2026-04-19T09:25:48.919Z</time></trkpt><trkpt lat="43.5190782" lon="12.6416289"><ele>307.0</ele><time>2026-04-19T09:25:49.92Z</time></trkpt><trkpt lat="43.5192598" lon="12.641771"><ele>307.0</ele><time>2026-04-19T09:25:50.919Z</time></trkpt><trkpt lat="43.519439" lon="12.6419119"><ele>307.0</ele><time>2026-04-19T09:25:51.919Z</time></trkpt><trkpt lat="43.5196113" lon="12.6420427"><ele>307.0</ele><time>2026-04-19T09:25:52.919Z</time></trkpt><trkpt lat="43.519787" lon="12.6421734"><ele>305.66666666666663</ele><time>2026-04-19T09:25:53.919Z</time></trkpt><trkpt lat="43.519968" lon="12.6423082"><ele>304.3333333333333</ele><time>2026-04-19T09:25:54.919Z</time></trkpt><trkpt lat="43.5201514" lon="12.6424478"><ele>303.0</ele><time>2026-04-19T09:25:55.92Z</time></trkpt><trkpt lat="43.5203381" lon="12.6425883"><ele>304.0</ele><time>2026-04-19T09:25:56.919Z</time></trkpt><trkpt lat="43.5205281" lon="12.6427176"><ele>305.0</ele><time>2026-04-19T09:25:57.92Z</time></trkpt><trkpt lat="43.5207137" lon="12.6428343"><ele>306.0</ele><time>2026-04-19T09:25:58.92Z</time></trkpt><trkpt lat="43.5209005" lon="12.6429461"><ele>304.6666666666667</ele><time>2026-04-19T09:25:59.919Z</time></trkpt><trkpt lat="43.5210927" lon="12.6430474"><ele>303.33333333333337</ele><time>2026-04-19T09:26:00.918Z</time></trkpt><trkpt lat="43.5212963" lon="12.6431331"><ele>302.0</ele><time>2026-04-19T09:26:01.918Z</time></trkpt><trkpt lat="43.5215108" lon="12.6432008"><ele>302.0</ele><time>2026-04-19T09:26:02.918Z</time></trkpt><trkpt lat="43.521722" lon="12.6432536"><ele>302.0</ele><time>2026-04-19T09:26:03.918Z</time></trkpt><trkpt lat="43.5219342" lon="12.6432986"><ele>302.0</ele><time>2026-04-19T09:26:04.918Z</time></trkpt><trkpt lat="43.5221511" lon="12.6433175"><ele>303.0</ele><time>2026-04-19T09:26:05.918Z</time></trkpt><trkpt lat="43.5223613" lon="12.6433218"><ele>304.0</ele><time>2026-04-19T09:26:06.919Z</time></trkpt><trkpt lat="43.5225763" lon="12.6432998"><ele>305.0</ele><time>2026-04-19T09:26:07.918Z</time></trkpt><trkpt lat="43.522787" lon="12.6432691"><ele>301.6666666666667</ele><time>2026-04-19T09:26:08.919Z</time></trkpt><trkpt lat="43.5229934" lon="12.6432173"><ele>298.3333333333333</ele><time>2026-04-19T09:26:09.918Z</time></trkpt><trkpt lat="43.5231965" lon="12.6431532"><ele>295.0</ele><time>2026-04-19T09:26:10.919Z</time></trkpt><trkpt lat="43.5233967" lon="12.643073"><ele>295.0</ele><time>2026-04-19T09:26:11.917Z</time></trkpt><trkpt lat="43.5235955" lon="12.6429764"><ele>295.0</ele><time>2026-04-19T09:26:12.917Z</time></trkpt><trkpt lat="43.5237998" lon="12.6428523"><ele>295.0</ele><time>2026-04-19T09:26:13.919Z</time></trkpt><trkpt lat="43.524002" lon="12.6427176"><ele>297.66666666666663</ele><time>2026-04-19T09:26:14.919Z</time></trkpt><trkpt lat="43.5241986" lon="12.6425735"><ele>300.3333333333333</ele><time>2026-04-19T09:26:15.918Z</time></trkpt><trkpt lat="43.524389" lon="12.6424201"><ele>303.0</ele><time>2026-04-19T09:26:16.917Z</time></trkpt><trkpt lat="43.5248668" lon="12.6419513"><ele>303.0</ele><time>2026-04-19T09:26:19.918Z</time></trkpt><trkpt lat="43.5250256" lon="12.6417843"><ele>303.0</ele><time>2026-04-19T09:26:20.919Z</time></trkpt><trkpt lat="43.5251895" lon="12.6416349"><ele>303.0</ele><time>2026-04-19T09:26:21.918Z</time></trkpt><trkpt lat="43.5253649" lon="12.6414729"><ele>305.6666666666667</ele><time>2026-04-19T09:26:22.918Z</time></trkpt><trkpt lat="43.5255419" lon="12.6413277"><ele>308.33333333333337</ele><time>2026-04-19T09:26:23.919Z</time></trkpt><trkpt lat="43.5257278" lon="12.6411953"><ele>311.0</ele><time>2026-04-19T09:26:24.918Z</time></trkpt><trkpt lat="43.5259202" lon="12.6410902"><ele>311.0</ele><time>2026-04-19T09:26:25.919Z</time></trkpt><trkpt lat="43.5261162" lon="12.6410095"><ele>311.0</ele><time>2026-04-19T09:26:26.919Z</time></trkpt><trkpt lat="43.5263243" lon="12.6409526"><ele>311.0</ele><time>2026-04-19T09:26:27.917Z</time></trkpt><trkpt lat="43.5265376" lon="12.6409216"><ele>311.33333333333337</ele><time>2026-04-19T09:26:28.918Z</time></trkpt><trkpt lat="43.5267516" lon="12.6409222"><ele>311.6666666666667</ele><time>2026-04-19T09:26:29.918Z</time></trkpt><trkpt lat="43.5269573" lon="12.6409496"><ele>312.0</ele><time>2026-04-19T09:26:30.918Z</time></trkpt><trkpt lat="43.5271539" lon="12.6409892"><ele>312.0</ele><time>2026-04-19T09:26:31.917Z</time></trkpt><trkpt lat="43.5273388" lon="12.6410516"><ele>312.0</ele><time>2026-04-19T09:26:32.918Z</time></trkpt><trkpt lat="43.5275061" lon="12.6411433"><ele>312.0</ele><time>2026-04-19T09:26:33.918Z</time></trkpt><trkpt lat="43.527663" lon="12.6412434"><ele>309.6666666666667</ele><time>2026-04-19T09:26:34.917Z</time></trkpt><trkpt lat="43.527817" lon="12.6413523"><ele>307.33333333333337</ele><time>2026-04-19T09:26:35.918Z</time></trkpt><trkpt lat="43.5279767" lon="12.6414727"><ele>305.0</ele><time>2026-04-19T09:26:36.919Z</time></trkpt><trkpt lat="43.5281376" lon="12.6416001"><ele>305.0</ele><time>2026-04-19T09:26:37.918Z</time></trkpt><trkpt lat="43.5283042" lon="12.6417319"><ele>305.0</ele><time>2026-04-19T09:26:38.918Z</time></trkpt><trkpt lat="43.5284731" lon="12.6418701"><ele>305.0</ele><time>2026-04-19T09:26:39.919Z</time></trkpt><trkpt lat="43.5286463" lon="12.6420095"><ele>302.0</ele><time>2026-04-19T09:26:40.919Z</time></trkpt><trkpt lat="43.5288176" lon="12.6421552"><ele>299.0</ele><time>2026-04-19T09:26:41.919Z</time></trkpt><trkpt lat="43.5289922" lon="12.6423024"><ele>296.0</ele><time>2026-04-19T09:26:42.919Z</time></trkpt><trkpt lat="43.529166" lon="12.642443"><ele>296.0</ele><time>2026-04-19T09:26:43.919Z</time></trkpt><trkpt lat="43.5293422" lon="12.6425835"><ele>296.0</ele><time>2026-04-19T09:26:44.918Z</time></trkpt><trkpt lat="43.5295262" lon="12.6427308"><ele>296.0</ele><time>2026-04-19T09:26:45.917Z</time></trkpt><trkpt lat="43.529713" lon="12.6428903"><ele>291.5</ele><time>2026-04-19T09:26:46.917Z</time></trkpt><trkpt lat="43.5299015" lon="12.6430551"><ele>287.0</ele><time>2026-04-19T09:26:47.918Z</time></trkpt><trkpt lat="43.530096" lon="12.6432254"><ele>287.0</ele><time>2026-04-19T09:26:48.917Z</time></trkpt><trkpt lat="43.5302832" lon="12.643398"><ele>287.0</ele><time>2026-04-19T09:26:49.919Z</time></trkpt><trkpt lat="43.5304613" lon="12.6435653"><ele>287.0</ele><time>2026-04-19T09:26:50.919Z</time></trkpt><trkpt lat="43.5306337" lon="12.6437417"><ele>288.6666666666667</ele><time>2026-04-19T09:26:51.919Z</time></trkpt><trkpt lat="43.5308004" lon="12.6439231"><ele>290.3333333333333</ele><time>2026-04-19T09:26:52.918Z</time></trkpt><trkpt lat="43.5309664" lon="12.6441145"><ele>292.0</ele><time>2026-04-19T09:26:53.918Z</time></trkpt><trkpt lat="43.5311244" lon="12.6442993"><ele>292.3333333333333</ele><time>2026-04-19T09:26:54.919Z</time></trkpt><trkpt lat="43.5312785" lon="12.6444785"><ele>292.6666666666667</ele><time>2026-04-19T09:26:55.918Z</time></trkpt><trkpt lat="43.5314307" lon="12.6446558"><ele>293.0</ele><time>2026-04-19T09:26:56.919Z</time></trkpt><trkpt lat="43.5315815" lon="12.6448346"><ele>293.0</ele><time>2026-04-19T09:26:57.919Z</time></trkpt><trkpt lat="43.5317285" lon="12.6450033"><ele>293.0</ele><time>2026-04-19T09:26:58.919Z</time></trkpt><trkpt lat="43.5318729" lon="12.6451714"><ele>293.0</ele><time>2026-04-19T09:26:59.919Z</time></trkpt><trkpt lat="43.5320155" lon="12.6453343"><ele>291.0</ele><time>2026-04-19T09:27:00.919Z</time></trkpt><trkpt lat="43.5321715" lon="12.6455003"><ele>289.0</ele><time>2026-04-19T09:27:01.919Z</time></trkpt><trkpt lat="43.532321" lon="12.6456612"><ele>287.0</ele><time>2026-04-19T09:27:02.919Z</time></trkpt><trkpt lat="43.5324871" lon="12.645795"><ele>287.0</ele><time>2026-04-19T09:27:03.917Z</time></trkpt><trkpt lat="43.5326525" lon="12.6459383"><ele>287.0</ele><time>2026-04-19T09:27:04.918Z</time></trkpt><trkpt lat="43.5328231" lon="12.6460709"><ele>287.0</ele><time>2026-04-19T09:27:05.918Z</time></trkpt><trkpt lat="43.5329984" lon="12.646193"><ele>283.33333333333337</ele><time>2026-04-19T09:27:06.919Z</time></trkpt><trkpt lat="43.5331767" lon="12.6463055"><ele>279.6666666666667</ele><time>2026-04-19T09:27:07.919Z</time></trkpt><trkpt lat="43.5333547" lon="12.646408"><ele>276.0</ele><time>2026-04-19T09:27:08.919Z</time></trkpt><trkpt lat="43.5335394" lon="12.6464908"><ele>276.0</ele><time>2026-04-19T09:27:09.918Z</time></trkpt><trkpt lat="43.533717" lon="12.6465664"><ele>276.0</ele><time>2026-04-19T09:27:10.917Z</time></trkpt><trkpt lat="43.5338996" lon="12.6466302"><ele>276.0</ele><time>2026-04-19T09:27:11.918Z</time></trkpt><trkpt lat="43.5340812" lon="12.6466834"><ele>276.3333333333333</ele><time>2026-04-19T09:27:12.918Z</time></trkpt><trkpt lat="43.5342579" lon="12.6467301"><ele>276.66666666666663</ele><time>2026-04-19T09:27:13.919Z</time></trkpt><trkpt lat="43.5344262" lon="12.6467599"><ele>277.0</ele><time>2026-04-19T09:27:14.918Z</time></trkpt><trkpt lat="43.5345918" lon="12.6467852"><ele>277.66666666666663</ele><time>2026-04-19T09:27:15.919Z</time></trkpt><trkpt lat="43.5347661" lon="12.6468005"><ele>278.3333333333333</ele><time>2026-04-19T09:27:16.919Z</time></trkpt><trkpt lat="43.5349516" lon="12.6467997"><ele>279.0</ele><time>2026-04-19T09:27:17.919Z</time></trkpt><trkpt lat="43.5351361" lon="12.6467941"><ele>279.0</ele><time>2026-04-19T09:27:18.917Z</time></trkpt><trkpt lat="43.5353066" lon="12.6467773"><ele>279.0</ele><time>2026-04-19T09:27:19.918Z</time></trkpt><trkpt lat="43.5354761" lon="12.646763"><ele>279.0</ele><time>2026-04-19T09:27:20.918Z</time></trkpt><trkpt lat="43.5356347" lon="12.646747"><ele>278.5</ele><time>2026-04-19T09:27:21.919Z</time></trkpt><trkpt lat="43.5357845" lon="12.646729"><ele>278.0</ele><time>2026-04-19T09:27:22.919Z</time></trkpt><trkpt lat="43.5359299" lon="12.6467052"><ele>277.5</ele><time>2026-04-19T09:27:23.919Z</time></trkpt><trkpt lat="43.5360666" lon="12.6466839"><ele>277.0</ele><time>2026-04-19T09:27:24.918Z</time></trkpt><trkpt lat="43.5362007" lon="12.6466743"><ele>278.0</ele><time>2026-04-19T09:27:25.918Z</time></trkpt><trkpt lat="43.5363303" lon="12.6466745"><ele>279.0</ele><time>2026-04-19T09:27:26.918Z</time></trkpt><trkpt lat="43.5364701" lon="12.6466809"><ele>280.0</ele><time>2026-04-19T09:27:27.919Z</time></trkpt><trkpt lat="43.5366073" lon="12.6466967"><ele>281.0</ele><time>2026-04-19T09:27:28.919Z</time></trkpt><trkpt lat="43.5367361" lon="12.6467324"><ele>281.0</ele><time>2026-04-19T09:27:29.919Z</time></trkpt><trkpt lat="43.5368571" lon="12.6467803"><ele>281.0</ele><time>2026-04-19T09:27:30.919Z</time></trkpt><trkpt lat="43.5369736" lon="12.6468372"><ele>281.0</ele><time>2026-04-19T09:27:31.919Z</time></trkpt><trkpt lat="43.537082" lon="12.6469005"><ele>281.0</ele><time>2026-04-19T09:27:32.918Z</time></trkpt><trkpt lat="43.537181" lon="12.6469568"><ele>280.40000000000003</ele><time>2026-04-19T09:27:33.918Z</time></trkpt><trkpt lat="43.5372446" lon="12.6469931"><ele>279.8</ele><time>2026-04-19T09:27:34.919Z</time></trkpt><trkpt lat="43.5373337" lon="12.647054"><ele>279.20000000000005</ele><time>2026-04-19T09:27:36.918Z</time></trkpt><trkpt lat="43.5373724" lon="12.6471606"><ele>278.6</ele><time>2026-04-19T09:27:39.918Z</time></trkpt><trkpt lat="43.5373975" lon="12.6473341"><ele>278.0</ele><time>2026-04-19T09:27:41.918Z</time></trkpt><trkpt lat="43.5374266" lon="12.6474305"><ele>278.0</ele><time>2026-04-19T09:27:42.919Z</time></trkpt><trkpt lat="43.5374658" lon="12.6475452"><ele>278.0</ele><time>2026-04-19T09:27:43.918Z</time></trkpt><trkpt lat="43.5375265" lon="12.6476648"><ele>278.0</ele><time>2026-04-19T09:27:44.918Z</time></trkpt><trkpt lat="43.5375956" lon="12.6477842"><ele>278.0</ele><time>2026-04-19T09:27:45.919Z</time></trkpt><trkpt lat="43.5376641" lon="12.6479272"><ele>278.0</ele><time>2026-04-19T09:27:46.918Z</time></trkpt><trkpt lat="43.5377169" lon="12.6480949"><ele>276.0</ele><time>2026-04-19T09:27:47.917Z</time></trkpt><trkpt lat="43.5377638" lon="12.6482767"><ele>274.0</ele><time>2026-04-19T09:27:48.918Z</time></trkpt><trkpt lat="43.5378146" lon="12.6484435"><ele>272.0</ele><time>2026-04-19T09:27:49.918Z</time></trkpt><trkpt lat="43.5378635" lon="12.648615"><ele>270.0</ele><time>2026-04-19T09:27:50.918Z</time></trkpt><trkpt lat="43.5379181" lon="12.6487858"><ele>270.0</ele><time>2026-04-19T09:27:51.919Z</time></trkpt><trkpt lat="43.537991" lon="12.6489507"><ele>270.0</ele><time>2026-04-19T09:27:52.917Z</time></trkpt><trkpt lat="43.5380833" lon="12.6491076"><ele>270.0</ele><time>2026-04-19T09:27:53.918Z</time></trkpt><trkpt lat="43.538183" lon="12.6492364"><ele>270.0</ele><time>2026-04-19T09:27:54.919Z</time></trkpt><trkpt lat="43.538292" lon="12.6493556"><ele>269.5</ele><time>2026-04-19T09:27:55.919Z</time></trkpt><trkpt lat="43.5384024" lon="12.6494643"><ele>269.0</ele><time>2026-04-19T09:27:56.918Z</time></trkpt><trkpt lat="43.5385207" lon="12.6495721"><ele>268.5</ele><time>2026-04-19T09:27:57.918Z</time></trkpt><trkpt lat="43.5386412" lon="12.6496765"><ele>268.0</ele><time>2026-04-19T09:27:58.918Z</time></trkpt><trkpt lat="43.5387609" lon="12.6497764"><ele>268.0</ele><time>2026-04-19T09:27:59.918Z</time></trkpt><trkpt lat="43.5388787" lon="12.6498713"><ele>268.0</ele><time>2026-04-19T09:28:00.918Z</time></trkpt><trkpt lat="43.5389983" lon="12.6499519"><ele>268.0</ele><time>2026-04-19T09:28:01.918Z</time></trkpt><trkpt lat="43.5391214" lon="12.6500132"><ele>268.0</ele><time>2026-04-19T09:28:02.919Z</time></trkpt><trkpt lat="43.5392512" lon="12.6500583"><ele>268.0</ele><time>2026-04-19T09:28:03.917Z</time></trkpt><trkpt lat="43.5393856" lon="12.650086"><ele>268.0</ele><time>2026-04-19T09:28:04.918Z</time></trkpt><trkpt lat="43.539517" lon="12.6500979"><ele>268.0</ele><time>2026-04-19T09:28:05.919Z</time></trkpt><trkpt lat="43.5396472" lon="12.6500928"><ele>268.0</ele><time>2026-04-19T09:28:06.919Z</time></trkpt><trkpt lat="43.5397783" lon="12.6500709"><ele>268.25</ele><time>2026-04-19T09:28:07.918Z</time></trkpt><trkpt lat="43.539908" lon="12.6500271"><ele>268.5</ele><time>2026-04-19T09:28:08.919Z</time></trkpt><trkpt lat="43.5400306" lon="12.6499579"><ele>268.75</ele><time>2026-04-19T09:28:09.918Z</time></trkpt><trkpt lat="43.5401468" lon="12.6498626"><ele>269.0</ele><time>2026-04-19T09:28:10.919Z</time></trkpt><trkpt lat="43.5402625" lon="12.6497535"><ele>269.0</ele><time>2026-04-19T09:28:11.918Z</time></trkpt><trkpt lat="43.5403726" lon="12.649628"><ele>269.0</ele><time>2026-04-19T09:28:12.918Z</time></trkpt><trkpt lat="43.5404795" lon="12.6495009"><ele>269.0</ele><time>2026-04-19T09:28:13.918Z</time></trkpt><trkpt lat="43.5405809" lon="12.64938"><ele>269.0</ele><time>2026-04-19T09:28:14.919Z</time></trkpt><trkpt lat="43.5406801" lon="12.6492577"><ele>268.5</ele><time>2026-04-19T09:28:15.918Z</time></trkpt><trkpt lat="43.5407835" lon="12.6491344"><ele>268.0</ele><time>2026-04-19T09:28:16.918Z</time></trkpt><trkpt lat="43.5408877" lon="12.6490153"><ele>267.5</ele><time>2026-04-19T09:28:17.919Z</time></trkpt><trkpt lat="43.5409967" lon="12.6489111"><ele>267.0</ele><time>2026-04-19T09:28:18.919Z</time></trkpt><trkpt lat="43.5411062" lon="12.6488463"><ele>265.5</ele><time>2026-04-19T09:28:19.919Z</time></trkpt><trkpt lat="43.5412285" lon="12.6488233"><ele>264.0</ele><time>2026-04-19T09:28:20.918Z</time></trkpt><trkpt lat="43.5413383" lon="12.6488146"><ele>262.5</ele><time>2026-04-19T09:28:21.918Z</time></trkpt><trkpt lat="43.5414547" lon="12.6488169"><ele>261.0</ele><time>2026-04-19T09:28:22.917Z</time></trkpt><trkpt lat="43.5415695" lon="12.6488198"><ele>261.0</ele><time>2026-04-19T09:28:23.918Z</time></trkpt><trkpt lat="43.5416873" lon="12.6488303"><ele>261.0</ele><time>2026-04-19T09:28:24.919Z</time></trkpt><trkpt lat="43.5418039" lon="12.6488376"><ele>261.0</ele><time>2026-04-19T09:28:25.918Z</time></trkpt><trkpt lat="43.5419258" lon="12.6488473"><ele>261.0</ele><time>2026-04-19T09:28:26.918Z</time></trkpt><trkpt lat="43.5420481" lon="12.6488571"><ele>259.2</ele><time>2026-04-19T09:28:27.918Z</time></trkpt><trkpt lat="43.542164" lon="12.6488636"><ele>257.40000000000003</ele><time>2026-04-19T09:28:28.918Z</time></trkpt><trkpt lat="43.5422787" lon="12.6488708"><ele>255.6</ele><time>2026-04-19T09:28:29.918Z</time></trkpt><trkpt lat="43.5423869" lon="12.6488738"><ele>253.8</ele><time>2026-04-19T09:28:30.918Z</time></trkpt><trkpt lat="43.5424861" lon="12.6488818"><ele>252.0</ele><time>2026-04-19T09:28:31.917Z</time></trkpt><trkpt lat="43.5425815" lon="12.6488886"><ele>252.0</ele><time>2026-04-19T09:28:32.918Z</time></trkpt><trkpt lat="43.5426684" lon="12.6489014"><ele>252.0</ele><time>2026-04-19T09:28:33.917Z</time></trkpt><trkpt lat="43.5427452" lon="12.6489456"><ele>252.0</ele><time>2026-04-19T09:28:34.919Z</time></trkpt><trkpt lat="43.5428018" lon="12.6490187"><ele>252.0</ele><time>2026-04-19T09:28:35.919Z</time></trkpt><trkpt lat="43.5428543" lon="12.64911"><ele>252.0</ele><time>2026-04-19T09:28:36.918Z</time></trkpt><trkpt lat="43.5429005" lon="12.6492183"><ele>252.0</ele><time>2026-04-19T09:28:37.917Z</time></trkpt><trkpt lat="43.54294" lon="12.6493584"><ele>253.6</ele><time>2026-04-19T09:28:38.919Z</time></trkpt><trkpt lat="43.5429802" lon="12.649509"><ele>255.2</ele><time>2026-04-19T09:28:39.919Z</time></trkpt><trkpt lat="43.5430116" lon="12.6496393"><ele>256.8</ele><time>2026-04-19T09:28:40.917Z</time></trkpt><trkpt lat="43.5430451" lon="12.6497688"><ele>258.4</ele><time>2026-04-19T09:28:41.919Z</time></trkpt><trkpt lat="43.5430784" lon="12.649883"><ele>260.0</ele><time>2026-04-19T09:28:42.918Z</time></trkpt><trkpt lat="43.5431359" lon="12.649991"><ele>260.0</ele><time>2026-04-19T09:28:43.918Z</time></trkpt><trkpt lat="43.5432161" lon="12.6500724"><ele>260.0</ele><time>2026-04-19T09:28:44.917Z</time></trkpt><trkpt lat="43.5432805" lon="12.6501316"><ele>260.0</ele><time>2026-04-19T09:28:45.918Z</time></trkpt><trkpt lat="43.5433783" lon="12.6501243"><ele>260.0</ele><time>2026-04-19T09:28:46.916Z</time></trkpt><trkpt lat="43.5434551" lon="12.6500938"><ele>260.0</ele><time>2026-04-19T09:28:47.918Z</time></trkpt><trkpt lat="43.5435221" lon="12.6500323"><ele>260.0</ele><time>2026-04-19T09:28:48.916Z</time></trkpt><trkpt lat="43.5435812" lon="12.6499484"><ele>260.0</ele><time>2026-04-19T09:28:49.917Z</time></trkpt><trkpt lat="43.5436372" lon="12.6498531"><ele>260.0</ele><time>2026-04-19T09:28:50.918Z</time></trkpt><trkpt lat="43.5436939" lon="12.6497496"><ele>260.0</ele><time>2026-04-19T09:28:51.917Z</time></trkpt><trkpt lat="43.5437446" lon="12.649662"><ele>260.0</ele><time>2026-04-19T09:28:52.917Z</time></trkpt><trkpt lat="43.5437971" lon="12.6495802"><ele>260.0</ele><time>2026-04-19T09:28:53.917Z</time></trkpt><trkpt lat="43.5438538" lon="12.6495138"><ele>260.0</ele><time>2026-04-19T09:28:54.916Z</time></trkpt><trkpt lat="43.5439065" lon="12.64946"><ele>261.8</ele><time>2026-04-19T09:28:55.918Z</time></trkpt><trkpt lat="43.5440001" lon="12.649392"><ele>263.6</ele><time>2026-04-19T09:28:57.917Z</time></trkpt><trkpt lat="43.5440048" lon="12.6493013"><ele>265.4</ele><time>2026-04-19T09:28:59.918Z</time></trkpt><trkpt lat="43.5439503" lon="12.6491914"><ele>267.2</ele><time>2026-04-19T09:29:02.917Z</time></trkpt><trkpt lat="43.543859" lon="12.6491769"><ele>269.0</ele><time>2026-04-19T09:29:03.918Z</time></trkpt><trkpt lat="43.5437258" lon="12.6491448"><ele>269.0</ele><time>2026-04-19T09:29:05.918Z</time></trkpt><trkpt lat="43.5436199" lon="12.6490918"><ele>269.0</ele><time>2026-04-19T09:29:06.917Z</time></trkpt><trkpt lat="43.5435339" lon="12.6490541"><ele>269.0</ele><time>2026-04-19T09:29:07.917Z</time></trkpt><trkpt lat="43.5434547" lon="12.6490187"><ele>269.0</ele><time>2026-04-19T09:29:08.917Z</time></trkpt><trkpt lat="43.5433551" lon="12.6489189"><ele>269.0</ele><time>2026-04-19T09:29:10.917Z</time></trkpt><trkpt lat="43.5433495" lon="12.6488243"><ele>269.0</ele><time>2026-04-19T09:29:11.916Z</time></trkpt><trkpt lat="43.5433495" lon="12.6487249"><ele>269.0</ele><time>2026-04-19T09:29:12.917Z</time></trkpt><trkpt lat="43.5433825" lon="12.6485831"><ele>269.0</ele><time>2026-04-19T09:29:13.918Z</time></trkpt><trkpt lat="43.5434161" lon="12.6484756"><ele>269.0</ele><time>2026-04-19T09:29:14.917Z</time></trkpt><trkpt lat="43.543451" lon="12.6483476"><ele>269.0</ele><time>2026-04-19T09:29:15.917Z</time></trkpt><trkpt lat="43.5434924" lon="12.6482095"><ele>269.8</ele><time>2026-04-19T09:29:16.916Z</time></trkpt><trkpt lat="43.5435212" lon="12.6480965"><ele>270.59999999999997</ele><time>2026-04-19T09:29:17.917Z</time></trkpt><trkpt lat="43.5435673" lon="12.6479566"><ele>271.4</ele><time>2026-04-19T09:29:18.918Z</time></trkpt><trkpt lat="43.5436108" lon="12.647832"><ele>272.2</ele><time>2026-04-19T09:29:19.916Z</time></trkpt><trkpt lat="43.5436448" lon="12.6477035"><ele>273.0</ele><time>2026-04-19T09:29:20.917Z</time></trkpt><trkpt lat="43.5436802" lon="12.6475707"><ele>274.0</ele><time>2026-04-19T09:29:21.917Z</time></trkpt><trkpt lat="43.5437071" lon="12.6474544"><ele>275.0</ele><time>2026-04-19T09:29:22.917Z</time></trkpt><trkpt lat="43.5437471" lon="12.6473775"><ele>276.0</ele><time>2026-04-19T09:29:23.917Z</time></trkpt><trkpt lat="43.5438124" lon="12.6472453"><ele>277.0</ele><time>2026-04-19T09:29:25.917Z</time></trkpt><trkpt lat="43.5438894" lon="12.6471489"><ele>278.0</ele><time>2026-04-19T09:29:27.917Z</time></trkpt><trkpt lat="43.5439947" lon="12.6471109"><ele>278.5</ele><time>2026-04-19T09:29:29.917Z</time></trkpt><trkpt lat="43.5440571" lon="12.6470857"><ele>279.0</ele><time>2026-04-19T09:29:30.917Z</time></trkpt><trkpt lat="43.5441548" lon="12.647021"><ele>279.5</ele><time>2026-04-19T09:29:32.918Z</time></trkpt><trkpt lat="43.5442476" lon="12.6469917"><ele>280.0</ele><time>2026-04-19T09:29:34.917Z</time></trkpt><trkpt lat="43.5443147" lon="12.646969"><ele>280.5</ele><time>2026-04-19T09:29:35.917Z</time></trkpt><trkpt lat="43.5443826" lon="12.6469474"><ele>281.0</ele><time>2026-04-19T09:29:36.918Z</time></trkpt><trkpt lat="43.5445204" lon="12.6469109"><ele>282.8</ele><time>2026-04-19T09:29:38.917Z</time></trkpt><trkpt lat="43.5446083" lon="12.6468766"><ele>284.6</ele><time>2026-04-19T09:29:39.917Z</time></trkpt><trkpt lat="43.5447016" lon="12.646844"><ele>286.4</ele><time>2026-04-19T09:29:40.917Z</time></trkpt><trkpt lat="43.5447839" lon="12.6468062"><ele>288.2</ele><time>2026-04-19T09:29:41.917Z</time></trkpt><trkpt lat="43.5448711" lon="12.6467647"><ele>290.0</ele><time>2026-04-19T09:29:42.918Z</time></trkpt><trkpt lat="43.5449605" lon="12.6467175"><ele>290.0</ele><time>2026-04-19T09:29:43.917Z</time></trkpt><trkpt lat="43.5450423" lon="12.6466729"><ele>290.0</ele><time>2026-04-19T09:29:44.917Z</time></trkpt><trkpt lat="43.5451373" lon="12.6466299"><ele>290.0</ele><time>2026-04-19T09:29:45.916Z</time></trkpt><trkpt lat="43.5452303" lon="12.6465907"><ele>290.0</ele><time>2026-04-19T09:29:46.918Z</time></trkpt><trkpt lat="43.5453295" lon="12.6465477"><ele>290.0</ele><time>2026-04-19T09:29:47.918Z</time></trkpt><trkpt lat="43.5454312" lon="12.6465073"><ele>288.6666666666667</ele><time>2026-04-19T09:29:48.917Z</time></trkpt><trkpt lat="43.5455251" lon="12.6464644"><ele>287.33333333333337</ele><time>2026-04-19T09:29:49.917Z</time></trkpt><trkpt lat="43.5456089" lon="12.6464338"><ele>286.0</ele><time>2026-04-19T09:29:50.917Z</time></trkpt><trkpt lat="43.5456825" lon="12.6464046"><ele>284.6666666666667</ele><time>2026-04-19T09:29:51.917Z</time></trkpt><trkpt lat="43.5457627" lon="12.6463786"><ele>283.3333333333333</ele><time>2026-04-19T09:29:52.917Z</time></trkpt><trkpt lat="43.5458368" lon="12.6463382"><ele>282.0</ele><time>2026-04-19T09:29:53.918Z</time></trkpt><trkpt lat="43.5459132" lon="12.6463241"><ele>282.0</ele><time>2026-04-19T09:29:54.916Z</time></trkpt><trkpt lat="43.5459718" lon="12.6462702"><ele>282.0</ele><time>2026-04-19T09:29:55.917Z</time></trkpt><trkpt lat="43.5460523" lon="12.6461333"><ele>282.0</ele><time>2026-04-19T09:29:57.918Z</time></trkpt><trkpt lat="43.546065" lon="12.6459225"><ele>282.0</ele><time>2026-04-19T09:29:59.916Z</time></trkpt><trkpt lat="43.5460557" lon="12.6457929"><ele>282.0</ele><time>2026-04-19T09:30:00.917Z</time></trkpt><trkpt lat="43.5460455" lon="12.6456685"><ele>281.6</ele><time>2026-04-19T09:30:01.916Z</time></trkpt><trkpt lat="43.5460318" lon="12.6455471"><ele>281.2</ele><time>2026-04-19T09:30:02.915Z</time></trkpt><trkpt lat="43.5460092" lon="12.6454134"><ele>280.8</ele><time>2026-04-19T09:30:03.916Z</time></trkpt><trkpt lat="43.5459753" lon="12.6452523"><ele>280.4</ele><time>2026-04-19T09:30:04.915Z</time></trkpt><trkpt lat="43.5459301" lon="12.6450904"><ele>280.0</ele><time>2026-04-19T09:30:05.916Z</time></trkpt><trkpt lat="43.5458801" lon="12.6449373"><ele>280.0</ele><time>2026-04-19T09:30:06.916Z</time></trkpt><trkpt lat="43.5458233" lon="12.6447967"><ele>280.0</ele><time>2026-04-19T09:30:07.915Z</time></trkpt><trkpt lat="43.5457591" lon="12.6446668"><ele>280.0</ele><time>2026-04-19T09:30:08.916Z</time></trkpt><trkpt lat="43.5456841" lon="12.6445359"><ele>280.0</ele><time>2026-04-19T09:30:09.915Z</time></trkpt><trkpt lat="43.545601" lon="12.6443991"><ele>278.0</ele><time>2026-04-19T09:30:10.916Z</time></trkpt><trkpt lat="43.5455099" lon="12.6442541"><ele>276.0</ele><time>2026-04-19T09:30:11.915Z</time></trkpt><trkpt lat="43.5454166" lon="12.6441063"><ele>274.0</ele><time>2026-04-19T09:30:12.915Z</time></trkpt><trkpt lat="43.5453232" lon="12.6439412"><ele>272.0</ele><time>2026-04-19T09:30:13.915Z</time></trkpt><trkpt lat="43.5452318" lon="12.6437898"><ele>273.75</ele><time>2026-04-19T09:30:14.916Z</time></trkpt><trkpt lat="43.5451318" lon="12.6436394"><ele>275.5</ele><time>2026-04-19T09:30:15.915Z</time></trkpt><trkpt lat="43.5450356" lon="12.6434858"><ele>277.25</ele><time>2026-04-19T09:30:16.916Z</time></trkpt><trkpt lat="43.5449384" lon="12.6433262"><ele>279.0</ele><time>2026-04-19T09:30:17.916Z</time></trkpt><trkpt lat="43.5448448" lon="12.6431599"><ele>279.0</ele><time>2026-04-19T09:30:18.916Z</time></trkpt><trkpt lat="43.5447423" lon="12.6429932"><ele>279.0</ele><time>2026-04-19T09:30:19.917Z</time></trkpt><trkpt lat="43.5446376" lon="12.6428172"><ele>279.0</ele><time>2026-04-19T09:30:20.917Z</time></trkpt><trkpt lat="43.544533" lon="12.6426484"><ele>283.3333333333333</ele><time>2026-04-19T09:30:21.916Z</time></trkpt><trkpt lat="43.5444275" lon="12.6424805"><ele>287.66666666666663</ele><time>2026-04-19T09:30:22.916Z</time></trkpt><trkpt lat="43.5443247" lon="12.6423122"><ele>292.0</ele><time>2026-04-19T09:30:23.916Z</time></trkpt><trkpt lat="43.5442163" lon="12.6421452"><ele>292.0</ele><time>2026-04-19T09:30:24.917Z</time></trkpt><trkpt lat="43.5441027" lon="12.6419671"><ele>292.0</ele><time>2026-04-19T09:30:25.916Z</time></trkpt><trkpt lat="43.5439861" lon="12.6417765"><ele>292.0</ele><time>2026-04-19T09:30:26.916Z</time></trkpt><trkpt lat="43.5438713" lon="12.6416013"><ele>293.66666666666663</ele><time>2026-04-19T09:30:27.916Z</time></trkpt><trkpt lat="43.5437535" lon="12.6414179"><ele>295.3333333333333</ele><time>2026-04-19T09:30:28.916Z</time></trkpt><trkpt lat="43.5436299" lon="12.6412372"><ele>297.0</ele><time>2026-04-19T09:30:29.915Z</time></trkpt><trkpt lat="43.5435087" lon="12.641055"><ele>293.0</ele><time>2026-04-19T09:30:30.916Z</time></trkpt><trkpt lat="43.5433739" lon="12.6408745"><ele>289.0</ele><time>2026-04-19T09:30:31.916Z</time></trkpt><trkpt lat="43.5432348" lon="12.6407022"><ele>285.0</ele><time>2026-04-19T09:30:32.915Z</time></trkpt><trkpt lat="43.5430927" lon="12.6405485"><ele>285.0</ele><time>2026-04-19T09:30:33.916Z</time></trkpt><trkpt lat="43.5429421" lon="12.6404037"><ele>285.0</ele><time>2026-04-19T09:30:34.915Z</time></trkpt><trkpt lat="43.542784" lon="12.6402614"><ele>285.0</ele><time>2026-04-19T09:30:35.916Z</time></trkpt><trkpt lat="43.5426185" lon="12.6401278"><ele>282.6666666666667</ele><time>2026-04-19T09:30:36.916Z</time></trkpt><trkpt lat="43.5424461" lon="12.6399968"><ele>280.33333333333337</ele><time>2026-04-19T09:30:37.917Z</time></trkpt><trkpt lat="43.5422831" lon="12.6398783"><ele>278.0</ele><time>2026-04-19T09:30:38.917Z</time></trkpt><trkpt lat="43.542122" lon="12.6397691"><ele>278.0</ele><time>2026-04-19T09:30:39.917Z</time></trkpt><trkpt lat="43.5419579" lon="12.6396589"><ele>278.0</ele><time>2026-04-19T09:30:40.917Z</time></trkpt><trkpt lat="43.5417919" lon="12.639546"><ele>278.0</ele><time>2026-04-19T09:30:41.916Z</time></trkpt><trkpt lat="43.5416216" lon="12.6394343"><ele>278.0</ele><time>2026-04-19T09:30:42.917Z</time></trkpt><trkpt lat="43.5414476" lon="12.639319"><ele>278.0</ele><time>2026-04-19T09:30:43.917Z</time></trkpt><trkpt lat="43.5412719" lon="12.6392013"><ele>278.0</ele><time>2026-04-19T09:30:44.917Z</time></trkpt><trkpt lat="43.5410896" lon="12.6390846"><ele>281.0</ele><time>2026-04-19T09:30:45.917Z</time></trkpt><trkpt lat="43.5409057" lon="12.6389632"><ele>284.0</ele><time>2026-04-19T09:30:46.917Z</time></trkpt><trkpt lat="43.5407233" lon="12.6388419"><ele>287.0</ele><time>2026-04-19T09:30:47.915Z</time></trkpt><trkpt lat="43.5405368" lon="12.6387179"><ele>285.6666666666667</ele><time>2026-04-19T09:30:48.916Z</time></trkpt><trkpt lat="43.540357" lon="12.6385881"><ele>284.3333333333333</ele><time>2026-04-19T09:30:49.916Z</time></trkpt><trkpt lat="43.5401888" lon="12.6384767"><ele>283.0</ele><time>2026-04-19T09:30:50.917Z</time></trkpt><trkpt lat="43.5400209" lon="12.6383845"><ele>283.0</ele><time>2026-04-19T09:30:51.917Z</time></trkpt><trkpt lat="43.5398462" lon="12.6383135"><ele>283.0</ele><time>2026-04-19T09:30:52.915Z</time></trkpt><trkpt lat="43.5396669" lon="12.6382703"><ele>283.0</ele><time>2026-04-19T09:30:53.916Z</time></trkpt><trkpt lat="43.5394918" lon="12.6382421"><ele>288.0</ele><time>2026-04-19T09:30:54.915Z</time></trkpt><trkpt lat="43.539333" lon="12.6382141"><ele>293.0</ele><time>2026-04-19T09:30:55.917Z</time></trkpt><trkpt lat="43.5391799" lon="12.6381707"><ele>298.0</ele><time>2026-04-19T09:30:56.916Z</time></trkpt><trkpt lat="43.539048" lon="12.6380904"><ele>298.0</ele><time>2026-04-19T09:30:57.916Z</time></trkpt><trkpt lat="43.5389279" lon="12.6379837"><ele>298.0</ele><time>2026-04-19T09:30:58.916Z</time></trkpt><trkpt lat="43.5388234" lon="12.637856"><ele>298.0</ele><time>2026-04-19T09:30:59.917Z</time></trkpt><trkpt lat="43.5387351" lon="12.6376924"><ele>298.0</ele><time>2026-04-19T09:31:00.916Z</time></trkpt><trkpt lat="43.5386736" lon="12.6375063"><ele>306.3333333333333</ele><time>2026-04-19T09:31:01.916Z</time></trkpt><trkpt lat="43.5386363" lon="12.6372998"><ele>314.6666666666667</ele><time>2026-04-19T09:31:02.915Z</time></trkpt><trkpt lat="43.5386215" lon="12.6370855"><ele>323.0</ele><time>2026-04-19T09:31:03.916Z</time></trkpt><trkpt lat="43.5386504" lon="12.6368838"><ele>323.6666666666667</ele><time>2026-04-19T09:31:04.916Z</time></trkpt><trkpt lat="43.5387017" lon="12.6366891"><ele>324.3333333333333</ele><time>2026-04-19T09:31:05.916Z</time></trkpt><trkpt lat="43.5387839" lon="12.6365001"><ele>325.0</ele><time>2026-04-19T09:31:06.915Z</time></trkpt><trkpt lat="43.5388883" lon="12.6363236"><ele>316.0</ele><time>2026-04-19T09:31:07.917Z</time></trkpt><trkpt lat="43.5389896" lon="12.6361316"><ele>307.0</ele><time>2026-04-19T09:31:08.916Z</time></trkpt><trkpt lat="43.5390924" lon="12.6359288"><ele>298.0</ele><time>2026-04-19T09:31:09.917Z</time></trkpt><trkpt lat="43.5391932" lon="12.6357149"><ele>298.0</ele><time>2026-04-19T09:31:10.917Z</time></trkpt><trkpt lat="43.5392872" lon="12.635478"><ele>298.0</ele><time>2026-04-19T09:31:11.915Z</time></trkpt><trkpt lat="43.5393765" lon="12.6352493"><ele>298.0</ele><time>2026-04-19T09:31:12.916Z</time></trkpt><trkpt lat="43.5394542" lon="12.6350145"><ele>298.3333333333333</ele><time>2026-04-19T09:31:13.917Z</time></trkpt><trkpt lat="43.5395405" lon="12.6347769"><ele>298.6666666666667</ele><time>2026-04-19T09:31:14.916Z</time></trkpt><trkpt lat="43.5396289" lon="12.6345354"><ele>299.0</ele><time>2026-04-19T09:31:15.917Z</time></trkpt><trkpt lat="43.5397229" lon="12.6343064"><ele>299.0</ele><time>2026-04-19T09:31:16.915Z</time></trkpt><trkpt lat="43.5398413" lon="12.6340826"><ele>299.0</ele><time>2026-04-19T09:31:17.916Z</time></trkpt><trkpt lat="43.5399595" lon="12.6338694"><ele>299.0</ele><time>2026-04-19T09:31:18.915Z</time></trkpt><trkpt lat="43.5400689" lon="12.6336579"><ele>304.6666666666667</ele><time>2026-04-19T09:31:19.916Z</time></trkpt><trkpt lat="43.5401608" lon="12.6334224"><ele>310.3333333333333</ele><time>2026-04-19T09:31:20.917Z</time></trkpt><trkpt lat="43.5402429" lon="12.6331669"><ele>316.0</ele><time>2026-04-19T09:31:21.916Z</time></trkpt><trkpt lat="43.5403131" lon="12.6329092"><ele>319.66666666666663</ele><time>2026-04-19T09:31:22.916Z</time></trkpt><trkpt lat="43.5403746" lon="12.6326594"><ele>323.3333333333333</ele><time>2026-04-19T09:31:23.917Z</time></trkpt><trkpt lat="43.5404397" lon="12.6324238"><ele>327.0</ele><time>2026-04-19T09:31:24.915Z</time></trkpt><trkpt lat="43.5405128" lon="12.6321922"><ele>318.6666666666667</ele><time>2026-04-19T09:31:25.916Z</time></trkpt><trkpt lat="43.5406063" lon="12.6319662"><ele>310.33333333333337</ele><time>2026-04-19T09:31:26.916Z</time></trkpt><trkpt lat="43.5407247" lon="12.6317591"><ele>302.0</ele><time>2026-04-19T09:31:27.916Z</time></trkpt><trkpt lat="43.5408623" lon="12.631557"><ele>302.0</ele><time>2026-04-19T09:31:28.916Z</time></trkpt><trkpt lat="43.541001" lon="12.6313458"><ele>302.0</ele><time>2026-04-19T09:31:29.915Z</time></trkpt><trkpt lat="43.5411425" lon="12.631121"><ele>302.0</ele><time>2026-04-19T09:31:30.917Z</time></trkpt><trkpt lat="43.5412791" lon="12.6308889"><ele>304.6666666666667</ele><time>2026-04-19T09:31:31.915Z</time></trkpt><trkpt lat="43.5413965" lon="12.6306521"><ele>307.3333333333333</ele><time>2026-04-19T09:31:32.916Z</time></trkpt><trkpt lat="43.5415105" lon="12.6304149"><ele>310.0</ele><time>2026-04-19T09:31:33.916Z</time></trkpt><trkpt lat="43.5416121" lon="12.6301726"><ele>310.0</ele><time>2026-04-19T09:31:34.915Z</time></trkpt><trkpt lat="43.5417087" lon="12.6299292"><ele>310.0</ele><time>2026-04-19T09:31:35.917Z</time></trkpt><trkpt lat="43.5418125" lon="12.6296868"><ele>310.0</ele><time>2026-04-19T09:31:36.916Z</time></trkpt><trkpt lat="43.5419021" lon="12.6294541"><ele>317.0</ele><time>2026-04-19T09:31:37.915Z</time></trkpt><trkpt lat="43.54199" lon="12.6292267"><ele>324.0</ele><time>2026-04-19T09:31:38.915Z</time></trkpt><trkpt lat="43.5420748" lon="12.6290144"><ele>331.0</ele><time>2026-04-19T09:31:39.914Z</time></trkpt><trkpt lat="43.5421558" lon="12.6288047"><ele>323.3333333333333</ele><time>2026-04-19T09:31:40.915Z</time></trkpt><trkpt lat="43.5422535" lon="12.6286083"><ele>315.6666666666667</ele><time>2026-04-19T09:31:41.916Z</time></trkpt><trkpt lat="43.5423775" lon="12.6284293"><ele>308.0</ele><time>2026-04-19T09:31:42.916Z</time></trkpt><trkpt lat="43.5425313" lon="12.6282699"><ele>308.0</ele><time>2026-04-19T09:31:43.916Z</time></trkpt><trkpt lat="43.5427109" lon="12.628129"><ele>308.0</ele><time>2026-04-19T09:31:44.915Z</time></trkpt><trkpt lat="43.5429042" lon="12.6280039"><ele>308.0</ele><time>2026-04-19T09:31:45.916Z</time></trkpt><trkpt lat="43.5430897" lon="12.6278998"><ele>312.0</ele><time>2026-04-19T09:31:46.916Z</time></trkpt><trkpt lat="43.5432727" lon="12.6278201"><ele>316.0</ele><time>2026-04-19T09:31:47.916Z</time></trkpt><trkpt lat="43.5434454" lon="12.6277849"><ele>320.0</ele><time>2026-04-19T09:31:48.916Z</time></trkpt><trkpt lat="43.5436167" lon="12.6277926"><ele>307.6666666666667</ele><time>2026-04-19T09:31:49.916Z</time></trkpt><trkpt lat="43.5437798" lon="12.6278237"><ele>295.3333333333333</ele><time>2026-04-19T09:31:50.914Z</time></trkpt><trkpt lat="43.5439324" lon="12.627855"><ele>283.0</ele><time>2026-04-19T09:31:51.915Z</time></trkpt><trkpt lat="43.5440669" lon="12.6278678"><ele>283.0</ele><time>2026-04-19T09:31:52.916Z</time></trkpt><trkpt lat="43.544194" lon="12.6278419"><ele>283.0</ele><time>2026-04-19T09:31:53.916Z</time></trkpt><trkpt lat="43.5443218" lon="12.6277721"><ele>283.0</ele><time>2026-04-19T09:31:54.915Z</time></trkpt><trkpt lat="43.5444435" lon="12.6276544"><ele>283.0</ele><time>2026-04-19T09:31:55.915Z</time></trkpt><trkpt lat="43.5445592" lon="12.6275073"><ele>285.66666666666663</ele><time>2026-04-19T09:31:56.916Z</time></trkpt><trkpt lat="43.5446849" lon="12.6273353"><ele>288.3333333333333</ele><time>2026-04-19T09:31:57.915Z</time></trkpt><trkpt lat="43.5448162" lon="12.6271665"><ele>291.0</ele><time>2026-04-19T09:31:58.915Z</time></trkpt><trkpt lat="43.5449495" lon="12.6270031"><ele>290.6666666666667</ele><time>2026-04-19T09:31:59.916Z</time></trkpt><trkpt lat="43.5451002" lon="12.6268433"><ele>290.33333333333337</ele><time>2026-04-19T09:32:00.916Z</time></trkpt><trkpt lat="43.5452661" lon="12.6266942"><ele>290.0</ele><time>2026-04-19T09:32:01.916Z</time></trkpt><trkpt lat="43.5454464" lon="12.6265575"><ele>290.0</ele><time>2026-04-19T09:32:02.915Z</time></trkpt><trkpt lat="43.5456205" lon="12.6264179"><ele>290.0</ele><time>2026-04-19T09:32:03.915Z</time></trkpt><trkpt lat="43.5457947" lon="12.626283"><ele>290.0</ele><time>2026-04-19T09:32:04.916Z</time></trkpt><trkpt lat="43.5459813" lon="12.626148"><ele>291.6666666666667</ele><time>2026-04-19T09:32:05.916Z</time></trkpt><trkpt lat="43.5461696" lon="12.626019"><ele>293.3333333333333</ele><time>2026-04-19T09:32:06.915Z</time></trkpt><trkpt lat="43.546358" lon="12.6259029"><ele>295.0</ele><time>2026-04-19T09:32:07.916Z</time></trkpt><trkpt lat="43.5465606" lon="12.6258"><ele>295.0</ele><time>2026-04-19T09:32:08.915Z</time></trkpt><trkpt lat="43.5467759" lon="12.6257083"><ele>295.0</ele><time>2026-04-19T09:32:09.915Z</time></trkpt><trkpt lat="43.5470027" lon="12.6256279"><ele>291.5</ele><time>2026-04-19T09:32:10.914Z</time></trkpt><trkpt lat="43.5472304" lon="12.6255633"><ele>288.0</ele><time>2026-04-19T09:32:11.915Z</time></trkpt><trkpt lat="43.547457" lon="12.6255118"><ele>288.0</ele><time>2026-04-19T09:32:12.916Z</time></trkpt><trkpt lat="43.5476882" lon="12.625465"><ele>288.0</ele><time>2026-04-19T09:32:13.916Z</time></trkpt><trkpt lat="43.5479243" lon="12.6254108"><ele>287.6666666666667</ele><time>2026-04-19T09:32:14.915Z</time></trkpt><trkpt lat="43.5481468" lon="12.6253562"><ele>287.33333333333337</ele><time>2026-04-19T09:32:15.916Z</time></trkpt><trkpt lat="43.5483606" lon="12.625309"><ele>287.0</ele><time>2026-04-19T09:32:16.915Z</time></trkpt><trkpt lat="43.5485611" lon="12.6252573"><ele>291.0</ele><time>2026-04-19T09:32:17.916Z</time></trkpt><trkpt lat="43.5487463" lon="12.6252121"><ele>295.0</ele><time>2026-04-19T09:32:18.916Z</time></trkpt><trkpt lat="43.5489168" lon="12.6251715"><ele>299.0</ele><time>2026-04-19T09:32:19.915Z</time></trkpt><trkpt lat="43.5490636" lon="12.6251184"><ele>299.0</ele><time>2026-04-19T09:32:20.915Z</time></trkpt><trkpt lat="43.5492006" lon="12.625049"><ele>299.0</ele><time>2026-04-19T09:32:21.916Z</time></trkpt><trkpt lat="43.5493262" lon="12.6249596"><ele>299.0</ele><time>2026-04-19T09:32:22.916Z</time></trkpt><trkpt lat="43.5494355" lon="12.6248283"><ele>299.0</ele><time>2026-04-19T09:32:23.916Z</time></trkpt><trkpt lat="43.5495327" lon="12.6246661"><ele>298.5</ele><time>2026-04-19T09:32:24.916Z</time></trkpt><trkpt lat="43.5496068" lon="12.6244924"><ele>298.0</ele><time>2026-04-19T09:32:25.915Z</time></trkpt><trkpt lat="43.5496485" lon="12.6243145"><ele>297.5</ele><time>2026-04-19T09:32:26.915Z</time></trkpt><trkpt lat="43.5496666" lon="12.6241293"><ele>297.0</ele><time>2026-04-19T09:32:27.915Z</time></trkpt><trkpt lat="43.5496626" lon="12.6239403"><ele>297.0</ele><time>2026-04-19T09:32:28.916Z</time></trkpt><trkpt lat="43.5496289" lon="12.623746"><ele>297.0</ele><time>2026-04-19T09:32:29.915Z</time></trkpt><trkpt lat="43.5495668" lon="12.6235455"><ele>297.0</ele><time>2026-04-19T09:32:30.915Z</time></trkpt><trkpt lat="43.5494934" lon="12.623334"><ele>300.0</ele><time>2026-04-19T09:32:31.916Z</time></trkpt><trkpt lat="43.5494092" lon="12.6231114"><ele>303.0</ele><time>2026-04-19T09:32:32.915Z</time></trkpt><trkpt lat="43.5493103" lon="12.6228744"><ele>306.0</ele><time>2026-04-19T09:32:33.916Z</time></trkpt><trkpt lat="43.5492217" lon="12.62265"><ele>306.0</ele><time>2026-04-19T09:32:34.915Z</time></trkpt><trkpt lat="43.5491348" lon="12.622441"><ele>306.0</ele><time>2026-04-19T09:32:35.916Z</time></trkpt><trkpt lat="43.5490491" lon="12.6222433"><ele>306.0</ele><time>2026-04-19T09:32:36.916Z</time></trkpt><trkpt lat="43.5489573" lon="12.62206"><ele>308.0</ele><time>2026-04-19T09:32:37.914Z</time></trkpt><trkpt lat="43.5488558" lon="12.6218891"><ele>310.0</ele><time>2026-04-19T09:32:38.916Z</time></trkpt><trkpt lat="43.5487322" lon="12.6217334"><ele>312.0</ele><time>2026-04-19T09:32:39.916Z</time></trkpt><trkpt lat="43.5485949" lon="12.6215858"><ele>312.0</ele><time>2026-04-19T09:32:40.915Z</time></trkpt><trkpt lat="43.5484475" lon="12.6214534"><ele>312.0</ele><time>2026-04-19T09:32:41.914Z</time></trkpt><trkpt lat="43.5483053" lon="12.6213315"><ele>312.0</ele><time>2026-04-19T09:32:42.915Z</time></trkpt><trkpt lat="43.5481709" lon="12.6212102"><ele>308.0</ele><time>2026-04-19T09:32:43.916Z</time></trkpt><trkpt lat="43.548049" lon="12.6210844"><ele>304.0</ele><time>2026-04-19T09:32:44.915Z</time></trkpt><trkpt lat="43.5479461" lon="12.6209407"><ele>300.0</ele><time>2026-04-19T09:32:45.915Z</time></trkpt><trkpt lat="43.547878" lon="12.62077"><ele>296.0</ele><time>2026-04-19T09:32:46.916Z</time></trkpt><trkpt lat="43.5478379" lon="12.6205682"><ele>304.6666666666667</ele><time>2026-04-19T09:32:47.916Z</time></trkpt><trkpt lat="43.547813" lon="12.6203502"><ele>313.3333333333333</ele><time>2026-04-19T09:32:48.916Z</time></trkpt><trkpt lat="43.5477878" lon="12.6201028"><ele>322.0</ele><time>2026-04-19T09:32:49.916Z</time></trkpt><trkpt lat="43.5477717" lon="12.6198522"><ele>322.0</ele><time>2026-04-19T09:32:50.916Z</time></trkpt><trkpt lat="43.5477644" lon="12.619603"><ele>322.0</ele><time>2026-04-19T09:32:51.914Z</time></trkpt><trkpt lat="43.5477748" lon="12.6193491"><ele>322.0</ele><time>2026-04-19T09:32:52.914Z</time></trkpt><trkpt lat="43.5477976" lon="12.6190978"><ele>320.66666666666663</ele><time>2026-04-19T09:32:53.915Z</time></trkpt><trkpt lat="43.5478242" lon="12.6188618"><ele>319.3333333333333</ele><time>2026-04-19T09:32:54.916Z</time></trkpt><trkpt lat="43.5478608" lon="12.6186416"><ele>318.0</ele><time>2026-04-19T09:32:55.916Z</time></trkpt><trkpt lat="43.5479182" lon="12.618442"><ele>312.3333333333333</ele><time>2026-04-19T09:32:56.916Z</time></trkpt><trkpt lat="43.5479963" lon="12.6182629"><ele>306.66666666666663</ele><time>2026-04-19T09:32:57.915Z</time></trkpt><trkpt lat="43.5480989" lon="12.6181133"><ele>301.0</ele><time>2026-04-19T09:32:58.916Z</time></trkpt><trkpt lat="43.5482233" lon="12.6179815"><ele>301.0</ele><time>2026-04-19T09:32:59.915Z</time></trkpt><trkpt lat="43.5483649" lon="12.6178707"><ele>301.0</ele><time>2026-04-19T09:33:00.915Z</time></trkpt><trkpt lat="43.5485201" lon="12.6177684"><ele>301.0</ele><time>2026-04-19T09:33:01.916Z</time></trkpt><trkpt lat="43.5486748" lon="12.6176668"><ele>300.75</ele><time>2026-04-19T09:33:02.915Z</time></trkpt><trkpt lat="43.548814" lon="12.6175699"><ele>300.5</ele><time>2026-04-19T09:33:03.915Z</time></trkpt><trkpt lat="43.5489412" lon="12.6174748"><ele>300.25</ele><time>2026-04-19T09:33:04.915Z</time></trkpt><trkpt lat="43.5490592" lon="12.6173521"><ele>300.0</ele><time>2026-04-19T09:33:05.916Z</time></trkpt><trkpt lat="43.5491208" lon="12.6172171"><ele>300.0</ele><time>2026-04-19T09:33:06.915Z</time></trkpt><trkpt lat="43.5491921" lon="12.6170732"><ele>300.0</ele><time>2026-04-19T09:33:07.916Z</time></trkpt><trkpt lat="43.5492563" lon="12.6169456"><ele>300.0</ele><time>2026-04-19T09:33:08.915Z</time></trkpt><trkpt lat="43.5493123" lon="12.6168224"><ele>300.0</ele><time>2026-04-19T09:33:09.914Z</time></trkpt><trkpt lat="43.5493625" lon="12.6167102"><ele>300.0</ele><time>2026-04-19T09:33:10.916Z</time></trkpt><trkpt lat="43.5494079" lon="12.6166033"><ele>300.3333333333333</ele><time>2026-04-19T09:33:11.914Z</time></trkpt><trkpt lat="43.5494455" lon="12.6165021"><ele>300.6666666666667</ele><time>2026-04-19T09:33:12.915Z</time></trkpt><trkpt lat="43.5494841" lon="12.6164125"><ele>301.0</ele><time>2026-04-19T09:33:13.914Z</time></trkpt><trkpt lat="43.549521" lon="12.6163358"><ele>301.33333333333337</ele><time>2026-04-19T09:33:14.915Z</time></trkpt><trkpt lat="43.5495593" lon="12.6162587"><ele>301.6666666666667</ele><time>2026-04-19T09:33:15.914Z</time></trkpt><trkpt lat="43.5495962" lon="12.616167"><ele>302.0</ele><time>2026-04-19T09:33:16.915Z</time></trkpt><trkpt lat="43.5496372" lon="12.6160614"><ele>302.0</ele><time>2026-04-19T09:33:17.915Z</time></trkpt><trkpt lat="43.5496833" lon="12.6159566"><ele>302.0</ele><time>2026-04-19T09:33:18.915Z</time></trkpt><trkpt lat="43.5497287" lon="12.6158569"><ele>302.0</ele><time>2026-04-19T09:33:19.916Z</time></trkpt><trkpt lat="43.5497763" lon="12.6157487"><ele>302.0</ele><time>2026-04-19T09:33:20.916Z</time></trkpt><trkpt lat="43.5498202" lon="12.6156467"><ele>302.0</ele><time>2026-04-19T09:33:21.915Z</time></trkpt><trkpt lat="43.5498623" lon="12.6155454"><ele>302.0</ele><time>2026-04-19T09:33:22.916Z</time></trkpt><trkpt lat="43.549901" lon="12.6154283"><ele>302.6</ele><time>2026-04-19T09:33:23.915Z</time></trkpt><trkpt lat="43.5499407" lon="12.6152949"><ele>303.2</ele><time>2026-04-19T09:33:24.916Z</time></trkpt><trkpt lat="43.5499686" lon="12.6151497"><ele>303.8</ele><time>2026-04-19T09:33:25.916Z</time></trkpt><trkpt lat="43.5499849" lon="12.6149972"><ele>304.4</ele><time>2026-04-19T09:33:26.916Z</time></trkpt><trkpt lat="43.5499834" lon="12.6148376"><ele>305.0</ele><time>2026-04-19T09:33:27.915Z</time></trkpt><trkpt lat="43.5499717" lon="12.6146643"><ele>307.6666666666667</ele><time>2026-04-19T09:33:28.916Z</time></trkpt><trkpt lat="43.5499431" lon="12.6144652"><ele>310.3333333333333</ele><time>2026-04-19T09:33:29.916Z</time></trkpt><trkpt lat="43.549905" lon="12.6142426"><ele>313.0</ele><time>2026-04-19T09:33:30.916Z</time></trkpt><trkpt lat="43.5498679" lon="12.614014"><ele>313.0</ele><time>2026-04-19T09:33:31.916Z</time></trkpt><trkpt lat="43.5498372" lon="12.6137524"><ele>313.0</ele><time>2026-04-19T09:33:32.916Z</time></trkpt><trkpt lat="43.549809" lon="12.6134833"><ele>313.0</ele><time>2026-04-19T09:33:33.916Z</time></trkpt><trkpt lat="43.5497771" lon="12.6132244"><ele>316.0</ele><time>2026-04-19T09:33:34.916Z</time></trkpt><trkpt lat="43.5497375" lon="12.6129645"><ele>319.0</ele><time>2026-04-19T09:33:35.916Z</time></trkpt><trkpt lat="43.5496921" lon="12.6127137"><ele>322.0</ele><time>2026-04-19T09:33:36.916Z</time></trkpt><trkpt lat="43.5496418" lon="12.6124669"><ele>324.3333333333333</ele><time>2026-04-19T09:33:37.915Z</time></trkpt><trkpt lat="43.5495729" lon="12.6122269"><ele>326.6666666666667</ele><time>2026-04-19T09:33:38.916Z</time></trkpt><trkpt lat="43.5494818" lon="12.611984"><ele>329.0</ele><time>2026-04-19T09:33:39.916Z</time></trkpt><trkpt lat="43.5493782" lon="12.6117466"><ele>328.0</ele><time>2026-04-19T09:33:40.916Z</time></trkpt><trkpt lat="43.5492732" lon="12.6115225"><ele>327.0</ele><time>2026-04-19T09:33:41.915Z</time></trkpt><trkpt lat="43.5491684" lon="12.6112956"><ele>326.0</ele><time>2026-04-19T09:33:42.916Z</time></trkpt><trkpt lat="43.5490578" lon="12.611063"><ele>326.0</ele><time>2026-04-19T09:33:43.916Z</time></trkpt><trkpt lat="43.5489514" lon="12.6108364"><ele>326.0</ele><time>2026-04-19T09:33:44.914Z</time></trkpt><trkpt lat="43.5488394" lon="12.6106033"><ele>326.0</ele><time>2026-04-19T09:33:45.914Z</time></trkpt><trkpt lat="43.5487323" lon="12.6103805"><ele>322.33333333333337</ele><time>2026-04-19T09:33:46.915Z</time></trkpt><trkpt lat="43.5486331" lon="12.610169"><ele>318.6666666666667</ele><time>2026-04-19T09:33:47.914Z</time></trkpt><trkpt lat="43.5485392" lon="12.609956"><ele>315.0</ele><time>2026-04-19T09:33:48.915Z</time></trkpt><trkpt lat="43.5484563" lon="12.609735"><ele>315.0</ele><time>2026-04-19T09:33:49.914Z</time></trkpt><trkpt lat="43.5483924" lon="12.6094975"><ele>315.0</ele><time>2026-04-19T09:33:50.916Z</time></trkpt><trkpt lat="43.5483427" lon="12.6092437"><ele>315.0</ele><time>2026-04-19T09:33:51.915Z</time></trkpt><trkpt lat="43.5483089" lon="12.6089876"><ele>317.0</ele><time>2026-04-19T09:33:52.916Z</time></trkpt><trkpt lat="43.548296" lon="12.6087419"><ele>319.0</ele><time>2026-04-19T09:33:53.915Z</time></trkpt><trkpt lat="43.5482988" lon="12.6085112"><ele>321.0</ele><time>2026-04-19T09:33:54.916Z</time></trkpt><trkpt lat="43.5483209" lon="12.6082854"><ele>321.3333333333333</ele><time>2026-04-19T09:33:55.916Z</time></trkpt><trkpt lat="43.5483511" lon="12.6080612"><ele>321.66666666666663</ele><time>2026-04-19T09:33:56.916Z</time></trkpt><trkpt lat="43.5483924" lon="12.6078387"><ele>322.0</ele><time>2026-04-19T09:33:57.915Z</time></trkpt><trkpt lat="43.5484349" lon="12.6076281"><ele>322.0</ele><time>2026-04-19T09:33:58.914Z</time></trkpt><trkpt lat="43.5484732" lon="12.6074238"><ele>322.0</ele><time>2026-04-19T09:33:59.916Z</time></trkpt><trkpt lat="43.5485136" lon="12.6072374"><ele>322.0</ele><time>2026-04-19T09:34:00.916Z</time></trkpt><trkpt lat="43.5485504" lon="12.6070673"><ele>322.0</ele><time>2026-04-19T09:34:01.916Z</time></trkpt><trkpt lat="43.5485859" lon="12.6069115"><ele>321.40000000000003</ele><time>2026-04-19T09:34:02.915Z</time></trkpt><trkpt lat="43.548609" lon="12.6067644"><ele>320.8</ele><time>2026-04-19T09:34:03.915Z</time></trkpt><trkpt lat="43.5486119" lon="12.6066272"><ele>320.2</ele><time>2026-04-19T09:34:04.915Z</time></trkpt><trkpt lat="43.5485898" lon="12.6064975"><ele>319.6</ele><time>2026-04-19T09:34:05.916Z</time></trkpt><trkpt lat="43.5485417" lon="12.6064064"><ele>319.0</ele><time>2026-04-19T09:34:06.916Z</time></trkpt><trkpt lat="43.548483" lon="12.6063305"><ele>319.0</ele><time>2026-04-19T09:34:07.916Z</time></trkpt><trkpt lat="43.5484243" lon="12.6062674"><ele>319.0</ele><time>2026-04-19T09:34:08.916Z</time></trkpt><trkpt lat="43.5483702" lon="12.6062072"><ele>319.0</ele><time>2026-04-19T09:34:09.915Z</time></trkpt><trkpt lat="43.5483171" lon="12.6061553"><ele>319.0</ele><time>2026-04-19T09:34:10.916Z</time></trkpt><trkpt lat="43.5482584" lon="12.6061"><ele>319.0</ele><time>2026-04-19T09:34:11.915Z</time></trkpt><trkpt lat="43.5481965" lon="12.6060391"><ele>319.0</ele><time>2026-04-19T09:34:12.916Z</time></trkpt><trkpt lat="43.5481291" lon="12.6059738"><ele>319.0</ele><time>2026-04-19T09:34:13.915Z</time></trkpt><trkpt lat="43.5480575" lon="12.6059019"><ele>318.59999999999997</ele><time>2026-04-19T09:34:14.916Z</time></trkpt><trkpt lat="43.5479808" lon="12.6058245"><ele>318.2</ele><time>2026-04-19T09:34:15.915Z</time></trkpt><trkpt lat="43.5478974" lon="12.6057403"><ele>317.79999999999995</ele><time>2026-04-19T09:34:16.915Z</time></trkpt><trkpt lat="43.5478097" lon="12.6056546"><ele>317.4</ele><time>2026-04-19T09:34:17.914Z</time></trkpt><trkpt lat="43.5477203" lon="12.6055793"><ele>317.0</ele><time>2026-04-19T09:34:18.914Z</time></trkpt><trkpt lat="43.5476283" lon="12.605508"><ele>317.0</ele><time>2026-04-19T09:34:19.915Z</time></trkpt><trkpt lat="43.547535" lon="12.6054411"><ele>317.0</ele><time>2026-04-19T09:34:20.915Z</time></trkpt><trkpt lat="43.5474399" lon="12.6053868"><ele>317.0</ele><time>2026-04-19T09:34:21.916Z</time></trkpt><trkpt lat="43.5473507" lon="12.6053412"><ele>317.0</ele><time>2026-04-19T09:34:22.915Z</time></trkpt><trkpt lat="43.547265" lon="12.6052968"><ele>317.0</ele><time>2026-04-19T09:34:23.915Z</time></trkpt><trkpt lat="43.5471706" lon="12.6052613"><ele>317.6</ele><time>2026-04-19T09:34:24.916Z</time></trkpt><trkpt lat="43.5470716" lon="12.6052266"><ele>318.2</ele><time>2026-04-19T09:34:25.915Z</time></trkpt><trkpt lat="43.5469762" lon="12.6051915"><ele>318.8</ele><time>2026-04-19T09:34:26.914Z</time></trkpt><trkpt lat="43.5468768" lon="12.60517"><ele>319.4</ele><time>2026-04-19T09:34:27.913Z</time></trkpt><trkpt lat="43.5467792" lon="12.6051568"><ele>320.0</ele><time>2026-04-19T09:34:28.914Z</time></trkpt><trkpt lat="43.546687" lon="12.605157"><ele>320.0</ele><time>2026-04-19T09:34:29.914Z</time></trkpt><trkpt lat="43.5465994" lon="12.6051626"><ele>320.0</ele><time>2026-04-19T09:34:30.914Z</time></trkpt><trkpt lat="43.5465085" lon="12.6051741"><ele>320.0</ele><time>2026-04-19T09:34:31.914Z</time></trkpt><trkpt lat="43.5464085" lon="12.6051857"><ele>320.0</ele><time>2026-04-19T09:34:32.913Z</time></trkpt><trkpt lat="43.5462992" lon="12.6051994"><ele>320.0</ele><time>2026-04-19T09:34:33.914Z</time></trkpt><trkpt lat="43.5461864" lon="12.6052111"><ele>320.4</ele><time>2026-04-19T09:34:34.914Z</time></trkpt><trkpt lat="43.5460796" lon="12.6052213"><ele>320.8</ele><time>2026-04-19T09:34:35.913Z</time></trkpt><trkpt lat="43.5459793" lon="12.6052246"><ele>321.20000000000005</ele><time>2026-04-19T09:34:36.913Z</time></trkpt><trkpt lat="43.5458827" lon="12.605221"><ele>321.6</ele><time>2026-04-19T09:34:37.914Z</time></trkpt><trkpt lat="43.5457854" lon="12.6051941"><ele>322.0</ele><time>2026-04-19T09:34:38.914Z</time></trkpt><trkpt lat="43.5456856" lon="12.6051655"><ele>322.0</ele><time>2026-04-19T09:34:39.914Z</time></trkpt><trkpt lat="43.5455868" lon="12.6051449"><ele>322.0</ele><time>2026-04-19T09:34:40.912Z</time></trkpt><trkpt lat="43.5454915" lon="12.6051299"><ele>322.0</ele><time>2026-04-19T09:34:41.912Z</time></trkpt><trkpt lat="43.5454018" lon="12.6051213"><ele>322.0</ele><time>2026-04-19T09:34:42.912Z</time></trkpt><trkpt lat="43.5453151" lon="12.605115"><ele>322.0</ele><time>2026-04-19T09:34:43.914Z</time></trkpt><trkpt lat="43.5452271" lon="12.6050925"><ele>322.25</ele><time>2026-04-19T09:34:44.914Z</time></trkpt><trkpt lat="43.5451235" lon="12.6050449"><ele>322.5</ele><time>2026-04-19T09:34:45.913Z</time></trkpt><trkpt lat="43.5450154" lon="12.6049994"><ele>322.75</ele><time>2026-04-19T09:34:46.914Z</time></trkpt><trkpt lat="43.5449042" lon="12.6049511"><ele>323.0</ele><time>2026-04-19T09:34:47.914Z</time></trkpt><trkpt lat="43.5447754" lon="12.6048788"><ele>323.0</ele><time>2026-04-19T09:34:48.912Z</time></trkpt><trkpt lat="43.5446479" lon="12.6048067"><ele>323.0</ele><time>2026-04-19T09:34:49.912Z</time></trkpt><trkpt lat="43.5445233" lon="12.6047455"><ele>323.0</ele><time>2026-04-19T09:34:50.914Z</time></trkpt><trkpt lat="43.5443895" lon="12.6046903"><ele>323.0</ele><time>2026-04-19T09:34:51.914Z</time></trkpt><trkpt lat="43.5442555" lon="12.6046283"><ele>323.0</ele><time>2026-04-19T09:34:52.913Z</time></trkpt><trkpt lat="43.5441123" lon="12.6045611"><ele>323.0</ele><time>2026-04-19T09:34:53.913Z</time></trkpt><trkpt lat="43.543985" lon="12.6044987"><ele>323.0</ele><time>2026-04-19T09:34:54.914Z</time></trkpt><trkpt lat="43.5438662" lon="12.6044382"><ele>323.0</ele><time>2026-04-19T09:34:55.913Z</time></trkpt><trkpt lat="43.5437584" lon="12.6043779"><ele>324.0</ele><time>2026-04-19T09:34:56.913Z</time></trkpt><trkpt lat="43.5436617" lon="12.6043186"><ele>325.0</ele><time>2026-04-19T09:34:57.914Z</time></trkpt><trkpt lat="43.5435767" lon="12.6042606"><ele>326.0</ele><time>2026-04-19T09:34:58.913Z</time></trkpt><trkpt lat="43.5434948" lon="12.6042011"><ele>327.0</ele><time>2026-04-19T09:34:59.912Z</time></trkpt><trkpt lat="43.5434155" lon="12.6041347"><ele>328.0</ele><time>2026-04-19T09:35:00.913Z</time></trkpt><trkpt lat="43.543332" lon="12.6040613"><ele>328.0</ele><time>2026-04-19T09:35:01.913Z</time></trkpt><trkpt lat="43.5432383" lon="12.6039703"><ele>328.0</ele><time>2026-04-19T09:35:02.913Z</time></trkpt><trkpt lat="43.5431365" lon="12.6038743"><ele>328.0</ele><time>2026-04-19T09:35:03.914Z</time></trkpt><trkpt lat="43.5430174" lon="12.6037556"><ele>328.0</ele><time>2026-04-19T09:35:04.913Z</time></trkpt><trkpt lat="43.5429059" lon="12.6036434"><ele>328.66666666666663</ele><time>2026-04-19T09:35:05.913Z</time></trkpt><trkpt lat="43.5427843" lon="12.6035194"><ele>329.3333333333333</ele><time>2026-04-19T09:35:06.914Z</time></trkpt><trkpt lat="43.5426515" lon="12.6033826"><ele>330.0</ele><time>2026-04-19T09:35:07.913Z</time></trkpt><trkpt lat="43.5425238" lon="12.6032499"><ele>330.0</ele><time>2026-04-19T09:35:08.914Z</time></trkpt><trkpt lat="43.5423967" lon="12.603121"><ele>330.0</ele><time>2026-04-19T09:35:09.913Z</time></trkpt><trkpt lat="43.5422622" lon="12.6029905"><ele>330.0</ele><time>2026-04-19T09:35:10.912Z</time></trkpt><trkpt lat="43.5421219" lon="12.602851"><ele>332.6666666666667</ele><time>2026-04-19T09:35:11.914Z</time></trkpt><trkpt lat="43.5419751" lon="12.602703"><ele>335.33333333333337</ele><time>2026-04-19T09:35:12.913Z</time></trkpt><trkpt lat="43.5418215" lon="12.602549"><ele>338.0</ele><time>2026-04-19T09:35:13.914Z</time></trkpt><trkpt lat="43.5416588" lon="12.6023854"><ele>338.0</ele><time>2026-04-19T09:35:14.913Z</time></trkpt><trkpt lat="43.5415041" lon="12.6022295"><ele>338.0</ele><time>2026-04-19T09:35:15.914Z</time></trkpt><trkpt lat="43.5413525" lon="12.6020752"><ele>338.0</ele><time>2026-04-19T09:35:16.914Z</time></trkpt><trkpt lat="43.541201" lon="12.6019342"><ele>340.33333333333337</ele><time>2026-04-19T09:35:17.913Z</time></trkpt><trkpt lat="43.541063" lon="12.6018078"><ele>342.6666666666667</ele><time>2026-04-19T09:35:18.913Z</time></trkpt><trkpt lat="43.5409187" lon="12.6017143"><ele>345.0</ele><time>2026-04-19T09:35:19.913Z</time></trkpt><trkpt lat="43.5407708" lon="12.6016552"><ele>345.0</ele><time>2026-04-19T09:35:20.913Z</time></trkpt><trkpt lat="43.5406187" lon="12.601611"><ele>345.0</ele><time>2026-04-19T09:35:21.912Z</time></trkpt><trkpt lat="43.540463" lon="12.6016432"><ele>345.0</ele><time>2026-04-19T09:35:22.914Z</time></trkpt><trkpt lat="43.5403156" lon="12.6016408"><ele>338.0</ele><time>2026-04-19T09:35:23.914Z</time></trkpt><trkpt lat="43.540171" lon="12.6016046"><ele>331.0</ele><time>2026-04-19T09:35:24.913Z</time></trkpt><trkpt lat="43.5400173" lon="12.6015506"><ele>324.0</ele><time>2026-04-19T09:35:25.913Z</time></trkpt><trkpt lat="43.5398711" lon="12.6014213"><ele>324.0</ele><time>2026-04-19T09:35:26.913Z</time></trkpt><trkpt lat="43.5397093" lon="12.6012901"><ele>324.0</ele><time>2026-04-19T09:35:27.912Z</time></trkpt><trkpt lat="43.5395325" lon="12.6011439"><ele>324.0</ele><time>2026-04-19T09:35:28.912Z</time></trkpt><trkpt lat="43.5393514" lon="12.6009989"><ele>325.6666666666667</ele><time>2026-04-19T09:35:29.913Z</time></trkpt><trkpt lat="43.5391746" lon="12.6008525"><ele>327.33333333333337</ele><time>2026-04-19T09:35:30.914Z</time></trkpt><trkpt lat="43.5390098" lon="12.6007139"><ele>329.0</ele><time>2026-04-19T09:35:31.914Z</time></trkpt><trkpt lat="43.538843" lon="12.6005789"><ele>330.0</ele><time>2026-04-19T09:35:32.912Z</time></trkpt><trkpt lat="43.5386846" lon="12.6004341"><ele>331.0</ele><time>2026-04-19T09:35:33.913Z</time></trkpt><trkpt lat="43.5385325" lon="12.6002673"><ele>332.0</ele><time>2026-04-19T09:35:34.913Z</time></trkpt><trkpt lat="43.538389" lon="12.6000798"><ele>333.6666666666667</ele><time>2026-04-19T09:35:35.914Z</time></trkpt><trkpt lat="43.5382498" lon="12.5998677"><ele>335.3333333333333</ele><time>2026-04-19T09:35:36.914Z</time></trkpt><trkpt lat="43.5381187" lon="12.599643"><ele>337.0</ele><time>2026-04-19T09:35:37.913Z</time></trkpt><trkpt lat="43.5379927" lon="12.5994185"><ele>334.0</ele><time>2026-04-19T09:35:38.913Z</time></trkpt><trkpt lat="43.5378773" lon="12.5991976"><ele>331.0</ele><time>2026-04-19T09:35:39.913Z</time></trkpt><trkpt lat="43.5377614" lon="12.5989848"><ele>328.0</ele><time>2026-04-19T09:35:40.914Z</time></trkpt><trkpt lat="43.5376431" lon="12.5987898"><ele>330.66666666666663</ele><time>2026-04-19T09:35:41.912Z</time></trkpt><trkpt lat="43.5375151" lon="12.5986046"><ele>333.3333333333333</ele><time>2026-04-19T09:35:42.913Z</time></trkpt><trkpt lat="43.5373721" lon="12.5984279"><ele>336.0</ele><time>2026-04-19T09:35:43.913Z</time></trkpt><trkpt lat="43.5372084" lon="12.5982647"><ele>334.0</ele><time>2026-04-19T09:35:44.913Z</time></trkpt><trkpt lat="43.5370406" lon="12.5981189"><ele>332.0</ele><time>2026-04-19T09:35:45.912Z</time></trkpt><trkpt lat="43.536867" lon="12.59797"><ele>330.0</ele><time>2026-04-19T09:35:46.913Z</time></trkpt><trkpt lat="43.5366963" lon="12.5978023"><ele>330.6666666666667</ele><time>2026-04-19T09:35:47.913Z</time></trkpt><trkpt lat="43.5365302" lon="12.5976041"><ele>331.33333333333337</ele><time>2026-04-19T09:35:48.913Z</time></trkpt><trkpt lat="43.5363685" lon="12.5973905"><ele>332.0</ele><time>2026-04-19T09:35:49.913Z</time></trkpt><trkpt lat="43.5362048" lon="12.5971744"><ele>335.6666666666667</ele><time>2026-04-19T09:35:50.913Z</time></trkpt><trkpt lat="43.5360533" lon="12.5969625"><ele>339.3333333333333</ele><time>2026-04-19T09:35:51.914Z</time></trkpt><trkpt lat="43.5359055" lon="12.5967683"><ele>343.0</ele><time>2026-04-19T09:35:52.912Z</time></trkpt><trkpt lat="43.5357569" lon="12.5965915"><ele>343.0</ele><time>2026-04-19T09:35:53.913Z</time></trkpt><trkpt lat="43.5355924" lon="12.5964418"><ele>343.0</ele><time>2026-04-19T09:35:54.913Z</time></trkpt><trkpt lat="43.5354101" lon="12.5963162"><ele>343.0</ele><time>2026-04-19T09:35:55.914Z</time></trkpt><trkpt lat="43.5352088" lon="12.5962008"><ele>349.5</ele><time>2026-04-19T09:35:56.913Z</time></trkpt><trkpt lat="43.5350005" lon="12.596085"><ele>356.0</ele><time>2026-04-19T09:35:57.913Z</time></trkpt><trkpt lat="43.5347812" lon="12.595966"><ele>356.0</ele><time>2026-04-19T09:35:58.914Z</time></trkpt><trkpt lat="43.5345618" lon="12.5958465"><ele>356.0</ele><time>2026-04-19T09:35:59.912Z</time></trkpt><trkpt lat="43.5343476" lon="12.5957271"><ele>350.6666666666667</ele><time>2026-04-19T09:36:00.914Z</time></trkpt><trkpt lat="43.5341455" lon="12.5956123"><ele>345.3333333333333</ele><time>2026-04-19T09:36:01.913Z</time></trkpt><trkpt lat="43.5339523" lon="12.5955108"><ele>340.0</ele><time>2026-04-19T09:36:02.914Z</time></trkpt><trkpt lat="43.5337756" lon="12.5954246"><ele>339.3333333333333</ele><time>2026-04-19T09:36:03.914Z</time></trkpt><trkpt lat="43.5336104" lon="12.5953592"><ele>338.6666666666667</ele><time>2026-04-19T09:36:04.913Z</time></trkpt><trkpt lat="43.5334519" lon="12.5953361"><ele>338.0</ele><time>2026-04-19T09:36:05.912Z</time></trkpt><trkpt lat="43.5332908" lon="12.5953608"><ele>338.0</ele><time>2026-04-19T09:36:06.913Z</time></trkpt><trkpt lat="43.533126" lon="12.5954183"><ele>338.0</ele><time>2026-04-19T09:36:07.912Z</time></trkpt><trkpt lat="43.5329523" lon="12.5955215"><ele>338.0</ele><time>2026-04-19T09:36:08.912Z</time></trkpt><trkpt lat="43.532767" lon="12.595619"><ele>340.6666666666667</ele><time>2026-04-19T09:36:09.913Z</time></trkpt><trkpt lat="43.5325766" lon="12.5957212"><ele>343.3333333333333</ele><time>2026-04-19T09:36:10.914Z</time></trkpt><trkpt lat="43.5323999" lon="12.595811"><ele>346.0</ele><time>2026-04-19T09:36:11.913Z</time></trkpt><trkpt lat="43.5322271" lon="12.5958922"><ele>348.0</ele><time>2026-04-19T09:36:12.913Z</time></trkpt><trkpt lat="43.5320494" lon="12.5959496"><ele>350.0</ele><time>2026-04-19T09:36:13.913Z</time></trkpt><trkpt lat="43.5318553" lon="12.5959886"><ele>352.0</ele><time>2026-04-19T09:36:14.914Z</time></trkpt><trkpt lat="43.5316496" lon="12.5960124"><ele>352.0</ele><time>2026-04-19T09:36:15.914Z</time></trkpt><trkpt lat="43.5314372" lon="12.5960281"><ele>352.0</ele><time>2026-04-19T09:36:16.913Z</time></trkpt><trkpt lat="43.5312228" lon="12.5960371"><ele>352.0</ele><time>2026-04-19T09:36:17.912Z</time></trkpt><trkpt lat="43.5310197" lon="12.5960417"><ele>353.3333333333333</ele><time>2026-04-19T09:36:18.913Z</time></trkpt><trkpt lat="43.5308257" lon="12.5960402"><ele>354.6666666666667</ele><time>2026-04-19T09:36:19.914Z</time></trkpt><trkpt lat="43.5306357" lon="12.5960244"><ele>356.0</ele><time>2026-04-19T09:36:20.914Z</time></trkpt><trkpt lat="43.5304522" lon="12.5959774"><ele>352.0</ele><time>2026-04-19T09:36:21.912Z</time></trkpt><trkpt lat="43.5302685" lon="12.5958946"><ele>348.0</ele><time>2026-04-19T09:36:22.912Z</time></trkpt><trkpt lat="43.5300905" lon="12.595774"><ele>344.0</ele><time>2026-04-19T09:36:23.913Z</time></trkpt><trkpt lat="43.5299206" lon="12.5956416"><ele>344.0</ele><time>2026-04-19T09:36:24.912Z</time></trkpt><trkpt lat="43.5297651" lon="12.5955068"><ele>344.0</ele><time>2026-04-19T09:36:25.912Z</time></trkpt><trkpt lat="43.5296219" lon="12.5953352"><ele>344.0</ele><time>2026-04-19T09:36:26.913Z</time></trkpt><trkpt lat="43.5294982" lon="12.5951438"><ele>345.6666666666667</ele><time>2026-04-19T09:36:27.913Z</time></trkpt><trkpt lat="43.5293972" lon="12.5949558"><ele>347.3333333333333</ele><time>2026-04-19T09:36:28.913Z</time></trkpt><trkpt lat="43.5293036" lon="12.594762"><ele>349.0</ele><time>2026-04-19T09:36:29.912Z</time></trkpt><trkpt lat="43.5292214" lon="12.5945829"><ele>351.75</ele><time>2026-04-19T09:36:30.913Z</time></trkpt><trkpt lat="43.5291448" lon="12.5944141"><ele>354.5</ele><time>2026-04-19T09:36:31.913Z</time></trkpt><trkpt lat="43.5290694" lon="12.5942545"><ele>357.25</ele><time>2026-04-19T09:36:32.914Z</time></trkpt><trkpt lat="43.5290034" lon="12.5941024"><ele>360.0</ele><time>2026-04-19T09:36:33.913Z</time></trkpt><trkpt lat="43.5289523" lon="12.5939528"><ele>360.0</ele><time>2026-04-19T09:36:34.912Z</time></trkpt><trkpt lat="43.5289175" lon="12.593796"><ele>360.0</ele><time>2026-04-19T09:36:35.913Z</time></trkpt><trkpt lat="43.5288966" lon="12.5936158"><ele>360.0</ele><time>2026-04-19T09:36:36.912Z</time></trkpt><trkpt lat="43.5288895" lon="12.5934107"><ele>360.0</ele><time>2026-04-19T09:36:37.912Z</time></trkpt><trkpt lat="43.5289042" lon="12.5931744"><ele>363.3333333333333</ele><time>2026-04-19T09:36:38.912Z</time></trkpt><trkpt lat="43.5289361" lon="12.5929527"><ele>366.66666666666663</ele><time>2026-04-19T09:36:39.912Z</time></trkpt><trkpt lat="43.528996" lon="12.5927253"><ele>370.0</ele><time>2026-04-19T09:36:40.912Z</time></trkpt><trkpt lat="43.5290746" lon="12.5925087"><ele>371.0</ele><time>2026-04-19T09:36:41.913Z</time></trkpt><trkpt lat="43.5291492" lon="12.5923059"><ele>372.0</ele><time>2026-04-19T09:36:42.913Z</time></trkpt><trkpt lat="43.5292047" lon="12.5921234"><ele>373.0</ele><time>2026-04-19T09:36:43.914Z</time></trkpt><trkpt lat="43.5292577" lon="12.5919333"><ele>370.0</ele><time>2026-04-19T09:36:44.914Z</time></trkpt><trkpt lat="43.5292755" lon="12.5917792"><ele>367.0</ele><time>2026-04-19T09:36:45.914Z</time></trkpt><trkpt lat="43.5292644" lon="12.5915965"><ele>364.0</ele><time>2026-04-19T09:36:46.914Z</time></trkpt><trkpt lat="43.5292446" lon="12.5914252"><ele>361.0</ele><time>2026-04-19T09:36:47.914Z</time></trkpt><trkpt lat="43.5291119" lon="12.5912294"><ele>361.0</ele><time>2026-04-19T09:36:48.913Z</time></trkpt><trkpt lat="43.5289592" lon="12.5911863"><ele>361.0</ele><time>2026-04-19T09:36:49.913Z</time></trkpt><trkpt lat="43.5288337" lon="12.5911158"><ele>361.0</ele><time>2026-04-19T09:36:50.914Z</time></trkpt><trkpt lat="43.5286728" lon="12.5910828"><ele>357.66666666666663</ele><time>2026-04-19T09:36:51.914Z</time></trkpt><trkpt lat="43.5285035" lon="12.5910505"><ele>354.3333333333333</ele><time>2026-04-19T09:36:52.912Z</time></trkpt><trkpt lat="43.5282833" lon="12.5910455"><ele>351.0</ele><time>2026-04-19T09:36:53.912Z</time></trkpt><trkpt lat="43.5280998" lon="12.5910278"><ele>351.0</ele><time>2026-04-19T09:36:54.913Z</time></trkpt><trkpt lat="43.5279152" lon="12.5909998"><ele>351.0</ele><time>2026-04-19T09:36:55.913Z</time></trkpt><trkpt lat="43.5277461" lon="12.5909573"><ele>351.0</ele><time>2026-04-19T09:36:56.914Z</time></trkpt><trkpt lat="43.5275803" lon="12.5908738"><ele>350.3333333333333</ele><time>2026-04-19T09:36:57.913Z</time></trkpt><trkpt lat="43.5274405" lon="12.5907575"><ele>349.66666666666663</ele><time>2026-04-19T09:36:58.912Z</time></trkpt><trkpt lat="43.5273153" lon="12.5906198"><ele>349.0</ele><time>2026-04-19T09:36:59.914Z</time></trkpt><trkpt lat="43.5271962" lon="12.5904566"><ele>349.66666666666663</ele><time>2026-04-19T09:37:00.913Z</time></trkpt><trkpt lat="43.5270999" lon="12.5902691"><ele>350.3333333333333</ele><time>2026-04-19T09:37:01.913Z</time></trkpt><trkpt lat="43.5270159" lon="12.5900623"><ele>351.0</ele><time>2026-04-19T09:37:02.914Z</time></trkpt><trkpt lat="43.5269571" lon="12.5898155"><ele>351.0</ele><time>2026-04-19T09:37:03.913Z</time></trkpt><trkpt lat="43.5268976" lon="12.5895483"><ele>351.0</ele><time>2026-04-19T09:37:04.913Z</time></trkpt><trkpt lat="43.5268411" lon="12.5892594"><ele>351.0</ele><time>2026-04-19T09:37:05.914Z</time></trkpt><trkpt lat="43.5267871" lon="12.5889717"><ele>353.3333333333333</ele><time>2026-04-19T09:37:06.914Z</time></trkpt><trkpt lat="43.526741" lon="12.5887212"><ele>355.66666666666663</ele><time>2026-04-19T09:37:07.913Z</time></trkpt><trkpt lat="43.5266827" lon="12.5884514"><ele>358.0</ele><time>2026-04-19T09:37:08.913Z</time></trkpt><trkpt lat="43.5266155" lon="12.5881854"><ele>361.3333333333333</ele><time>2026-04-19T09:37:09.913Z</time></trkpt><trkpt lat="43.5264866" lon="12.5879399"><ele>364.6666666666667</ele><time>2026-04-19T09:37:10.914Z</time></trkpt><trkpt lat="43.5263869" lon="12.5877062"><ele>368.0</ele><time>2026-04-19T09:37:11.913Z</time></trkpt><trkpt lat="43.5262849" lon="12.5874807"><ele>366.25</ele><time>2026-04-19T09:37:12.914Z</time></trkpt><trkpt lat="43.5262012" lon="12.5872988"><ele>364.5</ele><time>2026-04-19T09:37:13.913Z</time></trkpt><trkpt lat="43.526134" lon="12.5871358"><ele>362.75</ele><time>2026-04-19T09:37:14.914Z</time></trkpt><trkpt lat="43.5260956" lon="12.5869815"><ele>361.0</ele><time>2026-04-19T09:37:15.913Z</time></trkpt><trkpt lat="43.5260567" lon="12.5868231"><ele>359.75</ele><time>2026-04-19T09:37:16.912Z</time></trkpt><trkpt lat="43.5261391" lon="12.5867024"><ele>358.5</ele><time>2026-04-19T09:37:17.914Z</time></trkpt><trkpt lat="43.5262176" lon="12.5865813"><ele>357.25</ele><time>2026-04-19T09:37:18.914Z</time></trkpt><trkpt lat="43.5263345" lon="12.5864666"><ele>356.0</ele><time>2026-04-19T09:37:19.914Z</time></trkpt><trkpt lat="43.5264598" lon="12.5863592"><ele>358.0</ele><time>2026-04-19T09:37:20.913Z</time></trkpt><trkpt lat="43.5265751" lon="12.5862527"><ele>360.0</ele><time>2026-04-19T09:37:21.914Z</time></trkpt><trkpt lat="43.5266705" lon="12.5861379"><ele>362.0</ele><time>2026-04-19T09:37:22.913Z</time></trkpt><trkpt lat="43.5267498" lon="12.5860077"><ele>364.0</ele><time>2026-04-19T09:37:23.912Z</time></trkpt><trkpt lat="43.526802" lon="12.5858511"><ele>364.0</ele><time>2026-04-19T09:37:24.914Z</time></trkpt><trkpt lat="43.5268084" lon="12.5856967"><ele>364.0</ele><time>2026-04-19T09:37:25.914Z</time></trkpt><trkpt lat="43.5267874" lon="12.5855226"><ele>364.0</ele><time>2026-04-19T09:37:26.913Z</time></trkpt><trkpt lat="43.5267413" lon="12.5853418"><ele>364.0</ele><time>2026-04-19T09:37:27.913Z</time></trkpt><trkpt lat="43.5266964" lon="12.5851724"><ele>364.0</ele><time>2026-04-19T09:37:28.913Z</time></trkpt><trkpt lat="43.526583" lon="12.5850022"><ele>364.0</ele><time>2026-04-19T09:37:29.914Z</time></trkpt><trkpt lat="43.5265202" lon="12.5848493"><ele>364.0</ele><time>2026-04-19T09:37:30.914Z</time></trkpt><trkpt lat="43.526465" lon="12.5847026"><ele>364.0</ele><time>2026-04-19T09:37:31.914Z</time></trkpt><trkpt lat="43.5264425" lon="12.584564"><ele>363.0</ele><time>2026-04-19T09:37:32.913Z</time></trkpt><trkpt lat="43.5264648" lon="12.5844507"><ele>362.0</ele><time>2026-04-19T09:37:33.913Z</time></trkpt><trkpt lat="43.5265256" lon="12.5843789"><ele>361.0</ele><time>2026-04-19T09:37:34.914Z</time></trkpt><trkpt lat="43.5266175" lon="12.5843413"><ele>360.0</ele><time>2026-04-19T09:37:35.913Z</time></trkpt><trkpt lat="43.526731" lon="12.5843297"><ele>359.0</ele><time>2026-04-19T09:37:36.913Z</time></trkpt><trkpt lat="43.5268637" lon="12.584318"><ele>359.0</ele><time>2026-04-19T09:37:37.913Z</time></trkpt><trkpt lat="43.5269931" lon="12.584276"><ele>359.0</ele><time>2026-04-19T09:37:38.914Z</time></trkpt><trkpt lat="43.527108" lon="12.5842152"><ele>359.0</ele><time>2026-04-19T09:37:39.913Z</time></trkpt><trkpt lat="43.5272094" lon="12.5841239"><ele>359.0</ele><time>2026-04-19T09:37:40.913Z</time></trkpt><trkpt lat="43.527286" lon="12.5839971"><ele>362.75</ele><time>2026-04-19T09:37:41.913Z</time></trkpt><trkpt lat="43.5273404" lon="12.5838335"><ele>366.5</ele><time>2026-04-19T09:37:42.912Z</time></trkpt><trkpt lat="43.5273793" lon="12.5836772"><ele>370.25</ele><time>2026-04-19T09:37:43.912Z</time></trkpt><trkpt lat="43.5273876" lon="12.5835275"><ele>374.0</ele><time>2026-04-19T09:37:44.913Z</time></trkpt><trkpt lat="43.5273775" lon="12.5833718"><ele>374.0</ele><time>2026-04-19T09:37:45.912Z</time></trkpt><trkpt lat="43.5273437" lon="12.5831749"><ele>374.0</ele><time>2026-04-19T09:37:46.912Z</time></trkpt><trkpt lat="43.5272685" lon="12.5829469"><ele>374.0</ele><time>2026-04-19T09:37:47.911Z</time></trkpt><trkpt lat="43.5271913" lon="12.5827406"><ele>372.6666666666667</ele><time>2026-04-19T09:37:48.912Z</time></trkpt><trkpt lat="43.5271187" lon="12.5825087"><ele>371.3333333333333</ele><time>2026-04-19T09:37:49.913Z</time></trkpt><trkpt lat="43.5270412" lon="12.5822663"><ele>370.0</ele><time>2026-04-19T09:37:50.913Z</time></trkpt><trkpt lat="43.526967" lon="12.5820048"><ele>370.0</ele><time>2026-04-19T09:37:51.912Z</time></trkpt><trkpt lat="43.5268875" lon="12.5817634"><ele>370.0</ele><time>2026-04-19T09:37:52.913Z</time></trkpt><trkpt lat="43.5268064" lon="12.5814998"><ele>370.0</ele><time>2026-04-19T09:37:53.912Z</time></trkpt><trkpt lat="43.5267165" lon="12.58122"><ele>375.0</ele><time>2026-04-19T09:37:54.911Z</time></trkpt><trkpt lat="43.5266347" lon="12.5809673"><ele>380.0</ele><time>2026-04-19T09:37:55.912Z</time></trkpt><trkpt lat="43.5265549" lon="12.580726"><ele>385.0</ele><time>2026-04-19T09:37:56.912Z</time></trkpt><trkpt lat="43.5264656" lon="12.5804941"><ele>381.33333333333337</ele><time>2026-04-19T09:37:57.912Z</time></trkpt><trkpt lat="43.5263769" lon="12.5802882"><ele>377.6666666666667</ele><time>2026-04-19T09:37:58.913Z</time></trkpt><trkpt lat="43.5262788" lon="12.5801063"><ele>374.0</ele><time>2026-04-19T09:37:59.912Z</time></trkpt><trkpt lat="43.5261681" lon="12.579972"><ele>374.0</ele><time>2026-04-19T09:38:00.913Z</time></trkpt><trkpt lat="43.526026" lon="12.5798631"><ele>374.0</ele><time>2026-04-19T09:38:01.913Z</time></trkpt><trkpt lat="43.525869" lon="12.5797629"><ele>374.0</ele><time>2026-04-19T09:38:02.913Z</time></trkpt><trkpt lat="43.5256971" lon="12.579666"><ele>374.0</ele><time>2026-04-19T09:38:03.911Z</time></trkpt><trkpt lat="43.5255202" lon="12.5795751"><ele>374.0</ele><time>2026-04-19T09:38:04.911Z</time></trkpt><trkpt lat="43.5253568" lon="12.5795114"><ele>374.0</ele><time>2026-04-19T09:38:05.912Z</time></trkpt><trkpt lat="43.5251935" lon="12.5794726"><ele>379.5</ele><time>2026-04-19T09:38:06.911Z</time></trkpt><trkpt lat="43.5250436" lon="12.5794637"><ele>385.0</ele><time>2026-04-19T09:38:07.913Z</time></trkpt><trkpt lat="43.5249166" lon="12.5794535"><ele>390.5</ele><time>2026-04-19T09:38:08.912Z</time></trkpt><trkpt lat="43.5248056" lon="12.5794326"><ele>396.0</ele><time>2026-04-19T09:38:09.913Z</time></trkpt><trkpt lat="43.5247132" lon="12.5793743"><ele>396.0</ele><time>2026-04-19T09:38:10.911Z</time></trkpt><trkpt lat="43.5246409" lon="12.5792748"><ele>396.0</ele><time>2026-04-19T09:38:11.913Z</time></trkpt><trkpt lat="43.5245827" lon="12.5791373"><ele>396.0</ele><time>2026-04-19T09:38:12.913Z</time></trkpt><trkpt lat="43.5245132" lon="12.5789746"><ele>396.0</ele><time>2026-04-19T09:38:13.911Z</time></trkpt><trkpt lat="43.5244412" lon="12.578812"><ele>396.33333333333337</ele><time>2026-04-19T09:38:14.912Z</time></trkpt><trkpt lat="43.5243583" lon="12.5786488"><ele>396.6666666666667</ele><time>2026-04-19T09:38:15.912Z</time></trkpt><trkpt lat="43.5242161" lon="12.5784824"><ele>397.0</ele><time>2026-04-19T09:38:16.911Z</time></trkpt><trkpt lat="43.5240568" lon="12.578387"><ele>397.0</ele><time>2026-04-19T09:38:17.911Z</time></trkpt><trkpt lat="43.5239409" lon="12.5782751"><ele>397.0</ele><time>2026-04-19T09:38:18.913Z</time></trkpt><trkpt lat="43.5238302" lon="12.5781375"><ele>397.0</ele><time>2026-04-19T09:38:19.911Z</time></trkpt><trkpt lat="43.5237432" lon="12.5779749"><ele>397.0</ele><time>2026-04-19T09:38:20.913Z</time></trkpt><trkpt lat="43.5236663" lon="12.5777606"><ele>390.0</ele><time>2026-04-19T09:38:21.913Z</time></trkpt><trkpt lat="43.5235936" lon="12.5775387"><ele>383.0</ele><time>2026-04-19T09:38:22.911Z</time></trkpt><trkpt lat="43.5235373" lon="12.577314"><ele>376.0</ele><time>2026-04-19T09:38:23.913Z</time></trkpt><trkpt lat="43.5234966" lon="12.5771011"><ele>378.3333333333333</ele><time>2026-04-19T09:38:24.912Z</time></trkpt><trkpt lat="43.523476" lon="12.5768542"><ele>380.6666666666667</ele><time>2026-04-19T09:38:25.912Z</time></trkpt><trkpt lat="43.5234777" lon="12.5765866"><ele>383.0</ele><time>2026-04-19T09:38:26.913Z</time></trkpt><trkpt lat="43.5234905" lon="12.5763402"><ele>383.33333333333337</ele><time>2026-04-19T09:38:27.912Z</time></trkpt><trkpt lat="43.5235192" lon="12.5760631"><ele>383.6666666666667</ele><time>2026-04-19T09:38:28.912Z</time></trkpt><trkpt lat="43.5235572" lon="12.5758186"><ele>384.0</ele><time>2026-04-19T09:38:29.912Z</time></trkpt><trkpt lat="43.5236011" lon="12.5755837"><ele>384.0</ele><time>2026-04-19T09:38:30.912Z</time></trkpt><trkpt lat="43.5236471" lon="12.5753708"><ele>384.0</ele><time>2026-04-19T09:38:31.912Z</time></trkpt><trkpt lat="43.5236962" lon="12.575176"><ele>384.0</ele><time>2026-04-19T09:38:32.912Z</time></trkpt><trkpt lat="43.5237352" lon="12.5749955"><ele>384.0</ele><time>2026-04-19T09:38:33.913Z</time></trkpt><trkpt lat="43.5237665" lon="12.574812"><ele>382.3333333333333</ele><time>2026-04-19T09:38:34.913Z</time></trkpt><trkpt lat="43.5237369" lon="12.5746149"><ele>380.66666666666663</ele><time>2026-04-19T09:38:35.912Z</time></trkpt><trkpt lat="43.5236917" lon="12.5744056"><ele>379.0</ele><time>2026-04-19T09:38:36.911Z</time></trkpt><trkpt lat="43.5236417" lon="12.5741887"><ele>379.0</ele><time>2026-04-19T09:38:37.913Z</time></trkpt><trkpt lat="43.5235862" lon="12.5739798"><ele>379.0</ele><time>2026-04-19T09:38:38.912Z</time></trkpt><trkpt lat="43.5235005" lon="12.5738182"><ele>379.0</ele><time>2026-04-19T09:38:39.911Z</time></trkpt><trkpt lat="43.5234022" lon="12.5736746"><ele>380.25</ele><time>2026-04-19T09:38:40.912Z</time></trkpt><trkpt lat="43.523327" lon="12.5735249"><ele>381.5</ele><time>2026-04-19T09:38:41.913Z</time></trkpt><trkpt lat="43.5231679" lon="12.5734863"><ele>382.75</ele><time>2026-04-19T09:38:42.911Z</time></trkpt><trkpt lat="43.5230212" lon="12.5734317"><ele>384.0</ele><time>2026-04-19T09:38:43.913Z</time></trkpt><trkpt lat="43.5228466" lon="12.5734025"><ele>384.0</ele><time>2026-04-19T09:38:44.911Z</time></trkpt><trkpt lat="43.5226646" lon="12.5733856"><ele>384.0</ele><time>2026-04-19T09:38:45.911Z</time></trkpt><trkpt lat="43.5224796" lon="12.5733742"><ele>384.0</ele><time>2026-04-19T09:38:46.911Z</time></trkpt><trkpt lat="43.5223114" lon="12.5733594"><ele>384.0</ele><time>2026-04-19T09:38:47.911Z</time></trkpt><trkpt lat="43.5221527" lon="12.5733357"><ele>384.0</ele><time>2026-04-19T09:38:48.912Z</time></trkpt><trkpt lat="43.5220062" lon="12.5732788"><ele>384.0</ele><time>2026-04-19T09:38:49.911Z</time></trkpt><trkpt lat="43.5218642" lon="12.5731744"><ele>382.75</ele><time>2026-04-19T09:38:50.911Z</time></trkpt><trkpt lat="43.5217441" lon="12.5730395"><ele>381.5</ele><time>2026-04-19T09:38:51.912Z</time></trkpt><trkpt lat="43.5216205" lon="12.5729398"><ele>380.25</ele><time>2026-04-19T09:38:52.911Z</time></trkpt><trkpt lat="43.5214963" lon="12.5728497"><ele>379.0</ele><time>2026-04-19T09:38:53.91Z</time></trkpt><trkpt lat="43.5213518" lon="12.5728551"><ele>379.5</ele><time>2026-04-19T09:38:54.912Z</time></trkpt><trkpt lat="43.5211976" lon="12.5728581"><ele>380.0</ele><time>2026-04-19T09:38:55.912Z</time></trkpt><trkpt lat="43.521052" lon="12.5728735"><ele>380.5</ele><time>2026-04-19T09:38:56.911Z</time></trkpt><trkpt lat="43.5209086" lon="12.5728673"><ele>381.0</ele><time>2026-04-19T09:38:57.911Z</time></trkpt><trkpt lat="43.5207604" lon="12.5728133"><ele>380.3333333333333</ele><time>2026-04-19T09:38:58.911Z</time></trkpt><trkpt lat="43.5206103" lon="12.5727042"><ele>379.66666666666663</ele><time>2026-04-19T09:38:59.912Z</time></trkpt><trkpt lat="43.5204626" lon="12.5725611"><ele>379.0</ele><time>2026-04-19T09:39:00.911Z</time></trkpt><trkpt lat="43.5202974" lon="12.5723971"><ele>379.0</ele><time>2026-04-19T09:39:01.911Z</time></trkpt><trkpt lat="43.5201281" lon="12.5722483"><ele>379.0</ele><time>2026-04-19T09:39:02.912Z</time></trkpt><trkpt lat="43.5199351" lon="12.5720947"><ele>379.0</ele><time>2026-04-19T09:39:03.911Z</time></trkpt><trkpt lat="43.5197361" lon="12.571956"><ele>382.0</ele><time>2026-04-19T09:39:04.912Z</time></trkpt><trkpt lat="43.5195455" lon="12.5718222"><ele>385.0</ele><time>2026-04-19T09:39:05.911Z</time></trkpt><trkpt lat="43.5193654" lon="12.5717001"><ele>388.0</ele><time>2026-04-19T09:39:06.91Z</time></trkpt><trkpt lat="43.5191937" lon="12.5715838"><ele>388.0</ele><time>2026-04-19T09:39:07.911Z</time></trkpt><trkpt lat="43.5190337" lon="12.5714771"><ele>388.0</ele><time>2026-04-19T09:39:08.911Z</time></trkpt><trkpt lat="43.518892" lon="12.5713603"><ele>388.0</ele><time>2026-04-19T09:39:09.911Z</time></trkpt><trkpt lat="43.5187715" lon="12.5712339"><ele>385.33333333333337</ele><time>2026-04-19T09:39:10.911Z</time></trkpt><trkpt lat="43.5186768" lon="12.5710829"><ele>382.6666666666667</ele><time>2026-04-19T09:39:11.912Z</time></trkpt><trkpt lat="43.5186026" lon="12.5709054"><ele>380.0</ele><time>2026-04-19T09:39:12.91Z</time></trkpt><trkpt lat="43.5185547" lon="12.5707001"><ele>380.0</ele><time>2026-04-19T09:39:13.912Z</time></trkpt><trkpt lat="43.5185377" lon="12.5704723"><ele>380.0</ele><time>2026-04-19T09:39:14.912Z</time></trkpt><trkpt lat="43.5185383" lon="12.5702411"><ele>380.0</ele><time>2026-04-19T09:39:15.911Z</time></trkpt><trkpt lat="43.5185289" lon="12.5700379"><ele>381.5</ele><time>2026-04-19T09:39:16.911Z</time></trkpt><trkpt lat="43.518517" lon="12.5698339"><ele>383.0</ele><time>2026-04-19T09:39:17.912Z</time></trkpt><trkpt lat="43.5184547" lon="12.5696731"><ele>384.5</ele><time>2026-04-19T09:39:18.912Z</time></trkpt><trkpt lat="43.5184092" lon="12.5695013"><ele>386.0</ele><time>2026-04-19T09:39:19.912Z</time></trkpt><trkpt lat="43.5183225" lon="12.5693264"><ele>386.3333333333333</ele><time>2026-04-19T09:39:20.911Z</time></trkpt><trkpt lat="43.5182159" lon="12.5692083"><ele>386.66666666666663</ele><time>2026-04-19T09:39:21.91Z</time></trkpt><trkpt lat="43.5180311" lon="12.5692031"><ele>387.0</ele><time>2026-04-19T09:39:22.911Z</time></trkpt><trkpt lat="43.5178836" lon="12.5691024"><ele>387.0</ele><time>2026-04-19T09:39:23.911Z</time></trkpt><trkpt lat="43.5176935" lon="12.5690553"><ele>387.0</ele><time>2026-04-19T09:39:24.911Z</time></trkpt><trkpt lat="43.5175162" lon="12.5689953"><ele>387.0</ele><time>2026-04-19T09:39:25.912Z</time></trkpt><trkpt lat="43.5173511" lon="12.5689579"><ele>387.0</ele><time>2026-04-19T09:39:26.912Z</time></trkpt><trkpt lat="43.5171987" lon="12.5689414"><ele>387.0</ele><time>2026-04-19T09:39:27.912Z</time></trkpt><trkpt lat="43.5170685" lon="12.5689124"><ele>387.0</ele><time>2026-04-19T09:39:28.911Z</time></trkpt><trkpt lat="43.5169604" lon="12.5688508"><ele>387.0</ele><time>2026-04-19T09:39:29.911Z</time></trkpt><trkpt lat="43.5168738" lon="12.5687636"><ele>388.75</ele><time>2026-04-19T09:39:30.912Z</time></trkpt><trkpt lat="43.516806" lon="12.5686175"><ele>390.5</ele><time>2026-04-19T09:39:31.911Z</time></trkpt><trkpt lat="43.5167483" lon="12.5684422"><ele>392.25</ele><time>2026-04-19T09:39:32.911Z</time></trkpt><trkpt lat="43.516679" lon="12.5682513"><ele>394.0</ele><time>2026-04-19T09:39:33.911Z</time></trkpt><trkpt lat="43.51658" lon="12.5680696"><ele>394.0</ele><time>2026-04-19T09:39:34.91Z</time></trkpt><trkpt lat="43.516468" lon="12.5678975"><ele>394.0</ele><time>2026-04-19T09:39:35.912Z</time></trkpt><trkpt lat="43.516338" lon="12.5677519"><ele>394.0</ele><time>2026-04-19T09:39:36.91Z</time></trkpt><trkpt lat="43.516206" lon="12.5676369"><ele>391.33333333333337</ele><time>2026-04-19T09:39:37.911Z</time></trkpt><trkpt lat="43.5160619" lon="12.5675507"><ele>388.66666666666663</ele><time>2026-04-19T09:39:38.911Z</time></trkpt><trkpt lat="43.5159123" lon="12.5674707"><ele>386.0</ele><time>2026-04-19T09:39:39.911Z</time></trkpt><trkpt lat="43.515703" lon="12.5674611"><ele>386.0</ele><time>2026-04-19T09:39:40.91Z</time></trkpt><trkpt lat="43.5154981" lon="12.5674326"><ele>386.0</ele><time>2026-04-19T09:39:41.91Z</time></trkpt><trkpt lat="43.5152937" lon="12.5674083"><ele>386.0</ele><time>2026-04-19T09:39:42.91Z</time></trkpt><trkpt lat="43.5150925" lon="12.5673782"><ele>385.3333333333333</ele><time>2026-04-19T09:39:43.912Z</time></trkpt><trkpt lat="43.5149056" lon="12.5673565"><ele>384.66666666666663</ele><time>2026-04-19T09:39:44.912Z</time></trkpt><trkpt lat="43.5147399" lon="12.5673406"><ele>384.0</ele><time>2026-04-19T09:39:45.91Z</time></trkpt><trkpt lat="43.5145966" lon="12.5673192"><ele>383.4</ele><time>2026-04-19T09:39:46.912Z</time></trkpt><trkpt lat="43.5144826" lon="12.5672893"><ele>382.79999999999995</ele><time>2026-04-19T09:39:47.911Z</time></trkpt><trkpt lat="43.5144002" lon="12.5672233"><ele>382.20000000000005</ele><time>2026-04-19T09:39:48.91Z</time></trkpt><trkpt lat="43.5143522" lon="12.5671232"><ele>381.6</ele><time>2026-04-19T09:39:49.911Z</time></trkpt><trkpt lat="43.5143296" lon="12.5669981"><ele>381.0</ele><time>2026-04-19T09:39:50.911Z</time></trkpt><trkpt lat="43.5143386" lon="12.5668386"><ele>381.0</ele><time>2026-04-19T09:39:51.911Z</time></trkpt><trkpt lat="43.5143621" lon="12.5666653"><ele>381.0</ele><time>2026-04-19T09:39:52.912Z</time></trkpt><trkpt lat="43.514394" lon="12.5664751"><ele>381.0</ele><time>2026-04-19T09:39:53.911Z</time></trkpt><trkpt lat="43.5144196" lon="12.5662952"><ele>381.0</ele><time>2026-04-19T09:39:54.912Z</time></trkpt><trkpt lat="43.5144464" lon="12.5661274"><ele>382.0</ele><time>2026-04-19T09:39:55.912Z</time></trkpt><trkpt lat="43.5144654" lon="12.5659671"><ele>383.0</ele><time>2026-04-19T09:39:56.911Z</time></trkpt><trkpt lat="43.5144659" lon="12.5658147"><ele>384.0</ele><time>2026-04-19T09:39:57.91Z</time></trkpt><trkpt lat="43.5144422" lon="12.5656579"><ele>385.0</ele><time>2026-04-19T09:39:58.912Z</time></trkpt><trkpt lat="43.5143875" lon="12.565517"><ele>385.0</ele><time>2026-04-19T09:39:59.912Z</time></trkpt><trkpt lat="43.5143169" lon="12.5653837"><ele>385.0</ele><time>2026-04-19T09:40:00.911Z</time></trkpt><trkpt lat="43.5142278" lon="12.5652534"><ele>385.0</ele><time>2026-04-19T09:40:01.91Z</time></trkpt><trkpt lat="43.5141345" lon="12.565113"><ele>385.0</ele><time>2026-04-19T09:40:02.912Z</time></trkpt><trkpt lat="43.5140367" lon="12.5649627"><ele>385.25</ele><time>2026-04-19T09:40:03.91Z</time></trkpt><trkpt lat="43.5139366" lon="12.5648165"><ele>385.5</ele><time>2026-04-19T09:40:04.912Z</time></trkpt><trkpt lat="43.5138406" lon="12.5646658"><ele>385.75</ele><time>2026-04-19T09:40:05.911Z</time></trkpt><trkpt lat="43.5137471" lon="12.5645157"><ele>386.0</ele><time>2026-04-19T09:40:06.911Z</time></trkpt><trkpt lat="43.513651" lon="12.5643665"><ele>387.25</ele><time>2026-04-19T09:40:07.91Z</time></trkpt><trkpt lat="43.5135562" lon="12.5642217"><ele>388.5</ele><time>2026-04-19T09:40:08.912Z</time></trkpt><trkpt lat="43.5134625" lon="12.5640768"><ele>389.75</ele><time>2026-04-19T09:40:09.91Z</time></trkpt><trkpt lat="43.5133751" lon="12.5639381"><ele>391.0</ele><time>2026-04-19T09:40:10.911Z</time></trkpt><trkpt lat="43.5133013" lon="12.5637971"><ele>391.0</ele><time>2026-04-19T09:40:11.911Z</time></trkpt><trkpt lat="43.5132455" lon="12.5636359"><ele>391.0</ele><time>2026-04-19T09:40:12.911Z</time></trkpt><trkpt lat="43.5132113" lon="12.5634484"><ele>391.0</ele><time>2026-04-19T09:40:13.911Z</time></trkpt><trkpt lat="43.5131831" lon="12.5632597"><ele>391.0</ele><time>2026-04-19T09:40:14.91Z</time></trkpt><trkpt lat="43.5131484" lon="12.5630881"><ele>391.0</ele><time>2026-04-19T09:40:15.911Z</time></trkpt><trkpt lat="43.5130929" lon="12.562941"><ele>391.0</ele><time>2026-04-19T09:40:16.911Z</time></trkpt><trkpt lat="43.5130155" lon="12.5628291"><ele>391.0</ele><time>2026-04-19T09:40:17.911Z</time></trkpt><trkpt lat="43.5129367" lon="12.5627"><ele>391.0</ele><time>2026-04-19T09:40:18.912Z</time></trkpt><trkpt lat="43.5128126" lon="12.562622"><ele>392.6666666666667</ele><time>2026-04-19T09:40:19.91Z</time></trkpt><trkpt lat="43.5126559" lon="12.5625559"><ele>394.33333333333337</ele><time>2026-04-19T09:40:20.911Z</time></trkpt><trkpt lat="43.5125278" lon="12.5624313"><ele>396.0</ele><time>2026-04-19T09:40:21.912Z</time></trkpt><trkpt lat="43.5123885" lon="12.5622893"><ele>396.0</ele><time>2026-04-19T09:40:22.912Z</time></trkpt><trkpt lat="43.5122672" lon="12.5621216"><ele>396.0</ele><time>2026-04-19T09:40:23.911Z</time></trkpt><trkpt lat="43.5121573" lon="12.5619472"><ele>396.0</ele><time>2026-04-19T09:40:24.911Z</time></trkpt><trkpt lat="43.5120617" lon="12.5617656"><ele>398.75</ele><time>2026-04-19T09:40:25.911Z</time></trkpt><trkpt lat="43.5119768" lon="12.5615943"><ele>401.5</ele><time>2026-04-19T09:40:26.911Z</time></trkpt><trkpt lat="43.5119209" lon="12.5614135"><ele>404.25</ele><time>2026-04-19T09:40:27.912Z</time></trkpt><trkpt lat="43.5118921" lon="12.5612186"><ele>407.0</ele><time>2026-04-19T09:40:28.912Z</time></trkpt><trkpt lat="43.5118801" lon="12.5610109"><ele>407.0</ele><time>2026-04-19T09:40:29.912Z</time></trkpt><trkpt lat="43.5118924" lon="12.5607988"><ele>407.0</ele><time>2026-04-19T09:40:30.912Z</time></trkpt><trkpt lat="43.5119446" lon="12.5605981"><ele>407.0</ele><time>2026-04-19T09:40:31.91Z</time></trkpt><trkpt lat="43.511997" lon="12.5603996"><ele>406.0</ele><time>2026-04-19T09:40:32.911Z</time></trkpt><trkpt lat="43.5120681" lon="12.560192"><ele>405.0</ele><time>2026-04-19T09:40:33.912Z</time></trkpt><trkpt lat="43.5121415" lon="12.5599803"><ele>404.0</ele><time>2026-04-19T09:40:34.912Z</time></trkpt><trkpt lat="43.5122108" lon="12.55978"><ele>402.5</ele><time>2026-04-19T09:40:35.911Z</time></trkpt><trkpt lat="43.5122757" lon="12.5595873"><ele>401.0</ele><time>2026-04-19T09:40:36.912Z</time></trkpt><trkpt lat="43.5123384" lon="12.5594066"><ele>399.5</ele><time>2026-04-19T09:40:37.912Z</time></trkpt><trkpt lat="43.5123995" lon="12.5592322"><ele>398.0</ele><time>2026-04-19T09:40:38.91Z</time></trkpt><trkpt lat="43.5124593" lon="12.5590589"><ele>398.0</ele><time>2026-04-19T09:40:39.912Z</time></trkpt><trkpt lat="43.5125163" lon="12.5588883"><ele>398.0</ele><time>2026-04-19T09:40:40.912Z</time></trkpt><trkpt lat="43.5125685" lon="12.5587304"><ele>398.0</ele><time>2026-04-19T09:40:41.912Z</time></trkpt><trkpt lat="43.5126087" lon="12.5585735"><ele>398.0</ele><time>2026-04-19T09:40:42.91Z</time></trkpt><trkpt lat="43.5126285" lon="12.5584183"><ele>398.0</ele><time>2026-04-19T09:40:43.912Z</time></trkpt><trkpt lat="43.5126224" lon="12.5582546"><ele>398.0</ele><time>2026-04-19T09:40:44.911Z</time></trkpt><trkpt lat="43.5126034" lon="12.5580921"><ele>398.0</ele><time>2026-04-19T09:40:45.911Z</time></trkpt><trkpt lat="43.5125727" lon="12.557929"><ele>398.0</ele><time>2026-04-19T09:40:46.911Z</time></trkpt><trkpt lat="43.5125353" lon="12.5577567"><ele>398.0</ele><time>2026-04-19T09:40:47.911Z</time></trkpt><trkpt lat="43.5124991" lon="12.5575865"><ele>398.0</ele><time>2026-04-19T09:40:48.911Z</time></trkpt><trkpt lat="43.5124615" lon="12.5574214"><ele>398.0</ele><time>2026-04-19T09:40:49.911Z</time></trkpt><trkpt lat="43.5124268" lon="12.5572624"><ele>398.0</ele><time>2026-04-19T09:40:50.911Z</time></trkpt><trkpt lat="43.5123909" lon="12.557113"><ele>397.75</ele><time>2026-04-19T09:40:51.911Z</time></trkpt><trkpt lat="43.5123551" lon="12.5569667"><ele>397.5</ele><time>2026-04-19T09:40:52.911Z</time></trkpt><trkpt lat="43.5123176" lon="12.5568214"><ele>397.25</ele><time>2026-04-19T09:40:53.91Z</time></trkpt><trkpt lat="43.5122803" lon="12.5566725"><ele>397.0</ele><time>2026-04-19T09:40:54.909Z</time></trkpt><trkpt lat="43.5122498" lon="12.5565154"><ele>397.0</ele><time>2026-04-19T09:40:55.91Z</time></trkpt><trkpt lat="43.5122323" lon="12.5563561"><ele>397.0</ele><time>2026-04-19T09:40:56.911Z</time></trkpt><trkpt lat="43.5122356" lon="12.5561912"><ele>397.0</ele><time>2026-04-19T09:40:57.911Z</time></trkpt><trkpt lat="43.5122503" lon="12.5560277"><ele>397.0</ele><time>2026-04-19T09:40:58.909Z</time></trkpt><trkpt lat="43.51227" lon="12.5558544"><ele>396.75</ele><time>2026-04-19T09:40:59.91Z</time></trkpt><trkpt lat="43.5122903" lon="12.555675"><ele>396.5</ele><time>2026-04-19T09:41:00.909Z</time></trkpt><trkpt lat="43.5123094" lon="12.5554985"><ele>396.25</ele><time>2026-04-19T09:41:01.91Z</time></trkpt><trkpt lat="43.5123305" lon="12.5553208"><ele>396.0</ele><time>2026-04-19T09:41:02.91Z</time></trkpt><trkpt lat="43.5123556" lon="12.5551489"><ele>395.75</ele><time>2026-04-19T09:41:03.909Z</time></trkpt><trkpt lat="43.5123791" lon="12.5549834"><ele>395.5</ele><time>2026-04-19T09:41:04.911Z</time></trkpt><trkpt lat="43.5124009" lon="12.5548223"><ele>395.25</ele><time>2026-04-19T09:41:05.91Z</time></trkpt><trkpt lat="43.5124114" lon="12.5546503"><ele>395.0</ele><time>2026-04-19T09:41:06.911Z</time></trkpt><trkpt lat="43.512421" lon="12.5544935"><ele>395.5</ele><time>2026-04-19T09:41:07.91Z</time></trkpt><trkpt lat="43.5123834" lon="12.5543115"><ele>396.0</ele><time>2026-04-19T09:41:08.909Z</time></trkpt><trkpt lat="43.5123317" lon="12.5541506"><ele>396.5</ele><time>2026-04-19T09:41:09.91Z</time></trkpt><trkpt lat="43.5122718" lon="12.5539863"><ele>397.0</ele><time>2026-04-19T09:41:10.911Z</time></trkpt><trkpt lat="43.5122071" lon="12.5538197"><ele>396.25</ele><time>2026-04-19T09:41:11.911Z</time></trkpt><trkpt lat="43.5121394" lon="12.5536557"><ele>395.5</ele><time>2026-04-19T09:41:12.91Z</time></trkpt><trkpt lat="43.512067" lon="12.5534858"><ele>394.75</ele><time>2026-04-19T09:41:13.911Z</time></trkpt><trkpt lat="43.5120042" lon="12.5533191"><ele>394.0</ele><time>2026-04-19T09:41:14.911Z</time></trkpt><trkpt lat="43.5119324" lon="12.5531429"><ele>396.0</ele><time>2026-04-19T09:41:15.911Z</time></trkpt><trkpt lat="43.5118541" lon="12.552951"><ele>398.0</ele><time>2026-04-19T09:41:16.909Z</time></trkpt><trkpt lat="43.5117705" lon="12.5527348"><ele>400.0</ele><time>2026-04-19T09:41:17.91Z</time></trkpt><trkpt lat="43.5116779" lon="12.5525131"><ele>400.0</ele><time>2026-04-19T09:41:18.91Z</time></trkpt><trkpt lat="43.5115829" lon="12.5522929"><ele>400.0</ele><time>2026-04-19T09:41:19.91Z</time></trkpt><trkpt lat="43.5114815" lon="12.5520708"><ele>400.0</ele><time>2026-04-19T09:41:20.911Z</time></trkpt><trkpt lat="43.5113779" lon="12.5518582"><ele>398.75</ele><time>2026-04-19T09:41:21.91Z</time></trkpt><trkpt lat="43.5112846" lon="12.5516761"><ele>397.5</ele><time>2026-04-19T09:41:22.91Z</time></trkpt><trkpt lat="43.5112003" lon="12.5515148"><ele>396.25</ele><time>2026-04-19T09:41:23.911Z</time></trkpt><trkpt lat="43.5111161" lon="12.5513605"><ele>395.0</ele><time>2026-04-19T09:41:24.91Z</time></trkpt><trkpt lat="43.511035" lon="12.5512077"><ele>396.5</ele><time>2026-04-19T09:41:25.911Z</time></trkpt><trkpt lat="43.510952" lon="12.5510472"><ele>398.0</ele><time>2026-04-19T09:41:26.91Z</time></trkpt><trkpt lat="43.5108737" lon="12.5508744"><ele>399.5</ele><time>2026-04-19T09:41:27.91Z</time></trkpt><trkpt lat="43.5108109" lon="12.5506858"><ele>401.0</ele><time>2026-04-19T09:41:28.91Z</time></trkpt><trkpt lat="43.5107554" lon="12.5504863"><ele>400.3333333333333</ele><time>2026-04-19T09:41:29.91Z</time></trkpt><trkpt lat="43.5106902" lon="12.5502748"><ele>399.66666666666663</ele><time>2026-04-19T09:41:30.911Z</time></trkpt><trkpt lat="43.5106372" lon="12.5500691"><ele>399.0</ele><time>2026-04-19T09:41:31.909Z</time></trkpt><trkpt lat="43.5105786" lon="12.5498461"><ele>399.0</ele><time>2026-04-19T09:41:32.911Z</time></trkpt><trkpt lat="43.5105275" lon="12.5496366"><ele>399.0</ele><time>2026-04-19T09:41:33.91Z</time></trkpt><trkpt lat="43.5104646" lon="12.5494277"><ele>399.0</ele><time>2026-04-19T09:41:34.911Z</time></trkpt><trkpt lat="43.5104012" lon="12.5492126"><ele>402.33333333333337</ele><time>2026-04-19T09:41:35.91Z</time></trkpt><trkpt lat="43.5103528" lon="12.5489838"><ele>405.6666666666667</ele><time>2026-04-19T09:41:36.911Z</time></trkpt><trkpt lat="43.5103018" lon="12.54875"><ele>409.0</ele><time>2026-04-19T09:41:37.91Z</time></trkpt><trkpt lat="43.5102535" lon="12.5485267"><ele>409.0</ele><time>2026-04-19T09:41:38.91Z</time></trkpt><trkpt lat="43.510195" lon="12.5483043"><ele>409.0</ele><time>2026-04-19T09:41:39.911Z</time></trkpt><trkpt lat="43.5101444" lon="12.5480713"><ele>409.0</ele><time>2026-04-19T09:41:40.91Z</time></trkpt><trkpt lat="43.5100888" lon="12.547848"><ele>408.6666666666667</ele><time>2026-04-19T09:41:41.91Z</time></trkpt><trkpt lat="43.5100322" lon="12.5476291"><ele>408.33333333333337</ele><time>2026-04-19T09:41:42.911Z</time></trkpt><trkpt lat="43.5099788" lon="12.5474127"><ele>408.0</ele><time>2026-04-19T09:41:43.911Z</time></trkpt><trkpt lat="43.5099251" lon="12.5471935"><ele>406.66666666666663</ele><time>2026-04-19T09:41:44.911Z</time></trkpt><trkpt lat="43.5098704" lon="12.5469769"><ele>405.3333333333333</ele><time>2026-04-19T09:41:45.909Z</time></trkpt><trkpt lat="43.5098217" lon="12.5467658"><ele>404.0</ele><time>2026-04-19T09:41:46.911Z</time></trkpt><trkpt lat="43.5097724" lon="12.5465402"><ele>404.0</ele><time>2026-04-19T09:41:47.911Z</time></trkpt><trkpt lat="43.5097205" lon="12.5463182"><ele>404.0</ele><time>2026-04-19T09:41:48.911Z</time></trkpt><trkpt lat="43.50967" lon="12.5460935"><ele>404.0</ele><time>2026-04-19T09:41:49.911Z</time></trkpt><trkpt lat="43.5096279" lon="12.5458685"><ele>404.0</ele><time>2026-04-19T09:41:50.911Z</time></trkpt><trkpt lat="43.5095907" lon="12.5456459"><ele>404.0</ele><time>2026-04-19T09:41:51.909Z</time></trkpt><trkpt lat="43.5095525" lon="12.5454351"><ele>404.0</ele><time>2026-04-19T09:41:52.91Z</time></trkpt><trkpt lat="43.5095099" lon="12.5452258"><ele>410.66666666666663</ele><time>2026-04-19T09:41:53.911Z</time></trkpt><trkpt lat="43.5094528" lon="12.5450298"><ele>417.33333333333337</ele><time>2026-04-19T09:41:54.911Z</time></trkpt><trkpt lat="43.5093721" lon="12.5448363"><ele>424.0</ele><time>2026-04-19T09:41:55.91Z</time></trkpt><trkpt lat="43.509281" lon="12.5446388"><ele>419.0</ele><time>2026-04-19T09:41:56.91Z</time></trkpt><trkpt lat="43.5091789" lon="12.5444377"><ele>414.0</ele><time>2026-04-19T09:41:57.911Z</time></trkpt><trkpt lat="43.5090703" lon="12.5442301"><ele>409.0</ele><time>2026-04-19T09:41:58.91Z</time></trkpt><trkpt lat="43.5089543" lon="12.5440173"><ele>409.0</ele><time>2026-04-19T09:41:59.911Z</time></trkpt><trkpt lat="43.508838" lon="12.5437951"><ele>409.0</ele><time>2026-04-19T09:42:00.909Z</time></trkpt><trkpt lat="43.5087169" lon="12.5435531"><ele>409.0</ele><time>2026-04-19T09:42:01.909Z</time></trkpt><trkpt lat="43.5085877" lon="12.5433114"><ele>409.0</ele><time>2026-04-19T09:42:02.909Z</time></trkpt><trkpt lat="43.5084559" lon="12.5430584"><ele>409.0</ele><time>2026-04-19T09:42:03.91Z</time></trkpt><trkpt lat="43.5083218" lon="12.5428125"><ele>409.0</ele><time>2026-04-19T09:42:04.91Z</time></trkpt><trkpt lat="43.5081907" lon="12.5425639"><ele>409.0</ele><time>2026-04-19T09:42:05.911Z</time></trkpt><trkpt lat="43.5080581" lon="12.5423028"><ele>409.0</ele><time>2026-04-19T09:42:06.91Z</time></trkpt><trkpt lat="43.507924" lon="12.5420409"><ele>415.0</ele><time>2026-04-19T09:42:07.91Z</time></trkpt><trkpt lat="43.5077867" lon="12.5417827"><ele>421.0</ele><time>2026-04-19T09:42:08.91Z</time></trkpt><trkpt lat="43.507642" lon="12.541519"><ele>421.0</ele><time>2026-04-19T09:42:09.911Z</time></trkpt><trkpt lat="43.507495" lon="12.5412655"><ele>421.0</ele><time>2026-04-19T09:42:10.911Z</time></trkpt><trkpt lat="43.5073435" lon="12.5410196"><ele>418.5</ele><time>2026-04-19T09:42:11.911Z</time></trkpt><trkpt lat="43.5071824" lon="12.5407885"><ele>416.0</ele><time>2026-04-19T09:42:12.911Z</time></trkpt><trkpt lat="43.5070179" lon="12.5405585"><ele>417.5</ele><time>2026-04-19T09:42:13.91Z</time></trkpt><trkpt lat="43.5068574" lon="12.5403268"><ele>419.0</ele><time>2026-04-19T09:42:14.909Z</time></trkpt><trkpt lat="43.5066988" lon="12.5401011"><ele>419.0</ele><time>2026-04-19T09:42:15.911Z</time></trkpt><trkpt lat="43.5065486" lon="12.5398951"><ele>419.0</ele><time>2026-04-19T09:42:16.91Z</time></trkpt><trkpt lat="43.5064097" lon="12.5396932"><ele>419.0</ele><time>2026-04-19T09:42:17.911Z</time></trkpt><trkpt lat="43.5062904" lon="12.5394885"><ele>423.3333333333333</ele><time>2026-04-19T09:42:18.91Z</time></trkpt><trkpt lat="43.5061937" lon="12.5392731"><ele>427.66666666666663</ele><time>2026-04-19T09:42:19.91Z</time></trkpt><trkpt lat="43.5061227" lon="12.539044"><ele>432.0</ele><time>2026-04-19T09:42:20.909Z</time></trkpt><trkpt lat="43.5060726" lon="12.5387983"><ele>430.66666666666663</ele><time>2026-04-19T09:42:21.91Z</time></trkpt><trkpt lat="43.506031" lon="12.5385426"><ele>429.3333333333333</ele><time>2026-04-19T09:42:22.91Z</time></trkpt><trkpt lat="43.5059864" lon="12.5382831"><ele>428.0</ele><time>2026-04-19T09:42:23.91Z</time></trkpt><trkpt lat="43.5059379" lon="12.5380133"><ele>427.0</ele><time>2026-04-19T09:42:24.91Z</time></trkpt><trkpt lat="43.5058919" lon="12.5377465"><ele>426.0</ele><time>2026-04-19T09:42:25.909Z</time></trkpt><trkpt lat="43.505844" lon="12.5374813"><ele>425.0</ele><time>2026-04-19T09:42:26.909Z</time></trkpt><trkpt lat="43.5058021" lon="12.5372297"><ele>425.3333333333333</ele><time>2026-04-19T09:42:27.91Z</time></trkpt><trkpt lat="43.5057593" lon="12.5369861"><ele>425.66666666666663</ele><time>2026-04-19T09:42:28.909Z</time></trkpt><trkpt lat="43.5057184" lon="12.5367546"><ele>426.0</ele><time>2026-04-19T09:42:29.911Z</time></trkpt><trkpt lat="43.5056816" lon="12.5365415"><ele>426.0</ele><time>2026-04-19T09:42:30.91Z</time></trkpt><trkpt lat="43.5056389" lon="12.536338"><ele>426.0</ele><time>2026-04-19T09:42:31.91Z</time></trkpt><trkpt lat="43.5055984" lon="12.5361487"><ele>426.0</ele><time>2026-04-19T09:42:32.909Z</time></trkpt><trkpt lat="43.5055475" lon="12.5359634"><ele>426.0</ele><time>2026-04-19T09:42:33.911Z</time></trkpt><trkpt lat="43.5054794" lon="12.535795"><ele>426.66666666666663</ele><time>2026-04-19T09:42:34.911Z</time></trkpt><trkpt lat="43.5053976" lon="12.5356311"><ele>427.3333333333333</ele><time>2026-04-19T09:42:35.91Z</time></trkpt><trkpt lat="43.5052619" lon="12.5354585"><ele>428.0</ele><time>2026-04-19T09:42:36.91Z</time></trkpt><trkpt lat="43.5051168" lon="12.5352977"><ele>428.0</ele><time>2026-04-19T09:42:37.911Z</time></trkpt><trkpt lat="43.504975" lon="12.535129"><ele>428.0</ele><time>2026-04-19T09:42:38.91Z</time></trkpt><trkpt lat="43.5048267" lon="12.5349511"><ele>428.0</ele><time>2026-04-19T09:42:39.91Z</time></trkpt><trkpt lat="43.5046731" lon="12.5347605"><ele>428.66666666666663</ele><time>2026-04-19T09:42:40.911Z</time></trkpt><trkpt lat="43.5045171" lon="12.534562"><ele>429.33333333333337</ele><time>2026-04-19T09:42:41.91Z</time></trkpt><trkpt lat="43.5043633" lon="12.53437"><ele>430.0</ele><time>2026-04-19T09:42:42.909Z</time></trkpt><trkpt lat="43.5042171" lon="12.5341797"><ele>430.0</ele><time>2026-04-19T09:42:43.91Z</time></trkpt><trkpt lat="43.504079" lon="12.5339702"><ele>430.0</ele><time>2026-04-19T09:42:44.911Z</time></trkpt><trkpt lat="43.5039421" lon="12.5337292"><ele>430.0</ele><time>2026-04-19T09:42:45.911Z</time></trkpt><trkpt lat="43.5038037" lon="12.5334936"><ele>434.0</ele><time>2026-04-19T09:42:46.91Z</time></trkpt><trkpt lat="43.5036759" lon="12.5332677"><ele>438.0</ele><time>2026-04-19T09:42:47.91Z</time></trkpt><trkpt lat="43.5035612" lon="12.5330528"><ele>442.0</ele><time>2026-04-19T09:42:48.91Z</time></trkpt><trkpt lat="43.5034604" lon="12.5328465"><ele>442.0</ele><time>2026-04-19T09:42:49.91Z</time></trkpt><trkpt lat="43.5033743" lon="12.5326285"><ele>442.0</ele><time>2026-04-19T09:42:50.911Z</time></trkpt><trkpt lat="43.5033203" lon="12.5323931"><ele>442.0</ele><time>2026-04-19T09:42:51.91Z</time></trkpt><trkpt lat="43.5032996" lon="12.532138"><ele>441.0</ele><time>2026-04-19T09:42:52.909Z</time></trkpt><trkpt lat="43.5032748" lon="12.5318794"><ele>440.0</ele><time>2026-04-19T09:42:53.909Z</time></trkpt><trkpt lat="43.5032593" lon="12.5316076"><ele>439.0</ele><time>2026-04-19T09:42:54.91Z</time></trkpt><trkpt lat="43.5032426" lon="12.5313602"><ele>439.33333333333337</ele><time>2026-04-19T09:42:55.908Z</time></trkpt><trkpt lat="43.5032297" lon="12.5311266"><ele>439.66666666666663</ele><time>2026-04-19T09:42:56.91Z</time></trkpt><trkpt lat="43.5031919" lon="12.5309031"><ele>440.0</ele><time>2026-04-19T09:42:57.91Z</time></trkpt><trkpt lat="43.5031384" lon="12.5306957"><ele>440.0</ele><time>2026-04-19T09:42:58.91Z</time></trkpt><trkpt lat="43.50307" lon="12.5304985"><ele>440.0</ele><time>2026-04-19T09:42:59.909Z</time></trkpt><trkpt lat="43.502972" lon="12.530313"><ele>440.0</ele><time>2026-04-19T09:43:00.909Z</time></trkpt><trkpt lat="43.5028288" lon="12.5301409"><ele>442.66666666666663</ele><time>2026-04-19T09:43:01.908Z</time></trkpt><trkpt lat="43.5027033" lon="12.5299468"><ele>445.33333333333337</ele><time>2026-04-19T09:43:02.908Z</time></trkpt><trkpt lat="43.5025697" lon="12.5297488"><ele>448.0</ele><time>2026-04-19T09:43:03.91Z</time></trkpt><trkpt lat="43.502442" lon="12.5295583"><ele>448.0</ele><time>2026-04-19T09:43:04.908Z</time></trkpt><trkpt lat="43.5023208" lon="12.5293816"><ele>448.0</ele><time>2026-04-19T09:43:05.91Z</time></trkpt><trkpt lat="43.5022175" lon="12.5292154"><ele>448.0</ele><time>2026-04-19T09:43:06.909Z</time></trkpt><trkpt lat="43.5021473" lon="12.5290453"><ele>448.0</ele><time>2026-04-19T09:43:07.91Z</time></trkpt><trkpt lat="43.5021213" lon="12.5288623"><ele>448.0</ele><time>2026-04-19T09:43:08.91Z</time></trkpt><trkpt lat="43.502096" lon="12.52867"><ele>448.0</ele><time>2026-04-19T09:43:09.909Z</time></trkpt><trkpt lat="43.5020831" lon="12.5284517"><ele>448.0</ele><time>2026-04-19T09:43:10.908Z</time></trkpt><trkpt lat="43.5020762" lon="12.5282123"><ele>455.0</ele><time>2026-04-19T09:43:11.91Z</time></trkpt><trkpt lat="43.5020743" lon="12.5279576"><ele>462.0</ele><time>2026-04-19T09:43:12.909Z</time></trkpt><trkpt lat="43.5020726" lon="12.5277092"><ele>469.0</ele><time>2026-04-19T09:43:13.91Z</time></trkpt><trkpt lat="43.5020728" lon="12.527447"><ele>470.33333333333337</ele><time>2026-04-19T09:43:14.91Z</time></trkpt><trkpt lat="43.5020761" lon="12.5271586"><ele>471.66666666666663</ele><time>2026-04-19T09:43:15.908Z</time></trkpt><trkpt lat="43.5020724" lon="12.5268728"><ele>473.0</ele><time>2026-04-19T09:43:16.91Z</time></trkpt><trkpt lat="43.5020715" lon="12.5266057"><ele>473.3333333333333</ele><time>2026-04-19T09:43:17.909Z</time></trkpt><trkpt lat="43.5020727" lon="12.526352"><ele>473.66666666666663</ele><time>2026-04-19T09:43:18.908Z</time></trkpt><trkpt lat="43.5020697" lon="12.5261152"><ele>474.0</ele><time>2026-04-19T09:43:19.91Z</time></trkpt><trkpt lat="43.5020528" lon="12.5258602"><ele>474.0</ele><time>2026-04-19T09:43:20.909Z</time></trkpt><trkpt lat="43.5020056" lon="12.5255823"><ele>474.0</ele><time>2026-04-19T09:43:21.909Z</time></trkpt><trkpt lat="43.5019392" lon="12.5253095"><ele>474.0</ele><time>2026-04-19T09:43:22.91Z</time></trkpt><trkpt lat="43.5018795" lon="12.5250197"><ele>474.0</ele><time>2026-04-19T09:43:23.909Z</time></trkpt><trkpt lat="43.5018096" lon="12.5247409"><ele>474.0</ele><time>2026-04-19T09:43:24.91Z</time></trkpt><trkpt lat="43.5017521" lon="12.5244601"><ele>474.0</ele><time>2026-04-19T09:43:25.91Z</time></trkpt><trkpt lat="43.5017009" lon="12.5241726"><ele>469.66666666666663</ele><time>2026-04-19T09:43:26.91Z</time></trkpt><trkpt lat="43.5016608" lon="12.5238787"><ele>465.3333333333333</ele><time>2026-04-19T09:43:27.91Z</time></trkpt><trkpt lat="43.5016161" lon="12.5235815"><ele>461.0</ele><time>2026-04-19T09:43:28.909Z</time></trkpt><trkpt lat="43.501577" lon="12.5233118"><ele>460.0</ele><time>2026-04-19T09:43:29.909Z</time></trkpt><trkpt lat="43.5015402" lon="12.5230402"><ele>459.0</ele><time>2026-04-19T09:43:30.909Z</time></trkpt><trkpt lat="43.5015011" lon="12.5227644"><ele>458.0</ele><time>2026-04-19T09:43:31.909Z</time></trkpt><trkpt lat="43.501475" lon="12.5224962"><ele>457.66666666666663</ele><time>2026-04-19T09:43:32.91Z</time></trkpt><trkpt lat="43.5014534" lon="12.5222346"><ele>457.33333333333337</ele><time>2026-04-19T09:43:33.908Z</time></trkpt><trkpt lat="43.5014313" lon="12.5219892"><ele>457.0</ele><time>2026-04-19T09:43:34.91Z</time></trkpt><trkpt lat="43.5013864" lon="12.5217252"><ele>458.33333333333337</ele><time>2026-04-19T09:43:35.909Z</time></trkpt><trkpt lat="43.5013404" lon="12.5214686"><ele>459.66666666666663</ele><time>2026-04-19T09:43:36.909Z</time></trkpt><trkpt lat="43.5012904" lon="12.5212311"><ele>461.0</ele><time>2026-04-19T09:43:37.91Z</time></trkpt><trkpt lat="43.5012286" lon="12.5210055"><ele>460.0</ele><time>2026-04-19T09:43:38.908Z</time></trkpt><trkpt lat="43.5011495" lon="12.5207784"><ele>459.0</ele><time>2026-04-19T09:43:39.91Z</time></trkpt><trkpt lat="43.5010568" lon="12.5205511"><ele>458.0</ele><time>2026-04-19T09:43:40.909Z</time></trkpt><trkpt lat="43.5009635" lon="12.5203328"><ele>458.0</ele><time>2026-04-19T09:43:41.909Z</time></trkpt><trkpt lat="43.5008719" lon="12.5201237"><ele>458.0</ele><time>2026-04-19T09:43:42.908Z</time></trkpt><trkpt lat="43.5007758" lon="12.5199105"><ele>458.0</ele><time>2026-04-19T09:43:43.91Z</time></trkpt><trkpt lat="43.5006792" lon="12.5196938"><ele>461.0</ele><time>2026-04-19T09:43:44.91Z</time></trkpt><trkpt lat="43.5005769" lon="12.519467"><ele>464.0</ele><time>2026-04-19T09:43:45.91Z</time></trkpt><trkpt lat="43.5004657" lon="12.5192348"><ele>467.0</ele><time>2026-04-19T09:43:46.908Z</time></trkpt><trkpt lat="43.5003686" lon="12.5189945"><ele>467.0</ele><time>2026-04-19T09:43:47.909Z</time></trkpt><trkpt lat="43.5002629" lon="12.5187608"><ele>467.0</ele><time>2026-04-19T09:43:48.909Z</time></trkpt><trkpt lat="43.5001651" lon="12.5185402"><ele>467.0</ele><time>2026-04-19T09:43:49.91Z</time></trkpt><trkpt lat="43.5000784" lon="12.5183295"><ele>466.66666666666663</ele><time>2026-04-19T09:43:50.91Z</time></trkpt><trkpt lat="43.5000056" lon="12.5181099"><ele>466.33333333333337</ele><time>2026-04-19T09:43:51.91Z</time></trkpt><trkpt lat="43.4999544" lon="12.5178998"><ele>466.0</ele><time>2026-04-19T09:43:52.909Z</time></trkpt><trkpt lat="43.4999232" lon="12.5176779"><ele>468.6666666666667</ele><time>2026-04-19T09:43:53.909Z</time></trkpt><trkpt lat="43.4999075" lon="12.5174508"><ele>471.33333333333337</ele><time>2026-04-19T09:43:54.909Z</time></trkpt><trkpt lat="43.4999107" lon="12.5172088"><ele>474.0</ele><time>2026-04-19T09:43:55.91Z</time></trkpt><trkpt lat="43.4999193" lon="12.5169649"><ele>475.0</ele><time>2026-04-19T09:43:56.91Z</time></trkpt><trkpt lat="43.49992" lon="12.5167423"><ele>476.0</ele><time>2026-04-19T09:43:57.91Z</time></trkpt><trkpt lat="43.4999116" lon="12.5165437"><ele>477.0</ele><time>2026-04-19T09:43:58.908Z</time></trkpt><trkpt lat="43.4998845" lon="12.5163759"><ele>478.0</ele><time>2026-04-19T09:43:59.908Z</time></trkpt><trkpt lat="43.4998186" lon="12.5162357"><ele>479.0</ele><time>2026-04-19T09:44:00.91Z</time></trkpt><trkpt lat="43.4997233" lon="12.5161215"><ele>480.0</ele><time>2026-04-19T09:44:01.91Z</time></trkpt><trkpt lat="43.4996133" lon="12.5160055"><ele>481.0</ele><time>2026-04-19T09:44:02.91Z</time></trkpt><trkpt lat="43.4994703" lon="12.5159008"><ele>482.0</ele><time>2026-04-19T09:44:03.91Z</time></trkpt><trkpt lat="43.4993291" lon="12.5157971"><ele>478.66666666666663</ele><time>2026-04-19T09:44:04.909Z</time></trkpt><trkpt lat="43.499188" lon="12.515698"><ele>475.33333333333337</ele><time>2026-04-19T09:44:05.91Z</time></trkpt><trkpt lat="43.4990333" lon="12.515569"><ele>472.0</ele><time>2026-04-19T09:44:06.908Z</time></trkpt><trkpt lat="43.4988749" lon="12.5154572"><ele>472.33333333333337</ele><time>2026-04-19T09:44:07.91Z</time></trkpt><trkpt lat="43.4987368" lon="12.5153347"><ele>472.66666666666663</ele><time>2026-04-19T09:44:08.909Z</time></trkpt><trkpt lat="43.498614" lon="12.5152172"><ele>473.0</ele><time>2026-04-19T09:44:09.908Z</time></trkpt><trkpt lat="43.4984966" lon="12.5150638"><ele>473.0</ele><time>2026-04-19T09:44:10.91Z</time></trkpt><trkpt lat="43.4983854" lon="12.5148878"><ele>473.0</ele><time>2026-04-19T09:44:11.909Z</time></trkpt><trkpt lat="43.4982777" lon="12.5147017"><ele>473.0</ele><time>2026-04-19T09:44:12.909Z</time></trkpt><trkpt lat="43.4981856" lon="12.5145142"><ele>474.0</ele><time>2026-04-19T09:44:13.908Z</time></trkpt><trkpt lat="43.4981106" lon="12.5143326"><ele>475.0</ele><time>2026-04-19T09:44:14.909Z</time></trkpt><trkpt lat="43.4980559" lon="12.5141421"><ele>476.0</ele><time>2026-04-19T09:44:15.909Z</time></trkpt><trkpt lat="43.4980246" lon="12.5139274"><ele>476.66666666666663</ele><time>2026-04-19T09:44:16.909Z</time></trkpt><trkpt lat="43.4980101" lon="12.5136981"><ele>477.33333333333337</ele><time>2026-04-19T09:44:17.908Z</time></trkpt><trkpt lat="43.4979986" lon="12.5134535"><ele>478.0</ele><time>2026-04-19T09:44:18.909Z</time></trkpt><trkpt lat="43.4979873" lon="12.5131871"><ele>478.0</ele><time>2026-04-19T09:44:19.908Z</time></trkpt><trkpt lat="43.4979752" lon="12.5129133"><ele>478.0</ele><time>2026-04-19T09:44:20.909Z</time></trkpt><trkpt lat="43.4979657" lon="12.5126276"><ele>478.0</ele><time>2026-04-19T09:44:21.907Z</time></trkpt><trkpt lat="43.4979553" lon="12.5123601"><ele>479.0</ele><time>2026-04-19T09:44:22.908Z</time></trkpt><trkpt lat="43.4979537" lon="12.5120806"><ele>480.0</ele><time>2026-04-19T09:44:23.907Z</time></trkpt><trkpt lat="43.4979467" lon="12.5118021"><ele>481.0</ele><time>2026-04-19T09:44:24.908Z</time></trkpt><trkpt lat="43.4979375" lon="12.5115227"><ele>477.33333333333337</ele><time>2026-04-19T09:44:25.909Z</time></trkpt><trkpt lat="43.4979263" lon="12.5112364"><ele>473.66666666666663</ele><time>2026-04-19T09:44:26.908Z</time></trkpt><trkpt lat="43.49792" lon="12.5109496"><ele>470.0</ele><time>2026-04-19T09:44:27.908Z</time></trkpt><trkpt lat="43.497909" lon="12.5106527"><ele>470.0</ele><time>2026-04-19T09:44:28.908Z</time></trkpt><trkpt lat="43.4978941" lon="12.5103561"><ele>470.0</ele><time>2026-04-19T09:44:29.909Z</time></trkpt><trkpt lat="43.4978827" lon="12.5100692"><ele>470.0</ele><time>2026-04-19T09:44:30.909Z</time></trkpt><trkpt lat="43.497869" lon="12.509807"><ele>470.66666666666663</ele><time>2026-04-19T09:44:31.908Z</time></trkpt><trkpt lat="43.4978572" lon="12.5095466"><ele>471.33333333333337</ele><time>2026-04-19T09:44:32.908Z</time></trkpt><trkpt lat="43.4978326" lon="12.5092827"><ele>472.0</ele><time>2026-04-19T09:44:33.908Z</time></trkpt><trkpt lat="43.4977886" lon="12.5090354"><ele>472.0</ele><time>2026-04-19T09:44:34.908Z</time></trkpt><trkpt lat="43.4977099" lon="12.5087759"><ele>472.0</ele><time>2026-04-19T09:44:35.908Z</time></trkpt><trkpt lat="43.4976195" lon="12.5085223"><ele>472.0</ele><time>2026-04-19T09:44:36.909Z</time></trkpt><trkpt lat="43.497528" lon="12.5082538"><ele>474.0</ele><time>2026-04-19T09:44:37.907Z</time></trkpt><trkpt lat="43.4974304" lon="12.5079912"><ele>476.0</ele><time>2026-04-19T09:44:38.908Z</time></trkpt><trkpt lat="43.4973285" lon="12.5077311"><ele>478.0</ele><time>2026-04-19T09:44:39.908Z</time></trkpt><trkpt lat="43.4972283" lon="12.5074695"><ele>476.33333333333337</ele><time>2026-04-19T09:44:40.909Z</time></trkpt><trkpt lat="43.4971313" lon="12.5072117"><ele>474.66666666666663</ele><time>2026-04-19T09:44:41.908Z</time></trkpt><trkpt lat="43.4970301" lon="12.5069597"><ele>473.0</ele><time>2026-04-19T09:44:42.908Z</time></trkpt><trkpt lat="43.496938" lon="12.5067174"><ele>473.0</ele><time>2026-04-19T09:44:43.907Z</time></trkpt><trkpt lat="43.4968502" lon="12.5064858"><ele>473.0</ele><time>2026-04-19T09:44:44.908Z</time></trkpt><trkpt lat="43.4967638" lon="12.5062601"><ele>473.0</ele><time>2026-04-19T09:44:45.908Z</time></trkpt><trkpt lat="43.4966839" lon="12.5060448"><ele>474.3333333333333</ele><time>2026-04-19T09:44:46.908Z</time></trkpt><trkpt lat="43.4966099" lon="12.5058363"><ele>475.66666666666663</ele><time>2026-04-19T09:44:47.908Z</time></trkpt><trkpt lat="43.4965454" lon="12.5056345"><ele>477.0</ele><time>2026-04-19T09:44:48.908Z</time></trkpt><trkpt lat="43.4965021" lon="12.5054111"><ele>477.33333333333337</ele><time>2026-04-19T09:44:49.907Z</time></trkpt><trkpt lat="43.49647" lon="12.5051685"><ele>477.6666666666667</ele><time>2026-04-19T09:44:50.908Z</time></trkpt><trkpt lat="43.4964417" lon="12.5049075"><ele>478.0</ele><time>2026-04-19T09:44:51.909Z</time></trkpt><trkpt lat="43.4964073" lon="12.5046252"><ele>478.0</ele><time>2026-04-19T09:44:52.909Z</time></trkpt><trkpt lat="43.4963744" lon="12.5043344"><ele>478.0</ele><time>2026-04-19T09:44:53.909Z</time></trkpt><trkpt lat="43.4963456" lon="12.5040439"><ele>478.0</ele><time>2026-04-19T09:44:54.909Z</time></trkpt><trkpt lat="43.4963148" lon="12.5037602"><ele>478.33333333333337</ele><time>2026-04-19T09:44:55.909Z</time></trkpt><trkpt lat="43.4962849" lon="12.5034666"><ele>478.66666666666663</ele><time>2026-04-19T09:44:56.909Z</time></trkpt><trkpt lat="43.496252" lon="12.503165"><ele>479.0</ele><time>2026-04-19T09:44:57.909Z</time></trkpt><trkpt lat="43.4962164" lon="12.5028653"><ele>481.0</ele><time>2026-04-19T09:44:58.908Z</time></trkpt><trkpt lat="43.4961827" lon="12.5025657"><ele>483.0</ele><time>2026-04-19T09:44:59.909Z</time></trkpt><trkpt lat="43.4961486" lon="12.5022573"><ele>485.0</ele><time>2026-04-19T09:45:00.909Z</time></trkpt><trkpt lat="43.4961081" lon="12.5019402"><ele>486.5</ele><time>2026-04-19T09:45:01.908Z</time></trkpt><trkpt lat="43.4960773" lon="12.5016288"><ele>488.0</ele><time>2026-04-19T09:45:02.908Z</time></trkpt><trkpt lat="43.4960441" lon="12.5013202"><ele>488.0</ele><time>2026-04-19T09:45:03.909Z</time></trkpt><trkpt lat="43.4960127" lon="12.5010137"><ele>488.0</ele><time>2026-04-19T09:45:04.908Z</time></trkpt><trkpt lat="43.4959782" lon="12.5007085"><ele>488.0</ele><time>2026-04-19T09:45:05.908Z</time></trkpt><trkpt lat="43.4959474" lon="12.5004183"><ele>487.0</ele><time>2026-04-19T09:45:06.908Z</time></trkpt><trkpt lat="43.4959175" lon="12.5001268"><ele>486.0</ele><time>2026-04-19T09:45:07.909Z</time></trkpt><trkpt lat="43.495887" lon="12.4998437"><ele>485.0</ele><time>2026-04-19T09:45:08.909Z</time></trkpt><trkpt lat="43.4958607" lon="12.4995429"><ele>485.0</ele><time>2026-04-19T09:45:09.908Z</time></trkpt><trkpt lat="43.4958305" lon="12.4992532"><ele>485.0</ele><time>2026-04-19T09:45:10.907Z</time></trkpt><trkpt lat="43.495789" lon="12.4989642"><ele>485.0</ele><time>2026-04-19T09:45:11.908Z</time></trkpt><trkpt lat="43.4957299" lon="12.4986797"><ele>486.3333333333333</ele><time>2026-04-19T09:45:12.908Z</time></trkpt><trkpt lat="43.4956552" lon="12.4983985"><ele>487.66666666666663</ele><time>2026-04-19T09:45:13.908Z</time></trkpt><trkpt lat="43.4955673" lon="12.498115"><ele>489.0</ele><time>2026-04-19T09:45:14.908Z</time></trkpt><trkpt lat="43.4954808" lon="12.4978265"><ele>489.5</ele><time>2026-04-19T09:45:15.908Z</time></trkpt><trkpt lat="43.4953948" lon="12.4975378"><ele>490.0</ele><time>2026-04-19T09:45:16.908Z</time></trkpt><trkpt lat="43.4953109" lon="12.4972527"><ele>491.6666666666667</ele><time>2026-04-19T09:45:17.907Z</time></trkpt><trkpt lat="43.4952272" lon="12.4969848"><ele>493.33333333333337</ele><time>2026-04-19T09:45:18.908Z</time></trkpt><trkpt lat="43.4951451" lon="12.4967175"><ele>495.0</ele><time>2026-04-19T09:45:19.908Z</time></trkpt><trkpt lat="43.4950682" lon="12.4964547"><ele>497.0</ele><time>2026-04-19T09:45:20.908Z</time></trkpt><trkpt lat="43.4949897" lon="12.4961889"><ele>499.0</ele><time>2026-04-19T09:45:21.908Z</time></trkpt><trkpt lat="43.4949075" lon="12.495914"><ele>501.0</ele><time>2026-04-19T09:45:22.909Z</time></trkpt><trkpt lat="43.4948187" lon="12.4956333"><ele>499.33333333333337</ele><time>2026-04-19T09:45:23.909Z</time></trkpt><trkpt lat="43.4947306" lon="12.4953503"><ele>497.6666666666667</ele><time>2026-04-19T09:45:24.907Z</time></trkpt><trkpt lat="43.4946439" lon="12.4950767"><ele>496.0</ele><time>2026-04-19T09:45:25.908Z</time></trkpt><trkpt lat="43.4945609" lon="12.4948149"><ele>498.33333333333337</ele><time>2026-04-19T09:45:26.909Z</time></trkpt><trkpt lat="43.4944836" lon="12.4945662"><ele>500.66666666666663</ele><time>2026-04-19T09:45:27.909Z</time></trkpt><trkpt lat="43.4943989" lon="12.4943283"><ele>503.0</ele><time>2026-04-19T09:45:28.908Z</time></trkpt><trkpt lat="43.4942936" lon="12.4941022"><ele>503.0</ele><time>2026-04-19T09:45:29.908Z</time></trkpt><trkpt lat="43.4941724" lon="12.4938797"><ele>503.0</ele><time>2026-04-19T09:45:30.908Z</time></trkpt><trkpt lat="43.4940363" lon="12.4936671"><ele>503.0</ele><time>2026-04-19T09:45:31.908Z</time></trkpt><trkpt lat="43.493891" lon="12.4934501"><ele>502.3333333333333</ele><time>2026-04-19T09:45:32.907Z</time></trkpt><trkpt lat="43.4937378" lon="12.4932343"><ele>501.66666666666663</ele><time>2026-04-19T09:45:33.909Z</time></trkpt><trkpt lat="43.4935844" lon="12.4930145"><ele>501.0</ele><time>2026-04-19T09:45:34.908Z</time></trkpt><trkpt lat="43.4934274" lon="12.4927948"><ele>510.5</ele><time>2026-04-19T09:45:35.907Z</time></trkpt><trkpt lat="43.4932717" lon="12.4925683"><ele>520.0</ele><time>2026-04-19T09:45:36.908Z</time></trkpt><trkpt lat="43.4931152" lon="12.4923389"><ele>520.0</ele><time>2026-04-19T09:45:37.907Z</time></trkpt><trkpt lat="43.4929592" lon="12.4921163"><ele>520.0</ele><time>2026-04-19T09:45:38.909Z</time></trkpt><trkpt lat="43.4928033" lon="12.491895"><ele>520.0</ele><time>2026-04-19T09:45:39.909Z</time></trkpt><trkpt lat="43.4926503" lon="12.491677"><ele>520.0</ele><time>2026-04-19T09:45:40.908Z</time></trkpt><trkpt lat="43.4925253" lon="12.4914738"><ele>520.0</ele><time>2026-04-19T09:45:41.908Z</time></trkpt><trkpt lat="43.4923988" lon="12.4912853"><ele>520.0</ele><time>2026-04-19T09:45:42.909Z</time></trkpt><trkpt lat="43.4922817" lon="12.4910954"><ele>520.0</ele><time>2026-04-19T09:45:43.908Z</time></trkpt><trkpt lat="43.4921815" lon="12.4909071"><ele>520.0</ele><time>2026-04-19T09:45:44.907Z</time></trkpt><trkpt lat="43.4920839" lon="12.4906993"><ele>520.0</ele><time>2026-04-19T09:45:45.907Z</time></trkpt><trkpt lat="43.4919848" lon="12.4904756"><ele>518.3333333333334</ele><time>2026-04-19T09:45:46.908Z</time></trkpt><trkpt lat="43.4918956" lon="12.4902509"><ele>516.6666666666666</ele><time>2026-04-19T09:45:47.909Z</time></trkpt><trkpt lat="43.4918111" lon="12.4900371"><ele>515.0</ele><time>2026-04-19T09:45:48.908Z</time></trkpt><trkpt lat="43.491729" lon="12.4898328"><ele>515.0</ele><time>2026-04-19T09:45:49.909Z</time></trkpt><trkpt lat="43.4916596" lon="12.4896294"><ele>515.0</ele><time>2026-04-19T09:45:50.908Z</time></trkpt><trkpt lat="43.4916177" lon="12.4894103"><ele>515.0</ele><time>2026-04-19T09:45:51.907Z</time></trkpt><trkpt lat="43.4915958" lon="12.4891745"><ele>517.6666666666666</ele><time>2026-04-19T09:45:52.909Z</time></trkpt><trkpt lat="43.4915827" lon="12.4889203"><ele>520.3333333333334</ele><time>2026-04-19T09:45:53.909Z</time></trkpt><trkpt lat="43.4915694" lon="12.4886521"><ele>523.0</ele><time>2026-04-19T09:45:54.908Z</time></trkpt><trkpt lat="43.4915628" lon="12.4883531"><ele>523.0</ele><time>2026-04-19T09:45:55.908Z</time></trkpt><trkpt lat="43.4915546" lon="12.4880422"><ele>523.0</ele><time>2026-04-19T09:45:56.908Z</time></trkpt><trkpt lat="43.4915487" lon="12.4877449"><ele>523.0</ele><time>2026-04-19T09:45:57.908Z</time></trkpt><trkpt lat="43.4915413" lon="12.4874387"><ele>524.5</ele><time>2026-04-19T09:45:58.909Z</time></trkpt><trkpt lat="43.4915353" lon="12.4871246"><ele>526.0</ele><time>2026-04-19T09:45:59.908Z</time></trkpt><trkpt lat="43.4915309" lon="12.4868065"><ele>526.5</ele><time>2026-04-19T09:46:00.909Z</time></trkpt><trkpt lat="43.4915239" lon="12.4864907"><ele>527.0</ele><time>2026-04-19T09:46:01.909Z</time></trkpt><trkpt lat="43.4915122" lon="12.4861845"><ele>527.0</ele><time>2026-04-19T09:46:02.909Z</time></trkpt><trkpt lat="43.4914958" lon="12.4858944"><ele>527.0</ele><time>2026-04-19T09:46:03.909Z</time></trkpt><trkpt lat="43.4914864" lon="12.485603"><ele>527.0</ele><time>2026-04-19T09:46:04.908Z</time></trkpt><trkpt lat="43.4914813" lon="12.4853013"><ele>527.3333333333333</ele><time>2026-04-19T09:46:05.908Z</time></trkpt><trkpt lat="43.4914868" lon="12.4850011"><ele>527.6666666666666</ele><time>2026-04-19T09:46:06.908Z</time></trkpt><trkpt lat="43.4915044" lon="12.4846921"><ele>528.0</ele><time>2026-04-19T09:46:07.909Z</time></trkpt><trkpt lat="43.491527" lon="12.4843753"><ele>528.0</ele><time>2026-04-19T09:46:08.907Z</time></trkpt><trkpt lat="43.4915563" lon="12.4840702"><ele>528.0</ele><time>2026-04-19T09:46:09.908Z</time></trkpt><trkpt lat="43.4915855" lon="12.4837798"><ele>528.0</ele><time>2026-04-19T09:46:10.909Z</time></trkpt><trkpt lat="43.4916182" lon="12.4834981"><ele>527.6666666666666</ele><time>2026-04-19T09:46:11.907Z</time></trkpt><trkpt lat="43.4916579" lon="12.4832172"><ele>527.3333333333333</ele><time>2026-04-19T09:46:12.909Z</time></trkpt><trkpt lat="43.4917141" lon="12.4829439"><ele>527.0</ele><time>2026-04-19T09:46:13.908Z</time></trkpt><trkpt lat="43.4917832" lon="12.4826692"><ele>528.6666666666666</ele><time>2026-04-19T09:46:14.909Z</time></trkpt><trkpt lat="43.4918511" lon="12.4824078"><ele>530.3333333333334</ele><time>2026-04-19T09:46:15.908Z</time></trkpt><trkpt lat="43.4919219" lon="12.482171"><ele>532.0</ele><time>2026-04-19T09:46:16.908Z</time></trkpt><trkpt lat="43.4919917" lon="12.4819274"><ele>532.0</ele><time>2026-04-19T09:46:17.908Z</time></trkpt><trkpt lat="43.4920652" lon="12.4816786"><ele>532.0</ele><time>2026-04-19T09:46:18.908Z</time></trkpt><trkpt lat="43.4921395" lon="12.4814193"><ele>532.0</ele><time>2026-04-19T09:46:19.908Z</time></trkpt><trkpt lat="43.4922104" lon="12.4811568"><ele>532.6666666666667</ele><time>2026-04-19T09:46:20.908Z</time></trkpt><trkpt lat="43.4922881" lon="12.4808971"><ele>533.3333333333334</ele><time>2026-04-19T09:46:21.908Z</time></trkpt><trkpt lat="43.4923687" lon="12.4806244"><ele>534.0</ele><time>2026-04-19T09:46:22.907Z</time></trkpt><trkpt lat="43.4924511" lon="12.480346"><ele>534.0</ele><time>2026-04-19T09:46:23.908Z</time></trkpt><trkpt lat="43.4925329" lon="12.4800557"><ele>534.0</ele><time>2026-04-19T09:46:24.908Z</time></trkpt><trkpt lat="43.4926218" lon="12.47977"><ele>534.0</ele><time>2026-04-19T09:46:25.908Z</time></trkpt><trkpt lat="43.4927106" lon="12.4794877"><ele>534.0</ele><time>2026-04-19T09:46:26.909Z</time></trkpt><trkpt lat="43.4927931" lon="12.4792115"><ele>534.0</ele><time>2026-04-19T09:46:27.908Z</time></trkpt><trkpt lat="43.4928709" lon="12.478945"><ele>536.3333333333334</ele><time>2026-04-19T09:46:28.908Z</time></trkpt><trkpt lat="43.492947" lon="12.4786883"><ele>538.6666666666667</ele><time>2026-04-19T09:46:29.908Z</time></trkpt><trkpt lat="43.4930181" lon="12.4784488"><ele>541.0</ele><time>2026-04-19T09:46:30.909Z</time></trkpt><trkpt lat="43.4930779" lon="12.4782073"><ele>541.0</ele><time>2026-04-19T09:46:31.909Z</time></trkpt><trkpt lat="43.4931185" lon="12.4779542"><ele>541.0</ele><time>2026-04-19T09:46:32.909Z</time></trkpt><trkpt lat="43.4931369" lon="12.4776842"><ele>541.0</ele><time>2026-04-19T09:46:33.907Z</time></trkpt><trkpt lat="43.4931468" lon="12.477413"><ele>541.0</ele><time>2026-04-19T09:46:34.908Z</time></trkpt><trkpt lat="43.4931524" lon="12.4771562"><ele>541.0</ele><time>2026-04-19T09:46:35.907Z</time></trkpt><trkpt lat="43.4931573" lon="12.4768982"><ele>541.0</ele><time>2026-04-19T09:46:36.909Z</time></trkpt><trkpt lat="43.4931583" lon="12.4766394"><ele>541.0</ele><time>2026-04-19T09:46:37.909Z</time></trkpt><trkpt lat="43.4931626" lon="12.47637"><ele>541.0</ele><time>2026-04-19T09:46:38.908Z</time></trkpt><trkpt lat="43.4931665" lon="12.4760859"><ele>541.0</ele><time>2026-04-19T09:46:39.908Z</time></trkpt><trkpt lat="43.4931719" lon="12.4758035"><ele>542.3333333333334</ele><time>2026-04-19T09:46:40.909Z</time></trkpt><trkpt lat="43.4931767" lon="12.4755174"><ele>543.6666666666666</ele><time>2026-04-19T09:46:41.909Z</time></trkpt><trkpt lat="43.4931788" lon="12.4752325"><ele>545.0</ele><time>2026-04-19T09:46:42.907Z</time></trkpt><trkpt lat="43.4931822" lon="12.4749518"><ele>546.0</ele><time>2026-04-19T09:46:43.909Z</time></trkpt><trkpt lat="43.4931882" lon="12.4746741"><ele>547.0</ele><time>2026-04-19T09:46:44.909Z</time></trkpt><trkpt lat="43.4931937" lon="12.4743906"><ele>548.0</ele><time>2026-04-19T09:46:45.908Z</time></trkpt><trkpt lat="43.4931988" lon="12.4741066"><ele>548.3333333333333</ele><time>2026-04-19T09:46:46.908Z</time></trkpt><trkpt lat="43.4932034" lon="12.4738195"><ele>548.6666666666666</ele><time>2026-04-19T09:46:47.909Z</time></trkpt><trkpt lat="43.4932059" lon="12.4735593"><ele>549.0</ele><time>2026-04-19T09:46:48.908Z</time></trkpt><trkpt lat="43.4932131" lon="12.4732956"><ele>551.0</ele><time>2026-04-19T09:46:49.908Z</time></trkpt><trkpt lat="43.4932046" lon="12.4730599"><ele>553.0</ele><time>2026-04-19T09:46:50.909Z</time></trkpt><trkpt lat="43.493184" lon="12.4728345"><ele>555.0</ele><time>2026-04-19T09:46:51.908Z</time></trkpt><trkpt lat="43.4931365" lon="12.4726196"><ele>556.3333333333334</ele><time>2026-04-19T09:46:52.909Z</time></trkpt><trkpt lat="43.4930589" lon="12.4724208"><ele>557.6666666666667</ele><time>2026-04-19T09:46:53.907Z</time></trkpt><trkpt lat="43.4929463" lon="12.4722228"><ele>559.0</ele><time>2026-04-19T09:46:54.907Z</time></trkpt><trkpt lat="43.4928203" lon="12.47202"><ele>560.3333333333334</ele><time>2026-04-19T09:46:55.907Z</time></trkpt><trkpt lat="43.4926869" lon="12.4718121"><ele>561.6666666666666</ele><time>2026-04-19T09:46:56.908Z</time></trkpt><trkpt lat="43.4925475" lon="12.4715971"><ele>563.0</ele><time>2026-04-19T09:46:57.908Z</time></trkpt><trkpt lat="43.4924003" lon="12.4713716"><ele>561.3333333333333</ele><time>2026-04-19T09:46:58.909Z</time></trkpt><trkpt lat="43.49225" lon="12.471139"><ele>559.6666666666666</ele><time>2026-04-19T09:46:59.908Z</time></trkpt><trkpt lat="43.4921054" lon="12.4709152"><ele>558.0</ele><time>2026-04-19T09:47:00.908Z</time></trkpt><trkpt lat="43.4919675" lon="12.4706772"><ele>564.0</ele><time>2026-04-19T09:47:01.909Z</time></trkpt><trkpt lat="43.4918285" lon="12.4704288"><ele>570.0</ele><time>2026-04-19T09:47:02.909Z</time></trkpt><trkpt lat="43.491693" lon="12.4701683"><ele>570.0</ele><time>2026-04-19T09:47:03.907Z</time></trkpt><trkpt lat="43.4915564" lon="12.4699011"><ele>570.0</ele><time>2026-04-19T09:47:04.907Z</time></trkpt><trkpt lat="43.4914259" lon="12.469641"><ele>571.6666666666666</ele><time>2026-04-19T09:47:05.907Z</time></trkpt><trkpt lat="43.4913033" lon="12.4693915"><ele>573.3333333333333</ele><time>2026-04-19T09:47:06.907Z</time></trkpt><trkpt lat="43.4911825" lon="12.4691533"><ele>575.0</ele><time>2026-04-19T09:47:07.907Z</time></trkpt><trkpt lat="43.4910742" lon="12.4689371"><ele>577.0</ele><time>2026-04-19T09:47:08.907Z</time></trkpt><trkpt lat="43.4909885" lon="12.4687317"><ele>579.0</ele><time>2026-04-19T09:47:09.907Z</time></trkpt><trkpt lat="43.4909305" lon="12.4685311"><ele>581.0</ele><time>2026-04-19T09:47:10.907Z</time></trkpt><trkpt lat="43.4908976" lon="12.4683213"><ele>581.0</ele><time>2026-04-19T09:47:11.908Z</time></trkpt><trkpt lat="43.4908937" lon="12.4680988"><ele>581.0</ele><time>2026-04-19T09:47:12.907Z</time></trkpt><trkpt lat="43.490911" lon="12.4678735"><ele>581.0</ele><time>2026-04-19T09:47:13.907Z</time></trkpt><trkpt lat="43.4909368" lon="12.4676298"><ele>582.0</ele><time>2026-04-19T09:47:14.908Z</time></trkpt><trkpt lat="43.4909588" lon="12.4674001"><ele>583.0</ele><time>2026-04-19T09:47:15.908Z</time></trkpt><trkpt lat="43.4909552" lon="12.4671805"><ele>584.0</ele><time>2026-04-19T09:47:16.908Z</time></trkpt><trkpt lat="43.4909329" lon="12.4669593"><ele>585.0</ele><time>2026-04-19T09:47:17.908Z</time></trkpt><trkpt lat="43.4908881" lon="12.4667304"><ele>586.0</ele><time>2026-04-19T09:47:18.907Z</time></trkpt><trkpt lat="43.4908278" lon="12.4665072"><ele>587.0</ele><time>2026-04-19T09:47:19.906Z</time></trkpt><trkpt lat="43.4907663" lon="12.4662951"><ele>587.75</ele><time>2026-04-19T09:47:20.907Z</time></trkpt><trkpt lat="43.4907328" lon="12.4661025"><ele>588.5</ele><time>2026-04-19T09:47:21.907Z</time></trkpt><trkpt lat="43.490734" lon="12.4659035"><ele>589.25</ele><time>2026-04-19T09:47:22.908Z</time></trkpt><trkpt lat="43.4907622" lon="12.4656946"><ele>590.0</ele><time>2026-04-19T09:47:23.907Z</time></trkpt><trkpt lat="43.490814" lon="12.4654914"><ele>590.25</ele><time>2026-04-19T09:47:24.907Z</time></trkpt><trkpt lat="43.4908841" lon="12.4653014"><ele>590.5</ele><time>2026-04-19T09:47:25.908Z</time></trkpt><trkpt lat="43.4909694" lon="12.4651451"><ele>590.75</ele><time>2026-04-19T09:47:26.907Z</time></trkpt><trkpt lat="43.4910471" lon="12.4650289"><ele>591.0</ele><time>2026-04-19T09:47:27.908Z</time></trkpt><trkpt lat="43.491111" lon="12.4649222"><ele>591.0</ele><time>2026-04-19T09:47:28.908Z</time></trkpt><trkpt lat="43.491153" lon="12.4648171"><ele>591.0</ele><time>2026-04-19T09:47:29.907Z</time></trkpt><trkpt lat="43.4911964" lon="12.4647013"><ele>591.0</ele><time>2026-04-19T09:47:30.907Z</time></trkpt><trkpt lat="43.4911948" lon="12.464546"><ele>591.0</ele><time>2026-04-19T09:47:31.907Z</time></trkpt><trkpt lat="43.4911865" lon="12.4643712"><ele>591.0</ele><time>2026-04-19T09:47:32.908Z</time></trkpt><trkpt lat="43.4911755" lon="12.4641942"><ele>591.75</ele><time>2026-04-19T09:47:33.907Z</time></trkpt><trkpt lat="43.4911943" lon="12.4640121"><ele>592.5</ele><time>2026-04-19T09:47:34.908Z</time></trkpt><trkpt lat="43.4912364" lon="12.4638118"><ele>593.25</ele><time>2026-04-19T09:47:35.907Z</time></trkpt><trkpt lat="43.4912921" lon="12.4636323"><ele>594.0</ele><time>2026-04-19T09:47:36.908Z</time></trkpt><trkpt lat="43.4913375" lon="12.4634534"><ele>595.8</ele><time>2026-04-19T09:47:37.907Z</time></trkpt><trkpt lat="43.4913811" lon="12.4632894"><ele>597.5999999999999</ele><time>2026-04-19T09:47:38.906Z</time></trkpt><trkpt lat="43.4913913" lon="12.4631501"><ele>599.4</ele><time>2026-04-19T09:47:39.906Z</time></trkpt><trkpt lat="43.491392" lon="12.4630214"><ele>601.1999999999999</ele><time>2026-04-19T09:47:40.906Z</time></trkpt><trkpt lat="43.4913792" lon="12.4628972"><ele>603.0</ele><time>2026-04-19T09:47:41.907Z</time></trkpt><trkpt lat="43.4912955" lon="12.4628126"><ele>602.6</ele><time>2026-04-19T09:47:42.905Z</time></trkpt><trkpt lat="43.4912466" lon="12.4627547"><ele>602.1999999999999</ele><time>2026-04-19T09:47:43.907Z</time></trkpt><trkpt lat="43.4911333" lon="12.4627565"><ele>601.8</ele><time>2026-04-19T09:47:44.906Z</time></trkpt><trkpt lat="43.4910501" lon="12.4628045"><ele>601.4</ele><time>2026-04-19T09:47:45.906Z</time></trkpt><trkpt lat="43.4909735" lon="12.4628773"><ele>601.0</ele><time>2026-04-19T09:47:46.905Z</time></trkpt><trkpt lat="43.4908936" lon="12.4630338"><ele>601.0</ele><time>2026-04-19T09:47:47.906Z</time></trkpt><trkpt lat="43.4908083" lon="12.4631964"><ele>601.0</ele><time>2026-04-19T09:47:48.906Z</time></trkpt><trkpt lat="43.4907211" lon="12.4633474"><ele>601.0</ele><time>2026-04-19T09:47:49.907Z</time></trkpt><trkpt lat="43.4906166" lon="12.4635009"><ele>601.0</ele><time>2026-04-19T09:47:50.905Z</time></trkpt><trkpt lat="43.4905105" lon="12.4636604"><ele>598.6666666666667</ele><time>2026-04-19T09:47:51.907Z</time></trkpt><trkpt lat="43.4904249" lon="12.4638307"><ele>596.3333333333334</ele><time>2026-04-19T09:47:52.906Z</time></trkpt><trkpt lat="43.4903862" lon="12.4640342"><ele>594.0</ele><time>2026-04-19T09:47:53.905Z</time></trkpt><trkpt lat="43.4903424" lon="12.4642275"><ele>599.0</ele><time>2026-04-19T09:47:54.906Z</time></trkpt><trkpt lat="43.4902815" lon="12.4644136"><ele>604.0</ele><time>2026-04-19T09:47:55.906Z</time></trkpt><trkpt lat="43.4901945" lon="12.464602"><ele>609.0</ele><time>2026-04-19T09:47:56.905Z</time></trkpt><trkpt lat="43.4901016" lon="12.4647592"><ele>609.0</ele><time>2026-04-19T09:47:57.907Z</time></trkpt><trkpt lat="43.4900201" lon="12.4649039"><ele>609.0</ele><time>2026-04-19T09:47:58.906Z</time></trkpt><trkpt lat="43.4899189" lon="12.4650221"><ele>609.0</ele><time>2026-04-19T09:47:59.907Z</time></trkpt><trkpt lat="43.4897974" lon="12.4650903"><ele>609.0</ele><time>2026-04-19T09:48:00.906Z</time></trkpt><trkpt lat="43.4896706" lon="12.4651018"><ele>615.3333333333334</ele><time>2026-04-19T09:48:01.905Z</time></trkpt><trkpt lat="43.4895359" lon="12.4650624"><ele>621.6666666666667</ele><time>2026-04-19T09:48:02.906Z</time></trkpt><trkpt lat="43.4893889" lon="12.465001"><ele>628.0</ele><time>2026-04-19T09:48:03.906Z</time></trkpt><trkpt lat="43.4892265" lon="12.4649523"><ele>628.0</ele><time>2026-04-19T09:48:04.907Z</time></trkpt><trkpt lat="43.4890799" lon="12.4648986"><ele>628.0</ele><time>2026-04-19T09:48:05.907Z</time></trkpt><trkpt lat="43.4889485" lon="12.4648525"><ele>628.0</ele><time>2026-04-19T09:48:06.906Z</time></trkpt><trkpt lat="43.4888157" lon="12.4648299"><ele>628.0</ele><time>2026-04-19T09:48:07.907Z</time></trkpt><trkpt lat="43.4886806" lon="12.4648308"><ele>629.0</ele><time>2026-04-19T09:48:08.907Z</time></trkpt><trkpt lat="43.4885417" lon="12.4648692"><ele>630.0</ele><time>2026-04-19T09:48:09.906Z</time></trkpt><trkpt lat="43.488408" lon="12.4649377"><ele>631.0</ele><time>2026-04-19T09:48:10.907Z</time></trkpt><trkpt lat="43.4882932" lon="12.4650094"><ele>632.0</ele><time>2026-04-19T09:48:11.906Z</time></trkpt><trkpt lat="43.4881884" lon="12.4650978"><ele>632.0</ele><time>2026-04-19T09:48:12.906Z</time></trkpt><trkpt lat="43.4881073" lon="12.4651946"><ele>632.0</ele><time>2026-04-19T09:48:13.906Z</time></trkpt><trkpt lat="43.4880538" lon="12.4653123"><ele>632.0</ele><time>2026-04-19T09:48:14.906Z</time></trkpt><trkpt lat="43.4880387" lon="12.4654411"><ele>632.0</ele><time>2026-04-19T09:48:15.907Z</time></trkpt><trkpt lat="43.4880316" lon="12.4655742"><ele>632.0</ele><time>2026-04-19T09:48:16.905Z</time></trkpt><trkpt lat="43.4880468" lon="12.4657201"><ele>631.5</ele><time>2026-04-19T09:48:17.906Z</time></trkpt><trkpt lat="43.4881487" lon="12.4658772"><ele>631.0</ele><time>2026-04-19T09:48:18.906Z</time></trkpt><trkpt lat="43.4881899" lon="12.4660564"><ele>630.5</ele><time>2026-04-19T09:48:19.906Z</time></trkpt><trkpt lat="43.4881976" lon="12.4662618"><ele>630.0</ele><time>2026-04-19T09:48:20.906Z</time></trkpt><trkpt lat="43.4881954" lon="12.466464"><ele>632.6666666666666</ele><time>2026-04-19T09:48:21.906Z</time></trkpt><trkpt lat="43.4881963" lon="12.4666737"><ele>635.3333333333333</ele><time>2026-04-19T09:48:22.907Z</time></trkpt><trkpt lat="43.4882827" lon="12.4668793"><ele>638.0</ele><time>2026-04-19T09:48:23.906Z</time></trkpt><trkpt lat="43.4883727" lon="12.4670454"><ele>641.75</ele><time>2026-04-19T09:48:24.906Z</time></trkpt><trkpt lat="43.4884452" lon="12.4672032"><ele>645.5</ele><time>2026-04-19T09:48:25.906Z</time></trkpt><trkpt lat="43.4884897" lon="12.4673531"><ele>649.25</ele><time>2026-04-19T09:48:26.906Z</time></trkpt><trkpt lat="43.4885053" lon="12.4675071"><ele>653.0</ele><time>2026-04-19T09:48:27.907Z</time></trkpt><trkpt lat="43.4884897" lon="12.4676757"><ele>653.0</ele><time>2026-04-19T09:48:28.907Z</time></trkpt><trkpt lat="43.4884361" lon="12.4678422"><ele>653.0</ele><time>2026-04-19T09:48:29.905Z</time></trkpt><trkpt lat="43.4883645" lon="12.467976"><ele>653.0</ele><time>2026-04-19T09:48:30.906Z</time></trkpt><trkpt lat="43.4883164" lon="12.4681174"><ele>653.0</ele><time>2026-04-19T09:48:31.906Z</time></trkpt><trkpt lat="43.4882932" lon="12.4682651"><ele>654.25</ele><time>2026-04-19T09:48:32.906Z</time></trkpt><trkpt lat="43.4882953" lon="12.4684113"><ele>655.5</ele><time>2026-04-19T09:48:33.906Z</time></trkpt><trkpt lat="43.4883541" lon="12.4685644"><ele>656.75</ele><time>2026-04-19T09:48:34.907Z</time></trkpt><trkpt lat="43.4884331" lon="12.4687197"><ele>658.0</ele><time>2026-04-19T09:48:35.907Z</time></trkpt><trkpt lat="43.4885332" lon="12.4688636"><ele>662.3333333333334</ele><time>2026-04-19T09:48:36.906Z</time></trkpt><trkpt lat="43.4886476" lon="12.4689847"><ele>666.6666666666666</ele><time>2026-04-19T09:48:37.907Z</time></trkpt><trkpt lat="43.4887719" lon="12.4691198"><ele>671.0</ele><time>2026-04-19T09:48:38.906Z</time></trkpt><trkpt lat="43.4888931" lon="12.4692602"><ele>666.8</ele><time>2026-04-19T09:48:39.906Z</time></trkpt><trkpt lat="43.4889939" lon="12.4693917"><ele>662.5999999999999</ele><time>2026-04-19T09:48:40.907Z</time></trkpt><trkpt lat="43.4890727" lon="12.4695216"><ele>658.4</ele><time>2026-04-19T09:48:41.906Z</time></trkpt><trkpt lat="43.4891158" lon="12.4696408"><ele>654.2</ele><time>2026-04-19T09:48:42.907Z</time></trkpt><trkpt lat="43.489127" lon="12.4697481"><ele>650.0</ele><time>2026-04-19T09:48:43.906Z</time></trkpt><trkpt lat="43.4891042" lon="12.4698297"><ele>650.0</ele><time>2026-04-19T09:48:44.905Z</time></trkpt><trkpt lat="43.4890472" lon="12.4698962"><ele>650.0</ele><time>2026-04-19T09:48:45.905Z</time></trkpt><trkpt lat="43.4889564" lon="12.4699289"><ele>650.0</ele><time>2026-04-19T09:48:46.907Z</time></trkpt><trkpt lat="43.4888415" lon="12.4699541"><ele>650.0</ele><time>2026-04-19T09:48:47.907Z</time></trkpt><trkpt lat="43.4887239" lon="12.4699727"><ele>650.0</ele><time>2026-04-19T09:48:48.906Z</time></trkpt><trkpt lat="43.4885873" lon="12.4699995"><ele>655.6666666666666</ele><time>2026-04-19T09:48:49.907Z</time></trkpt><trkpt lat="43.488431" lon="12.4700308"><ele>661.3333333333334</ele><time>2026-04-19T09:48:50.906Z</time></trkpt><trkpt lat="43.4882785" lon="12.4700517"><ele>667.0</ele><time>2026-04-19T09:48:51.907Z</time></trkpt><trkpt lat="43.4881181" lon="12.4700525"><ele>667.0</ele><time>2026-04-19T09:48:52.906Z</time></trkpt><trkpt lat="43.4879603" lon="12.4700103"><ele>667.0</ele><time>2026-04-19T09:48:53.906Z</time></trkpt><trkpt lat="43.4878084" lon="12.4699397"><ele>667.0</ele><time>2026-04-19T09:48:54.906Z</time></trkpt><trkpt lat="43.4876694" lon="12.4698466"><ele>665.0</ele><time>2026-04-19T09:48:55.907Z</time></trkpt><trkpt lat="43.4875574" lon="12.469728"><ele>663.0</ele><time>2026-04-19T09:48:56.906Z</time></trkpt><trkpt lat="43.4874558" lon="12.4695759"><ele>661.0</ele><time>2026-04-19T09:48:57.907Z</time></trkpt><trkpt lat="43.4873469" lon="12.4694104"><ele>662.75</ele><time>2026-04-19T09:48:58.907Z</time></trkpt><trkpt lat="43.4872412" lon="12.4692602"><ele>664.5</ele><time>2026-04-19T09:48:59.907Z</time></trkpt><trkpt lat="43.4871323" lon="12.4691337"><ele>666.25</ele><time>2026-04-19T09:49:00.906Z</time></trkpt><trkpt lat="43.4870129" lon="12.4690313"><ele>668.0</ele><time>2026-04-19T09:49:01.906Z</time></trkpt><trkpt lat="43.4868829" lon="12.4689781"><ele>668.0</ele><time>2026-04-19T09:49:02.906Z</time></trkpt><trkpt lat="43.4867557" lon="12.4689422"><ele>668.0</ele><time>2026-04-19T09:49:03.907Z</time></trkpt><trkpt lat="43.4866529" lon="12.4688796"><ele>668.0</ele><time>2026-04-19T09:49:04.906Z</time></trkpt><trkpt lat="43.4865769" lon="12.468796"><ele>668.0</ele><time>2026-04-19T09:49:05.906Z</time></trkpt><trkpt lat="43.4865329" lon="12.4686871"><ele>668.0</ele><time>2026-04-19T09:49:06.905Z</time></trkpt><trkpt lat="43.4865331" lon="12.4685712"><ele>670.4</ele><time>2026-04-19T09:49:07.906Z</time></trkpt><trkpt lat="43.4865763" lon="12.4684705"><ele>672.8</ele><time>2026-04-19T09:49:08.907Z</time></trkpt><trkpt lat="43.486649" lon="12.4683956"><ele>675.2</ele><time>2026-04-19T09:49:09.907Z</time></trkpt><trkpt lat="43.4867406" lon="12.4683676"><ele>677.6</ele><time>2026-04-19T09:49:10.906Z</time></trkpt><trkpt lat="43.4868485" lon="12.4683958"><ele>680.0</ele><time>2026-04-19T09:49:11.905Z</time></trkpt><trkpt lat="43.4869629" lon="12.4684666"><ele>680.0</ele><time>2026-04-19T09:49:12.907Z</time></trkpt><trkpt lat="43.4870802" lon="12.4685802"><ele>680.0</ele><time>2026-04-19T09:49:13.907Z</time></trkpt><trkpt lat="43.4871845" lon="12.4687102"><ele>680.0</ele><time>2026-04-19T09:49:14.906Z</time></trkpt><trkpt lat="43.4872841" lon="12.4688296"><ele>680.0</ele><time>2026-04-19T09:49:15.905Z</time></trkpt><trkpt lat="43.4873773" lon="12.468934"><ele>679.8</ele><time>2026-04-19T09:49:16.907Z</time></trkpt><trkpt lat="43.4874711" lon="12.4690176"><ele>679.6</ele><time>2026-04-19T09:49:17.907Z</time></trkpt><trkpt lat="43.4875606" lon="12.4690884"><ele>679.4000000000001</ele><time>2026-04-19T09:49:18.907Z</time></trkpt><trkpt lat="43.4876278" lon="12.4690135"><ele>679.2</ele><time>2026-04-19T09:49:19.905Z</time></trkpt><trkpt lat="43.4876903" lon="12.4689553"><ele>679.0</ele><time>2026-04-19T09:49:20.907Z</time></trkpt><trkpt lat="43.4877252" lon="12.4688573"><ele>680.4000000000001</ele><time>2026-04-19T09:49:21.907Z</time></trkpt><trkpt lat="43.4877309" lon="12.4687456"><ele>681.8</ele><time>2026-04-19T09:49:22.906Z</time></trkpt><trkpt lat="43.4876999" lon="12.4686252"><ele>683.2</ele><time>2026-04-19T09:49:23.905Z</time></trkpt><trkpt lat="43.4876464" lon="12.4685218"><ele>684.5999999999999</ele><time>2026-04-19T09:49:24.907Z</time></trkpt><trkpt lat="43.4875893" lon="12.4684072"><ele>686.0</ele><time>2026-04-19T09:49:25.905Z</time></trkpt><trkpt lat="43.4874263" lon="12.4683067"><ele>686.0</ele><time>2026-04-19T09:49:26.905Z</time></trkpt><trkpt lat="43.4873036" lon="12.4681767"><ele>686.0</ele><time>2026-04-19T09:49:27.906Z</time></trkpt><trkpt lat="43.4871732" lon="12.4680508"><ele>686.0</ele><time>2026-04-19T09:49:28.905Z</time></trkpt><trkpt lat="43.4870303" lon="12.4679092"><ele>688.6666666666666</ele><time>2026-04-19T09:49:29.905Z</time></trkpt><trkpt lat="43.4868828" lon="12.4677531"><ele>691.3333333333334</ele><time>2026-04-19T09:49:30.905Z</time></trkpt><trkpt lat="43.4867393" lon="12.4675631"><ele>694.0</ele><time>2026-04-19T09:49:31.906Z</time></trkpt><trkpt lat="43.4866016" lon="12.467362"><ele>694.0</ele><time>2026-04-19T09:49:32.906Z</time></trkpt><trkpt lat="43.4864643" lon="12.4671604"><ele>694.0</ele><time>2026-04-19T09:49:33.907Z</time></trkpt><trkpt lat="43.4863211" lon="12.4669368"><ele>694.0</ele><time>2026-04-19T09:49:34.907Z</time></trkpt><trkpt lat="43.4861708" lon="12.4667118"><ele>692.0</ele><time>2026-04-19T09:49:35.907Z</time></trkpt><trkpt lat="43.4860279" lon="12.4664927"><ele>690.0</ele><time>2026-04-19T09:49:36.906Z</time></trkpt><trkpt lat="43.485898" lon="12.4662883"><ele>688.0</ele><time>2026-04-19T09:49:37.906Z</time></trkpt><trkpt lat="43.4857713" lon="12.4660999"><ele>689.6666666666667</ele><time>2026-04-19T09:49:38.907Z</time></trkpt><trkpt lat="43.4856534" lon="12.4659275"><ele>691.3333333333334</ele><time>2026-04-19T09:49:39.907Z</time></trkpt><trkpt lat="43.4855312" lon="12.465802"><ele>693.0</ele><time>2026-04-19T09:49:40.907Z</time></trkpt><trkpt lat="43.4854019" lon="12.4657321"><ele>693.0</ele><time>2026-04-19T09:49:41.907Z</time></trkpt><trkpt lat="43.485284" lon="12.4656629"><ele>693.0</ele><time>2026-04-19T09:49:42.906Z</time></trkpt><trkpt lat="43.4851884" lon="12.4655878"><ele>693.0</ele><time>2026-04-19T09:49:43.907Z</time></trkpt><trkpt lat="43.4851002" lon="12.4654683"><ele>693.0</ele><time>2026-04-19T09:49:44.906Z</time></trkpt><trkpt lat="43.4850185" lon="12.4653294"><ele>698.5</ele><time>2026-04-19T09:49:45.906Z</time></trkpt><trkpt lat="43.4849282" lon="12.4651729"><ele>704.0</ele><time>2026-04-19T09:49:46.905Z</time></trkpt><trkpt lat="43.4848476" lon="12.4650156"><ele>709.5</ele><time>2026-04-19T09:49:47.907Z</time></trkpt><trkpt lat="43.4847851" lon="12.4648687"><ele>715.0</ele><time>2026-04-19T09:49:48.906Z</time></trkpt><trkpt lat="43.4847444" lon="12.4647046"><ele>717.25</ele><time>2026-04-19T09:49:49.907Z</time></trkpt><trkpt lat="43.484726" lon="12.4645276"><ele>719.5</ele><time>2026-04-19T09:49:50.907Z</time></trkpt><trkpt lat="43.4847397" lon="12.4643786"><ele>721.75</ele><time>2026-04-19T09:49:51.907Z</time></trkpt><trkpt lat="43.4847967" lon="12.4642469"><ele>724.0</ele><time>2026-04-19T09:49:52.907Z</time></trkpt><trkpt lat="43.4848661" lon="12.4641329"><ele>724.0</ele><time>2026-04-19T09:49:53.906Z</time></trkpt><trkpt lat="43.4849259" lon="12.4640071"><ele>724.0</ele><time>2026-04-19T09:49:54.906Z</time></trkpt><trkpt lat="43.4849839" lon="12.4638851"><ele>724.0</ele><time>2026-04-19T09:49:55.907Z</time></trkpt><trkpt lat="43.4850314" lon="12.4637772"><ele>724.0</ele><time>2026-04-19T09:49:56.907Z</time></trkpt><trkpt lat="43.4850102" lon="12.4635755"><ele>728.25</ele><time>2026-04-19T09:49:57.906Z</time></trkpt><trkpt lat="43.4848947" lon="12.4633465"><ele>732.5</ele><time>2026-04-19T09:49:58.906Z</time></trkpt><trkpt lat="43.4848537" lon="12.4631812"><ele>736.75</ele><time>2026-04-19T09:49:59.906Z</time></trkpt><trkpt lat="43.4848" lon="12.4630441"><ele>741.0</ele><time>2026-04-19T09:50:00.907Z</time></trkpt><trkpt lat="43.4847183" lon="12.4629411"><ele>741.75</ele><time>2026-04-19T09:50:01.906Z</time></trkpt><trkpt lat="43.484625" lon="12.4628451"><ele>742.5</ele><time>2026-04-19T09:50:02.905Z</time></trkpt><trkpt lat="43.4845161" lon="12.4627475"><ele>743.25</ele><time>2026-04-19T09:50:03.906Z</time></trkpt><trkpt lat="43.484323" lon="12.4627664"><ele>744.0</ele><time>2026-04-19T09:50:04.906Z</time></trkpt><trkpt lat="43.4841914" lon="12.4627017"><ele>744.0</ele><time>2026-04-19T09:50:05.906Z</time></trkpt><trkpt lat="43.4840582" lon="12.4625949"><ele>744.0</ele><time>2026-04-19T09:50:06.906Z</time></trkpt><trkpt lat="43.483924" lon="12.4624531"><ele>744.0</ele><time>2026-04-19T09:50:07.907Z</time></trkpt><trkpt lat="43.4837831" lon="12.4623013"><ele>741.0</ele><time>2026-04-19T09:50:08.907Z</time></trkpt><trkpt lat="43.4836581" lon="12.4621583"><ele>738.0</ele><time>2026-04-19T09:50:09.906Z</time></trkpt><trkpt lat="43.4835451" lon="12.4620054"><ele>735.0</ele><time>2026-04-19T09:50:10.906Z</time></trkpt><trkpt lat="43.4834609" lon="12.4618163"><ele>735.0</ele><time>2026-04-19T09:50:11.907Z</time></trkpt><trkpt lat="43.4833801" lon="12.4616108"><ele>735.0</ele><time>2026-04-19T09:50:12.906Z</time></trkpt><trkpt lat="43.4833017" lon="12.4613711"><ele>735.0</ele><time>2026-04-19T09:50:13.906Z</time></trkpt><trkpt lat="43.4832243" lon="12.4611355"><ele>741.0</ele><time>2026-04-19T09:50:14.906Z</time></trkpt><trkpt lat="43.483152" lon="12.4609099"><ele>747.0</ele><time>2026-04-19T09:50:15.907Z</time></trkpt><trkpt lat="43.4830839" lon="12.4606895"><ele>753.0</ele><time>2026-04-19T09:50:16.906Z</time></trkpt><trkpt lat="43.4830157" lon="12.4604815"><ele>750.0</ele><time>2026-04-19T09:50:17.907Z</time></trkpt><trkpt lat="43.4829525" lon="12.4602838"><ele>747.0</ele><time>2026-04-19T09:50:18.907Z</time></trkpt><trkpt lat="43.4828941" lon="12.4601"><ele>744.0</ele><time>2026-04-19T09:50:19.906Z</time></trkpt><trkpt lat="43.4828313" lon="12.4599332"><ele>741.0</ele><time>2026-04-19T09:50:20.906Z</time></trkpt><trkpt lat="43.4827639" lon="12.4597798"><ele>741.0</ele><time>2026-04-19T09:50:21.906Z</time></trkpt><trkpt lat="43.4826689" lon="12.459683"><ele>741.0</ele><time>2026-04-19T09:50:22.905Z</time></trkpt><trkpt lat="43.4825575" lon="12.4596335"><ele>741.0</ele><time>2026-04-19T09:50:23.907Z</time></trkpt><trkpt lat="43.4824354" lon="12.4596366"><ele>741.0</ele><time>2026-04-19T09:50:24.906Z</time></trkpt><trkpt lat="43.4823016" lon="12.459681"><ele>741.0</ele><time>2026-04-19T09:50:25.905Z</time></trkpt><trkpt lat="43.4821692" lon="12.4597568"><ele>741.0</ele><time>2026-04-19T09:50:26.905Z</time></trkpt><trkpt lat="43.4820451" lon="12.45984"><ele>741.0</ele><time>2026-04-19T09:50:27.906Z</time></trkpt><trkpt lat="43.4819272" lon="12.459905"><ele>741.0</ele><time>2026-04-19T09:50:28.906Z</time></trkpt><trkpt lat="43.4818181" lon="12.4599368"><ele>740.8</ele><time>2026-04-19T09:50:29.907Z</time></trkpt><trkpt lat="43.4817166" lon="12.459922"><ele>740.5999999999999</ele><time>2026-04-19T09:50:30.906Z</time></trkpt><trkpt lat="43.4816276" lon="12.4598579"><ele>740.4</ele><time>2026-04-19T09:50:31.906Z</time></trkpt><trkpt lat="43.4815595" lon="12.4597445"><ele>740.2</ele><time>2026-04-19T09:50:32.905Z</time></trkpt><trkpt lat="43.4815069" lon="12.4596019"><ele>740.0</ele><time>2026-04-19T09:50:33.905Z</time></trkpt><trkpt lat="43.4814514" lon="12.4594417"><ele>742.5</ele><time>2026-04-19T09:50:34.907Z</time></trkpt><trkpt lat="43.4813817" lon="12.4592826"><ele>745.0</ele><time>2026-04-19T09:50:35.907Z</time></trkpt><trkpt lat="43.4813214" lon="12.459132"><ele>747.5</ele><time>2026-04-19T09:50:36.907Z</time></trkpt><trkpt lat="43.4812459" lon="12.4590208"><ele>750.0</ele><time>2026-04-19T09:50:37.906Z</time></trkpt><trkpt lat="43.4811478" lon="12.4589394"><ele>750.0</ele><time>2026-04-19T09:50:38.907Z</time></trkpt><trkpt lat="43.4810327" lon="12.4588972"><ele>750.0</ele><time>2026-04-19T09:50:39.907Z</time></trkpt><trkpt lat="43.4808979" lon="12.4589006"><ele>750.0</ele><time>2026-04-19T09:50:40.906Z</time></trkpt><trkpt lat="43.4807477" lon="12.4589338"><ele>750.0</ele><time>2026-04-19T09:50:41.906Z</time></trkpt><trkpt lat="43.4806016" lon="12.4589662"><ele>750.0</ele><time>2026-04-19T09:50:42.906Z</time></trkpt><trkpt lat="43.4804439" lon="12.4589872"><ele>750.0</ele><time>2026-04-19T09:50:43.907Z</time></trkpt><trkpt lat="43.4803041" lon="12.4589938"><ele>750.0</ele><time>2026-04-19T09:50:44.906Z</time></trkpt><trkpt lat="43.4801625" lon="12.4589716"><ele>750.0</ele><time>2026-04-19T09:50:45.905Z</time></trkpt><trkpt lat="43.480013" lon="12.4589171"><ele>751.0</ele><time>2026-04-19T09:50:46.906Z</time></trkpt><trkpt lat="43.4798464" lon="12.4588583"><ele>752.0</ele><time>2026-04-19T09:50:47.907Z</time></trkpt><trkpt lat="43.4796752" lon="12.4587953"><ele>753.0</ele><time>2026-04-19T09:50:48.907Z</time></trkpt><trkpt lat="43.4795086" lon="12.4587282"><ele>756.3333333333334</ele><time>2026-04-19T09:50:49.906Z</time></trkpt><trkpt lat="43.4793345" lon="12.4586504"><ele>759.6666666666667</ele><time>2026-04-19T09:50:50.906Z</time></trkpt><trkpt lat="43.4791672" lon="12.458579"><ele>763.0</ele><time>2026-04-19T09:50:51.906Z</time></trkpt><trkpt lat="43.4790133" lon="12.4585133"><ele>763.0</ele><time>2026-04-19T09:50:52.906Z</time></trkpt><trkpt lat="43.4788627" lon="12.4584625"><ele>763.0</ele><time>2026-04-19T09:50:53.907Z</time></trkpt><trkpt lat="43.4787178" lon="12.458441"><ele>763.0</ele><time>2026-04-19T09:50:54.905Z</time></trkpt><trkpt lat="43.4785833" lon="12.4584074"><ele>763.0</ele><time>2026-04-19T09:50:55.905Z</time></trkpt><trkpt lat="43.4784695" lon="12.4583432"><ele>763.8</ele><time>2026-04-19T09:50:56.906Z</time></trkpt><trkpt lat="43.478394" lon="12.4582585"><ele>764.5999999999999</ele><time>2026-04-19T09:50:57.905Z</time></trkpt><trkpt lat="43.4783381" lon="12.4581506"><ele>765.4000000000001</ele><time>2026-04-19T09:50:58.907Z</time></trkpt><trkpt lat="43.4783062" lon="12.4580207"><ele>766.2</ele><time>2026-04-19T09:50:59.906Z</time></trkpt><trkpt lat="43.478282" lon="12.4578974"><ele>767.0</ele><time>2026-04-19T09:51:00.905Z</time></trkpt><trkpt lat="43.4782508" lon="12.4577605"><ele>767.0</ele><time>2026-04-19T09:51:01.907Z</time></trkpt><trkpt lat="43.4782078" lon="12.4576409"><ele>767.0</ele><time>2026-04-19T09:51:02.905Z</time></trkpt><trkpt lat="43.4781026" lon="12.457549"><ele>767.0</ele><time>2026-04-19T09:51:03.906Z</time></trkpt><trkpt lat="43.4779711" lon="12.4574805"><ele>767.0</ele><time>2026-04-19T09:51:04.906Z</time></trkpt><trkpt lat="43.4778494" lon="12.4573923"><ele>761.75</ele><time>2026-04-19T09:51:05.905Z</time></trkpt><trkpt lat="43.477739" lon="12.4572689"><ele>756.5</ele><time>2026-04-19T09:51:06.907Z</time></trkpt><trkpt lat="43.4776421" lon="12.4571193"><ele>751.25</ele><time>2026-04-19T09:51:07.905Z</time></trkpt><trkpt lat="43.4775557" lon="12.4569828"><ele>746.0</ele><time>2026-04-19T09:51:08.904Z</time></trkpt><trkpt lat="43.477486" lon="12.4568459"><ele>746.0</ele><time>2026-04-19T09:51:09.905Z</time></trkpt><trkpt lat="43.47744" lon="12.4566861"><ele>746.0</ele><time>2026-04-19T09:51:10.903Z</time></trkpt><trkpt lat="43.4774332" lon="12.4565313"><ele>746.0</ele><time>2026-04-19T09:51:11.904Z</time></trkpt><trkpt lat="43.4774398" lon="12.4563824"><ele>746.0</ele><time>2026-04-19T09:51:12.903Z</time></trkpt><trkpt lat="43.4774459" lon="12.4562279"><ele>749.0</ele><time>2026-04-19T09:51:13.904Z</time></trkpt><trkpt lat="43.4774515" lon="12.4560775"><ele>752.0</ele><time>2026-04-19T09:51:14.905Z</time></trkpt><trkpt lat="43.4773813" lon="12.4559814"><ele>755.0</ele><time>2026-04-19T09:51:15.905Z</time></trkpt><trkpt lat="43.4772865" lon="12.4558815"><ele>758.0</ele><time>2026-04-19T09:51:16.904Z</time></trkpt><trkpt lat="43.4771759" lon="12.4557953"><ele>753.75</ele><time>2026-04-19T09:51:17.904Z</time></trkpt><trkpt lat="43.4770554" lon="12.4557273"><ele>749.5</ele><time>2026-04-19T09:51:18.905Z</time></trkpt><trkpt lat="43.4769431" lon="12.4556945"><ele>745.25</ele><time>2026-04-19T09:51:19.905Z</time></trkpt><trkpt lat="43.4768159" lon="12.4556946"><ele>741.0</ele><time>2026-04-19T09:51:20.904Z</time></trkpt><trkpt lat="43.4766783" lon="12.4557312"><ele>741.0</ele><time>2026-04-19T09:51:21.905Z</time></trkpt><trkpt lat="43.4765507" lon="12.4557781"><ele>741.0</ele><time>2026-04-19T09:51:22.905Z</time></trkpt><trkpt lat="43.4764155" lon="12.4558397"><ele>741.0</ele><time>2026-04-19T09:51:23.905Z</time></trkpt><trkpt lat="43.4762817" lon="12.4558997"><ele>741.0</ele><time>2026-04-19T09:51:24.904Z</time></trkpt><trkpt lat="43.4761459" lon="12.4559555"><ele>739.5</ele><time>2026-04-19T09:51:25.904Z</time></trkpt><trkpt lat="43.476014" lon="12.4559891"><ele>738.0</ele><time>2026-04-19T09:51:26.904Z</time></trkpt><trkpt lat="43.475886" lon="12.4559985"><ele>736.5</ele><time>2026-04-19T09:51:27.904Z</time></trkpt><trkpt lat="43.4757712" lon="12.4559708"><ele>735.0</ele><time>2026-04-19T09:51:28.903Z</time></trkpt><trkpt lat="43.4756718" lon="12.4558974"><ele>735.0</ele><time>2026-04-19T09:51:29.905Z</time></trkpt><trkpt lat="43.4755867" lon="12.4557822"><ele>735.0</ele><time>2026-04-19T09:51:30.904Z</time></trkpt><trkpt lat="43.475509" lon="12.4556297"><ele>735.0</ele><time>2026-04-19T09:51:31.905Z</time></trkpt><trkpt lat="43.4754214" lon="12.4554884"><ele>735.0</ele><time>2026-04-19T09:51:32.903Z</time></trkpt><trkpt lat="43.4753178" lon="12.4553846"><ele>733.5</ele><time>2026-04-19T09:51:33.903Z</time></trkpt><trkpt lat="43.4751961" lon="12.4553184"><ele>732.0</ele><time>2026-04-19T09:51:34.904Z</time></trkpt><trkpt lat="43.4750752" lon="12.4552573"><ele>730.5</ele><time>2026-04-19T09:51:35.905Z</time></trkpt><trkpt lat="43.4749713" lon="12.4551623"><ele>729.0</ele><time>2026-04-19T09:51:36.905Z</time></trkpt><trkpt lat="43.4748732" lon="12.4550232"><ele>729.0</ele><time>2026-04-19T09:51:37.905Z</time></trkpt><trkpt lat="43.4747916" lon="12.4548544"><ele>729.0</ele><time>2026-04-19T09:51:38.904Z</time></trkpt><trkpt lat="43.4747248" lon="12.4546844"><ele>729.0</ele><time>2026-04-19T09:51:39.904Z</time></trkpt><trkpt lat="43.4746923" lon="12.4545113"><ele>729.0</ele><time>2026-04-19T09:51:40.903Z</time></trkpt><trkpt lat="43.4746906" lon="12.4543274"><ele>730.0</ele><time>2026-04-19T09:51:41.905Z</time></trkpt><trkpt lat="43.4746994" lon="12.4541256"><ele>731.0</ele><time>2026-04-19T09:51:42.905Z</time></trkpt><trkpt lat="43.4747082" lon="12.4539476"><ele>732.0</ele><time>2026-04-19T09:51:43.905Z</time></trkpt><trkpt lat="43.4747209" lon="12.453794"><ele>733.0</ele><time>2026-04-19T09:51:44.903Z</time></trkpt><trkpt lat="43.4747238" lon="12.4536617"><ele>733.0</ele><time>2026-04-19T09:51:45.903Z</time></trkpt><trkpt lat="43.4747043" lon="12.4535524"><ele>733.0</ele><time>2026-04-19T09:51:46.904Z</time></trkpt><trkpt lat="43.4746493" lon="12.4534855"><ele>733.0</ele><time>2026-04-19T09:51:47.905Z</time></trkpt><trkpt lat="43.4745991" lon="12.4534296"><ele>733.0</ele><time>2026-04-19T09:51:48.905Z</time></trkpt><trkpt lat="43.4745045" lon="12.4534945"><ele>733.0</ele><time>2026-04-19T09:51:49.904Z</time></trkpt><trkpt lat="43.4744009" lon="12.4535347"><ele>733.0</ele><time>2026-04-19T09:51:50.905Z</time></trkpt><trkpt lat="43.4742992" lon="12.4535872"><ele>732.25</ele><time>2026-04-19T09:51:51.904Z</time></trkpt><trkpt lat="43.4741675" lon="12.4536523"><ele>731.5</ele><time>2026-04-19T09:51:52.905Z</time></trkpt><trkpt lat="43.4740343" lon="12.4537195"><ele>730.75</ele><time>2026-04-19T09:51:53.904Z</time></trkpt><trkpt lat="43.4738937" lon="12.4538042"><ele>730.0</ele><time>2026-04-19T09:51:54.905Z</time></trkpt><trkpt lat="43.4737503" lon="12.4539179"><ele>724.75</ele><time>2026-04-19T09:51:55.905Z</time></trkpt><trkpt lat="43.4736272" lon="12.4540516"><ele>719.5</ele><time>2026-04-19T09:51:56.904Z</time></trkpt><trkpt lat="43.4735135" lon="12.454177"><ele>714.25</ele><time>2026-04-19T09:51:57.905Z</time></trkpt><trkpt lat="43.4734109" lon="12.4542449"><ele>709.0</ele><time>2026-04-19T09:51:58.904Z</time></trkpt><trkpt lat="43.4733064" lon="12.4542791"><ele>709.0</ele><time>2026-04-19T09:51:59.903Z</time></trkpt><trkpt lat="43.4732018" lon="12.4542468"><ele>709.0</ele><time>2026-04-19T09:52:00.903Z</time></trkpt><trkpt lat="43.4730888" lon="12.454158"><ele>709.0</ele><time>2026-04-19T09:52:01.903Z</time></trkpt><trkpt lat="43.4729637" lon="12.454045"><ele>709.0</ele><time>2026-04-19T09:52:02.905Z</time></trkpt><trkpt lat="43.4728284" lon="12.4539145"><ele>706.25</ele><time>2026-04-19T09:52:03.904Z</time></trkpt><trkpt lat="43.4727025" lon="12.4537775"><ele>703.5</ele><time>2026-04-19T09:52:04.904Z</time></trkpt><trkpt lat="43.4725974" lon="12.4536275"><ele>700.75</ele><time>2026-04-19T09:52:05.904Z</time></trkpt><trkpt lat="43.472529" lon="12.4534855"><ele>698.0</ele><time>2026-04-19T09:52:06.903Z</time></trkpt><trkpt lat="43.4724975" lon="12.4533465"><ele>698.0</ele><time>2026-04-19T09:52:07.904Z</time></trkpt><trkpt lat="43.4725038" lon="12.4532028"><ele>698.0</ele><time>2026-04-19T09:52:08.905Z</time></trkpt><trkpt lat="43.4725465" lon="12.4530587"><ele>698.0</ele><time>2026-04-19T09:52:09.904Z</time></trkpt><trkpt lat="43.4726213" lon="12.4529115"><ele>698.0</ele><time>2026-04-19T09:52:10.904Z</time></trkpt><trkpt lat="43.4727155" lon="12.4527527"><ele>700.0</ele><time>2026-04-19T09:52:11.904Z</time></trkpt><trkpt lat="43.4728056" lon="12.4525862"><ele>702.0</ele><time>2026-04-19T09:52:12.903Z</time></trkpt><trkpt lat="43.4728833" lon="12.4524243"><ele>704.0</ele><time>2026-04-19T09:52:13.904Z</time></trkpt><trkpt lat="43.4729516" lon="12.4522575"><ele>706.0</ele><time>2026-04-19T09:52:14.905Z</time></trkpt><trkpt lat="43.4730018" lon="12.4520891"><ele>706.0</ele><time>2026-04-19T09:52:15.904Z</time></trkpt><trkpt lat="43.4730353" lon="12.4519244"><ele>706.0</ele><time>2026-04-19T09:52:16.905Z</time></trkpt><trkpt lat="43.4730593" lon="12.4517821"><ele>706.0</ele><time>2026-04-19T09:52:17.905Z</time></trkpt><trkpt lat="43.4730826" lon="12.4516416"><ele>706.0</ele><time>2026-04-19T09:52:18.905Z</time></trkpt><trkpt lat="43.4730251" lon="12.4515547"><ele>706.0</ele><time>2026-04-19T09:52:19.905Z</time></trkpt><trkpt lat="43.4729776" lon="12.4514796"><ele>703.0</ele><time>2026-04-19T09:52:20.903Z</time></trkpt><trkpt lat="43.472896" lon="12.4514516"><ele>700.0</ele><time>2026-04-19T09:52:21.904Z</time></trkpt><trkpt lat="43.4728192" lon="12.4514437"><ele>697.0</ele><time>2026-04-19T09:52:22.905Z</time></trkpt><trkpt lat="43.4727276" lon="12.4514905"><ele>694.0</ele><time>2026-04-19T09:52:23.904Z</time></trkpt><trkpt lat="43.4726143" lon="12.4515358"><ele>691.0</ele><time>2026-04-19T09:52:24.904Z</time></trkpt><trkpt lat="43.4724505" lon="12.451603"><ele>691.0</ele><time>2026-04-19T09:52:25.904Z</time></trkpt><trkpt lat="43.4722928" lon="12.4516487"><ele>691.0</ele><time>2026-04-19T09:52:26.905Z</time></trkpt><trkpt lat="43.4721283" lon="12.4517212"><ele>691.0</ele><time>2026-04-19T09:52:27.904Z</time></trkpt><trkpt lat="43.4719439" lon="12.4517777"><ele>691.6666666666667</ele><time>2026-04-19T09:52:28.904Z</time></trkpt><trkpt lat="43.4717801" lon="12.4517658"><ele>692.3333333333334</ele><time>2026-04-19T09:52:29.905Z</time></trkpt><trkpt lat="43.4716203" lon="12.451763"><ele>693.0</ele><time>2026-04-19T09:52:30.903Z</time></trkpt><trkpt lat="43.471476" lon="12.4517879"><ele>693.0</ele><time>2026-04-19T09:52:31.904Z</time></trkpt><trkpt lat="43.4713432" lon="12.4518462"><ele>693.0</ele><time>2026-04-19T09:52:32.904Z</time></trkpt><trkpt lat="43.4712288" lon="12.4519346"><ele>693.0</ele><time>2026-04-19T09:52:33.904Z</time></trkpt><trkpt lat="43.4711125" lon="12.4520323"><ele>693.0</ele><time>2026-04-19T09:52:34.905Z</time></trkpt><trkpt lat="43.471024" lon="12.4521107"><ele>694.0</ele><time>2026-04-19T09:52:35.904Z</time></trkpt><trkpt lat="43.4709226" lon="12.4521436"><ele>695.0</ele><time>2026-04-19T09:52:36.905Z</time></trkpt><trkpt lat="43.4708173" lon="12.4521264"><ele>696.0</ele><time>2026-04-19T09:52:37.904Z</time></trkpt><trkpt lat="43.4707073" lon="12.4520756"><ele>697.0</ele><time>2026-04-19T09:52:38.904Z</time></trkpt><trkpt lat="43.4705894" lon="12.4519789"><ele>697.0</ele><time>2026-04-19T09:52:39.905Z</time></trkpt><trkpt lat="43.4704662" lon="12.4518797"><ele>697.0</ele><time>2026-04-19T09:52:40.904Z</time></trkpt><trkpt lat="43.4703357" lon="12.4517751"><ele>697.0</ele><time>2026-04-19T09:52:41.904Z</time></trkpt><trkpt lat="43.4702094" lon="12.4516911"><ele>697.0</ele><time>2026-04-19T09:52:42.905Z</time></trkpt><trkpt lat="43.4700682" lon="12.4516572"><ele>690.3333333333334</ele><time>2026-04-19T09:52:43.904Z</time></trkpt><trkpt lat="43.4699178" lon="12.4516503"><ele>683.6666666666666</ele><time>2026-04-19T09:52:44.904Z</time></trkpt><trkpt lat="43.4697591" lon="12.451642"><ele>677.0</ele><time>2026-04-19T09:52:45.905Z</time></trkpt><trkpt lat="43.4695959" lon="12.4515946"><ele>672.0</ele><time>2026-04-19T09:52:46.903Z</time></trkpt><trkpt lat="43.4694413" lon="12.4515202"><ele>667.0</ele><time>2026-04-19T09:52:47.904Z</time></trkpt><trkpt lat="43.4692945" lon="12.4514511"><ele>662.0</ele><time>2026-04-19T09:52:48.904Z</time></trkpt><trkpt lat="43.46915" lon="12.4513899"><ele>662.0</ele><time>2026-04-19T09:52:49.904Z</time></trkpt><trkpt lat="43.4690132" lon="12.4513343"><ele>662.0</ele><time>2026-04-19T09:52:50.904Z</time></trkpt><trkpt lat="43.4688738" lon="12.4513197"><ele>662.0</ele><time>2026-04-19T09:52:51.905Z</time></trkpt><trkpt lat="43.4687207" lon="12.4513402"><ele>662.0</ele><time>2026-04-19T09:52:52.904Z</time></trkpt><trkpt lat="43.4685731" lon="12.4513627"><ele>661.25</ele><time>2026-04-19T09:52:53.904Z</time></trkpt><trkpt lat="43.468431" lon="12.4513682"><ele>660.5</ele><time>2026-04-19T09:52:54.905Z</time></trkpt><trkpt lat="43.4682918" lon="12.4513456"><ele>659.75</ele><time>2026-04-19T09:52:55.904Z</time></trkpt><trkpt lat="43.4681532" lon="12.4512755"><ele>659.0</ele><time>2026-04-19T09:52:56.903Z</time></trkpt><trkpt lat="43.4680381" lon="12.4511674"><ele>659.0</ele><time>2026-04-19T09:52:57.904Z</time></trkpt><trkpt lat="43.4679657" lon="12.4510546"><ele>659.0</ele><time>2026-04-19T09:52:58.904Z</time></trkpt><trkpt lat="43.4679361" lon="12.4509411"><ele>659.0</ele><time>2026-04-19T09:52:59.904Z</time></trkpt><trkpt lat="43.4679402" lon="12.4508255"><ele>659.0</ele><time>2026-04-19T09:53:00.905Z</time></trkpt><trkpt lat="43.4679746" lon="12.4507141"><ele>659.0</ele><time>2026-04-19T09:53:01.905Z</time></trkpt><trkpt lat="43.4680459" lon="12.4506018"><ele>659.0</ele><time>2026-04-19T09:53:02.905Z</time></trkpt><trkpt lat="43.4681371" lon="12.4505115"><ele>659.0</ele><time>2026-04-19T09:53:03.904Z</time></trkpt><trkpt lat="43.4683046" lon="12.4505011"><ele>659.0</ele><time>2026-04-19T09:53:04.904Z</time></trkpt><trkpt lat="43.4684454" lon="12.4504726"><ele>659.0</ele><time>2026-04-19T09:53:05.904Z</time></trkpt><trkpt lat="43.4686041" lon="12.4504419"><ele>656.3333333333333</ele><time>2026-04-19T09:53:06.905Z</time></trkpt><trkpt lat="43.4687563" lon="12.4504123"><ele>653.6666666666666</ele><time>2026-04-19T09:53:07.904Z</time></trkpt><trkpt lat="43.4689038" lon="12.4503812"><ele>651.0</ele><time>2026-04-19T09:53:08.905Z</time></trkpt><trkpt lat="43.4690554" lon="12.4503218"><ele>651.0</ele><time>2026-04-19T09:53:09.905Z</time></trkpt><trkpt lat="43.4692127" lon="12.4502371"><ele>651.0</ele><time>2026-04-19T09:53:10.904Z</time></trkpt><trkpt lat="43.4693645" lon="12.4501539"><ele>651.0</ele><time>2026-04-19T09:53:11.903Z</time></trkpt><trkpt lat="43.4695093" lon="12.4500611"><ele>656.0</ele><time>2026-04-19T09:53:12.904Z</time></trkpt><trkpt lat="43.4696388" lon="12.4499806"><ele>661.0</ele><time>2026-04-19T09:53:13.904Z</time></trkpt><trkpt lat="43.4697442" lon="12.4499137"><ele>666.0</ele><time>2026-04-19T09:53:14.904Z</time></trkpt><trkpt lat="43.4698353" lon="12.4498442"><ele>671.0</ele><time>2026-04-19T09:53:15.904Z</time></trkpt><trkpt lat="43.4698916" lon="12.4497449"><ele>671.0</ele><time>2026-04-19T09:53:16.905Z</time></trkpt><trkpt lat="43.4699106" lon="12.449629"><ele>671.0</ele><time>2026-04-19T09:53:17.905Z</time></trkpt><trkpt lat="43.4699243" lon="12.449512"><ele>671.0</ele><time>2026-04-19T09:53:18.903Z</time></trkpt><trkpt lat="43.4699126" lon="12.4494141"><ele>671.0</ele><time>2026-04-19T09:53:19.905Z</time></trkpt><trkpt lat="43.469756" lon="12.4492768"><ele>671.0</ele><time>2026-04-19T09:53:20.904Z</time></trkpt><trkpt lat="43.469656" lon="12.4492031"><ele>664.25</ele><time>2026-04-19T09:53:21.904Z</time></trkpt><trkpt lat="43.4695307" lon="12.4491579"><ele>657.5</ele><time>2026-04-19T09:53:22.903Z</time></trkpt><trkpt lat="43.4693925" lon="12.4491172"><ele>650.75</ele><time>2026-04-19T09:53:23.904Z</time></trkpt><trkpt lat="43.469243" lon="12.4490511"><ele>644.0</ele><time>2026-04-19T09:53:24.904Z</time></trkpt><trkpt lat="43.4690956" lon="12.4489376"><ele>644.0</ele><time>2026-04-19T09:53:25.903Z</time></trkpt><trkpt lat="43.4689392" lon="12.4488292"><ele>644.0</ele><time>2026-04-19T09:53:26.904Z</time></trkpt><trkpt lat="43.4687825" lon="12.4487313"><ele>644.0</ele><time>2026-04-19T09:53:27.904Z</time></trkpt><trkpt lat="43.4686183" lon="12.4486483"><ele>643.75</ele><time>2026-04-19T09:53:28.904Z</time></trkpt><trkpt lat="43.4684714" lon="12.4485492"><ele>643.5</ele><time>2026-04-19T09:53:29.904Z</time></trkpt><trkpt lat="43.4683506" lon="12.4484326"><ele>643.25</ele><time>2026-04-19T09:53:30.904Z</time></trkpt><trkpt lat="43.4682416" lon="12.4483294"><ele>643.0</ele><time>2026-04-19T09:53:31.904Z</time></trkpt><trkpt lat="43.4681282" lon="12.4482563"><ele>643.0</ele><time>2026-04-19T09:53:32.904Z</time></trkpt><trkpt lat="43.4680035" lon="12.4482231"><ele>643.0</ele><time>2026-04-19T09:53:33.905Z</time></trkpt><trkpt lat="43.4678677" lon="12.4482343"><ele>643.0</ele><time>2026-04-19T09:53:34.904Z</time></trkpt><trkpt lat="43.4677282" lon="12.4482747"><ele>643.0</ele><time>2026-04-19T09:53:35.904Z</time></trkpt><trkpt lat="43.4675855" lon="12.4483171"><ele>640.25</ele><time>2026-04-19T09:53:36.903Z</time></trkpt><trkpt lat="43.4674455" lon="12.448336"><ele>637.5</ele><time>2026-04-19T09:53:37.904Z</time></trkpt><trkpt lat="43.4673309" lon="12.4483251"><ele>634.75</ele><time>2026-04-19T09:53:38.904Z</time></trkpt><trkpt lat="43.4672287" lon="12.4482842"><ele>632.0</ele><time>2026-04-19T09:53:39.904Z</time></trkpt><trkpt lat="43.4671461" lon="12.4482081"><ele>630.2</ele><time>2026-04-19T09:53:40.904Z</time></trkpt><trkpt lat="43.4670898" lon="12.4480962"><ele>628.4000000000001</ele><time>2026-04-19T09:53:41.904Z</time></trkpt><trkpt lat="43.4670571" lon="12.4479525"><ele>626.5999999999999</ele><time>2026-04-19T09:53:42.905Z</time></trkpt><trkpt lat="43.4670568" lon="12.4477883"><ele>624.8</ele><time>2026-04-19T09:53:43.904Z</time></trkpt><trkpt lat="43.4670702" lon="12.4476222"><ele>623.0</ele><time>2026-04-19T09:53:44.903Z</time></trkpt><trkpt lat="43.4670691" lon="12.4474589"><ele>623.0</ele><time>2026-04-19T09:53:45.904Z</time></trkpt><trkpt lat="43.4670499" lon="12.4473134"><ele>623.0</ele><time>2026-04-19T09:53:46.904Z</time></trkpt><trkpt lat="43.4669967" lon="12.4471825"><ele>623.0</ele><time>2026-04-19T09:53:47.904Z</time></trkpt><trkpt lat="43.4669279" lon="12.4470864"><ele>623.0</ele><time>2026-04-19T09:53:48.904Z</time></trkpt><trkpt lat="43.4668424" lon="12.4470451"><ele>623.0</ele><time>2026-04-19T09:53:49.905Z</time></trkpt><trkpt lat="43.4667515" lon="12.44704"><ele>623.0</ele><time>2026-04-19T09:53:50.904Z</time></trkpt><trkpt lat="43.4666759" lon="12.4470958"><ele>623.0</ele><time>2026-04-19T09:53:51.903Z</time></trkpt><trkpt lat="43.4666161" lon="12.4471955"><ele>623.0</ele><time>2026-04-19T09:53:52.904Z</time></trkpt><trkpt lat="43.4665856" lon="12.4473161"><ele>623.0</ele><time>2026-04-19T09:53:53.904Z</time></trkpt><trkpt lat="43.466591" lon="12.4474558"><ele>623.0</ele><time>2026-04-19T09:53:54.904Z</time></trkpt><trkpt lat="43.4666203" lon="12.4476141"><ele>623.0</ele><time>2026-04-19T09:53:55.904Z</time></trkpt><trkpt lat="43.4666686" lon="12.4477897"><ele>623.0</ele><time>2026-04-19T09:53:56.903Z</time></trkpt><trkpt lat="43.4667232" lon="12.4479568"><ele>623.0</ele><time>2026-04-19T09:53:57.903Z</time></trkpt><trkpt lat="43.4667764" lon="12.4481073"><ele>623.0</ele><time>2026-04-19T09:53:58.904Z</time></trkpt><trkpt lat="43.4668121" lon="12.448235"><ele>622.1666666666666</ele><time>2026-04-19T09:53:59.905Z</time></trkpt><trkpt lat="43.4668254" lon="12.4483649"><ele>621.3333333333333</ele><time>2026-04-19T09:54:00.905Z</time></trkpt><trkpt lat="43.466799" lon="12.4484794"><ele>620.5</ele><time>2026-04-19T09:54:01.905Z</time></trkpt><trkpt lat="43.4667411" lon="12.4485705"><ele>619.6666666666666</ele><time>2026-04-19T09:54:02.904Z</time></trkpt><trkpt lat="43.4666703" lon="12.4486219"><ele>618.8333333333334</ele><time>2026-04-19T09:54:03.905Z</time></trkpt><trkpt lat="43.4665932" lon="12.4486235"><ele>618.0</ele><time>2026-04-19T09:54:04.904Z</time></trkpt><trkpt lat="43.4665132" lon="12.4485779"><ele>618.0</ele><time>2026-04-19T09:54:05.903Z</time></trkpt><trkpt lat="43.4664447" lon="12.448477"><ele>618.0</ele><time>2026-04-19T09:54:06.903Z</time></trkpt><trkpt lat="43.4663945" lon="12.448332"><ele>618.0</ele><time>2026-04-19T09:54:07.904Z</time></trkpt><trkpt lat="43.4663469" lon="12.4481588"><ele>618.0</ele><time>2026-04-19T09:54:08.904Z</time></trkpt><trkpt lat="43.4662963" lon="12.4479873"><ele>615.25</ele><time>2026-04-19T09:54:09.905Z</time></trkpt><trkpt lat="43.4662454" lon="12.4478217"><ele>612.5</ele><time>2026-04-19T09:54:10.904Z</time></trkpt><trkpt lat="43.4661759" lon="12.4476808"><ele>609.75</ele><time>2026-04-19T09:54:11.904Z</time></trkpt><trkpt lat="43.4660817" lon="12.4475731"><ele>607.0</ele><time>2026-04-19T09:54:12.903Z</time></trkpt><trkpt lat="43.4659582" lon="12.4474905"><ele>607.0</ele><time>2026-04-19T09:54:13.905Z</time></trkpt><trkpt lat="43.4658183" lon="12.4474297"><ele>607.0</ele><time>2026-04-19T09:54:14.904Z</time></trkpt><trkpt lat="43.4656768" lon="12.4473862"><ele>607.0</ele><time>2026-04-19T09:54:15.904Z</time></trkpt><trkpt lat="43.4655491" lon="12.4473335"><ele>607.0</ele><time>2026-04-19T09:54:16.904Z</time></trkpt><trkpt lat="43.4654398" lon="12.4472684"><ele>606.2</ele><time>2026-04-19T09:54:17.905Z</time></trkpt><trkpt lat="43.4653646" lon="12.4471673"><ele>605.4000000000001</ele><time>2026-04-19T09:54:18.903Z</time></trkpt><trkpt lat="43.4652937" lon="12.4470592"><ele>604.5999999999999</ele><time>2026-04-19T09:54:19.903Z</time></trkpt><trkpt lat="43.4653051" lon="12.4469033"><ele>603.8</ele><time>2026-04-19T09:54:20.905Z</time></trkpt><trkpt lat="43.4652806" lon="12.4467654"><ele>603.0</ele><time>2026-04-19T09:54:21.905Z</time></trkpt><trkpt lat="43.4652378" lon="12.4466314"><ele>603.0</ele><time>2026-04-19T09:54:22.905Z</time></trkpt><trkpt lat="43.4651809" lon="12.4465233"><ele>603.0</ele><time>2026-04-19T09:54:23.904Z</time></trkpt><trkpt lat="43.4650963" lon="12.4464288"><ele>603.0</ele><time>2026-04-19T09:54:24.904Z</time></trkpt><trkpt lat="43.4649913" lon="12.4463732"><ele>603.0</ele><time>2026-04-19T09:54:25.905Z</time></trkpt><trkpt lat="43.4648565" lon="12.4463417"><ele>603.0</ele><time>2026-04-19T09:54:26.904Z</time></trkpt><trkpt lat="43.464698" lon="12.4463302"><ele>603.0</ele><time>2026-04-19T09:54:27.904Z</time></trkpt><trkpt lat="43.464543" lon="12.4463523"><ele>603.0</ele><time>2026-04-19T09:54:28.905Z</time></trkpt><trkpt lat="43.4643958" lon="12.4463888"><ele>602.75</ele><time>2026-04-19T09:54:29.905Z</time></trkpt><trkpt lat="43.4642539" lon="12.4464131"><ele>602.5</ele><time>2026-04-19T09:54:30.903Z</time></trkpt><trkpt lat="43.4641228" lon="12.446398"><ele>602.25</ele><time>2026-04-19T09:54:31.904Z</time></trkpt><trkpt lat="43.4640008" lon="12.4463525"><ele>602.0</ele><time>2026-04-19T09:54:32.904Z</time></trkpt><trkpt lat="43.4638996" lon="12.4462771"><ele>602.0</ele><time>2026-04-19T09:54:33.903Z</time></trkpt><trkpt lat="43.4638266" lon="12.4461842"><ele>602.0</ele><time>2026-04-19T09:54:34.905Z</time></trkpt><trkpt lat="43.4637842" lon="12.4460716"><ele>602.0</ele><time>2026-04-19T09:54:35.905Z</time></trkpt><trkpt lat="43.4637754" lon="12.4459504"><ele>602.0</ele><time>2026-04-19T09:54:36.905Z</time></trkpt><trkpt lat="43.4637964" lon="12.4458331"><ele>602.0</ele><time>2026-04-19T09:54:37.904Z</time></trkpt><trkpt lat="43.4638256" lon="12.4457296"><ele>602.0</ele><time>2026-04-19T09:54:38.904Z</time></trkpt><trkpt lat="43.4638425" lon="12.4456225"><ele>602.0</ele><time>2026-04-19T09:54:39.904Z</time></trkpt><trkpt lat="43.4638277" lon="12.4454986"><ele>602.0</ele><time>2026-04-19T09:54:40.903Z</time></trkpt><trkpt lat="43.463793" lon="12.445381"><ele>602.0</ele><time>2026-04-19T09:54:41.905Z</time></trkpt><trkpt lat="43.4637404" lon="12.4452779"><ele>602.0</ele><time>2026-04-19T09:54:42.904Z</time></trkpt><trkpt lat="43.4636723" lon="12.4452201"><ele>602.0</ele><time>2026-04-19T09:54:43.904Z</time></trkpt><trkpt lat="43.4634917" lon="12.4452597"><ele>599.4</ele><time>2026-04-19T09:54:44.904Z</time></trkpt><trkpt lat="43.4633844" lon="12.4452446"><ele>596.8000000000001</ele><time>2026-04-19T09:54:45.904Z</time></trkpt><trkpt lat="43.46328" lon="12.4452174"><ele>594.2</ele><time>2026-04-19T09:54:46.904Z</time></trkpt><trkpt lat="43.463197" lon="12.4451359"><ele>591.6</ele><time>2026-04-19T09:54:47.904Z</time></trkpt><trkpt lat="43.4631404" lon="12.4450274"><ele>589.0</ele><time>2026-04-19T09:54:48.903Z</time></trkpt><trkpt lat="43.4631064" lon="12.4448738"><ele>589.0</ele><time>2026-04-19T09:54:49.902Z</time></trkpt><trkpt lat="43.4630878" lon="12.4446858"><ele>589.0</ele><time>2026-04-19T09:54:50.903Z</time></trkpt><trkpt lat="43.4630974" lon="12.4445006"><ele>589.0</ele><time>2026-04-19T09:54:51.903Z</time></trkpt><trkpt lat="43.4631236" lon="12.4443254"><ele>589.0</ele><time>2026-04-19T09:54:52.904Z</time></trkpt><trkpt lat="43.4631556" lon="12.4441603"><ele>589.4</ele><time>2026-04-19T09:54:53.904Z</time></trkpt><trkpt lat="43.4631845" lon="12.4440081"><ele>589.8</ele><time>2026-04-19T09:54:54.903Z</time></trkpt><trkpt lat="43.4631987" lon="12.4438608"><ele>590.2</ele><time>2026-04-19T09:54:55.902Z</time></trkpt><trkpt lat="43.4632023" lon="12.4437256"><ele>590.6</ele><time>2026-04-19T09:54:56.903Z</time></trkpt><trkpt lat="43.4631507" lon="12.4436186"><ele>591.0</ele><time>2026-04-19T09:54:57.902Z</time></trkpt><trkpt lat="43.4630842" lon="12.4435362"><ele>592.0</ele><time>2026-04-19T09:54:58.902Z</time></trkpt><trkpt lat="43.4629803" lon="12.4434943"><ele>593.0</ele><time>2026-04-19T09:54:59.903Z</time></trkpt><trkpt lat="43.4628676" lon="12.4434839"><ele>594.0</ele><time>2026-04-19T09:55:00.903Z</time></trkpt><trkpt lat="43.4627518" lon="12.4434722"><ele>595.0</ele><time>2026-04-19T09:55:01.903Z</time></trkpt><trkpt lat="43.4626362" lon="12.4434359"><ele>591.5</ele><time>2026-04-19T09:55:02.903Z</time></trkpt><trkpt lat="43.4625251" lon="12.4433298"><ele>588.0</ele><time>2026-04-19T09:55:03.902Z</time></trkpt><trkpt lat="43.4624046" lon="12.4432237"><ele>584.5</ele><time>2026-04-19T09:55:04.901Z</time></trkpt><trkpt lat="43.4622809" lon="12.4431053"><ele>581.0</ele><time>2026-04-19T09:55:05.903Z</time></trkpt><trkpt lat="43.4621425" lon="12.4429719"><ele>578.0</ele><time>2026-04-19T09:55:06.903Z</time></trkpt><trkpt lat="43.4619923" lon="12.4428217"><ele>575.0</ele><time>2026-04-19T09:55:07.902Z</time></trkpt><trkpt lat="43.4618348" lon="12.4426663"><ele>572.0</ele><time>2026-04-19T09:55:08.903Z</time></trkpt><trkpt lat="43.4616777" lon="12.4425226"><ele>572.0</ele><time>2026-04-19T09:55:09.902Z</time></trkpt><trkpt lat="43.4615135" lon="12.4423632"><ele>572.0</ele><time>2026-04-19T09:55:10.902Z</time></trkpt><trkpt lat="43.4613501" lon="12.442201"><ele>572.0</ele><time>2026-04-19T09:55:11.902Z</time></trkpt><trkpt lat="43.4611822" lon="12.4420404"><ele>571.0</ele><time>2026-04-19T09:55:12.902Z</time></trkpt><trkpt lat="43.4610205" lon="12.441868"><ele>570.0</ele><time>2026-04-19T09:55:13.903Z</time></trkpt><trkpt lat="43.4608611" lon="12.4417078"><ele>569.0</ele><time>2026-04-19T09:55:14.902Z</time></trkpt><trkpt lat="43.4607001" lon="12.4415483"><ele>569.0</ele><time>2026-04-19T09:55:15.901Z</time></trkpt><trkpt lat="43.4605469" lon="12.4413958"><ele>569.0</ele><time>2026-04-19T09:55:16.901Z</time></trkpt><trkpt lat="43.4604029" lon="12.4412421"><ele>569.0</ele><time>2026-04-19T09:55:17.902Z</time></trkpt><trkpt lat="43.4602547" lon="12.4410907"><ele>566.6666666666666</ele><time>2026-04-19T09:55:18.901Z</time></trkpt><trkpt lat="43.4601145" lon="12.440915"><ele>564.3333333333334</ele><time>2026-04-19T09:55:19.901Z</time></trkpt><trkpt lat="43.4599786" lon="12.4407159"><ele>562.0</ele><time>2026-04-19T09:55:20.902Z</time></trkpt><trkpt lat="43.4598375" lon="12.4405105"><ele>566.3333333333334</ele><time>2026-04-19T09:55:21.902Z</time></trkpt><trkpt lat="43.4596996" lon="12.4403027"><ele>570.6666666666666</ele><time>2026-04-19T09:55:22.903Z</time></trkpt><trkpt lat="43.4595563" lon="12.4400859"><ele>575.0</ele><time>2026-04-19T09:55:23.902Z</time></trkpt><trkpt lat="43.4594101" lon="12.4398702"><ele>569.6666666666666</ele><time>2026-04-19T09:55:24.902Z</time></trkpt><trkpt lat="43.4592735" lon="12.4396659"><ele>564.3333333333334</ele><time>2026-04-19T09:55:25.902Z</time></trkpt><trkpt lat="43.4591322" lon="12.4394531"><ele>559.0</ele><time>2026-04-19T09:55:26.903Z</time></trkpt><trkpt lat="43.4589923" lon="12.4392461"><ele>559.0</ele><time>2026-04-19T09:55:27.903Z</time></trkpt><trkpt lat="43.4588568" lon="12.4390288"><ele>559.0</ele><time>2026-04-19T09:55:28.903Z</time></trkpt><trkpt lat="43.4587236" lon="12.4388161"><ele>559.0</ele><time>2026-04-19T09:55:29.901Z</time></trkpt><trkpt lat="43.4585893" lon="12.4386168"><ele>559.6666666666667</ele><time>2026-04-19T09:55:30.902Z</time></trkpt><trkpt lat="43.458455" lon="12.4384051"><ele>560.3333333333334</ele><time>2026-04-19T09:55:31.903Z</time></trkpt><trkpt lat="43.4583229" lon="12.4381818"><ele>561.0</ele><time>2026-04-19T09:55:32.901Z</time></trkpt><trkpt lat="43.4581868" lon="12.4379512"><ele>561.0</ele><time>2026-04-19T09:55:33.902Z</time></trkpt><trkpt lat="43.4580524" lon="12.4377155"><ele>561.0</ele><time>2026-04-19T09:55:34.902Z</time></trkpt><trkpt lat="43.4579152" lon="12.4374743"><ele>561.0</ele><time>2026-04-19T09:55:35.902Z</time></trkpt><trkpt lat="43.4577858" lon="12.4372322"><ele>555.0</ele><time>2026-04-19T09:55:36.902Z</time></trkpt><trkpt lat="43.457661" lon="12.4370014"><ele>549.0</ele><time>2026-04-19T09:55:37.903Z</time></trkpt><trkpt lat="43.457536" lon="12.436778"><ele>543.0</ele><time>2026-04-19T09:55:38.902Z</time></trkpt><trkpt lat="43.4574059" lon="12.4365447"><ele>543.0</ele><time>2026-04-19T09:55:39.903Z</time></trkpt><trkpt lat="43.4572781" lon="12.4363136"><ele>543.0</ele><time>2026-04-19T09:55:40.902Z</time></trkpt><trkpt lat="43.4571571" lon="12.4360925"><ele>543.0</ele><time>2026-04-19T09:55:41.903Z</time></trkpt><trkpt lat="43.4570431" lon="12.4358777"><ele>541.3333333333334</ele><time>2026-04-19T09:55:42.902Z</time></trkpt><trkpt lat="43.4569368" lon="12.4356809"><ele>539.6666666666667</ele><time>2026-04-19T09:55:43.902Z</time></trkpt><trkpt lat="43.4568352" lon="12.435506"><ele>538.0</ele><time>2026-04-19T09:55:44.901Z</time></trkpt><trkpt lat="43.4567409" lon="12.4353486"><ele>538.0</ele><time>2026-04-19T09:55:45.902Z</time></trkpt><trkpt lat="43.4566328" lon="12.435224"><ele>538.0</ele><time>2026-04-19T09:55:46.903Z</time></trkpt><trkpt lat="43.4565135" lon="12.4351273"><ele>538.0</ele><time>2026-04-19T09:55:47.902Z</time></trkpt><trkpt lat="43.4563736" lon="12.4350496"><ele>538.0</ele><time>2026-04-19T09:55:48.903Z</time></trkpt><trkpt lat="43.4562092" lon="12.434992"><ele>536.6666666666667</ele><time>2026-04-19T09:55:49.901Z</time></trkpt><trkpt lat="43.4560319" lon="12.4349374"><ele>535.3333333333334</ele><time>2026-04-19T09:55:50.902Z</time></trkpt><trkpt lat="43.4558595" lon="12.4348945"><ele>534.0</ele><time>2026-04-19T09:55:51.903Z</time></trkpt><trkpt lat="43.4556964" lon="12.4348605"><ele>534.0</ele><time>2026-04-19T09:55:52.901Z</time></trkpt><trkpt lat="43.4555383" lon="12.4348542"><ele>534.0</ele><time>2026-04-19T09:55:53.901Z</time></trkpt><trkpt lat="43.4553829" lon="12.434893"><ele>534.0</ele><time>2026-04-19T09:55:54.902Z</time></trkpt><trkpt lat="43.4552276" lon="12.4349776"><ele>532.3333333333334</ele><time>2026-04-19T09:55:55.902Z</time></trkpt><trkpt lat="43.4550654" lon="12.435086"><ele>530.6666666666667</ele><time>2026-04-19T09:55:56.902Z</time></trkpt><trkpt lat="43.4549087" lon="12.4351833"><ele>529.0</ele><time>2026-04-19T09:55:57.903Z</time></trkpt><trkpt lat="43.4547449" lon="12.4352747"><ele>528.6666666666667</ele><time>2026-04-19T09:55:58.902Z</time></trkpt><trkpt lat="43.4545839" lon="12.4353083"><ele>528.3333333333334</ele><time>2026-04-19T09:55:59.902Z</time></trkpt><trkpt lat="43.4544061" lon="12.4353119"><ele>528.0</ele><time>2026-04-19T09:56:00.903Z</time></trkpt><trkpt lat="43.4542191" lon="12.4352827"><ele>528.0</ele><time>2026-04-19T09:56:01.903Z</time></trkpt><trkpt lat="43.4540274" lon="12.4352486"><ele>528.0</ele><time>2026-04-19T09:56:02.903Z</time></trkpt><trkpt lat="43.4538448" lon="12.4352196"><ele>528.0</ele><time>2026-04-19T09:56:03.902Z</time></trkpt><trkpt lat="43.4536628" lon="12.4351984"><ele>528.6666666666666</ele><time>2026-04-19T09:56:04.903Z</time></trkpt><trkpt lat="43.4534728" lon="12.4351956"><ele>529.3333333333333</ele><time>2026-04-19T09:56:05.901Z</time></trkpt><trkpt lat="43.4532751" lon="12.435221"><ele>530.0</ele><time>2026-04-19T09:56:06.901Z</time></trkpt><trkpt lat="43.4530731" lon="12.4352697"><ele>528.6666666666666</ele><time>2026-04-19T09:56:07.901Z</time></trkpt><trkpt lat="43.4528792" lon="12.4353357"><ele>527.3333333333334</ele><time>2026-04-19T09:56:08.902Z</time></trkpt><trkpt lat="43.4526858" lon="12.4353938"><ele>526.0</ele><time>2026-04-19T09:56:09.902Z</time></trkpt><trkpt lat="43.4524971" lon="12.4354332"><ele>526.0</ele><time>2026-04-19T09:56:10.902Z</time></trkpt><trkpt lat="43.4522937" lon="12.4354478"><ele>526.0</ele><time>2026-04-19T09:56:11.903Z</time></trkpt><trkpt lat="43.452077" lon="12.4354387"><ele>526.0</ele><time>2026-04-19T09:56:12.902Z</time></trkpt><trkpt lat="43.4518524" lon="12.435401"><ele>526.5</ele><time>2026-04-19T09:56:13.902Z</time></trkpt><trkpt lat="43.4516161" lon="12.4353542"><ele>527.0</ele><time>2026-04-19T09:56:14.902Z</time></trkpt><trkpt lat="43.4513743" lon="12.4352885"><ele>527.0</ele><time>2026-04-19T09:56:15.903Z</time></trkpt><trkpt lat="43.451131" lon="12.4352325"><ele>527.0</ele><time>2026-04-19T09:56:16.902Z</time></trkpt><trkpt lat="43.4508848" lon="12.4351802"><ele>527.0</ele><time>2026-04-19T09:56:17.903Z</time></trkpt><trkpt lat="43.4506529" lon="12.4351322"><ele>527.0</ele><time>2026-04-19T09:56:18.903Z</time></trkpt><trkpt lat="43.4504313" lon="12.4350832"><ele>527.3333333333333</ele><time>2026-04-19T09:56:19.902Z</time></trkpt><trkpt lat="43.4502213" lon="12.4350341"><ele>527.6666666666666</ele><time>2026-04-19T09:56:20.901Z</time></trkpt><trkpt lat="43.4500193" lon="12.434995"><ele>528.0</ele><time>2026-04-19T09:56:21.903Z</time></trkpt><trkpt lat="43.4498323" lon="12.4349628"><ele>528.0</ele><time>2026-04-19T09:56:22.902Z</time></trkpt><trkpt lat="43.4496536" lon="12.4349371"><ele>528.0</ele><time>2026-04-19T09:56:23.902Z</time></trkpt><trkpt lat="43.4494875" lon="12.4349325"><ele>528.0</ele><time>2026-04-19T09:56:24.903Z</time></trkpt><trkpt lat="43.449327" lon="12.4349427"><ele>527.0</ele><time>2026-04-19T09:56:25.901Z</time></trkpt><trkpt lat="43.4491739" lon="12.4349726"><ele>526.0</ele><time>2026-04-19T09:56:26.901Z</time></trkpt><trkpt lat="43.4490238" lon="12.4350147"><ele>525.0</ele><time>2026-04-19T09:56:27.902Z</time></trkpt><trkpt lat="43.448877" lon="12.4350594"><ele>523.5</ele><time>2026-04-19T09:56:28.902Z</time></trkpt><trkpt lat="43.448737" lon="12.4351078"><ele>522.0</ele><time>2026-04-19T09:56:29.901Z</time></trkpt><trkpt lat="43.448595" lon="12.4351629"><ele>520.5</ele><time>2026-04-19T09:56:30.902Z</time></trkpt><trkpt lat="43.4484538" lon="12.4352142"><ele>519.0</ele><time>2026-04-19T09:56:31.902Z</time></trkpt><trkpt lat="43.4483205" lon="12.4352711"><ele>519.0</ele><time>2026-04-19T09:56:32.902Z</time></trkpt><trkpt lat="43.4481947" lon="12.4353438"><ele>519.0</ele><time>2026-04-19T09:56:33.902Z</time></trkpt><trkpt lat="43.4480851" lon="12.4354248"><ele>519.0</ele><time>2026-04-19T09:56:34.903Z</time></trkpt><trkpt lat="43.4479822" lon="12.4355209"><ele>519.0</ele><time>2026-04-19T09:56:35.901Z</time></trkpt><trkpt lat="43.44789" lon="12.435607"><ele>519.0</ele><time>2026-04-19T09:56:36.901Z</time></trkpt><trkpt lat="43.4478148" lon="12.4357185"><ele>519.0</ele><time>2026-04-19T09:56:37.903Z</time></trkpt><trkpt lat="43.4477337" lon="12.4358018"><ele>519.0</ele><time>2026-04-19T09:56:38.903Z</time></trkpt><trkpt lat="43.4476442" lon="12.4358681"><ele>519.0</ele><time>2026-04-19T09:56:39.903Z</time></trkpt><trkpt lat="43.4475414" lon="12.4358965"><ele>519.0</ele><time>2026-04-19T09:56:40.901Z</time></trkpt><trkpt lat="43.4474316" lon="12.4358942"><ele>519.0</ele><time>2026-04-19T09:56:41.903Z</time></trkpt><trkpt lat="43.4473186" lon="12.4358801"><ele>519.0</ele><time>2026-04-19T09:56:42.902Z</time></trkpt><trkpt lat="43.4471999" lon="12.4358639"><ele>519.0</ele><time>2026-04-19T09:56:43.901Z</time></trkpt><trkpt lat="43.4470788" lon="12.4358457"><ele>519.0</ele><time>2026-04-19T09:56:44.902Z</time></trkpt><trkpt lat="43.4469604" lon="12.4358245"><ele>519.75</ele><time>2026-04-19T09:56:45.901Z</time></trkpt><trkpt lat="43.4468398" lon="12.4357962"><ele>520.5</ele><time>2026-04-19T09:56:46.901Z</time></trkpt><trkpt lat="43.44672" lon="12.435769"><ele>521.25</ele><time>2026-04-19T09:56:47.903Z</time></trkpt><trkpt lat="43.446607" lon="12.4357466"><ele>522.0</ele><time>2026-04-19T09:56:48.902Z</time></trkpt><trkpt lat="43.4464975" lon="12.4357223"><ele>522.0</ele><time>2026-04-19T09:56:49.902Z</time></trkpt><trkpt lat="43.4463892" lon="12.4356916"><ele>522.0</ele><time>2026-04-19T09:56:50.903Z</time></trkpt><trkpt lat="43.44628" lon="12.4356697"><ele>522.0</ele><time>2026-04-19T09:56:51.901Z</time></trkpt><trkpt lat="43.4461675" lon="12.4356518"><ele>522.0</ele><time>2026-04-19T09:56:52.903Z</time></trkpt><trkpt lat="43.4460576" lon="12.4356391"><ele>522.0</ele><time>2026-04-19T09:56:53.903Z</time></trkpt><trkpt lat="43.4459482" lon="12.4356185"><ele>522.75</ele><time>2026-04-19T09:56:54.902Z</time></trkpt><trkpt lat="43.445836" lon="12.4355925"><ele>523.5</ele><time>2026-04-19T09:56:55.901Z</time></trkpt><trkpt lat="43.445723" lon="12.4355684"><ele>524.25</ele><time>2026-04-19T09:56:56.902Z</time></trkpt><trkpt lat="43.445606" lon="12.4355392"><ele>525.0</ele><time>2026-04-19T09:56:57.902Z</time></trkpt><trkpt lat="43.4454931" lon="12.4355016"><ele>523.5</ele><time>2026-04-19T09:56:58.901Z</time></trkpt><trkpt lat="43.4453818" lon="12.4354656"><ele>522.0</ele><time>2026-04-19T09:56:59.902Z</time></trkpt><trkpt lat="43.4452681" lon="12.4354344"><ele>520.5</ele><time>2026-04-19T09:57:00.902Z</time></trkpt><trkpt lat="43.4451563" lon="12.4353978"><ele>519.0</ele><time>2026-04-19T09:57:01.902Z</time></trkpt><trkpt lat="43.4450436" lon="12.4353681"><ele>519.0</ele><time>2026-04-19T09:57:02.902Z</time></trkpt><trkpt lat="43.4449319" lon="12.4353346"><ele>519.0</ele><time>2026-04-19T09:57:03.902Z</time></trkpt><trkpt lat="43.4448218" lon="12.4352926"><ele>519.0</ele><time>2026-04-19T09:57:04.902Z</time></trkpt><trkpt lat="43.4447117" lon="12.4352566"><ele>519.0</ele><time>2026-04-19T09:57:05.902Z</time></trkpt><trkpt lat="43.4445962" lon="12.4352178"><ele>520.75</ele><time>2026-04-19T09:57:06.901Z</time></trkpt><trkpt lat="43.4444854" lon="12.4351833"><ele>522.5</ele><time>2026-04-19T09:57:07.903Z</time></trkpt><trkpt lat="43.4443759" lon="12.4351427"><ele>524.25</ele><time>2026-04-19T09:57:08.903Z</time></trkpt><trkpt lat="43.4442645" lon="12.4351011"><ele>526.0</ele><time>2026-04-19T09:57:09.903Z</time></trkpt><trkpt lat="43.4441537" lon="12.4350623"><ele>526.0</ele><time>2026-04-19T09:57:10.903Z</time></trkpt><trkpt lat="43.4440333" lon="12.4350185"><ele>526.0</ele><time>2026-04-19T09:57:11.902Z</time></trkpt><trkpt lat="43.443909" lon="12.4349812"><ele>526.0</ele><time>2026-04-19T09:57:12.902Z</time></trkpt><trkpt lat="43.4437821" lon="12.4349335"><ele>526.0</ele><time>2026-04-19T09:57:13.901Z</time></trkpt><trkpt lat="43.4436288" lon="12.4348919"><ele>526.3333333333334</ele><time>2026-04-19T09:57:14.903Z</time></trkpt><trkpt lat="43.4434614" lon="12.4348434"><ele>526.6666666666666</ele><time>2026-04-19T09:57:15.902Z</time></trkpt><trkpt lat="43.4433001" lon="12.4347969"><ele>527.0</ele><time>2026-04-19T09:57:16.902Z</time></trkpt><trkpt lat="43.443141" lon="12.434754"><ele>527.0</ele><time>2026-04-19T09:57:17.903Z</time></trkpt><trkpt lat="43.4429697" lon="12.4347036"><ele>527.0</ele><time>2026-04-19T09:57:18.903Z</time></trkpt><trkpt lat="43.4428" lon="12.4346532"><ele>527.0</ele><time>2026-04-19T09:57:19.902Z</time></trkpt><trkpt lat="43.4426436" lon="12.4345998"><ele>523.5</ele><time>2026-04-19T09:57:20.901Z</time></trkpt><trkpt lat="43.4424955" lon="12.4345509"><ele>520.0</ele><time>2026-04-19T09:57:21.902Z</time></trkpt><trkpt lat="43.4423479" lon="12.4345062"><ele>516.5</ele><time>2026-04-19T09:57:22.902Z</time></trkpt><trkpt lat="43.4422042" lon="12.4344701"><ele>513.0</ele><time>2026-04-19T09:57:23.903Z</time></trkpt><trkpt lat="43.4420638" lon="12.4344384"><ele>512.6666666666666</ele><time>2026-04-19T09:57:24.902Z</time></trkpt><trkpt lat="43.4419174" lon="12.4344257"><ele>512.3333333333333</ele><time>2026-04-19T09:57:25.902Z</time></trkpt><trkpt lat="43.4417597" lon="12.4344228"><ele>512.0</ele><time>2026-04-19T09:57:26.902Z</time></trkpt><trkpt lat="43.4416082" lon="12.4344196"><ele>512.0</ele><time>2026-04-19T09:57:27.903Z</time></trkpt><trkpt lat="43.4414615" lon="12.4344249"><ele>512.0</ele><time>2026-04-19T09:57:28.902Z</time></trkpt><trkpt lat="43.4413189" lon="12.4344238"><ele>512.0</ele><time>2026-04-19T09:57:29.903Z</time></trkpt><trkpt lat="43.4411804" lon="12.4344177"><ele>512.0</ele><time>2026-04-19T09:57:30.902Z</time></trkpt><trkpt lat="43.4410358" lon="12.4344215"><ele>511.0</ele><time>2026-04-19T09:57:31.902Z</time></trkpt><trkpt lat="43.4408929" lon="12.4344273"><ele>510.0</ele><time>2026-04-19T09:57:32.903Z</time></trkpt><trkpt lat="43.4407554" lon="12.4344246"><ele>509.0</ele><time>2026-04-19T09:57:33.901Z</time></trkpt><trkpt lat="43.4406207" lon="12.4344278"><ele>508.0</ele><time>2026-04-19T09:57:34.902Z</time></trkpt><trkpt lat="43.4404931" lon="12.4344353"><ele>506.75</ele><time>2026-04-19T09:57:35.901Z</time></trkpt><trkpt lat="43.4403618" lon="12.4344374"><ele>505.5</ele><time>2026-04-19T09:57:36.902Z</time></trkpt><trkpt lat="43.4402278" lon="12.4344367"><ele>504.25</ele><time>2026-04-19T09:57:37.903Z</time></trkpt><trkpt lat="43.4400917" lon="12.4344329"><ele>503.0</ele><time>2026-04-19T09:57:38.902Z</time></trkpt><trkpt lat="43.4399546" lon="12.4344287"><ele>503.0</ele><time>2026-04-19T09:57:39.902Z</time></trkpt><trkpt lat="43.4398232" lon="12.4344261"><ele>503.0</ele><time>2026-04-19T09:57:40.901Z</time></trkpt><trkpt lat="43.4397006" lon="12.4344304"><ele>503.0</ele><time>2026-04-19T09:57:41.902Z</time></trkpt><trkpt lat="43.4395856" lon="12.4344325"><ele>503.0</ele><time>2026-04-19T09:57:42.902Z</time></trkpt><trkpt lat="43.4394881" lon="12.4344307"><ele>502.66666666666663</ele><time>2026-04-19T09:57:43.903Z</time></trkpt><trkpt lat="43.4394015" lon="12.4344285"><ele>502.3333333333333</ele><time>2026-04-19T09:57:44.903Z</time></trkpt><trkpt lat="43.4393256" lon="12.4344247"><ele>502.0</ele><time>2026-04-19T09:57:45.903Z</time></trkpt><trkpt lat="43.4392545" lon="12.4344167"><ele>501.66666666666663</ele><time>2026-04-19T09:57:46.903Z</time></trkpt><trkpt lat="43.4391754" lon="12.4344114"><ele>501.3333333333333</ele><time>2026-04-19T09:57:47.903Z</time></trkpt><trkpt lat="43.439083" lon="12.4344162"><ele>501.0</ele><time>2026-04-19T09:57:48.902Z</time></trkpt><trkpt lat="43.4389697" lon="12.4344227"><ele>501.0</ele><time>2026-04-19T09:57:49.903Z</time></trkpt><trkpt lat="43.4388437" lon="12.434422"><ele>501.0</ele><time>2026-04-19T09:57:50.902Z</time></trkpt><trkpt lat="43.4387041" lon="12.4344117"><ele>501.0</ele><time>2026-04-19T09:57:51.902Z</time></trkpt><trkpt lat="43.4385649" lon="12.434391"><ele>501.0</ele><time>2026-04-19T09:57:52.902Z</time></trkpt><trkpt lat="43.4384082" lon="12.4343609"><ele>501.33333333333337</ele><time>2026-04-19T09:57:53.902Z</time></trkpt><trkpt lat="43.4382373" lon="12.4343222"><ele>501.6666666666667</ele><time>2026-04-19T09:57:54.903Z</time></trkpt><trkpt lat="43.4380673" lon="12.4342803"><ele>502.0</ele><time>2026-04-19T09:57:55.902Z</time></trkpt><trkpt lat="43.437904" lon="12.4342413"><ele>504.0</ele><time>2026-04-19T09:57:56.902Z</time></trkpt><trkpt lat="43.4377388" lon="12.4342046"><ele>506.0</ele><time>2026-04-19T09:57:57.902Z</time></trkpt><trkpt lat="43.4375857" lon="12.4341681"><ele>508.0</ele><time>2026-04-19T09:57:58.902Z</time></trkpt><trkpt lat="43.4374324" lon="12.4341265"><ele>508.0</ele><time>2026-04-19T09:57:59.902Z</time></trkpt><trkpt lat="43.4372908" lon="12.4340917"><ele>508.0</ele><time>2026-04-19T09:58:00.902Z</time></trkpt><trkpt lat="43.4371579" lon="12.434063"><ele>508.0</ele><time>2026-04-19T09:58:01.903Z</time></trkpt><trkpt lat="43.437033" lon="12.4340361"><ele>508.0</ele><time>2026-04-19T09:58:02.902Z</time></trkpt><trkpt lat="43.436916" lon="12.4340138"><ele>508.79999999999995</ele><time>2026-04-19T09:58:03.901Z</time></trkpt><trkpt lat="43.4368058" lon="12.4340052"><ele>509.59999999999997</ele><time>2026-04-19T09:58:04.902Z</time></trkpt><trkpt lat="43.4366997" lon="12.4340002"><ele>510.40000000000003</ele><time>2026-04-19T09:58:05.903Z</time></trkpt><trkpt lat="43.4366078" lon="12.4339984"><ele>511.20000000000005</ele><time>2026-04-19T09:58:06.901Z</time></trkpt><trkpt lat="43.4365177" lon="12.4340002"><ele>512.0</ele><time>2026-04-19T09:58:07.902Z</time></trkpt><trkpt lat="43.4364257" lon="12.4340059"><ele>512.0</ele><time>2026-04-19T09:58:08.902Z</time></trkpt><trkpt lat="43.4363348" lon="12.4340061"><ele>512.0</ele><time>2026-04-19T09:58:09.903Z</time></trkpt><trkpt lat="43.436239" lon="12.4340073"><ele>512.0</ele><time>2026-04-19T09:58:10.903Z</time></trkpt><trkpt lat="43.4361357" lon="12.434011"><ele>512.0</ele><time>2026-04-19T09:58:11.902Z</time></trkpt><trkpt lat="43.436017" lon="12.4340231"><ele>512.0</ele><time>2026-04-19T09:58:12.902Z</time></trkpt><trkpt lat="43.4358908" lon="12.4340351"><ele>511.75</ele><time>2026-04-19T09:58:13.903Z</time></trkpt><trkpt lat="43.4357651" lon="12.4340403"><ele>511.5</ele><time>2026-04-19T09:58:14.903Z</time></trkpt><trkpt lat="43.4356388" lon="12.4340444"><ele>511.25</ele><time>2026-04-19T09:58:15.902Z</time></trkpt><trkpt lat="43.4354997" lon="12.4340456"><ele>511.0</ele><time>2026-04-19T09:58:16.903Z</time></trkpt><trkpt lat="43.4353624" lon="12.4340573"><ele>510.0</ele><time>2026-04-19T09:58:17.903Z</time></trkpt><trkpt lat="43.4352251" lon="12.4340571"><ele>509.0</ele><time>2026-04-19T09:58:18.903Z</time></trkpt><trkpt lat="43.4350955" lon="12.4340608"><ele>508.0</ele><time>2026-04-19T09:58:19.902Z</time></trkpt><trkpt lat="43.4349669" lon="12.4340581"><ele>507.0</ele><time>2026-04-19T09:58:20.901Z</time></trkpt><trkpt lat="43.4348385" lon="12.4340431"><ele>507.0</ele><time>2026-04-19T09:58:21.903Z</time></trkpt><trkpt lat="43.4347106" lon="12.4340262"><ele>507.0</ele><time>2026-04-19T09:58:22.901Z</time></trkpt><trkpt lat="43.4345844" lon="12.434014"><ele>507.0</ele><time>2026-04-19T09:58:23.901Z</time></trkpt><trkpt lat="43.4344581" lon="12.4339976"><ele>507.0</ele><time>2026-04-19T09:58:24.901Z</time></trkpt><trkpt lat="43.434331" lon="12.4339798"><ele>507.0</ele><time>2026-04-19T09:58:25.902Z</time></trkpt><trkpt lat="43.4341974" lon="12.4339601"><ele>507.0</ele><time>2026-04-19T09:58:26.903Z</time></trkpt><trkpt lat="43.4340693" lon="12.4339493"><ele>507.0</ele><time>2026-04-19T09:58:27.901Z</time></trkpt><trkpt lat="43.4339412" lon="12.4339348"><ele>507.0</ele><time>2026-04-19T09:58:28.902Z</time></trkpt><trkpt lat="43.4337946" lon="12.4339229"><ele>508.33333333333337</ele><time>2026-04-19T09:58:29.903Z</time></trkpt><trkpt lat="43.43364" lon="12.4339085"><ele>509.6666666666667</ele><time>2026-04-19T09:58:30.902Z</time></trkpt><trkpt lat="43.4334827" lon="12.433882"><ele>511.0</ele><time>2026-04-19T09:58:31.902Z</time></trkpt><trkpt lat="43.4333297" lon="12.43386"><ele>511.0</ele><time>2026-04-19T09:58:32.902Z</time></trkpt><trkpt lat="43.433186" lon="12.4338399"><ele>511.0</ele><time>2026-04-19T09:58:33.902Z</time></trkpt><trkpt lat="43.4330459" lon="12.4338139"><ele>511.0</ele><time>2026-04-19T09:58:34.902Z</time></trkpt><trkpt lat="43.4329045" lon="12.4337873"><ele>511.0</ele><time>2026-04-19T09:58:35.902Z</time></trkpt><trkpt lat="43.4327646" lon="12.433762"><ele>507.75</ele><time>2026-04-19T09:58:36.901Z</time></trkpt><trkpt lat="43.4326286" lon="12.4337434"><ele>504.5</ele><time>2026-04-19T09:58:37.901Z</time></trkpt><trkpt lat="43.4324915" lon="12.4337266"><ele>501.25</ele><time>2026-04-19T09:58:38.901Z</time></trkpt><trkpt lat="43.4323525" lon="12.4337082"><ele>498.0</ele><time>2026-04-19T09:58:39.901Z</time></trkpt><trkpt lat="43.4322125" lon="12.4336927"><ele>497.5</ele><time>2026-04-19T09:58:40.901Z</time></trkpt><trkpt lat="43.4320762" lon="12.4336823"><ele>497.0</ele><time>2026-04-19T09:58:41.901Z</time></trkpt><trkpt lat="43.4319381" lon="12.4336915"><ele>496.5</ele><time>2026-04-19T09:58:42.9Z</time></trkpt><trkpt lat="43.4317915" lon="12.4337127"><ele>496.0</ele><time>2026-04-19T09:58:43.9Z</time></trkpt><trkpt lat="43.4316513" lon="12.4337346"><ele>496.0</ele><time>2026-04-19T09:58:44.901Z</time></trkpt><trkpt lat="43.4315217" lon="12.4337596"><ele>496.0</ele><time>2026-04-19T09:58:45.901Z</time></trkpt><trkpt lat="43.4313811" lon="12.4337839"><ele>496.0</ele><time>2026-04-19T09:58:46.9Z</time></trkpt><trkpt lat="43.4312462" lon="12.4338289"><ele>496.0</ele><time>2026-04-19T09:58:47.899Z</time></trkpt><trkpt lat="43.4311036" lon="12.4338622"><ele>498.0</ele><time>2026-04-19T09:58:48.9Z</time></trkpt><trkpt lat="43.4309652" lon="12.4338992"><ele>500.0</ele><time>2026-04-19T09:58:49.901Z</time></trkpt><trkpt lat="43.4308243" lon="12.4339465"><ele>502.0</ele><time>2026-04-19T09:58:50.9Z</time></trkpt><trkpt lat="43.4306943" lon="12.4339978"><ele>504.0</ele><time>2026-04-19T09:58:51.9Z</time></trkpt><trkpt lat="43.4305582" lon="12.4340374"><ele>502.5</ele><time>2026-04-19T09:58:52.899Z</time></trkpt><trkpt lat="43.4304289" lon="12.43409"><ele>501.0</ele><time>2026-04-19T09:58:53.901Z</time></trkpt><trkpt lat="43.4302856" lon="12.4341617"><ele>499.5</ele><time>2026-04-19T09:58:54.9Z</time></trkpt><trkpt lat="43.430146" lon="12.4342211"><ele>498.0</ele><time>2026-04-19T09:58:55.901Z</time></trkpt><trkpt lat="43.4300281" lon="12.4342607"><ele>498.0</ele><time>2026-04-19T09:58:56.901Z</time></trkpt><trkpt lat="43.4298948" lon="12.4343127"><ele>498.0</ele><time>2026-04-19T09:58:57.899Z</time></trkpt><trkpt lat="43.4297766" lon="12.4343803"><ele>498.0</ele><time>2026-04-19T09:58:58.9Z</time></trkpt><trkpt lat="43.429655" lon="12.4344763"><ele>498.0</ele><time>2026-04-19T09:58:59.9Z</time></trkpt><trkpt lat="43.4295289" lon="12.4346196"><ele>497.5</ele><time>2026-04-19T09:59:00.899Z</time></trkpt><trkpt lat="43.429424" lon="12.4347429"><ele>497.0</ele><time>2026-04-19T09:59:01.899Z</time></trkpt><trkpt lat="43.4293325" lon="12.4348686"><ele>496.5</ele><time>2026-04-19T09:59:02.899Z</time></trkpt><trkpt lat="43.4292432" lon="12.4349705"><ele>496.0</ele><time>2026-04-19T09:59:03.901Z</time></trkpt><trkpt lat="43.4291535" lon="12.4350542"><ele>496.0</ele><time>2026-04-19T09:59:04.9Z</time></trkpt><trkpt lat="43.4290673" lon="12.4351227"><ele>496.0</ele><time>2026-04-19T09:59:05.899Z</time></trkpt><trkpt lat="43.4289885" lon="12.4351856"><ele>496.0</ele><time>2026-04-19T09:59:06.901Z</time></trkpt><trkpt lat="43.4289058" lon="12.4352531"><ele>496.0</ele><time>2026-04-19T09:59:07.9Z</time></trkpt><trkpt lat="43.4288032" lon="12.4353133"><ele>496.0</ele><time>2026-04-19T09:59:08.899Z</time></trkpt><trkpt lat="43.4286924" lon="12.4353772"><ele>494.5</ele><time>2026-04-19T09:59:09.9Z</time></trkpt><trkpt lat="43.4285565" lon="12.4354219"><ele>493.0</ele><time>2026-04-19T09:59:10.901Z</time></trkpt><trkpt lat="43.4284148" lon="12.4354586"><ele>491.5</ele><time>2026-04-19T09:59:11.901Z</time></trkpt><trkpt lat="43.4282586" lon="12.4354915"><ele>490.0</ele><time>2026-04-19T09:59:12.9Z</time></trkpt><trkpt lat="43.4280811" lon="12.4355165"><ele>492.25</ele><time>2026-04-19T09:59:13.9Z</time></trkpt><trkpt lat="43.427927" lon="12.4355467"><ele>494.5</ele><time>2026-04-19T09:59:14.901Z</time></trkpt><trkpt lat="43.4277738" lon="12.4355676"><ele>496.75</ele><time>2026-04-19T09:59:15.9Z</time></trkpt><trkpt lat="43.4276361" lon="12.4355955"><ele>499.0</ele><time>2026-04-19T09:59:16.9Z</time></trkpt><trkpt lat="43.4274979" lon="12.4356455"><ele>499.0</ele><time>2026-04-19T09:59:17.9Z</time></trkpt><trkpt lat="43.4273643" lon="12.4357301"><ele>499.0</ele><time>2026-04-19T09:59:18.901Z</time></trkpt><trkpt lat="43.4272324" lon="12.4357934"><ele>499.0</ele><time>2026-04-19T09:59:19.901Z</time></trkpt><trkpt lat="43.4270839" lon="12.4358212"><ele>499.0</ele><time>2026-04-19T09:59:20.9Z</time></trkpt><trkpt lat="43.4269234" lon="12.4358253"><ele>499.0</ele><time>2026-04-19T09:59:21.9Z</time></trkpt><trkpt lat="43.4267506" lon="12.4358249"><ele>499.0</ele><time>2026-04-19T09:59:22.901Z</time></trkpt><trkpt lat="43.426594" lon="12.4358216"><ele>499.0</ele><time>2026-04-19T09:59:23.901Z</time></trkpt><trkpt lat="43.4264259" lon="12.4358253"><ele>497.0</ele><time>2026-04-19T09:59:24.901Z</time></trkpt><trkpt lat="43.4262532" lon="12.435853"><ele>495.0</ele><time>2026-04-19T09:59:25.9Z</time></trkpt><trkpt lat="43.4260736" lon="12.4359035"><ele>493.0</ele><time>2026-04-19T09:59:26.9Z</time></trkpt><trkpt lat="43.4259037" lon="12.4359945"><ele>493.0</ele><time>2026-04-19T09:59:27.901Z</time></trkpt><trkpt lat="43.4257336" lon="12.4360646"><ele>493.0</ele><time>2026-04-19T09:59:28.901Z</time></trkpt><trkpt lat="43.4255735" lon="12.4361261"><ele>493.0</ele><time>2026-04-19T09:59:29.901Z</time></trkpt><trkpt lat="43.4254252" lon="12.4361691"><ele>493.5</ele><time>2026-04-19T09:59:30.9Z</time></trkpt><trkpt lat="43.4252809" lon="12.4361642"><ele>494.0</ele><time>2026-04-19T09:59:31.901Z</time></trkpt><trkpt lat="43.4251545" lon="12.4361224"><ele>494.5</ele><time>2026-04-19T09:59:32.9Z</time></trkpt><trkpt lat="43.4250311" lon="12.4360309"><ele>495.0</ele><time>2026-04-19T09:59:33.9Z</time></trkpt><trkpt lat="43.4249132" lon="12.4359009"><ele>495.0</ele><time>2026-04-19T09:59:34.899Z</time></trkpt><trkpt lat="43.4247783" lon="12.4357427"><ele>495.0</ele><time>2026-04-19T09:59:35.9Z</time></trkpt><trkpt lat="43.4246301" lon="12.435574"><ele>495.0</ele><time>2026-04-19T09:59:36.9Z</time></trkpt><trkpt lat="43.4244908" lon="12.4354057"><ele>493.33333333333337</ele><time>2026-04-19T09:59:37.899Z</time></trkpt><trkpt lat="43.4243654" lon="12.4352544"><ele>491.6666666666667</ele><time>2026-04-19T09:59:38.9Z</time></trkpt><trkpt lat="43.4242389" lon="12.4351059"><ele>490.0</ele><time>2026-04-19T09:59:39.901Z</time></trkpt><trkpt lat="43.424119" lon="12.4349831"><ele>490.0</ele><time>2026-04-19T09:59:40.9Z</time></trkpt><trkpt lat="43.4239926" lon="12.4349112"><ele>490.0</ele><time>2026-04-19T09:59:41.899Z</time></trkpt><trkpt lat="43.4238493" lon="12.4348617"><ele>490.0</ele><time>2026-04-19T09:59:42.9Z</time></trkpt><trkpt lat="43.4236918" lon="12.4348298"><ele>490.0</ele><time>2026-04-19T09:59:43.901Z</time></trkpt><trkpt lat="43.4235197" lon="12.4348028"><ele>487.0</ele><time>2026-04-19T09:59:44.9Z</time></trkpt><trkpt lat="43.4233423" lon="12.4347623"><ele>484.0</ele><time>2026-04-19T09:59:45.9Z</time></trkpt><trkpt lat="43.4231572" lon="12.4346839"><ele>481.0</ele><time>2026-04-19T09:59:46.901Z</time></trkpt><trkpt lat="43.4229822" lon="12.4345693"><ele>483.33333333333337</ele><time>2026-04-19T09:59:47.901Z</time></trkpt><trkpt lat="43.4228116" lon="12.4344575"><ele>485.66666666666663</ele><time>2026-04-19T09:59:48.901Z</time></trkpt><trkpt lat="43.4226517" lon="12.434351"><ele>488.0</ele><time>2026-04-19T09:59:49.899Z</time></trkpt><trkpt lat="43.4224965" lon="12.4342586"><ele>488.0</ele><time>2026-04-19T09:59:50.9Z</time></trkpt><trkpt lat="43.422333" lon="12.4341991"><ele>488.0</ele><time>2026-04-19T09:59:51.901Z</time></trkpt><trkpt lat="43.4221631" lon="12.4341438"><ele>488.0</ele><time>2026-04-19T09:59:52.901Z</time></trkpt><trkpt lat="43.4219515" lon="12.4341521"><ele>488.3333333333333</ele><time>2026-04-19T09:59:53.901Z</time></trkpt><trkpt lat="43.4217602" lon="12.4341311"><ele>488.66666666666663</ele><time>2026-04-19T09:59:54.901Z</time></trkpt><trkpt lat="43.4215429" lon="12.434138"><ele>489.0</ele><time>2026-04-19T09:59:55.901Z</time></trkpt><trkpt lat="43.4213276" lon="12.4341266"><ele>489.5</ele><time>2026-04-19T09:59:56.899Z</time></trkpt><trkpt lat="43.421089" lon="12.4341342"><ele>490.0</ele><time>2026-04-19T09:59:57.9Z</time></trkpt><trkpt lat="43.420865" lon="12.4341342"><ele>490.0</ele><time>2026-04-19T09:59:58.901Z</time></trkpt><trkpt lat="43.420649" lon="12.4341328"><ele>490.0</ele><time>2026-04-19T09:59:59.9Z</time></trkpt><trkpt lat="43.4204349" lon="12.4341395"><ele>490.0</ele><time>2026-04-19T10:00:00.899Z</time></trkpt><trkpt lat="43.4202311" lon="12.4341298"><ele>489.6666666666667</ele><time>2026-04-19T10:00:01.901Z</time></trkpt><trkpt lat="43.4200587" lon="12.4341182"><ele>489.33333333333337</ele><time>2026-04-19T10:00:02.899Z</time></trkpt><trkpt lat="43.4198691" lon="12.4340803"><ele>489.0</ele><time>2026-04-19T10:00:03.901Z</time></trkpt><trkpt lat="43.4196788" lon="12.4340162"><ele>492.0</ele><time>2026-04-19T10:00:04.9Z</time></trkpt><trkpt lat="43.4194824" lon="12.4339216"><ele>495.0</ele><time>2026-04-19T10:00:05.9Z</time></trkpt><trkpt lat="43.4192858" lon="12.4338311"><ele>498.0</ele><time>2026-04-19T10:00:06.9Z</time></trkpt><trkpt lat="43.4190945" lon="12.4337353"><ele>495.0</ele><time>2026-04-19T10:00:07.9Z</time></trkpt><trkpt lat="43.4189106" lon="12.4336515"><ele>492.0</ele><time>2026-04-19T10:00:08.901Z</time></trkpt><trkpt lat="43.4187505" lon="12.4335702"><ele>489.0</ele><time>2026-04-19T10:00:09.901Z</time></trkpt><trkpt lat="43.4185933" lon="12.4335126"><ele>489.0</ele><time>2026-04-19T10:00:10.899Z</time></trkpt><trkpt lat="43.4184367" lon="12.4334817"><ele>489.0</ele><time>2026-04-19T10:00:11.901Z</time></trkpt><trkpt lat="43.418286" lon="12.4334628"><ele>489.0</ele><time>2026-04-19T10:00:12.9Z</time></trkpt><trkpt lat="43.4181242" lon="12.4334746"><ele>494.66666666666663</ele><time>2026-04-19T10:00:13.899Z</time></trkpt><trkpt lat="43.4179656" lon="12.4334392"><ele>500.3333333333333</ele><time>2026-04-19T10:00:14.901Z</time></trkpt><trkpt lat="43.417799" lon="12.4334051"><ele>506.0</ele><time>2026-04-19T10:00:15.901Z</time></trkpt><trkpt lat="43.4176332" lon="12.433369"><ele>506.0</ele><time>2026-04-19T10:00:16.899Z</time></trkpt><trkpt lat="43.4175078" lon="12.4332101"><ele>506.0</ele><time>2026-04-19T10:00:17.9Z</time></trkpt><trkpt lat="43.4173652" lon="12.4330927"><ele>506.0</ele><time>2026-04-19T10:00:18.901Z</time></trkpt><trkpt lat="43.4172467" lon="12.4329507"><ele>504.0</ele><time>2026-04-19T10:00:19.9Z</time></trkpt><trkpt lat="43.4171225" lon="12.4328464"><ele>502.0</ele><time>2026-04-19T10:00:20.901Z</time></trkpt><trkpt lat="43.4170002" lon="12.4327869"><ele>500.0</ele><time>2026-04-19T10:00:21.9Z</time></trkpt><trkpt lat="43.4168622" lon="12.4327824"><ele>498.0</ele><time>2026-04-19T10:00:22.9Z</time></trkpt><trkpt lat="43.4167322" lon="12.4328164"><ele>498.0</ele><time>2026-04-19T10:00:23.9Z</time></trkpt><trkpt lat="43.4166058" lon="12.4328526"><ele>498.0</ele><time>2026-04-19T10:00:24.901Z</time></trkpt><trkpt lat="43.4165108" lon="12.4328188"><ele>498.0</ele><time>2026-04-19T10:00:25.899Z</time></trkpt><trkpt lat="43.4164143" lon="12.4327612"><ele>498.0</ele><time>2026-04-19T10:00:26.9Z</time></trkpt><trkpt lat="43.416328" lon="12.4326504"><ele>500.75</ele><time>2026-04-19T10:00:27.9Z</time></trkpt><trkpt lat="43.4162632" lon="12.4324941"><ele>503.5</ele><time>2026-04-19T10:00:28.9Z</time></trkpt><trkpt lat="43.4162336" lon="12.4323121"><ele>506.25</ele><time>2026-04-19T10:00:29.901Z</time></trkpt><trkpt lat="43.4162311" lon="12.4321235"><ele>509.0</ele><time>2026-04-19T10:00:30.901Z</time></trkpt><trkpt lat="43.4162276" lon="12.431943"><ele>509.0</ele><time>2026-04-19T10:00:31.9Z</time></trkpt><trkpt lat="43.4162141" lon="12.4317793"><ele>509.0</ele><time>2026-04-19T10:00:32.9Z</time></trkpt><trkpt lat="43.4161455" lon="12.4316662"><ele>509.0</ele><time>2026-04-19T10:00:33.9Z</time></trkpt><trkpt lat="43.4160672" lon="12.4315417"><ele>509.0</ele><time>2026-04-19T10:00:34.9Z</time></trkpt><trkpt lat="43.4159552" lon="12.4314382"><ele>509.0</ele><time>2026-04-19T10:00:35.9Z</time></trkpt><trkpt lat="43.4158112" lon="12.4313544"><ele>509.0</ele><time>2026-04-19T10:00:36.9Z</time></trkpt><trkpt lat="43.4156729" lon="12.4312738"><ele>509.0</ele><time>2026-04-19T10:00:37.901Z</time></trkpt><trkpt lat="43.4154933" lon="12.4312217"><ele>503.0</ele><time>2026-04-19T10:00:38.9Z</time></trkpt><trkpt lat="43.4153002" lon="12.4311717"><ele>497.0</ele><time>2026-04-19T10:00:39.901Z</time></trkpt><trkpt lat="43.4150994" lon="12.4311531"><ele>491.0</ele><time>2026-04-19T10:00:40.9Z</time></trkpt><trkpt lat="43.4149121" lon="12.43115"><ele>491.0</ele><time>2026-04-19T10:00:41.899Z</time></trkpt><trkpt lat="43.4147435" lon="12.4311654"><ele>491.0</ele><time>2026-04-19T10:00:42.9Z</time></trkpt><trkpt lat="43.4145771" lon="12.4311778"><ele>491.0</ele><time>2026-04-19T10:00:43.901Z</time></trkpt><trkpt lat="43.4144486" lon="12.4311785"><ele>493.6</ele><time>2026-04-19T10:00:44.901Z</time></trkpt><trkpt lat="43.414336" lon="12.4311419"><ele>496.20000000000005</ele><time>2026-04-19T10:00:45.901Z</time></trkpt><trkpt lat="43.4142525" lon="12.4310666"><ele>498.79999999999995</ele><time>2026-04-19T10:00:46.9Z</time></trkpt><trkpt lat="43.4141832" lon="12.4309486"><ele>501.4</ele><time>2026-04-19T10:00:47.9Z</time></trkpt><trkpt lat="43.4141118" lon="12.4308179"><ele>504.0</ele><time>2026-04-19T10:00:48.9Z</time></trkpt><trkpt lat="43.4140167" lon="12.4306593"><ele>504.0</ele><time>2026-04-19T10:00:49.9Z</time></trkpt><trkpt lat="43.4139339" lon="12.4305139"><ele>504.0</ele><time>2026-04-19T10:00:50.901Z</time></trkpt><trkpt lat="43.4138423" lon="12.4303994"><ele>504.0</ele><time>2026-04-19T10:00:51.9Z</time></trkpt><trkpt lat="43.4137412" lon="12.4303179"><ele>504.0</ele><time>2026-04-19T10:00:52.9Z</time></trkpt><trkpt lat="43.4136223" lon="12.4302765"><ele>502.0</ele><time>2026-04-19T10:00:53.901Z</time></trkpt><trkpt lat="43.4134815" lon="12.4302739"><ele>500.0</ele><time>2026-04-19T10:00:54.9Z</time></trkpt><trkpt lat="43.4133295" lon="12.4302607"><ele>498.0</ele><time>2026-04-19T10:00:55.899Z</time></trkpt><trkpt lat="43.4131752" lon="12.4302187"><ele>498.0</ele><time>2026-04-19T10:00:56.899Z</time></trkpt><trkpt lat="43.4130015" lon="12.4301317"><ele>498.0</ele><time>2026-04-19T10:00:57.899Z</time></trkpt><trkpt lat="43.412825" lon="12.4300316"><ele>498.0</ele><time>2026-04-19T10:00:58.901Z</time></trkpt><trkpt lat="43.4126513" lon="12.4299173"><ele>498.33333333333337</ele><time>2026-04-19T10:00:59.901Z</time></trkpt><trkpt lat="43.4124706" lon="12.4298137"><ele>498.6666666666667</ele><time>2026-04-19T10:01:00.9Z</time></trkpt><trkpt lat="43.4122985" lon="12.4297075"><ele>499.0</ele><time>2026-04-19T10:01:01.901Z</time></trkpt><trkpt lat="43.4121261" lon="12.4296122"><ele>492.6666666666667</ele><time>2026-04-19T10:01:02.9Z</time></trkpt><trkpt lat="43.4119599" lon="12.4295413"><ele>486.33333333333337</ele><time>2026-04-19T10:01:03.901Z</time></trkpt><trkpt lat="43.4117866" lon="12.4295064"><ele>480.0</ele><time>2026-04-19T10:01:04.901Z</time></trkpt><trkpt lat="43.4116296" lon="12.4294689"><ele>480.0</ele><time>2026-04-19T10:01:05.9Z</time></trkpt><trkpt lat="43.4114798" lon="12.4294186"><ele>480.0</ele><time>2026-04-19T10:01:06.901Z</time></trkpt><trkpt lat="43.4113562" lon="12.4293646"><ele>480.0</ele><time>2026-04-19T10:01:07.901Z</time></trkpt><trkpt lat="43.4112484" lon="12.4293216"><ele>480.0</ele><time>2026-04-19T10:01:08.9Z</time></trkpt><trkpt lat="43.4111499" lon="12.4293251"><ele>480.2</ele><time>2026-04-19T10:01:09.899Z</time></trkpt><trkpt lat="43.4110745" lon="12.4293753"><ele>480.4</ele><time>2026-04-19T10:01:10.901Z</time></trkpt><trkpt lat="43.4110067" lon="12.4294904"><ele>480.6</ele><time>2026-04-19T10:01:11.901Z</time></trkpt><trkpt lat="43.4109671" lon="12.4296381"><ele>480.8</ele><time>2026-04-19T10:01:12.9Z</time></trkpt><trkpt lat="43.4109231" lon="12.4297831"><ele>481.0</ele><time>2026-04-19T10:01:13.901Z</time></trkpt><trkpt lat="43.4108734" lon="12.429911"><ele>483.6</ele><time>2026-04-19T10:01:14.899Z</time></trkpt><trkpt lat="43.410794" lon="12.4299952"><ele>486.20000000000005</ele><time>2026-04-19T10:01:15.9Z</time></trkpt><trkpt lat="43.410707" lon="12.4300391"><ele>488.79999999999995</ele><time>2026-04-19T10:01:16.899Z</time></trkpt><trkpt lat="43.4105977" lon="12.4300567"><ele>491.4</ele><time>2026-04-19T10:01:17.9Z</time></trkpt><trkpt lat="43.4104675" lon="12.4300406"><ele>494.0</ele><time>2026-04-19T10:01:18.899Z</time></trkpt><trkpt lat="43.4103623" lon="12.4300248"><ele>494.0</ele><time>2026-04-19T10:01:19.9Z</time></trkpt><trkpt lat="43.4102711" lon="12.4299751"><ele>494.0</ele><time>2026-04-19T10:01:20.9Z</time></trkpt><trkpt lat="43.4101947" lon="12.4299012"><ele>494.0</ele><time>2026-04-19T10:01:21.901Z</time></trkpt><trkpt lat="43.4101165" lon="12.4298118"><ele>494.0</ele><time>2026-04-19T10:01:22.901Z</time></trkpt><trkpt lat="43.4100813" lon="12.4296505"><ele>494.0</ele><time>2026-04-19T10:01:23.899Z</time></trkpt><trkpt lat="43.41001" lon="12.4295509"><ele>490.25</ele><time>2026-04-19T10:01:24.9Z</time></trkpt><trkpt lat="43.4099241" lon="12.4294813"><ele>486.5</ele><time>2026-04-19T10:01:25.901Z</time></trkpt><trkpt lat="43.4098135" lon="12.4294503"><ele>482.75</ele><time>2026-04-19T10:01:26.901Z</time></trkpt><trkpt lat="43.4096796" lon="12.4294548"><ele>479.0</ele><time>2026-04-19T10:01:27.901Z</time></trkpt><trkpt lat="43.4095452" lon="12.4294776"><ele>480.75</ele><time>2026-04-19T10:01:28.901Z</time></trkpt><trkpt lat="43.4094004" lon="12.429529"><ele>482.5</ele><time>2026-04-19T10:01:29.9Z</time></trkpt><trkpt lat="43.4092625" lon="12.429589"><ele>484.25</ele><time>2026-04-19T10:01:30.899Z</time></trkpt><trkpt lat="43.4091266" lon="12.4296467"><ele>486.0</ele><time>2026-04-19T10:01:31.901Z</time></trkpt><trkpt lat="43.4090395" lon="12.4297519"><ele>486.0</ele><time>2026-04-19T10:01:32.901Z</time></trkpt><trkpt lat="43.4089591" lon="12.4298771"><ele>486.0</ele><time>2026-04-19T10:01:33.9Z</time></trkpt><trkpt lat="43.4088791" lon="12.4300349"><ele>486.0</ele><time>2026-04-19T10:01:34.9Z</time></trkpt><trkpt lat="43.40878" lon="12.430193"><ele>486.0</ele><time>2026-04-19T10:01:35.901Z</time></trkpt><trkpt lat="43.4086621" lon="12.4303393"><ele>486.0</ele><time>2026-04-19T10:01:36.9Z</time></trkpt><trkpt lat="43.4085444" lon="12.4304675"><ele>486.0</ele><time>2026-04-19T10:01:37.899Z</time></trkpt><trkpt lat="43.4084197" lon="12.4305522"><ele>486.0</ele><time>2026-04-19T10:01:38.901Z</time></trkpt><trkpt lat="43.4083" lon="12.4305976"><ele>486.0</ele><time>2026-04-19T10:01:39.901Z</time></trkpt><trkpt lat="43.4081428" lon="12.4305924"><ele>486.0</ele><time>2026-04-19T10:01:40.901Z</time></trkpt><trkpt lat="43.4080048" lon="12.4305898"><ele>486.0</ele><time>2026-04-19T10:01:41.901Z</time></trkpt><trkpt lat="43.4078622" lon="12.4305455"><ele>486.0</ele><time>2026-04-19T10:01:42.9Z</time></trkpt><trkpt lat="43.4077053" lon="12.4304792"><ele>486.0</ele><time>2026-04-19T10:01:43.9Z</time></trkpt><trkpt lat="43.4075592" lon="12.430411"><ele>479.0</ele><time>2026-04-19T10:01:44.9Z</time></trkpt><trkpt lat="43.4074237" lon="12.4303374"><ele>472.0</ele><time>2026-04-19T10:01:45.9Z</time></trkpt><trkpt lat="43.4072897" lon="12.4302755"><ele>465.0</ele><time>2026-04-19T10:01:46.899Z</time></trkpt><trkpt lat="43.4071469" lon="12.43023"><ele>458.0</ele><time>2026-04-19T10:01:47.9Z</time></trkpt><trkpt lat="43.4069791" lon="12.4302167"><ele>458.0</ele><time>2026-04-19T10:01:48.9Z</time></trkpt><trkpt lat="43.4068047" lon="12.4302168"><ele>458.0</ele><time>2026-04-19T10:01:49.901Z</time></trkpt><trkpt lat="43.4066192" lon="12.4302241"><ele>458.0</ele><time>2026-04-19T10:01:50.899Z</time></trkpt><trkpt lat="43.4064165" lon="12.430234"><ele>458.0</ele><time>2026-04-19T10:01:51.901Z</time></trkpt><trkpt lat="43.4062166" lon="12.4302419"><ele>458.0</ele><time>2026-04-19T10:01:52.9Z</time></trkpt><trkpt lat="43.4060181" lon="12.4302548"><ele>458.0</ele><time>2026-04-19T10:01:53.901Z</time></trkpt><trkpt lat="43.4058281" lon="12.430265"><ele>458.0</ele><time>2026-04-19T10:01:54.899Z</time></trkpt><trkpt lat="43.405649" lon="12.4302758"><ele>458.0</ele><time>2026-04-19T10:01:55.899Z</time></trkpt><trkpt lat="43.4054951" lon="12.4302764"><ele>458.0</ele><time>2026-04-19T10:01:56.901Z</time></trkpt><trkpt lat="43.4053455" lon="12.4302624"><ele>458.3333333333333</ele><time>2026-04-19T10:01:57.9Z</time></trkpt><trkpt lat="43.405196" lon="12.4302038"><ele>458.66666666666663</ele><time>2026-04-19T10:01:58.9Z</time></trkpt><trkpt lat="43.4050335" lon="12.4301216"><ele>459.0</ele><time>2026-04-19T10:01:59.9Z</time></trkpt><trkpt lat="43.4048594" lon="12.4300334"><ele>459.66666666666663</ele><time>2026-04-19T10:02:00.901Z</time></trkpt><trkpt lat="43.4046567" lon="12.4299708"><ele>460.3333333333333</ele><time>2026-04-19T10:02:01.901Z</time></trkpt><trkpt lat="43.404465" lon="12.4299113"><ele>461.0</ele><time>2026-04-19T10:02:02.9Z</time></trkpt><trkpt lat="43.4042687" lon="12.4298569"><ele>461.0</ele><time>2026-04-19T10:02:03.9Z</time></trkpt><trkpt lat="43.4040855" lon="12.4298015"><ele>461.0</ele><time>2026-04-19T10:02:04.9Z</time></trkpt><trkpt lat="43.4039295" lon="12.4297442"><ele>461.0</ele><time>2026-04-19T10:02:05.9Z</time></trkpt><trkpt lat="43.4037957" lon="12.4296553"><ele>456.3333333333333</ele><time>2026-04-19T10:02:06.9Z</time></trkpt><trkpt lat="43.4036833" lon="12.4295224"><ele>451.66666666666663</ele><time>2026-04-19T10:02:07.9Z</time></trkpt><trkpt lat="43.4035884" lon="12.4293513"><ele>447.0</ele><time>2026-04-19T10:02:08.899Z</time></trkpt><trkpt lat="43.4034773" lon="12.4291878"><ele>447.0</ele><time>2026-04-19T10:02:09.9Z</time></trkpt><trkpt lat="43.4033546" lon="12.4290516"><ele>447.0</ele><time>2026-04-19T10:02:10.901Z</time></trkpt><trkpt lat="43.4032044" lon="12.4289288"><ele>447.0</ele><time>2026-04-19T10:02:11.9Z</time></trkpt><trkpt lat="43.4030435" lon="12.4288091"><ele>445.33333333333337</ele><time>2026-04-19T10:02:12.901Z</time></trkpt><trkpt lat="43.4028421" lon="12.4286963"><ele>443.6666666666667</ele><time>2026-04-19T10:02:13.9Z</time></trkpt><trkpt lat="43.4026556" lon="12.4285631"><ele>442.0</ele><time>2026-04-19T10:02:14.9Z</time></trkpt><trkpt lat="43.402472" lon="12.4284372"><ele>442.0</ele><time>2026-04-19T10:02:15.899Z</time></trkpt><trkpt lat="43.4022943" lon="12.4283102"><ele>442.0</ele><time>2026-04-19T10:02:16.899Z</time></trkpt><trkpt lat="43.4021198" lon="12.4281972"><ele>442.0</ele><time>2026-04-19T10:02:17.899Z</time></trkpt><trkpt lat="43.4019501" lon="12.4281175"><ele>442.0</ele><time>2026-04-19T10:02:18.9Z</time></trkpt><trkpt lat="43.4017653" lon="12.4280879"><ele>442.0</ele><time>2026-04-19T10:02:19.898Z</time></trkpt><trkpt lat="43.4015931" lon="12.4280639"><ele>442.0</ele><time>2026-04-19T10:02:20.9Z</time></trkpt><trkpt lat="43.4014328" lon="12.4280341"><ele>443.25</ele><time>2026-04-19T10:02:21.899Z</time></trkpt><trkpt lat="43.4012879" lon="12.4279936"><ele>444.5</ele><time>2026-04-19T10:02:22.9Z</time></trkpt><trkpt lat="43.4011503" lon="12.4279524"><ele>445.75</ele><time>2026-04-19T10:02:23.899Z</time></trkpt><trkpt lat="43.4010862" lon="12.4278368"><ele>447.0</ele><time>2026-04-19T10:02:24.9Z</time></trkpt><trkpt lat="43.40103" lon="12.4277142"><ele>445.0</ele><time>2026-04-19T10:02:25.899Z</time></trkpt><trkpt lat="43.400987" lon="12.427583"><ele>443.0</ele><time>2026-04-19T10:02:26.899Z</time></trkpt><trkpt lat="43.400943" lon="12.4274134"><ele>441.0</ele><time>2026-04-19T10:02:27.899Z</time></trkpt><trkpt lat="43.4008844" lon="12.4272274"><ele>439.0</ele><time>2026-04-19T10:02:28.898Z</time></trkpt><trkpt lat="43.400817" lon="12.4270244"><ele>439.0</ele><time>2026-04-19T10:02:29.9Z</time></trkpt><trkpt lat="43.4007668" lon="12.4268099"><ele>439.0</ele><time>2026-04-19T10:02:30.9Z</time></trkpt><trkpt lat="43.4007314" lon="12.4265814"><ele>439.0</ele><time>2026-04-19T10:02:31.898Z</time></trkpt><trkpt lat="43.400717" lon="12.4263591"><ele>440.0</ele><time>2026-04-19T10:02:32.9Z</time></trkpt><trkpt lat="43.4007068" lon="12.4261462"><ele>441.0</ele><time>2026-04-19T10:02:33.899Z</time></trkpt><trkpt lat="43.4006907" lon="12.4259312"><ele>442.0</ele><time>2026-04-19T10:02:34.9Z</time></trkpt><trkpt lat="43.4005888" lon="12.4257154"><ele>442.0</ele><time>2026-04-19T10:02:35.9Z</time></trkpt><trkpt lat="43.4005014" lon="12.4254884"><ele>442.0</ele><time>2026-04-19T10:02:36.9Z</time></trkpt><trkpt lat="43.4003975" lon="12.4252656"><ele>442.0</ele><time>2026-04-19T10:02:37.899Z</time></trkpt><trkpt lat="43.4003029" lon="12.425038"><ele>436.6666666666667</ele><time>2026-04-19T10:02:38.9Z</time></trkpt><trkpt lat="43.4002018" lon="12.4248195"><ele>431.33333333333337</ele><time>2026-04-19T10:02:39.898Z</time></trkpt><trkpt lat="43.4000893" lon="12.4246322"><ele>426.0</ele><time>2026-04-19T10:02:40.898Z</time></trkpt><trkpt lat="43.3999835" lon="12.4244351"><ele>425.33333333333337</ele><time>2026-04-19T10:02:41.897Z</time></trkpt><trkpt lat="43.3997904" lon="12.4243128"><ele>424.6666666666667</ele><time>2026-04-19T10:02:42.898Z</time></trkpt><trkpt lat="43.3996145" lon="12.4241653"><ele>424.0</ele><time>2026-04-19T10:02:43.899Z</time></trkpt><trkpt lat="43.3994253" lon="12.4240057"><ele>423.0</ele><time>2026-04-19T10:02:44.899Z</time></trkpt><trkpt lat="43.3992357" lon="12.4238412"><ele>422.0</ele><time>2026-04-19T10:02:45.898Z</time></trkpt><trkpt lat="43.3990397" lon="12.423677"><ele>423.5</ele><time>2026-04-19T10:02:46.898Z</time></trkpt><trkpt lat="43.3988355" lon="12.4235071"><ele>425.0</ele><time>2026-04-19T10:02:47.898Z</time></trkpt><trkpt lat="43.3986342" lon="12.4233272"><ele>425.0</ele><time>2026-04-19T10:02:48.897Z</time></trkpt><trkpt lat="43.39844" lon="12.4231597"><ele>425.0</ele><time>2026-04-19T10:02:49.897Z</time></trkpt><trkpt lat="43.3982507" lon="12.422994"><ele>426.66666666666663</ele><time>2026-04-19T10:02:50.897Z</time></trkpt><trkpt lat="43.398056" lon="12.4228369"><ele>428.33333333333337</ele><time>2026-04-19T10:02:51.898Z</time></trkpt><trkpt lat="43.3978828" lon="12.4226899"><ele>430.0</ele><time>2026-04-19T10:02:52.899Z</time></trkpt><trkpt lat="43.3977006" lon="12.4225645"><ele>430.0</ele><time>2026-04-19T10:02:53.899Z</time></trkpt><trkpt lat="43.3974788" lon="12.4225064"><ele>430.0</ele><time>2026-04-19T10:02:54.897Z</time></trkpt><trkpt lat="43.3972549" lon="12.4224446"><ele>423.5</ele><time>2026-04-19T10:02:55.898Z</time></trkpt><trkpt lat="43.397023" lon="12.4223713"><ele>417.0</ele><time>2026-04-19T10:02:56.898Z</time></trkpt><trkpt lat="43.3967858" lon="12.4223003"><ele>417.0</ele><time>2026-04-19T10:02:57.897Z</time></trkpt><trkpt lat="43.3965476" lon="12.4222271"><ele>417.0</ele><time>2026-04-19T10:02:58.898Z</time></trkpt><trkpt lat="43.3963267" lon="12.4221609"><ele>418.0</ele><time>2026-04-19T10:02:59.898Z</time></trkpt><trkpt lat="43.3961047" lon="12.422102"><ele>419.0</ele><time>2026-04-19T10:03:00.899Z</time></trkpt><trkpt lat="43.3959049" lon="12.4220411"><ele>420.0</ele><time>2026-04-19T10:03:01.899Z</time></trkpt><trkpt lat="43.3957238" lon="12.4219841"><ele>420.0</ele><time>2026-04-19T10:03:02.899Z</time></trkpt><trkpt lat="43.3955642" lon="12.4219144"><ele>420.0</ele><time>2026-04-19T10:03:03.898Z</time></trkpt><trkpt lat="43.3954385" lon="12.421823"><ele>420.0</ele><time>2026-04-19T10:03:04.898Z</time></trkpt><trkpt lat="43.3953347" lon="12.4217015"><ele>420.0</ele><time>2026-04-19T10:03:05.899Z</time></trkpt><trkpt lat="43.3952602" lon="12.4215544"><ele>418.25</ele><time>2026-04-19T10:03:06.898Z</time></trkpt><trkpt lat="43.3952178" lon="12.4213776"><ele>416.5</ele><time>2026-04-19T10:03:07.898Z</time></trkpt><trkpt lat="43.39521" lon="12.4211756"><ele>414.75</ele><time>2026-04-19T10:03:08.898Z</time></trkpt><trkpt lat="43.3952138" lon="12.4209493"><ele>413.0</ele><time>2026-04-19T10:03:09.897Z</time></trkpt><trkpt lat="43.3952213" lon="12.4207048"><ele>413.0</ele><time>2026-04-19T10:03:10.899Z</time></trkpt><trkpt lat="43.395235" lon="12.420449"><ele>413.0</ele><time>2026-04-19T10:03:11.898Z</time></trkpt><trkpt lat="43.3952513" lon="12.4201904"><ele>413.0</ele><time>2026-04-19T10:03:12.899Z</time></trkpt><trkpt lat="43.3952644" lon="12.4199444"><ele>413.0</ele><time>2026-04-19T10:03:13.899Z</time></trkpt><trkpt lat="43.3952813" lon="12.4197084"><ele>413.0</ele><time>2026-04-19T10:03:14.899Z</time></trkpt><trkpt lat="43.3952936" lon="12.4194919"><ele>413.0</ele><time>2026-04-19T10:03:15.899Z</time></trkpt><trkpt lat="43.3952954" lon="12.4192958"><ele>413.75</ele><time>2026-04-19T10:03:16.898Z</time></trkpt><trkpt lat="43.3952743" lon="12.4191136"><ele>414.5</ele><time>2026-04-19T10:03:17.898Z</time></trkpt><trkpt lat="43.3952234" lon="12.4189571"><ele>415.25</ele><time>2026-04-19T10:03:18.898Z</time></trkpt><trkpt lat="43.3951406" lon="12.4188273"><ele>416.0</ele><time>2026-04-19T10:03:19.897Z</time></trkpt><trkpt lat="43.3950454" lon="12.4187408"><ele>417.0</ele><time>2026-04-19T10:03:20.897Z</time></trkpt><trkpt lat="43.3949303" lon="12.4186665"><ele>418.0</ele><time>2026-04-19T10:03:21.899Z</time></trkpt><trkpt lat="43.3947742" lon="12.4186329"><ele>419.0</ele><time>2026-04-19T10:03:22.898Z</time></trkpt><trkpt lat="43.3945976" lon="12.4186261"><ele>419.0</ele><time>2026-04-19T10:03:23.898Z</time></trkpt><trkpt lat="43.3944275" lon="12.4186086"><ele>419.0</ele><time>2026-04-19T10:03:24.899Z</time></trkpt><trkpt lat="43.3942372" lon="12.4186069"><ele>419.0</ele><time>2026-04-19T10:03:25.898Z</time></trkpt><trkpt lat="43.3940378" lon="12.4186054"><ele>419.0</ele><time>2026-04-19T10:03:26.899Z</time></trkpt><trkpt lat="43.3938668" lon="12.4185985"><ele>419.0</ele><time>2026-04-19T10:03:27.898Z</time></trkpt><trkpt lat="43.3936952" lon="12.4185971"><ele>419.0</ele><time>2026-04-19T10:03:28.897Z</time></trkpt><trkpt lat="43.3935381" lon="12.4185936"><ele>417.0</ele><time>2026-04-19T10:03:29.898Z</time></trkpt><trkpt lat="43.3933806" lon="12.4185922"><ele>415.0</ele><time>2026-04-19T10:03:30.898Z</time></trkpt><trkpt lat="43.3932308" lon="12.418586"><ele>413.0</ele><time>2026-04-19T10:03:31.898Z</time></trkpt><trkpt lat="43.3930889" lon="12.4185736"><ele>411.75</ele><time>2026-04-19T10:03:32.898Z</time></trkpt><trkpt lat="43.3929555" lon="12.4185458"><ele>410.5</ele><time>2026-04-19T10:03:33.898Z</time></trkpt><trkpt lat="43.3928166" lon="12.4184849"><ele>409.25</ele><time>2026-04-19T10:03:34.899Z</time></trkpt><trkpt lat="43.39267" lon="12.4184068"><ele>408.0</ele><time>2026-04-19T10:03:35.899Z</time></trkpt><trkpt lat="43.3925195" lon="12.4183071"><ele>408.0</ele><time>2026-04-19T10:03:36.898Z</time></trkpt><trkpt lat="43.3923642" lon="12.4181925"><ele>408.0</ele><time>2026-04-19T10:03:37.897Z</time></trkpt><trkpt lat="43.3921945" lon="12.4180764"><ele>408.0</ele><time>2026-04-19T10:03:38.898Z</time></trkpt><trkpt lat="43.3920406" lon="12.417955"><ele>407.33333333333337</ele><time>2026-04-19T10:03:39.898Z</time></trkpt><trkpt lat="43.3919035" lon="12.417825"><ele>406.6666666666667</ele><time>2026-04-19T10:03:40.899Z</time></trkpt><trkpt lat="43.3917882" lon="12.4176611"><ele>406.0</ele><time>2026-04-19T10:03:41.898Z</time></trkpt><trkpt lat="43.3916798" lon="12.4174733"><ele>406.0</ele><time>2026-04-19T10:03:42.898Z</time></trkpt><trkpt lat="43.3915632" lon="12.4172806"><ele>406.0</ele><time>2026-04-19T10:03:43.898Z</time></trkpt><trkpt lat="43.3914606" lon="12.417095"><ele>406.0</ele><time>2026-04-19T10:03:44.898Z</time></trkpt><trkpt lat="43.3913885" lon="12.4169198"><ele>404.75</ele><time>2026-04-19T10:03:45.899Z</time></trkpt><trkpt lat="43.3913273" lon="12.4167388"><ele>403.5</ele><time>2026-04-19T10:03:46.899Z</time></trkpt><trkpt lat="43.3912951" lon="12.4165545"><ele>402.25</ele><time>2026-04-19T10:03:47.898Z</time></trkpt><trkpt lat="43.3912904" lon="12.4163527"><ele>401.0</ele><time>2026-04-19T10:03:48.898Z</time></trkpt><trkpt lat="43.3913064" lon="12.4161327"><ele>401.0</ele><time>2026-04-19T10:03:49.899Z</time></trkpt><trkpt lat="43.3913299" lon="12.4158939"><ele>401.0</ele><time>2026-04-19T10:03:50.896Z</time></trkpt><trkpt lat="43.3913535" lon="12.4156578"><ele>401.0</ele><time>2026-04-19T10:03:51.898Z</time></trkpt><trkpt lat="43.3913752" lon="12.4154346"><ele>404.25</ele><time>2026-04-19T10:03:52.899Z</time></trkpt><trkpt lat="43.3913874" lon="12.415224"><ele>407.5</ele><time>2026-04-19T10:03:53.898Z</time></trkpt><trkpt lat="43.391371" lon="12.4150282"><ele>410.75</ele><time>2026-04-19T10:03:54.898Z</time></trkpt><trkpt lat="43.391359" lon="12.4148369"><ele>414.0</ele><time>2026-04-19T10:03:55.898Z</time></trkpt><trkpt lat="43.3912389" lon="12.4146347"><ele>414.0</ele><time>2026-04-19T10:03:56.899Z</time></trkpt><trkpt lat="43.3911432" lon="12.4144216"><ele>414.0</ele><time>2026-04-19T10:03:57.899Z</time></trkpt><trkpt lat="43.3910426" lon="12.4142243"><ele>414.0</ele><time>2026-04-19T10:03:58.898Z</time></trkpt><trkpt lat="43.3909217" lon="12.4140282"><ele>414.0</ele><time>2026-04-19T10:03:59.898Z</time></trkpt><trkpt lat="43.3907872" lon="12.4138555"><ele>414.0</ele><time>2026-04-19T10:04:00.897Z</time></trkpt><trkpt lat="43.3906494" lon="12.4137117"><ele>414.0</ele><time>2026-04-19T10:04:01.898Z</time></trkpt><trkpt lat="43.3905198" lon="12.4135825"><ele>411.0</ele><time>2026-04-19T10:04:02.897Z</time></trkpt><trkpt lat="43.3903979" lon="12.4134599"><ele>408.0</ele><time>2026-04-19T10:04:03.898Z</time></trkpt><trkpt lat="43.3902847" lon="12.413332"><ele>405.0</ele><time>2026-04-19T10:04:04.898Z</time></trkpt><trkpt lat="43.3901896" lon="12.4131912"><ele>402.0</ele><time>2026-04-19T10:04:05.899Z</time></trkpt><trkpt lat="43.3901162" lon="12.4130383"><ele>402.5</ele><time>2026-04-19T10:04:06.897Z</time></trkpt><trkpt lat="43.3900692" lon="12.4128652"><ele>403.0</ele><time>2026-04-19T10:04:07.897Z</time></trkpt><trkpt lat="43.3900477" lon="12.4126869"><ele>403.5</ele><time>2026-04-19T10:04:08.899Z</time></trkpt><trkpt lat="43.3900584" lon="12.4124928"><ele>404.0</ele><time>2026-04-19T10:04:09.898Z</time></trkpt><trkpt lat="43.3900798" lon="12.4122748"><ele>402.66666666666663</ele><time>2026-04-19T10:04:10.898Z</time></trkpt><trkpt lat="43.3901121" lon="12.4120292"><ele>401.33333333333337</ele><time>2026-04-19T10:04:11.899Z</time></trkpt><trkpt lat="43.3901526" lon="12.4117755"><ele>400.0</ele><time>2026-04-19T10:04:12.899Z</time></trkpt><trkpt lat="43.3901922" lon="12.411517"><ele>398.0</ele><time>2026-04-19T10:04:13.897Z</time></trkpt><trkpt lat="43.3902377" lon="12.4112337"><ele>396.0</ele><time>2026-04-19T10:04:14.898Z</time></trkpt><trkpt lat="43.390284" lon="12.4109463"><ele>394.0</ele><time>2026-04-19T10:04:15.898Z</time></trkpt><trkpt lat="43.3903229" lon="12.4106571"><ele>393.6666666666667</ele><time>2026-04-19T10:04:16.899Z</time></trkpt><trkpt lat="43.3903468" lon="12.4103609"><ele>393.33333333333337</ele><time>2026-04-19T10:04:17.899Z</time></trkpt><trkpt lat="43.3903634" lon="12.410065"><ele>393.0</ele><time>2026-04-19T10:04:18.897Z</time></trkpt><trkpt lat="43.390371" lon="12.4097613"><ele>393.33333333333337</ele><time>2026-04-19T10:04:19.899Z</time></trkpt><trkpt lat="43.3903898" lon="12.409458"><ele>393.6666666666667</ele><time>2026-04-19T10:04:20.899Z</time></trkpt><trkpt lat="43.3904086" lon="12.4091646"><ele>394.0</ele><time>2026-04-19T10:04:21.898Z</time></trkpt><trkpt lat="43.3904252" lon="12.4088824"><ele>393.33333333333337</ele><time>2026-04-19T10:04:22.898Z</time></trkpt><trkpt lat="43.3904424" lon="12.4086132"><ele>392.66666666666663</ele><time>2026-04-19T10:04:23.899Z</time></trkpt><trkpt lat="43.3904664" lon="12.408357"><ele>392.0</ele><time>2026-04-19T10:04:24.898Z</time></trkpt><trkpt lat="43.3904986" lon="12.4081147"><ele>395.3333333333333</ele><time>2026-04-19T10:04:25.898Z</time></trkpt><trkpt lat="43.3905285" lon="12.4078756"><ele>398.66666666666663</ele><time>2026-04-19T10:04:26.899Z</time></trkpt><trkpt lat="43.3905399" lon="12.4076605"><ele>402.0</ele><time>2026-04-19T10:04:27.898Z</time></trkpt><trkpt lat="43.3905182" lon="12.4074696"><ele>398.0</ele><time>2026-04-19T10:04:28.899Z</time></trkpt><trkpt lat="43.3904771" lon="12.4072568"><ele>394.0</ele><time>2026-04-19T10:04:29.897Z</time></trkpt><trkpt lat="43.3904248" lon="12.4070301"><ele>390.0</ele><time>2026-04-19T10:04:30.899Z</time></trkpt><trkpt lat="43.390383" lon="12.4068036"><ele>390.0</ele><time>2026-04-19T10:04:31.898Z</time></trkpt><trkpt lat="43.3903501" lon="12.4065585"><ele>390.0</ele><time>2026-04-19T10:04:32.899Z</time></trkpt><trkpt lat="43.3903423" lon="12.4063169"><ele>390.0</ele><time>2026-04-19T10:04:33.898Z</time></trkpt><trkpt lat="43.3903494" lon="12.4060882"><ele>390.33333333333337</ele><time>2026-04-19T10:04:34.897Z</time></trkpt><trkpt lat="43.3903571" lon="12.4058636"><ele>390.6666666666667</ele><time>2026-04-19T10:04:35.897Z</time></trkpt><trkpt lat="43.390349" lon="12.4056535"><ele>391.0</ele><time>2026-04-19T10:04:36.899Z</time></trkpt><trkpt lat="43.3903186" lon="12.4054621"><ele>391.33333333333337</ele><time>2026-04-19T10:04:37.899Z</time></trkpt><trkpt lat="43.3902963" lon="12.4052637"><ele>391.66666666666663</ele><time>2026-04-19T10:04:38.898Z</time></trkpt><trkpt lat="43.3901941" lon="12.4050317"><ele>392.0</ele><time>2026-04-19T10:04:39.897Z</time></trkpt><trkpt lat="43.3900825" lon="12.4048443"><ele>392.25</ele><time>2026-04-19T10:04:40.897Z</time></trkpt><trkpt lat="43.3900055" lon="12.4046538"><ele>392.5</ele><time>2026-04-19T10:04:41.897Z</time></trkpt><trkpt lat="43.3899518" lon="12.4044983"><ele>392.75</ele><time>2026-04-19T10:04:42.898Z</time></trkpt><trkpt lat="43.3899214" lon="12.4043363"><ele>393.0</ele><time>2026-04-19T10:04:43.899Z</time></trkpt><trkpt lat="43.3899267" lon="12.4041748"><ele>393.0</ele><time>2026-04-19T10:04:44.898Z</time></trkpt><trkpt lat="43.3899586" lon="12.403999"><ele>393.0</ele><time>2026-04-19T10:04:45.897Z</time></trkpt><trkpt lat="43.3900253" lon="12.4038197"><ele>393.0</ele><time>2026-04-19T10:04:46.897Z</time></trkpt><trkpt lat="43.3901137" lon="12.403622"><ele>393.0</ele><time>2026-04-19T10:04:47.899Z</time></trkpt><trkpt lat="43.3902048" lon="12.4034244"><ele>393.0</ele><time>2026-04-19T10:04:48.898Z</time></trkpt><trkpt lat="43.3903076" lon="12.4032134"><ele>393.0</ele><time>2026-04-19T10:04:49.898Z</time></trkpt><trkpt lat="43.3903986" lon="12.4030181"><ele>393.0</ele><time>2026-04-19T10:04:50.898Z</time></trkpt><trkpt lat="43.3904875" lon="12.4028385"><ele>397.0</ele><time>2026-04-19T10:04:51.899Z</time></trkpt><trkpt lat="43.3905678" lon="12.4026732"><ele>401.0</ele><time>2026-04-19T10:04:52.899Z</time></trkpt><trkpt lat="43.3906197" lon="12.4025053"><ele>405.0</ele><time>2026-04-19T10:04:53.899Z</time></trkpt><trkpt lat="43.3906407" lon="12.4023196"><ele>409.0</ele><time>2026-04-19T10:04:54.899Z</time></trkpt><trkpt lat="43.3906373" lon="12.4021146"><ele>409.0</ele><time>2026-04-19T10:04:55.899Z</time></trkpt><trkpt lat="43.3906066" lon="12.4018843"><ele>409.0</ele><time>2026-04-19T10:04:56.898Z</time></trkpt><trkpt lat="43.3905819" lon="12.4016429"><ele>409.0</ele><time>2026-04-19T10:04:57.897Z</time></trkpt><trkpt lat="43.3905509" lon="12.4013833"><ele>407.33333333333337</ele><time>2026-04-19T10:04:58.899Z</time></trkpt><trkpt lat="43.390513" lon="12.4011098"><ele>405.66666666666663</ele><time>2026-04-19T10:04:59.899Z</time></trkpt><trkpt lat="43.3904771" lon="12.4008389"><ele>404.0</ele><time>2026-04-19T10:05:00.898Z</time></trkpt><trkpt lat="43.3904426" lon="12.4005923"><ele>398.3333333333333</ele><time>2026-04-19T10:05:01.898Z</time></trkpt><trkpt lat="43.3904089" lon="12.4003453"><ele>392.66666666666663</ele><time>2026-04-19T10:05:02.898Z</time></trkpt><trkpt lat="43.3903864" lon="12.4001288"><ele>387.0</ele><time>2026-04-19T10:05:03.898Z</time></trkpt><trkpt lat="43.3903829" lon="12.3999257"><ele>387.0</ele><time>2026-04-19T10:05:04.897Z</time></trkpt><trkpt lat="43.3903998" lon="12.3997353"><ele>387.0</ele><time>2026-04-19T10:05:05.898Z</time></trkpt><trkpt lat="43.3904456" lon="12.3995501"><ele>387.0</ele><time>2026-04-19T10:05:06.897Z</time></trkpt><trkpt lat="43.3905159" lon="12.3993534"><ele>387.0</ele><time>2026-04-19T10:05:07.898Z</time></trkpt><trkpt lat="43.3906021" lon="12.3991572"><ele>388.33333333333337</ele><time>2026-04-19T10:05:08.898Z</time></trkpt><trkpt lat="43.3906884" lon="12.3989609"><ele>389.6666666666667</ele><time>2026-04-19T10:05:09.898Z</time></trkpt><trkpt lat="43.3907636" lon="12.398781"><ele>391.0</ele><time>2026-04-19T10:05:10.899Z</time></trkpt><trkpt lat="43.390843" lon="12.3986086"><ele>391.0</ele><time>2026-04-19T10:05:11.898Z</time></trkpt><trkpt lat="43.3909136" lon="12.3984482"><ele>391.0</ele><time>2026-04-19T10:05:12.898Z</time></trkpt><trkpt lat="43.3909651" lon="12.3982788"><ele>391.0</ele><time>2026-04-19T10:05:13.897Z</time></trkpt><trkpt lat="43.3909817" lon="12.3980912"><ele>391.0</ele><time>2026-04-19T10:05:14.898Z</time></trkpt><trkpt lat="43.3910027" lon="12.3979165"><ele>391.33333333333337</ele><time>2026-04-19T10:05:15.898Z</time></trkpt><trkpt lat="43.3909238" lon="12.3976659"><ele>391.66666666666663</ele><time>2026-04-19T10:05:16.898Z</time></trkpt><trkpt lat="43.3908849" lon="12.3974522"><ele>392.0</ele><time>2026-04-19T10:05:17.899Z</time></trkpt><trkpt lat="43.3908433" lon="12.3972522"><ele>394.0</ele><time>2026-04-19T10:05:18.898Z</time></trkpt><trkpt lat="43.3908027" lon="12.3970724"><ele>396.0</ele><time>2026-04-19T10:05:19.898Z</time></trkpt><trkpt lat="43.3907478" lon="12.3969186"><ele>398.0</ele><time>2026-04-19T10:05:20.898Z</time></trkpt><trkpt lat="43.3906677" lon="12.3967977"><ele>400.0</ele><time>2026-04-19T10:05:21.898Z</time></trkpt><trkpt lat="43.3905586" lon="12.3966959"><ele>396.33333333333337</ele><time>2026-04-19T10:05:22.897Z</time></trkpt><trkpt lat="43.3904286" lon="12.3966225"><ele>392.66666666666663</ele><time>2026-04-19T10:05:23.898Z</time></trkpt><trkpt lat="43.3902813" lon="12.396552"><ele>389.0</ele><time>2026-04-19T10:05:24.898Z</time></trkpt><trkpt lat="43.3901322" lon="12.3964671"><ele>389.0</ele><time>2026-04-19T10:05:25.899Z</time></trkpt><trkpt lat="43.389973" lon="12.3963498"><ele>389.0</ele><time>2026-04-19T10:05:26.898Z</time></trkpt><trkpt lat="43.3898256" lon="12.3962234"><ele>389.0</ele><time>2026-04-19T10:05:27.897Z</time></trkpt><trkpt lat="43.3896942" lon="12.3960628"><ele>390.3333333333333</ele><time>2026-04-19T10:05:28.897Z</time></trkpt><trkpt lat="43.3895733" lon="12.3958751"><ele>391.66666666666663</ele><time>2026-04-19T10:05:29.899Z</time></trkpt><trkpt lat="43.3894421" lon="12.3956885"><ele>393.0</ele><time>2026-04-19T10:05:30.897Z</time></trkpt><trkpt lat="43.38931" lon="12.395505"><ele>400.66666666666663</ele><time>2026-04-19T10:05:31.899Z</time></trkpt><trkpt lat="43.3891823" lon="12.3953455"><ele>408.3333333333333</ele><time>2026-04-19T10:05:32.898Z</time></trkpt><trkpt lat="43.3890627" lon="12.3952057"><ele>416.0</ele><time>2026-04-19T10:05:33.899Z</time></trkpt><trkpt lat="43.3889509" lon="12.395057"><ele>416.0</ele><time>2026-04-19T10:05:34.898Z</time></trkpt><trkpt lat="43.3888543" lon="12.394908"><ele>416.0</ele><time>2026-04-19T10:05:35.898Z</time></trkpt><trkpt lat="43.3887649" lon="12.3947242"><ele>416.0</ele><time>2026-04-19T10:05:36.897Z</time></trkpt><trkpt lat="43.3886814" lon="12.3945338"><ele>412.0</ele><time>2026-04-19T10:05:37.898Z</time></trkpt><trkpt lat="43.3886342" lon="12.3943392"><ele>408.0</ele><time>2026-04-19T10:05:38.898Z</time></trkpt><trkpt lat="43.3886056" lon="12.3941693"><ele>404.0</ele><time>2026-04-19T10:05:39.899Z</time></trkpt><trkpt lat="43.3886135" lon="12.3939936"><ele>400.0</ele><time>2026-04-19T10:05:40.898Z</time></trkpt><trkpt lat="43.3886473" lon="12.3938037"><ele>400.0</ele><time>2026-04-19T10:05:41.899Z</time></trkpt><trkpt lat="43.3886955" lon="12.3936246"><ele>400.0</ele><time>2026-04-19T10:05:42.898Z</time></trkpt><trkpt lat="43.3887395" lon="12.3934564"><ele>400.0</ele><time>2026-04-19T10:05:43.898Z</time></trkpt><trkpt lat="43.3887776" lon="12.3932964"><ele>400.0</ele><time>2026-04-19T10:05:44.898Z</time></trkpt><trkpt lat="43.3887991" lon="12.3931456"><ele>400.0</ele><time>2026-04-19T10:05:45.897Z</time></trkpt><trkpt lat="43.388777" lon="12.393013"><ele>400.0</ele><time>2026-04-19T10:05:46.897Z</time></trkpt><trkpt lat="43.3887318" lon="12.3929069"><ele>400.0</ele><time>2026-04-19T10:05:47.897Z</time></trkpt><trkpt lat="43.3886594" lon="12.3928322"><ele>400.0</ele><time>2026-04-19T10:05:48.896Z</time></trkpt><trkpt lat="43.3885644" lon="12.3927979"><ele>400.0</ele><time>2026-04-19T10:05:49.897Z</time></trkpt><trkpt lat="43.388449" lon="12.3928048"><ele>404.75</ele><time>2026-04-19T10:05:50.897Z</time></trkpt><trkpt lat="43.388317" lon="12.3928232"><ele>409.5</ele><time>2026-04-19T10:05:51.898Z</time></trkpt><trkpt lat="43.3881731" lon="12.3928421"><ele>414.25</ele><time>2026-04-19T10:05:52.897Z</time></trkpt><trkpt lat="43.3880395" lon="12.3928653"><ele>419.0</ele><time>2026-04-19T10:05:53.897Z</time></trkpt><trkpt lat="43.3879061" lon="12.3929268"><ele>420.0</ele><time>2026-04-19T10:05:54.898Z</time></trkpt><trkpt lat="43.3877529" lon="12.3930006"><ele>421.0</ele><time>2026-04-19T10:05:55.898Z</time></trkpt><trkpt lat="43.3876054" lon="12.3930794"><ele>422.0</ele><time>2026-04-19T10:05:56.897Z</time></trkpt><trkpt lat="43.3874579" lon="12.3931301"><ele>414.66666666666663</ele><time>2026-04-19T10:05:57.898Z</time></trkpt><trkpt lat="43.3873101" lon="12.3931617"><ele>407.33333333333337</ele><time>2026-04-19T10:05:58.896Z</time></trkpt><trkpt lat="43.3871551" lon="12.3931733"><ele>400.0</ele><time>2026-04-19T10:05:59.897Z</time></trkpt><trkpt lat="43.3870051" lon="12.393177"><ele>398.25</ele><time>2026-04-19T10:06:00.897Z</time></trkpt><trkpt lat="43.3868555" lon="12.3931596"><ele>396.5</ele><time>2026-04-19T10:06:01.897Z</time></trkpt><trkpt lat="43.386725" lon="12.3931144"><ele>394.75</ele><time>2026-04-19T10:06:02.897Z</time></trkpt><trkpt lat="43.3866087" lon="12.3930329"><ele>393.0</ele><time>2026-04-19T10:06:03.897Z</time></trkpt><trkpt lat="43.386515" lon="12.3929399"><ele>397.0</ele><time>2026-04-19T10:06:04.897Z</time></trkpt><trkpt lat="43.3864545" lon="12.3928096"><ele>401.0</ele><time>2026-04-19T10:06:05.897Z</time></trkpt><trkpt lat="43.3864131" lon="12.3926438"><ele>405.0</ele><time>2026-04-19T10:06:06.898Z</time></trkpt><trkpt lat="43.3863841" lon="12.3924494"><ele>409.0</ele><time>2026-04-19T10:06:07.897Z</time></trkpt><trkpt lat="43.386364" lon="12.3922345"><ele>399.0</ele><time>2026-04-19T10:06:08.896Z</time></trkpt><trkpt lat="43.3863176" lon="12.3920075"><ele>389.0</ele><time>2026-04-19T10:06:09.897Z</time></trkpt><trkpt lat="43.386258" lon="12.3917839"><ele>379.0</ele><time>2026-04-19T10:06:10.898Z</time></trkpt><trkpt lat="43.3861784" lon="12.3915794"><ele>379.0</ele><time>2026-04-19T10:06:11.897Z</time></trkpt><trkpt lat="43.3860859" lon="12.391388"><ele>379.0</ele><time>2026-04-19T10:06:12.898Z</time></trkpt><trkpt lat="43.3859962" lon="12.3912109"><ele>379.0</ele><time>2026-04-19T10:06:13.898Z</time></trkpt><trkpt lat="43.385891" lon="12.3910565"><ele>377.0</ele><time>2026-04-19T10:06:14.897Z</time></trkpt><trkpt lat="43.3857581" lon="12.3909212"><ele>375.0</ele><time>2026-04-19T10:06:15.898Z</time></trkpt><trkpt lat="43.385596" lon="12.390801"><ele>373.0</ele><time>2026-04-19T10:06:16.898Z</time></trkpt><trkpt lat="43.3854314" lon="12.3906928"><ele>373.0</ele><time>2026-04-19T10:06:17.898Z</time></trkpt><trkpt lat="43.385269" lon="12.3905906"><ele>373.0</ele><time>2026-04-19T10:06:18.898Z</time></trkpt><trkpt lat="43.3851156" lon="12.3904937"><ele>373.0</ele><time>2026-04-19T10:06:19.898Z</time></trkpt><trkpt lat="43.3849823" lon="12.390406"><ele>371.75</ele><time>2026-04-19T10:06:20.897Z</time></trkpt><trkpt lat="43.3848711" lon="12.3903305"><ele>370.5</ele><time>2026-04-19T10:06:21.897Z</time></trkpt><trkpt lat="43.3847654" lon="12.3902529"><ele>369.25</ele><time>2026-04-19T10:06:22.896Z</time></trkpt><trkpt lat="43.3846954" lon="12.3901403"><ele>368.0</ele><time>2026-04-19T10:06:23.898Z</time></trkpt><trkpt lat="43.3846443" lon="12.3900034"><ele>368.0</ele><time>2026-04-19T10:06:24.897Z</time></trkpt><trkpt lat="43.3846191" lon="12.3898319"><ele>368.0</ele><time>2026-04-19T10:06:25.897Z</time></trkpt><trkpt lat="43.3846181" lon="12.3896377"><ele>368.0</ele><time>2026-04-19T10:06:26.897Z</time></trkpt><trkpt lat="43.3846279" lon="12.38946"><ele>368.0</ele><time>2026-04-19T10:06:27.897Z</time></trkpt><trkpt lat="43.3846321" lon="12.3892938"><ele>370.0</ele><time>2026-04-19T10:06:28.898Z</time></trkpt><trkpt lat="43.3846962" lon="12.3891811"><ele>372.0</ele><time>2026-04-19T10:06:29.896Z</time></trkpt><trkpt lat="43.384759" lon="12.3890832"><ele>374.0</ele><time>2026-04-19T10:06:30.898Z</time></trkpt><trkpt lat="43.3848406" lon="12.3890174"><ele>376.0</ele><time>2026-04-19T10:06:31.898Z</time></trkpt><trkpt lat="43.3849224" lon="12.3889441"><ele>378.0</ele><time>2026-04-19T10:06:32.898Z</time></trkpt><trkpt lat="43.3849797" lon="12.3888321"><ele>378.0</ele><time>2026-04-19T10:06:33.898Z</time></trkpt><trkpt lat="43.3850078" lon="12.3887101"><ele>378.0</ele><time>2026-04-19T10:06:34.898Z</time></trkpt><trkpt lat="43.3850225" lon="12.3885616"><ele>378.0</ele><time>2026-04-19T10:06:35.897Z</time></trkpt><trkpt lat="43.3849976" lon="12.3883907"><ele>378.0</ele><time>2026-04-19T10:06:36.897Z</time></trkpt><trkpt lat="43.3849536" lon="12.3881942"><ele>380.0</ele><time>2026-04-19T10:06:37.897Z</time></trkpt><trkpt lat="43.3848951" lon="12.3879954"><ele>382.0</ele><time>2026-04-19T10:06:38.897Z</time></trkpt><trkpt lat="43.3848374" lon="12.3877822"><ele>384.0</ele><time>2026-04-19T10:06:39.897Z</time></trkpt><trkpt lat="43.3847736" lon="12.3875408"><ele>384.0</ele><time>2026-04-19T10:06:40.897Z</time></trkpt><trkpt lat="43.3847087" lon="12.3872817"><ele>384.0</ele><time>2026-04-19T10:06:41.898Z</time></trkpt><trkpt lat="43.3846429" lon="12.3870346"><ele>384.0</ele><time>2026-04-19T10:06:42.898Z</time></trkpt><trkpt lat="43.3845689" lon="12.386777"><ele>382.3333333333333</ele><time>2026-04-19T10:06:43.896Z</time></trkpt><trkpt lat="43.3844909" lon="12.3865377"><ele>380.66666666666663</ele><time>2026-04-19T10:06:44.896Z</time></trkpt><trkpt lat="43.3844053" lon="12.3863153"><ele>379.0</ele><time>2026-04-19T10:06:45.897Z</time></trkpt><trkpt lat="43.3843192" lon="12.3861061"><ele>379.0</ele><time>2026-04-19T10:06:46.896Z</time></trkpt><trkpt lat="43.384247" lon="12.3859216"><ele>379.0</ele><time>2026-04-19T10:06:47.896Z</time></trkpt><trkpt lat="43.3841855" lon="12.385749"><ele>379.0</ele><time>2026-04-19T10:06:48.896Z</time></trkpt><trkpt lat="43.3841216" lon="12.3855931"><ele>379.0</ele><time>2026-04-19T10:06:49.897Z</time></trkpt><trkpt lat="43.3840357" lon="12.3854292"><ele>377.3333333333333</ele><time>2026-04-19T10:06:50.895Z</time></trkpt><trkpt lat="43.3839204" lon="12.3852745"><ele>375.6666666666667</ele><time>2026-04-19T10:06:51.895Z</time></trkpt><trkpt lat="43.3837807" lon="12.3851156"><ele>374.0</ele><time>2026-04-19T10:06:52.896Z</time></trkpt><trkpt lat="43.3836311" lon="12.384954"><ele>374.0</ele><time>2026-04-19T10:06:53.896Z</time></trkpt><trkpt lat="43.3834815" lon="12.3847838"><ele>374.0</ele><time>2026-04-19T10:06:54.897Z</time></trkpt><trkpt lat="43.3833331" lon="12.3845916"><ele>374.0</ele><time>2026-04-19T10:06:55.897Z</time></trkpt><trkpt lat="43.3831749" lon="12.3844008"><ele>376.6666666666667</ele><time>2026-04-19T10:06:56.897Z</time></trkpt><trkpt lat="43.3830228" lon="12.3842263"><ele>379.3333333333333</ele><time>2026-04-19T10:06:57.896Z</time></trkpt><trkpt lat="43.3828702" lon="12.3840432"><ele>382.0</ele><time>2026-04-19T10:06:58.896Z</time></trkpt><trkpt lat="43.3827303" lon="12.3838679"><ele>377.66666666666663</ele><time>2026-04-19T10:06:59.897Z</time></trkpt><trkpt lat="43.3826141" lon="12.3836937"><ele>373.3333333333333</ele><time>2026-04-19T10:07:00.897Z</time></trkpt><trkpt lat="43.3825153" lon="12.3835076"><ele>369.0</ele><time>2026-04-19T10:07:01.897Z</time></trkpt><trkpt lat="43.3824228" lon="12.3832859"><ele>369.0</ele><time>2026-04-19T10:07:02.897Z</time></trkpt><trkpt lat="43.382336" lon="12.3830639"><ele>369.0</ele><time>2026-04-19T10:07:03.897Z</time></trkpt><trkpt lat="43.3822565" lon="12.3828521"><ele>369.0</ele><time>2026-04-19T10:07:04.897Z</time></trkpt><trkpt lat="43.3821795" lon="12.3826305"><ele>367.3333333333333</ele><time>2026-04-19T10:07:05.897Z</time></trkpt><trkpt lat="43.3821116" lon="12.3823842"><ele>365.66666666666663</ele><time>2026-04-19T10:07:06.896Z</time></trkpt><trkpt lat="43.3820528" lon="12.3821209"><ele>364.0</ele><time>2026-04-19T10:07:07.896Z</time></trkpt><trkpt lat="43.3819974" lon="12.3818444"><ele>364.0</ele><time>2026-04-19T10:07:08.896Z</time></trkpt><trkpt lat="43.381927" lon="12.3815682"><ele>364.0</ele><time>2026-04-19T10:07:09.895Z</time></trkpt><trkpt lat="43.381859" lon="12.3813161"><ele>364.0</ele><time>2026-04-19T10:07:10.896Z</time></trkpt><trkpt lat="43.3817822" lon="12.3810785"><ele>365.3333333333333</ele><time>2026-04-19T10:07:11.896Z</time></trkpt><trkpt lat="43.3816852" lon="12.3808742"><ele>366.6666666666667</ele><time>2026-04-19T10:07:12.895Z</time></trkpt><trkpt lat="43.3815641" lon="12.3806896"><ele>368.0</ele><time>2026-04-19T10:07:13.897Z</time></trkpt><trkpt lat="43.3814435" lon="12.3805194"><ele>365.6666666666667</ele><time>2026-04-19T10:07:14.896Z</time></trkpt><trkpt lat="43.3813484" lon="12.3803505"><ele>363.3333333333333</ele><time>2026-04-19T10:07:15.896Z</time></trkpt><trkpt lat="43.3812777" lon="12.3801679"><ele>361.0</ele><time>2026-04-19T10:07:16.897Z</time></trkpt><trkpt lat="43.3812289" lon="12.3799602"><ele>361.0</ele><time>2026-04-19T10:07:17.896Z</time></trkpt><trkpt lat="43.3811868" lon="12.3797336"><ele>361.0</ele><time>2026-04-19T10:07:18.897Z</time></trkpt><trkpt lat="43.3811445" lon="12.379481"><ele>361.0</ele><time>2026-04-19T10:07:19.896Z</time></trkpt><trkpt lat="43.3810837" lon="12.3792156"><ele>363.0</ele><time>2026-04-19T10:07:20.897Z</time></trkpt><trkpt lat="43.381021" lon="12.3789444"><ele>365.0</ele><time>2026-04-19T10:07:21.895Z</time></trkpt><trkpt lat="43.3809519" lon="12.3786747"><ele>367.0</ele><time>2026-04-19T10:07:22.897Z</time></trkpt><trkpt lat="43.3808831" lon="12.3784042"><ele>367.66666666666663</ele><time>2026-04-19T10:07:23.897Z</time></trkpt><trkpt lat="43.3808153" lon="12.3781385"><ele>368.3333333333333</ele><time>2026-04-19T10:07:24.895Z</time></trkpt><trkpt lat="43.3807494" lon="12.3778928"><ele>369.0</ele><time>2026-04-19T10:07:25.897Z</time></trkpt><trkpt lat="43.3806801" lon="12.377664"><ele>366.6666666666667</ele><time>2026-04-19T10:07:26.895Z</time></trkpt><trkpt lat="43.3806116" lon="12.3774499"><ele>364.33333333333337</ele><time>2026-04-19T10:07:27.897Z</time></trkpt><trkpt lat="43.3805513" lon="12.3772468"><ele>362.0</ele><time>2026-04-19T10:07:28.895Z</time></trkpt><trkpt lat="43.3805056" lon="12.3770456"><ele>362.0</ele><time>2026-04-19T10:07:29.897Z</time></trkpt><trkpt lat="43.3804775" lon="12.3768224"><ele>362.0</ele><time>2026-04-19T10:07:30.896Z</time></trkpt><trkpt lat="43.3804561" lon="12.3766147"><ele>362.0</ele><time>2026-04-19T10:07:31.897Z</time></trkpt><trkpt lat="43.3804251" lon="12.3764171"><ele>365.0</ele><time>2026-04-19T10:07:32.897Z</time></trkpt><trkpt lat="43.3803857" lon="12.3762156"><ele>368.0</ele><time>2026-04-19T10:07:33.896Z</time></trkpt><trkpt lat="43.3802711" lon="12.3759936"><ele>371.0</ele><time>2026-04-19T10:07:34.896Z</time></trkpt><trkpt lat="43.3801963" lon="12.3757944"><ele>371.0</ele><time>2026-04-19T10:07:35.895Z</time></trkpt><trkpt lat="43.3801025" lon="12.3756238"><ele>371.0</ele><time>2026-04-19T10:07:36.897Z</time></trkpt><trkpt lat="43.3800171" lon="12.3754521"><ele>371.0</ele><time>2026-04-19T10:07:37.897Z</time></trkpt><trkpt lat="43.3799145" lon="12.3752986"><ele>373.0</ele><time>2026-04-19T10:07:38.896Z</time></trkpt><trkpt lat="43.3798068" lon="12.3751517"><ele>375.0</ele><time>2026-04-19T10:07:39.895Z</time></trkpt><trkpt lat="43.3796694" lon="12.3750121"><ele>377.0</ele><time>2026-04-19T10:07:40.896Z</time></trkpt><trkpt lat="43.3795296" lon="12.3749099"><ele>373.75</ele><time>2026-04-19T10:07:41.895Z</time></trkpt><trkpt lat="43.3793936" lon="12.3748242"><ele>370.5</ele><time>2026-04-19T10:07:42.896Z</time></trkpt><trkpt lat="43.3792835" lon="12.3747482"><ele>367.25</ele><time>2026-04-19T10:07:43.897Z</time></trkpt><trkpt lat="43.3791936" lon="12.3746839"><ele>364.0</ele><time>2026-04-19T10:07:44.896Z</time></trkpt><trkpt lat="43.3791274" lon="12.3746162"><ele>364.0</ele><time>2026-04-19T10:07:45.895Z</time></trkpt><trkpt lat="43.3790945" lon="12.3745294"><ele>364.0</ele><time>2026-04-19T10:07:46.897Z</time></trkpt><trkpt lat="43.3791437" lon="12.3744173"><ele>364.0</ele><time>2026-04-19T10:07:48.897Z</time></trkpt><trkpt lat="43.3792157" lon="12.3743798"><ele>364.0</ele><time>2026-04-19T10:07:49.895Z</time></trkpt><trkpt lat="43.379322" lon="12.3743314"><ele>364.0</ele><time>2026-04-19T10:07:50.896Z</time></trkpt><trkpt lat="43.3794393" lon="12.3742676"><ele>364.0</ele><time>2026-04-19T10:07:51.897Z</time></trkpt><trkpt lat="43.379547" lon="12.3742039"><ele>364.0</ele><time>2026-04-19T10:07:52.895Z</time></trkpt><trkpt lat="43.3796394" lon="12.3741305"><ele>364.0</ele><time>2026-04-19T10:07:53.897Z</time></trkpt><trkpt lat="43.3796939" lon="12.3740362"><ele>364.0</ele><time>2026-04-19T10:07:54.895Z</time></trkpt><trkpt lat="43.379721" lon="12.3739309"><ele>364.0</ele><time>2026-04-19T10:07:55.895Z</time></trkpt><trkpt lat="43.3797087" lon="12.3738327"><ele>367.25</ele><time>2026-04-19T10:07:56.897Z</time></trkpt><trkpt lat="43.3796113" lon="12.3736955"><ele>370.5</ele><time>2026-04-19T10:07:58.896Z</time></trkpt><trkpt lat="43.379471" lon="12.3737163"><ele>373.75</ele><time>2026-04-19T10:07:59.896Z</time></trkpt><trkpt lat="43.3793619" lon="12.3737072"><ele>377.0</ele><time>2026-04-19T10:08:00.897Z</time></trkpt><trkpt lat="43.3792357" lon="12.3737038"><ele>377.0</ele><time>2026-04-19T10:08:01.897Z</time></trkpt><trkpt lat="43.3790953" lon="12.3736535"><ele>377.0</ele><time>2026-04-19T10:08:02.897Z</time></trkpt><trkpt lat="43.3789527" lon="12.3735553"><ele>377.0</ele><time>2026-04-19T10:08:03.895Z</time></trkpt><trkpt lat="43.3788094" lon="12.3734405"><ele>369.6666666666667</ele><time>2026-04-19T10:08:04.896Z</time></trkpt><trkpt lat="43.3786537" lon="12.3733034"><ele>362.3333333333333</ele><time>2026-04-19T10:08:05.897Z</time></trkpt><trkpt lat="43.3785126" lon="12.3731774"><ele>355.0</ele><time>2026-04-19T10:08:06.897Z</time></trkpt><trkpt lat="43.378378" lon="12.3730633"><ele>357.0</ele><time>2026-04-19T10:08:07.897Z</time></trkpt><trkpt lat="43.3782596" lon="12.37295"><ele>359.0</ele><time>2026-04-19T10:08:08.895Z</time></trkpt><trkpt lat="43.3781683" lon="12.3728297"><ele>361.0</ele><time>2026-04-19T10:08:09.896Z</time></trkpt><trkpt lat="43.3781095" lon="12.3726929"><ele>363.0</ele><time>2026-04-19T10:08:10.896Z</time></trkpt><trkpt lat="43.378093" lon="12.3725513"><ele>363.0</ele><time>2026-04-19T10:08:11.896Z</time></trkpt><trkpt lat="43.3781085" lon="12.3723976"><ele>363.0</ele><time>2026-04-19T10:08:12.896Z</time></trkpt><trkpt lat="43.3781388" lon="12.3722189"><ele>363.0</ele><time>2026-04-19T10:08:13.897Z</time></trkpt><trkpt lat="43.3781808" lon="12.3720161"><ele>363.0</ele><time>2026-04-19T10:08:14.896Z</time></trkpt><trkpt lat="43.3782289" lon="12.371779"><ele>362.3333333333333</ele><time>2026-04-19T10:08:15.896Z</time></trkpt><trkpt lat="43.3782817" lon="12.3715271"><ele>361.66666666666663</ele><time>2026-04-19T10:08:16.896Z</time></trkpt><trkpt lat="43.3783357" lon="12.3712739"><ele>361.0</ele><time>2026-04-19T10:08:17.897Z</time></trkpt><trkpt lat="43.3783947" lon="12.3710103"><ele>357.3333333333333</ele><time>2026-04-19T10:08:18.895Z</time></trkpt><trkpt lat="43.3784615" lon="12.3707426"><ele>353.6666666666667</ele><time>2026-04-19T10:08:19.896Z</time></trkpt><trkpt lat="43.3785202" lon="12.3704813"><ele>350.0</ele><time>2026-04-19T10:08:20.897Z</time></trkpt><trkpt lat="43.3785782" lon="12.3702287"><ele>347.6666666666667</ele><time>2026-04-19T10:08:21.897Z</time></trkpt><trkpt lat="43.3786367" lon="12.3699705"><ele>345.3333333333333</ele><time>2026-04-19T10:08:22.896Z</time></trkpt><trkpt lat="43.3786909" lon="12.3697128"><ele>343.0</ele><time>2026-04-19T10:08:23.897Z</time></trkpt><trkpt lat="43.3787498" lon="12.3694654"><ele>343.0</ele><time>2026-04-19T10:08:24.896Z</time></trkpt><trkpt lat="43.3787941" lon="12.3692062"><ele>343.0</ele><time>2026-04-19T10:08:25.895Z</time></trkpt><trkpt lat="43.3788269" lon="12.3689414"><ele>343.0</ele><time>2026-04-19T10:08:26.895Z</time></trkpt><trkpt lat="43.3788512" lon="12.3686767"><ele>346.0</ele><time>2026-04-19T10:08:27.895Z</time></trkpt><trkpt lat="43.3788754" lon="12.3684335"><ele>349.0</ele><time>2026-04-19T10:08:28.896Z</time></trkpt><trkpt lat="43.378899" lon="12.3681931"><ele>352.0</ele><time>2026-04-19T10:08:29.897Z</time></trkpt><trkpt lat="43.3789213" lon="12.3679493"><ele>352.0</ele><time>2026-04-19T10:08:30.897Z</time></trkpt><trkpt lat="43.378944" lon="12.367709"><ele>352.0</ele><time>2026-04-19T10:08:31.896Z</time></trkpt><trkpt lat="43.3789704" lon="12.3674525"><ele>352.0</ele><time>2026-04-19T10:08:32.895Z</time></trkpt><trkpt lat="43.3789975" lon="12.3671913"><ele>352.0</ele><time>2026-04-19T10:08:33.896Z</time></trkpt><trkpt lat="43.3790271" lon="12.36695"><ele>352.0</ele><time>2026-04-19T10:08:34.896Z</time></trkpt><trkpt lat="43.3790547" lon="12.3667175"><ele>352.0</ele><time>2026-04-19T10:08:35.896Z</time></trkpt><trkpt lat="43.379101" lon="12.3664809"><ele>351.0</ele><time>2026-04-19T10:08:36.895Z</time></trkpt><trkpt lat="43.3791621" lon="12.366266"><ele>350.0</ele><time>2026-04-19T10:08:37.896Z</time></trkpt><trkpt lat="43.3792275" lon="12.3660737"><ele>349.0</ele><time>2026-04-19T10:08:38.895Z</time></trkpt><trkpt lat="43.3792819" lon="12.3659012"><ele>349.0</ele><time>2026-04-19T10:08:39.897Z</time></trkpt><trkpt lat="43.3793063" lon="12.3657327"><ele>349.0</ele><time>2026-04-19T10:08:40.896Z</time></trkpt><trkpt lat="43.3792983" lon="12.3655543"><ele>349.0</ele><time>2026-04-19T10:08:41.895Z</time></trkpt><trkpt lat="43.379258" lon="12.3653619"><ele>349.0</ele><time>2026-04-19T10:08:42.897Z</time></trkpt><trkpt lat="43.3791947" lon="12.3651552"><ele>350.66666666666663</ele><time>2026-04-19T10:08:43.896Z</time></trkpt><trkpt lat="43.3791236" lon="12.3649252"><ele>352.3333333333333</ele><time>2026-04-19T10:08:44.896Z</time></trkpt><trkpt lat="43.3790561" lon="12.3646874"><ele>354.0</ele><time>2026-04-19T10:08:45.897Z</time></trkpt><trkpt lat="43.3789942" lon="12.3644581"><ele>352.6666666666667</ele><time>2026-04-19T10:08:46.895Z</time></trkpt><trkpt lat="43.3789342" lon="12.3642193"><ele>351.33333333333337</ele><time>2026-04-19T10:08:47.897Z</time></trkpt><trkpt lat="43.3788717" lon="12.3639905"><ele>350.0</ele><time>2026-04-19T10:08:48.896Z</time></trkpt><trkpt lat="43.3787901" lon="12.363768"><ele>350.0</ele><time>2026-04-19T10:08:49.897Z</time></trkpt><trkpt lat="43.3786721" lon="12.3635653"><ele>350.0</ele><time>2026-04-19T10:08:50.897Z</time></trkpt><trkpt lat="43.3785403" lon="12.3633479"><ele>350.0</ele><time>2026-04-19T10:08:51.896Z</time></trkpt><trkpt lat="43.3784194" lon="12.3631398"><ele>359.33333333333337</ele><time>2026-04-19T10:08:52.896Z</time></trkpt><trkpt lat="43.3783035" lon="12.3629469"><ele>368.6666666666667</ele><time>2026-04-19T10:08:53.897Z</time></trkpt><trkpt lat="43.3781793" lon="12.3627624"><ele>378.0</ele><time>2026-04-19T10:08:54.897Z</time></trkpt><trkpt lat="43.3780371" lon="12.3625815"><ele>380.33333333333337</ele><time>2026-04-19T10:08:55.897Z</time></trkpt><trkpt lat="43.3778778" lon="12.3624233"><ele>382.6666666666667</ele><time>2026-04-19T10:08:56.896Z</time></trkpt><trkpt lat="43.3777171" lon="12.3622777"><ele>385.0</ele><time>2026-04-19T10:08:57.895Z</time></trkpt><trkpt lat="43.3775697" lon="12.362143"><ele>385.0</ele><time>2026-04-19T10:08:58.896Z</time></trkpt><trkpt lat="43.3774305" lon="12.3620075"><ele>385.0</ele><time>2026-04-19T10:08:59.896Z</time></trkpt><trkpt lat="43.3773" lon="12.3618882"><ele>385.0</ele><time>2026-04-19T10:09:00.895Z</time></trkpt><trkpt lat="43.3771743" lon="12.3617955"><ele>377.25</ele><time>2026-04-19T10:09:01.895Z</time></trkpt><trkpt lat="43.3770477" lon="12.3617328"><ele>369.5</ele><time>2026-04-19T10:09:02.895Z</time></trkpt><trkpt lat="43.3769286" lon="12.3616923"><ele>361.75</ele><time>2026-04-19T10:09:03.895Z</time></trkpt><trkpt lat="43.3768183" lon="12.3616558"><ele>354.0</ele><time>2026-04-19T10:09:04.895Z</time></trkpt><trkpt lat="43.3767092" lon="12.3615869"><ele>354.0</ele><time>2026-04-19T10:09:05.895Z</time></trkpt><trkpt lat="43.3766064" lon="12.361479"><ele>354.0</ele><time>2026-04-19T10:09:06.896Z</time></trkpt><trkpt lat="43.3765138" lon="12.3613324"><ele>354.0</ele><time>2026-04-19T10:09:07.896Z</time></trkpt><trkpt lat="43.3764354" lon="12.3611986"><ele>354.0</ele><time>2026-04-19T10:09:08.895Z</time></trkpt><trkpt lat="43.3763782" lon="12.3610504"><ele>354.5</ele><time>2026-04-19T10:09:09.896Z</time></trkpt><trkpt lat="43.3763456" lon="12.3608598"><ele>355.0</ele><time>2026-04-19T10:09:10.894Z</time></trkpt><trkpt lat="43.3763103" lon="12.3606618"><ele>355.5</ele><time>2026-04-19T10:09:11.896Z</time></trkpt><trkpt lat="43.3762737" lon="12.3604609"><ele>356.0</ele><time>2026-04-19T10:09:12.895Z</time></trkpt><trkpt lat="43.3762215" lon="12.3602451"><ele>356.0</ele><time>2026-04-19T10:09:13.896Z</time></trkpt><trkpt lat="43.376164" lon="12.3600484"><ele>356.0</ele><time>2026-04-19T10:09:14.895Z</time></trkpt><trkpt lat="43.3761071" lon="12.3598619"><ele>356.0</ele><time>2026-04-19T10:09:15.895Z</time></trkpt><trkpt lat="43.3760521" lon="12.359672"><ele>360.6666666666667</ele><time>2026-04-19T10:09:16.896Z</time></trkpt><trkpt lat="43.3759804" lon="12.3594874"><ele>365.3333333333333</ele><time>2026-04-19T10:09:17.896Z</time></trkpt><trkpt lat="43.375909" lon="12.3592976"><ele>370.0</ele><time>2026-04-19T10:09:18.895Z</time></trkpt><trkpt lat="43.3758215" lon="12.3591109"><ele>370.0</ele><time>2026-04-19T10:09:19.895Z</time></trkpt><trkpt lat="43.3757313" lon="12.3589348"><ele>370.0</ele><time>2026-04-19T10:09:20.895Z</time></trkpt><trkpt lat="43.3756398" lon="12.358769"><ele>370.0</ele><time>2026-04-19T10:09:21.896Z</time></trkpt><trkpt lat="43.3755551" lon="12.3586006"><ele>365.66666666666663</ele><time>2026-04-19T10:09:22.895Z</time></trkpt><trkpt lat="43.3754673" lon="12.3584273"><ele>361.3333333333333</ele><time>2026-04-19T10:09:23.895Z</time></trkpt><trkpt lat="43.3753598" lon="12.3582607"><ele>357.0</ele><time>2026-04-19T10:09:24.895Z</time></trkpt><trkpt lat="43.375235" lon="12.3581211"><ele>360.5</ele><time>2026-04-19T10:09:25.896Z</time></trkpt><trkpt lat="43.3751102" lon="12.358008"><ele>364.0</ele><time>2026-04-19T10:09:26.896Z</time></trkpt><trkpt lat="43.374986" lon="12.3579098"><ele>367.5</ele><time>2026-04-19T10:09:27.895Z</time></trkpt><trkpt lat="43.3748815" lon="12.3578225"><ele>371.0</ele><time>2026-04-19T10:09:28.894Z</time></trkpt><trkpt lat="43.3748022" lon="12.3577244"><ele>371.0</ele><time>2026-04-19T10:09:29.894Z</time></trkpt><trkpt lat="43.3747305" lon="12.3576309"><ele>371.0</ele><time>2026-04-19T10:09:30.896Z</time></trkpt><trkpt lat="43.3746898" lon="12.357526"><ele>371.0</ele><time>2026-04-19T10:09:31.895Z</time></trkpt><trkpt lat="43.3747871" lon="12.3573757"><ele>371.0</ele><time>2026-04-19T10:09:32.895Z</time></trkpt><trkpt lat="43.3748496" lon="12.3572728"><ele>371.0</ele><time>2026-04-19T10:09:33.896Z</time></trkpt><trkpt lat="43.3749243" lon="12.3572062"><ele>368.4</ele><time>2026-04-19T10:09:34.896Z</time></trkpt><trkpt lat="43.3750016" lon="12.3571335"><ele>365.8</ele><time>2026-04-19T10:09:35.894Z</time></trkpt><trkpt lat="43.3750905" lon="12.357051"><ele>363.2</ele><time>2026-04-19T10:09:36.895Z</time></trkpt><trkpt lat="43.3751851" lon="12.3569505"><ele>360.59999999999997</ele><time>2026-04-19T10:09:37.896Z</time></trkpt><trkpt lat="43.3752759" lon="12.3568353"><ele>358.0</ele><time>2026-04-19T10:09:38.894Z</time></trkpt><trkpt lat="43.3753736" lon="12.3566952"><ele>358.0</ele><time>2026-04-19T10:09:39.896Z</time></trkpt><trkpt lat="43.375484" lon="12.356531"><ele>358.0</ele><time>2026-04-19T10:09:40.896Z</time></trkpt><trkpt lat="43.3755855" lon="12.3563706"><ele>358.0</ele><time>2026-04-19T10:09:41.895Z</time></trkpt><trkpt lat="43.3756909" lon="12.3561912"><ele>362.0</ele><time>2026-04-19T10:09:42.895Z</time></trkpt><trkpt lat="43.3757975" lon="12.3560003"><ele>366.0</ele><time>2026-04-19T10:09:43.895Z</time></trkpt><trkpt lat="43.3758958" lon="12.3558253"><ele>370.0</ele><time>2026-04-19T10:09:44.895Z</time></trkpt><trkpt lat="43.375994" lon="12.3556332"><ele>369.3333333333333</ele><time>2026-04-19T10:09:45.895Z</time></trkpt><trkpt lat="43.3760759" lon="12.3554458"><ele>368.6666666666667</ele><time>2026-04-19T10:09:46.895Z</time></trkpt><trkpt lat="43.3761538" lon="12.355263"><ele>368.0</ele><time>2026-04-19T10:09:47.896Z</time></trkpt><trkpt lat="43.3762106" lon="12.3550916"><ele>368.0</ele><time>2026-04-19T10:09:48.896Z</time></trkpt><trkpt lat="43.376252" lon="12.3549438"><ele>368.0</ele><time>2026-04-19T10:09:49.895Z</time></trkpt><trkpt lat="43.3762597" lon="12.3548123"><ele>368.0</ele><time>2026-04-19T10:09:50.895Z</time></trkpt><trkpt lat="43.3762327" lon="12.3546971"><ele>368.0</ele><time>2026-04-19T10:09:51.896Z</time></trkpt><trkpt lat="43.3761867" lon="12.3545968"><ele>368.0</ele><time>2026-04-19T10:09:52.895Z</time></trkpt><trkpt lat="43.37612" lon="12.3544994"><ele>373.25</ele><time>2026-04-19T10:09:53.896Z</time></trkpt><trkpt lat="43.3760019" lon="12.3544869"><ele>378.5</ele><time>2026-04-19T10:09:54.894Z</time></trkpt><trkpt lat="43.3758338" lon="12.3545222"><ele>383.75</ele><time>2026-04-19T10:09:55.895Z</time></trkpt><trkpt lat="43.3757076" lon="12.3544561"><ele>389.0</ele><time>2026-04-19T10:09:56.896Z</time></trkpt><trkpt lat="43.3755941" lon="12.3543822"><ele>381.75</ele><time>2026-04-19T10:09:57.895Z</time></trkpt><trkpt lat="43.3754826" lon="12.3543027"><ele>374.5</ele><time>2026-04-19T10:09:58.894Z</time></trkpt><trkpt lat="43.3754125" lon="12.3541434"><ele>367.25</ele><time>2026-04-19T10:09:59.894Z</time></trkpt><trkpt lat="43.3753318" lon="12.3540276"><ele>360.0</ele><time>2026-04-19T10:10:00.896Z</time></trkpt><trkpt lat="43.3752641" lon="12.3539278"><ele>368.5</ele><time>2026-04-19T10:10:01.895Z</time></trkpt><trkpt lat="43.375189" lon="12.3538101"><ele>377.0</ele><time>2026-04-19T10:10:02.895Z</time></trkpt><trkpt lat="43.3750396" lon="12.3537684"><ele>385.5</ele><time>2026-04-19T10:10:03.896Z</time></trkpt><trkpt lat="43.3749047" lon="12.3536936"><ele>394.0</ele><time>2026-04-19T10:10:04.895Z</time></trkpt><trkpt lat="43.3747666" lon="12.3535767"><ele>379.6666666666667</ele><time>2026-04-19T10:10:05.896Z</time></trkpt><trkpt lat="43.3746301" lon="12.3534211"><ele>365.33333333333337</ele><time>2026-04-19T10:10:06.895Z</time></trkpt><trkpt lat="43.3744863" lon="12.3532471"><ele>351.0</ele><time>2026-04-19T10:10:07.895Z</time></trkpt><trkpt lat="43.3743533" lon="12.3530753"><ele>359.0</ele><time>2026-04-19T10:10:08.896Z</time></trkpt><trkpt lat="43.3742311" lon="12.3528986"><ele>367.0</ele><time>2026-04-19T10:10:09.896Z</time></trkpt><trkpt lat="43.374109" lon="12.3527197"><ele>375.0</ele><time>2026-04-19T10:10:10.895Z</time></trkpt><trkpt lat="43.3740073" lon="12.3525327"><ele>375.0</ele><time>2026-04-19T10:10:11.895Z</time></trkpt><trkpt lat="43.3739288" lon="12.3523383"><ele>375.0</ele><time>2026-04-19T10:10:12.895Z</time></trkpt><trkpt lat="43.3738408" lon="12.3521703"><ele>375.0</ele><time>2026-04-19T10:10:13.894Z</time></trkpt><trkpt lat="43.3737266" lon="12.352033"><ele>366.6666666666667</ele><time>2026-04-19T10:10:14.895Z</time></trkpt><trkpt lat="43.3735982" lon="12.3518799"><ele>358.33333333333337</ele><time>2026-04-19T10:10:15.895Z</time></trkpt><trkpt lat="43.3734598" lon="12.3517323"><ele>350.0</ele><time>2026-04-19T10:10:16.896Z</time></trkpt><trkpt lat="43.3733354" lon="12.3515833"><ele>350.0</ele><time>2026-04-19T10:10:17.895Z</time></trkpt><trkpt lat="43.3732189" lon="12.3514329"><ele>350.0</ele><time>2026-04-19T10:10:18.896Z</time></trkpt><trkpt lat="43.3731305" lon="12.351301"><ele>350.0</ele><time>2026-04-19T10:10:19.896Z</time></trkpt><trkpt lat="43.3730583" lon="12.3511747"><ele>350.0</ele><time>2026-04-19T10:10:20.895Z</time></trkpt><trkpt lat="43.373006" lon="12.3510379"><ele>351.0</ele><time>2026-04-19T10:10:21.896Z</time></trkpt><trkpt lat="43.3729741" lon="12.3508934"><ele>352.0</ele><time>2026-04-19T10:10:22.895Z</time></trkpt><trkpt lat="43.3729726" lon="12.3507337"><ele>353.0</ele><time>2026-04-19T10:10:23.895Z</time></trkpt><trkpt lat="43.3729964" lon="12.3505458"><ele>354.0</ele><time>2026-04-19T10:10:24.895Z</time></trkpt><trkpt lat="43.3730288" lon="12.3503328"><ele>354.0</ele><time>2026-04-19T10:10:25.895Z</time></trkpt><trkpt lat="43.373045" lon="12.3501149"><ele>354.0</ele><time>2026-04-19T10:10:26.895Z</time></trkpt><trkpt lat="43.3730565" lon="12.3498986"><ele>354.0</ele><time>2026-04-19T10:10:27.894Z</time></trkpt><trkpt lat="43.3730302" lon="12.3496588"><ele>339.5</ele><time>2026-04-19T10:10:28.894Z</time></trkpt><trkpt lat="43.3729638" lon="12.3493494"><ele>325.0</ele><time>2026-04-19T10:10:29.895Z</time></trkpt><trkpt lat="43.3729277" lon="12.3490571"><ele>325.0</ele><time>2026-04-19T10:10:30.894Z</time></trkpt><trkpt lat="43.372884" lon="12.3487625"><ele>325.0</ele><time>2026-04-19T10:10:31.895Z</time></trkpt><trkpt lat="43.372832" lon="12.3484483"><ele>325.0</ele><time>2026-04-19T10:10:32.896Z</time></trkpt><trkpt lat="43.3727801" lon="12.3481448"><ele>325.0</ele><time>2026-04-19T10:10:33.896Z</time></trkpt><trkpt lat="43.3727363" lon="12.3478551"><ele>325.0</ele><time>2026-04-19T10:10:34.896Z</time></trkpt><trkpt lat="43.3726933" lon="12.3475882"><ele>325.0</ele><time>2026-04-19T10:10:35.896Z</time></trkpt><trkpt lat="43.372648" lon="12.3473496"><ele>325.0</ele><time>2026-04-19T10:10:36.894Z</time></trkpt><trkpt lat="43.3725918" lon="12.3471386"><ele>325.0</ele><time>2026-04-19T10:10:37.895Z</time></trkpt><trkpt lat="43.3725034" lon="12.3469526"><ele>326.75</ele><time>2026-04-19T10:10:38.894Z</time></trkpt><trkpt lat="43.3724133" lon="12.3468016"><ele>328.5</ele><time>2026-04-19T10:10:39.895Z</time></trkpt><trkpt lat="43.3723189" lon="12.3466822"><ele>330.25</ele><time>2026-04-19T10:10:40.896Z</time></trkpt><trkpt lat="43.3722126" lon="12.3466025"><ele>332.0</ele><time>2026-04-19T10:10:41.895Z</time></trkpt><trkpt lat="43.3720948" lon="12.346569"><ele>327.75</ele><time>2026-04-19T10:10:42.896Z</time></trkpt><trkpt lat="43.3719655" lon="12.3465702"><ele>323.5</ele><time>2026-04-19T10:10:43.896Z</time></trkpt><trkpt lat="43.3718422" lon="12.3465486"><ele>319.25</ele><time>2026-04-19T10:10:44.895Z</time></trkpt><trkpt lat="43.371711" lon="12.3465107"><ele>315.0</ele><time>2026-04-19T10:10:45.894Z</time></trkpt><trkpt lat="43.3715808" lon="12.3464318"><ele>314.6666666666667</ele><time>2026-04-19T10:10:46.895Z</time></trkpt><trkpt lat="43.371453" lon="12.3462999"><ele>314.33333333333337</ele><time>2026-04-19T10:10:47.896Z</time></trkpt><trkpt lat="43.3713307" lon="12.3461586"><ele>314.0</ele><time>2026-04-19T10:10:48.895Z</time></trkpt><trkpt lat="43.3712558" lon="12.3459824"><ele>314.0</ele><time>2026-04-19T10:10:49.894Z</time></trkpt><trkpt lat="43.3711618" lon="12.3458258"><ele>314.0</ele><time>2026-04-19T10:10:50.895Z</time></trkpt><trkpt lat="43.3711355" lon="12.3455986"><ele>314.0</ele><time>2026-04-19T10:10:51.894Z</time></trkpt><trkpt lat="43.3711181" lon="12.3453659"><ele>313.6666666666667</ele><time>2026-04-19T10:10:52.895Z</time></trkpt><trkpt lat="43.371122" lon="12.3451301"><ele>313.3333333333333</ele><time>2026-04-19T10:10:53.895Z</time></trkpt><trkpt lat="43.3711223" lon="12.3449054"><ele>313.0</ele><time>2026-04-19T10:10:54.894Z</time></trkpt><trkpt lat="43.3711014" lon="12.3447178"><ele>312.75</ele><time>2026-04-19T10:10:55.893Z</time></trkpt><trkpt lat="43.3710533" lon="12.3445564"><ele>312.5</ele><time>2026-04-19T10:10:56.895Z</time></trkpt><trkpt lat="43.3709814" lon="12.3444119"><ele>312.25</ele><time>2026-04-19T10:10:57.895Z</time></trkpt><trkpt lat="43.3708665" lon="12.3442907"><ele>312.0</ele><time>2026-04-19T10:10:58.895Z</time></trkpt><trkpt lat="43.3707225" lon="12.3441749"><ele>312.0</ele><time>2026-04-19T10:10:59.894Z</time></trkpt><trkpt lat="43.3705615" lon="12.3440585"><ele>312.0</ele><time>2026-04-19T10:11:00.893Z</time></trkpt><trkpt lat="43.3703939" lon="12.3439389"><ele>312.0</ele><time>2026-04-19T10:11:01.895Z</time></trkpt><trkpt lat="43.3702273" lon="12.3438179"><ele>311.0</ele><time>2026-04-19T10:11:02.894Z</time></trkpt><trkpt lat="43.3700537" lon="12.3436876"><ele>310.0</ele><time>2026-04-19T10:11:03.895Z</time></trkpt><trkpt lat="43.3698698" lon="12.3435576"><ele>309.0</ele><time>2026-04-19T10:11:04.895Z</time></trkpt><trkpt lat="43.3696746" lon="12.3434144"><ele>309.0</ele><time>2026-04-19T10:11:05.895Z</time></trkpt><trkpt lat="43.3694643" lon="12.3432689"><ele>309.0</ele><time>2026-04-19T10:11:06.895Z</time></trkpt><trkpt lat="43.3692524" lon="12.343121"><ele>307.6666666666667</ele><time>2026-04-19T10:11:07.894Z</time></trkpt><trkpt lat="43.3690493" lon="12.3429742"><ele>306.33333333333337</ele><time>2026-04-19T10:11:08.894Z</time></trkpt><trkpt lat="43.3688591" lon="12.3428312"><ele>305.0</ele><time>2026-04-19T10:11:09.894Z</time></trkpt><trkpt lat="43.3686812" lon="12.3427049"><ele>305.0</ele><time>2026-04-19T10:11:10.895Z</time></trkpt><trkpt lat="43.3685189" lon="12.3425816"><ele>305.0</ele><time>2026-04-19T10:11:11.894Z</time></trkpt><trkpt lat="43.3683613" lon="12.3424422"><ele>305.0</ele><time>2026-04-19T10:11:12.894Z</time></trkpt><trkpt lat="43.3682147" lon="12.3422697"><ele>303.33333333333337</ele><time>2026-04-19T10:11:13.894Z</time></trkpt><trkpt lat="43.3680948" lon="12.3420822"><ele>301.6666666666667</ele><time>2026-04-19T10:11:14.895Z</time></trkpt><trkpt lat="43.3679868" lon="12.3418712"><ele>300.0</ele><time>2026-04-19T10:11:15.895Z</time></trkpt><trkpt lat="43.3678929" lon="12.3416162"><ele>302.0</ele><time>2026-04-19T10:11:16.895Z</time></trkpt><trkpt lat="43.3678014" lon="12.3413491"><ele>304.0</ele><time>2026-04-19T10:11:17.893Z</time></trkpt><trkpt lat="43.3677088" lon="12.3410669"><ele>306.0</ele><time>2026-04-19T10:11:18.894Z</time></trkpt><trkpt lat="43.367615" lon="12.3407865"><ele>304.5</ele><time>2026-04-19T10:11:19.893Z</time></trkpt><trkpt lat="43.3675179" lon="12.3405043"><ele>303.0</ele><time>2026-04-19T10:11:20.894Z</time></trkpt><trkpt lat="43.3674201" lon="12.3402169"><ele>303.0</ele><time>2026-04-19T10:11:21.895Z</time></trkpt><trkpt lat="43.3673211" lon="12.3399189"><ele>303.0</ele><time>2026-04-19T10:11:22.895Z</time></trkpt><trkpt lat="43.3672268" lon="12.3396384"><ele>305.5</ele><time>2026-04-19T10:11:23.895Z</time></trkpt><trkpt lat="43.367131" lon="12.3393586"><ele>308.0</ele><time>2026-04-19T10:11:24.894Z</time></trkpt><trkpt lat="43.3670367" lon="12.3390763"><ele>306.6666666666667</ele><time>2026-04-19T10:11:25.895Z</time></trkpt><trkpt lat="43.3669476" lon="12.3388111"><ele>305.3333333333333</ele><time>2026-04-19T10:11:26.895Z</time></trkpt><trkpt lat="43.3668633" lon="12.3385555"><ele>304.0</ele><time>2026-04-19T10:11:27.893Z</time></trkpt><trkpt lat="43.3667842" lon="12.3383089"><ele>304.0</ele><time>2026-04-19T10:11:28.894Z</time></trkpt><trkpt lat="43.3667075" lon="12.3380782"><ele>304.0</ele><time>2026-04-19T10:11:29.894Z</time></trkpt><trkpt lat="43.3666272" lon="12.3378627"><ele>304.0</ele><time>2026-04-19T10:11:30.893Z</time></trkpt><trkpt lat="43.3665362" lon="12.3376629"><ele>302.66666666666663</ele><time>2026-04-19T10:11:31.894Z</time></trkpt><trkpt lat="43.3664258" lon="12.3374725"><ele>301.3333333333333</ele><time>2026-04-19T10:11:32.895Z</time></trkpt><trkpt lat="43.3662976" lon="12.3373034"><ele>300.0</ele><time>2026-04-19T10:11:33.895Z</time></trkpt><trkpt lat="43.3661519" lon="12.3371535"><ele>296.6666666666667</ele><time>2026-04-19T10:11:34.893Z</time></trkpt><trkpt lat="43.3659891" lon="12.3370313"><ele>293.33333333333337</ele><time>2026-04-19T10:11:35.894Z</time></trkpt><trkpt lat="43.3658025" lon="12.3369402"><ele>290.0</ele><time>2026-04-19T10:11:36.895Z</time></trkpt><trkpt lat="43.3655959" lon="12.3368709"><ele>290.0</ele><time>2026-04-19T10:11:37.894Z</time></trkpt><trkpt lat="43.3653739" lon="12.3368029"><ele>290.0</ele><time>2026-04-19T10:11:38.894Z</time></trkpt><trkpt lat="43.3651386" lon="12.3367298"><ele>290.0</ele><time>2026-04-19T10:11:39.894Z</time></trkpt><trkpt lat="43.3649046" lon="12.3366655"><ele>290.0</ele><time>2026-04-19T10:11:40.895Z</time></trkpt><trkpt lat="43.3646587" lon="12.3365947"><ele>290.5</ele><time>2026-04-19T10:11:41.894Z</time></trkpt><trkpt lat="43.3644085" lon="12.3365247"><ele>291.0</ele><time>2026-04-19T10:11:42.894Z</time></trkpt><trkpt lat="43.3641521" lon="12.3364555"><ele>290.5</ele><time>2026-04-19T10:11:43.894Z</time></trkpt><trkpt lat="43.3638959" lon="12.3363862"><ele>290.0</ele><time>2026-04-19T10:11:44.894Z</time></trkpt><trkpt lat="43.3636457" lon="12.3363124"><ele>289.5</ele><time>2026-04-19T10:11:45.894Z</time></trkpt><trkpt lat="43.3633966" lon="12.3362425"><ele>289.0</ele><time>2026-04-19T10:11:46.893Z</time></trkpt><trkpt lat="43.3631472" lon="12.3361764"><ele>289.5</ele><time>2026-04-19T10:11:47.893Z</time></trkpt><trkpt lat="43.3628995" lon="12.3361113"><ele>290.0</ele><time>2026-04-19T10:11:48.893Z</time></trkpt><trkpt lat="43.3626552" lon="12.3360373"><ele>290.0</ele><time>2026-04-19T10:11:49.894Z</time></trkpt><trkpt lat="43.3624085" lon="12.3359638"><ele>290.0</ele><time>2026-04-19T10:11:50.893Z</time></trkpt><trkpt lat="43.3621607" lon="12.335897"><ele>289.5</ele><time>2026-04-19T10:11:51.894Z</time></trkpt><trkpt lat="43.3619141" lon="12.3358287"><ele>289.0</ele><time>2026-04-19T10:11:52.894Z</time></trkpt><trkpt lat="43.3616663" lon="12.3357596"><ele>289.0</ele><time>2026-04-19T10:11:53.894Z</time></trkpt><trkpt lat="43.3614176" lon="12.3356943"><ele>289.0</ele><time>2026-04-19T10:11:54.893Z</time></trkpt><trkpt lat="43.3611623" lon="12.3356277"><ele>289.5</ele><time>2026-04-19T10:11:55.895Z</time></trkpt><trkpt lat="43.3609003" lon="12.3355546"><ele>290.0</ele><time>2026-04-19T10:11:56.895Z</time></trkpt><trkpt lat="43.3606481" lon="12.3354909"><ele>290.0</ele><time>2026-04-19T10:11:57.894Z</time></trkpt><trkpt lat="43.3604215" lon="12.3354236"><ele>290.0</ele><time>2026-04-19T10:11:58.895Z</time></trkpt><trkpt lat="43.3601814" lon="12.3353615"><ele>290.0</ele><time>2026-04-19T10:11:59.895Z</time></trkpt><trkpt lat="43.3599357" lon="12.3352957"><ele>290.0</ele><time>2026-04-19T10:12:00.894Z</time></trkpt><trkpt lat="43.3596944" lon="12.3352196"><ele>288.0</ele><time>2026-04-19T10:12:01.895Z</time></trkpt><trkpt lat="43.359446" lon="12.3351433"><ele>286.0</ele><time>2026-04-19T10:12:02.895Z</time></trkpt><trkpt lat="43.3591917" lon="12.335073"><ele>286.0</ele><time>2026-04-19T10:12:03.894Z</time></trkpt><trkpt lat="43.3589377" lon="12.3350022"><ele>286.0</ele><time>2026-04-19T10:12:04.893Z</time></trkpt><trkpt lat="43.3586774" lon="12.3349294"><ele>285.0</ele><time>2026-04-19T10:12:05.895Z</time></trkpt><trkpt lat="43.3584121" lon="12.3348565"><ele>284.0</ele><time>2026-04-19T10:12:06.895Z</time></trkpt><trkpt lat="43.3581636" lon="12.3347829"><ele>284.0</ele><time>2026-04-19T10:12:07.893Z</time></trkpt><trkpt lat="43.3579211" lon="12.3347132"><ele>284.0</ele><time>2026-04-19T10:12:08.894Z</time></trkpt><trkpt lat="43.3576754" lon="12.3346465"><ele>284.0</ele><time>2026-04-19T10:12:09.894Z</time></trkpt><trkpt lat="43.3574407" lon="12.3345821"><ele>284.0</ele><time>2026-04-19T10:12:10.893Z</time></trkpt><trkpt lat="43.357218" lon="12.3345132"><ele>283.6666666666667</ele><time>2026-04-19T10:12:11.893Z</time></trkpt><trkpt lat="43.3570063" lon="12.3344464"><ele>283.3333333333333</ele><time>2026-04-19T10:12:12.893Z</time></trkpt><trkpt lat="43.3568111" lon="12.3343826"><ele>283.0</ele><time>2026-04-19T10:12:13.893Z</time></trkpt><trkpt lat="43.3566311" lon="12.3343021"><ele>283.0</ele><time>2026-04-19T10:12:14.892Z</time></trkpt><trkpt lat="43.3564691" lon="12.3342088"><ele>283.0</ele><time>2026-04-19T10:12:15.894Z</time></trkpt><trkpt lat="43.35632" lon="12.3341056"><ele>283.0</ele><time>2026-04-19T10:12:16.894Z</time></trkpt><trkpt lat="43.3561798" lon="12.3340049"><ele>282.66666666666663</ele><time>2026-04-19T10:12:17.894Z</time></trkpt><trkpt lat="43.3560387" lon="12.3338885"><ele>282.3333333333333</ele><time>2026-04-19T10:12:18.893Z</time></trkpt><trkpt lat="43.355895" lon="12.3337531"><ele>282.0</ele><time>2026-04-19T10:12:19.893Z</time></trkpt><trkpt lat="43.3557458" lon="12.3336019"><ele>282.0</ele><time>2026-04-19T10:12:20.894Z</time></trkpt><trkpt lat="43.3555748" lon="12.3334471"><ele>282.0</ele><time>2026-04-19T10:12:21.892Z</time></trkpt><trkpt lat="43.3553987" lon="12.3332738"><ele>282.0</ele><time>2026-04-19T10:12:22.893Z</time></trkpt><trkpt lat="43.3552218" lon="12.3330852"><ele>282.5</ele><time>2026-04-19T10:12:23.894Z</time></trkpt><trkpt lat="43.355033" lon="12.3328883"><ele>283.0</ele><time>2026-04-19T10:12:24.894Z</time></trkpt><trkpt lat="43.3548323" lon="12.3326856"><ele>283.0</ele><time>2026-04-19T10:12:25.893Z</time></trkpt><trkpt lat="43.3546418" lon="12.3324852"><ele>283.0</ele><time>2026-04-19T10:12:26.894Z</time></trkpt><trkpt lat="43.3544485" lon="12.3322857"><ele>286.0</ele><time>2026-04-19T10:12:27.893Z</time></trkpt><trkpt lat="43.3542641" lon="12.3321001"><ele>289.0</ele><time>2026-04-19T10:12:28.893Z</time></trkpt><trkpt lat="43.3540815" lon="12.3319212"><ele>289.0</ele><time>2026-04-19T10:12:29.893Z</time></trkpt><trkpt lat="43.3538898" lon="12.331751"><ele>289.0</ele><time>2026-04-19T10:12:30.892Z</time></trkpt><trkpt lat="43.3536944" lon="12.3316045"><ele>288.3333333333333</ele><time>2026-04-19T10:12:31.894Z</time></trkpt><trkpt lat="43.3535051" lon="12.3314938"><ele>287.6666666666667</ele><time>2026-04-19T10:12:32.893Z</time></trkpt><trkpt lat="43.3533154" lon="12.3314247"><ele>287.0</ele><time>2026-04-19T10:12:33.893Z</time></trkpt><trkpt lat="43.3531066" lon="12.3313851"><ele>288.5</ele><time>2026-04-19T10:12:34.893Z</time></trkpt><trkpt lat="43.3528844" lon="12.3313671"><ele>290.0</ele><time>2026-04-19T10:12:35.893Z</time></trkpt><trkpt lat="43.352651" lon="12.3313582"><ele>290.0</ele><time>2026-04-19T10:12:36.892Z</time></trkpt><trkpt lat="43.3524082" lon="12.3313522"><ele>290.0</ele><time>2026-04-19T10:12:37.893Z</time></trkpt><trkpt lat="43.3521486" lon="12.3313445"><ele>288.5</ele><time>2026-04-19T10:12:38.893Z</time></trkpt><trkpt lat="43.3518848" lon="12.3313365"><ele>287.0</ele><time>2026-04-19T10:12:39.894Z</time></trkpt><trkpt lat="43.351618" lon="12.3313251"><ele>286.0</ele><time>2026-04-19T10:12:40.893Z</time></trkpt><trkpt lat="43.3513622" lon="12.3313146"><ele>285.0</ele><time>2026-04-19T10:12:41.893Z</time></trkpt><trkpt lat="43.3511065" lon="12.3313107"><ele>285.0</ele><time>2026-04-19T10:12:42.892Z</time></trkpt><trkpt lat="43.3508447" lon="12.3313052"><ele>285.0</ele><time>2026-04-19T10:12:43.893Z</time></trkpt><trkpt lat="43.3505744" lon="12.3312999"><ele>284.5</ele><time>2026-04-19T10:12:44.893Z</time></trkpt><trkpt lat="43.3503066" lon="12.3312967"><ele>284.0</ele><time>2026-04-19T10:12:45.894Z</time></trkpt><trkpt lat="43.3500447" lon="12.3312923"><ele>284.0</ele><time>2026-04-19T10:12:46.893Z</time></trkpt><trkpt lat="43.3497779" lon="12.3312856"><ele>284.0</ele><time>2026-04-19T10:12:47.893Z</time></trkpt><trkpt lat="43.3495259" lon="12.3312834"><ele>285.0</ele><time>2026-04-19T10:12:48.893Z</time></trkpt><trkpt lat="43.3492907" lon="12.3312767"><ele>286.0</ele><time>2026-04-19T10:12:49.894Z</time></trkpt><trkpt lat="43.3490633" lon="12.3312717"><ele>286.66666666666663</ele><time>2026-04-19T10:12:50.892Z</time></trkpt><trkpt lat="43.3488567" lon="12.3312707"><ele>287.3333333333333</ele><time>2026-04-19T10:12:51.894Z</time></trkpt><trkpt lat="43.348662" lon="12.3312695"><ele>288.0</ele><time>2026-04-19T10:12:52.894Z</time></trkpt><trkpt lat="43.3484794" lon="12.3312641"><ele>288.0</ele><time>2026-04-19T10:12:53.892Z</time></trkpt><trkpt lat="43.3483063" lon="12.331265"><ele>288.0</ele><time>2026-04-19T10:12:54.893Z</time></trkpt><trkpt lat="43.3481316" lon="12.3312629"><ele>288.0</ele><time>2026-04-19T10:12:55.893Z</time></trkpt><trkpt lat="43.3479473" lon="12.3312607"><ele>288.0</ele><time>2026-04-19T10:12:56.893Z</time></trkpt><trkpt lat="43.3477534" lon="12.3312583"><ele>288.0</ele><time>2026-04-19T10:12:57.893Z</time></trkpt><trkpt lat="43.3475406" lon="12.3312564"><ele>288.0</ele><time>2026-04-19T10:12:58.893Z</time></trkpt><trkpt lat="43.3473129" lon="12.3312532"><ele>287.0</ele><time>2026-04-19T10:12:59.894Z</time></trkpt><trkpt lat="43.3470722" lon="12.3312477"><ele>286.0</ele><time>2026-04-19T10:13:00.893Z</time></trkpt><trkpt lat="43.3468367" lon="12.3312457"><ele>286.0</ele><time>2026-04-19T10:13:01.893Z</time></trkpt><trkpt lat="43.3465996" lon="12.3312446"><ele>286.0</ele><time>2026-04-19T10:13:02.894Z</time></trkpt><trkpt lat="43.3463558" lon="12.3312461"><ele>284.0</ele><time>2026-04-19T10:13:03.893Z</time></trkpt><trkpt lat="43.3461091" lon="12.3312501"><ele>282.0</ele><time>2026-04-19T10:13:04.894Z</time></trkpt><trkpt lat="43.3458596" lon="12.3312492"><ele>282.0</ele><time>2026-04-19T10:13:05.894Z</time></trkpt><trkpt lat="43.3456048" lon="12.3312464"><ele>282.0</ele><time>2026-04-19T10:13:06.893Z</time></trkpt><trkpt lat="43.3453512" lon="12.3312364"><ele>280.0</ele><time>2026-04-19T10:13:07.893Z</time></trkpt><trkpt lat="43.3450967" lon="12.3312212"><ele>278.0</ele><time>2026-04-19T10:13:08.894Z</time></trkpt><trkpt lat="43.3448378" lon="12.3312098"><ele>277.5</ele><time>2026-04-19T10:13:09.893Z</time></trkpt><trkpt lat="43.3445827" lon="12.3312"><ele>277.0</ele><time>2026-04-19T10:13:10.894Z</time></trkpt><trkpt lat="43.3443239" lon="12.3311939"><ele>277.0</ele><time>2026-04-19T10:13:11.893Z</time></trkpt><trkpt lat="43.3440663" lon="12.3311919"><ele>277.0</ele><time>2026-04-19T10:13:12.893Z</time></trkpt><trkpt lat="43.343808" lon="12.3311868"><ele>276.0</ele><time>2026-04-19T10:13:13.892Z</time></trkpt><trkpt lat="43.3435502" lon="12.3311769"><ele>275.0</ele><time>2026-04-19T10:13:14.893Z</time></trkpt><trkpt lat="43.3432929" lon="12.3311661"><ele>274.0</ele><time>2026-04-19T10:13:15.893Z</time></trkpt><trkpt lat="43.3430348" lon="12.3311586"><ele>273.0</ele><time>2026-04-19T10:13:16.894Z</time></trkpt><trkpt lat="43.3427752" lon="12.3311522"><ele>273.0</ele><time>2026-04-19T10:13:17.894Z</time></trkpt><trkpt lat="43.3425151" lon="12.3311464"><ele>273.0</ele><time>2026-04-19T10:13:18.894Z</time></trkpt><trkpt lat="43.3422536" lon="12.3311417"><ele>273.0</ele><time>2026-04-19T10:13:19.894Z</time></trkpt><trkpt lat="43.341997" lon="12.331135"><ele>273.0</ele><time>2026-04-19T10:13:20.893Z</time></trkpt><trkpt lat="43.3417449" lon="12.3311302"><ele>273.0</ele><time>2026-04-19T10:13:21.893Z</time></trkpt><trkpt lat="43.3414877" lon="12.3311232"><ele>273.0</ele><time>2026-04-19T10:13:22.893Z</time></trkpt><trkpt lat="43.3412259" lon="12.3311199"><ele>271.5</ele><time>2026-04-19T10:13:23.894Z</time></trkpt><trkpt lat="43.3409742" lon="12.331117"><ele>270.0</ele><time>2026-04-19T10:13:24.894Z</time></trkpt><trkpt lat="43.3407343" lon="12.3311144"><ele>269.0</ele><time>2026-04-19T10:13:25.892Z</time></trkpt><trkpt lat="43.3405016" lon="12.33111"><ele>268.0</ele><time>2026-04-19T10:13:26.893Z</time></trkpt><trkpt lat="43.3402686" lon="12.3311056"><ele>268.0</ele><time>2026-04-19T10:13:27.894Z</time></trkpt><trkpt lat="43.340041" lon="12.3311025"><ele>268.0</ele><time>2026-04-19T10:13:28.894Z</time></trkpt><trkpt lat="43.3398256" lon="12.3311002"><ele>268.0</ele><time>2026-04-19T10:13:29.893Z</time></trkpt><trkpt lat="43.3396146" lon="12.3310905"><ele>267.0</ele><time>2026-04-19T10:13:30.893Z</time></trkpt><trkpt lat="43.3394164" lon="12.3310683"><ele>266.0</ele><time>2026-04-19T10:13:31.894Z</time></trkpt><trkpt lat="43.3392224" lon="12.3310059"><ele>265.0</ele><time>2026-04-19T10:13:32.893Z</time></trkpt><trkpt lat="43.3390317" lon="12.3309156"><ele>265.0</ele><time>2026-04-19T10:13:33.893Z</time></trkpt><trkpt lat="43.3388442" lon="12.33079"><ele>265.0</ele><time>2026-04-19T10:13:34.893Z</time></trkpt><trkpt lat="43.3386605" lon="12.330634"><ele>265.0</ele><time>2026-04-19T10:13:35.894Z</time></trkpt><trkpt lat="43.3384878" lon="12.3304465"><ele>265.0</ele><time>2026-04-19T10:13:36.892Z</time></trkpt><trkpt lat="43.3383143" lon="12.3302318"><ele>265.0</ele><time>2026-04-19T10:13:37.893Z</time></trkpt><trkpt lat="43.3381408" lon="12.3299988"><ele>264.0</ele><time>2026-04-19T10:13:38.893Z</time></trkpt><trkpt lat="43.3379547" lon="12.3297577"><ele>263.0</ele><time>2026-04-19T10:13:39.894Z</time></trkpt><trkpt lat="43.33776" lon="12.329515"><ele>265.5</ele><time>2026-04-19T10:13:40.893Z</time></trkpt><trkpt lat="43.3375597" lon="12.3292563"><ele>268.0</ele><time>2026-04-19T10:13:41.893Z</time></trkpt><trkpt lat="43.3373694" lon="12.3289975"><ele>268.0</ele><time>2026-04-19T10:13:42.892Z</time></trkpt><trkpt lat="43.3371875" lon="12.3287533"><ele>268.0</ele><time>2026-04-19T10:13:43.894Z</time></trkpt><trkpt lat="43.3370124" lon="12.3285185"><ele>268.0</ele><time>2026-04-19T10:13:44.893Z</time></trkpt><trkpt lat="43.3368309" lon="12.3282828"><ele>268.0</ele><time>2026-04-19T10:13:45.894Z</time></trkpt><trkpt lat="43.3366519" lon="12.3280513"><ele>268.0</ele><time>2026-04-19T10:13:46.893Z</time></trkpt><trkpt lat="43.3364723" lon="12.3278149"><ele>268.0</ele><time>2026-04-19T10:13:47.894Z</time></trkpt><trkpt lat="43.3362934" lon="12.3275791"><ele>268.0</ele><time>2026-04-19T10:13:48.892Z</time></trkpt><trkpt lat="43.3361091" lon="12.3273342"><ele>268.0</ele><time>2026-04-19T10:13:49.893Z</time></trkpt><trkpt lat="43.3359234" lon="12.3270948"><ele>273.0</ele><time>2026-04-19T10:13:50.894Z</time></trkpt><trkpt lat="43.3357542" lon="12.3268683"><ele>278.0</ele><time>2026-04-19T10:13:51.893Z</time></trkpt><trkpt lat="43.3355903" lon="12.3266604"><ele>279.0</ele><time>2026-04-19T10:13:52.894Z</time></trkpt><trkpt lat="43.3354342" lon="12.3264603"><ele>280.0</ele><time>2026-04-19T10:13:53.893Z</time></trkpt><trkpt lat="43.3352904" lon="12.3262652"><ele>281.0</ele><time>2026-04-19T10:13:54.893Z</time></trkpt><trkpt lat="43.33516" lon="12.326088"><ele>281.0</ele><time>2026-04-19T10:13:55.892Z</time></trkpt><trkpt lat="43.335038" lon="12.325929"><ele>281.0</ele><time>2026-04-19T10:13:56.893Z</time></trkpt><trkpt lat="43.3349239" lon="12.3257831"><ele>281.0</ele><time>2026-04-19T10:13:57.893Z</time></trkpt><trkpt lat="43.3348243" lon="12.3256383"><ele>279.5</ele><time>2026-04-19T10:13:58.893Z</time></trkpt><trkpt lat="43.3347412" lon="12.3254926"><ele>278.0</ele><time>2026-04-19T10:13:59.894Z</time></trkpt><trkpt lat="43.3346687" lon="12.3253315"><ele>276.5</ele><time>2026-04-19T10:14:00.893Z</time></trkpt><trkpt lat="43.3346092" lon="12.3251394"><ele>275.0</ele><time>2026-04-19T10:14:01.893Z</time></trkpt><trkpt lat="43.3345545" lon="12.324912"><ele>275.33333333333337</ele><time>2026-04-19T10:14:02.893Z</time></trkpt><trkpt lat="43.3345048" lon="12.3246929"><ele>275.6666666666667</ele><time>2026-04-19T10:14:03.892Z</time></trkpt><trkpt lat="43.3344533" lon="12.3244752"><ele>276.0</ele><time>2026-04-19T10:14:04.894Z</time></trkpt><trkpt lat="43.3343988" lon="12.3242722"><ele>276.0</ele><time>2026-04-19T10:14:05.894Z</time></trkpt><trkpt lat="43.3343382" lon="12.3240885"><ele>276.0</ele><time>2026-04-19T10:14:06.893Z</time></trkpt><trkpt lat="43.3342808" lon="12.3239168"><ele>276.0</ele><time>2026-04-19T10:14:07.894Z</time></trkpt><trkpt lat="43.3342349" lon="12.3237726"><ele>276.0</ele><time>2026-04-19T10:14:08.892Z</time></trkpt><trkpt lat="43.3342167" lon="12.3236359"><ele>276.3333333333333</ele><time>2026-04-19T10:14:09.893Z</time></trkpt><trkpt lat="43.3342189" lon="12.3235164"><ele>276.6666666666667</ele><time>2026-04-19T10:14:10.893Z</time></trkpt><trkpt lat="43.3342242" lon="12.3234112"><ele>277.0</ele><time>2026-04-19T10:14:11.893Z</time></trkpt><trkpt lat="43.3341982" lon="12.3233285"><ele>277.33333333333337</ele><time>2026-04-19T10:14:12.894Z</time></trkpt><trkpt lat="43.3341059" lon="12.323233"><ele>277.6666666666667</ele><time>2026-04-19T10:14:14.893Z</time></trkpt><trkpt lat="43.3340328" lon="12.3232412"><ele>278.0</ele><time>2026-04-19T10:14:15.893Z</time></trkpt><trkpt lat="43.3339318" lon="12.3232721"><ele>277.25</ele><time>2026-04-19T10:14:16.892Z</time></trkpt><trkpt lat="43.3338134" lon="12.3232979"><ele>276.5</ele><time>2026-04-19T10:14:17.894Z</time></trkpt><trkpt lat="43.3336818" lon="12.323299"><ele>275.75</ele><time>2026-04-19T10:14:18.892Z</time></trkpt><trkpt lat="43.3335247" lon="12.32331"><ele>275.0</ele><time>2026-04-19T10:14:19.894Z</time></trkpt><trkpt lat="43.3333724" lon="12.3233292"><ele>275.0</ele><time>2026-04-19T10:14:20.892Z</time></trkpt><trkpt lat="43.3332273" lon="12.3233419"><ele>275.0</ele><time>2026-04-19T10:14:21.894Z</time></trkpt><trkpt lat="43.3330844" lon="12.3233544"><ele>275.0</ele><time>2026-04-19T10:14:22.893Z</time></trkpt><trkpt lat="43.3329448" lon="12.323375"><ele>275.0</ele><time>2026-04-19T10:14:23.893Z</time></trkpt><trkpt lat="43.3327946" lon="12.3234052"><ele>274.75</ele><time>2026-04-19T10:14:24.894Z</time></trkpt><trkpt lat="43.3326527" lon="12.3234105"><ele>274.5</ele><time>2026-04-19T10:14:25.893Z</time></trkpt><trkpt lat="43.3325149" lon="12.3234261"><ele>274.25</ele><time>2026-04-19T10:14:26.893Z</time></trkpt><trkpt lat="43.3323706" lon="12.3234326"><ele>274.0</ele><time>2026-04-19T10:14:27.893Z</time></trkpt><trkpt lat="43.3322236" lon="12.323455"><ele>273.3333333333333</ele><time>2026-04-19T10:14:28.892Z</time></trkpt><trkpt lat="43.3320654" lon="12.3234568"><ele>272.6666666666667</ele><time>2026-04-19T10:14:29.893Z</time></trkpt><trkpt lat="43.3318839" lon="12.3234904"><ele>272.0</ele><time>2026-04-19T10:14:30.894Z</time></trkpt><trkpt lat="43.3317626" lon="12.3234842"><ele>272.0</ele><time>2026-04-19T10:14:31.892Z</time></trkpt><trkpt lat="43.3316214" lon="12.3234938"><ele>272.0</ele><time>2026-04-19T10:14:32.893Z</time></trkpt><trkpt lat="43.3314829" lon="12.3235263"><ele>272.0</ele><time>2026-04-19T10:14:33.892Z</time></trkpt><trkpt lat="43.3313545" lon="12.3235371"><ele>272.0</ele><time>2026-04-19T10:14:34.894Z</time></trkpt><trkpt lat="43.3312335" lon="12.3235497"><ele>270.75</ele><time>2026-04-19T10:14:35.893Z</time></trkpt><trkpt lat="43.3311062" lon="12.3235692"><ele>269.5</ele><time>2026-04-19T10:14:36.893Z</time></trkpt><trkpt lat="43.3309669" lon="12.3235979"><ele>268.25</ele><time>2026-04-19T10:14:37.894Z</time></trkpt><trkpt lat="43.3308189" lon="12.3236414"><ele>267.0</ele><time>2026-04-19T10:14:38.894Z</time></trkpt><trkpt lat="43.3306561" lon="12.3236975"><ele>265.0</ele><time>2026-04-19T10:14:39.893Z</time></trkpt><trkpt lat="43.3304795" lon="12.323773"><ele>263.0</ele><time>2026-04-19T10:14:40.894Z</time></trkpt><trkpt lat="43.3302897" lon="12.3238678"><ele>261.0</ele><time>2026-04-19T10:14:41.893Z</time></trkpt><trkpt lat="43.3301079" lon="12.3239702"><ele>261.0</ele><time>2026-04-19T10:14:42.893Z</time></trkpt><trkpt lat="43.3299163" lon="12.3240836"><ele>261.0</ele><time>2026-04-19T10:14:43.892Z</time></trkpt><trkpt lat="43.3297122" lon="12.3242056"><ele>261.0</ele><time>2026-04-19T10:14:44.894Z</time></trkpt><trkpt lat="43.329524" lon="12.3243155"><ele>260.3333333333333</ele><time>2026-04-19T10:14:45.892Z</time></trkpt><trkpt lat="43.329343" lon="12.324424"><ele>259.66666666666663</ele><time>2026-04-19T10:14:46.893Z</time></trkpt><trkpt lat="43.3291632" lon="12.3245216"><ele>259.0</ele><time>2026-04-19T10:14:47.893Z</time></trkpt><trkpt lat="43.3289944" lon="12.3245917"><ele>258.66666666666663</ele><time>2026-04-19T10:14:48.894Z</time></trkpt><trkpt lat="43.3288137" lon="12.3246206"><ele>258.3333333333333</ele><time>2026-04-19T10:14:49.894Z</time></trkpt><trkpt lat="43.3286272" lon="12.3246026"><ele>258.0</ele><time>2026-04-19T10:14:50.892Z</time></trkpt><trkpt lat="43.3284307" lon="12.3245672"><ele>258.0</ele><time>2026-04-19T10:14:51.893Z</time></trkpt><trkpt lat="43.3282192" lon="12.3245176"><ele>258.0</ele><time>2026-04-19T10:14:52.893Z</time></trkpt><trkpt lat="43.3280028" lon="12.3244708"><ele>258.0</ele><time>2026-04-19T10:14:53.893Z</time></trkpt><trkpt lat="43.3277946" lon="12.3244259"><ele>256.6666666666667</ele><time>2026-04-19T10:14:54.893Z</time></trkpt><trkpt lat="43.3275938" lon="12.3243837"><ele>255.33333333333334</ele><time>2026-04-19T10:14:55.894Z</time></trkpt><trkpt lat="43.3274038" lon="12.3243438"><ele>254.0</ele><time>2026-04-19T10:14:56.893Z</time></trkpt><trkpt lat="43.3272209" lon="12.3242986"><ele>253.33333333333334</ele><time>2026-04-19T10:14:57.893Z</time></trkpt><trkpt lat="43.3270489" lon="12.3242632"><ele>252.66666666666669</ele><time>2026-04-19T10:14:58.893Z</time></trkpt><trkpt lat="43.3268802" lon="12.3242321"><ele>252.0</ele><time>2026-04-19T10:14:59.893Z</time></trkpt><trkpt lat="43.3267034" lon="12.324197"><ele>252.0</ele><time>2026-04-19T10:15:00.893Z</time></trkpt><trkpt lat="43.3265306" lon="12.3241641"><ele>252.0</ele><time>2026-04-19T10:15:01.893Z</time></trkpt><trkpt lat="43.3263632" lon="12.3241346"><ele>252.0</ele><time>2026-04-19T10:15:02.892Z</time></trkpt><trkpt lat="43.3262163" lon="12.324099"><ele>252.0</ele><time>2026-04-19T10:15:03.891Z</time></trkpt><trkpt lat="43.3260662" lon="12.3240685"><ele>252.0</ele><time>2026-04-19T10:15:04.892Z</time></trkpt><trkpt lat="43.3259088" lon="12.3240361"><ele>252.0</ele><time>2026-04-19T10:15:05.892Z</time></trkpt><trkpt lat="43.3257517" lon="12.3240046"><ele>252.0</ele><time>2026-04-19T10:15:06.893Z</time></trkpt><trkpt lat="43.3256039" lon="12.3239699"><ele>252.0</ele><time>2026-04-19T10:15:07.891Z</time></trkpt><trkpt lat="43.3254657" lon="12.3239651"><ele>252.0</ele><time>2026-04-19T10:15:08.893Z</time></trkpt><trkpt lat="43.3253167" lon="12.3240205"><ele>252.0</ele><time>2026-04-19T10:15:09.893Z</time></trkpt><trkpt lat="43.3251646" lon="12.3241066"><ele>251.0</ele><time>2026-04-19T10:15:10.893Z</time></trkpt><trkpt lat="43.3250097" lon="12.3242139"><ele>250.0</ele><time>2026-04-19T10:15:11.892Z</time></trkpt><trkpt lat="43.3248405" lon="12.3243309"><ele>249.0</ele><time>2026-04-19T10:15:12.892Z</time></trkpt><trkpt lat="43.3246737" lon="12.3244546"><ele>249.0</ele><time>2026-04-19T10:15:13.893Z</time></trkpt><trkpt lat="43.3245224" lon="12.3245774"><ele>249.0</ele><time>2026-04-19T10:15:14.893Z</time></trkpt><trkpt lat="43.3243857" lon="12.3247064"><ele>249.0</ele><time>2026-04-19T10:15:15.892Z</time></trkpt><trkpt lat="43.3242661" lon="12.3248741"><ele>249.0</ele><time>2026-04-19T10:15:16.892Z</time></trkpt><trkpt lat="43.3241545" lon="12.3250856"><ele>249.0</ele><time>2026-04-19T10:15:17.892Z</time></trkpt><trkpt lat="43.3240525" lon="12.3253115"><ele>249.0</ele><time>2026-04-19T10:15:18.892Z</time></trkpt><trkpt lat="43.3239525" lon="12.3255236"><ele>249.66666666666669</ele><time>2026-04-19T10:15:19.892Z</time></trkpt><trkpt lat="43.3238614" lon="12.3257262"><ele>250.33333333333334</ele><time>2026-04-19T10:15:20.893Z</time></trkpt><trkpt lat="43.3237723" lon="12.3259141"><ele>251.0</ele><time>2026-04-19T10:15:21.892Z</time></trkpt><trkpt lat="43.3236661" lon="12.3260644"><ele>251.0</ele><time>2026-04-19T10:15:22.893Z</time></trkpt><trkpt lat="43.32355" lon="12.3261618"><ele>251.0</ele><time>2026-04-19T10:15:23.892Z</time></trkpt><trkpt lat="43.3234109" lon="12.3262095"><ele>251.0</ele><time>2026-04-19T10:15:24.891Z</time></trkpt><trkpt lat="43.3232574" lon="12.3262335"><ele>251.0</ele><time>2026-04-19T10:15:25.892Z</time></trkpt><trkpt lat="43.3230853" lon="12.3262552"><ele>252.0</ele><time>2026-04-19T10:15:26.89Z</time></trkpt><trkpt lat="43.3229088" lon="12.3262786"><ele>253.0</ele><time>2026-04-19T10:15:27.892Z</time></trkpt><trkpt lat="43.3227369" lon="12.3262964"><ele>254.0</ele><time>2026-04-19T10:15:28.89Z</time></trkpt><trkpt lat="43.3225579" lon="12.3263013"><ele>254.0</ele><time>2026-04-19T10:15:29.892Z</time></trkpt><trkpt lat="43.3223674" lon="12.3262789"><ele>254.0</ele><time>2026-04-19T10:15:30.891Z</time></trkpt><trkpt lat="43.3221748" lon="12.326274"><ele>254.0</ele><time>2026-04-19T10:15:31.891Z</time></trkpt><trkpt lat="43.3219529" lon="12.3262352"><ele>254.0</ele><time>2026-04-19T10:15:32.891Z</time></trkpt><trkpt lat="43.3217443" lon="12.3262073"><ele>254.0</ele><time>2026-04-19T10:15:33.89Z</time></trkpt><trkpt lat="43.3215292" lon="12.3261754"><ele>254.0</ele><time>2026-04-19T10:15:34.891Z</time></trkpt><trkpt lat="43.3213104" lon="12.326135"><ele>254.0</ele><time>2026-04-19T10:15:35.892Z</time></trkpt><trkpt lat="43.3210997" lon="12.3260958"><ele>254.0</ele><time>2026-04-19T10:15:36.892Z</time></trkpt><trkpt lat="43.3208936" lon="12.3260652"><ele>254.0</ele><time>2026-04-19T10:15:37.891Z</time></trkpt><trkpt lat="43.3206992" lon="12.3260237"><ele>254.0</ele><time>2026-04-19T10:15:38.892Z</time></trkpt><trkpt lat="43.3205059" lon="12.3259754"><ele>254.0</ele><time>2026-04-19T10:15:39.891Z</time></trkpt><trkpt lat="43.3203091" lon="12.3259327"><ele>254.0</ele><time>2026-04-19T10:15:40.892Z</time></trkpt><trkpt lat="43.3200957" lon="12.3258788"><ele>254.0</ele><time>2026-04-19T10:15:41.891Z</time></trkpt><trkpt lat="43.3199099" lon="12.3257871"><ele>254.0</ele><time>2026-04-19T10:15:42.891Z</time></trkpt><trkpt lat="43.3197137" lon="12.3257111"><ele>254.0</ele><time>2026-04-19T10:15:43.891Z</time></trkpt><trkpt lat="43.3195109" lon="12.3256355"><ele>254.0</ele><time>2026-04-19T10:15:44.892Z</time></trkpt><trkpt lat="43.3193104" lon="12.3255637"><ele>254.0</ele><time>2026-04-19T10:15:45.891Z</time></trkpt><trkpt lat="43.3191157" lon="12.3255141"><ele>254.0</ele><time>2026-04-19T10:15:46.892Z</time></trkpt><trkpt lat="43.3189323" lon="12.3254707"><ele>252.33333333333334</ele><time>2026-04-19T10:15:47.892Z</time></trkpt><trkpt lat="43.3187504" lon="12.3254405"><ele>250.66666666666669</ele><time>2026-04-19T10:15:48.891Z</time></trkpt><trkpt lat="43.3185678" lon="12.3254216"><ele>249.0</ele><time>2026-04-19T10:15:49.89Z</time></trkpt><trkpt lat="43.3183785" lon="12.3254065"><ele>249.0</ele><time>2026-04-19T10:15:50.892Z</time></trkpt><trkpt lat="43.3181801" lon="12.3253862"><ele>249.0</ele><time>2026-04-19T10:15:51.892Z</time></trkpt><trkpt lat="43.3179811" lon="12.3253718"><ele>249.0</ele><time>2026-04-19T10:15:52.89Z</time></trkpt><trkpt lat="43.3177878" lon="12.3253539"><ele>249.33333333333331</ele><time>2026-04-19T10:15:53.891Z</time></trkpt><trkpt lat="43.3175965" lon="12.3253435"><ele>249.66666666666666</ele><time>2026-04-19T10:15:54.891Z</time></trkpt><trkpt lat="43.317407" lon="12.3253289"><ele>250.0</ele><time>2026-04-19T10:15:55.891Z</time></trkpt><trkpt lat="43.3172168" lon="12.3253156"><ele>250.0</ele><time>2026-04-19T10:15:56.892Z</time></trkpt><trkpt lat="43.3170311" lon="12.3252967"><ele>250.0</ele><time>2026-04-19T10:15:57.892Z</time></trkpt><trkpt lat="43.3168385" lon="12.3252751"><ele>250.0</ele><time>2026-04-19T10:15:58.891Z</time></trkpt><trkpt lat="43.3166312" lon="12.3252308"><ele>250.0</ele><time>2026-04-19T10:15:59.892Z</time></trkpt><trkpt lat="43.316426" lon="12.3251707"><ele>250.0</ele><time>2026-04-19T10:16:00.891Z</time></trkpt><trkpt lat="43.3162311" lon="12.3251038"><ele>250.0</ele><time>2026-04-19T10:16:01.891Z</time></trkpt><trkpt lat="43.3160457" lon="12.3250434"><ele>251.33333333333331</ele><time>2026-04-19T10:16:02.892Z</time></trkpt><trkpt lat="43.3158677" lon="12.3249806"><ele>252.66666666666669</ele><time>2026-04-19T10:16:03.891Z</time></trkpt><trkpt lat="43.3156815" lon="12.3249114"><ele>254.0</ele><time>2026-04-19T10:16:04.89Z</time></trkpt><trkpt lat="43.3154939" lon="12.324828"><ele>254.0</ele><time>2026-04-19T10:16:05.891Z</time></trkpt><trkpt lat="43.3153093" lon="12.3247411"><ele>254.0</ele><time>2026-04-19T10:16:06.89Z</time></trkpt><trkpt lat="43.3151333" lon="12.3246482"><ele>254.0</ele><time>2026-04-19T10:16:07.89Z</time></trkpt><trkpt lat="43.3149525" lon="12.3245517"><ele>251.33333333333334</ele><time>2026-04-19T10:16:08.891Z</time></trkpt><trkpt lat="43.3147657" lon="12.3244582"><ele>248.66666666666669</ele><time>2026-04-19T10:16:09.891Z</time></trkpt><trkpt lat="43.3145872" lon="12.3243615"><ele>246.0</ele><time>2026-04-19T10:16:10.891Z</time></trkpt><trkpt lat="43.3144081" lon="12.3242659"><ele>245.33333333333331</ele><time>2026-04-19T10:16:11.891Z</time></trkpt><trkpt lat="43.3142347" lon="12.3241685"><ele>244.66666666666666</ele><time>2026-04-19T10:16:12.892Z</time></trkpt><trkpt lat="43.3140678" lon="12.3240795"><ele>244.0</ele><time>2026-04-19T10:16:13.892Z</time></trkpt><trkpt lat="43.3138936" lon="12.3240117"><ele>243.66666666666666</ele><time>2026-04-19T10:16:14.892Z</time></trkpt><trkpt lat="43.3137153" lon="12.3239763"><ele>243.33333333333331</ele><time>2026-04-19T10:16:15.89Z</time></trkpt><trkpt lat="43.3135271" lon="12.3239718"><ele>243.0</ele><time>2026-04-19T10:16:16.89Z</time></trkpt><trkpt lat="43.3133259" lon="12.3240029"><ele>243.0</ele><time>2026-04-19T10:16:17.891Z</time></trkpt><trkpt lat="43.3131209" lon="12.3240512"><ele>243.0</ele><time>2026-04-19T10:16:18.891Z</time></trkpt><trkpt lat="43.3129256" lon="12.3241043"><ele>243.0</ele><time>2026-04-19T10:16:19.891Z</time></trkpt><trkpt lat="43.3127393" lon="12.3241579"><ele>243.66666666666669</ele><time>2026-04-19T10:16:20.892Z</time></trkpt><trkpt lat="43.3125646" lon="12.3242039"><ele>244.33333333333334</ele><time>2026-04-19T10:16:21.892Z</time></trkpt><trkpt lat="43.3124003" lon="12.3242571"><ele>245.0</ele><time>2026-04-19T10:16:22.891Z</time></trkpt><trkpt lat="43.3122476" lon="12.3243356"><ele>244.33333333333334</ele><time>2026-04-19T10:16:23.892Z</time></trkpt><trkpt lat="43.3121138" lon="12.324439"><ele>243.66666666666669</ele><time>2026-04-19T10:16:24.89Z</time></trkpt><trkpt lat="43.3119869" lon="12.3245798"><ele>243.0</ele><time>2026-04-19T10:16:25.892Z</time></trkpt><trkpt lat="43.3118692" lon="12.3247462"><ele>243.0</ele><time>2026-04-19T10:16:26.891Z</time></trkpt><trkpt lat="43.3117704" lon="12.3249062"><ele>243.0</ele><time>2026-04-19T10:16:27.891Z</time></trkpt><trkpt lat="43.3116775" lon="12.3250557"><ele>243.0</ele><time>2026-04-19T10:16:28.891Z</time></trkpt><trkpt lat="43.3115932" lon="12.3251965"><ele>243.0</ele><time>2026-04-19T10:16:29.892Z</time></trkpt><trkpt lat="43.3115159" lon="12.3253126"><ele>243.0</ele><time>2026-04-19T10:16:30.892Z</time></trkpt><trkpt lat="43.3114473" lon="12.3254176"><ele>243.0</ele><time>2026-04-19T10:16:31.892Z</time></trkpt><trkpt lat="43.3113866" lon="12.3255203"><ele>243.0</ele><time>2026-04-19T10:16:32.89Z</time></trkpt><trkpt lat="43.3113405" lon="12.325606"><ele>243.0</ele><time>2026-04-19T10:16:33.891Z</time></trkpt><trkpt lat="43.3112983" lon="12.3256774"><ele>243.0</ele><time>2026-04-19T10:16:34.892Z</time></trkpt><trkpt lat="43.3112189" lon="12.3257635"><ele>243.0</ele><time>2026-04-19T10:16:36.89Z</time></trkpt><trkpt lat="43.3111408" lon="12.325819"><ele>242.8</ele><time>2026-04-19T10:16:38.891Z</time></trkpt><trkpt lat="43.311059" lon="12.3259166"><ele>242.60000000000002</ele><time>2026-04-19T10:16:40.892Z</time></trkpt><trkpt lat="43.3109414" lon="12.3259566"><ele>242.39999999999998</ele><time>2026-04-19T10:16:42.891Z</time></trkpt><trkpt lat="43.3108697" lon="12.3259662"><ele>242.2</ele><time>2026-04-19T10:16:43.891Z</time></trkpt><trkpt lat="43.3107993" lon="12.3259798"><ele>242.0</ele><time>2026-04-19T10:16:44.891Z</time></trkpt><trkpt lat="43.3107074" lon="12.3259821"><ele>242.0</ele><time>2026-04-19T10:16:45.891Z</time></trkpt><trkpt lat="43.3106132" lon="12.3259755"><ele>242.0</ele><time>2026-04-19T10:16:46.892Z</time></trkpt><trkpt lat="43.3105122" lon="12.3259654"><ele>242.0</ele><time>2026-04-19T10:16:47.89Z</time></trkpt><trkpt lat="43.3104058" lon="12.3259549"><ele>242.0</ele><time>2026-04-19T10:16:48.892Z</time></trkpt><trkpt lat="43.3102931" lon="12.3259424"><ele>242.0</ele><time>2026-04-19T10:16:49.89Z</time></trkpt><trkpt lat="43.3101758" lon="12.3259308"><ele>242.0</ele><time>2026-04-19T10:16:50.891Z</time></trkpt><trkpt lat="43.3100649" lon="12.3259176"><ele>242.0</ele><time>2026-04-19T10:16:51.89Z</time></trkpt><trkpt lat="43.3099588" lon="12.3259054"><ele>242.0</ele><time>2026-04-19T10:16:52.892Z</time></trkpt><trkpt lat="43.3098583" lon="12.3258905"><ele>242.0</ele><time>2026-04-19T10:16:53.892Z</time></trkpt><trkpt lat="43.3097716" lon="12.3258832"><ele>242.0</ele><time>2026-04-19T10:16:54.892Z</time></trkpt><trkpt lat="43.3096923" lon="12.3258786"><ele>242.00000000000003</ele><time>2026-04-19T10:16:55.891Z</time></trkpt><trkpt lat="43.3096227" lon="12.3258312"><ele>242.0</ele><time>2026-04-19T10:16:57.891Z</time></trkpt><trkpt lat="43.3095852" lon="12.3257519"><ele>242.0</ele><time>2026-04-19T10:16:59.891Z</time></trkpt><trkpt lat="43.3096063" lon="12.3256248"><ele>242.0</ele><time>2026-04-19T10:17:02.892Z</time></trkpt><trkpt lat="43.3096319" lon="12.3255246"><ele>242.00000000000003</ele><time>2026-04-19T10:17:03.891Z</time></trkpt><trkpt lat="43.3096573" lon="12.3254345"><ele>242.0</ele><time>2026-04-19T10:17:04.892Z</time></trkpt><trkpt lat="43.3096916" lon="12.3253443"><ele>241.66666666666669</ele><time>2026-04-19T10:17:05.89Z</time></trkpt><trkpt lat="43.3097189" lon="12.3252645"><ele>241.33333333333334</ele><time>2026-04-19T10:17:06.891Z</time></trkpt><trkpt lat="43.3097506" lon="12.3251258"><ele>241.0</ele><time>2026-04-19T10:17:08.89Z</time></trkpt><trkpt lat="43.3097875" lon="12.3250181"><ele>240.66666666666669</ele><time>2026-04-19T10:17:10.892Z</time></trkpt><trkpt lat="43.309773" lon="12.324926"><ele>240.33333333333334</ele><time>2026-04-19T10:17:12.892Z</time></trkpt><trkpt lat="43.3096865" lon="12.324862"><ele>240.0</ele><time>2026-04-19T10:17:14.892Z</time></trkpt><trkpt lat="43.3096156" lon="12.3248298"><ele>240.0</ele><time>2026-04-19T10:17:15.89Z</time></trkpt><trkpt lat="43.309548" lon="12.3248099"><ele>240.0</ele><time>2026-04-19T10:17:16.892Z</time></trkpt><trkpt lat="43.3094626" lon="12.3247857"><ele>240.0</ele><time>2026-04-19T10:17:17.89Z</time></trkpt><trkpt lat="43.309361" lon="12.3247771"><ele>240.0</ele><time>2026-04-19T10:17:18.891Z</time></trkpt><trkpt lat="43.3092591" lon="12.3247854"><ele>240.0</ele><time>2026-04-19T10:17:19.892Z</time></trkpt><trkpt lat="43.3091602" lon="12.324807"><ele>240.0</ele><time>2026-04-19T10:17:20.891Z</time></trkpt><trkpt lat="43.3090564" lon="12.3248523"><ele>240.0</ele><time>2026-04-19T10:17:21.892Z</time></trkpt><trkpt lat="43.3089672" lon="12.3249133"><ele>240.0</ele><time>2026-04-19T10:17:22.891Z</time></trkpt><trkpt lat="43.3088789" lon="12.3249744"><ele>240.0</ele><time>2026-04-19T10:17:23.892Z</time></trkpt><trkpt lat="43.3088069" lon="12.3250484"><ele>240.0</ele><time>2026-04-19T10:17:24.892Z</time></trkpt><trkpt lat="43.3087435" lon="12.3251265"><ele>240.14285714285717</ele><time>2026-04-19T10:17:25.891Z</time></trkpt><trkpt lat="43.3086938" lon="12.3252037"><ele>240.28571428571428</ele><time>2026-04-19T10:17:26.891Z</time></trkpt><trkpt lat="43.3086606" lon="12.3252794"><ele>240.42857142857144</ele><time>2026-04-19T10:17:27.892Z</time></trkpt><trkpt lat="43.3086418" lon="12.3253683"><ele>240.57142857142858</ele><time>2026-04-19T10:17:28.892Z</time></trkpt><trkpt lat="43.3086352" lon="12.3254571"><ele>240.71428571428572</ele><time>2026-04-19T10:17:29.891Z</time></trkpt><trkpt lat="43.3086311" lon="12.3255575"><ele>240.85714285714286</ele><time>2026-04-19T10:17:30.892Z</time></trkpt><trkpt lat="43.3086417" lon="12.3256622"><ele>241.0</ele><time>2026-04-19T10:17:31.891Z</time></trkpt><trkpt lat="43.3086504" lon="12.3257564"><ele>241.33333333333331</ele><time>2026-04-19T10:17:32.891Z</time></trkpt><trkpt lat="43.3086541" lon="12.3258535"><ele>241.66666666666666</ele><time>2026-04-19T10:17:33.892Z</time></trkpt><trkpt lat="43.3086322" lon="12.3260198"><ele>242.0</ele><time>2026-04-19T10:17:35.891Z</time></trkpt><trkpt lat="43.3085888" lon="12.3260934"><ele>242.33333333333331</ele><time>2026-04-19T10:17:36.89Z</time></trkpt><trkpt lat="43.3085415" lon="12.3261695"><ele>242.66666666666666</ele><time>2026-04-19T10:17:37.891Z</time></trkpt><trkpt lat="43.3084542" lon="12.3262218"><ele>243.0</ele><time>2026-04-19T10:17:38.891Z</time></trkpt><trkpt lat="43.3083772" lon="12.3262435"><ele>243.0</ele><time>2026-04-19T10:17:39.89Z</time></trkpt><trkpt lat="43.3082895" lon="12.3262887"><ele>243.0</ele><time>2026-04-19T10:17:40.891Z</time></trkpt><trkpt lat="43.3081936" lon="12.326325"><ele>243.0</ele><time>2026-04-19T10:17:41.891Z</time></trkpt><trkpt lat="43.3081128" lon="12.3263631"><ele>243.0</ele><time>2026-04-19T10:17:42.891Z</time></trkpt><trkpt lat="43.3080374" lon="12.3264396"><ele>243.0</ele><time>2026-04-19T10:17:43.891Z</time></trkpt><trkpt lat="43.3079647" lon="12.3265148"><ele>243.25</ele><time>2026-04-19T10:17:44.891Z</time></trkpt><trkpt lat="43.3079045" lon="12.3266243"><ele>243.5</ele><time>2026-04-19T10:17:45.892Z</time></trkpt><trkpt lat="43.3078486" lon="12.3267766"><ele>243.75</ele><time>2026-04-19T10:17:46.891Z</time></trkpt><trkpt lat="43.3077824" lon="12.3269303"><ele>244.0</ele><time>2026-04-19T10:17:47.892Z</time></trkpt><trkpt lat="43.3077188" lon="12.3270837"><ele>244.5</ele><time>2026-04-19T10:17:48.89Z</time></trkpt><trkpt lat="43.3076578" lon="12.3272309"><ele>245.0</ele><time>2026-04-19T10:17:49.892Z</time></trkpt><trkpt lat="43.3075904" lon="12.3273871"><ele>245.5</ele><time>2026-04-19T10:17:50.892Z</time></trkpt><trkpt lat="43.3075258" lon="12.3275296"><ele>246.0</ele><time>2026-04-19T10:17:51.89Z</time></trkpt><trkpt lat="43.3074683" lon="12.327664"><ele>246.0</ele><time>2026-04-19T10:17:52.892Z</time></trkpt><trkpt lat="43.3074091" lon="12.3277968"><ele>246.00000000000003</ele><time>2026-04-19T10:17:53.891Z</time></trkpt><trkpt lat="43.3073501" lon="12.3279218"><ele>246.00000000000003</ele><time>2026-04-19T10:17:54.892Z</time></trkpt><trkpt lat="43.3072877" lon="12.3280295"><ele>246.0</ele><time>2026-04-19T10:17:55.891Z</time></trkpt><trkpt lat="43.3071998" lon="12.3281255"><ele>246.0</ele><time>2026-04-19T10:17:56.89Z</time></trkpt><trkpt lat="43.3071161" lon="12.3282248"><ele>246.0</ele><time>2026-04-19T10:17:57.891Z</time></trkpt><trkpt lat="43.3070253" lon="12.3283099"><ele>246.00000000000003</ele><time>2026-04-19T10:17:58.892Z</time></trkpt><trkpt lat="43.3069329" lon="12.3283789"><ele>246.00000000000003</ele><time>2026-04-19T10:17:59.891Z</time></trkpt><trkpt lat="43.3068324" lon="12.3284386"><ele>246.0</ele><time>2026-04-19T10:18:00.89Z</time></trkpt><trkpt lat="43.3067365" lon="12.3284886"><ele>246.0</ele><time>2026-04-19T10:18:01.89Z</time></trkpt><trkpt lat="43.3066442" lon="12.3285314"><ele>246.0</ele><time>2026-04-19T10:18:02.891Z</time></trkpt><trkpt lat="43.306565" lon="12.3285714"><ele>246.0</ele><time>2026-04-19T10:18:03.892Z</time></trkpt><trkpt lat="43.3065011" lon="12.3285985"><ele>246.0</ele><time>2026-04-19T10:18:04.891Z</time></trkpt><trkpt lat="43.3064254" lon="12.3286296"><ele>246.0</ele><time>2026-04-19T10:18:06.891Z</time></trkpt><trkpt lat="43.3063578" lon="12.3286414"><ele>246.0</ele><time>2026-04-19T10:18:09.891Z</time></trkpt><trkpt lat="43.3063134" lon="12.3285704"><ele>246.0</ele><time>2026-04-19T10:18:12.892Z</time></trkpt><trkpt lat="43.3063036" lon="12.3284414"><ele>246.8</ele><time>2026-04-19T10:18:14.891Z</time></trkpt><trkpt lat="43.3062686" lon="12.3283241"><ele>247.60000000000002</ele><time>2026-04-19T10:18:16.891Z</time></trkpt><trkpt lat="43.3062406" lon="12.328199"><ele>248.4</ele><time>2026-04-19T10:18:18.89Z</time></trkpt><trkpt lat="43.3061995" lon="12.328067"><ele>249.2</ele><time>2026-04-19T10:18:20.891Z</time></trkpt><trkpt lat="43.3061738" lon="12.3279243"><ele>250.0</ele><time>2026-04-19T10:18:22.89Z</time></trkpt><trkpt lat="43.3061962" lon="12.327761"><ele>249.99999999999997</ele><time>2026-04-19T10:18:24.889Z</time></trkpt><trkpt lat="43.3062107" lon="12.3276768"><ele>250.0</ele><time>2026-04-19T10:18:25.89Z</time></trkpt><trkpt lat="43.3062251" lon="12.3275913"><ele>250.0</ele><time>2026-04-19T10:18:26.89Z</time></trkpt><trkpt lat="43.3062642" lon="12.3274587"><ele>250.0</ele><time>2026-04-19T10:18:28.891Z</time></trkpt><trkpt lat="43.3062981" lon="12.3273501"><ele>249.99999999999997</ele><time>2026-04-19T10:18:30.89Z</time></trkpt><trkpt lat="43.3063264" lon="12.3272592"><ele>250.0</ele><time>2026-04-19T10:18:33.89Z</time></trkpt><trkpt lat="43.3063666" lon="12.3271666"><ele>249.66666666666666</ele><time>2026-04-19T10:18:37.891Z</time></trkpt><trkpt lat="43.3063981" lon="12.3270706"><ele>249.33333333333331</ele><time>2026-04-19T10:18:40.889Z</time></trkpt><trkpt lat="43.3064167" lon="12.3269754"><ele>249.0</ele><time>2026-04-19T10:18:43.89Z</time></trkpt><trkpt lat="43.3064066" lon="12.3268695"><ele>248.66666666666669</ele><time>2026-04-19T10:18:46.89Z</time></trkpt><trkpt lat="43.3064461" lon="12.3267482"><ele>248.33333333333334</ele><time>2026-04-19T10:18:48.891Z</time></trkpt><trkpt lat="43.3064579" lon="12.3266223"><ele>248.0</ele><time>2026-04-19T10:18:50.891Z</time></trkpt><trkpt lat="43.3063877" lon="12.3265764"><ele>247.83333333333334</ele><time>2026-04-19T10:18:52.889Z</time></trkpt><trkpt lat="43.3063018" lon="12.3265626"><ele>247.66666666666669</ele><time>2026-04-19T10:18:54.89Z</time></trkpt><trkpt lat="43.3062224" lon="12.3265304"><ele>247.5</ele><time>2026-04-19T10:18:56.89Z</time></trkpt><trkpt lat="43.3061457" lon="12.3264853"><ele>247.33333333333331</ele><time>2026-04-19T10:18:58.891Z</time></trkpt><trkpt lat="43.3060764" lon="12.3264602"><ele>247.16666666666666</ele><time>2026-04-19T10:19:00.891Z</time></trkpt><trkpt lat="43.306012" lon="12.3264037"><ele>247.0</ele><time>2026-04-19T10:19:02.89Z</time></trkpt><trkpt lat="43.3059293" lon="12.3263615"><ele>245.66666666666666</ele><time>2026-04-19T10:19:04.891Z</time></trkpt><trkpt lat="43.3058571" lon="12.3263068"><ele>244.33333333333331</ele><time>2026-04-19T10:19:06.891Z</time></trkpt><trkpt lat="43.305778" lon="12.3262746"><ele>243.0</ele><time>2026-04-19T10:19:08.89Z</time></trkpt><trkpt lat="43.3057041" lon="12.3262437"><ele>241.66666666666669</ele><time>2026-04-19T10:19:11.891Z</time></trkpt><trkpt lat="43.3056461" lon="12.3261958"><ele>240.33333333333334</ele><time>2026-04-19T10:19:14.89Z</time></trkpt><trkpt lat="43.3056141" lon="12.3260899"><ele>239.0</ele><time>2026-04-19T10:19:16.89Z</time></trkpt><trkpt lat="43.3056046" lon="12.3259928"><ele>239.0</ele><time>2026-04-19T10:19:17.891Z</time></trkpt><trkpt lat="43.3056013" lon="12.3258965"><ele>238.99999999999997</ele><time>2026-04-19T10:19:18.891Z</time></trkpt><trkpt lat="43.3056001" lon="12.3257767"><ele>238.99999999999997</ele><time>2026-04-19T10:19:19.891Z</time></trkpt><trkpt lat="43.3056024" lon="12.3256416"><ele>239.0</ele><time>2026-04-19T10:19:20.89Z</time></trkpt><trkpt lat="43.3055967" lon="12.3254965"><ele>239.0</ele><time>2026-04-19T10:19:21.891Z</time></trkpt><trkpt lat="43.3055851" lon="12.3253328"><ele>238.75</ele><time>2026-04-19T10:19:22.891Z</time></trkpt><trkpt lat="43.3055758" lon="12.3251427"><ele>238.5</ele><time>2026-04-19T10:19:23.89Z</time></trkpt><trkpt lat="43.3055684" lon="12.3249524"><ele>238.25</ele><time>2026-04-19T10:19:24.89Z</time></trkpt><trkpt lat="43.3055576" lon="12.3247514"><ele>238.0</ele><time>2026-04-19T10:19:25.89Z</time></trkpt><trkpt lat="43.3055478" lon="12.3245383"><ele>238.0</ele><time>2026-04-19T10:19:26.89Z</time></trkpt><trkpt lat="43.3055468" lon="12.3243367"><ele>238.0</ele><time>2026-04-19T10:19:27.891Z</time></trkpt><trkpt lat="43.3055445" lon="12.324146"><ele>238.0</ele><time>2026-04-19T10:19:28.891Z</time></trkpt><trkpt lat="43.3055403" lon="12.3239627"><ele>238.0</ele><time>2026-04-19T10:19:29.891Z</time></trkpt><trkpt lat="43.3055353" lon="12.3237708"><ele>238.33333333333331</ele><time>2026-04-19T10:19:30.889Z</time></trkpt><trkpt lat="43.305533" lon="12.3235617"><ele>238.66666666666669</ele><time>2026-04-19T10:19:31.89Z</time></trkpt><trkpt lat="43.3055275" lon="12.3233407"><ele>239.0</ele><time>2026-04-19T10:19:32.889Z</time></trkpt><trkpt lat="43.3055235" lon="12.3231329"><ele>239.25</ele><time>2026-04-19T10:19:33.89Z</time></trkpt><trkpt lat="43.3055194" lon="12.3229298"><ele>239.5</ele><time>2026-04-19T10:19:34.889Z</time></trkpt><trkpt lat="43.3055144" lon="12.3227259"><ele>239.75</ele><time>2026-04-19T10:19:35.889Z</time></trkpt><trkpt lat="43.3055123" lon="12.3225466"><ele>240.0</ele><time>2026-04-19T10:19:36.89Z</time></trkpt><trkpt lat="43.3055078" lon="12.3223749"><ele>240.16666666666666</ele><time>2026-04-19T10:19:37.889Z</time></trkpt><trkpt lat="43.3055045" lon="12.3222268"><ele>240.33333333333331</ele><time>2026-04-19T10:19:38.889Z</time></trkpt><trkpt lat="43.3055033" lon="12.3221112"><ele>240.5</ele><time>2026-04-19T10:19:39.889Z</time></trkpt><trkpt lat="43.3054982" lon="12.3220235"><ele>240.66666666666666</ele><time>2026-04-19T10:19:40.89Z</time></trkpt><trkpt lat="43.3054508" lon="12.3219214"><ele>240.83333333333331</ele><time>2026-04-19T10:19:42.889Z</time></trkpt><trkpt lat="43.3053686" lon="12.3218929"><ele>241.0</ele><time>2026-04-19T10:19:45.888Z</time></trkpt><trkpt lat="43.3053024" lon="12.3218429"><ele>241.0</ele><time>2026-04-19T10:19:48.89Z</time></trkpt><trkpt lat="43.3052116" lon="12.3217292"><ele>241.00000000000003</ele><time>2026-04-19T10:19:50.889Z</time></trkpt><trkpt lat="43.3051398" lon="12.3216153"><ele>241.00000000000003</ele><time>2026-04-19T10:19:52.888Z</time></trkpt><trkpt lat="43.305088" lon="12.321556"><ele>241.0</ele><time>2026-04-19T10:19:53.89Z</time></trkpt><trkpt lat="43.3050311" lon="12.3214783"><ele>241.0</ele><time>2026-04-19T10:19:54.889Z</time></trkpt><trkpt lat="43.3049521" lon="12.3213879"><ele>241.20000000000002</ele><time>2026-04-19T10:19:55.889Z</time></trkpt><trkpt lat="43.3048737" lon="12.3212906"><ele>241.40000000000003</ele><time>2026-04-19T10:19:56.89Z</time></trkpt><trkpt lat="43.3048093" lon="12.3212085"><ele>241.6</ele><time>2026-04-19T10:19:57.889Z</time></trkpt><trkpt lat="43.3047537" lon="12.3210692"><ele>241.8</ele><time>2026-04-19T10:19:59.888Z</time></trkpt><trkpt lat="43.304739" lon="12.3209516"><ele>242.0</ele><time>2026-04-19T10:20:01.89Z</time></trkpt><trkpt lat="43.3046956" lon="12.3208774"><ele>242.00000000000003</ele><time>2026-04-19T10:20:03.89Z</time></trkpt><trkpt lat="43.3046341" lon="12.3208488"><ele>242.0</ele><time>2026-04-19T10:20:06.889Z</time></trkpt><trkpt lat="43.3045329" lon="12.3208519"><ele>242.0</ele><time>2026-04-19T10:30:39.881Z</time></trkpt><trkpt lat="43.3044429" lon="12.3207538"><ele>242.0</ele><time>2026-04-19T10:30:41.882Z</time></trkpt><trkpt lat="43.304393" lon="12.3206905"><ele>242.00000000000003</ele><time>2026-04-19T10:30:42.882Z</time></trkpt><trkpt lat="43.3043433" lon="12.3206314"><ele>242.0</ele><time>2026-04-19T10:30:43.882Z</time></trkpt><trkpt lat="43.3042965" lon="12.32057"><ele>242.50000000000003</ele><time>2026-04-19T10:30:44.882Z</time></trkpt><trkpt lat="43.3042424" lon="12.3204975"><ele>243.0</ele><time>2026-04-19T10:30:45.882Z</time></trkpt><trkpt lat="43.3041829" lon="12.320429"><ele>243.5</ele><time>2026-04-19T10:30:46.883Z</time></trkpt><trkpt lat="43.3041206" lon="12.320351"><ele>244.0</ele><time>2026-04-19T10:30:47.883Z</time></trkpt><trkpt lat="43.3040518" lon="12.3202676"><ele>244.50000000000003</ele><time>2026-04-19T10:30:48.883Z</time></trkpt><trkpt lat="43.3039782" lon="12.3201923"><ele>245.0</ele><time>2026-04-19T10:30:49.882Z</time></trkpt><trkpt lat="43.3038954" lon="12.3201296"><ele>247.2</ele><time>2026-04-19T10:30:50.883Z</time></trkpt><trkpt lat="43.3038034" lon="12.3200903"><ele>249.4</ele><time>2026-04-19T10:30:51.883Z</time></trkpt><trkpt lat="43.3037058" lon="12.3200745"><ele>251.60000000000002</ele><time>2026-04-19T10:30:52.882Z</time></trkpt><trkpt lat="43.303602" lon="12.3200765"><ele>253.8</ele><time>2026-04-19T10:30:53.882Z</time></trkpt><trkpt lat="43.3034838" lon="12.3201449"><ele>256.0</ele><time>2026-04-19T10:30:54.883Z</time></trkpt><trkpt lat="43.3033698" lon="12.3202299"><ele>256.0</ele><time>2026-04-19T10:30:55.883Z</time></trkpt><trkpt lat="43.3032599" lon="12.320328"><ele>256.0</ele><time>2026-04-19T10:30:56.883Z</time></trkpt><trkpt lat="43.303148" lon="12.3204278"><ele>256.0</ele><time>2026-04-19T10:30:57.882Z</time></trkpt><trkpt lat="43.3030297" lon="12.3205249"><ele>256.0</ele><time>2026-04-19T10:30:58.882Z</time></trkpt><trkpt lat="43.3029046" lon="12.3206282"><ele>255.33333333333331</ele><time>2026-04-19T10:30:59.883Z</time></trkpt><trkpt lat="43.3027722" lon="12.3207364"><ele>254.66666666666669</ele><time>2026-04-19T10:31:00.883Z</time></trkpt><trkpt lat="43.3026417" lon="12.3208515"><ele>254.0</ele><time>2026-04-19T10:31:01.883Z</time></trkpt><trkpt lat="43.3025033" lon="12.3209731"><ele>254.0</ele><time>2026-04-19T10:31:02.881Z</time></trkpt><trkpt lat="43.3023615" lon="12.3210976"><ele>254.0</ele><time>2026-04-19T10:31:03.883Z</time></trkpt><trkpt lat="43.3022232" lon="12.3212156"><ele>254.0</ele><time>2026-04-19T10:31:04.883Z</time></trkpt><trkpt lat="43.3020751" lon="12.321338"><ele>255.66666666666669</ele><time>2026-04-19T10:31:05.883Z</time></trkpt><trkpt lat="43.3019324" lon="12.321469"><ele>257.3333333333333</ele><time>2026-04-19T10:31:06.883Z</time></trkpt><trkpt lat="43.3017924" lon="12.3215963"><ele>259.0</ele><time>2026-04-19T10:31:07.883Z</time></trkpt><trkpt lat="43.3016562" lon="12.321704"><ele>259.0</ele><time>2026-04-19T10:31:08.883Z</time></trkpt><trkpt lat="43.3015142" lon="12.3218029"><ele>259.0</ele><time>2026-04-19T10:31:09.883Z</time></trkpt><trkpt lat="43.3013797" lon="12.3218735"><ele>259.0</ele><time>2026-04-19T10:31:10.883Z</time></trkpt><trkpt lat="43.3012499" lon="12.3219116"><ele>259.0</ele><time>2026-04-19T10:31:11.883Z</time></trkpt><trkpt lat="43.301112" lon="12.3219313"><ele>261.0</ele><time>2026-04-19T10:31:12.883Z</time></trkpt><trkpt lat="43.3009813" lon="12.3219091"><ele>263.0</ele><time>2026-04-19T10:31:13.883Z</time></trkpt><trkpt lat="43.3008364" lon="12.3218298"><ele>265.0</ele><time>2026-04-19T10:31:14.882Z</time></trkpt><trkpt lat="43.300683" lon="12.3217627"><ele>267.0</ele><time>2026-04-19T10:31:15.883Z</time></trkpt><trkpt lat="43.3005395" lon="12.3217017"><ele>267.75</ele><time>2026-04-19T10:31:16.882Z</time></trkpt><trkpt lat="43.300408" lon="12.3216387"><ele>268.5</ele><time>2026-04-19T10:31:17.881Z</time></trkpt><trkpt lat="43.3002827" lon="12.3215613"><ele>269.25</ele><time>2026-04-19T10:31:18.883Z</time></trkpt><trkpt lat="43.3001678" lon="12.3214644"><ele>270.0</ele><time>2026-04-19T10:31:19.883Z</time></trkpt><trkpt lat="43.3000704" lon="12.3213434"><ele>271.5</ele><time>2026-04-19T10:31:20.883Z</time></trkpt><trkpt lat="43.2999935" lon="12.3212096"><ele>273.0</ele><time>2026-04-19T10:31:21.883Z</time></trkpt><trkpt lat="43.299941" lon="12.3210525"><ele>274.5</ele><time>2026-04-19T10:31:22.882Z</time></trkpt><trkpt lat="43.2998965" lon="12.320896"><ele>276.0</ele><time>2026-04-19T10:31:23.881Z</time></trkpt><trkpt lat="43.2998783" lon="12.3207195"><ele>277.25</ele><time>2026-04-19T10:31:24.883Z</time></trkpt><trkpt lat="43.2998834" lon="12.3205299"><ele>278.5</ele><time>2026-04-19T10:31:25.882Z</time></trkpt><trkpt lat="43.2998968" lon="12.3203378"><ele>279.75</ele><time>2026-04-19T10:31:26.883Z</time></trkpt><trkpt lat="43.2999083" lon="12.3201621"><ele>281.0</ele><time>2026-04-19T10:31:27.883Z</time></trkpt><trkpt lat="43.2998949" lon="12.3199857"><ele>281.0</ele><time>2026-04-19T10:31:28.883Z</time></trkpt><trkpt lat="43.2998485" lon="12.3198251"><ele>281.0</ele><time>2026-04-19T10:31:29.883Z</time></trkpt><trkpt lat="43.29978" lon="12.3196827"><ele>281.0</ele><time>2026-04-19T10:31:30.882Z</time></trkpt><trkpt lat="43.2996853" lon="12.3195653"><ele>281.0</ele><time>2026-04-19T10:31:31.882Z</time></trkpt><trkpt lat="43.2995617" lon="12.31948"><ele>281.5</ele><time>2026-04-19T10:31:32.883Z</time></trkpt><trkpt lat="43.299419" lon="12.3194351"><ele>282.0</ele><time>2026-04-19T10:31:33.883Z</time></trkpt><trkpt lat="43.2992677" lon="12.319395"><ele>282.5</ele><time>2026-04-19T10:31:34.882Z</time></trkpt><trkpt lat="43.299125" lon="12.319344"><ele>283.0</ele><time>2026-04-19T10:31:35.883Z</time></trkpt><trkpt lat="43.2989903" lon="12.3192669"><ele>282.75</ele><time>2026-04-19T10:31:36.883Z</time></trkpt><trkpt lat="43.2988613" lon="12.3191693"><ele>282.5</ele><time>2026-04-19T10:31:37.882Z</time></trkpt><trkpt lat="43.2987521" lon="12.3190534"><ele>282.25</ele><time>2026-04-19T10:31:38.882Z</time></trkpt><trkpt lat="43.2986683" lon="12.3189348"><ele>282.0</ele><time>2026-04-19T10:31:39.883Z</time></trkpt><trkpt lat="43.2986103" lon="12.3188219"><ele>282.0</ele><time>2026-04-19T10:31:40.883Z</time></trkpt><trkpt lat="43.2985966" lon="12.3186975"><ele>282.0</ele><time>2026-04-19T10:31:41.881Z</time></trkpt><trkpt lat="43.2986201" lon="12.3185798"><ele>282.0</ele><time>2026-04-19T10:31:42.883Z</time></trkpt><trkpt lat="43.2986728" lon="12.3184914"><ele>282.0</ele><time>2026-04-19T10:31:43.882Z</time></trkpt><trkpt lat="43.2987469" lon="12.3184448"><ele>282.0</ele><time>2026-04-19T10:31:44.882Z</time></trkpt><trkpt lat="43.2988456" lon="12.3184529"><ele>282.0</ele><time>2026-04-19T10:31:45.882Z</time></trkpt><trkpt lat="43.2989439" lon="12.3185025"><ele>285.0</ele><time>2026-04-19T10:31:46.883Z</time></trkpt><trkpt lat="43.2990397" lon="12.3185846"><ele>288.0</ele><time>2026-04-19T10:31:47.882Z</time></trkpt><trkpt lat="43.2991393" lon="12.3186628"><ele>291.0</ele><time>2026-04-19T10:31:48.883Z</time></trkpt><trkpt lat="43.2992552" lon="12.3187094"><ele>294.0</ele><time>2026-04-19T10:31:49.882Z</time></trkpt><trkpt lat="43.2993832" lon="12.3187268"><ele>294.0</ele><time>2026-04-19T10:31:50.882Z</time></trkpt><trkpt lat="43.2995163" lon="12.3187199"><ele>294.0</ele><time>2026-04-19T10:31:51.883Z</time></trkpt><trkpt lat="43.2996362" lon="12.3187013"><ele>294.0</ele><time>2026-04-19T10:31:52.882Z</time></trkpt><trkpt lat="43.2997792" lon="12.3186808"><ele>294.0</ele><time>2026-04-19T10:31:53.88Z</time></trkpt><trkpt lat="43.2999291" lon="12.3186817"><ele>292.0</ele><time>2026-04-19T10:31:54.88Z</time></trkpt><trkpt lat="43.3000815" lon="12.3187224"><ele>290.0</ele><time>2026-04-19T10:31:55.882Z</time></trkpt><trkpt lat="43.3002332" lon="12.3188058"><ele>288.0</ele><time>2026-04-19T10:31:56.882Z</time></trkpt><trkpt lat="43.3003826" lon="12.3189212"><ele>288.0</ele><time>2026-04-19T10:31:57.88Z</time></trkpt><trkpt lat="43.3005153" lon="12.3190417"><ele>288.0</ele><time>2026-04-19T10:31:58.881Z</time></trkpt><trkpt lat="43.3006407" lon="12.3191518"><ele>288.0</ele><time>2026-04-19T10:31:59.88Z</time></trkpt><trkpt lat="43.3007528" lon="12.319241"><ele>288.0</ele><time>2026-04-19T10:32:00.882Z</time></trkpt><trkpt lat="43.300856" lon="12.3192949"><ele>289.6</ele><time>2026-04-19T10:32:01.881Z</time></trkpt><trkpt lat="43.3009523" lon="12.3193014"><ele>291.20000000000005</ele><time>2026-04-19T10:32:02.881Z</time></trkpt><trkpt lat="43.3010349" lon="12.3192675"><ele>292.8</ele><time>2026-04-19T10:32:03.881Z</time></trkpt><trkpt lat="43.3010983" lon="12.3191891"><ele>294.40000000000003</ele><time>2026-04-19T10:32:04.882Z</time></trkpt><trkpt lat="43.3011414" lon="12.3190768"><ele>296.0</ele><time>2026-04-19T10:32:05.882Z</time></trkpt><trkpt lat="43.3011465" lon="12.3189436"><ele>298.0</ele><time>2026-04-19T10:32:06.881Z</time></trkpt><trkpt lat="43.301108" lon="12.3188254"><ele>300.0</ele><time>2026-04-19T10:32:07.881Z</time></trkpt><trkpt lat="43.3010404" lon="12.3187226"><ele>302.0</ele><time>2026-04-19T10:32:08.881Z</time></trkpt><trkpt lat="43.3009406" lon="12.3186427"><ele>304.0</ele><time>2026-04-19T10:32:09.882Z</time></trkpt><trkpt lat="43.3008221" lon="12.3185692"><ele>306.0</ele><time>2026-04-19T10:32:10.88Z</time></trkpt><trkpt lat="43.3006858" lon="12.3184873"><ele>304.3333333333333</ele><time>2026-04-19T10:32:11.882Z</time></trkpt><trkpt lat="43.3005571" lon="12.3184064"><ele>302.66666666666663</ele><time>2026-04-19T10:32:12.882Z</time></trkpt><trkpt lat="43.3004162" lon="12.3183194"><ele>301.0</ele><time>2026-04-19T10:32:13.881Z</time></trkpt><trkpt lat="43.3002661" lon="12.3182302"><ele>301.0</ele><time>2026-04-19T10:32:14.88Z</time></trkpt><trkpt lat="43.3001191" lon="12.3181372"><ele>301.0</ele><time>2026-04-19T10:32:15.882Z</time></trkpt><trkpt lat="43.2999851" lon="12.3180562"><ele>301.0</ele><time>2026-04-19T10:32:16.881Z</time></trkpt><trkpt lat="43.299866" lon="12.3179761"><ele>301.0</ele><time>2026-04-19T10:32:17.881Z</time></trkpt><trkpt lat="43.2997758" lon="12.317892"><ele>301.2</ele><time>2026-04-19T10:32:18.882Z</time></trkpt><trkpt lat="43.2997198" lon="12.3177801"><ele>301.40000000000003</ele><time>2026-04-19T10:32:19.882Z</time></trkpt><trkpt lat="43.2997032" lon="12.3176479"><ele>301.6</ele><time>2026-04-19T10:32:20.882Z</time></trkpt><trkpt lat="43.2997322" lon="12.3175299"><ele>301.8</ele><time>2026-04-19T10:32:21.881Z</time></trkpt><trkpt lat="43.2998012" lon="12.3174517"><ele>302.0</ele><time>2026-04-19T10:32:22.881Z</time></trkpt><trkpt lat="43.299887" lon="12.3174221"><ele>305.0</ele><time>2026-04-19T10:32:23.881Z</time></trkpt><trkpt lat="43.2999887" lon="12.317448"><ele>308.0</ele><time>2026-04-19T10:32:24.882Z</time></trkpt><trkpt lat="43.3000954" lon="12.3175179"><ele>311.0</ele><time>2026-04-19T10:32:25.88Z</time></trkpt><trkpt lat="43.3002063" lon="12.3176127"><ele>314.0</ele><time>2026-04-19T10:32:26.881Z</time></trkpt><trkpt lat="43.3003148" lon="12.3177108"><ele>314.0</ele><time>2026-04-19T10:32:27.881Z</time></trkpt><trkpt lat="43.3004102" lon="12.3177939"><ele>314.0</ele><time>2026-04-19T10:32:28.881Z</time></trkpt><trkpt lat="43.3004994" lon="12.3178647"><ele>314.0</ele><time>2026-04-19T10:32:29.882Z</time></trkpt><trkpt lat="43.3005835" lon="12.3179057"><ele>314.0</ele><time>2026-04-19T10:32:30.881Z</time></trkpt><trkpt lat="43.3006675" lon="12.3179067"><ele>314.0</ele><time>2026-04-19T10:32:31.882Z</time></trkpt><trkpt lat="43.3007472" lon="12.3178666"><ele>315.2</ele><time>2026-04-19T10:32:32.882Z</time></trkpt><trkpt lat="43.3008096" lon="12.3177846"><ele>316.4</ele><time>2026-04-19T10:32:33.881Z</time></trkpt><trkpt lat="43.3008551" lon="12.3177009"><ele>317.6</ele><time>2026-04-19T10:32:34.881Z</time></trkpt><trkpt lat="43.3008196" lon="12.3175605"><ele>318.8</ele><time>2026-04-19T10:32:35.882Z</time></trkpt><trkpt lat="43.300776" lon="12.3174543"><ele>320.0</ele><time>2026-04-19T10:32:36.88Z</time></trkpt><trkpt lat="43.3006961" lon="12.3173737"><ele>320.0</ele><time>2026-04-19T10:32:37.881Z</time></trkpt><trkpt lat="43.300595" lon="12.3173156"><ele>320.0</ele><time>2026-04-19T10:32:38.882Z</time></trkpt><trkpt lat="43.3004973" lon="12.3172594"><ele>320.0</ele><time>2026-04-19T10:32:39.882Z</time></trkpt><trkpt lat="43.3003826" lon="12.3171763"><ele>320.0</ele><time>2026-04-19T10:32:40.882Z</time></trkpt><trkpt lat="43.3002608" lon="12.3170767"><ele>323.6666666666667</ele><time>2026-04-19T10:32:41.881Z</time></trkpt><trkpt lat="43.300133" lon="12.3169539"><ele>327.3333333333333</ele><time>2026-04-19T10:32:42.882Z</time></trkpt><trkpt lat="43.3000067" lon="12.3168363"><ele>331.0</ele><time>2026-04-19T10:32:43.882Z</time></trkpt><trkpt lat="43.2998736" lon="12.3167065"><ele>332.0</ele><time>2026-04-19T10:32:44.881Z</time></trkpt><trkpt lat="43.2997246" lon="12.3165662"><ele>333.0</ele><time>2026-04-19T10:32:45.882Z</time></trkpt><trkpt lat="43.299575" lon="12.3164279"><ele>334.0</ele><time>2026-04-19T10:32:46.881Z</time></trkpt><trkpt lat="43.29943" lon="12.3162801"><ele>334.0</ele><time>2026-04-19T10:32:47.882Z</time></trkpt><trkpt lat="43.2992853" lon="12.3161296"><ele>334.0</ele><time>2026-04-19T10:32:48.88Z</time></trkpt><trkpt lat="43.299154" lon="12.315933"><ele>334.0</ele><time>2026-04-19T10:32:49.881Z</time></trkpt><trkpt lat="43.2990274" lon="12.3157339"><ele>333.0</ele><time>2026-04-19T10:32:50.882Z</time></trkpt><trkpt lat="43.298904" lon="12.3155465"><ele>332.0</ele><time>2026-04-19T10:32:51.88Z</time></trkpt><trkpt lat="43.2987749" lon="12.3153503"><ele>331.0</ele><time>2026-04-19T10:32:52.881Z</time></trkpt><trkpt lat="43.2986525" lon="12.3151497"><ele>331.0</ele><time>2026-04-19T10:32:53.881Z</time></trkpt><trkpt lat="43.2985388" lon="12.3149359"><ele>331.0</ele><time>2026-04-19T10:32:54.881Z</time></trkpt><trkpt lat="43.2984304" lon="12.3147193"><ele>331.0</ele><time>2026-04-19T10:32:55.881Z</time></trkpt><trkpt lat="43.2983323" lon="12.3145167"><ele>331.0</ele><time>2026-04-19T10:32:56.881Z</time></trkpt><trkpt lat="43.2982389" lon="12.3143276"><ele>331.0</ele><time>2026-04-19T10:32:57.881Z</time></trkpt><trkpt lat="43.2981381" lon="12.3141419"><ele>331.0</ele><time>2026-04-19T10:32:58.881Z</time></trkpt><trkpt lat="43.2980292" lon="12.3139701"><ele>337.0</ele><time>2026-04-19T10:32:59.881Z</time></trkpt><trkpt lat="43.2979068" lon="12.3138212"><ele>343.0</ele><time>2026-04-19T10:33:00.881Z</time></trkpt><trkpt lat="43.2977638" lon="12.3136987"><ele>349.0</ele><time>2026-04-19T10:33:01.881Z</time></trkpt><trkpt lat="43.2976301" lon="12.3135752"><ele>349.0</ele><time>2026-04-19T10:33:02.882Z</time></trkpt><trkpt lat="43.2975034" lon="12.3134632"><ele>349.0</ele><time>2026-04-19T10:33:03.882Z</time></trkpt><trkpt lat="43.297391" lon="12.313325"><ele>349.0</ele><time>2026-04-19T10:33:04.881Z</time></trkpt><trkpt lat="43.2972754" lon="12.3131794"><ele>346.66666666666663</ele><time>2026-04-19T10:33:05.882Z</time></trkpt><trkpt lat="43.2971948" lon="12.3129651"><ele>344.3333333333333</ele><time>2026-04-19T10:33:06.882Z</time></trkpt><trkpt lat="43.2971051" lon="12.3127591"><ele>342.0</ele><time>2026-04-19T10:33:07.882Z</time></trkpt><trkpt lat="43.2970419" lon="12.312547"><ele>342.0</ele><time>2026-04-19T10:33:08.882Z</time></trkpt><trkpt lat="43.296975" lon="12.31235"><ele>342.0</ele><time>2026-04-19T10:33:09.881Z</time></trkpt><trkpt lat="43.2968876" lon="12.3121684"><ele>342.0</ele><time>2026-04-19T10:33:10.882Z</time></trkpt><trkpt lat="43.2967749" lon="12.3120036"><ele>343.0</ele><time>2026-04-19T10:33:11.881Z</time></trkpt><trkpt lat="43.2966514" lon="12.3118381"><ele>344.0</ele><time>2026-04-19T10:33:12.881Z</time></trkpt><trkpt lat="43.2965235" lon="12.3116687"><ele>345.0</ele><time>2026-04-19T10:33:13.88Z</time></trkpt><trkpt lat="43.2963852" lon="12.3115104"><ele>351.3333333333333</ele><time>2026-04-19T10:33:14.881Z</time></trkpt><trkpt lat="43.2962584" lon="12.3113722"><ele>357.66666666666663</ele><time>2026-04-19T10:33:15.881Z</time></trkpt><trkpt lat="43.2961246" lon="12.3112484"><ele>364.0</ele><time>2026-04-19T10:33:16.881Z</time></trkpt><trkpt lat="43.2959961" lon="12.311148"><ele>364.0</ele><time>2026-04-19T10:33:17.882Z</time></trkpt><trkpt lat="43.2958809" lon="12.3110482"><ele>364.0</ele><time>2026-04-19T10:33:18.88Z</time></trkpt><trkpt lat="43.2958059" lon="12.3109076"><ele>364.0</ele><time>2026-04-19T10:33:19.881Z</time></trkpt><trkpt lat="43.2957478" lon="12.3107658"><ele>364.0</ele><time>2026-04-19T10:33:20.882Z</time></trkpt><trkpt lat="43.295722" lon="12.3105786"><ele>366.3333333333333</ele><time>2026-04-19T10:33:21.881Z</time></trkpt><trkpt lat="43.2956928" lon="12.3103951"><ele>368.6666666666667</ele><time>2026-04-19T10:33:22.882Z</time></trkpt><trkpt lat="43.2957018" lon="12.3101736"><ele>371.0</ele><time>2026-04-19T10:33:23.88Z</time></trkpt><trkpt lat="43.2956853" lon="12.3099635"><ele>371.0</ele><time>2026-04-19T10:33:24.88Z</time></trkpt><trkpt lat="43.295632" lon="12.3097516"><ele>371.0</ele><time>2026-04-19T10:33:25.881Z</time></trkpt><trkpt lat="43.2955948" lon="12.3095547"><ele>371.0</ele><time>2026-04-19T10:33:26.88Z</time></trkpt><trkpt lat="43.2955407" lon="12.3093766"><ele>369.25</ele><time>2026-04-19T10:33:27.882Z</time></trkpt><trkpt lat="43.2954566" lon="12.3092174"><ele>367.5</ele><time>2026-04-19T10:33:28.88Z</time></trkpt><trkpt lat="43.2952926" lon="12.3091698"><ele>365.75</ele><time>2026-04-19T10:33:29.881Z</time></trkpt><trkpt lat="43.2951767" lon="12.3091054"><ele>364.0</ele><time>2026-04-19T10:33:30.881Z</time></trkpt><trkpt lat="43.2950572" lon="12.3090412"><ele>364.0</ele><time>2026-04-19T10:33:31.881Z</time></trkpt><trkpt lat="43.294964" lon="12.3089585"><ele>364.0</ele><time>2026-04-19T10:33:32.881Z</time></trkpt><trkpt lat="43.2948828" lon="12.3088264"><ele>364.0</ele><time>2026-04-19T10:33:33.882Z</time></trkpt><trkpt lat="43.2948195" lon="12.3086583"><ele>364.0</ele><time>2026-04-19T10:33:34.881Z</time></trkpt><trkpt lat="43.2947439" lon="12.3084646"><ele>363.3333333333333</ele><time>2026-04-19T10:33:35.881Z</time></trkpt><trkpt lat="43.2946582" lon="12.3082836"><ele>362.6666666666667</ele><time>2026-04-19T10:33:36.881Z</time></trkpt><trkpt lat="43.2945694" lon="12.3080841"><ele>362.0</ele><time>2026-04-19T10:33:37.881Z</time></trkpt><trkpt lat="43.2944759" lon="12.3078628"><ele>365.33333333333337</ele><time>2026-04-19T10:33:38.88Z</time></trkpt><trkpt lat="43.2943974" lon="12.3076202"><ele>368.6666666666667</ele><time>2026-04-19T10:33:39.882Z</time></trkpt><trkpt lat="43.2943222" lon="12.3073912"><ele>372.0</ele><time>2026-04-19T10:33:40.881Z</time></trkpt><trkpt lat="43.2942343" lon="12.307178"><ele>372.0</ele><time>2026-04-19T10:33:41.881Z</time></trkpt><trkpt lat="43.2941264" lon="12.3069734"><ele>372.0</ele><time>2026-04-19T10:33:42.881Z</time></trkpt><trkpt lat="43.294" lon="12.3067838"><ele>372.0</ele><time>2026-04-19T10:33:43.881Z</time></trkpt><trkpt lat="43.2938577" lon="12.3065906"><ele>374.3333333333333</ele><time>2026-04-19T10:33:44.881Z</time></trkpt><trkpt lat="43.2937042" lon="12.3064047"><ele>376.66666666666663</ele><time>2026-04-19T10:33:45.881Z</time></trkpt><trkpt lat="43.2935584" lon="12.3062469"><ele>379.0</ele><time>2026-04-19T10:33:46.882Z</time></trkpt><trkpt lat="43.2934203" lon="12.3061054"><ele>379.0</ele><time>2026-04-19T10:33:47.881Z</time></trkpt><trkpt lat="43.2932917" lon="12.3059679"><ele>379.0</ele><time>2026-04-19T10:33:48.88Z</time></trkpt><trkpt lat="43.2931801" lon="12.3058316"><ele>379.0</ele><time>2026-04-19T10:33:49.882Z</time></trkpt><trkpt lat="43.2930954" lon="12.305688"><ele>379.0</ele><time>2026-04-19T10:33:50.88Z</time></trkpt><trkpt lat="43.2930355" lon="12.3055183"><ele>385.25</ele><time>2026-04-19T10:33:51.88Z</time></trkpt><trkpt lat="43.2930017" lon="12.305318"><ele>391.5</ele><time>2026-04-19T10:33:52.881Z</time></trkpt><trkpt lat="43.2929786" lon="12.3051194"><ele>397.75</ele><time>2026-04-19T10:33:53.879Z</time></trkpt><trkpt lat="43.2929508" lon="12.3049262"><ele>404.0</ele><time>2026-04-19T10:33:54.88Z</time></trkpt><trkpt lat="43.2929044" lon="12.3047515"><ele>400.25</ele><time>2026-04-19T10:33:55.88Z</time></trkpt><trkpt lat="43.2928446" lon="12.30459"><ele>396.5</ele><time>2026-04-19T10:33:56.88Z</time></trkpt><trkpt lat="43.2927555" lon="12.3044486"><ele>392.75</ele><time>2026-04-19T10:33:57.88Z</time></trkpt><trkpt lat="43.2926454" lon="12.3043236"><ele>389.0</ele><time>2026-04-19T10:33:58.88Z</time></trkpt><trkpt lat="43.2925064" lon="12.3042191"><ele>389.0</ele><time>2026-04-19T10:33:59.88Z</time></trkpt><trkpt lat="43.2923484" lon="12.3041436"><ele>389.0</ele><time>2026-04-19T10:34:00.881Z</time></trkpt><trkpt lat="43.2921714" lon="12.3040936"><ele>389.0</ele><time>2026-04-19T10:34:01.88Z</time></trkpt><trkpt lat="43.2919875" lon="12.3040495"><ele>392.3333333333333</ele><time>2026-04-19T10:34:02.881Z</time></trkpt><trkpt lat="43.2918037" lon="12.3040076"><ele>395.66666666666663</ele><time>2026-04-19T10:34:03.88Z</time></trkpt><trkpt lat="43.2916224" lon="12.3039929"><ele>399.0</ele><time>2026-04-19T10:34:04.879Z</time></trkpt><trkpt lat="43.2914461" lon="12.3039625"><ele>399.75</ele><time>2026-04-19T10:34:05.879Z</time></trkpt><trkpt lat="43.2912878" lon="12.3039369"><ele>400.5</ele><time>2026-04-19T10:34:06.879Z</time></trkpt><trkpt lat="43.2911484" lon="12.3038984"><ele>401.25</ele><time>2026-04-19T10:34:07.88Z</time></trkpt><trkpt lat="43.2910306" lon="12.3038327"><ele>402.0</ele><time>2026-04-19T10:34:08.88Z</time></trkpt><trkpt lat="43.2909413" lon="12.3037382"><ele>402.25</ele><time>2026-04-19T10:34:09.88Z</time></trkpt><trkpt lat="43.2908566" lon="12.3036383"><ele>402.5</ele><time>2026-04-19T10:34:10.881Z</time></trkpt><trkpt lat="43.2908333" lon="12.3034838"><ele>402.75</ele><time>2026-04-19T10:34:11.88Z</time></trkpt><trkpt lat="43.2907789" lon="12.3033251"><ele>403.0</ele><time>2026-04-19T10:34:12.881Z</time></trkpt><trkpt lat="43.2907253" lon="12.3031498"><ele>402.0</ele><time>2026-04-19T10:34:13.879Z</time></trkpt><trkpt lat="43.2906706" lon="12.302964"><ele>401.0</ele><time>2026-04-19T10:34:14.88Z</time></trkpt><trkpt lat="43.2906299" lon="12.3027882"><ele>400.0</ele><time>2026-04-19T10:34:15.88Z</time></trkpt><trkpt lat="43.2905865" lon="12.3026224"><ele>399.0</ele><time>2026-04-19T10:34:16.88Z</time></trkpt><trkpt lat="43.2905455" lon="12.3024654"><ele>398.0</ele><time>2026-04-19T10:34:17.881Z</time></trkpt><trkpt lat="43.2905043" lon="12.3023277"><ele>397.0</ele><time>2026-04-19T10:34:18.879Z</time></trkpt><trkpt lat="43.2904504" lon="12.3022009"><ele>396.0</ele><time>2026-04-19T10:34:19.881Z</time></trkpt><trkpt lat="43.2903765" lon="12.3021068"><ele>395.0</ele><time>2026-04-19T10:34:20.881Z</time></trkpt><trkpt lat="43.2902792" lon="12.3020617"><ele>394.0</ele><time>2026-04-19T10:34:21.881Z</time></trkpt><trkpt lat="43.2901931" lon="12.3020374"><ele>394.0</ele><time>2026-04-19T10:34:22.88Z</time></trkpt><trkpt lat="43.2900813" lon="12.3021412"><ele>394.0</ele><time>2026-04-19T10:34:23.881Z</time></trkpt><trkpt lat="43.2899869" lon="12.3022454"><ele>394.0</ele><time>2026-04-19T10:34:24.879Z</time></trkpt><trkpt lat="43.2898956" lon="12.3023777"><ele>394.0</ele><time>2026-04-19T10:34:25.879Z</time></trkpt><trkpt lat="43.2898026" lon="12.3025321"><ele>396.0</ele><time>2026-04-19T10:34:26.88Z</time></trkpt><trkpt lat="43.289704" lon="12.3026868"><ele>398.0</ele><time>2026-04-19T10:34:27.88Z</time></trkpt><trkpt lat="43.2896133" lon="12.302849"><ele>400.0</ele><time>2026-04-19T10:34:28.881Z</time></trkpt><trkpt lat="43.2895165" lon="12.303008"><ele>402.0</ele><time>2026-04-19T10:34:29.88Z</time></trkpt><trkpt lat="43.2894178" lon="12.3031529"><ele>404.25</ele><time>2026-04-19T10:34:30.88Z</time></trkpt><trkpt lat="43.2893232" lon="12.3032768"><ele>406.5</ele><time>2026-04-19T10:34:31.88Z</time></trkpt><trkpt lat="43.2892193" lon="12.3033635"><ele>408.75</ele><time>2026-04-19T10:34:32.881Z</time></trkpt><trkpt lat="43.2891104" lon="12.3034092"><ele>411.0</ele><time>2026-04-19T10:34:33.881Z</time></trkpt><trkpt lat="43.2889913" lon="12.3034109"><ele>410.75</ele><time>2026-04-19T10:34:34.88Z</time></trkpt><trkpt lat="43.2888697" lon="12.3033828"><ele>410.5</ele><time>2026-04-19T10:34:35.881Z</time></trkpt><trkpt lat="43.2887422" lon="12.3033334"><ele>410.25</ele><time>2026-04-19T10:34:36.881Z</time></trkpt><trkpt lat="43.2886172" lon="12.3032435"><ele>410.0</ele><time>2026-04-19T10:34:37.88Z</time></trkpt><trkpt lat="43.288483" lon="12.3031303"><ele>409.0</ele><time>2026-04-19T10:34:38.88Z</time></trkpt><trkpt lat="43.2883508" lon="12.3029919"><ele>408.0</ele><time>2026-04-19T10:34:39.88Z</time></trkpt><trkpt lat="43.2882358" lon="12.3028467"><ele>407.0</ele><time>2026-04-19T10:34:40.88Z</time></trkpt><trkpt lat="43.2881233" lon="12.3027056"><ele>410.0</ele><time>2026-04-19T10:34:41.88Z</time></trkpt><trkpt lat="43.28801" lon="12.3025736"><ele>413.0</ele><time>2026-04-19T10:34:42.879Z</time></trkpt><trkpt lat="43.2879021" lon="12.302425"><ele>416.0</ele><time>2026-04-19T10:34:43.881Z</time></trkpt><trkpt lat="43.2877949" lon="12.3022736"><ele>412.3333333333333</ele><time>2026-04-19T10:34:44.88Z</time></trkpt><trkpt lat="43.2876766" lon="12.302142"><ele>408.66666666666663</ele><time>2026-04-19T10:34:45.881Z</time></trkpt><trkpt lat="43.2875427" lon="12.3020313"><ele>405.0</ele><time>2026-04-19T10:34:46.881Z</time></trkpt><trkpt lat="43.2874139" lon="12.3019208"><ele>405.0</ele><time>2026-04-19T10:34:47.881Z</time></trkpt><trkpt lat="43.287284" lon="12.3018066"><ele>405.0</ele><time>2026-04-19T10:34:48.881Z</time></trkpt><trkpt lat="43.2871623" lon="12.3017058"><ele>405.0</ele><time>2026-04-19T10:34:49.879Z</time></trkpt><trkpt lat="43.2870529" lon="12.3016189"><ele>405.0</ele><time>2026-04-19T10:34:50.881Z</time></trkpt><trkpt lat="43.2869418" lon="12.3015597"><ele>405.25</ele><time>2026-04-19T10:34:51.879Z</time></trkpt><trkpt lat="43.2868338" lon="12.301533"><ele>405.5</ele><time>2026-04-19T10:34:52.88Z</time></trkpt><trkpt lat="43.2867124" lon="12.3015165"><ele>405.75</ele><time>2026-04-19T10:34:53.879Z</time></trkpt><trkpt lat="43.2865631" lon="12.3015844"><ele>406.0</ele><time>2026-04-19T10:34:54.88Z</time></trkpt><trkpt lat="43.2864229" lon="12.3016175"><ele>406.0</ele><time>2026-04-19T10:34:55.88Z</time></trkpt><trkpt lat="43.2862265" lon="12.3016821"><ele>406.0</ele><time>2026-04-19T10:34:56.88Z</time></trkpt><trkpt lat="43.2860516" lon="12.3017261"><ele>406.0</ele><time>2026-04-19T10:34:57.88Z</time></trkpt><trkpt lat="43.2858578" lon="12.3017511"><ele>406.0</ele><time>2026-04-19T10:34:58.88Z</time></trkpt><trkpt lat="43.2856613" lon="12.3017614"><ele>406.0</ele><time>2026-04-19T10:34:59.881Z</time></trkpt><trkpt lat="43.2854644" lon="12.3017731"><ele>406.0</ele><time>2026-04-19T10:35:00.881Z</time></trkpt><trkpt lat="43.2852732" lon="12.3017944"><ele>408.33333333333337</ele><time>2026-04-19T10:35:01.879Z</time></trkpt><trkpt lat="43.2851006" lon="12.3018144"><ele>410.66666666666663</ele><time>2026-04-19T10:35:02.88Z</time></trkpt><trkpt lat="43.2849362" lon="12.301837"><ele>413.0</ele><time>2026-04-19T10:35:03.88Z</time></trkpt><trkpt lat="43.2847866" lon="12.3018599"><ele>414.25</ele><time>2026-04-19T10:35:04.879Z</time></trkpt><trkpt lat="43.2846479" lon="12.3018787"><ele>415.5</ele><time>2026-04-19T10:35:05.88Z</time></trkpt><trkpt lat="43.284516" lon="12.3018711"><ele>416.75</ele><time>2026-04-19T10:35:06.881Z</time></trkpt><trkpt lat="43.2843958" lon="12.3018265"><ele>418.0</ele><time>2026-04-19T10:35:07.88Z</time></trkpt><trkpt lat="43.2842761" lon="12.3017467"><ele>418.0</ele><time>2026-04-19T10:35:08.881Z</time></trkpt><trkpt lat="43.2841492" lon="12.3016468"><ele>418.0</ele><time>2026-04-19T10:35:09.881Z</time></trkpt><trkpt lat="43.2840169" lon="12.3015294"><ele>418.0</ele><time>2026-04-19T10:35:10.88Z</time></trkpt><trkpt lat="43.2838802" lon="12.3014116"><ele>420.0</ele><time>2026-04-19T10:35:11.879Z</time></trkpt><trkpt lat="43.2837533" lon="12.3012984"><ele>422.0</ele><time>2026-04-19T10:35:12.88Z</time></trkpt><trkpt lat="43.2836175" lon="12.301206"><ele>424.0</ele><time>2026-04-19T10:35:13.88Z</time></trkpt><trkpt lat="43.283468" lon="12.3011385"><ele>424.0</ele><time>2026-04-19T10:35:14.879Z</time></trkpt><trkpt lat="43.2833089" lon="12.3010944"><ele>424.0</ele><time>2026-04-19T10:35:15.88Z</time></trkpt><trkpt lat="43.2831453" lon="12.3010612"><ele>424.0</ele><time>2026-04-19T10:35:16.881Z</time></trkpt><trkpt lat="43.2829776" lon="12.3010294"><ele>423.33333333333337</ele><time>2026-04-19T10:35:17.88Z</time></trkpt><trkpt lat="43.2828085" lon="12.3009866"><ele>422.66666666666663</ele><time>2026-04-19T10:35:18.88Z</time></trkpt><trkpt lat="43.2826517" lon="12.3009283"><ele>422.0</ele><time>2026-04-19T10:35:19.88Z</time></trkpt><trkpt lat="43.2825062" lon="12.3008563"><ele>422.0</ele><time>2026-04-19T10:35:20.881Z</time></trkpt><trkpt lat="43.2823695" lon="12.3007918"><ele>422.0</ele><time>2026-04-19T10:35:21.879Z</time></trkpt><trkpt lat="43.282231" lon="12.3007503"><ele>422.0</ele><time>2026-04-19T10:35:22.88Z</time></trkpt><trkpt lat="43.2820902" lon="12.3007406"><ele>422.0</ele><time>2026-04-19T10:35:23.88Z</time></trkpt><trkpt lat="43.2819399" lon="12.3007683"><ele>423.66666666666663</ele><time>2026-04-19T10:35:24.881Z</time></trkpt><trkpt lat="43.2817963" lon="12.3008073"><ele>425.33333333333337</ele><time>2026-04-19T10:35:25.88Z</time></trkpt><trkpt lat="43.2816237" lon="12.3009276"><ele>427.0</ele><time>2026-04-19T10:35:26.879Z</time></trkpt><trkpt lat="43.281468" lon="12.3010115"><ele>428.5</ele><time>2026-04-19T10:35:27.881Z</time></trkpt><trkpt lat="43.2813207" lon="12.3010823"><ele>430.0</ele><time>2026-04-19T10:35:28.879Z</time></trkpt><trkpt lat="43.2811848" lon="12.3011243"><ele>431.5</ele><time>2026-04-19T10:35:29.88Z</time></trkpt><trkpt lat="43.2810419" lon="12.3011388"><ele>433.0</ele><time>2026-04-19T10:35:30.881Z</time></trkpt><trkpt lat="43.2808869" lon="12.3011189"><ele>433.0</ele><time>2026-04-19T10:35:31.88Z</time></trkpt><trkpt lat="43.2807336" lon="12.3010915"><ele>433.0</ele><time>2026-04-19T10:35:32.88Z</time></trkpt><trkpt lat="43.2805959" lon="12.3010765"><ele>433.0</ele><time>2026-04-19T10:35:33.88Z</time></trkpt><trkpt lat="43.2804732" lon="12.3010924"><ele>433.0</ele><time>2026-04-19T10:35:34.88Z</time></trkpt><trkpt lat="43.280368" lon="12.3011423"><ele>434.5</ele><time>2026-04-19T10:35:35.88Z</time></trkpt><trkpt lat="43.2802684" lon="12.3012396"><ele>436.0</ele><time>2026-04-19T10:35:36.881Z</time></trkpt><trkpt lat="43.2801746" lon="12.3013388"><ele>437.5</ele><time>2026-04-19T10:35:37.88Z</time></trkpt><trkpt lat="43.2800945" lon="12.3015111"><ele>439.0</ele><time>2026-04-19T10:35:38.88Z</time></trkpt><trkpt lat="43.2800146" lon="12.3016959"><ele>439.0</ele><time>2026-04-19T10:35:39.88Z</time></trkpt><trkpt lat="43.2799215" lon="12.3018777"><ele>439.0</ele><time>2026-04-19T10:35:40.879Z</time></trkpt><trkpt lat="43.2798096" lon="12.3020662"><ele>439.0</ele><time>2026-04-19T10:35:41.881Z</time></trkpt><trkpt lat="43.2796946" lon="12.3022401"><ele>442.33333333333337</ele><time>2026-04-19T10:35:42.88Z</time></trkpt><trkpt lat="43.2795815" lon="12.3024425"><ele>445.66666666666663</ele><time>2026-04-19T10:35:43.881Z</time></trkpt><trkpt lat="43.2794736" lon="12.3026594"><ele>449.0</ele><time>2026-04-19T10:35:44.88Z</time></trkpt><trkpt lat="43.2793741" lon="12.3028789"><ele>448.66666666666663</ele><time>2026-04-19T10:35:45.881Z</time></trkpt><trkpt lat="43.2792788" lon="12.3031116"><ele>448.33333333333337</ele><time>2026-04-19T10:35:46.88Z</time></trkpt><trkpt lat="43.2791774" lon="12.3033491"><ele>448.0</ele><time>2026-04-19T10:35:47.88Z</time></trkpt><trkpt lat="43.2790862" lon="12.3035588"><ele>448.0</ele><time>2026-04-19T10:35:48.88Z</time></trkpt><trkpt lat="43.2790057" lon="12.3037578"><ele>448.0</ele><time>2026-04-19T10:35:49.881Z</time></trkpt><trkpt lat="43.2789512" lon="12.3039495"><ele>448.0</ele><time>2026-04-19T10:35:50.88Z</time></trkpt><trkpt lat="43.2789297" lon="12.3041419"><ele>448.0</ele><time>2026-04-19T10:35:51.88Z</time></trkpt><trkpt lat="43.2789372" lon="12.3043452"><ele>448.0</ele><time>2026-04-19T10:35:52.881Z</time></trkpt><trkpt lat="43.2789672" lon="12.3045539"><ele>448.0</ele><time>2026-04-19T10:35:53.881Z</time></trkpt><trkpt lat="43.2789957" lon="12.3047664"><ele>447.75</ele><time>2026-04-19T10:35:54.881Z</time></trkpt><trkpt lat="43.2790143" lon="12.3049604"><ele>447.5</ele><time>2026-04-19T10:35:55.881Z</time></trkpt><trkpt lat="43.2790274" lon="12.305131"><ele>447.25</ele><time>2026-04-19T10:35:56.881Z</time></trkpt><trkpt lat="43.279023" lon="12.3052861"><ele>447.0</ele><time>2026-04-19T10:35:57.879Z</time></trkpt><trkpt lat="43.2789911" lon="12.3054123"><ele>447.0</ele><time>2026-04-19T10:35:58.878Z</time></trkpt><trkpt lat="43.2789406" lon="12.3055127"><ele>447.00000000000006</ele><time>2026-04-19T10:35:59.879Z</time></trkpt><trkpt lat="43.278857" lon="12.3055792"><ele>447.00000000000006</ele><time>2026-04-19T10:36:00.878Z</time></trkpt><trkpt lat="43.2787655" lon="12.3055856"><ele>447.0</ele><time>2026-04-19T10:36:01.879Z</time></trkpt><trkpt lat="43.2786768" lon="12.3055436"><ele>447.0</ele><time>2026-04-19T10:36:02.88Z</time></trkpt><trkpt lat="43.2785998" lon="12.3054684"><ele>450.5</ele><time>2026-04-19T10:36:03.879Z</time></trkpt><trkpt lat="43.2785496" lon="12.3053441"><ele>454.0</ele><time>2026-04-19T10:36:04.878Z</time></trkpt><trkpt lat="43.2785281" lon="12.3051951"><ele>457.5</ele><time>2026-04-19T10:36:05.879Z</time></trkpt><trkpt lat="43.2785085" lon="12.3050191"><ele>461.0</ele><time>2026-04-19T10:36:06.879Z</time></trkpt><trkpt lat="43.2784823" lon="12.3048229"><ele>462.0</ele><time>2026-04-19T10:36:07.879Z</time></trkpt><trkpt lat="43.2784487" lon="12.3046149"><ele>463.0</ele><time>2026-04-19T10:36:08.879Z</time></trkpt><trkpt lat="43.2784058" lon="12.304404"><ele>464.0</ele><time>2026-04-19T10:36:09.879Z</time></trkpt><trkpt lat="43.2783556" lon="12.3041723"><ele>464.0</ele><time>2026-04-19T10:36:10.879Z</time></trkpt><trkpt lat="43.2782963" lon="12.303941"><ele>464.0</ele><time>2026-04-19T10:36:11.879Z</time></trkpt><trkpt lat="43.2782409" lon="12.3037129"><ele>464.0</ele><time>2026-04-19T10:36:12.88Z</time></trkpt><trkpt lat="43.2781845" lon="12.3034975"><ele>463.5</ele><time>2026-04-19T10:36:13.878Z</time></trkpt><trkpt lat="43.2781411" lon="12.3033"><ele>463.0</ele><time>2026-04-19T10:36:14.879Z</time></trkpt><trkpt lat="43.2781047" lon="12.3031201"><ele>462.5</ele><time>2026-04-19T10:36:15.88Z</time></trkpt><trkpt lat="43.2780814" lon="12.3029365"><ele>462.0</ele><time>2026-04-19T10:36:16.88Z</time></trkpt><trkpt lat="43.2780785" lon="12.3027398"><ele>464.0</ele><time>2026-04-19T10:36:17.878Z</time></trkpt><trkpt lat="43.2781023" lon="12.3025578"><ele>466.0</ele><time>2026-04-19T10:36:18.88Z</time></trkpt><trkpt lat="43.2781472" lon="12.30238"><ele>468.0</ele><time>2026-04-19T10:36:19.879Z</time></trkpt><trkpt lat="43.2781931" lon="12.3021997"><ele>470.0</ele><time>2026-04-19T10:36:20.878Z</time></trkpt><trkpt lat="43.2782546" lon="12.3020189"><ele>475.3333333333333</ele><time>2026-04-19T10:36:21.879Z</time></trkpt><trkpt lat="43.2783169" lon="12.3018263"><ele>480.66666666666663</ele><time>2026-04-19T10:36:22.88Z</time></trkpt><trkpt lat="43.2783837" lon="12.3016424"><ele>486.0</ele><time>2026-04-19T10:36:23.88Z</time></trkpt><trkpt lat="43.2784505" lon="12.3014615"><ele>489.75</ele><time>2026-04-19T10:36:24.878Z</time></trkpt><trkpt lat="43.2785199" lon="12.3012903"><ele>493.5</ele><time>2026-04-19T10:36:25.878Z</time></trkpt><trkpt lat="43.2785594" lon="12.301105"><ele>497.25</ele><time>2026-04-19T10:36:26.879Z</time></trkpt><trkpt lat="43.2786121" lon="12.3009163"><ele>501.0</ele><time>2026-04-19T10:36:27.88Z</time></trkpt><trkpt lat="43.2786192" lon="12.3007122"><ele>504.33333333333337</ele><time>2026-04-19T10:36:28.878Z</time></trkpt><trkpt lat="43.2786409" lon="12.3005009"><ele>507.6666666666667</ele><time>2026-04-19T10:36:29.879Z</time></trkpt><trkpt lat="43.2786791" lon="12.3002578"><ele>511.0</ele><time>2026-04-19T10:36:30.879Z</time></trkpt><trkpt lat="43.2787312" lon="12.3000445"><ele>511.0</ele><time>2026-04-19T10:36:31.879Z</time></trkpt><trkpt lat="43.278784" lon="12.2998591"><ele>511.0</ele><time>2026-04-19T10:36:32.878Z</time></trkpt><trkpt lat="43.2788223" lon="12.2996799"><ele>511.0</ele><time>2026-04-19T10:36:33.88Z</time></trkpt><trkpt lat="43.2788516" lon="12.2995071"><ele>511.0</ele><time>2026-04-19T10:36:34.88Z</time></trkpt><trkpt lat="43.2788654" lon="12.2993638"><ele>508.6</ele><time>2026-04-19T10:36:35.879Z</time></trkpt><trkpt lat="43.2788586" lon="12.299234"><ele>506.20000000000005</ele><time>2026-04-19T10:36:36.879Z</time></trkpt><trkpt lat="43.2788366" lon="12.2991172"><ele>503.79999999999995</ele><time>2026-04-19T10:36:37.879Z</time></trkpt><trkpt lat="43.2787821" lon="12.299028"><ele>501.4</ele><time>2026-04-19T10:36:38.878Z</time></trkpt><trkpt lat="43.2786977" lon="12.2989712"><ele>499.0</ele><time>2026-04-19T10:36:39.88Z</time></trkpt><trkpt lat="43.2785885" lon="12.2989422"><ele>495.5</ele><time>2026-04-19T10:36:40.88Z</time></trkpt><trkpt lat="43.2784697" lon="12.2989107"><ele>492.0</ele><time>2026-04-19T10:36:41.878Z</time></trkpt><trkpt lat="43.2783137" lon="12.2989144"><ele>488.5</ele><time>2026-04-19T10:36:42.88Z</time></trkpt><trkpt lat="43.2781692" lon="12.2988973"><ele>485.0</ele><time>2026-04-19T10:36:43.88Z</time></trkpt><trkpt lat="43.2780131" lon="12.2988926"><ele>485.0</ele><time>2026-04-19T10:36:44.879Z</time></trkpt><trkpt lat="43.2778579" lon="12.2988345"><ele>485.0</ele><time>2026-04-19T10:36:45.879Z</time></trkpt><trkpt lat="43.2777003" lon="12.2987533"><ele>485.0</ele><time>2026-04-19T10:36:46.879Z</time></trkpt><trkpt lat="43.2775341" lon="12.2986603"><ele>485.0</ele><time>2026-04-19T10:36:47.879Z</time></trkpt><trkpt lat="43.2773671" lon="12.2985706"><ele>485.0</ele><time>2026-04-19T10:36:48.88Z</time></trkpt><trkpt lat="43.2772084" lon="12.2984897"><ele>485.0</ele><time>2026-04-19T10:36:49.879Z</time></trkpt><trkpt lat="43.2770297" lon="12.2984319"><ele>492.3333333333333</ele><time>2026-04-19T10:36:50.879Z</time></trkpt><trkpt lat="43.2768509" lon="12.2983791"><ele>499.66666666666663</ele><time>2026-04-19T10:36:51.879Z</time></trkpt><trkpt lat="43.2766704" lon="12.298322"><ele>507.0</ele><time>2026-04-19T10:36:52.878Z</time></trkpt><trkpt lat="43.2765186" lon="12.2982405"><ele>505.25</ele><time>2026-04-19T10:36:53.879Z</time></trkpt><trkpt lat="43.2763915" lon="12.2981396"><ele>503.5</ele><time>2026-04-19T10:36:54.879Z</time></trkpt><trkpt lat="43.2762781" lon="12.298003"><ele>501.75</ele><time>2026-04-19T10:36:55.879Z</time></trkpt><trkpt lat="43.2761792" lon="12.2978632"><ele>500.0</ele><time>2026-04-19T10:36:56.879Z</time></trkpt><trkpt lat="43.2760893" lon="12.2977421"><ele>500.0</ele><time>2026-04-19T10:36:57.879Z</time></trkpt><trkpt lat="43.2759995" lon="12.297642"><ele>500.0</ele><time>2026-04-19T10:36:58.878Z</time></trkpt><trkpt lat="43.2758939" lon="12.2975883"><ele>500.0</ele><time>2026-04-19T10:36:59.88Z</time></trkpt><trkpt lat="43.2757747" lon="12.2975647"><ele>500.0</ele><time>2026-04-19T10:37:00.88Z</time></trkpt><trkpt lat="43.2756466" lon="12.2975707"><ele>502.25</ele><time>2026-04-19T10:37:01.878Z</time></trkpt><trkpt lat="43.2755235" lon="12.2975716"><ele>504.5</ele><time>2026-04-19T10:37:02.878Z</time></trkpt><trkpt lat="43.2753842" lon="12.2975932"><ele>506.75</ele><time>2026-04-19T10:37:03.879Z</time></trkpt><trkpt lat="43.2752067" lon="12.297614"><ele>509.0</ele><time>2026-04-19T10:37:04.88Z</time></trkpt><trkpt lat="43.2750463" lon="12.2976276"><ele>509.0</ele><time>2026-04-19T10:37:05.879Z</time></trkpt><trkpt lat="43.2748826" lon="12.297678"><ele>509.0</ele><time>2026-04-19T10:37:06.88Z</time></trkpt><trkpt lat="43.2747208" lon="12.2977303"><ele>509.0</ele><time>2026-04-19T10:37:07.879Z</time></trkpt><trkpt lat="43.2745666" lon="12.2977764"><ele>510.75</ele><time>2026-04-19T10:37:08.878Z</time></trkpt><trkpt lat="43.2744264" lon="12.2978133"><ele>512.5</ele><time>2026-04-19T10:37:09.88Z</time></trkpt><trkpt lat="43.2742934" lon="12.2978261"><ele>514.25</ele><time>2026-04-19T10:37:10.88Z</time></trkpt><trkpt lat="43.2741617" lon="12.2978249"><ele>516.0</ele><time>2026-04-19T10:37:11.88Z</time></trkpt><trkpt lat="43.2740265" lon="12.2977949"><ele>519.25</ele><time>2026-04-19T10:37:12.879Z</time></trkpt><trkpt lat="43.2739012" lon="12.2977378"><ele>522.5</ele><time>2026-04-19T10:37:13.879Z</time></trkpt><trkpt lat="43.2737581" lon="12.297666"><ele>525.75</ele><time>2026-04-19T10:37:14.88Z</time></trkpt><trkpt lat="43.2736166" lon="12.2975626"><ele>529.0</ele><time>2026-04-19T10:37:15.878Z</time></trkpt><trkpt lat="43.2734708" lon="12.2974424"><ele>529.0</ele><time>2026-04-19T10:37:16.88Z</time></trkpt><trkpt lat="43.2733089" lon="12.297325"><ele>529.0</ele><time>2026-04-19T10:37:17.88Z</time></trkpt><trkpt lat="43.2731522" lon="12.2972038"><ele>529.0</ele><time>2026-04-19T10:37:18.88Z</time></trkpt><trkpt lat="43.2729914" lon="12.2970631"><ele>529.0</ele><time>2026-04-19T10:37:19.879Z</time></trkpt><trkpt lat="43.2728308" lon="12.2969098"><ele>529.0</ele><time>2026-04-19T10:37:20.879Z</time></trkpt><trkpt lat="43.272667" lon="12.2967476"><ele>529.0</ele><time>2026-04-19T10:37:21.879Z</time></trkpt><trkpt lat="43.2724998" lon="12.2965782"><ele>526.0</ele><time>2026-04-19T10:37:22.88Z</time></trkpt><trkpt lat="43.2723275" lon="12.2964165"><ele>523.0</ele><time>2026-04-19T10:37:23.88Z</time></trkpt><trkpt lat="43.2721533" lon="12.2962653"><ele>520.0</ele><time>2026-04-19T10:37:24.88Z</time></trkpt><trkpt lat="43.2719898" lon="12.2961281"><ele>526.0</ele><time>2026-04-19T10:37:25.879Z</time></trkpt><trkpt lat="43.2718385" lon="12.2960008"><ele>532.0</ele><time>2026-04-19T10:37:26.88Z</time></trkpt><trkpt lat="43.2716878" lon="12.2958774"><ele>538.0</ele><time>2026-04-19T10:37:27.879Z</time></trkpt><trkpt lat="43.2715282" lon="12.2957772"><ele>542.3333333333334</ele><time>2026-04-19T10:37:28.879Z</time></trkpt><trkpt lat="43.2713615" lon="12.2956957"><ele>546.6666666666666</ele><time>2026-04-19T10:37:29.88Z</time></trkpt><trkpt lat="43.2711928" lon="12.2956248"><ele>551.0</ele><time>2026-04-19T10:37:30.879Z</time></trkpt><trkpt lat="43.2710295" lon="12.2955475"><ele>551.0</ele><time>2026-04-19T10:37:31.879Z</time></trkpt><trkpt lat="43.2708662" lon="12.2954448"><ele>551.0</ele><time>2026-04-19T10:37:32.88Z</time></trkpt><trkpt lat="43.2707051" lon="12.2953151"><ele>551.0</ele><time>2026-04-19T10:37:33.879Z</time></trkpt><trkpt lat="43.2705534" lon="12.2951791"><ele>554.0</ele><time>2026-04-19T10:37:34.878Z</time></trkpt><trkpt lat="43.2704152" lon="12.2950263"><ele>557.0</ele><time>2026-04-19T10:37:35.878Z</time></trkpt><trkpt lat="43.2702938" lon="12.2948746"><ele>560.0</ele><time>2026-04-19T10:37:36.88Z</time></trkpt><trkpt lat="43.2701858" lon="12.2947326"><ele>560.0</ele><time>2026-04-19T10:37:37.879Z</time></trkpt><trkpt lat="43.2700688" lon="12.2946135"><ele>560.0</ele><time>2026-04-19T10:37:38.88Z</time></trkpt><trkpt lat="43.2699394" lon="12.2945164"><ele>560.0</ele><time>2026-04-19T10:37:39.88Z</time></trkpt><trkpt lat="43.2698" lon="12.2944276"><ele>560.0</ele><time>2026-04-19T10:37:40.88Z</time></trkpt><trkpt lat="43.2696522" lon="12.2943447"><ele>561.6666666666666</ele><time>2026-04-19T10:37:41.879Z</time></trkpt><trkpt lat="43.2695106" lon="12.2942513"><ele>563.3333333333334</ele><time>2026-04-19T10:37:42.88Z</time></trkpt><trkpt lat="43.2693802" lon="12.2941173"><ele>565.0</ele><time>2026-04-19T10:37:43.88Z</time></trkpt><trkpt lat="43.2692615" lon="12.2939464"><ele>565.6666666666667</ele><time>2026-04-19T10:37:44.88Z</time></trkpt><trkpt lat="43.2691513" lon="12.2937461"><ele>566.3333333333334</ele><time>2026-04-19T10:37:45.88Z</time></trkpt><trkpt lat="43.2690435" lon="12.2935395"><ele>567.0</ele><time>2026-04-19T10:37:46.879Z</time></trkpt><trkpt lat="43.2689258" lon="12.2933235"><ele>567.0</ele><time>2026-04-19T10:37:47.879Z</time></trkpt><trkpt lat="43.2688066" lon="12.2930971"><ele>567.0</ele><time>2026-04-19T10:37:48.878Z</time></trkpt><trkpt lat="43.2686882" lon="12.2928646"><ele>567.0</ele><time>2026-04-19T10:37:49.879Z</time></trkpt><trkpt lat="43.2685643" lon="12.2926228"><ele>569.6666666666666</ele><time>2026-04-19T10:37:50.878Z</time></trkpt><trkpt lat="43.2684412" lon="12.2923835"><ele>572.3333333333333</ele><time>2026-04-19T10:37:51.879Z</time></trkpt><trkpt lat="43.2683212" lon="12.29215"><ele>575.0</ele><time>2026-04-19T10:37:52.88Z</time></trkpt><trkpt lat="43.2681925" lon="12.2919075"><ele>575.6666666666666</ele><time>2026-04-19T10:37:53.88Z</time></trkpt><trkpt lat="43.2680699" lon="12.2916694"><ele>576.3333333333334</ele><time>2026-04-19T10:37:54.88Z</time></trkpt><trkpt lat="43.2679561" lon="12.2914384"><ele>577.0</ele><time>2026-04-19T10:37:55.878Z</time></trkpt><trkpt lat="43.2678466" lon="12.2912268"><ele>578.0</ele><time>2026-04-19T10:37:56.878Z</time></trkpt><trkpt lat="43.2677482" lon="12.2910242"><ele>579.0</ele><time>2026-04-19T10:37:57.878Z</time></trkpt><trkpt lat="43.267668" lon="12.2908182"><ele>580.0</ele><time>2026-04-19T10:37:58.88Z</time></trkpt><trkpt lat="43.267608" lon="12.2905931"><ele>582.0</ele><time>2026-04-19T10:37:59.879Z</time></trkpt><trkpt lat="43.2675542" lon="12.2903619"><ele>584.0</ele><time>2026-04-19T10:38:00.879Z</time></trkpt><trkpt lat="43.2675048" lon="12.2901229"><ele>586.0</ele><time>2026-04-19T10:38:01.88Z</time></trkpt><trkpt lat="43.2674561" lon="12.2898813"><ele>588.3333333333334</ele><time>2026-04-19T10:38:02.878Z</time></trkpt><trkpt lat="43.2674125" lon="12.2896613"><ele>590.6666666666666</ele><time>2026-04-19T10:38:03.879Z</time></trkpt><trkpt lat="43.2673681" lon="12.2894634"><ele>593.0</ele><time>2026-04-19T10:38:04.88Z</time></trkpt><trkpt lat="43.2673106" lon="12.2892876"><ele>591.0</ele><time>2026-04-19T10:38:05.878Z</time></trkpt><trkpt lat="43.2672278" lon="12.2891218"><ele>589.0</ele><time>2026-04-19T10:38:06.879Z</time></trkpt><trkpt lat="43.2671172" lon="12.2889731"><ele>587.0</ele><time>2026-04-19T10:38:07.879Z</time></trkpt><trkpt lat="43.2669899" lon="12.2888188"><ele>591.0</ele><time>2026-04-19T10:38:08.879Z</time></trkpt><trkpt lat="43.2668552" lon="12.288668"><ele>595.0</ele><time>2026-04-19T10:38:09.878Z</time></trkpt><trkpt lat="43.2667188" lon="12.2885212"><ele>599.0</ele><time>2026-04-19T10:38:10.878Z</time></trkpt><trkpt lat="43.2665984" lon="12.2883858"><ele>599.0</ele><time>2026-04-19T10:38:11.879Z</time></trkpt><trkpt lat="43.2664886" lon="12.2882615"><ele>599.0</ele><time>2026-04-19T10:38:12.877Z</time></trkpt><trkpt lat="43.2663853" lon="12.2881644"><ele>599.0</ele><time>2026-04-19T10:38:13.879Z</time></trkpt><trkpt lat="43.2662853" lon="12.2880912"><ele>599.0</ele><time>2026-04-19T10:38:14.877Z</time></trkpt><trkpt lat="43.2661838" lon="12.288082"><ele>600.0</ele><time>2026-04-19T10:38:15.877Z</time></trkpt><trkpt lat="43.266089" lon="12.2881173"><ele>601.0</ele><time>2026-04-19T10:38:16.877Z</time></trkpt><trkpt lat="43.2660161" lon="12.288192"><ele>602.0</ele><time>2026-04-19T10:38:17.877Z</time></trkpt><trkpt lat="43.2659663" lon="12.2883077"><ele>603.0</ele><time>2026-04-19T10:38:18.878Z</time></trkpt><trkpt lat="43.2659449" lon="12.2884439"><ele>604.0</ele><time>2026-04-19T10:38:19.876Z</time></trkpt><trkpt lat="43.2659542" lon="12.2886004"><ele>604.0</ele><time>2026-04-19T10:38:20.878Z</time></trkpt><trkpt lat="43.2659848" lon="12.288777"><ele>604.0</ele><time>2026-04-19T10:38:21.877Z</time></trkpt><trkpt lat="43.2660167" lon="12.2889716"><ele>604.0</ele><time>2026-04-19T10:38:22.876Z</time></trkpt><trkpt lat="43.2660366" lon="12.2891443"><ele>604.0</ele><time>2026-04-19T10:38:23.878Z</time></trkpt><trkpt lat="43.2660417" lon="12.2893042"><ele>605.0</ele><time>2026-04-19T10:38:24.877Z</time></trkpt><trkpt lat="43.2660222" lon="12.2894397"><ele>606.0</ele><time>2026-04-19T10:38:25.878Z</time></trkpt><trkpt lat="43.2659773" lon="12.2895402"><ele>607.0</ele><time>2026-04-19T10:38:26.878Z</time></trkpt><trkpt lat="43.265918" lon="12.289611"><ele>608.0</ele><time>2026-04-19T10:38:27.877Z</time></trkpt><trkpt lat="43.2658253" lon="12.2896413"><ele>609.0</ele><time>2026-04-19T10:38:28.877Z</time></trkpt><trkpt lat="43.2657185" lon="12.28963"><ele>608.2</ele><time>2026-04-19T10:38:29.877Z</time></trkpt><trkpt lat="43.2656001" lon="12.2896108"><ele>607.4</ele><time>2026-04-19T10:38:30.877Z</time></trkpt><trkpt lat="43.2654916" lon="12.289605"><ele>606.6</ele><time>2026-04-19T10:38:31.877Z</time></trkpt><trkpt lat="43.2653888" lon="12.2896208"><ele>605.8</ele><time>2026-04-19T10:38:32.878Z</time></trkpt><trkpt lat="43.2652818" lon="12.2896451"><ele>605.0</ele><time>2026-04-19T10:38:33.877Z</time></trkpt><trkpt lat="43.2651919" lon="12.2897708"><ele>605.0</ele><time>2026-04-19T10:38:34.878Z</time></trkpt><trkpt lat="43.2651029" lon="12.2898492"><ele>605.0</ele><time>2026-04-19T10:38:35.877Z</time></trkpt><trkpt lat="43.2650158" lon="12.2899076"><ele>605.0</ele><time>2026-04-19T10:38:36.876Z</time></trkpt><trkpt lat="43.2649164" lon="12.2898607"><ele>605.0</ele><time>2026-04-19T10:38:37.878Z</time></trkpt><trkpt lat="43.2648394" lon="12.2897898"><ele>605.0</ele><time>2026-04-19T10:38:38.878Z</time></trkpt><trkpt lat="43.264743" lon="12.2897095"><ele>605.5</ele><time>2026-04-19T10:38:39.877Z</time></trkpt><trkpt lat="43.264663" lon="12.2895941"><ele>606.0</ele><time>2026-04-19T10:38:40.877Z</time></trkpt><trkpt lat="43.2646084" lon="12.2894501"><ele>606.5</ele><time>2026-04-19T10:38:41.878Z</time></trkpt><trkpt lat="43.2645652" lon="12.2892991"><ele>607.0</ele><time>2026-04-19T10:38:42.878Z</time></trkpt><trkpt lat="43.264524" lon="12.2891501"><ele>607.0</ele><time>2026-04-19T10:38:43.877Z</time></trkpt><trkpt lat="43.2644812" lon="12.2889888"><ele>607.0</ele><time>2026-04-19T10:38:44.877Z</time></trkpt><trkpt lat="43.2644295" lon="12.2888159"><ele>607.0</ele><time>2026-04-19T10:38:45.877Z</time></trkpt><trkpt lat="43.2643731" lon="12.2886399"><ele>607.0</ele><time>2026-04-19T10:38:46.876Z</time></trkpt><trkpt lat="43.2642911" lon="12.2884654"><ele>610.0</ele><time>2026-04-19T10:38:47.877Z</time></trkpt><trkpt lat="43.264189" lon="12.2882829"><ele>613.0</ele><time>2026-04-19T10:38:48.877Z</time></trkpt><trkpt lat="43.2640821" lon="12.2881158"><ele>616.0</ele><time>2026-04-19T10:38:49.877Z</time></trkpt><trkpt lat="43.2639651" lon="12.2879513"><ele>616.6666666666667</ele><time>2026-04-19T10:38:50.877Z</time></trkpt><trkpt lat="43.2638419" lon="12.2877641"><ele>617.3333333333334</ele><time>2026-04-19T10:38:51.877Z</time></trkpt><trkpt lat="43.2637182" lon="12.2875829"><ele>618.0</ele><time>2026-04-19T10:38:52.877Z</time></trkpt><trkpt lat="43.2635939" lon="12.2874254"><ele>618.0</ele><time>2026-04-19T10:38:53.877Z</time></trkpt><trkpt lat="43.2634697" lon="12.2873047"><ele>618.0</ele><time>2026-04-19T10:38:54.878Z</time></trkpt><trkpt lat="43.2633484" lon="12.2871987"><ele>618.0</ele><time>2026-04-19T10:38:55.877Z</time></trkpt><trkpt lat="43.2632338" lon="12.2870847"><ele>618.0</ele><time>2026-04-19T10:38:56.878Z</time></trkpt><trkpt lat="43.2631417" lon="12.2869283"><ele>620.0</ele><time>2026-04-19T10:38:57.878Z</time></trkpt><trkpt lat="43.2630623" lon="12.2867513"><ele>622.0</ele><time>2026-04-19T10:38:58.877Z</time></trkpt><trkpt lat="43.2629914" lon="12.28657"><ele>624.0</ele><time>2026-04-19T10:38:59.878Z</time></trkpt><trkpt lat="43.2629157" lon="12.2864188"><ele>626.0</ele><time>2026-04-19T10:39:00.876Z</time></trkpt><trkpt lat="43.2628266" lon="12.286279"><ele>628.25</ele><time>2026-04-19T10:39:01.877Z</time></trkpt><trkpt lat="43.2627293" lon="12.2861357"><ele>630.5</ele><time>2026-04-19T10:39:02.878Z</time></trkpt><trkpt lat="43.2626163" lon="12.286006"><ele>632.75</ele><time>2026-04-19T10:39:03.878Z</time></trkpt><trkpt lat="43.2624994" lon="12.2859178"><ele>635.0</ele><time>2026-04-19T10:39:04.877Z</time></trkpt><trkpt lat="43.2623675" lon="12.2858499"><ele>634.25</ele><time>2026-04-19T10:39:05.877Z</time></trkpt><trkpt lat="43.2622714" lon="12.285748"><ele>633.5</ele><time>2026-04-19T10:39:06.876Z</time></trkpt><trkpt lat="43.262191" lon="12.2856191"><ele>632.75</ele><time>2026-04-19T10:39:07.878Z</time></trkpt><trkpt lat="43.262131" lon="12.2854719"><ele>632.0</ele><time>2026-04-19T10:39:08.877Z</time></trkpt><trkpt lat="43.2620856" lon="12.2853026"><ele>633.2</ele><time>2026-04-19T10:39:09.878Z</time></trkpt><trkpt lat="43.2620556" lon="12.2851488"><ele>634.4000000000001</ele><time>2026-04-19T10:39:10.876Z</time></trkpt><trkpt lat="43.2620415" lon="12.2850083"><ele>635.5999999999999</ele><time>2026-04-19T10:39:11.878Z</time></trkpt><trkpt lat="43.262054" lon="12.2848784"><ele>636.8</ele><time>2026-04-19T10:39:12.878Z</time></trkpt><trkpt lat="43.2620987" lon="12.2847653"><ele>638.0</ele><time>2026-04-19T10:39:13.877Z</time></trkpt><trkpt lat="43.2621719" lon="12.2846758"><ele>641.75</ele><time>2026-04-19T10:39:14.877Z</time></trkpt><trkpt lat="43.2622767" lon="12.2846305"><ele>645.5</ele><time>2026-04-19T10:39:15.876Z</time></trkpt><trkpt lat="43.2623959" lon="12.2846236"><ele>649.25</ele><time>2026-04-19T10:39:16.876Z</time></trkpt><trkpt lat="43.262511" lon="12.2846155"><ele>653.0</ele><time>2026-04-19T10:39:17.878Z</time></trkpt><trkpt lat="43.2626532" lon="12.2846169"><ele>653.0</ele><time>2026-04-19T10:39:18.878Z</time></trkpt><trkpt lat="43.2627854" lon="12.2846183"><ele>653.0</ele><time>2026-04-19T10:39:19.878Z</time></trkpt><trkpt lat="43.2628999" lon="12.2846138"><ele>653.0</ele><time>2026-04-19T10:39:20.878Z</time></trkpt><trkpt lat="43.2630164" lon="12.2845863"><ele>653.0</ele><time>2026-04-19T10:39:21.878Z</time></trkpt><trkpt lat="43.2631234" lon="12.2845272"><ele>651.75</ele><time>2026-04-19T10:39:22.877Z</time></trkpt><trkpt lat="43.2632195" lon="12.2844534"><ele>650.5</ele><time>2026-04-19T10:39:23.877Z</time></trkpt><trkpt lat="43.2632792" lon="12.2843262"><ele>649.25</ele><time>2026-04-19T10:39:24.876Z</time></trkpt><trkpt lat="43.2633513" lon="12.2841898"><ele>648.0</ele><time>2026-04-19T10:39:25.877Z</time></trkpt><trkpt lat="43.2633839" lon="12.2839886"><ele>649.6666666666666</ele><time>2026-04-19T10:39:26.876Z</time></trkpt><trkpt lat="43.2633782" lon="12.283747"><ele>651.3333333333333</ele><time>2026-04-19T10:39:27.878Z</time></trkpt><trkpt lat="43.2634208" lon="12.2835278"><ele>653.0</ele><time>2026-04-19T10:39:28.878Z</time></trkpt><trkpt lat="43.2634807" lon="12.2832796"><ele>654.3333333333333</ele><time>2026-04-19T10:39:29.878Z</time></trkpt><trkpt lat="43.2635522" lon="12.2830597"><ele>655.6666666666666</ele><time>2026-04-19T10:39:30.878Z</time></trkpt><trkpt lat="43.2636224" lon="12.2828597"><ele>657.0</ele><time>2026-04-19T10:39:31.877Z</time></trkpt><trkpt lat="43.263699" lon="12.2826777"><ele>657.0</ele><time>2026-04-19T10:39:32.877Z</time></trkpt><trkpt lat="43.263747" lon="12.2825042"><ele>657.0</ele><time>2026-04-19T10:39:33.878Z</time></trkpt><trkpt lat="43.26379" lon="12.2823451"><ele>657.0</ele><time>2026-04-19T10:39:34.878Z</time></trkpt><trkpt lat="43.2638173" lon="12.2821888"><ele>657.0</ele><time>2026-04-19T10:39:35.877Z</time></trkpt><trkpt lat="43.2636989" lon="12.2819676"><ele>655.6666666666666</ele><time>2026-04-19T10:39:36.877Z</time></trkpt><trkpt lat="43.2636493" lon="12.2817566"><ele>654.3333333333333</ele><time>2026-04-19T10:39:37.877Z</time></trkpt><trkpt lat="43.2635872" lon="12.2815426"><ele>653.0</ele><time>2026-04-19T10:39:38.877Z</time></trkpt><trkpt lat="43.2635225" lon="12.2813056"><ele>651.3333333333333</ele><time>2026-04-19T10:39:39.878Z</time></trkpt><trkpt lat="43.2634612" lon="12.2810896"><ele>649.6666666666666</ele><time>2026-04-19T10:39:40.878Z</time></trkpt><trkpt lat="43.2634009" lon="12.2808772"><ele>648.0</ele><time>2026-04-19T10:39:41.878Z</time></trkpt><trkpt lat="43.2633425" lon="12.2806669"><ele>646.0</ele><time>2026-04-19T10:39:42.878Z</time></trkpt><trkpt lat="43.2633" lon="12.2804297"><ele>644.0</ele><time>2026-04-19T10:39:43.876Z</time></trkpt><trkpt lat="43.2632788" lon="12.2801768"><ele>642.0</ele><time>2026-04-19T10:39:44.876Z</time></trkpt><trkpt lat="43.2632678" lon="12.2799211"><ele>642.3333333333334</ele><time>2026-04-19T10:39:45.877Z</time></trkpt><trkpt lat="43.2632613" lon="12.2796651"><ele>642.6666666666667</ele><time>2026-04-19T10:39:46.877Z</time></trkpt><trkpt lat="43.263248" lon="12.2793857"><ele>643.0</ele><time>2026-04-19T10:39:47.878Z</time></trkpt><trkpt lat="43.2632375" lon="12.2791119"><ele>642.3333333333334</ele><time>2026-04-19T10:39:48.877Z</time></trkpt><trkpt lat="43.2632225" lon="12.2788497"><ele>641.6666666666666</ele><time>2026-04-19T10:39:49.877Z</time></trkpt><trkpt lat="43.263212" lon="12.2786003"><ele>641.0</ele><time>2026-04-19T10:39:50.877Z</time></trkpt><trkpt lat="43.2632067" lon="12.2783681"><ele>641.0</ele><time>2026-04-19T10:39:51.878Z</time></trkpt><trkpt lat="43.263194" lon="12.2781431"><ele>641.0</ele><time>2026-04-19T10:39:52.877Z</time></trkpt><trkpt lat="43.2631905" lon="12.2779288"><ele>641.0</ele><time>2026-04-19T10:39:53.878Z</time></trkpt><trkpt lat="43.263211" lon="12.2777199"><ele>642.0</ele><time>2026-04-19T10:39:54.876Z</time></trkpt><trkpt lat="43.2632505" lon="12.2775016"><ele>643.0</ele><time>2026-04-19T10:39:55.876Z</time></trkpt><trkpt lat="43.2633307" lon="12.2772876"><ele>644.0</ele><time>2026-04-19T10:39:56.878Z</time></trkpt><trkpt lat="43.2634228" lon="12.277066"><ele>646.6666666666666</ele><time>2026-04-19T10:39:57.877Z</time></trkpt><trkpt lat="43.2635232" lon="12.2768593"><ele>649.3333333333334</ele><time>2026-04-19T10:39:58.877Z</time></trkpt><trkpt lat="43.2636209" lon="12.2766629"><ele>652.0</ele><time>2026-04-19T10:39:59.876Z</time></trkpt><trkpt lat="43.2637044" lon="12.2764823"><ele>651.75</ele><time>2026-04-19T10:40:00.877Z</time></trkpt><trkpt lat="43.2637765" lon="12.2763273"><ele>651.5</ele><time>2026-04-19T10:40:01.878Z</time></trkpt><trkpt lat="43.263834" lon="12.2761829"><ele>651.25</ele><time>2026-04-19T10:40:02.877Z</time></trkpt><trkpt lat="43.2638642" lon="12.2760462"><ele>651.0</ele><time>2026-04-19T10:40:03.877Z</time></trkpt><trkpt lat="43.2638602" lon="12.2758901"><ele>651.0</ele><time>2026-04-19T10:40:04.876Z</time></trkpt><trkpt lat="43.2638283" lon="12.2757238"><ele>651.0</ele><time>2026-04-19T10:40:05.877Z</time></trkpt><trkpt lat="43.2637793" lon="12.275554"><ele>651.0</ele><time>2026-04-19T10:40:06.877Z</time></trkpt><trkpt lat="43.2637148" lon="12.2753633"><ele>651.0</ele><time>2026-04-19T10:40:07.878Z</time></trkpt><trkpt lat="43.2636464" lon="12.2751777"><ele>647.0</ele><time>2026-04-19T10:40:08.877Z</time></trkpt><trkpt lat="43.2635514" lon="12.2750215"><ele>643.0</ele><time>2026-04-19T10:40:09.878Z</time></trkpt><trkpt lat="43.2634534" lon="12.2748845"><ele>639.0</ele><time>2026-04-19T10:40:10.878Z</time></trkpt><trkpt lat="43.2633458" lon="12.2747778"><ele>635.0</ele><time>2026-04-19T10:40:11.877Z</time></trkpt><trkpt lat="43.2632372" lon="12.2747231"><ele>631.75</ele><time>2026-04-19T10:40:12.877Z</time></trkpt><trkpt lat="43.2631136" lon="12.2747128"><ele>628.5</ele><time>2026-04-19T10:40:13.877Z</time></trkpt><trkpt lat="43.2629776" lon="12.2747197"><ele>625.25</ele><time>2026-04-19T10:40:14.877Z</time></trkpt><trkpt lat="43.2627919" lon="12.2747481"><ele>622.0</ele><time>2026-04-19T10:40:15.877Z</time></trkpt><trkpt lat="43.2626293" lon="12.2747675"><ele>624.6666666666667</ele><time>2026-04-19T10:40:16.877Z</time></trkpt><trkpt lat="43.262468" lon="12.2747957"><ele>627.3333333333334</ele><time>2026-04-19T10:40:17.878Z</time></trkpt><trkpt lat="43.2623221" lon="12.2748384"><ele>630.0</ele><time>2026-04-19T10:40:18.877Z</time></trkpt><trkpt lat="43.262176" lon="12.2749263"><ele>630.0</ele><time>2026-04-19T10:40:19.877Z</time></trkpt><trkpt lat="43.2620388" lon="12.2750075"><ele>630.0</ele><time>2026-04-19T10:40:20.876Z</time></trkpt><trkpt lat="43.2619119" lon="12.2750853"><ele>630.0</ele><time>2026-04-19T10:40:21.876Z</time></trkpt><trkpt lat="43.2617807" lon="12.2751626"><ele>630.0</ele><time>2026-04-19T10:40:22.877Z</time></trkpt><trkpt lat="43.2616483" lon="12.2751978"><ele>630.0</ele><time>2026-04-19T10:40:23.875Z</time></trkpt><trkpt lat="43.2615377" lon="12.2752067"><ele>630.0</ele><time>2026-04-19T10:40:24.877Z</time></trkpt><trkpt lat="43.2614759" lon="12.2750948"><ele>630.0</ele><time>2026-04-19T10:40:25.877Z</time></trkpt><trkpt lat="43.2613684" lon="12.2750345"><ele>630.0</ele><time>2026-04-19T10:40:26.875Z</time></trkpt><trkpt lat="43.261264" lon="12.2748702"><ele>629.25</ele><time>2026-04-19T10:40:27.875Z</time></trkpt><trkpt lat="43.2612124" lon="12.2746988"><ele>628.5</ele><time>2026-04-19T10:40:28.876Z</time></trkpt><trkpt lat="43.2611498" lon="12.2745322"><ele>627.75</ele><time>2026-04-19T10:40:29.877Z</time></trkpt><trkpt lat="43.2611003" lon="12.2743552"><ele>627.0</ele><time>2026-04-19T10:40:30.876Z</time></trkpt><trkpt lat="43.2610556" lon="12.2741745"><ele>627.0</ele><time>2026-04-19T10:40:31.875Z</time></trkpt><trkpt lat="43.2610722" lon="12.2739574"><ele>627.0</ele><time>2026-04-19T10:40:32.876Z</time></trkpt><trkpt lat="43.2611001" lon="12.2737272"><ele>627.0</ele><time>2026-04-19T10:40:33.875Z</time></trkpt><trkpt lat="43.2611512" lon="12.2734956"><ele>627.0</ele><time>2026-04-19T10:40:34.876Z</time></trkpt><trkpt lat="43.2612025" lon="12.2732796"><ele>627.0</ele><time>2026-04-19T10:40:35.875Z</time></trkpt><trkpt lat="43.2612574" lon="12.2730702"><ele>627.0</ele><time>2026-04-19T10:40:36.876Z</time></trkpt><trkpt lat="43.2612997" lon="12.272878"><ele>626.6666666666666</ele><time>2026-04-19T10:40:37.876Z</time></trkpt><trkpt lat="43.2613083" lon="12.2726731"><ele>626.3333333333333</ele><time>2026-04-19T10:40:38.876Z</time></trkpt><trkpt lat="43.2613036" lon="12.2724608"><ele>626.0</ele><time>2026-04-19T10:40:39.876Z</time></trkpt><trkpt lat="43.2612968" lon="12.2722601"><ele>626.0</ele><time>2026-04-19T10:40:40.876Z</time></trkpt><trkpt lat="43.2612345" lon="12.2720665"><ele>626.0</ele><time>2026-04-19T10:40:41.876Z</time></trkpt><trkpt lat="43.2612165" lon="12.2718583"><ele>626.0</ele><time>2026-04-19T10:40:42.876Z</time></trkpt><trkpt lat="43.261233" lon="12.2716494"><ele>622.6666666666666</ele><time>2026-04-19T10:40:43.876Z</time></trkpt><trkpt lat="43.2612749" lon="12.2714304"><ele>619.3333333333334</ele><time>2026-04-19T10:40:44.876Z</time></trkpt><trkpt lat="43.2613126" lon="12.2712196"><ele>616.0</ele><time>2026-04-19T10:40:45.877Z</time></trkpt><trkpt lat="43.2613516" lon="12.2710169"><ele>616.0</ele><time>2026-04-19T10:40:46.877Z</time></trkpt><trkpt lat="43.2613771" lon="12.2708369"><ele>616.0</ele><time>2026-04-19T10:40:47.876Z</time></trkpt><trkpt lat="43.2613737" lon="12.2706579"><ele>616.0</ele><time>2026-04-19T10:40:48.877Z</time></trkpt><trkpt lat="43.2613389" lon="12.2704952"><ele>616.0</ele><time>2026-04-19T10:40:49.876Z</time></trkpt><trkpt lat="43.2612846" lon="12.2703227"><ele>614.5</ele><time>2026-04-19T10:40:50.876Z</time></trkpt><trkpt lat="43.261237" lon="12.2701351"><ele>613.0</ele><time>2026-04-19T10:40:51.877Z</time></trkpt><trkpt lat="43.2612141" lon="12.2699263"><ele>611.5</ele><time>2026-04-19T10:40:52.877Z</time></trkpt><trkpt lat="43.2612141" lon="12.2697377"><ele>610.0</ele><time>2026-04-19T10:40:53.876Z</time></trkpt><trkpt lat="43.2612016" lon="12.2695749"><ele>608.25</ele><time>2026-04-19T10:40:54.877Z</time></trkpt><trkpt lat="43.2611722" lon="12.2694233"><ele>606.5</ele><time>2026-04-19T10:40:55.877Z</time></trkpt><trkpt lat="43.2611172" lon="12.2692916"><ele>604.75</ele><time>2026-04-19T10:40:56.875Z</time></trkpt><trkpt lat="43.2610346" lon="12.2691835"><ele>603.0</ele><time>2026-04-19T10:40:57.877Z</time></trkpt><trkpt lat="43.2609295" lon="12.2691031"><ele>603.0</ele><time>2026-04-19T10:40:58.876Z</time></trkpt><trkpt lat="43.2608082" lon="12.2690711"><ele>603.0</ele><time>2026-04-19T10:40:59.876Z</time></trkpt><trkpt lat="43.2606631" lon="12.26907"><ele>603.0</ele><time>2026-04-19T10:41:00.876Z</time></trkpt><trkpt lat="43.2604904" lon="12.2690785"><ele>603.0</ele><time>2026-04-19T10:41:01.876Z</time></trkpt><trkpt lat="43.2603147" lon="12.2690856"><ele>602.3333333333334</ele><time>2026-04-19T10:41:02.877Z</time></trkpt><trkpt lat="43.2601496" lon="12.2690791"><ele>601.6666666666667</ele><time>2026-04-19T10:41:03.876Z</time></trkpt><trkpt lat="43.2599783" lon="12.2690436"><ele>601.0</ele><time>2026-04-19T10:41:04.877Z</time></trkpt><trkpt lat="43.2598208" lon="12.2689665"><ele>596.6666666666667</ele><time>2026-04-19T10:41:05.877Z</time></trkpt><trkpt lat="43.2596742" lon="12.2688734"><ele>592.3333333333334</ele><time>2026-04-19T10:41:06.875Z</time></trkpt><trkpt lat="43.2595187" lon="12.2687815"><ele>588.0</ele><time>2026-04-19T10:41:07.876Z</time></trkpt><trkpt lat="43.2593476" lon="12.2686986"><ele>588.0</ele><time>2026-04-19T10:41:08.876Z</time></trkpt><trkpt lat="43.2591638" lon="12.2686336"><ele>588.0</ele><time>2026-04-19T10:41:09.877Z</time></trkpt><trkpt lat="43.2589817" lon="12.2685833"><ele>588.0</ele><time>2026-04-19T10:41:10.875Z</time></trkpt><trkpt lat="43.2587902" lon="12.2685401"><ele>587.0</ele><time>2026-04-19T10:41:11.875Z</time></trkpt><trkpt lat="43.2586177" lon="12.2684916"><ele>586.0</ele><time>2026-04-19T10:41:12.876Z</time></trkpt><trkpt lat="43.2584415" lon="12.2684462"><ele>585.0</ele><time>2026-04-19T10:41:13.876Z</time></trkpt><trkpt lat="43.2582727" lon="12.2683992"><ele>585.0</ele><time>2026-04-19T10:41:14.876Z</time></trkpt><trkpt lat="43.2581113" lon="12.2683469"><ele>585.0</ele><time>2026-04-19T10:41:15.876Z</time></trkpt><trkpt lat="43.257965" lon="12.2682731"><ele>585.0</ele><time>2026-04-19T10:41:16.877Z</time></trkpt><trkpt lat="43.2578312" lon="12.2681728"><ele>582.3333333333334</ele><time>2026-04-19T10:41:17.877Z</time></trkpt><trkpt lat="43.2576959" lon="12.2680557"><ele>579.6666666666667</ele><time>2026-04-19T10:41:18.877Z</time></trkpt><trkpt lat="43.2576114" lon="12.2678526"><ele>577.0</ele><time>2026-04-19T10:41:19.876Z</time></trkpt><trkpt lat="43.2575126" lon="12.2676589"><ele>577.0</ele><time>2026-04-19T10:41:20.875Z</time></trkpt><trkpt lat="43.2574191" lon="12.2674592"><ele>577.0</ele><time>2026-04-19T10:41:21.877Z</time></trkpt><trkpt lat="43.2573278" lon="12.267305"><ele>577.0</ele><time>2026-04-19T10:41:22.877Z</time></trkpt><trkpt lat="43.2572142" lon="12.2671694"><ele>576.5</ele><time>2026-04-19T10:41:23.875Z</time></trkpt><trkpt lat="43.2571012" lon="12.2670268"><ele>576.0</ele><time>2026-04-19T10:41:24.875Z</time></trkpt><trkpt lat="43.2569676" lon="12.2669006"><ele>575.5</ele><time>2026-04-19T10:41:25.877Z</time></trkpt><trkpt lat="43.2568566" lon="12.2668273"><ele>575.0</ele><time>2026-04-19T10:41:26.876Z</time></trkpt><trkpt lat="43.2567378" lon="12.2667384"><ele>575.0</ele><time>2026-04-19T10:41:27.877Z</time></trkpt><trkpt lat="43.2566711" lon="12.2666143"><ele>575.0</ele><time>2026-04-19T10:41:28.875Z</time></trkpt><trkpt lat="43.2566281" lon="12.2664809"><ele>575.0</ele><time>2026-04-19T10:41:29.876Z</time></trkpt><trkpt lat="43.256621" lon="12.2663152"><ele>575.0</ele><time>2026-04-19T10:41:30.876Z</time></trkpt><trkpt lat="43.2566393" lon="12.2661412"><ele>574.5</ele><time>2026-04-19T10:41:31.877Z</time></trkpt><trkpt lat="43.2566737" lon="12.2659632"><ele>574.0</ele><time>2026-04-19T10:41:32.877Z</time></trkpt><trkpt lat="43.2567111" lon="12.2657715"><ele>573.5</ele><time>2026-04-19T10:41:33.875Z</time></trkpt><trkpt lat="43.2567535" lon="12.2655617"><ele>573.0</ele><time>2026-04-19T10:41:34.876Z</time></trkpt><trkpt lat="43.2567806" lon="12.265359"><ele>573.0</ele><time>2026-04-19T10:41:35.877Z</time></trkpt><trkpt lat="43.2567755" lon="12.2651656"><ele>573.0</ele><time>2026-04-19T10:41:36.876Z</time></trkpt><trkpt lat="43.2567401" lon="12.2649896"><ele>573.0</ele><time>2026-04-19T10:41:37.876Z</time></trkpt><trkpt lat="43.2566676" lon="12.2648364"><ele>573.0</ele><time>2026-04-19T10:41:38.875Z</time></trkpt><trkpt lat="43.2565657" lon="12.2646845"><ele>572.3333333333334</ele><time>2026-04-19T10:41:39.876Z</time></trkpt><trkpt lat="43.256453" lon="12.2645367"><ele>571.6666666666667</ele><time>2026-04-19T10:41:40.877Z</time></trkpt><trkpt lat="43.2563522" lon="12.2643915"><ele>571.0</ele><time>2026-04-19T10:41:41.875Z</time></trkpt><trkpt lat="43.2562677" lon="12.2642108"><ele>570.6666666666667</ele><time>2026-04-19T10:41:42.877Z</time></trkpt><trkpt lat="43.2562109" lon="12.2640015"><ele>570.3333333333334</ele><time>2026-04-19T10:41:43.876Z</time></trkpt><trkpt lat="43.2561657" lon="12.2637951"><ele>570.0</ele><time>2026-04-19T10:41:44.877Z</time></trkpt><trkpt lat="43.2561158" lon="12.2636125"><ele>573.5</ele><time>2026-04-19T10:41:45.877Z</time></trkpt><trkpt lat="43.2560494" lon="12.2634476"><ele>577.0</ele><time>2026-04-19T10:41:46.877Z</time></trkpt><trkpt lat="43.2559565" lon="12.2633164"><ele>580.5</ele><time>2026-04-19T10:41:47.876Z</time></trkpt><trkpt lat="43.2558406" lon="12.2632312"><ele>584.0</ele><time>2026-04-19T10:41:48.876Z</time></trkpt><trkpt lat="43.255709" lon="12.2631889"><ele>581.3333333333333</ele><time>2026-04-19T10:41:49.875Z</time></trkpt><trkpt lat="43.2555577" lon="12.2631679"><ele>578.6666666666666</ele><time>2026-04-19T10:41:50.877Z</time></trkpt><trkpt lat="43.2554" lon="12.2631479"><ele>576.0</ele><time>2026-04-19T10:41:51.877Z</time></trkpt><trkpt lat="43.2552481" lon="12.2631105"><ele>586.3333333333334</ele><time>2026-04-19T10:41:52.875Z</time></trkpt><trkpt lat="43.2550878" lon="12.2630406"><ele>596.6666666666667</ele><time>2026-04-19T10:41:53.877Z</time></trkpt><trkpt lat="43.2549367" lon="12.2629555"><ele>607.0</ele><time>2026-04-19T10:41:54.875Z</time></trkpt><trkpt lat="43.2548016" lon="12.2628725"><ele>600.0</ele><time>2026-04-19T10:41:55.876Z</time></trkpt><trkpt lat="43.2546826" lon="12.2627902"><ele>593.0</ele><time>2026-04-19T10:41:56.876Z</time></trkpt><trkpt lat="43.2545897" lon="12.2627021"><ele>586.0</ele><time>2026-04-19T10:41:57.876Z</time></trkpt><trkpt lat="43.2545193" lon="12.262601"><ele>579.0</ele><time>2026-04-19T10:41:58.876Z</time></trkpt><trkpt lat="43.2544734" lon="12.2624893"><ele>572.0</ele><time>2026-04-19T10:41:59.877Z</time></trkpt><trkpt lat="43.2544556" lon="12.262364"><ele>572.5</ele><time>2026-04-19T10:42:00.877Z</time></trkpt><trkpt lat="43.2544632" lon="12.2622164"><ele>573.0</ele><time>2026-04-19T10:42:01.877Z</time></trkpt><trkpt lat="43.2544847" lon="12.2620487"><ele>573.5</ele><time>2026-04-19T10:42:02.877Z</time></trkpt><trkpt lat="43.2545037" lon="12.2618582"><ele>574.0</ele><time>2026-04-19T10:42:03.876Z</time></trkpt><trkpt lat="43.2545279" lon="12.2616632"><ele>574.0</ele><time>2026-04-19T10:42:04.876Z</time></trkpt><trkpt lat="43.2545687" lon="12.2614867"><ele>574.0</ele><time>2026-04-19T10:42:05.876Z</time></trkpt><trkpt lat="43.2546347" lon="12.2613106"><ele>574.0</ele><time>2026-04-19T10:42:06.877Z</time></trkpt><trkpt lat="43.2547267" lon="12.2611393"><ele>574.0</ele><time>2026-04-19T10:42:07.876Z</time></trkpt><trkpt lat="43.2548362" lon="12.2609846"><ele>578.5</ele><time>2026-04-19T10:42:08.876Z</time></trkpt><trkpt lat="43.2549361" lon="12.260842"><ele>583.0</ele><time>2026-04-19T10:42:09.877Z</time></trkpt><trkpt lat="43.2550258" lon="12.26071"><ele>587.5</ele><time>2026-04-19T10:42:10.877Z</time></trkpt><trkpt lat="43.2550908" lon="12.2605799"><ele>592.0</ele><time>2026-04-19T10:42:11.876Z</time></trkpt><trkpt lat="43.2551254" lon="12.2604378"><ele>592.0</ele><time>2026-04-19T10:42:12.876Z</time></trkpt><trkpt lat="43.2551383" lon="12.2602692"><ele>592.0</ele><time>2026-04-19T10:42:13.876Z</time></trkpt><trkpt lat="43.2551311" lon="12.2600979"><ele>592.0</ele><time>2026-04-19T10:42:14.875Z</time></trkpt><trkpt lat="43.2551289" lon="12.2599435"><ele>592.0</ele><time>2026-04-19T10:42:15.876Z</time></trkpt><trkpt lat="43.2551544" lon="12.2597956"><ele>592.0</ele><time>2026-04-19T10:42:16.876Z</time></trkpt><trkpt lat="43.2552107" lon="12.2596573"><ele>592.0</ele><time>2026-04-19T10:42:17.877Z</time></trkpt><trkpt lat="43.2552926" lon="12.2595265"><ele>592.0</ele><time>2026-04-19T10:42:18.876Z</time></trkpt><trkpt lat="43.2553959" lon="12.2593982"><ele>592.0</ele><time>2026-04-19T10:42:19.876Z</time></trkpt><trkpt lat="43.2554959" lon="12.2592785"><ele>592.0</ele><time>2026-04-19T10:42:20.877Z</time></trkpt><trkpt lat="43.255585" lon="12.259159"><ele>592.0</ele><time>2026-04-19T10:42:21.877Z</time></trkpt><trkpt lat="43.25566" lon="12.2590287"><ele>592.0</ele><time>2026-04-19T10:42:22.876Z</time></trkpt><trkpt lat="43.2557198" lon="12.2589036"><ele>592.0</ele><time>2026-04-19T10:42:23.876Z</time></trkpt><trkpt lat="43.255766" lon="12.258755"><ele>593.5</ele><time>2026-04-19T10:42:24.876Z</time></trkpt><trkpt lat="43.255705" lon="12.2585803"><ele>595.0</ele><time>2026-04-19T10:42:25.877Z</time></trkpt><trkpt lat="43.2556487" lon="12.2584184"><ele>596.5</ele><time>2026-04-19T10:42:26.876Z</time></trkpt><trkpt lat="43.2555752" lon="12.2582772"><ele>598.0</ele><time>2026-04-19T10:42:27.877Z</time></trkpt><trkpt lat="43.2554852" lon="12.2581211"><ele>600.0</ele><time>2026-04-19T10:42:28.876Z</time></trkpt><trkpt lat="43.2553833" lon="12.2579586"><ele>602.0</ele><time>2026-04-19T10:42:29.875Z</time></trkpt><trkpt lat="43.2552797" lon="12.2577756"><ele>604.0</ele><time>2026-04-19T10:42:30.876Z</time></trkpt><trkpt lat="43.2551606" lon="12.2575816"><ele>604.0</ele><time>2026-04-19T10:42:31.876Z</time></trkpt><trkpt lat="43.255032" lon="12.2573746"><ele>604.0</ele><time>2026-04-19T10:42:32.876Z</time></trkpt><trkpt lat="43.2549154" lon="12.2571808"><ele>604.0</ele><time>2026-04-19T10:42:33.875Z</time></trkpt><trkpt lat="43.2547982" lon="12.256989"><ele>604.0</ele><time>2026-04-19T10:42:34.875Z</time></trkpt><trkpt lat="43.2546735" lon="12.2567859"><ele>604.0</ele><time>2026-04-19T10:42:35.874Z</time></trkpt><trkpt lat="43.2545555" lon="12.2565897"><ele>604.0</ele><time>2026-04-19T10:42:36.876Z</time></trkpt><trkpt lat="43.254445" lon="12.2563989"><ele>608.0</ele><time>2026-04-19T10:42:37.876Z</time></trkpt><trkpt lat="43.2543287" lon="12.2562092"><ele>612.0</ele><time>2026-04-19T10:42:38.875Z</time></trkpt><trkpt lat="43.254216" lon="12.2560199"><ele>616.0</ele><time>2026-04-19T10:42:39.875Z</time></trkpt><trkpt lat="43.2541139" lon="12.2558394"><ele>616.0</ele><time>2026-04-19T10:42:40.875Z</time></trkpt><trkpt lat="43.254016" lon="12.255673"><ele>616.0</ele><time>2026-04-19T10:42:41.875Z</time></trkpt><trkpt lat="43.253913" lon="12.2555147"><ele>616.0</ele><time>2026-04-19T10:42:42.874Z</time></trkpt><trkpt lat="43.2537981" lon="12.2553702"><ele>618.6666666666667</ele><time>2026-04-19T10:42:43.875Z</time></trkpt><trkpt lat="43.2536681" lon="12.255254"><ele>621.3333333333334</ele><time>2026-04-19T10:42:44.876Z</time></trkpt><trkpt lat="43.253514" lon="12.2551636"><ele>624.0</ele><time>2026-04-19T10:42:45.876Z</time></trkpt><trkpt lat="43.2533609" lon="12.2550838"><ele>624.0</ele><time>2026-04-19T10:42:46.876Z</time></trkpt><trkpt lat="43.2532249" lon="12.2550064"><ele>624.0</ele><time>2026-04-19T10:42:47.876Z</time></trkpt><trkpt lat="43.2530964" lon="12.2549103"><ele>624.0</ele><time>2026-04-19T10:42:48.875Z</time></trkpt><trkpt lat="43.2529791" lon="12.2547801"><ele>624.0</ele><time>2026-04-19T10:42:49.875Z</time></trkpt><trkpt lat="43.2528661" lon="12.2546252"><ele>627.0</ele><time>2026-04-19T10:42:50.874Z</time></trkpt><trkpt lat="43.2527548" lon="12.2544577"><ele>630.0</ele><time>2026-04-19T10:42:51.876Z</time></trkpt><trkpt lat="43.2526403" lon="12.2542733"><ele>633.0</ele><time>2026-04-19T10:42:52.876Z</time></trkpt><trkpt lat="43.2525345" lon="12.2540976"><ele>633.0</ele><time>2026-04-19T10:42:53.876Z</time></trkpt><trkpt lat="43.2524405" lon="12.2539398"><ele>633.0</ele><time>2026-04-19T10:42:54.876Z</time></trkpt><trkpt lat="43.2523439" lon="12.2538201"><ele>633.0</ele><time>2026-04-19T10:42:55.875Z</time></trkpt><trkpt lat="43.2522371" lon="12.2537253"><ele>633.0</ele><time>2026-04-19T10:42:56.875Z</time></trkpt><trkpt lat="43.2521156" lon="12.2536232"><ele>633.0</ele><time>2026-04-19T10:42:57.876Z</time></trkpt><trkpt lat="43.2519995" lon="12.2535624"><ele>633.0</ele><time>2026-04-19T10:42:58.876Z</time></trkpt><trkpt lat="43.2519056" lon="12.2534859"><ele>633.0</ele><time>2026-04-19T10:42:59.876Z</time></trkpt><trkpt lat="43.2518285" lon="12.2533667"><ele>633.0</ele><time>2026-04-19T10:43:00.874Z</time></trkpt><trkpt lat="43.251767" lon="12.2532155"><ele>629.0</ele><time>2026-04-19T10:43:01.874Z</time></trkpt><trkpt lat="43.2517103" lon="12.25305"><ele>625.0</ele><time>2026-04-19T10:43:02.876Z</time></trkpt><trkpt lat="43.2516367" lon="12.2528764"><ele>621.0</ele><time>2026-04-19T10:43:03.876Z</time></trkpt><trkpt lat="43.2515369" lon="12.2527094"><ele>617.0</ele><time>2026-04-19T10:43:04.875Z</time></trkpt><trkpt lat="43.2514466" lon="12.252568"><ele>617.0</ele><time>2026-04-19T10:43:05.876Z</time></trkpt><trkpt lat="43.2513669" lon="12.2524192"><ele>617.0</ele><time>2026-04-19T10:43:06.875Z</time></trkpt><trkpt lat="43.2513106" lon="12.2522618"><ele>617.0</ele><time>2026-04-19T10:43:07.875Z</time></trkpt><trkpt lat="43.2512767" lon="12.2521044"><ele>617.0</ele><time>2026-04-19T10:43:08.876Z</time></trkpt><trkpt lat="43.2512797" lon="12.2519548"><ele>619.6</ele><time>2026-04-19T10:43:09.875Z</time></trkpt><trkpt lat="43.2513152" lon="12.2518283"><ele>622.2</ele><time>2026-04-19T10:43:10.876Z</time></trkpt><trkpt lat="43.2513619" lon="12.2517053"><ele>624.8</ele><time>2026-04-19T10:43:11.875Z</time></trkpt><trkpt lat="43.2513953" lon="12.2515882"><ele>627.4</ele><time>2026-04-19T10:43:12.876Z</time></trkpt><trkpt lat="43.2514287" lon="12.251464"><ele>630.0</ele><time>2026-04-19T10:43:13.876Z</time></trkpt><trkpt lat="43.2514387" lon="12.2513508"><ele>632.25</ele><time>2026-04-19T10:43:14.876Z</time></trkpt><trkpt lat="43.2513979" lon="12.2512047"><ele>634.5</ele><time>2026-04-19T10:43:15.876Z</time></trkpt><trkpt lat="43.2512564" lon="12.2510506"><ele>636.75</ele><time>2026-04-19T10:43:16.874Z</time></trkpt><trkpt lat="43.2511657" lon="12.2509109"><ele>639.0</ele><time>2026-04-19T10:43:17.876Z</time></trkpt><trkpt lat="43.2510717" lon="12.2507637"><ele>643.75</ele><time>2026-04-19T10:43:18.875Z</time></trkpt><trkpt lat="43.2509715" lon="12.250614"><ele>648.5</ele><time>2026-04-19T10:43:19.874Z</time></trkpt><trkpt lat="43.2508855" lon="12.2504761"><ele>653.25</ele><time>2026-04-19T10:43:20.874Z</time></trkpt><trkpt lat="43.2507954" lon="12.2503616"><ele>658.0</ele><time>2026-04-19T10:43:21.874Z</time></trkpt><trkpt lat="43.2506726" lon="12.250277"><ele>656.6666666666667</ele><time>2026-04-19T10:43:22.875Z</time></trkpt><trkpt lat="43.2505288" lon="12.2502125"><ele>655.3333333333334</ele><time>2026-04-19T10:43:23.876Z</time></trkpt><trkpt lat="43.2503743" lon="12.250169"><ele>654.0</ele><time>2026-04-19T10:43:24.874Z</time></trkpt><trkpt lat="43.2502139" lon="12.250133"><ele>654.0</ele><time>2026-04-19T10:43:25.875Z</time></trkpt><trkpt lat="43.25006" lon="12.2500976"><ele>654.0</ele><time>2026-04-19T10:43:26.875Z</time></trkpt><trkpt lat="43.2499196" lon="12.2500575"><ele>654.0</ele><time>2026-04-19T10:43:27.876Z</time></trkpt><trkpt lat="43.2497974" lon="12.25"><ele>654.0</ele><time>2026-04-19T10:43:28.875Z</time></trkpt><trkpt lat="43.2496932" lon="12.249895"><ele>656.0</ele><time>2026-04-19T10:43:29.876Z</time></trkpt><trkpt lat="43.2495936" lon="12.2497609"><ele>658.0</ele><time>2026-04-19T10:43:30.875Z</time></trkpt><trkpt lat="43.2495078" lon="12.2495906"><ele>660.0</ele><time>2026-04-19T10:43:31.875Z</time></trkpt><trkpt lat="43.2494319" lon="12.2494142"><ele>662.0</ele><time>2026-04-19T10:43:32.875Z</time></trkpt><trkpt lat="43.2493459" lon="12.2492675"><ele>662.0</ele><time>2026-04-19T10:43:33.874Z</time></trkpt><trkpt lat="43.2492416" lon="12.2491264"><ele>662.0</ele><time>2026-04-19T10:43:34.875Z</time></trkpt><trkpt lat="43.2491116" lon="12.2490096"><ele>662.0</ele><time>2026-04-19T10:43:35.876Z</time></trkpt><trkpt lat="43.2489676" lon="12.2488798"><ele>659.6666666666666</ele><time>2026-04-19T10:43:36.876Z</time></trkpt><trkpt lat="43.2488324" lon="12.2487428"><ele>657.3333333333334</ele><time>2026-04-19T10:43:37.876Z</time></trkpt><trkpt lat="43.2487103" lon="12.2486202"><ele>655.0</ele><time>2026-04-19T10:43:38.875Z</time></trkpt><trkpt lat="43.2485938" lon="12.2484982"><ele>655.0</ele><time>2026-04-19T10:43:39.875Z</time></trkpt><trkpt lat="43.2484885" lon="12.248353"><ele>655.0</ele><time>2026-04-19T10:43:40.876Z</time></trkpt><trkpt lat="43.2484187" lon="12.2481976"><ele>655.0</ele><time>2026-04-19T10:43:41.876Z</time></trkpt><trkpt lat="43.2483713" lon="12.2480188"><ele>655.0</ele><time>2026-04-19T10:43:42.876Z</time></trkpt><trkpt lat="43.2483385" lon="12.2478102"><ele>658.0</ele><time>2026-04-19T10:43:43.876Z</time></trkpt><trkpt lat="43.2483044" lon="12.2475912"><ele>661.0</ele><time>2026-04-19T10:43:44.875Z</time></trkpt><trkpt lat="43.248274" lon="12.2473655"><ele>664.0</ele><time>2026-04-19T10:43:45.875Z</time></trkpt><trkpt lat="43.2482455" lon="12.2471325"><ele>666.75</ele><time>2026-04-19T10:43:46.875Z</time></trkpt><trkpt lat="43.2482132" lon="12.2469181"><ele>669.5</ele><time>2026-04-19T10:43:47.876Z</time></trkpt><trkpt lat="43.2481826" lon="12.246723"><ele>672.25</ele><time>2026-04-19T10:43:48.876Z</time></trkpt><trkpt lat="43.2481474" lon="12.2465626"><ele>675.0</ele><time>2026-04-19T10:43:49.875Z</time></trkpt><trkpt lat="43.2481048" lon="12.246411"><ele>675.75</ele><time>2026-04-19T10:43:50.875Z</time></trkpt><trkpt lat="43.248054" lon="12.2462557"><ele>676.5</ele><time>2026-04-19T10:43:51.874Z</time></trkpt><trkpt lat="43.2479196" lon="12.2461346"><ele>677.25</ele><time>2026-04-19T10:43:52.876Z</time></trkpt><trkpt lat="43.2478185" lon="12.2460105"><ele>678.0</ele><time>2026-04-19T10:43:53.876Z</time></trkpt><trkpt lat="43.2476782" lon="12.2459245"><ele>678.0</ele><time>2026-04-19T10:43:54.875Z</time></trkpt><trkpt lat="43.2475671" lon="12.2458333"><ele>678.0</ele><time>2026-04-19T10:43:55.874Z</time></trkpt><trkpt lat="43.2474548" lon="12.2457633"><ele>678.0</ele><time>2026-04-19T10:43:56.875Z</time></trkpt><trkpt lat="43.2473464" lon="12.2457031"><ele>678.0</ele><time>2026-04-19T10:43:57.876Z</time></trkpt><trkpt lat="43.2472332" lon="12.245743"><ele>676.75</ele><time>2026-04-19T10:43:58.875Z</time></trkpt><trkpt lat="43.247111" lon="12.2458102"><ele>675.5</ele><time>2026-04-19T10:43:59.875Z</time></trkpt><trkpt lat="43.2469833" lon="12.2458941"><ele>674.25</ele><time>2026-04-19T10:44:00.875Z</time></trkpt><trkpt lat="43.2468667" lon="12.2459429"><ele>673.0</ele><time>2026-04-19T10:44:01.875Z</time></trkpt><trkpt lat="43.2467436" lon="12.2459898"><ele>673.0</ele><time>2026-04-19T10:44:02.875Z</time></trkpt><trkpt lat="43.2466241" lon="12.2459363"><ele>673.0</ele><time>2026-04-19T10:44:03.875Z</time></trkpt><trkpt lat="43.2465395" lon="12.245825"><ele>673.0</ele><time>2026-04-19T10:44:04.876Z</time></trkpt><trkpt lat="43.2464386" lon="12.2457324"><ele>673.0</ele><time>2026-04-19T10:44:05.874Z</time></trkpt><trkpt lat="43.2463441" lon="12.2456372"><ele>675.75</ele><time>2026-04-19T10:44:06.876Z</time></trkpt><trkpt lat="43.2462359" lon="12.2455282"><ele>678.5</ele><time>2026-04-19T10:44:07.875Z</time></trkpt><trkpt lat="43.2460966" lon="12.2454303"><ele>681.25</ele><time>2026-04-19T10:44:08.876Z</time></trkpt><trkpt lat="43.2459687" lon="12.2453523"><ele>684.0</ele><time>2026-04-19T10:44:09.876Z</time></trkpt><trkpt lat="43.2458525" lon="12.2452769"><ele>684.0</ele><time>2026-04-19T10:44:10.875Z</time></trkpt><trkpt lat="43.2457601" lon="12.2451417"><ele>684.0</ele><time>2026-04-19T10:44:11.875Z</time></trkpt><trkpt lat="43.2456703" lon="12.2449842"><ele>684.0</ele><time>2026-04-19T10:44:12.874Z</time></trkpt><trkpt lat="43.2455691" lon="12.244812"><ele>684.0</ele><time>2026-04-19T10:44:13.875Z</time></trkpt><trkpt lat="43.2454805" lon="12.2446403"><ele>686.25</ele><time>2026-04-19T10:44:14.875Z</time></trkpt><trkpt lat="43.2454004" lon="12.2444864"><ele>688.5</ele><time>2026-04-19T10:44:15.875Z</time></trkpt><trkpt lat="43.2453127" lon="12.2443439"><ele>690.75</ele><time>2026-04-19T10:44:16.876Z</time></trkpt><trkpt lat="43.2452318" lon="12.2442266"><ele>693.0</ele><time>2026-04-19T10:44:17.876Z</time></trkpt><trkpt lat="43.2451262" lon="12.244163"><ele>693.0</ele><time>2026-04-19T10:44:18.875Z</time></trkpt><trkpt lat="43.2450334" lon="12.244125"><ele>693.0</ele><time>2026-04-19T10:44:19.876Z</time></trkpt><trkpt lat="43.2449129" lon="12.2441133"><ele>693.0</ele><time>2026-04-19T10:44:20.876Z</time></trkpt><trkpt lat="43.2447657" lon="12.2442146"><ele>693.0</ele><time>2026-04-19T10:44:21.875Z</time></trkpt><trkpt lat="43.2446169" lon="12.2443284"><ele>694.75</ele><time>2026-04-19T10:44:22.874Z</time></trkpt><trkpt lat="43.2445083" lon="12.2445023"><ele>696.5</ele><time>2026-04-19T10:44:23.876Z</time></trkpt><trkpt lat="43.2444077" lon="12.2446278"><ele>698.25</ele><time>2026-04-19T10:44:24.875Z</time></trkpt><trkpt lat="43.2442843" lon="12.2447144"><ele>700.0</ele><time>2026-04-19T10:44:25.876Z</time></trkpt><trkpt lat="43.2441624" lon="12.2447471"><ele>700.0</ele><time>2026-04-19T10:44:26.875Z</time></trkpt><trkpt lat="43.2440335" lon="12.244707"><ele>700.0</ele><time>2026-04-19T10:44:27.876Z</time></trkpt><trkpt lat="43.2438959" lon="12.2446365"><ele>700.0</ele><time>2026-04-19T10:44:28.876Z</time></trkpt><trkpt lat="43.243767" lon="12.2445422"><ele>700.0</ele><time>2026-04-19T10:44:29.875Z</time></trkpt><trkpt lat="43.2436557" lon="12.2444225"><ele>701.0</ele><time>2026-04-19T10:44:30.875Z</time></trkpt><trkpt lat="43.2435573" lon="12.2442603"><ele>702.0</ele><time>2026-04-19T10:44:31.876Z</time></trkpt><trkpt lat="43.2434669" lon="12.2440795"><ele>703.0</ele><time>2026-04-19T10:44:32.876Z</time></trkpt><trkpt lat="43.2433894" lon="12.2438722"><ele>703.0</ele><time>2026-04-19T10:44:33.876Z</time></trkpt><trkpt lat="43.2433266" lon="12.2436732"><ele>703.0</ele><time>2026-04-19T10:44:34.875Z</time></trkpt><trkpt lat="43.2432659" lon="12.2434846"><ele>703.0</ele><time>2026-04-19T10:44:35.875Z</time></trkpt><trkpt lat="43.2431983" lon="12.2433271"><ele>703.0</ele><time>2026-04-19T10:44:36.876Z</time></trkpt><trkpt lat="43.2431129" lon="12.2431932"><ele>703.75</ele><time>2026-04-19T10:44:37.875Z</time></trkpt><trkpt lat="43.2430111" lon="12.2430716"><ele>704.5</ele><time>2026-04-19T10:44:38.874Z</time></trkpt><trkpt lat="43.242897" lon="12.2429689"><ele>705.25</ele><time>2026-04-19T10:44:39.875Z</time></trkpt><trkpt lat="43.2427199" lon="12.2429623"><ele>706.0</ele><time>2026-04-19T10:44:40.875Z</time></trkpt><trkpt lat="43.24258" lon="12.2429365"><ele>706.0</ele><time>2026-04-19T10:44:41.876Z</time></trkpt><trkpt lat="43.2424342" lon="12.2428591"><ele>706.0</ele><time>2026-04-19T10:44:42.875Z</time></trkpt><trkpt lat="43.2422859" lon="12.2427611"><ele>706.0</ele><time>2026-04-19T10:44:43.875Z</time></trkpt><trkpt lat="43.2421485" lon="12.2426515"><ele>703.25</ele><time>2026-04-19T10:44:44.874Z</time></trkpt><trkpt lat="43.2420303" lon="12.2425308"><ele>700.5</ele><time>2026-04-19T10:44:45.874Z</time></trkpt><trkpt lat="43.2419111" lon="12.2424313"><ele>697.75</ele><time>2026-04-19T10:44:46.874Z</time></trkpt><trkpt lat="43.2417893" lon="12.2423606"><ele>695.0</ele><time>2026-04-19T10:44:47.875Z</time></trkpt><trkpt lat="43.2416549" lon="12.2423082"><ele>696.0</ele><time>2026-04-19T10:44:48.875Z</time></trkpt><trkpt lat="43.24151" lon="12.2422832"><ele>697.0</ele><time>2026-04-19T10:44:49.873Z</time></trkpt><trkpt lat="43.2413713" lon="12.242333"><ele>698.0</ele><time>2026-04-19T10:44:50.875Z</time></trkpt><trkpt lat="43.2412409" lon="12.2423746"><ele>699.0</ele><time>2026-04-19T10:44:51.875Z</time></trkpt><trkpt lat="43.2411429" lon="12.2424172"><ele>699.0</ele><time>2026-04-19T10:44:52.874Z</time></trkpt><trkpt lat="43.2410322" lon="12.2424348"><ele>699.0</ele><time>2026-04-19T10:44:53.875Z</time></trkpt><trkpt lat="43.2409358" lon="12.2424289"><ele>699.0</ele><time>2026-04-19T10:44:54.875Z</time></trkpt><trkpt lat="43.2408309" lon="12.2424084"><ele>699.0</ele><time>2026-04-19T10:44:55.874Z</time></trkpt><trkpt lat="43.2407342" lon="12.2423791"><ele>699.0</ele><time>2026-04-19T10:44:56.873Z</time></trkpt><trkpt lat="43.240647" lon="12.2423521"><ele>698.6</ele><time>2026-04-19T10:44:57.873Z</time></trkpt><trkpt lat="43.2405735" lon="12.2423274"><ele>698.2</ele><time>2026-04-19T10:44:58.874Z</time></trkpt><trkpt lat="43.2404679" lon="12.2423075"><ele>697.8000000000001</ele><time>2026-04-19T10:45:00.874Z</time></trkpt><trkpt lat="43.2403881" lon="12.2423403"><ele>697.4000000000001</ele><time>2026-04-19T10:45:02.875Z</time></trkpt><trkpt lat="43.2402698" lon="12.2424471"><ele>697.0</ele><time>2026-04-19T10:45:04.873Z</time></trkpt><trkpt lat="43.2402065" lon="12.2425066"><ele>697.0</ele><time>2026-04-19T10:45:05.875Z</time></trkpt><trkpt lat="43.2401184" lon="12.242598"><ele>697.0</ele><time>2026-04-19T10:45:06.874Z</time></trkpt><trkpt lat="43.2400259" lon="12.2426871"><ele>697.0</ele><time>2026-04-19T10:45:07.874Z</time></trkpt><trkpt lat="43.2399286" lon="12.2427753"><ele>697.0</ele><time>2026-04-19T10:45:08.875Z</time></trkpt><trkpt lat="43.2398165" lon="12.2428807"><ele>698.3333333333334</ele><time>2026-04-19T10:45:09.875Z</time></trkpt><trkpt lat="43.2396934" lon="12.2429999"><ele>699.6666666666666</ele><time>2026-04-19T10:45:10.874Z</time></trkpt><trkpt lat="43.2395638" lon="12.2431332"><ele>701.0</ele><time>2026-04-19T10:45:11.874Z</time></trkpt><trkpt lat="43.2394454" lon="12.2432636"><ele>703.3333333333333</ele><time>2026-04-19T10:45:12.874Z</time></trkpt><trkpt lat="43.2393187" lon="12.2434119"><ele>705.6666666666666</ele><time>2026-04-19T10:45:13.875Z</time></trkpt><trkpt lat="43.2391895" lon="12.2435717"><ele>708.0</ele><time>2026-04-19T10:45:14.875Z</time></trkpt><trkpt lat="43.2390692" lon="12.2437077"><ele>710.0</ele><time>2026-04-19T10:45:15.875Z</time></trkpt><trkpt lat="43.2389557" lon="12.2438256"><ele>712.0</ele><time>2026-04-19T10:45:16.874Z</time></trkpt><trkpt lat="43.2388364" lon="12.2439171"><ele>714.0</ele><time>2026-04-19T10:45:17.875Z</time></trkpt><trkpt lat="43.2386983" lon="12.2439829"><ele>716.0</ele><time>2026-04-19T10:45:18.874Z</time></trkpt><trkpt lat="43.2385462" lon="12.2440279"><ele>716.0</ele><time>2026-04-19T10:45:19.875Z</time></trkpt><trkpt lat="43.2383897" lon="12.244084"><ele>716.0</ele><time>2026-04-19T10:45:20.875Z</time></trkpt><trkpt lat="43.2382266" lon="12.2441698"><ele>716.0</ele><time>2026-04-19T10:45:21.873Z</time></trkpt><trkpt lat="43.23806" lon="12.2442809"><ele>715.6666666666666</ele><time>2026-04-19T10:45:22.873Z</time></trkpt><trkpt lat="43.2378942" lon="12.2444073"><ele>715.3333333333334</ele><time>2026-04-19T10:45:23.875Z</time></trkpt><trkpt lat="43.2377248" lon="12.2445334"><ele>715.0</ele><time>2026-04-19T10:45:24.874Z</time></trkpt><trkpt lat="43.2375484" lon="12.2446661"><ele>714.0</ele><time>2026-04-19T10:45:25.874Z</time></trkpt><trkpt lat="43.2373721" lon="12.2447981"><ele>713.0</ele><time>2026-04-19T10:45:26.875Z</time></trkpt><trkpt lat="43.2371998" lon="12.2449333"><ele>712.0</ele><time>2026-04-19T10:45:27.873Z</time></trkpt><trkpt lat="43.2370226" lon="12.245079"><ele>716.6666666666667</ele><time>2026-04-19T10:45:28.873Z</time></trkpt><trkpt lat="43.2368454" lon="12.2452411"><ele>721.3333333333334</ele><time>2026-04-19T10:45:29.874Z</time></trkpt><trkpt lat="43.2366758" lon="12.2454252"><ele>726.0</ele><time>2026-04-19T10:45:30.874Z</time></trkpt><trkpt lat="43.2365158" lon="12.2456262"><ele>725.6666666666666</ele><time>2026-04-19T10:45:31.874Z</time></trkpt><trkpt lat="43.2363714" lon="12.245818"><ele>725.3333333333333</ele><time>2026-04-19T10:45:32.875Z</time></trkpt><trkpt lat="43.2362356" lon="12.2460007"><ele>725.0</ele><time>2026-04-19T10:45:33.874Z</time></trkpt><trkpt lat="43.2361082" lon="12.2461672"><ele>725.0</ele><time>2026-04-19T10:45:34.873Z</time></trkpt><trkpt lat="43.2359874" lon="12.2463126"><ele>725.0</ele><time>2026-04-19T10:45:35.875Z</time></trkpt><trkpt lat="43.2358758" lon="12.2464053"><ele>725.0</ele><time>2026-04-19T10:45:36.874Z</time></trkpt><trkpt lat="43.2357582" lon="12.2464468"><ele>725.0</ele><time>2026-04-19T10:45:37.874Z</time></trkpt><trkpt lat="43.2356332" lon="12.2464342"><ele>726.75</ele><time>2026-04-19T10:45:38.873Z</time></trkpt><trkpt lat="43.2355089" lon="12.2463746"><ele>728.5</ele><time>2026-04-19T10:45:39.874Z</time></trkpt><trkpt lat="43.2353771" lon="12.2462923"><ele>730.25</ele><time>2026-04-19T10:45:40.873Z</time></trkpt><trkpt lat="43.235236" lon="12.2462208"><ele>732.0</ele><time>2026-04-19T10:45:41.874Z</time></trkpt><trkpt lat="43.2350907" lon="12.2462028"><ele>732.0</ele><time>2026-04-19T10:45:42.874Z</time></trkpt><trkpt lat="43.23494" lon="12.2462405"><ele>732.0</ele><time>2026-04-19T10:45:43.874Z</time></trkpt><trkpt lat="43.2347824" lon="12.2463108"><ele>732.0</ele><time>2026-04-19T10:45:44.874Z</time></trkpt><trkpt lat="43.2346173" lon="12.2464016"><ele>737.3333333333334</ele><time>2026-04-19T10:45:45.875Z</time></trkpt><trkpt lat="43.2344479" lon="12.246503"><ele>742.6666666666667</ele><time>2026-04-19T10:45:46.874Z</time></trkpt><trkpt lat="43.2342834" lon="12.2466048"><ele>748.0</ele><time>2026-04-19T10:45:47.874Z</time></trkpt><trkpt lat="43.2341291" lon="12.2466862"><ele>750.3333333333334</ele><time>2026-04-19T10:45:48.874Z</time></trkpt><trkpt lat="43.2339587" lon="12.2467424"><ele>752.6666666666666</ele><time>2026-04-19T10:45:49.874Z</time></trkpt><trkpt lat="43.2337761" lon="12.2467646"><ele>755.0</ele><time>2026-04-19T10:45:50.873Z</time></trkpt><trkpt lat="43.2335899" lon="12.2467628"><ele>755.0</ele><time>2026-04-19T10:45:51.874Z</time></trkpt><trkpt lat="43.2334147" lon="12.24674"><ele>755.0</ele><time>2026-04-19T10:45:52.874Z</time></trkpt><trkpt lat="43.2332352" lon="12.2467396"><ele>755.0</ele><time>2026-04-19T10:45:53.875Z</time></trkpt><trkpt lat="43.2330724" lon="12.2467496"><ele>755.0</ele><time>2026-04-19T10:45:54.874Z</time></trkpt><trkpt lat="43.2329257" lon="12.2467608"><ele>755.0</ele><time>2026-04-19T10:45:55.875Z</time></trkpt><trkpt lat="43.2327882" lon="12.2467972"><ele>755.0</ele><time>2026-04-19T10:45:56.874Z</time></trkpt><trkpt lat="43.2326958" lon="12.2469117"><ele>755.0</ele><time>2026-04-19T10:45:57.875Z</time></trkpt><trkpt lat="43.2326163" lon="12.2470469"><ele>755.0</ele><time>2026-04-19T10:45:58.875Z</time></trkpt><trkpt lat="43.2325565" lon="12.2472178"><ele>755.0</ele><time>2026-04-19T10:45:59.873Z</time></trkpt><trkpt lat="43.2325093" lon="12.2474264"><ele>755.0</ele><time>2026-04-19T10:46:00.875Z</time></trkpt><trkpt lat="43.2324419" lon="12.2476117"><ele>755.0</ele><time>2026-04-19T10:46:01.875Z</time></trkpt><trkpt lat="43.2323459" lon="12.2477681"><ele>754.6666666666666</ele><time>2026-04-19T10:46:02.875Z</time></trkpt><trkpt lat="43.2322178" lon="12.2479043"><ele>754.3333333333334</ele><time>2026-04-19T10:46:03.874Z</time></trkpt><trkpt lat="43.2320591" lon="12.2480178"><ele>754.0</ele><time>2026-04-19T10:46:04.874Z</time></trkpt><trkpt lat="43.2318851" lon="12.2481113"><ele>756.3333333333334</ele><time>2026-04-19T10:46:05.874Z</time></trkpt><trkpt lat="43.2316962" lon="12.2482156"><ele>758.6666666666666</ele><time>2026-04-19T10:46:06.873Z</time></trkpt><trkpt lat="43.2315039" lon="12.2483294"><ele>761.0</ele><time>2026-04-19T10:46:07.874Z</time></trkpt><trkpt lat="43.2313308" lon="12.2484336"><ele>766.0</ele><time>2026-04-19T10:46:08.874Z</time></trkpt><trkpt lat="43.2311555" lon="12.2485307"><ele>771.0</ele><time>2026-04-19T10:46:09.873Z</time></trkpt><trkpt lat="43.2309712" lon="12.2486224"><ele>776.0</ele><time>2026-04-19T10:46:10.873Z</time></trkpt><trkpt lat="43.2307835" lon="12.248709"><ele>776.3333333333334</ele><time>2026-04-19T10:46:11.873Z</time></trkpt><trkpt lat="43.2305904" lon="12.24878"><ele>776.6666666666667</ele><time>2026-04-19T10:46:12.873Z</time></trkpt><trkpt lat="43.230399" lon="12.2488605"><ele>777.0</ele><time>2026-04-19T10:46:13.875Z</time></trkpt><trkpt lat="43.2302235" lon="12.2489661"><ele>777.0</ele><time>2026-04-19T10:46:14.875Z</time></trkpt><trkpt lat="43.2300529" lon="12.2490766"><ele>777.0</ele><time>2026-04-19T10:46:15.874Z</time></trkpt><trkpt lat="43.2298879" lon="12.2491667"><ele>777.0</ele><time>2026-04-19T10:46:16.874Z</time></trkpt><trkpt lat="43.2297166" lon="12.2492163"><ele>778.3333333333333</ele><time>2026-04-19T10:46:17.874Z</time></trkpt><trkpt lat="43.2295391" lon="12.2492349"><ele>779.6666666666666</ele><time>2026-04-19T10:46:18.873Z</time></trkpt><trkpt lat="43.2293743" lon="12.2492473"><ele>781.0</ele><time>2026-04-19T10:46:19.874Z</time></trkpt><trkpt lat="43.2292103" lon="12.2492926"><ele>781.0</ele><time>2026-04-19T10:46:20.874Z</time></trkpt><trkpt lat="43.2290519" lon="12.2493843"><ele>781.0</ele><time>2026-04-19T10:46:21.875Z</time></trkpt><trkpt lat="43.2289009" lon="12.2494706"><ele>781.0</ele><time>2026-04-19T10:46:22.874Z</time></trkpt><trkpt lat="43.2287595" lon="12.2496655"><ele>779.6666666666666</ele><time>2026-04-19T10:46:23.874Z</time></trkpt><trkpt lat="43.2286333" lon="12.2498175"><ele>778.3333333333333</ele><time>2026-04-19T10:46:24.873Z</time></trkpt><trkpt lat="43.2285091" lon="12.2499597"><ele>777.0</ele><time>2026-04-19T10:46:25.875Z</time></trkpt><trkpt lat="43.2283924" lon="12.2500686"><ele>777.0</ele><time>2026-04-19T10:46:26.874Z</time></trkpt><trkpt lat="43.228266" lon="12.2501616"><ele>777.0</ele><time>2026-04-19T10:46:27.875Z</time></trkpt><trkpt lat="43.2281323" lon="12.2502189"><ele>777.0</ele><time>2026-04-19T10:46:28.874Z</time></trkpt><trkpt lat="43.2279771" lon="12.2502413"><ele>777.0</ele><time>2026-04-19T10:46:29.875Z</time></trkpt><trkpt lat="43.2278004" lon="12.2502401"><ele>776.0</ele><time>2026-04-19T10:46:30.874Z</time></trkpt><trkpt lat="43.2276152" lon="12.2502293"><ele>775.0</ele><time>2026-04-19T10:46:31.874Z</time></trkpt><trkpt lat="43.2274259" lon="12.2502124"><ele>774.0</ele><time>2026-04-19T10:46:32.874Z</time></trkpt><trkpt lat="43.2272268" lon="12.2501987"><ele>770.6666666666666</ele><time>2026-04-19T10:46:33.874Z</time></trkpt><trkpt lat="43.2270175" lon="12.2501816"><ele>767.3333333333333</ele><time>2026-04-19T10:46:34.874Z</time></trkpt><trkpt lat="43.2268138" lon="12.25016"><ele>764.0</ele><time>2026-04-19T10:46:35.875Z</time></trkpt><trkpt lat="43.2266135" lon="12.2501422"><ele>761.6666666666666</ele><time>2026-04-19T10:46:36.875Z</time></trkpt><trkpt lat="43.226416" lon="12.2501338"><ele>759.3333333333334</ele><time>2026-04-19T10:46:37.874Z</time></trkpt><trkpt lat="43.2262202" lon="12.2501237"><ele>757.0</ele><time>2026-04-19T10:46:38.873Z</time></trkpt><trkpt lat="43.2260278" lon="12.250135"><ele>757.0</ele><time>2026-04-19T10:46:39.875Z</time></trkpt><trkpt lat="43.2258094" lon="12.2502075"><ele>757.0</ele><time>2026-04-19T10:46:40.874Z</time></trkpt><trkpt lat="43.2256065" lon="12.2502761"><ele>757.0</ele><time>2026-04-19T10:46:41.873Z</time></trkpt><trkpt lat="43.2253952" lon="12.2503523"><ele>756.6666666666667</ele><time>2026-04-19T10:46:42.875Z</time></trkpt><trkpt lat="43.2251944" lon="12.2504628"><ele>756.3333333333334</ele><time>2026-04-19T10:46:43.874Z</time></trkpt><trkpt lat="43.2250045" lon="12.2505637"><ele>756.0</ele><time>2026-04-19T10:46:44.874Z</time></trkpt><trkpt lat="43.2248203" lon="12.2506843"><ele>759.0</ele><time>2026-04-19T10:46:45.875Z</time></trkpt><trkpt lat="43.224645" lon="12.2508046"><ele>762.0</ele><time>2026-04-19T10:46:46.875Z</time></trkpt><trkpt lat="43.2244804" lon="12.2509185"><ele>765.0</ele><time>2026-04-19T10:46:47.873Z</time></trkpt><trkpt lat="43.2243164" lon="12.2510226"><ele>765.0</ele><time>2026-04-19T10:46:48.873Z</time></trkpt><trkpt lat="43.2241597" lon="12.2511127"><ele>765.0</ele><time>2026-04-19T10:46:49.875Z</time></trkpt><trkpt lat="43.2239988" lon="12.2512053"><ele>765.0</ele><time>2026-04-19T10:46:50.875Z</time></trkpt><trkpt lat="43.223832" lon="12.2512718"><ele>764.3333333333334</ele><time>2026-04-19T10:46:51.874Z</time></trkpt><trkpt lat="43.2236494" lon="12.2513276"><ele>763.6666666666667</ele><time>2026-04-19T10:46:52.873Z</time></trkpt><trkpt lat="43.2234567" lon="12.2513069"><ele>763.0</ele><time>2026-04-19T10:46:53.874Z</time></trkpt><trkpt lat="43.2232716" lon="12.2513075"><ele>758.6666666666667</ele><time>2026-04-19T10:46:54.873Z</time></trkpt><trkpt lat="43.2230986" lon="12.2512975"><ele>754.3333333333334</ele><time>2026-04-19T10:46:55.873Z</time></trkpt><trkpt lat="43.2229575" lon="12.2512308"><ele>750.0</ele><time>2026-04-19T10:46:56.874Z</time></trkpt><trkpt lat="43.2228149" lon="12.2511949"><ele>750.0</ele><time>2026-04-19T10:46:57.873Z</time></trkpt><trkpt lat="43.2226769" lon="12.2511659"><ele>750.0</ele><time>2026-04-19T10:46:58.874Z</time></trkpt><trkpt lat="43.2225483" lon="12.2511546"><ele>750.0</ele><time>2026-04-19T10:46:59.873Z</time></trkpt><trkpt lat="43.2224271" lon="12.2511535"><ele>750.0</ele><time>2026-04-19T10:47:00.873Z</time></trkpt><trkpt lat="43.2223138" lon="12.2511452"><ele>748.25</ele><time>2026-04-19T10:47:01.873Z</time></trkpt><trkpt lat="43.2222024" lon="12.2511483"><ele>746.5</ele><time>2026-04-19T10:47:02.872Z</time></trkpt><trkpt lat="43.2220909" lon="12.2511501"><ele>744.75</ele><time>2026-04-19T10:47:03.874Z</time></trkpt><trkpt lat="43.2219712" lon="12.2511553"><ele>743.0</ele><time>2026-04-19T10:47:04.872Z</time></trkpt><trkpt lat="43.2218278" lon="12.2511539"><ele>743.0</ele><time>2026-04-19T10:47:05.874Z</time></trkpt><trkpt lat="43.2216452" lon="12.2511813"><ele>743.0</ele><time>2026-04-19T10:47:06.873Z</time></trkpt><trkpt lat="43.2214754" lon="12.2511831"><ele>743.0</ele><time>2026-04-19T10:47:07.874Z</time></trkpt><trkpt lat="43.221284" lon="12.2511932"><ele>740.3333333333333</ele><time>2026-04-19T10:47:08.874Z</time></trkpt><trkpt lat="43.2210943" lon="12.2511887"><ele>737.6666666666666</ele><time>2026-04-19T10:47:09.873Z</time></trkpt><trkpt lat="43.2209088" lon="12.2511809"><ele>735.0</ele><time>2026-04-19T10:47:10.874Z</time></trkpt><trkpt lat="43.220714" lon="12.25116"><ele>730.6666666666666</ele><time>2026-04-19T10:47:11.873Z</time></trkpt><trkpt lat="43.2205257" lon="12.2511419"><ele>726.3333333333333</ele><time>2026-04-19T10:47:12.874Z</time></trkpt><trkpt lat="43.2203368" lon="12.25111"><ele>722.0</ele><time>2026-04-19T10:47:13.872Z</time></trkpt><trkpt lat="43.2201521" lon="12.2510537"><ele>722.0</ele><time>2026-04-19T10:47:14.873Z</time></trkpt><trkpt lat="43.2199711" lon="12.2510185"><ele>722.0</ele><time>2026-04-19T10:47:15.874Z</time></trkpt><trkpt lat="43.2197924" lon="12.2509767"><ele>722.0</ele><time>2026-04-19T10:47:16.873Z</time></trkpt><trkpt lat="43.219621" lon="12.2509096"><ele>723.3333333333333</ele><time>2026-04-19T10:47:17.873Z</time></trkpt><trkpt lat="43.2194596" lon="12.2507965"><ele>724.6666666666666</ele><time>2026-04-19T10:47:18.874Z</time></trkpt><trkpt lat="43.2193106" lon="12.2506642"><ele>726.0</ele><time>2026-04-19T10:47:19.872Z</time></trkpt><trkpt lat="43.2191793" lon="12.2505241"><ele>721.25</ele><time>2026-04-19T10:47:20.872Z</time></trkpt><trkpt lat="43.2190553" lon="12.2504104"><ele>716.5</ele><time>2026-04-19T10:47:21.874Z</time></trkpt><trkpt lat="43.2189228" lon="12.2503122"><ele>711.75</ele><time>2026-04-19T10:47:22.874Z</time></trkpt><trkpt lat="43.2187796" lon="12.2502543"><ele>707.0</ele><time>2026-04-19T10:47:23.874Z</time></trkpt><trkpt lat="43.2186229" lon="12.2501916"><ele>707.0</ele><time>2026-04-19T10:47:24.874Z</time></trkpt><trkpt lat="43.2184411" lon="12.2501637"><ele>707.0</ele><time>2026-04-19T10:47:25.873Z</time></trkpt><trkpt lat="43.218275" lon="12.2500927"><ele>707.0</ele><time>2026-04-19T10:47:26.874Z</time></trkpt><trkpt lat="43.2181121" lon="12.2500183"><ele>705.3333333333333</ele><time>2026-04-19T10:47:27.873Z</time></trkpt><trkpt lat="43.2179506" lon="12.2499354"><ele>703.6666666666666</ele><time>2026-04-19T10:47:28.873Z</time></trkpt><trkpt lat="43.2177986" lon="12.2498476"><ele>702.0</ele><time>2026-04-19T10:47:29.874Z</time></trkpt><trkpt lat="43.2176389" lon="12.2497669"><ele>702.0</ele><time>2026-04-19T10:47:30.873Z</time></trkpt><trkpt lat="43.2174824" lon="12.2496964"><ele>702.0</ele><time>2026-04-19T10:47:31.873Z</time></trkpt><trkpt lat="43.2173132" lon="12.2496459"><ele>702.0</ele><time>2026-04-19T10:47:32.874Z</time></trkpt><trkpt lat="43.2171397" lon="12.2496174"><ele>696.6666666666666</ele><time>2026-04-19T10:47:33.872Z</time></trkpt><trkpt lat="43.2169701" lon="12.2496005"><ele>691.3333333333333</ele><time>2026-04-19T10:47:34.874Z</time></trkpt><trkpt lat="43.2168067" lon="12.2495837"><ele>686.0</ele><time>2026-04-19T10:47:35.873Z</time></trkpt><trkpt lat="43.2166504" lon="12.2495636"><ele>686.0</ele><time>2026-04-19T10:47:36.873Z</time></trkpt><trkpt lat="43.2165142" lon="12.2495552"><ele>686.0</ele><time>2026-04-19T10:47:37.873Z</time></trkpt><trkpt lat="43.2163934" lon="12.2495541"><ele>686.0</ele><time>2026-04-19T10:47:38.874Z</time></trkpt><trkpt lat="43.2162959" lon="12.249577"><ele>686.0</ele><time>2026-04-19T10:47:39.874Z</time></trkpt><trkpt lat="43.2162178" lon="12.2496398"><ele>686.0</ele><time>2026-04-19T10:47:40.873Z</time></trkpt><trkpt lat="43.2161611" lon="12.2497375"><ele>686.0</ele><time>2026-04-19T10:47:41.872Z</time></trkpt><trkpt lat="43.2161101" lon="12.2498706"><ele>686.0</ele><time>2026-04-19T10:47:42.873Z</time></trkpt><trkpt lat="43.2160589" lon="12.2500365"><ele>686.0</ele><time>2026-04-19T10:47:43.873Z</time></trkpt><trkpt lat="43.2159995" lon="12.2501865"><ele>686.0</ele><time>2026-04-19T10:47:44.873Z</time></trkpt><trkpt lat="43.2159276" lon="12.2503239"><ele>686.0</ele><time>2026-04-19T10:47:45.873Z</time></trkpt><trkpt lat="43.2158413" lon="12.2504552"><ele>686.0</ele><time>2026-04-19T10:47:46.874Z</time></trkpt><trkpt lat="43.2157399" lon="12.2505696"><ele>686.0</ele><time>2026-04-19T10:47:47.874Z</time></trkpt><trkpt lat="43.2156314" lon="12.250645"><ele>686.0</ele><time>2026-04-19T10:47:48.873Z</time></trkpt><trkpt lat="43.2155248" lon="12.2506766"><ele>686.1999999999999</ele><time>2026-04-19T10:47:49.873Z</time></trkpt><trkpt lat="43.215423" lon="12.2506597"><ele>686.4</ele><time>2026-04-19T10:47:50.874Z</time></trkpt><trkpt lat="43.2153225" lon="12.2506002"><ele>686.6</ele><time>2026-04-19T10:47:51.873Z</time></trkpt><trkpt lat="43.2152403" lon="12.2505034"><ele>686.8</ele><time>2026-04-19T10:47:52.873Z</time></trkpt><trkpt lat="43.2151668" lon="12.2503626"><ele>687.0</ele><time>2026-04-19T10:47:53.873Z</time></trkpt><trkpt lat="43.2150959" lon="12.250226"><ele>685.8</ele><time>2026-04-19T10:47:54.872Z</time></trkpt><trkpt lat="43.2150268" lon="12.250104"><ele>684.6</ele><time>2026-04-19T10:47:55.873Z</time></trkpt><trkpt lat="43.2149591" lon="12.2499996"><ele>683.4</ele><time>2026-04-19T10:47:56.873Z</time></trkpt><trkpt lat="43.2148869" lon="12.249918"><ele>682.1999999999999</ele><time>2026-04-19T10:47:57.874Z</time></trkpt><trkpt lat="43.2148104" lon="12.2498599"><ele>681.0</ele><time>2026-04-19T10:47:58.874Z</time></trkpt><trkpt lat="43.2147336" lon="12.2498037"><ele>677.75</ele><time>2026-04-19T10:47:59.872Z</time></trkpt><trkpt lat="43.2146224" lon="12.2497542"><ele>674.5</ele><time>2026-04-19T10:48:00.872Z</time></trkpt><trkpt lat="43.2145182" lon="12.2497114"><ele>671.25</ele><time>2026-04-19T10:48:01.874Z</time></trkpt><trkpt lat="43.2143692" lon="12.2496507"><ele>668.0</ele><time>2026-04-19T10:48:02.874Z</time></trkpt><trkpt lat="43.2142296" lon="12.2495912"><ele>668.0</ele><time>2026-04-19T10:48:03.873Z</time></trkpt><trkpt lat="43.2141017" lon="12.2495329"><ele>668.0</ele><time>2026-04-19T10:48:04.874Z</time></trkpt><trkpt lat="43.2139782" lon="12.2494809"><ele>668.0</ele><time>2026-04-19T10:48:05.874Z</time></trkpt><trkpt lat="43.2138629" lon="12.2494298"><ele>668.0</ele><time>2026-04-19T10:48:06.872Z</time></trkpt><trkpt lat="43.213757" lon="12.249379"><ele>668.6666666666666</ele><time>2026-04-19T10:48:07.873Z</time></trkpt><trkpt lat="43.213676" lon="12.2493368"><ele>669.3333333333333</ele><time>2026-04-19T10:48:08.873Z</time></trkpt><trkpt lat="43.2136177" lon="12.2493002"><ele>670.0</ele><time>2026-04-19T10:48:09.873Z</time></trkpt><trkpt lat="43.2135272" lon="12.2492413"><ele>670.6666666666666</ele><time>2026-04-19T10:48:11.872Z</time></trkpt><trkpt lat="43.2134587" lon="12.2493036"><ele>671.3333333333334</ele><time>2026-04-19T10:48:14.874Z</time></trkpt><trkpt lat="43.2134552" lon="12.2494398"><ele>672.0</ele><time>2026-04-19T10:48:16.873Z</time></trkpt><trkpt lat="43.2134632" lon="12.2495476"><ele>672.0</ele><time>2026-04-19T10:48:17.873Z</time></trkpt><trkpt lat="43.2134582" lon="12.2496471"><ele>672.0</ele><time>2026-04-19T10:48:18.873Z</time></trkpt><trkpt lat="43.2134551" lon="12.2497596"><ele>672.0</ele><time>2026-04-19T10:48:19.874Z</time></trkpt><trkpt lat="43.2134489" lon="12.2498934"><ele>672.0</ele><time>2026-04-19T10:48:20.872Z</time></trkpt><trkpt lat="43.2134426" lon="12.2500428"><ele>672.0</ele><time>2026-04-19T10:48:21.872Z</time></trkpt><trkpt lat="43.2134364" lon="12.2501909"><ele>671.5</ele><time>2026-04-19T10:48:22.872Z</time></trkpt><trkpt lat="43.2134308" lon="12.2503593"><ele>671.0</ele><time>2026-04-19T10:48:23.873Z</time></trkpt><trkpt lat="43.2134198" lon="12.2505488"><ele>670.5</ele><time>2026-04-19T10:48:24.874Z</time></trkpt><trkpt lat="43.2134056" lon="12.2507397"><ele>670.0</ele><time>2026-04-19T10:48:25.873Z</time></trkpt><trkpt lat="43.2133927" lon="12.2509391"><ele>668.75</ele><time>2026-04-19T10:48:26.873Z</time></trkpt><trkpt lat="43.2133814" lon="12.2511346"><ele>667.5</ele><time>2026-04-19T10:48:27.872Z</time></trkpt><trkpt lat="43.2133757" lon="12.2513274"><ele>666.25</ele><time>2026-04-19T10:48:28.874Z</time></trkpt><trkpt lat="43.2133861" lon="12.2515063"><ele>665.0</ele><time>2026-04-19T10:48:29.873Z</time></trkpt><trkpt lat="43.2134268" lon="12.251672"><ele>663.75</ele><time>2026-04-19T10:48:30.873Z</time></trkpt><trkpt lat="43.2134961" lon="12.2518267"><ele>662.5</ele><time>2026-04-19T10:48:31.873Z</time></trkpt><trkpt lat="43.2135973" lon="12.2519643"><ele>661.25</ele><time>2026-04-19T10:48:32.874Z</time></trkpt><trkpt lat="43.2137067" lon="12.2520785"><ele>660.0</ele><time>2026-04-19T10:48:33.873Z</time></trkpt><trkpt lat="43.213799" lon="12.2522037"><ele>657.25</ele><time>2026-04-19T10:48:34.874Z</time></trkpt><trkpt lat="43.2138696" lon="12.2523447"><ele>654.5</ele><time>2026-04-19T10:48:35.874Z</time></trkpt><trkpt lat="43.2139122" lon="12.2525041"><ele>651.75</ele><time>2026-04-19T10:48:36.873Z</time></trkpt><trkpt lat="43.2139291" lon="12.2526864"><ele>649.0</ele><time>2026-04-19T10:48:37.874Z</time></trkpt><trkpt lat="43.2139115" lon="12.2528826"><ele>649.0</ele><time>2026-04-19T10:48:38.874Z</time></trkpt><trkpt lat="43.2138603" lon="12.2530602"><ele>649.0</ele><time>2026-04-19T10:48:39.874Z</time></trkpt><trkpt lat="43.2137729" lon="12.2532291"><ele>649.0</ele><time>2026-04-19T10:48:40.874Z</time></trkpt><trkpt lat="43.2136568" lon="12.2534047"><ele>648.0</ele><time>2026-04-19T10:48:41.873Z</time></trkpt><trkpt lat="43.2135406" lon="12.2535704"><ele>647.0</ele><time>2026-04-19T10:48:42.874Z</time></trkpt><trkpt lat="43.2134233" lon="12.2537366"><ele>646.0</ele><time>2026-04-19T10:48:43.873Z</time></trkpt><trkpt lat="43.2133067" lon="12.2539137"><ele>646.6666666666667</ele><time>2026-04-19T10:48:44.873Z</time></trkpt><trkpt lat="43.213201" lon="12.2540877"><ele>647.3333333333334</ele><time>2026-04-19T10:48:45.874Z</time></trkpt><trkpt lat="43.2131058" lon="12.2542713"><ele>648.0</ele><time>2026-04-19T10:48:46.873Z</time></trkpt><trkpt lat="43.2130178" lon="12.2544673"><ele>648.6666666666666</ele><time>2026-04-19T10:48:47.873Z</time></trkpt><trkpt lat="43.2129319" lon="12.2546569"><ele>649.3333333333333</ele><time>2026-04-19T10:48:48.873Z</time></trkpt><trkpt lat="43.2128509" lon="12.2548348"><ele>650.0</ele><time>2026-04-19T10:48:49.873Z</time></trkpt><trkpt lat="43.2127664" lon="12.2550048"><ele>650.0</ele><time>2026-04-19T10:48:50.872Z</time></trkpt><trkpt lat="43.2126701" lon="12.2551514"><ele>650.0</ele><time>2026-04-19T10:48:51.874Z</time></trkpt><trkpt lat="43.212565" lon="12.2552652"><ele>650.0</ele><time>2026-04-19T10:48:52.873Z</time></trkpt><trkpt lat="43.2124543" lon="12.2553641"><ele>650.0</ele><time>2026-04-19T10:48:53.874Z</time></trkpt><trkpt lat="43.2123405" lon="12.2554671"><ele>648.75</ele><time>2026-04-19T10:48:54.873Z</time></trkpt><trkpt lat="43.2122329" lon="12.2555894"><ele>647.5</ele><time>2026-04-19T10:48:55.872Z</time></trkpt><trkpt lat="43.2121275" lon="12.255718"><ele>646.25</ele><time>2026-04-19T10:48:56.874Z</time></trkpt><trkpt lat="43.2120296" lon="12.2558485"><ele>645.0</ele><time>2026-04-19T10:48:57.874Z</time></trkpt><trkpt lat="43.2119434" lon="12.2559867"><ele>644.75</ele><time>2026-04-19T10:48:58.874Z</time></trkpt><trkpt lat="43.2118612" lon="12.2561376"><ele>644.5</ele><time>2026-04-19T10:48:59.873Z</time></trkpt><trkpt lat="43.2117753" lon="12.2562855"><ele>644.25</ele><time>2026-04-19T10:49:00.874Z</time></trkpt><trkpt lat="43.2116863" lon="12.2564571"><ele>644.0</ele><time>2026-04-19T10:49:01.874Z</time></trkpt><trkpt lat="43.2115891" lon="12.2566481"><ele>640.0</ele><time>2026-04-19T10:49:02.873Z</time></trkpt><trkpt lat="43.2114785" lon="12.2568655"><ele>636.0</ele><time>2026-04-19T10:49:03.872Z</time></trkpt><trkpt lat="43.211356" lon="12.2571095"><ele>632.0</ele><time>2026-04-19T10:49:04.873Z</time></trkpt><trkpt lat="43.2112286" lon="12.257342"><ele>630.3333333333333</ele><time>2026-04-19T10:49:05.872Z</time></trkpt><trkpt lat="43.2111037" lon="12.2575663"><ele>628.6666666666666</ele><time>2026-04-19T10:49:06.873Z</time></trkpt><trkpt lat="43.2109785" lon="12.2577946"><ele>627.0</ele><time>2026-04-19T10:49:07.872Z</time></trkpt><trkpt lat="43.2108502" lon="12.2580245"><ele>625.3333333333334</ele><time>2026-04-19T10:49:08.872Z</time></trkpt><trkpt lat="43.2107241" lon="12.2582527"><ele>623.6666666666667</ele><time>2026-04-19T10:49:09.873Z</time></trkpt><trkpt lat="43.2106148" lon="12.2584543"><ele>622.0</ele><time>2026-04-19T10:49:10.872Z</time></trkpt><trkpt lat="43.2105162" lon="12.2586385"><ele>621.0</ele><time>2026-04-19T10:49:11.873Z</time></trkpt><trkpt lat="43.2104338" lon="12.258807"><ele>620.0</ele><time>2026-04-19T10:49:12.872Z</time></trkpt><trkpt lat="43.2103596" lon="12.2589764"><ele>619.0</ele><time>2026-04-19T10:49:13.872Z</time></trkpt><trkpt lat="43.2103093" lon="12.259143"><ele>618.0</ele><time>2026-04-19T10:49:14.873Z</time></trkpt><trkpt lat="43.2102891" lon="12.2593098"><ele>618.0</ele><time>2026-04-19T10:49:15.872Z</time></trkpt><trkpt lat="43.2102942" lon="12.2594657"><ele>618.0</ele><time>2026-04-19T10:49:16.871Z</time></trkpt><trkpt lat="43.2103354" lon="12.2596241"><ele>618.0</ele><time>2026-04-19T10:49:17.873Z</time></trkpt><trkpt lat="43.210402" lon="12.2597781"><ele>618.0</ele><time>2026-04-19T10:49:18.872Z</time></trkpt><trkpt lat="43.2104838" lon="12.2599225"><ele>616.5</ele><time>2026-04-19T10:49:19.873Z</time></trkpt><trkpt lat="43.2105649" lon="12.2600604"><ele>615.0</ele><time>2026-04-19T10:49:20.872Z</time></trkpt><trkpt lat="43.2106324" lon="12.260203"><ele>613.5</ele><time>2026-04-19T10:49:21.873Z</time></trkpt><trkpt lat="43.2106948" lon="12.2603688"><ele>612.0</ele><time>2026-04-19T10:49:22.872Z</time></trkpt><trkpt lat="43.2107377" lon="12.2605435"><ele>612.25</ele><time>2026-04-19T10:49:23.873Z</time></trkpt><trkpt lat="43.2107728" lon="12.2607307"><ele>612.5</ele><time>2026-04-19T10:49:24.872Z</time></trkpt><trkpt lat="43.2108" lon="12.2609102"><ele>612.75</ele><time>2026-04-19T10:49:25.872Z</time></trkpt><trkpt lat="43.2108215" lon="12.2610718"><ele>613.0</ele><time>2026-04-19T10:49:26.873Z</time></trkpt><trkpt lat="43.2108392" lon="12.2612314"><ele>613.0</ele><time>2026-04-19T10:49:27.873Z</time></trkpt><trkpt lat="43.2108507" lon="12.2613701"><ele>613.0</ele><time>2026-04-19T10:49:28.873Z</time></trkpt><trkpt lat="43.21086" lon="12.2614998"><ele>613.0</ele><time>2026-04-19T10:49:29.871Z</time></trkpt><trkpt lat="43.2108534" lon="12.2616188"><ele>613.0</ele><time>2026-04-19T10:49:30.872Z</time></trkpt><trkpt lat="43.2108257" lon="12.2617263"><ele>613.0</ele><time>2026-04-19T10:49:31.873Z</time></trkpt><trkpt lat="43.210772" lon="12.261807"><ele>613.0</ele><time>2026-04-19T10:49:32.873Z</time></trkpt><trkpt lat="43.2106998" lon="12.2618616"><ele>612.0</ele><time>2026-04-19T10:49:33.871Z</time></trkpt><trkpt lat="43.2106186" lon="12.2618752"><ele>611.0</ele><time>2026-04-19T10:49:34.873Z</time></trkpt><trkpt lat="43.2105386" lon="12.2618499"><ele>610.0</ele><time>2026-04-19T10:49:35.873Z</time></trkpt><trkpt lat="43.2104677" lon="12.261798"><ele>609.0</ele><time>2026-04-19T10:49:36.873Z</time></trkpt><trkpt lat="43.2103934" lon="12.2617226"><ele>608.0</ele><time>2026-04-19T10:49:37.872Z</time></trkpt><trkpt lat="43.2103093" lon="12.2616372"><ele>607.0</ele><time>2026-04-19T10:49:38.871Z</time></trkpt><trkpt lat="43.2102334" lon="12.2615595"><ele>607.0</ele><time>2026-04-19T10:49:39.872Z</time></trkpt><trkpt lat="43.2101523" lon="12.2614997"><ele>607.0</ele><time>2026-04-19T10:49:40.872Z</time></trkpt><trkpt lat="43.2100653" lon="12.261467"><ele>607.0</ele><time>2026-04-19T10:49:41.873Z</time></trkpt><trkpt lat="43.2099765" lon="12.2614672"><ele>607.0</ele><time>2026-04-19T10:49:42.872Z</time></trkpt><trkpt lat="43.2098842" lon="12.2614996"><ele>607.0</ele><time>2026-04-19T10:49:43.873Z</time></trkpt><trkpt lat="43.2097946" lon="12.2615658"><ele>609.6</ele><time>2026-04-19T10:49:44.872Z</time></trkpt><trkpt lat="43.2097071" lon="12.2616521"><ele>612.2</ele><time>2026-04-19T10:49:45.872Z</time></trkpt><trkpt lat="43.2096369" lon="12.2617628"><ele>614.8</ele><time>2026-04-19T10:49:46.872Z</time></trkpt><trkpt lat="43.2095864" lon="12.2618901"><ele>617.4</ele><time>2026-04-19T10:49:47.871Z</time></trkpt><trkpt lat="43.2095526" lon="12.2620258"><ele>620.0</ele><time>2026-04-19T10:49:48.872Z</time></trkpt><trkpt lat="43.2095308" lon="12.2621669"><ele>615.2</ele><time>2026-04-19T10:49:49.872Z</time></trkpt><trkpt lat="43.2095104" lon="12.2623117"><ele>610.4</ele><time>2026-04-19T10:49:50.873Z</time></trkpt><trkpt lat="43.2094926" lon="12.2624429"><ele>605.6</ele><time>2026-04-19T10:49:51.873Z</time></trkpt><trkpt lat="43.209464" lon="12.2625749"><ele>600.8</ele><time>2026-04-19T10:49:52.873Z</time></trkpt><trkpt lat="43.2094147" lon="12.2626926"><ele>596.0</ele><time>2026-04-19T10:49:53.873Z</time></trkpt><trkpt lat="43.2093509" lon="12.2627965"><ele>596.0</ele><time>2026-04-19T10:49:54.872Z</time></trkpt><trkpt lat="43.2092759" lon="12.2628813"><ele>596.0</ele><time>2026-04-19T10:49:55.872Z</time></trkpt><trkpt lat="43.2091832" lon="12.2629458"><ele>596.0</ele><time>2026-04-19T10:49:56.872Z</time></trkpt><trkpt lat="43.2090939" lon="12.2630038"><ele>596.0</ele><time>2026-04-19T10:49:57.872Z</time></trkpt><trkpt lat="43.208997" lon="12.2630357"><ele>596.0</ele><time>2026-04-19T10:49:58.873Z</time></trkpt><trkpt lat="43.2089022" lon="12.2630331"><ele>595.0</ele><time>2026-04-19T10:49:59.873Z</time></trkpt><trkpt lat="43.2088047" lon="12.2629993"><ele>594.0</ele><time>2026-04-19T10:50:00.872Z</time></trkpt><trkpt lat="43.208706" lon="12.2629364"><ele>593.0</ele><time>2026-04-19T10:50:01.872Z</time></trkpt><trkpt lat="43.2086186" lon="12.2628451"><ele>592.0</ele><time>2026-04-19T10:50:02.872Z</time></trkpt><trkpt lat="43.2085368" lon="12.2627605"><ele>591.0</ele><time>2026-04-19T10:50:03.872Z</time></trkpt><trkpt lat="43.2084524" lon="12.2626793"><ele>591.0</ele><time>2026-04-19T10:50:04.872Z</time></trkpt><trkpt lat="43.2083669" lon="12.2626102"><ele>591.0</ele><time>2026-04-19T10:50:05.872Z</time></trkpt><trkpt lat="43.2082772" lon="12.2625819"><ele>591.0</ele><time>2026-04-19T10:50:06.872Z</time></trkpt><trkpt lat="43.2081854" lon="12.2625883"><ele>591.0</ele><time>2026-04-19T10:50:07.871Z</time></trkpt><trkpt lat="43.2080905" lon="12.2626255"><ele>591.0</ele><time>2026-04-19T10:50:08.872Z</time></trkpt><trkpt lat="43.2079938" lon="12.2626911"><ele>588.25</ele><time>2026-04-19T10:50:09.872Z</time></trkpt><trkpt lat="43.2079058" lon="12.26279"><ele>585.5</ele><time>2026-04-19T10:50:10.871Z</time></trkpt><trkpt lat="43.2078318" lon="12.262909"><ele>582.75</ele><time>2026-04-19T10:50:11.871Z</time></trkpt><trkpt lat="43.2077609" lon="12.2630347"><ele>580.0</ele><time>2026-04-19T10:50:12.871Z</time></trkpt><trkpt lat="43.2076938" lon="12.2631561"><ele>577.6</ele><time>2026-04-19T10:50:13.871Z</time></trkpt><trkpt lat="43.2076219" lon="12.2632785"><ele>575.2</ele><time>2026-04-19T10:50:14.871Z</time></trkpt><trkpt lat="43.2075516" lon="12.2633764"><ele>572.8</ele><time>2026-04-19T10:50:15.872Z</time></trkpt><trkpt lat="43.2074823" lon="12.2634623"><ele>570.4</ele><time>2026-04-19T10:50:16.871Z</time></trkpt><trkpt lat="43.2074025" lon="12.2635195"><ele>568.0</ele><time>2026-04-19T10:50:17.872Z</time></trkpt><trkpt lat="43.2073214" lon="12.2635384"><ele>566.3333333333334</ele><time>2026-04-19T10:50:18.871Z</time></trkpt><trkpt lat="43.2072502" lon="12.2635188"><ele>564.6666666666667</ele><time>2026-04-19T10:50:19.871Z</time></trkpt><trkpt lat="43.2071837" lon="12.2634732"><ele>563.0</ele><time>2026-04-19T10:50:20.871Z</time></trkpt><trkpt lat="43.2071226" lon="12.2633991"><ele>561.3333333333334</ele><time>2026-04-19T10:50:21.872Z</time></trkpt><trkpt lat="43.2070778" lon="12.263301"><ele>559.6666666666666</ele><time>2026-04-19T10:50:22.872Z</time></trkpt><trkpt lat="43.2070506" lon="12.2631832"><ele>558.0</ele><time>2026-04-19T10:50:23.871Z</time></trkpt><trkpt lat="43.2070357" lon="12.2630536"><ele>558.0</ele><time>2026-04-19T10:50:24.872Z</time></trkpt><trkpt lat="43.207026" lon="12.2629234"><ele>558.0</ele><time>2026-04-19T10:50:25.872Z</time></trkpt><trkpt lat="43.2070127" lon="12.2627967"><ele>558.0</ele><time>2026-04-19T10:50:26.871Z</time></trkpt><trkpt lat="43.2069804" lon="12.2626832"><ele>558.0</ele><time>2026-04-19T10:50:27.87Z</time></trkpt><trkpt lat="43.2069319" lon="12.2625834"><ele>558.0</ele><time>2026-04-19T10:50:28.871Z</time></trkpt><trkpt lat="43.206865" lon="12.262518"><ele>558.0</ele><time>2026-04-19T10:50:29.871Z</time></trkpt><trkpt lat="43.2067872" lon="12.2624782"><ele>558.0</ele><time>2026-04-19T10:50:30.87Z</time></trkpt><trkpt lat="43.2067" lon="12.2624731"><ele>558.0</ele><time>2026-04-19T10:50:31.872Z</time></trkpt><trkpt lat="43.2066144" lon="12.2625118"><ele>558.0</ele><time>2026-04-19T10:50:32.872Z</time></trkpt><trkpt lat="43.2065239" lon="12.2625831"><ele>558.0</ele><time>2026-04-19T10:50:33.871Z</time></trkpt><trkpt lat="43.2064365" lon="12.2626745"><ele>558.0</ele><time>2026-04-19T10:50:34.872Z</time></trkpt><trkpt lat="43.206348" lon="12.2627691"><ele>554.6</ele><time>2026-04-19T10:50:35.871Z</time></trkpt><trkpt lat="43.206267" lon="12.2628739"><ele>551.1999999999999</ele><time>2026-04-19T10:50:36.871Z</time></trkpt><trkpt lat="43.2061949" lon="12.2629695"><ele>547.8</ele><time>2026-04-19T10:50:37.872Z</time></trkpt><trkpt lat="43.2061385" lon="12.2630852"><ele>544.4</ele><time>2026-04-19T10:50:38.871Z</time></trkpt><trkpt lat="43.2061056" lon="12.2632051"><ele>541.0</ele><time>2026-04-19T10:50:39.871Z</time></trkpt><trkpt lat="43.2061016" lon="12.2633309"><ele>541.0</ele><time>2026-04-19T10:50:40.872Z</time></trkpt><trkpt lat="43.2061258" lon="12.2634568"><ele>541.0</ele><time>2026-04-19T10:50:41.871Z</time></trkpt><trkpt lat="43.2061775" lon="12.2635808"><ele>541.0</ele><time>2026-04-19T10:50:42.871Z</time></trkpt><trkpt lat="43.2062494" lon="12.2636992"><ele>541.0</ele><time>2026-04-19T10:50:43.871Z</time></trkpt><trkpt lat="43.2063289" lon="12.2638131"><ele>541.0</ele><time>2026-04-19T10:50:44.871Z</time></trkpt><trkpt lat="43.2064036" lon="12.2639278"><ele>542.6</ele><time>2026-04-19T10:50:45.872Z</time></trkpt><trkpt lat="43.2064712" lon="12.2640349"><ele>544.2</ele><time>2026-04-19T10:50:46.87Z</time></trkpt><trkpt lat="43.2065304" lon="12.2641375"><ele>545.8</ele><time>2026-04-19T10:50:47.872Z</time></trkpt><trkpt lat="43.2065765" lon="12.2642422"><ele>547.4</ele><time>2026-04-19T10:50:48.872Z</time></trkpt><trkpt lat="43.2066029" lon="12.2643549"><ele>549.0</ele><time>2026-04-19T10:50:49.872Z</time></trkpt><trkpt lat="43.2066093" lon="12.2644723"><ele>549.0</ele><time>2026-04-19T10:50:50.871Z</time></trkpt><trkpt lat="43.2065929" lon="12.2645802"><ele>549.0</ele><time>2026-04-19T10:50:51.871Z</time></trkpt><trkpt lat="43.2065543" lon="12.2646736"><ele>549.0</ele><time>2026-04-19T10:50:52.872Z</time></trkpt><trkpt lat="43.2064985" lon="12.2647514"><ele>549.0</ele><time>2026-04-19T10:50:53.871Z</time></trkpt><trkpt lat="43.2064221" lon="12.2648117"><ele>549.0</ele><time>2026-04-19T10:50:54.871Z</time></trkpt><trkpt lat="43.2063254" lon="12.2648591"><ele>549.0</ele><time>2026-04-19T10:50:55.871Z</time></trkpt><trkpt lat="43.2062138" lon="12.2649027"><ele>544.5</ele><time>2026-04-19T10:50:56.872Z</time></trkpt><trkpt lat="43.2060898" lon="12.2649486"><ele>540.0</ele><time>2026-04-19T10:50:57.872Z</time></trkpt><trkpt lat="43.2059771" lon="12.264997"><ele>535.5</ele><time>2026-04-19T10:50:58.872Z</time></trkpt><trkpt lat="43.20586" lon="12.2650558"><ele>531.0</ele><time>2026-04-19T10:50:59.872Z</time></trkpt><trkpt lat="43.2057406" lon="12.2651159"><ele>528.25</ele><time>2026-04-19T10:51:00.872Z</time></trkpt><trkpt lat="43.2056225" lon="12.2651792"><ele>525.5</ele><time>2026-04-19T10:51:01.871Z</time></trkpt><trkpt lat="43.2055099" lon="12.2652432"><ele>522.75</ele><time>2026-04-19T10:51:02.871Z</time></trkpt><trkpt lat="43.2054047" lon="12.2653118"><ele>520.0</ele><time>2026-04-19T10:51:03.871Z</time></trkpt><trkpt lat="43.2053021" lon="12.2653928"><ele>520.0</ele><time>2026-04-19T10:51:04.87Z</time></trkpt><trkpt lat="43.2052075" lon="12.2654957"><ele>520.0</ele><time>2026-04-19T10:51:05.871Z</time></trkpt><trkpt lat="43.2051311" lon="12.2656171"><ele>520.0</ele><time>2026-04-19T10:51:06.872Z</time></trkpt><trkpt lat="43.2050673" lon="12.2657432"><ele>520.0</ele><time>2026-04-19T10:51:07.872Z</time></trkpt><trkpt lat="43.2050074" lon="12.265868"><ele>520.2</ele><time>2026-04-19T10:51:08.872Z</time></trkpt><trkpt lat="43.2049398" lon="12.2659703"><ele>520.4</ele><time>2026-04-19T10:51:09.872Z</time></trkpt><trkpt lat="43.2048621" lon="12.2660449"><ele>520.6</ele><time>2026-04-19T10:51:10.871Z</time></trkpt><trkpt lat="43.2047668" lon="12.2660903"><ele>520.8</ele><time>2026-04-19T10:51:11.87Z</time></trkpt><trkpt lat="43.2046429" lon="12.2661092"><ele>521.0</ele><time>2026-04-19T10:51:12.871Z</time></trkpt><trkpt lat="43.2044966" lon="12.2661027"><ele>521.0</ele><time>2026-04-19T10:51:13.871Z</time></trkpt><trkpt lat="43.2043323" lon="12.266076"><ele>521.0</ele><time>2026-04-19T10:51:14.871Z</time></trkpt><trkpt lat="43.2041646" lon="12.2660494"><ele>521.0</ele><time>2026-04-19T10:51:15.871Z</time></trkpt><trkpt lat="43.2039823" lon="12.2660156"><ele>520.6666666666666</ele><time>2026-04-19T10:51:16.869Z</time></trkpt><trkpt lat="43.2037896" lon="12.2659806"><ele>520.3333333333334</ele><time>2026-04-19T10:51:17.871Z</time></trkpt><trkpt lat="43.2035936" lon="12.2659651"><ele>520.0</ele><time>2026-04-19T10:51:18.869Z</time></trkpt><trkpt lat="43.2033964" lon="12.2659625"><ele>520.0</ele><time>2026-04-19T10:51:19.87Z</time></trkpt><trkpt lat="43.2031914" lon="12.2659604"><ele>520.0</ele><time>2026-04-19T10:51:20.871Z</time></trkpt><trkpt lat="43.202971" lon="12.2659675"><ele>520.0</ele><time>2026-04-19T10:51:21.87Z</time></trkpt><trkpt lat="43.2027589" lon="12.2659696"><ele>518.3333333333334</ele><time>2026-04-19T10:51:22.871Z</time></trkpt><trkpt lat="43.2025564" lon="12.2659668"><ele>516.6666666666666</ele><time>2026-04-19T10:51:23.87Z</time></trkpt><trkpt lat="43.2023456" lon="12.2659824"><ele>515.0</ele><time>2026-04-19T10:51:24.869Z</time></trkpt><trkpt lat="43.2021249" lon="12.266037"><ele>511.0</ele><time>2026-04-19T10:51:25.87Z</time></trkpt><trkpt lat="43.2018905" lon="12.2661135"><ele>507.0</ele><time>2026-04-19T10:51:26.871Z</time></trkpt><trkpt lat="43.2016596" lon="12.2661933"><ele>504.5</ele><time>2026-04-19T10:51:27.871Z</time></trkpt><trkpt lat="43.2014343" lon="12.2662676"><ele>502.0</ele><time>2026-04-19T10:51:28.871Z</time></trkpt><trkpt lat="43.2012134" lon="12.2663446"><ele>502.0</ele><time>2026-04-19T10:51:29.871Z</time></trkpt><trkpt lat="43.2009824" lon="12.2664446"><ele>502.0</ele><time>2026-04-19T10:51:30.871Z</time></trkpt><trkpt lat="43.2007709" lon="12.2665548"><ele>504.33333333333337</ele><time>2026-04-19T10:51:31.871Z</time></trkpt><trkpt lat="43.2005712" lon="12.2666686"><ele>506.66666666666663</ele><time>2026-04-19T10:51:32.87Z</time></trkpt><trkpt lat="43.2003758" lon="12.2667971"><ele>509.0</ele><time>2026-04-19T10:51:33.871Z</time></trkpt><trkpt lat="43.2001826" lon="12.2669612"><ele>509.0</ele><time>2026-04-19T10:51:34.869Z</time></trkpt><trkpt lat="43.1999886" lon="12.2671542"><ele>509.0</ele><time>2026-04-19T10:51:35.87Z</time></trkpt><trkpt lat="43.1997912" lon="12.2673611"><ele>509.5</ele><time>2026-04-19T10:51:36.871Z</time></trkpt><trkpt lat="43.1995901" lon="12.2675717"><ele>510.0</ele><time>2026-04-19T10:51:37.869Z</time></trkpt><trkpt lat="43.1993993" lon="12.2677704"><ele>510.0</ele><time>2026-04-19T10:51:38.87Z</time></trkpt><trkpt lat="43.1992223" lon="12.2679578"><ele>510.0</ele><time>2026-04-19T10:51:39.869Z</time></trkpt><trkpt lat="43.1990538" lon="12.2681259"><ele>510.0</ele><time>2026-04-19T10:51:40.87Z</time></trkpt><trkpt lat="43.1988902" lon="12.2682904"><ele>512.0</ele><time>2026-04-19T10:51:41.869Z</time></trkpt><trkpt lat="43.1987324" lon="12.2684525"><ele>514.0</ele><time>2026-04-19T10:51:42.871Z</time></trkpt><trkpt lat="43.1985841" lon="12.2685917"><ele>516.0</ele><time>2026-04-19T10:51:43.871Z</time></trkpt><trkpt lat="43.1984325" lon="12.2687055"><ele>516.0</ele><time>2026-04-19T10:51:44.871Z</time></trkpt><trkpt lat="43.1982682" lon="12.2687875"><ele>516.0</ele><time>2026-04-19T10:51:45.871Z</time></trkpt><trkpt lat="43.1980956" lon="12.2688418"><ele>516.0</ele><time>2026-04-19T10:51:46.87Z</time></trkpt><trkpt lat="43.1979326" lon="12.268902"><ele>514.0</ele><time>2026-04-19T10:51:47.87Z</time></trkpt><trkpt lat="43.1977886" lon="12.2689856"><ele>512.0</ele><time>2026-04-19T10:51:48.87Z</time></trkpt><trkpt lat="43.1976559" lon="12.2691025"><ele>510.0</ele><time>2026-04-19T10:51:49.87Z</time></trkpt><trkpt lat="43.1975406" lon="12.2692445"><ele>510.0</ele><time>2026-04-19T10:51:50.87Z</time></trkpt><trkpt lat="43.1974282" lon="12.2694211"><ele>510.0</ele><time>2026-04-19T10:51:51.87Z</time></trkpt><trkpt lat="43.197325" lon="12.2696113"><ele>510.0</ele><time>2026-04-19T10:51:52.87Z</time></trkpt><trkpt lat="43.1972243" lon="12.2697956"><ele>509.33333333333337</ele><time>2026-04-19T10:51:53.87Z</time></trkpt><trkpt lat="43.1971101" lon="12.2699696"><ele>508.6666666666667</ele><time>2026-04-19T10:51:54.87Z</time></trkpt><trkpt lat="43.1969753" lon="12.2701262"><ele>508.0</ele><time>2026-04-19T10:51:55.871Z</time></trkpt><trkpt lat="43.1968083" lon="12.2702787"><ele>508.0</ele><time>2026-04-19T10:51:56.871Z</time></trkpt><trkpt lat="43.1966273" lon="12.2704071"><ele>508.0</ele><time>2026-04-19T10:51:57.871Z</time></trkpt><trkpt lat="43.1964501" lon="12.2705264"><ele>508.0</ele><time>2026-04-19T10:51:58.87Z</time></trkpt><trkpt lat="43.1962848" lon="12.2706432"><ele>503.6666666666667</ele><time>2026-04-19T10:51:59.87Z</time></trkpt><trkpt lat="43.1961391" lon="12.2707464"><ele>499.33333333333337</ele><time>2026-04-19T10:52:00.87Z</time></trkpt><trkpt lat="43.1960103" lon="12.2708564"><ele>495.0</ele><time>2026-04-19T10:52:01.869Z</time></trkpt><trkpt lat="43.1959142" lon="12.2710037"><ele>495.0</ele><time>2026-04-19T10:52:02.869Z</time></trkpt><trkpt lat="43.1958345" lon="12.2711668"><ele>495.0</ele><time>2026-04-19T10:52:03.869Z</time></trkpt><trkpt lat="43.195774" lon="12.2713766"><ele>495.0</ele><time>2026-04-19T10:52:04.869Z</time></trkpt><trkpt lat="43.1957327" lon="12.2716101"><ele>491.66666666666663</ele><time>2026-04-19T10:52:05.87Z</time></trkpt><trkpt lat="43.1957066" lon="12.2718538"><ele>488.3333333333333</ele><time>2026-04-19T10:52:06.869Z</time></trkpt><trkpt lat="43.1957026" lon="12.2720874"><ele>485.0</ele><time>2026-04-19T10:52:07.871Z</time></trkpt><trkpt lat="43.1957283" lon="12.2723305"><ele>483.3333333333333</ele><time>2026-04-19T10:52:08.87Z</time></trkpt><trkpt lat="43.1957841" lon="12.2725818"><ele>481.66666666666663</ele><time>2026-04-19T10:52:09.871Z</time></trkpt><trkpt lat="43.1958478" lon="12.2728241"><ele>480.0</ele><time>2026-04-19T10:52:10.871Z</time></trkpt><trkpt lat="43.1959019" lon="12.2730627"><ele>479.0</ele><time>2026-04-19T10:52:11.869Z</time></trkpt><trkpt lat="43.1959438" lon="12.2733009"><ele>478.0</ele><time>2026-04-19T10:52:12.871Z</time></trkpt><trkpt lat="43.1959733" lon="12.2735221"><ele>477.0</ele><time>2026-04-19T10:52:13.871Z</time></trkpt><trkpt lat="43.1959796" lon="12.2737337"><ele>477.0</ele><time>2026-04-19T10:52:14.871Z</time></trkpt><trkpt lat="43.19595" lon="12.2739345"><ele>477.0</ele><time>2026-04-19T10:52:15.87Z</time></trkpt><trkpt lat="43.1958809" lon="12.2741282"><ele>477.0</ele><time>2026-04-19T10:52:16.87Z</time></trkpt><trkpt lat="43.1957869" lon="12.2743383"><ele>472.0</ele><time>2026-04-19T10:52:17.87Z</time></trkpt><trkpt lat="43.1956689" lon="12.2745544"><ele>467.0</ele><time>2026-04-19T10:52:18.871Z</time></trkpt><trkpt lat="43.1955549" lon="12.2747756"><ele>462.0</ele><time>2026-04-19T10:52:19.87Z</time></trkpt><trkpt lat="43.1954302" lon="12.2750217"><ele>460.66666666666663</ele><time>2026-04-19T10:52:20.87Z</time></trkpt><trkpt lat="43.195299" lon="12.2752731"><ele>459.3333333333333</ele><time>2026-04-19T10:52:21.87Z</time></trkpt><trkpt lat="43.1951762" lon="12.2755056"><ele>458.0</ele><time>2026-04-19T10:52:22.87Z</time></trkpt><trkpt lat="43.1950631" lon="12.2757403"><ele>456.3333333333333</ele><time>2026-04-19T10:52:23.871Z</time></trkpt><trkpt lat="43.1949634" lon="12.276004"><ele>454.66666666666663</ele><time>2026-04-19T10:52:24.871Z</time></trkpt><trkpt lat="43.1948792" lon="12.2762655"><ele>453.0</ele><time>2026-04-19T10:52:25.871Z</time></trkpt><trkpt lat="43.1947992" lon="12.2765102"><ele>453.0</ele><time>2026-04-19T10:52:26.869Z</time></trkpt><trkpt lat="43.1947122" lon="12.2767462"><ele>453.0</ele><time>2026-04-19T10:52:27.871Z</time></trkpt><trkpt lat="43.1946096" lon="12.2769698"><ele>453.0</ele><time>2026-04-19T10:52:28.87Z</time></trkpt><trkpt lat="43.1944756" lon="12.2771813"><ele>452.66666666666663</ele><time>2026-04-19T10:52:29.871Z</time></trkpt><trkpt lat="43.1943141" lon="12.2773859"><ele>452.3333333333333</ele><time>2026-04-19T10:52:30.87Z</time></trkpt><trkpt lat="43.1941443" lon="12.2775882"><ele>452.0</ele><time>2026-04-19T10:52:31.87Z</time></trkpt><trkpt lat="43.1939752" lon="12.2777824"><ele>452.0</ele><time>2026-04-19T10:52:32.869Z</time></trkpt><trkpt lat="43.1938119" lon="12.2779659"><ele>452.0</ele><time>2026-04-19T10:52:33.871Z</time></trkpt><trkpt lat="43.1936586" lon="12.2781481"><ele>452.0</ele><time>2026-04-19T10:52:34.871Z</time></trkpt><trkpt lat="43.1935103" lon="12.2783214"><ele>453.3333333333333</ele><time>2026-04-19T10:52:35.87Z</time></trkpt><trkpt lat="43.1933707" lon="12.2784792"><ele>454.66666666666663</ele><time>2026-04-19T10:52:36.869Z</time></trkpt><trkpt lat="43.1932297" lon="12.2786142"><ele>456.0</ele><time>2026-04-19T10:52:37.869Z</time></trkpt><trkpt lat="43.19307" lon="12.2787147"><ele>451.66666666666663</ele><time>2026-04-19T10:52:38.87Z</time></trkpt><trkpt lat="43.1928849" lon="12.2787794"><ele>447.3333333333333</ele><time>2026-04-19T10:52:39.87Z</time></trkpt><trkpt lat="43.1927043" lon="12.278802"><ele>443.0</ele><time>2026-04-19T10:52:40.871Z</time></trkpt><trkpt lat="43.1925354" lon="12.2788224"><ele>443.0</ele><time>2026-04-19T10:52:41.871Z</time></trkpt><trkpt lat="43.1923832" lon="12.278879"><ele>443.0</ele><time>2026-04-19T10:52:42.871Z</time></trkpt><trkpt lat="43.1922326" lon="12.2789644"><ele>443.0</ele><time>2026-04-19T10:52:43.87Z</time></trkpt><trkpt lat="43.1920798" lon="12.2791018"><ele>442.0</ele><time>2026-04-19T10:52:44.871Z</time></trkpt><trkpt lat="43.1919236" lon="12.2792792"><ele>441.0</ele><time>2026-04-19T10:52:45.869Z</time></trkpt><trkpt lat="43.1917677" lon="12.2794695"><ele>440.0</ele><time>2026-04-19T10:52:46.871Z</time></trkpt><trkpt lat="43.1915955" lon="12.2796803"><ele>435.3333333333333</ele><time>2026-04-19T10:52:47.871Z</time></trkpt><trkpt lat="43.1914199" lon="12.2798845"><ele>430.66666666666663</ele><time>2026-04-19T10:52:48.869Z</time></trkpt><trkpt lat="43.1912589" lon="12.2800869"><ele>426.0</ele><time>2026-04-19T10:52:49.869Z</time></trkpt><trkpt lat="43.1910978" lon="12.2802901"><ele>426.0</ele><time>2026-04-19T10:52:50.871Z</time></trkpt><trkpt lat="43.1909421" lon="12.280475"><ele>426.0</ele><time>2026-04-19T10:52:51.87Z</time></trkpt><trkpt lat="43.1907966" lon="12.2806214"><ele>426.0</ele><time>2026-04-19T10:52:52.871Z</time></trkpt><trkpt lat="43.1906407" lon="12.2807292"><ele>426.66666666666663</ele><time>2026-04-19T10:52:53.871Z</time></trkpt><trkpt lat="43.1904773" lon="12.2807945"><ele>427.3333333333333</ele><time>2026-04-19T10:52:54.871Z</time></trkpt><trkpt lat="43.1902947" lon="12.2808393"><ele>428.0</ele><time>2026-04-19T10:52:55.869Z</time></trkpt><trkpt lat="43.190111" lon="12.2808827"><ele>428.0</ele><time>2026-04-19T10:52:56.87Z</time></trkpt><trkpt lat="43.1899281" lon="12.2809247"><ele>428.0</ele><time>2026-04-19T10:52:57.871Z</time></trkpt><trkpt lat="43.1897594" lon="12.2809606"><ele>428.0</ele><time>2026-04-19T10:52:58.87Z</time></trkpt><trkpt lat="43.1896088" lon="12.2810181"><ele>426.0</ele><time>2026-04-19T10:52:59.87Z</time></trkpt><trkpt lat="43.189484" lon="12.2811016"><ele>424.0</ele><time>2026-04-19T10:53:00.871Z</time></trkpt><trkpt lat="43.1893782" lon="12.2812285"><ele>422.0</ele><time>2026-04-19T10:53:01.869Z</time></trkpt><trkpt lat="43.1892917" lon="12.2813923"><ele>420.0</ele><time>2026-04-19T10:53:02.87Z</time></trkpt><trkpt lat="43.1892117" lon="12.2815747"><ele>420.0</ele><time>2026-04-19T10:53:03.871Z</time></trkpt><trkpt lat="43.1891255" lon="12.2817345"><ele>420.0</ele><time>2026-04-19T10:53:04.87Z</time></trkpt><trkpt lat="43.1890223" lon="12.2818692"><ele>420.0</ele><time>2026-04-19T10:53:05.869Z</time></trkpt><trkpt lat="43.188898" lon="12.2819672"><ele>420.0</ele><time>2026-04-19T10:53:06.87Z</time></trkpt><trkpt lat="43.188751" lon="12.2820373"><ele>414.0</ele><time>2026-04-19T10:53:07.871Z</time></trkpt><trkpt lat="43.1885821" lon="12.2820817"><ele>408.0</ele><time>2026-04-19T10:53:08.871Z</time></trkpt><trkpt lat="43.1883953" lon="12.2821217"><ele>402.0</ele><time>2026-04-19T10:53:09.869Z</time></trkpt><trkpt lat="43.1882052" lon="12.2821642"><ele>399.66666666666663</ele><time>2026-04-19T10:53:10.869Z</time></trkpt><trkpt lat="43.1880127" lon="12.282205"><ele>397.3333333333333</ele><time>2026-04-19T10:53:11.869Z</time></trkpt><trkpt lat="43.1878286" lon="12.2822506"><ele>395.0</ele><time>2026-04-19T10:53:12.87Z</time></trkpt><trkpt lat="43.1876488" lon="12.2822918"><ele>394.25</ele><time>2026-04-19T10:53:13.869Z</time></trkpt><trkpt lat="43.1874919" lon="12.2823343"><ele>393.5</ele><time>2026-04-19T10:53:14.87Z</time></trkpt><trkpt lat="43.1873671" lon="12.2824001"><ele>392.75</ele><time>2026-04-19T10:53:15.871Z</time></trkpt><trkpt lat="43.1872358" lon="12.2825045"><ele>392.0</ele><time>2026-04-19T10:53:16.87Z</time></trkpt><trkpt lat="43.1871064" lon="12.2826565"><ele>392.0</ele><time>2026-04-19T10:53:17.869Z</time></trkpt><trkpt lat="43.1869831" lon="12.2828463"><ele>392.0</ele><time>2026-04-19T10:53:18.87Z</time></trkpt><trkpt lat="43.1868569" lon="12.2830575"><ele>392.0</ele><time>2026-04-19T10:53:19.871Z</time></trkpt><trkpt lat="43.1867287" lon="12.2832812"><ele>394.0</ele><time>2026-04-19T10:53:20.871Z</time></trkpt><trkpt lat="43.1866031" lon="12.2834843"><ele>396.0</ele><time>2026-04-19T10:53:21.869Z</time></trkpt><trkpt lat="43.1864798" lon="12.283683"><ele>398.0</ele><time>2026-04-19T10:53:22.87Z</time></trkpt><trkpt lat="43.1863749" lon="12.2838465"><ele>393.5</ele><time>2026-04-19T10:53:23.869Z</time></trkpt><trkpt lat="43.186281" lon="12.2839913"><ele>389.0</ele><time>2026-04-19T10:53:24.869Z</time></trkpt><trkpt lat="43.1861866" lon="12.2841018"><ele>384.5</ele><time>2026-04-19T10:53:25.87Z</time></trkpt><trkpt lat="43.1860831" lon="12.2841593"><ele>380.0</ele><time>2026-04-19T10:53:26.868Z</time></trkpt><trkpt lat="43.185977" lon="12.284157"><ele>380.0</ele><time>2026-04-19T10:53:27.869Z</time></trkpt><trkpt lat="43.1858841" lon="12.2841015"><ele>380.0</ele><time>2026-04-19T10:53:28.869Z</time></trkpt><trkpt lat="43.1858131" lon="12.2839981"><ele>380.0</ele><time>2026-04-19T10:53:29.87Z</time></trkpt><trkpt lat="43.1857648" lon="12.2838409"><ele>380.0</ele><time>2026-04-19T10:53:30.869Z</time></trkpt><trkpt lat="43.1857518" lon="12.2836696"><ele>380.25</ele><time>2026-04-19T10:53:31.87Z</time></trkpt><trkpt lat="43.1857571" lon="12.2835116"><ele>380.5</ele><time>2026-04-19T10:53:32.868Z</time></trkpt><trkpt lat="43.1857352" lon="12.2833735"><ele>380.75</ele><time>2026-04-19T10:53:33.869Z</time></trkpt><trkpt lat="43.185688" lon="12.2832415"><ele>381.0</ele><time>2026-04-19T10:53:34.869Z</time></trkpt><trkpt lat="43.1856027" lon="12.2831144"><ele>376.6666666666667</ele><time>2026-04-19T10:53:35.869Z</time></trkpt><trkpt lat="43.1854829" lon="12.2829942"><ele>372.33333333333337</ele><time>2026-04-19T10:53:36.869Z</time></trkpt><trkpt lat="43.1853443" lon="12.2828799"><ele>368.0</ele><time>2026-04-19T10:53:37.869Z</time></trkpt><trkpt lat="43.1851975" lon="12.2827619"><ele>368.0</ele><time>2026-04-19T10:53:38.868Z</time></trkpt><trkpt lat="43.1850374" lon="12.2826333"><ele>368.0</ele><time>2026-04-19T10:53:39.87Z</time></trkpt><trkpt lat="43.1848861" lon="12.2825102"><ele>368.0</ele><time>2026-04-19T10:53:40.87Z</time></trkpt><trkpt lat="43.1847188" lon="12.2823931"><ele>365.6666666666667</ele><time>2026-04-19T10:53:41.869Z</time></trkpt><trkpt lat="43.1845386" lon="12.2822865"><ele>363.3333333333333</ele><time>2026-04-19T10:53:42.869Z</time></trkpt><trkpt lat="43.1843459" lon="12.2821994"><ele>361.0</ele><time>2026-04-19T10:53:43.869Z</time></trkpt><trkpt lat="43.1841561" lon="12.2821199"><ele>357.3333333333333</ele><time>2026-04-19T10:53:44.868Z</time></trkpt><trkpt lat="43.1839691" lon="12.2820374"><ele>353.6666666666667</ele><time>2026-04-19T10:53:45.87Z</time></trkpt><trkpt lat="43.1837903" lon="12.2819591"><ele>350.0</ele><time>2026-04-19T10:53:46.87Z</time></trkpt><trkpt lat="43.1836257" lon="12.2818895"><ele>350.0</ele><time>2026-04-19T10:53:47.869Z</time></trkpt><trkpt lat="43.1834819" lon="12.2818313"><ele>350.0</ele><time>2026-04-19T10:53:48.869Z</time></trkpt><trkpt lat="43.1833573" lon="12.2817912"><ele>350.0</ele><time>2026-04-19T10:53:49.869Z</time></trkpt><trkpt lat="43.1832395" lon="12.2817848"><ele>350.0</ele><time>2026-04-19T10:53:50.869Z</time></trkpt><trkpt lat="43.1831341" lon="12.2818174"><ele>350.4</ele><time>2026-04-19T10:53:51.87Z</time></trkpt><trkpt lat="43.183047" lon="12.2818867"><ele>350.8</ele><time>2026-04-19T10:53:52.869Z</time></trkpt><trkpt lat="43.1829841" lon="12.281989"><ele>351.20000000000005</ele><time>2026-04-19T10:53:53.87Z</time></trkpt><trkpt lat="43.1829514" lon="12.282114"><ele>351.6</ele><time>2026-04-19T10:53:54.87Z</time></trkpt><trkpt lat="43.1829484" lon="12.2822475"><ele>352.0</ele><time>2026-04-19T10:53:55.869Z</time></trkpt><trkpt lat="43.1829846" lon="12.2823687"><ele>351.25</ele><time>2026-04-19T10:53:56.869Z</time></trkpt><trkpt lat="43.1830485" lon="12.282486"><ele>350.5</ele><time>2026-04-19T10:53:57.869Z</time></trkpt><trkpt lat="43.1831529" lon="12.2825928"><ele>349.75</ele><time>2026-04-19T10:53:58.868Z</time></trkpt><trkpt lat="43.1832862" lon="12.2827019"><ele>349.0</ele><time>2026-04-19T10:53:59.869Z</time></trkpt><trkpt lat="43.1834307" lon="12.2828072"><ele>349.0</ele><time>2026-04-19T10:54:00.869Z</time></trkpt><trkpt lat="43.1835964" lon="12.282945"><ele>349.0</ele><time>2026-04-19T10:54:01.87Z</time></trkpt><trkpt lat="43.1837607" lon="12.2830971"><ele>349.0</ele><time>2026-04-19T10:54:02.868Z</time></trkpt><trkpt lat="43.1839318" lon="12.2832828"><ele>350.66666666666663</ele><time>2026-04-19T10:54:03.869Z</time></trkpt><trkpt lat="43.1840977" lon="12.2834899"><ele>352.3333333333333</ele><time>2026-04-19T10:54:04.87Z</time></trkpt><trkpt lat="43.184243" lon="12.2836982"><ele>354.0</ele><time>2026-04-19T10:54:05.869Z</time></trkpt><trkpt lat="43.1843829" lon="12.2839074"><ele>348.6666666666667</ele><time>2026-04-19T10:54:06.87Z</time></trkpt><trkpt lat="43.1845141" lon="12.2841128"><ele>343.33333333333337</ele><time>2026-04-19T10:54:07.87Z</time></trkpt><trkpt lat="43.1846446" lon="12.2843217"><ele>338.0</ele><time>2026-04-19T10:54:08.869Z</time></trkpt><trkpt lat="43.1847736" lon="12.2845337"><ele>340.33333333333337</ele><time>2026-04-19T10:54:09.868Z</time></trkpt><trkpt lat="43.1848894" lon="12.2847443"><ele>342.6666666666667</ele><time>2026-04-19T10:54:10.87Z</time></trkpt><trkpt lat="43.1849857" lon="12.284967"><ele>345.0</ele><time>2026-04-19T10:54:11.87Z</time></trkpt><trkpt lat="43.1850695" lon="12.2852127"><ele>345.0</ele><time>2026-04-19T10:54:12.87Z</time></trkpt><trkpt lat="43.185142" lon="12.2854469"><ele>345.0</ele><time>2026-04-19T10:54:13.87Z</time></trkpt><trkpt lat="43.1852015" lon="12.2856706"><ele>345.0</ele><time>2026-04-19T10:54:14.869Z</time></trkpt><trkpt lat="43.1852331" lon="12.2858853"><ele>340.6666666666667</ele><time>2026-04-19T10:54:15.869Z</time></trkpt><trkpt lat="43.1852398" lon="12.2860975"><ele>336.33333333333337</ele><time>2026-04-19T10:54:16.869Z</time></trkpt><trkpt lat="43.1852173" lon="12.2863026"><ele>332.0</ele><time>2026-04-19T10:54:17.87Z</time></trkpt><trkpt lat="43.1851596" lon="12.2865147"><ele>332.0</ele><time>2026-04-19T10:54:18.869Z</time></trkpt><trkpt lat="43.1850843" lon="12.2867391"><ele>332.0</ele><time>2026-04-19T10:54:19.87Z</time></trkpt><trkpt lat="43.185027" lon="12.286971"><ele>332.0</ele><time>2026-04-19T10:54:20.868Z</time></trkpt><trkpt lat="43.1849914" lon="12.2871944"><ele>333.0</ele><time>2026-04-19T10:54:21.869Z</time></trkpt><trkpt lat="43.184959" lon="12.2874091"><ele>334.0</ele><time>2026-04-19T10:54:22.87Z</time></trkpt><trkpt lat="43.1849224" lon="12.2876046"><ele>335.0</ele><time>2026-04-19T10:54:23.869Z</time></trkpt><trkpt lat="43.1848757" lon="12.2877774"><ele>336.0</ele><time>2026-04-19T10:54:24.87Z</time></trkpt><trkpt lat="43.1848064" lon="12.2879088"><ele>333.0</ele><time>2026-04-19T10:54:25.869Z</time></trkpt><trkpt lat="43.1847135" lon="12.2879943"><ele>330.0</ele><time>2026-04-19T10:54:26.869Z</time></trkpt><trkpt lat="43.1846184" lon="12.2880306"><ele>327.0</ele><time>2026-04-19T10:54:27.87Z</time></trkpt><trkpt lat="43.1845267" lon="12.287999"><ele>324.0</ele><time>2026-04-19T10:54:28.869Z</time></trkpt><trkpt lat="43.1844467" lon="12.287913"><ele>321.0</ele><time>2026-04-19T10:54:29.87Z</time></trkpt><trkpt lat="43.1843852" lon="12.2877791"><ele>321.0</ele><time>2026-04-19T10:54:30.869Z</time></trkpt><trkpt lat="43.1843234" lon="12.2876137"><ele>321.0</ele><time>2026-04-19T10:54:31.869Z</time></trkpt><trkpt lat="43.184255" lon="12.2874623"><ele>321.0</ele><time>2026-04-19T10:54:32.868Z</time></trkpt><trkpt lat="43.1841676" lon="12.2873504"><ele>321.0</ele><time>2026-04-19T10:54:33.869Z</time></trkpt><trkpt lat="43.1840589" lon="12.2872833"><ele>317.75</ele><time>2026-04-19T10:54:34.87Z</time></trkpt><trkpt lat="43.1839453" lon="12.287265"><ele>314.5</ele><time>2026-04-19T10:54:35.87Z</time></trkpt><trkpt lat="43.183822" lon="12.2872982"><ele>311.25</ele><time>2026-04-19T10:54:36.869Z</time></trkpt><trkpt lat="43.1836823" lon="12.2873785"><ele>308.0</ele><time>2026-04-19T10:54:37.87Z</time></trkpt><trkpt lat="43.1835344" lon="12.2874856"><ele>308.0</ele><time>2026-04-19T10:54:38.868Z</time></trkpt><trkpt lat="43.1833862" lon="12.2876094"><ele>308.0</ele><time>2026-04-19T10:54:39.87Z</time></trkpt><trkpt lat="43.1832372" lon="12.2877386"><ele>308.0</ele><time>2026-04-19T10:54:40.87Z</time></trkpt><trkpt lat="43.1830947" lon="12.287893"><ele>304.33333333333337</ele><time>2026-04-19T10:54:41.87Z</time></trkpt><trkpt lat="43.1829733" lon="12.2880623"><ele>300.6666666666667</ele><time>2026-04-19T10:54:42.869Z</time></trkpt><trkpt lat="43.1828556" lon="12.2882577"><ele>297.0</ele><time>2026-04-19T10:54:43.868Z</time></trkpt><trkpt lat="43.182745" lon="12.2884519"><ele>297.0</ele><time>2026-04-19T10:54:44.869Z</time></trkpt><trkpt lat="43.1826526" lon="12.2886463"><ele>297.0</ele><time>2026-04-19T10:54:45.869Z</time></trkpt><trkpt lat="43.1825824" lon="12.288843"><ele>297.0</ele><time>2026-04-19T10:54:46.869Z</time></trkpt><trkpt lat="43.1825432" lon="12.2890416"><ele>297.25</ele><time>2026-04-19T10:54:47.87Z</time></trkpt><trkpt lat="43.1825104" lon="12.2892302"><ele>297.5</ele><time>2026-04-19T10:54:48.869Z</time></trkpt><trkpt lat="43.1824804" lon="12.2893916"><ele>297.75</ele><time>2026-04-19T10:54:49.87Z</time></trkpt><trkpt lat="43.1824366" lon="12.2895245"><ele>298.0</ele><time>2026-04-19T10:54:50.869Z</time></trkpt><trkpt lat="43.1823764" lon="12.289621"><ele>295.5</ele><time>2026-04-19T10:54:51.87Z</time></trkpt><trkpt lat="43.1822927" lon="12.2896834"><ele>293.0</ele><time>2026-04-19T10:54:52.869Z</time></trkpt><trkpt lat="43.1821841" lon="12.2897261"><ele>290.5</ele><time>2026-04-19T10:54:53.87Z</time></trkpt><trkpt lat="43.1820518" lon="12.2897666"><ele>288.0</ele><time>2026-04-19T10:54:54.87Z</time></trkpt><trkpt lat="43.1818951" lon="12.2898074"><ele>288.0</ele><time>2026-04-19T10:54:55.869Z</time></trkpt><trkpt lat="43.1817202" lon="12.2898326"><ele>288.0</ele><time>2026-04-19T10:54:56.869Z</time></trkpt><trkpt lat="43.1815267" lon="12.2898516"><ele>288.0</ele><time>2026-04-19T10:54:57.87Z</time></trkpt><trkpt lat="43.1813273" lon="12.2898738"><ele>285.6666666666667</ele><time>2026-04-19T10:54:58.869Z</time></trkpt><trkpt lat="43.1811128" lon="12.2898984"><ele>283.33333333333337</ele><time>2026-04-19T10:54:59.87Z</time></trkpt><trkpt lat="43.1808807" lon="12.2899185"><ele>281.0</ele><time>2026-04-19T10:55:00.868Z</time></trkpt><trkpt lat="43.1806549" lon="12.2899371"><ele>278.5</ele><time>2026-04-19T10:55:01.87Z</time></trkpt><trkpt lat="43.1804134" lon="12.2899574"><ele>276.0</ele><time>2026-04-19T10:55:02.869Z</time></trkpt><trkpt lat="43.1801757" lon="12.2899771"><ele>276.0</ele><time>2026-04-19T10:55:03.869Z</time></trkpt><trkpt lat="43.1799497" lon="12.2899984"><ele>276.0</ele><time>2026-04-19T10:55:04.868Z</time></trkpt><trkpt lat="43.1797338" lon="12.2900189"><ele>276.0</ele><time>2026-04-19T10:55:05.869Z</time></trkpt><trkpt lat="43.179524" lon="12.2900379"><ele>275.0</ele><time>2026-04-19T10:55:06.869Z</time></trkpt><trkpt lat="43.1793228" lon="12.2900488"><ele>274.0</ele><time>2026-04-19T10:55:07.87Z</time></trkpt><trkpt lat="43.1791435" lon="12.2900502"><ele>273.0</ele><time>2026-04-19T10:55:08.87Z</time></trkpt><trkpt lat="43.1789784" lon="12.2900337"><ele>271.3333333333333</ele><time>2026-04-19T10:55:09.869Z</time></trkpt><trkpt lat="43.1788243" lon="12.2899739"><ele>269.66666666666663</ele><time>2026-04-19T10:55:10.869Z</time></trkpt><trkpt lat="43.1786672" lon="12.289867"><ele>268.0</ele><time>2026-04-19T10:55:11.868Z</time></trkpt><trkpt lat="43.1784975" lon="12.2897469"><ele>267.66666666666663</ele><time>2026-04-19T10:55:12.87Z</time></trkpt><trkpt lat="43.1783167" lon="12.289614"><ele>267.3333333333333</ele><time>2026-04-19T10:55:13.869Z</time></trkpt><trkpt lat="43.1781301" lon="12.289469"><ele>267.0</ele><time>2026-04-19T10:55:14.868Z</time></trkpt><trkpt lat="43.1779509" lon="12.2893265"><ele>266.6666666666667</ele><time>2026-04-19T10:55:15.869Z</time></trkpt><trkpt lat="43.1777766" lon="12.2891947"><ele>266.33333333333337</ele><time>2026-04-19T10:55:16.869Z</time></trkpt><trkpt lat="43.1776099" lon="12.2890654"><ele>266.0</ele><time>2026-04-19T10:55:17.869Z</time></trkpt><trkpt lat="43.1774483" lon="12.2889385"><ele>266.6666666666667</ele><time>2026-04-19T10:55:18.869Z</time></trkpt><trkpt lat="43.1772758" lon="12.28881"><ele>267.3333333333333</ele><time>2026-04-19T10:55:19.87Z</time></trkpt><trkpt lat="43.177106" lon="12.2886976"><ele>268.0</ele><time>2026-04-19T10:55:20.87Z</time></trkpt><trkpt lat="43.1769453" lon="12.2885893"><ele>268.0</ele><time>2026-04-19T10:55:21.868Z</time></trkpt><trkpt lat="43.1767899" lon="12.2884865"><ele>268.0</ele><time>2026-04-19T10:55:22.868Z</time></trkpt><trkpt lat="43.1766426" lon="12.2883901"><ele>268.0</ele><time>2026-04-19T10:55:23.87Z</time></trkpt><trkpt lat="43.1765006" lon="12.2882997"><ele>267.25</ele><time>2026-04-19T10:55:24.868Z</time></trkpt><trkpt lat="43.1763672" lon="12.2882141"><ele>266.5</ele><time>2026-04-19T10:55:25.867Z</time></trkpt><trkpt lat="43.176235" lon="12.2881296"><ele>265.75</ele><time>2026-04-19T10:55:26.868Z</time></trkpt><trkpt lat="43.1761038" lon="12.288055"><ele>265.0</ele><time>2026-04-19T10:55:27.869Z</time></trkpt><trkpt lat="43.1759711" lon="12.2879793"><ele>265.0</ele><time>2026-04-19T10:55:28.868Z</time></trkpt><trkpt lat="43.1758366" lon="12.2879072"><ele>265.0</ele><time>2026-04-19T10:55:29.867Z</time></trkpt><trkpt lat="43.1757008" lon="12.2878489"><ele>265.0</ele><time>2026-04-19T10:55:30.869Z</time></trkpt><trkpt lat="43.1755607" lon="12.2878053"><ele>265.0</ele><time>2026-04-19T10:55:31.868Z</time></trkpt><trkpt lat="43.1754116" lon="12.2877753"><ele>264.0</ele><time>2026-04-19T10:55:32.869Z</time></trkpt><trkpt lat="43.1752531" lon="12.2877658"><ele>263.0</ele><time>2026-04-19T10:55:33.868Z</time></trkpt><trkpt lat="43.1750883" lon="12.2877729"><ele>262.0</ele><time>2026-04-19T10:55:34.869Z</time></trkpt><trkpt lat="43.1749356" lon="12.2877771"><ele>262.0</ele><time>2026-04-19T10:55:35.868Z</time></trkpt><trkpt lat="43.1747779" lon="12.2877822"><ele>262.0</ele><time>2026-04-19T10:55:36.868Z</time></trkpt><trkpt lat="43.1746138" lon="12.2877916"><ele>262.0</ele><time>2026-04-19T10:55:37.867Z</time></trkpt><trkpt lat="43.1744516" lon="12.2877988"><ele>262.0</ele><time>2026-04-19T10:55:38.868Z</time></trkpt><trkpt lat="43.1743" lon="12.2878041"><ele>262.0</ele><time>2026-04-19T10:55:39.869Z</time></trkpt><trkpt lat="43.1741497" lon="12.2878068"><ele>262.0</ele><time>2026-04-19T10:55:40.869Z</time></trkpt><trkpt lat="43.1740048" lon="12.2878066"><ele>262.0</ele><time>2026-04-19T10:55:41.868Z</time></trkpt><trkpt lat="43.1738523" lon="12.2877986"><ele>262.0</ele><time>2026-04-19T10:55:42.868Z</time></trkpt><trkpt lat="43.1737026" lon="12.2877932"><ele>262.0</ele><time>2026-04-19T10:55:43.869Z</time></trkpt><trkpt lat="43.173562" lon="12.2878096"><ele>262.0</ele><time>2026-04-19T10:55:44.869Z</time></trkpt><trkpt lat="43.1734274" lon="12.2878514"><ele>262.0</ele><time>2026-04-19T10:55:45.868Z</time></trkpt><trkpt lat="43.1732924" lon="12.287926"><ele>261.3333333333333</ele><time>2026-04-19T10:55:46.868Z</time></trkpt><trkpt lat="43.1731552" lon="12.2880436"><ele>260.6666666666667</ele><time>2026-04-19T10:55:47.869Z</time></trkpt><trkpt lat="43.1730186" lon="12.288168"><ele>260.0</ele><time>2026-04-19T10:55:48.869Z</time></trkpt><trkpt lat="43.172886" lon="12.2882806"><ele>260.0</ele><time>2026-04-19T10:55:49.867Z</time></trkpt><trkpt lat="43.172752" lon="12.2883749"><ele>260.0</ele><time>2026-04-19T10:55:50.869Z</time></trkpt><trkpt lat="43.1725986" lon="12.2884525"><ele>260.0</ele><time>2026-04-19T10:55:51.868Z</time></trkpt><trkpt lat="43.1724339" lon="12.2885103"><ele>260.5</ele><time>2026-04-19T10:55:52.869Z</time></trkpt><trkpt lat="43.1722844" lon="12.2885545"><ele>261.0</ele><time>2026-04-19T10:55:53.868Z</time></trkpt><trkpt lat="43.1721402" lon="12.2885973"><ele>261.5</ele><time>2026-04-19T10:55:54.867Z</time></trkpt><trkpt lat="43.1720105" lon="12.2886389"><ele>262.0</ele><time>2026-04-19T10:55:55.868Z</time></trkpt><trkpt lat="43.1718961" lon="12.2886935"><ele>262.0</ele><time>2026-04-19T10:55:56.869Z</time></trkpt><trkpt lat="43.1717864" lon="12.2887744"><ele>262.0</ele><time>2026-04-19T10:55:57.869Z</time></trkpt><trkpt lat="43.1716655" lon="12.2888605"><ele>262.0</ele><time>2026-04-19T10:55:58.868Z</time></trkpt><trkpt lat="43.171537" lon="12.2889391"><ele>262.0</ele><time>2026-04-19T10:55:59.867Z</time></trkpt><trkpt lat="43.1714146" lon="12.2890173"><ele>260.66666666666663</ele><time>2026-04-19T10:56:00.869Z</time></trkpt><trkpt lat="43.1712717" lon="12.2891035"><ele>259.3333333333333</ele><time>2026-04-19T10:56:01.869Z</time></trkpt><trkpt lat="43.1711156" lon="12.289219"><ele>258.0</ele><time>2026-04-19T10:56:02.867Z</time></trkpt><trkpt lat="43.1709465" lon="12.2893221"><ele>258.0</ele><time>2026-04-19T10:56:03.868Z</time></trkpt><trkpt lat="43.1707906" lon="12.2894248"><ele>258.0</ele><time>2026-04-19T10:56:04.868Z</time></trkpt><trkpt lat="43.1706372" lon="12.2895131"><ele>258.0</ele><time>2026-04-19T10:56:05.868Z</time></trkpt><trkpt lat="43.1704572" lon="12.2896322"><ele>256.6666666666667</ele><time>2026-04-19T10:56:06.869Z</time></trkpt><trkpt lat="43.1702823" lon="12.2897423"><ele>255.33333333333334</ele><time>2026-04-19T10:56:07.868Z</time></trkpt><trkpt lat="43.1701017" lon="12.2898528"><ele>254.0</ele><time>2026-04-19T10:56:08.868Z</time></trkpt><trkpt lat="43.1699167" lon="12.2899537"><ele>253.33333333333334</ele><time>2026-04-19T10:56:09.867Z</time></trkpt><trkpt lat="43.1697303" lon="12.2900514"><ele>252.66666666666669</ele><time>2026-04-19T10:56:10.868Z</time></trkpt><trkpt lat="43.1695214" lon="12.2901417"><ele>252.0</ele><time>2026-04-19T10:56:11.868Z</time></trkpt><trkpt lat="43.1693059" lon="12.2902162"><ele>252.0</ele><time>2026-04-19T10:56:12.867Z</time></trkpt><trkpt lat="43.1690919" lon="12.2902799"><ele>252.0</ele><time>2026-04-19T10:56:13.869Z</time></trkpt><trkpt lat="43.1688782" lon="12.2903589"><ele>252.0</ele><time>2026-04-19T10:56:14.869Z</time></trkpt><trkpt lat="43.1686844" lon="12.290442"><ele>252.0</ele><time>2026-04-19T10:56:15.868Z</time></trkpt><trkpt lat="43.1685125" lon="12.2905331"><ele>252.0</ele><time>2026-04-19T10:56:16.868Z</time></trkpt><trkpt lat="43.1683374" lon="12.2906623"><ele>252.0</ele><time>2026-04-19T10:56:17.868Z</time></trkpt><trkpt lat="43.1681666" lon="12.2908142"><ele>252.33333333333331</ele><time>2026-04-19T10:56:18.868Z</time></trkpt><trkpt lat="43.1679947" lon="12.2909697"><ele>252.66666666666666</ele><time>2026-04-19T10:56:19.869Z</time></trkpt><trkpt lat="43.167802" lon="12.2911181"><ele>253.0</ele><time>2026-04-19T10:56:20.869Z</time></trkpt><trkpt lat="43.1676086" lon="12.2912529"><ele>253.0</ele><time>2026-04-19T10:56:21.868Z</time></trkpt><trkpt lat="43.1674242" lon="12.29138"><ele>253.0</ele><time>2026-04-19T10:56:22.868Z</time></trkpt><trkpt lat="43.1672515" lon="12.2915027"><ele>253.0</ele><time>2026-04-19T10:56:23.869Z</time></trkpt><trkpt lat="43.1670845" lon="12.2916235"><ele>252.66666666666666</ele><time>2026-04-19T10:56:24.868Z</time></trkpt><trkpt lat="43.1669131" lon="12.2917472"><ele>252.33333333333331</ele><time>2026-04-19T10:56:25.867Z</time></trkpt><trkpt lat="43.1667516" lon="12.2918597"><ele>252.0</ele><time>2026-04-19T10:56:26.868Z</time></trkpt><trkpt lat="43.1666001" lon="12.2919687"><ele>252.25</ele><time>2026-04-19T10:56:27.868Z</time></trkpt><trkpt lat="43.166462" lon="12.2920648"><ele>252.5</ele><time>2026-04-19T10:56:28.869Z</time></trkpt><trkpt lat="43.1663235" lon="12.2921606"><ele>252.75</ele><time>2026-04-19T10:56:29.868Z</time></trkpt><trkpt lat="43.1662011" lon="12.292245"><ele>253.0</ele><time>2026-04-19T10:56:30.869Z</time></trkpt><trkpt lat="43.1660977" lon="12.2923158"><ele>252.99999999999997</ele><time>2026-04-19T10:56:31.869Z</time></trkpt><trkpt lat="43.1660098" lon="12.2923724"><ele>253.0</ele><time>2026-04-19T10:56:32.867Z</time></trkpt><trkpt lat="43.1659462" lon="12.2924198"><ele>253.0</ele><time>2026-04-19T10:56:33.868Z</time></trkpt><trkpt lat="43.1658682" lon="12.2925116"><ele>253.0</ele><time>2026-04-19T10:56:35.867Z</time></trkpt><trkpt lat="43.1658358" lon="12.2926378"><ele>252.99999999999997</ele><time>2026-04-19T10:56:37.868Z</time></trkpt><trkpt lat="43.1658248" lon="12.2927413"><ele>253.0</ele><time>2026-04-19T10:56:38.869Z</time></trkpt><trkpt lat="43.1658169" lon="12.2928681"><ele>253.0</ele><time>2026-04-19T10:56:39.869Z</time></trkpt><trkpt lat="43.1658032" lon="12.2929967"><ele>253.0</ele><time>2026-04-19T10:56:40.869Z</time></trkpt><trkpt lat="43.1657925" lon="12.2931556"><ele>253.0</ele><time>2026-04-19T10:56:41.868Z</time></trkpt><trkpt lat="43.1657725" lon="12.2933324"><ele>253.0</ele><time>2026-04-19T10:56:42.868Z</time></trkpt><trkpt lat="43.1657532" lon="12.2935117"><ele>253.0</ele><time>2026-04-19T10:56:43.868Z</time></trkpt><trkpt lat="43.1657321" lon="12.2936739"><ele>253.0</ele><time>2026-04-19T10:56:44.868Z</time></trkpt><trkpt lat="43.1657009" lon="12.2938393"><ele>253.0</ele><time>2026-04-19T10:56:45.869Z</time></trkpt><trkpt lat="43.1656639" lon="12.2940068"><ele>253.0</ele><time>2026-04-19T10:56:46.867Z</time></trkpt><trkpt lat="43.1656241" lon="12.2941688"><ele>253.25</ele><time>2026-04-19T10:56:47.869Z</time></trkpt><trkpt lat="43.1655829" lon="12.2943236"><ele>253.5</ele><time>2026-04-19T10:56:48.868Z</time></trkpt><trkpt lat="43.1655445" lon="12.2944802"><ele>253.75</ele><time>2026-04-19T10:56:49.869Z</time></trkpt><trkpt lat="43.1655092" lon="12.2946333"><ele>254.0</ele><time>2026-04-19T10:56:50.868Z</time></trkpt><trkpt lat="43.165473" lon="12.2947739"><ele>254.2</ele><time>2026-04-19T10:56:51.869Z</time></trkpt><trkpt lat="43.165436" lon="12.2949067"><ele>254.39999999999998</ele><time>2026-04-19T10:56:52.869Z</time></trkpt><trkpt lat="43.1653904" lon="12.2950353"><ele>254.6</ele><time>2026-04-19T10:56:53.867Z</time></trkpt><trkpt lat="43.1653321" lon="12.2951649"><ele>254.8</ele><time>2026-04-19T10:56:54.868Z</time></trkpt><trkpt lat="43.1652571" lon="12.2953084"><ele>255.0</ele><time>2026-04-19T10:56:55.868Z</time></trkpt><trkpt lat="43.1651786" lon="12.2954662"><ele>256.3333333333333</ele><time>2026-04-19T10:56:56.868Z</time></trkpt><trkpt lat="43.1650918" lon="12.2956355"><ele>257.66666666666663</ele><time>2026-04-19T10:56:57.869Z</time></trkpt><trkpt lat="43.1650034" lon="12.2958212"><ele>259.0</ele><time>2026-04-19T10:56:58.868Z</time></trkpt><trkpt lat="43.1649046" lon="12.2960106"><ele>259.3333333333333</ele><time>2026-04-19T10:56:59.868Z</time></trkpt><trkpt lat="43.1648108" lon="12.2961856"><ele>259.6666666666667</ele><time>2026-04-19T10:57:00.869Z</time></trkpt><trkpt lat="43.1647124" lon="12.2963739"><ele>260.0</ele><time>2026-04-19T10:57:01.868Z</time></trkpt><trkpt lat="43.1646122" lon="12.2965553"><ele>260.0</ele><time>2026-04-19T10:57:02.868Z</time></trkpt><trkpt lat="43.164515" lon="12.2967377"><ele>260.0</ele><time>2026-04-19T10:57:03.867Z</time></trkpt><trkpt lat="43.1644229" lon="12.2969162"><ele>260.0</ele><time>2026-04-19T10:57:04.869Z</time></trkpt><trkpt lat="43.1643253" lon="12.2970726"><ele>260.0</ele><time>2026-04-19T10:57:05.868Z</time></trkpt><trkpt lat="43.1642235" lon="12.2972194"><ele>260.0</ele><time>2026-04-19T10:57:06.869Z</time></trkpt><trkpt lat="43.164113" lon="12.2973682"><ele>260.0</ele><time>2026-04-19T10:57:07.868Z</time></trkpt><trkpt lat="43.1639963" lon="12.2975333"><ele>260.0</ele><time>2026-04-19T10:57:08.869Z</time></trkpt><trkpt lat="43.1638804" lon="12.2976925"><ele>260.0</ele><time>2026-04-19T10:57:09.868Z</time></trkpt><trkpt lat="43.163767" lon="12.2978658"><ele>260.0</ele><time>2026-04-19T10:57:10.869Z</time></trkpt><trkpt lat="43.1636615" lon="12.2980314"><ele>261.6666666666667</ele><time>2026-04-19T10:57:11.868Z</time></trkpt><trkpt lat="43.1635598" lon="12.2981855"><ele>263.3333333333333</ele><time>2026-04-19T10:57:12.869Z</time></trkpt><trkpt lat="43.1634493" lon="12.298339"><ele>265.0</ele><time>2026-04-19T10:57:13.868Z</time></trkpt><trkpt lat="43.1633394" lon="12.2984907"><ele>265.0</ele><time>2026-04-19T10:57:14.868Z</time></trkpt><trkpt lat="43.1632026" lon="12.2986314"><ele>265.0</ele><time>2026-04-19T10:57:15.869Z</time></trkpt><trkpt lat="43.1630711" lon="12.2987914"><ele>265.0</ele><time>2026-04-19T10:57:16.869Z</time></trkpt><trkpt lat="43.1629355" lon="12.2989571"><ele>264.0</ele><time>2026-04-19T10:57:17.868Z</time></trkpt><trkpt lat="43.1628015" lon="12.2991197"><ele>263.0</ele><time>2026-04-19T10:57:18.868Z</time></trkpt><trkpt lat="43.1626749" lon="12.2992837"><ele>262.0</ele><time>2026-04-19T10:57:19.868Z</time></trkpt><trkpt lat="43.1625616" lon="12.2994473"><ele>262.0</ele><time>2026-04-19T10:57:20.868Z</time></trkpt><trkpt lat="43.1624594" lon="12.2996002"><ele>262.0</ele><time>2026-04-19T10:57:21.868Z</time></trkpt><trkpt lat="43.1623653" lon="12.2997523"><ele>262.0</ele><time>2026-04-19T10:57:22.869Z</time></trkpt><trkpt lat="43.1622762" lon="12.2998961"><ele>262.0</ele><time>2026-04-19T10:57:23.868Z</time></trkpt><trkpt lat="43.1621936" lon="12.3000342"><ele>261.8</ele><time>2026-04-19T10:57:24.867Z</time></trkpt><trkpt lat="43.1621176" lon="12.3001679"><ele>261.6</ele><time>2026-04-19T10:57:25.868Z</time></trkpt><trkpt lat="43.1620498" lon="12.3002893"><ele>261.40000000000003</ele><time>2026-04-19T10:57:26.868Z</time></trkpt><trkpt lat="43.1619923" lon="12.3003918"><ele>261.2</ele><time>2026-04-19T10:57:27.866Z</time></trkpt><trkpt lat="43.1619399" lon="12.3004761"><ele>261.0</ele><time>2026-04-19T10:57:28.867Z</time></trkpt><trkpt lat="43.1618824" lon="12.3005407"><ele>261.8</ele><time>2026-04-19T10:57:29.867Z</time></trkpt><trkpt lat="43.1618002" lon="12.3006136"><ele>262.6</ele><time>2026-04-19T10:57:31.867Z</time></trkpt><trkpt lat="43.1617295" lon="12.3006914"><ele>263.4</ele><time>2026-04-19T10:57:41.867Z</time></trkpt><trkpt lat="43.1616791" lon="12.3008494"><ele>264.2</ele><time>2026-04-19T10:57:43.868Z</time></trkpt><trkpt lat="43.1616707" lon="12.300946"><ele>265.0</ele><time>2026-04-19T10:57:44.867Z</time></trkpt><trkpt lat="43.1616639" lon="12.301066"><ele>265.0</ele><time>2026-04-19T10:57:45.867Z</time></trkpt><trkpt lat="43.1616509" lon="12.3012141"><ele>265.0</ele><time>2026-04-19T10:57:46.866Z</time></trkpt><trkpt lat="43.1616325" lon="12.3013645"><ele>265.0</ele><time>2026-04-19T10:57:47.868Z</time></trkpt><trkpt lat="43.1616184" lon="12.3015151"><ele>265.0</ele><time>2026-04-19T10:57:48.868Z</time></trkpt><trkpt lat="43.1616035" lon="12.301698"><ele>266.3333333333333</ele><time>2026-04-19T10:57:49.866Z</time></trkpt><trkpt lat="43.161587" lon="12.3019086"><ele>267.6666666666667</ele><time>2026-04-19T10:57:50.867Z</time></trkpt><trkpt lat="43.1615713" lon="12.3021094"><ele>269.0</ele><time>2026-04-19T10:57:51.868Z</time></trkpt><trkpt lat="43.1615563" lon="12.3023356"><ele>270.0</ele><time>2026-04-19T10:57:52.867Z</time></trkpt><trkpt lat="43.1615539" lon="12.302573"><ele>271.0</ele><time>2026-04-19T10:57:53.867Z</time></trkpt><trkpt lat="43.1615744" lon="12.3028437"><ele>272.0</ele><time>2026-04-19T10:57:54.867Z</time></trkpt><trkpt lat="43.1615971" lon="12.3030998"><ele>272.0</ele><time>2026-04-19T10:57:55.867Z</time></trkpt><trkpt lat="43.1616244" lon="12.3033627"><ele>272.0</ele><time>2026-04-19T10:57:56.868Z</time></trkpt><trkpt lat="43.161654" lon="12.303611"><ele>272.0</ele><time>2026-04-19T10:57:57.866Z</time></trkpt><trkpt lat="43.1616845" lon="12.3038575"><ele>270.6666666666667</ele><time>2026-04-19T10:57:58.868Z</time></trkpt><trkpt lat="43.1617169" lon="12.3041141"><ele>269.3333333333333</ele><time>2026-04-19T10:57:59.866Z</time></trkpt><trkpt lat="43.1617503" lon="12.3043726"><ele>268.0</ele><time>2026-04-19T10:58:00.867Z</time></trkpt><trkpt lat="43.1617757" lon="12.3046239"><ele>265.66666666666663</ele><time>2026-04-19T10:58:01.867Z</time></trkpt><trkpt lat="43.1618122" lon="12.3048551"><ele>263.3333333333333</ele><time>2026-04-19T10:58:02.868Z</time></trkpt><trkpt lat="43.1618438" lon="12.3050822"><ele>261.0</ele><time>2026-04-19T10:58:03.868Z</time></trkpt><trkpt lat="43.1618679" lon="12.3053122"><ele>261.0</ele><time>2026-04-19T10:58:04.868Z</time></trkpt><trkpt lat="43.1618917" lon="12.3055528"><ele>261.0</ele><time>2026-04-19T10:58:05.866Z</time></trkpt><trkpt lat="43.1619248" lon="12.3058094"><ele>261.0</ele><time>2026-04-19T10:58:06.868Z</time></trkpt><trkpt lat="43.1619606" lon="12.3060723"><ele>259.6666666666667</ele><time>2026-04-19T10:58:07.866Z</time></trkpt><trkpt lat="43.1619991" lon="12.30633"><ele>258.33333333333337</ele><time>2026-04-19T10:58:08.868Z</time></trkpt><trkpt lat="43.1620433" lon="12.306578"><ele>257.0</ele><time>2026-04-19T10:58:09.868Z</time></trkpt><trkpt lat="43.1620891" lon="12.306836"><ele>257.0</ele><time>2026-04-19T10:58:10.868Z</time></trkpt><trkpt lat="43.1621359" lon="12.307102"><ele>257.0</ele><time>2026-04-19T10:58:11.868Z</time></trkpt><trkpt lat="43.1621703" lon="12.3073494"><ele>257.0</ele><time>2026-04-19T10:58:12.867Z</time></trkpt><trkpt lat="43.162197" lon="12.3075885"><ele>256.6666666666667</ele><time>2026-04-19T10:58:13.867Z</time></trkpt><trkpt lat="43.1622082" lon="12.3078084"><ele>256.3333333333333</ele><time>2026-04-19T10:58:14.867Z</time></trkpt><trkpt lat="43.1621954" lon="12.3080343"><ele>256.0</ele><time>2026-04-19T10:58:15.867Z</time></trkpt><trkpt lat="43.1621669" lon="12.3082618"><ele>257.0</ele><time>2026-04-19T10:58:16.868Z</time></trkpt><trkpt lat="43.1621372" lon="12.3084891"><ele>258.0</ele><time>2026-04-19T10:58:17.867Z</time></trkpt><trkpt lat="43.1621031" lon="12.3087175"><ele>259.0</ele><time>2026-04-19T10:58:18.867Z</time></trkpt><trkpt lat="43.1620703" lon="12.3089477"><ele>259.0</ele><time>2026-04-19T10:58:19.868Z</time></trkpt><trkpt lat="43.162036" lon="12.3091606"><ele>259.0</ele><time>2026-04-19T10:58:20.867Z</time></trkpt><trkpt lat="43.1619948" lon="12.309361"><ele>259.0</ele><time>2026-04-19T10:58:21.867Z</time></trkpt><trkpt lat="43.1619483" lon="12.3095387"><ele>259.0</ele><time>2026-04-19T10:58:22.867Z</time></trkpt><trkpt lat="43.1618859" lon="12.3096966"><ele>259.0</ele><time>2026-04-19T10:58:23.868Z</time></trkpt><trkpt lat="43.1618259" lon="12.3098561"><ele>259.0</ele><time>2026-04-19T10:58:24.868Z</time></trkpt><trkpt lat="43.1617217" lon="12.3099251"><ele>259.0</ele><time>2026-04-19T10:58:25.867Z</time></trkpt><trkpt lat="43.1616319" lon="12.3099836"><ele>259.0</ele><time>2026-04-19T10:58:26.867Z</time></trkpt><trkpt lat="43.161555" lon="12.3100371"><ele>259.0</ele><time>2026-04-19T10:58:27.867Z</time></trkpt><trkpt lat="43.1614665" lon="12.3100655"><ele>259.0</ele><time>2026-04-19T10:58:28.868Z</time></trkpt><trkpt lat="43.1613747" lon="12.3100831"><ele>259.0</ele><time>2026-04-19T10:58:29.867Z</time></trkpt><trkpt lat="43.1612848" lon="12.3100982"><ele>259.0</ele><time>2026-04-19T10:58:30.867Z</time></trkpt><trkpt lat="43.1612106" lon="12.310107"><ele>259.0</ele><time>2026-04-19T10:58:31.867Z</time></trkpt><trkpt lat="43.1611434" lon="12.3101179"><ele>259.0</ele><time>2026-04-19T10:58:32.868Z</time></trkpt><trkpt lat="43.1610535" lon="12.310116"><ele>259.0</ele><time>2026-04-19T10:58:34.867Z</time></trkpt><trkpt lat="43.160981" lon="12.310145"><ele>259.0</ele><time>2026-04-19T10:58:36.866Z</time></trkpt><trkpt lat="43.1609524" lon="12.3102377"><ele>259.0</ele><time>2026-04-19T10:58:38.868Z</time></trkpt><trkpt lat="43.1609812" lon="12.3104097"><ele>259.0</ele><time>2026-04-19T10:58:40.867Z</time></trkpt><trkpt lat="43.1609955" lon="12.3105194"><ele>259.0</ele><time>2026-04-19T10:58:41.867Z</time></trkpt><trkpt lat="43.1610074" lon="12.310667"><ele>259.0</ele><time>2026-04-19T10:58:42.866Z</time></trkpt><trkpt lat="43.1610115" lon="12.3108209"><ele>259.0</ele><time>2026-04-19T10:58:43.867Z</time></trkpt><trkpt lat="43.1610213" lon="12.3109822"><ele>259.0</ele><time>2026-04-19T10:58:44.867Z</time></trkpt><trkpt lat="43.1610463" lon="12.3111828"><ele>259.0</ele><time>2026-04-19T10:58:45.867Z</time></trkpt><trkpt lat="43.1610894" lon="12.311392"><ele>259.0</ele><time>2026-04-19T10:58:46.868Z</time></trkpt><trkpt lat="43.161146" lon="12.3116037"><ele>258.66666666666663</ele><time>2026-04-19T10:58:47.867Z</time></trkpt><trkpt lat="43.1611973" lon="12.3118507"><ele>258.3333333333333</ele><time>2026-04-19T10:58:48.866Z</time></trkpt><trkpt lat="43.1612428" lon="12.3120999"><ele>258.0</ele><time>2026-04-19T10:58:49.866Z</time></trkpt><trkpt lat="43.1612883" lon="12.3123482"><ele>258.0</ele><time>2026-04-19T10:58:50.868Z</time></trkpt><trkpt lat="43.1613388" lon="12.3125986"><ele>258.0</ele><time>2026-04-19T10:58:51.868Z</time></trkpt><trkpt lat="43.1613919" lon="12.3128326"><ele>258.0</ele><time>2026-04-19T10:58:52.868Z</time></trkpt><trkpt lat="43.161438" lon="12.3130552"><ele>257.6666666666667</ele><time>2026-04-19T10:58:53.868Z</time></trkpt><trkpt lat="43.161479" lon="12.3132747"><ele>257.33333333333337</ele><time>2026-04-19T10:58:54.866Z</time></trkpt><trkpt lat="43.1615117" lon="12.3135033"><ele>257.0</ele><time>2026-04-19T10:58:55.868Z</time></trkpt><trkpt lat="43.161526" lon="12.3137398"><ele>257.6666666666667</ele><time>2026-04-19T10:58:56.867Z</time></trkpt><trkpt lat="43.161524" lon="12.3139864"><ele>258.3333333333333</ele><time>2026-04-19T10:58:57.868Z</time></trkpt><trkpt lat="43.1614983" lon="12.3142411"><ele>259.0</ele><time>2026-04-19T10:58:58.867Z</time></trkpt><trkpt lat="43.1614588" lon="12.3144837"><ele>259.0</ele><time>2026-04-19T10:58:59.867Z</time></trkpt><trkpt lat="43.1614232" lon="12.3147186"><ele>259.0</ele><time>2026-04-19T10:59:00.866Z</time></trkpt><trkpt lat="43.1613878" lon="12.3149528"><ele>259.0</ele><time>2026-04-19T10:59:01.866Z</time></trkpt><trkpt lat="43.1613558" lon="12.3151711"><ele>260.0</ele><time>2026-04-19T10:59:02.868Z</time></trkpt><trkpt lat="43.1613238" lon="12.3153862"><ele>261.0</ele><time>2026-04-19T10:59:03.867Z</time></trkpt><trkpt lat="43.1612963" lon="12.3155989"><ele>262.0</ele><time>2026-04-19T10:59:04.867Z</time></trkpt><trkpt lat="43.1612777" lon="12.3157979"><ele>262.0</ele><time>2026-04-19T10:59:05.867Z</time></trkpt><trkpt lat="43.1612631" lon="12.3159839"><ele>262.0</ele><time>2026-04-19T10:59:06.866Z</time></trkpt><trkpt lat="43.161242" lon="12.3161611"><ele>262.0</ele><time>2026-04-19T10:59:07.867Z</time></trkpt><trkpt lat="43.1612166" lon="12.3163238"><ele>262.0</ele><time>2026-04-19T10:59:08.867Z</time></trkpt><trkpt lat="43.1611799" lon="12.3164765"><ele>262.0</ele><time>2026-04-19T10:59:09.867Z</time></trkpt><trkpt lat="43.1611216" lon="12.3166271"><ele>262.0</ele><time>2026-04-19T10:59:10.867Z</time></trkpt><trkpt lat="43.1610456" lon="12.3167776"><ele>262.0</ele><time>2026-04-19T10:59:11.867Z</time></trkpt><trkpt lat="43.1609684" lon="12.3169238"><ele>262.0</ele><time>2026-04-19T10:59:12.866Z</time></trkpt><trkpt lat="43.1608959" lon="12.3170699"><ele>262.0</ele><time>2026-04-19T10:59:13.866Z</time></trkpt><trkpt lat="43.1608217" lon="12.3172122"><ele>262.0</ele><time>2026-04-19T10:59:14.866Z</time></trkpt><trkpt lat="43.1607495" lon="12.317355"><ele>262.0</ele><time>2026-04-19T10:59:15.867Z</time></trkpt><trkpt lat="43.1606782" lon="12.3174958"><ele>262.0</ele><time>2026-04-19T10:59:16.866Z</time></trkpt><trkpt lat="43.1606099" lon="12.3176346"><ele>261.8</ele><time>2026-04-19T10:59:17.866Z</time></trkpt><trkpt lat="43.1605527" lon="12.31777"><ele>261.6</ele><time>2026-04-19T10:59:18.867Z</time></trkpt><trkpt lat="43.1605065" lon="12.3179042"><ele>261.40000000000003</ele><time>2026-04-19T10:59:19.866Z</time></trkpt><trkpt lat="43.1604593" lon="12.3180282"><ele>261.2</ele><time>2026-04-19T10:59:20.867Z</time></trkpt><trkpt lat="43.160409" lon="12.3181586"><ele>261.0</ele><time>2026-04-19T10:59:21.867Z</time></trkpt><trkpt lat="43.160345" lon="12.3182878"><ele>262.0</ele><time>2026-04-19T10:59:22.865Z</time></trkpt><trkpt lat="43.1602632" lon="12.3184207"><ele>263.0</ele><time>2026-04-19T10:59:23.866Z</time></trkpt><trkpt lat="43.1601701" lon="12.3185415"><ele>264.0</ele><time>2026-04-19T10:59:24.866Z</time></trkpt><trkpt lat="43.1600654" lon="12.318649"><ele>265.0</ele><time>2026-04-19T10:59:25.867Z</time></trkpt><trkpt lat="43.1599599" lon="12.3187505"><ele>266.5</ele><time>2026-04-19T10:59:26.866Z</time></trkpt><trkpt lat="43.1598599" lon="12.3188413"><ele>268.0</ele><time>2026-04-19T10:59:27.866Z</time></trkpt><trkpt lat="43.1597648" lon="12.3189333"><ele>269.5</ele><time>2026-04-19T10:59:28.866Z</time></trkpt><trkpt lat="43.1596759" lon="12.3190334"><ele>271.0</ele><time>2026-04-19T10:59:29.866Z</time></trkpt><trkpt lat="43.1595963" lon="12.3191433"><ele>271.5</ele><time>2026-04-19T10:59:30.866Z</time></trkpt><trkpt lat="43.1595235" lon="12.3192723"><ele>272.0</ele><time>2026-04-19T10:59:31.867Z</time></trkpt><trkpt lat="43.1594533" lon="12.3194074"><ele>272.5</ele><time>2026-04-19T10:59:32.866Z</time></trkpt><trkpt lat="43.1593927" lon="12.3195456"><ele>273.0</ele><time>2026-04-19T10:59:33.867Z</time></trkpt><trkpt lat="43.1593439" lon="12.3196845"><ele>272.0</ele><time>2026-04-19T10:59:34.866Z</time></trkpt><trkpt lat="43.1593015" lon="12.3198442"><ele>271.0</ele><time>2026-04-19T10:59:35.866Z</time></trkpt><trkpt lat="43.1592706" lon="12.3200027"><ele>270.0</ele><time>2026-04-19T10:59:36.867Z</time></trkpt><trkpt lat="43.1592534" lon="12.3201651"><ele>269.0</ele><time>2026-04-19T10:59:37.866Z</time></trkpt><trkpt lat="43.1592516" lon="12.320333"><ele>269.0</ele><time>2026-04-19T10:59:38.867Z</time></trkpt><trkpt lat="43.1592659" lon="12.320508"><ele>269.0</ele><time>2026-04-19T10:59:39.867Z</time></trkpt><trkpt lat="43.1592863" lon="12.3206723"><ele>269.0</ele><time>2026-04-19T10:59:40.867Z</time></trkpt><trkpt lat="43.1593095" lon="12.3208339"><ele>269.0</ele><time>2026-04-19T10:59:41.866Z</time></trkpt><trkpt lat="43.1593328" lon="12.3209952"><ele>269.75</ele><time>2026-04-19T10:59:42.865Z</time></trkpt><trkpt lat="43.1593574" lon="12.3211584"><ele>270.5</ele><time>2026-04-19T10:59:43.866Z</time></trkpt><trkpt lat="43.159381" lon="12.3213261"><ele>271.25</ele><time>2026-04-19T10:59:44.865Z</time></trkpt><trkpt lat="43.1594044" lon="12.3214973"><ele>272.0</ele><time>2026-04-19T10:59:45.867Z</time></trkpt><trkpt lat="43.159427" lon="12.3216625"><ele>274.5</ele><time>2026-04-19T10:59:46.867Z</time></trkpt><trkpt lat="43.1594465" lon="12.3218263"><ele>277.0</ele><time>2026-04-19T10:59:47.866Z</time></trkpt><trkpt lat="43.1594603" lon="12.3219866"><ele>279.5</ele><time>2026-04-19T10:59:48.866Z</time></trkpt><trkpt lat="43.1594732" lon="12.3221495"><ele>282.0</ele><time>2026-04-19T10:59:49.867Z</time></trkpt><trkpt lat="43.1594857" lon="12.3223164"><ele>284.0</ele><time>2026-04-19T10:59:50.866Z</time></trkpt><trkpt lat="43.1594933" lon="12.3224723"><ele>286.0</ele><time>2026-04-19T10:59:51.866Z</time></trkpt><trkpt lat="43.1595036" lon="12.3226257"><ele>288.0</ele><time>2026-04-19T10:59:52.866Z</time></trkpt><trkpt lat="43.1595107" lon="12.3227778"><ele>290.0</ele><time>2026-04-19T10:59:53.866Z</time></trkpt><trkpt lat="43.1595177" lon="12.3229364"><ele>288.0</ele><time>2026-04-19T10:59:54.867Z</time></trkpt><trkpt lat="43.1595206" lon="12.323095"><ele>286.0</ele><time>2026-04-19T10:59:55.867Z</time></trkpt><trkpt lat="43.1595203" lon="12.3232532"><ele>284.0</ele><time>2026-04-19T10:59:56.867Z</time></trkpt><trkpt lat="43.1595154" lon="12.3234148"><ele>282.0</ele><time>2026-04-19T10:59:57.867Z</time></trkpt><trkpt lat="43.1595127" lon="12.3235733"><ele>282.0</ele><time>2026-04-19T10:59:58.865Z</time></trkpt><trkpt lat="43.1595091" lon="12.3237287"><ele>282.0</ele><time>2026-04-19T10:59:59.866Z</time></trkpt><trkpt lat="43.1595004" lon="12.3238738"><ele>282.0</ele><time>2026-04-19T11:00:00.866Z</time></trkpt><trkpt lat="43.1594936" lon="12.3240193"><ele>282.0</ele><time>2026-04-19T11:00:01.866Z</time></trkpt><trkpt lat="43.1594885" lon="12.3241691"><ele>282.0</ele><time>2026-04-19T11:00:02.867Z</time></trkpt><trkpt lat="43.1594865" lon="12.3243279"><ele>280.0</ele><time>2026-04-19T11:00:03.867Z</time></trkpt><trkpt lat="43.1594759" lon="12.3244977"><ele>278.0</ele><time>2026-04-19T11:00:04.867Z</time></trkpt><trkpt lat="43.1594639" lon="12.3246757"><ele>276.0</ele><time>2026-04-19T11:00:05.865Z</time></trkpt><trkpt lat="43.1594514" lon="12.3248634"><ele>274.0</ele><time>2026-04-19T11:00:06.867Z</time></trkpt><trkpt lat="43.1594417" lon="12.3250489"><ele>274.0</ele><time>2026-04-19T11:00:07.867Z</time></trkpt><trkpt lat="43.1594264" lon="12.3252324"><ele>274.0</ele><time>2026-04-19T11:00:08.867Z</time></trkpt><trkpt lat="43.1594108" lon="12.3254023"><ele>274.0</ele><time>2026-04-19T11:00:09.867Z</time></trkpt><trkpt lat="43.1593971" lon="12.3255588"><ele>274.0</ele><time>2026-04-19T11:00:10.867Z</time></trkpt><trkpt lat="43.1593783" lon="12.3257093"><ele>274.0</ele><time>2026-04-19T11:00:11.867Z</time></trkpt><trkpt lat="43.1593537" lon="12.3258579"><ele>274.0</ele><time>2026-04-19T11:00:12.867Z</time></trkpt><trkpt lat="43.1593187" lon="12.3260062"><ele>274.0</ele><time>2026-04-19T11:00:13.865Z</time></trkpt><trkpt lat="43.1592732" lon="12.3261596"><ele>274.0</ele><time>2026-04-19T11:00:14.866Z</time></trkpt><trkpt lat="43.1592295" lon="12.3263182"><ele>273.25</ele><time>2026-04-19T11:00:15.867Z</time></trkpt><trkpt lat="43.159191" lon="12.3264741"><ele>272.5</ele><time>2026-04-19T11:00:16.866Z</time></trkpt><trkpt lat="43.1591476" lon="12.3266263"><ele>271.75</ele><time>2026-04-19T11:00:17.867Z</time></trkpt><trkpt lat="43.1591078" lon="12.326778"><ele>271.0</ele><time>2026-04-19T11:00:18.867Z</time></trkpt><trkpt lat="43.1590713" lon="12.326936"><ele>271.0</ele><time>2026-04-19T11:00:19.867Z</time></trkpt><trkpt lat="43.1590352" lon="12.3270891"><ele>271.0</ele><time>2026-04-19T11:00:20.866Z</time></trkpt><trkpt lat="43.1590116" lon="12.3272485"><ele>271.0</ele><time>2026-04-19T11:00:21.867Z</time></trkpt><trkpt lat="43.1589942" lon="12.3274162"><ele>271.0</ele><time>2026-04-19T11:00:22.867Z</time></trkpt><trkpt lat="43.1589949" lon="12.327578"><ele>271.0</ele><time>2026-04-19T11:00:23.866Z</time></trkpt><trkpt lat="43.1590055" lon="12.3277473"><ele>271.0</ele><time>2026-04-19T11:00:24.866Z</time></trkpt><trkpt lat="43.1590197" lon="12.3279129"><ele>271.0</ele><time>2026-04-19T11:00:25.867Z</time></trkpt><trkpt lat="43.1590428" lon="12.3280797"><ele>271.0</ele><time>2026-04-19T11:00:26.867Z</time></trkpt><trkpt lat="43.1590808" lon="12.3282467"><ele>271.0</ele><time>2026-04-19T11:00:27.866Z</time></trkpt><trkpt lat="43.1591259" lon="12.3284046"><ele>271.0</ele><time>2026-04-19T11:00:28.867Z</time></trkpt><trkpt lat="43.1591714" lon="12.328556"><ele>271.0</ele><time>2026-04-19T11:00:29.867Z</time></trkpt><trkpt lat="43.1592194" lon="12.3287027"><ele>271.0</ele><time>2026-04-19T11:00:30.866Z</time></trkpt><trkpt lat="43.1592679" lon="12.3288511"><ele>271.40000000000003</ele><time>2026-04-19T11:00:31.867Z</time></trkpt><trkpt lat="43.159314" lon="12.3289896"><ele>271.8</ele><time>2026-04-19T11:00:32.867Z</time></trkpt><trkpt lat="43.1593564" lon="12.3291205"><ele>272.20000000000005</ele><time>2026-04-19T11:00:33.867Z</time></trkpt><trkpt lat="43.1593973" lon="12.329242"><ele>272.6</ele><time>2026-04-19T11:00:34.865Z</time></trkpt><trkpt lat="43.1594407" lon="12.3293492"><ele>273.0</ele><time>2026-04-19T11:00:35.865Z</time></trkpt><trkpt lat="43.1594882" lon="12.3294449"><ele>273.0</ele><time>2026-04-19T11:00:36.866Z</time></trkpt><trkpt lat="43.1595443" lon="12.3295419"><ele>273.0</ele><time>2026-04-19T11:00:37.866Z</time></trkpt><trkpt lat="43.1596086" lon="12.3296367"><ele>273.0</ele><time>2026-04-19T11:00:38.865Z</time></trkpt><trkpt lat="43.1596772" lon="12.3297324"><ele>273.0</ele><time>2026-04-19T11:00:39.866Z</time></trkpt><trkpt lat="43.1597517" lon="12.3298292"><ele>273.0</ele><time>2026-04-19T11:00:40.867Z</time></trkpt><trkpt lat="43.1598234" lon="12.3299243"><ele>273.0</ele><time>2026-04-19T11:00:41.866Z</time></trkpt><trkpt lat="43.1598971" lon="12.3300224"><ele>273.0</ele><time>2026-04-19T11:00:42.867Z</time></trkpt><trkpt lat="43.1599613" lon="12.3301093"><ele>273.0</ele><time>2026-04-19T11:00:43.867Z</time></trkpt><trkpt lat="43.1600128" lon="12.3301932"><ele>273.0</ele><time>2026-04-19T11:00:44.866Z</time></trkpt><trkpt lat="43.1600633" lon="12.330295"><ele>273.0</ele><time>2026-04-19T11:00:46.867Z</time></trkpt><trkpt lat="43.1600818" lon="12.330381"><ele>273.0</ele><time>2026-04-19T11:00:49.867Z</time></trkpt><trkpt lat="43.1600798" lon="12.3304886"><ele>273.3333333333333</ele><time>2026-04-19T11:00:52.866Z</time></trkpt><trkpt lat="43.1600022" lon="12.3306257"><ele>273.6666666666667</ele><time>2026-04-19T11:00:54.867Z</time></trkpt><trkpt lat="43.1599545" lon="12.3306891"><ele>274.0</ele><time>2026-04-19T11:00:55.867Z</time></trkpt><trkpt lat="43.1599024" lon="12.3307582"><ele>274.33333333333337</ele><time>2026-04-19T11:00:56.866Z</time></trkpt><trkpt lat="43.1598518" lon="12.3308247"><ele>274.6666666666667</ele><time>2026-04-19T11:00:57.866Z</time></trkpt><trkpt lat="43.1597975" lon="12.3309083"><ele>275.0</ele><time>2026-04-19T11:00:58.867Z</time></trkpt><trkpt lat="43.1597361" lon="12.3310022"><ele>275.0</ele><time>2026-04-19T11:00:59.866Z</time></trkpt><trkpt lat="43.1596603" lon="12.3311212"><ele>275.0</ele><time>2026-04-19T11:01:00.866Z</time></trkpt><trkpt lat="43.159581" lon="12.3312433"><ele>275.0</ele><time>2026-04-19T11:01:01.867Z</time></trkpt><trkpt lat="43.1595" lon="12.3313763"><ele>275.0</ele><time>2026-04-19T11:01:02.866Z</time></trkpt><trkpt lat="43.1594007" lon="12.3315377"><ele>275.0</ele><time>2026-04-19T11:01:03.865Z</time></trkpt><trkpt lat="43.1592815" lon="12.331712"><ele>275.0</ele><time>2026-04-19T11:01:04.866Z</time></trkpt><trkpt lat="43.1591571" lon="12.3318899"><ele>275.0</ele><time>2026-04-19T11:01:05.865Z</time></trkpt><trkpt lat="43.1590223" lon="12.3320816"><ele>275.6666666666667</ele><time>2026-04-19T11:01:06.867Z</time></trkpt><trkpt lat="43.1588993" lon="12.3322754"><ele>276.3333333333333</ele><time>2026-04-19T11:01:07.866Z</time></trkpt><trkpt lat="43.1587838" lon="12.3324638"><ele>277.0</ele><time>2026-04-19T11:01:08.865Z</time></trkpt><trkpt lat="43.1586746" lon="12.3326372"><ele>277.0</ele><time>2026-04-19T11:01:09.864Z</time></trkpt><trkpt lat="43.1585741" lon="12.3328091"><ele>277.0</ele><time>2026-04-19T11:01:10.866Z</time></trkpt><trkpt lat="43.158474" lon="12.3329861"><ele>277.0</ele><time>2026-04-19T11:01:11.865Z</time></trkpt><trkpt lat="43.1583833" lon="12.3331562"><ele>277.5</ele><time>2026-04-19T11:01:12.866Z</time></trkpt><trkpt lat="43.1582926" lon="12.333311"><ele>278.0</ele><time>2026-04-19T11:01:13.866Z</time></trkpt><trkpt lat="43.1582043" lon="12.3334625"><ele>278.5</ele><time>2026-04-19T11:01:14.865Z</time></trkpt><trkpt lat="43.1581156" lon="12.3336203"><ele>279.0</ele><time>2026-04-19T11:01:15.864Z</time></trkpt><trkpt lat="43.158029" lon="12.3337747"><ele>279.25</ele><time>2026-04-19T11:01:16.865Z</time></trkpt><trkpt lat="43.1579494" lon="12.3339263"><ele>279.5</ele><time>2026-04-19T11:01:17.865Z</time></trkpt><trkpt lat="43.1578737" lon="12.3340811"><ele>279.75</ele><time>2026-04-19T11:01:18.865Z</time></trkpt><trkpt lat="43.157811" lon="12.3342434"><ele>280.0</ele><time>2026-04-19T11:01:19.864Z</time></trkpt><trkpt lat="43.1577486" lon="12.3344097"><ele>280.0</ele><time>2026-04-19T11:01:20.866Z</time></trkpt><trkpt lat="43.1576943" lon="12.3345821"><ele>280.0</ele><time>2026-04-19T11:01:21.865Z</time></trkpt><trkpt lat="43.157649" lon="12.3347602"><ele>280.0</ele><time>2026-04-19T11:01:22.865Z</time></trkpt><trkpt lat="43.1576132" lon="12.334933"><ele>280.0</ele><time>2026-04-19T11:01:23.865Z</time></trkpt><trkpt lat="43.1575778" lon="12.3351044"><ele>280.0</ele><time>2026-04-19T11:01:24.866Z</time></trkpt><trkpt lat="43.1575316" lon="12.3352691"><ele>280.0</ele><time>2026-04-19T11:01:25.866Z</time></trkpt><trkpt lat="43.1574833" lon="12.3354381"><ele>280.0</ele><time>2026-04-19T11:01:26.865Z</time></trkpt><trkpt lat="43.1574256" lon="12.3356135"><ele>280.0</ele><time>2026-04-19T11:01:27.865Z</time></trkpt><trkpt lat="43.1573556" lon="12.335786"><ele>280.0</ele><time>2026-04-19T11:01:28.866Z</time></trkpt><trkpt lat="43.1572876" lon="12.3359439"><ele>280.0</ele><time>2026-04-19T11:01:29.866Z</time></trkpt><trkpt lat="43.1572114" lon="12.3360985"><ele>280.0</ele><time>2026-04-19T11:01:30.865Z</time></trkpt><trkpt lat="43.1571353" lon="12.3362508"><ele>280.0</ele><time>2026-04-19T11:01:31.865Z</time></trkpt><trkpt lat="43.1570563" lon="12.3364025"><ele>280.25</ele><time>2026-04-19T11:01:32.866Z</time></trkpt><trkpt lat="43.1569762" lon="12.3365584"><ele>280.5</ele><time>2026-04-19T11:01:33.866Z</time></trkpt><trkpt lat="43.1569" lon="12.336713"><ele>280.75</ele><time>2026-04-19T11:01:34.865Z</time></trkpt><trkpt lat="43.1568282" lon="12.3368836"><ele>281.0</ele><time>2026-04-19T11:01:35.864Z</time></trkpt><trkpt lat="43.156754" lon="12.3370611"><ele>281.6666666666667</ele><time>2026-04-19T11:01:36.865Z</time></trkpt><trkpt lat="43.1566828" lon="12.3372476"><ele>282.3333333333333</ele><time>2026-04-19T11:01:37.866Z</time></trkpt><trkpt lat="43.1566067" lon="12.3374328"><ele>283.0</ele><time>2026-04-19T11:01:38.865Z</time></trkpt><trkpt lat="43.1565297" lon="12.3376098"><ele>283.0</ele><time>2026-04-19T11:01:39.866Z</time></trkpt><trkpt lat="43.1564536" lon="12.3377871"><ele>283.0</ele><time>2026-04-19T11:01:40.865Z</time></trkpt><trkpt lat="43.1563694" lon="12.3379704"><ele>283.0</ele><time>2026-04-19T11:01:41.865Z</time></trkpt><trkpt lat="43.1562807" lon="12.3381604"><ele>283.0</ele><time>2026-04-19T11:01:42.865Z</time></trkpt><trkpt lat="43.1561935" lon="12.3383416"><ele>283.0</ele><time>2026-04-19T11:01:43.865Z</time></trkpt><trkpt lat="43.1561177" lon="12.3385015"><ele>283.0</ele><time>2026-04-19T11:01:44.865Z</time></trkpt><trkpt lat="43.1560393" lon="12.3386647"><ele>283.0</ele><time>2026-04-19T11:01:45.866Z</time></trkpt><trkpt lat="43.1559648" lon="12.3388203"><ele>283.25</ele><time>2026-04-19T11:01:46.865Z</time></trkpt><trkpt lat="43.155889" lon="12.3389802"><ele>283.5</ele><time>2026-04-19T11:01:47.866Z</time></trkpt><trkpt lat="43.1558164" lon="12.3391438"><ele>283.75</ele><time>2026-04-19T11:01:48.866Z</time></trkpt><trkpt lat="43.1557449" lon="12.3393064"><ele>284.0</ele><time>2026-04-19T11:01:49.865Z</time></trkpt><trkpt lat="43.1556707" lon="12.3394659"><ele>284.0</ele><time>2026-04-19T11:01:50.865Z</time></trkpt><trkpt lat="43.1555959" lon="12.3396234"><ele>284.0</ele><time>2026-04-19T11:01:51.865Z</time></trkpt><trkpt lat="43.1555175" lon="12.3397832"><ele>284.0</ele><time>2026-04-19T11:01:52.866Z</time></trkpt><trkpt lat="43.1554355" lon="12.3399469"><ele>284.0</ele><time>2026-04-19T11:01:53.866Z</time></trkpt><trkpt lat="43.1553515" lon="12.3401052"><ele>284.5</ele><time>2026-04-19T11:01:54.866Z</time></trkpt><trkpt lat="43.1552662" lon="12.3402664"><ele>285.0</ele><time>2026-04-19T11:01:55.866Z</time></trkpt><trkpt lat="43.1551716" lon="12.3404247"><ele>285.5</ele><time>2026-04-19T11:01:56.865Z</time></trkpt><trkpt lat="43.1550706" lon="12.3405774"><ele>286.0</ele><time>2026-04-19T11:01:57.866Z</time></trkpt><trkpt lat="43.1549664" lon="12.3407226"><ele>286.3333333333333</ele><time>2026-04-19T11:01:58.865Z</time></trkpt><trkpt lat="43.1548598" lon="12.3408704"><ele>286.6666666666667</ele><time>2026-04-19T11:01:59.866Z</time></trkpt><trkpt lat="43.1547517" lon="12.3410139"><ele>287.0</ele><time>2026-04-19T11:02:00.866Z</time></trkpt><trkpt lat="43.1546442" lon="12.3411549"><ele>287.0</ele><time>2026-04-19T11:02:01.866Z</time></trkpt><trkpt lat="43.1545391" lon="12.3412993"><ele>287.0</ele><time>2026-04-19T11:02:02.866Z</time></trkpt><trkpt lat="43.1544347" lon="12.3414522"><ele>287.0</ele><time>2026-04-19T11:02:03.866Z</time></trkpt><trkpt lat="43.1543356" lon="12.3416042"><ele>287.33333333333337</ele><time>2026-04-19T11:02:04.865Z</time></trkpt><trkpt lat="43.1542304" lon="12.3417607"><ele>287.6666666666667</ele><time>2026-04-19T11:02:05.866Z</time></trkpt><trkpt lat="43.1541184" lon="12.3419302"><ele>288.0</ele><time>2026-04-19T11:02:06.865Z</time></trkpt><trkpt lat="43.1539894" lon="12.3421194"><ele>288.3333333333333</ele><time>2026-04-19T11:02:07.865Z</time></trkpt><trkpt lat="43.1538557" lon="12.3423164"><ele>288.66666666666663</ele><time>2026-04-19T11:02:08.866Z</time></trkpt><trkpt lat="43.1537176" lon="12.3425147"><ele>289.0</ele><time>2026-04-19T11:02:09.866Z</time></trkpt><trkpt lat="43.1535738" lon="12.3427205"><ele>289.0</ele><time>2026-04-19T11:02:10.866Z</time></trkpt><trkpt lat="43.1534303" lon="12.342931"><ele>289.0</ele><time>2026-04-19T11:02:11.865Z</time></trkpt><trkpt lat="43.1532928" lon="12.3431254"><ele>289.0</ele><time>2026-04-19T11:02:12.866Z</time></trkpt><trkpt lat="43.1531592" lon="12.3433095"><ele>289.3333333333333</ele><time>2026-04-19T11:02:13.865Z</time></trkpt><trkpt lat="43.1530282" lon="12.3434953"><ele>289.6666666666667</ele><time>2026-04-19T11:02:14.864Z</time></trkpt><trkpt lat="43.1529052" lon="12.3436738"><ele>290.0</ele><time>2026-04-19T11:02:15.865Z</time></trkpt><trkpt lat="43.1528013" lon="12.3438371"><ele>290.6666666666667</ele><time>2026-04-19T11:02:16.865Z</time></trkpt><trkpt lat="43.1527103" lon="12.3440103"><ele>291.3333333333333</ele><time>2026-04-19T11:02:17.865Z</time></trkpt><trkpt lat="43.152645" lon="12.3442149"><ele>292.0</ele><time>2026-04-19T11:02:18.866Z</time></trkpt><trkpt lat="43.1525904" lon="12.3444528"><ele>292.0</ele><time>2026-04-19T11:02:19.865Z</time></trkpt><trkpt lat="43.1525386" lon="12.3447237"><ele>292.0</ele><time>2026-04-19T11:02:20.866Z</time></trkpt><trkpt lat="43.1524868" lon="12.344995"><ele>292.0</ele><time>2026-04-19T11:02:21.865Z</time></trkpt><trkpt lat="43.1524289" lon="12.3452523"><ele>291.66666666666663</ele><time>2026-04-19T11:02:22.864Z</time></trkpt><trkpt lat="43.152359" lon="12.3454895"><ele>291.3333333333333</ele><time>2026-04-19T11:02:23.864Z</time></trkpt><trkpt lat="43.1522795" lon="12.3457134"><ele>291.0</ele><time>2026-04-19T11:02:24.866Z</time></trkpt><trkpt lat="43.1521872" lon="12.3459329"><ele>291.0</ele><time>2026-04-19T11:02:25.864Z</time></trkpt><trkpt lat="43.152086" lon="12.3461371"><ele>291.0</ele><time>2026-04-19T11:02:26.865Z</time></trkpt><trkpt lat="43.1519019" lon="12.3463519"><ele>291.0</ele><time>2026-04-19T11:02:27.865Z</time></trkpt><trkpt lat="43.1517434" lon="12.3465556"><ele>291.0</ele><time>2026-04-19T11:02:28.866Z</time></trkpt><trkpt lat="43.1515706" lon="12.3467412"><ele>291.0</ele><time>2026-04-19T11:02:29.864Z</time></trkpt><trkpt lat="43.1513852" lon="12.346913"><ele>291.0</ele><time>2026-04-19T11:02:30.865Z</time></trkpt><trkpt lat="43.1511838" lon="12.3470781"><ele>292.5</ele><time>2026-04-19T11:02:31.866Z</time></trkpt><trkpt lat="43.1509759" lon="12.3472163"><ele>294.0</ele><time>2026-04-19T11:02:32.865Z</time></trkpt><trkpt lat="43.1507701" lon="12.3473344"><ele>295.3333333333333</ele><time>2026-04-19T11:02:33.865Z</time></trkpt><trkpt lat="43.1505713" lon="12.3474518"><ele>296.66666666666663</ele><time>2026-04-19T11:02:34.864Z</time></trkpt><trkpt lat="43.1503897" lon="12.3475777"><ele>298.0</ele><time>2026-04-19T11:02:35.866Z</time></trkpt><trkpt lat="43.1502189" lon="12.3477158"><ele>298.0</ele><time>2026-04-19T11:02:36.865Z</time></trkpt><trkpt lat="43.1500626" lon="12.3478503"><ele>298.0</ele><time>2026-04-19T11:02:37.865Z</time></trkpt><trkpt lat="43.1499236" lon="12.3479903"><ele>298.0</ele><time>2026-04-19T11:02:38.866Z</time></trkpt><trkpt lat="43.1497943" lon="12.348157"><ele>298.3333333333333</ele><time>2026-04-19T11:02:39.864Z</time></trkpt><trkpt lat="43.1496759" lon="12.3483504"><ele>298.6666666666667</ele><time>2026-04-19T11:02:40.866Z</time></trkpt><trkpt lat="43.1495628" lon="12.3485614"><ele>299.0</ele><time>2026-04-19T11:02:41.865Z</time></trkpt><trkpt lat="43.1494459" lon="12.3487784"><ele>299.6666666666667</ele><time>2026-04-19T11:02:42.864Z</time></trkpt><trkpt lat="43.1493194" lon="12.3490026"><ele>300.3333333333333</ele><time>2026-04-19T11:02:43.866Z</time></trkpt><trkpt lat="43.1491862" lon="12.349232"><ele>301.0</ele><time>2026-04-19T11:02:44.865Z</time></trkpt><trkpt lat="43.149043" lon="12.3494484"><ele>300.66666666666663</ele><time>2026-04-19T11:02:45.866Z</time></trkpt><trkpt lat="43.1488859" lon="12.3496639"><ele>300.3333333333333</ele><time>2026-04-19T11:02:46.866Z</time></trkpt><trkpt lat="43.1487211" lon="12.3498625"><ele>300.0</ele><time>2026-04-19T11:02:47.865Z</time></trkpt><trkpt lat="43.1485571" lon="12.3500478"><ele>299.6666666666667</ele><time>2026-04-19T11:02:48.866Z</time></trkpt><trkpt lat="43.1483885" lon="12.350219"><ele>299.33333333333337</ele><time>2026-04-19T11:02:49.864Z</time></trkpt><trkpt lat="43.1482061" lon="12.3503707"><ele>299.0</ele><time>2026-04-19T11:02:50.865Z</time></trkpt><trkpt lat="43.1480282" lon="12.3504965"><ele>300.6666666666667</ele><time>2026-04-19T11:02:51.866Z</time></trkpt><trkpt lat="43.1478422" lon="12.3506022"><ele>302.3333333333333</ele><time>2026-04-19T11:02:52.865Z</time></trkpt><trkpt lat="43.1476496" lon="12.3506916"><ele>304.0</ele><time>2026-04-19T11:02:53.866Z</time></trkpt><trkpt lat="43.1474494" lon="12.350764"><ele>304.0</ele><time>2026-04-19T11:02:54.866Z</time></trkpt><trkpt lat="43.147246" lon="12.3508204"><ele>304.0</ele><time>2026-04-19T11:02:55.866Z</time></trkpt><trkpt lat="43.147034" lon="12.3508567"><ele>304.0</ele><time>2026-04-19T11:02:56.865Z</time></trkpt><trkpt lat="43.146833" lon="12.3508742"><ele>304.0</ele><time>2026-04-19T11:02:57.865Z</time></trkpt><trkpt lat="43.1466421" lon="12.3508934"><ele>304.0</ele><time>2026-04-19T11:02:58.865Z</time></trkpt><trkpt lat="43.1464644" lon="12.350917"><ele>304.0</ele><time>2026-04-19T11:02:59.865Z</time></trkpt><trkpt lat="43.1462967" lon="12.3509576"><ele>304.66666666666663</ele><time>2026-04-19T11:03:00.865Z</time></trkpt><trkpt lat="43.1461363" lon="12.3510348"><ele>305.3333333333333</ele><time>2026-04-19T11:03:01.865Z</time></trkpt><trkpt lat="43.1459795" lon="12.3511482"><ele>306.0</ele><time>2026-04-19T11:03:02.864Z</time></trkpt><trkpt lat="43.1458233" lon="12.3512904"><ele>307.3333333333333</ele><time>2026-04-19T11:03:03.865Z</time></trkpt><trkpt lat="43.1456703" lon="12.3514599"><ele>308.66666666666663</ele><time>2026-04-19T11:03:04.865Z</time></trkpt><trkpt lat="43.1455166" lon="12.3516428"><ele>310.0</ele><time>2026-04-19T11:03:05.863Z</time></trkpt><trkpt lat="43.145374" lon="12.3518203"><ele>310.0</ele><time>2026-04-19T11:03:06.863Z</time></trkpt><trkpt lat="43.1452186" lon="12.3520135"><ele>310.0</ele><time>2026-04-19T11:03:07.863Z</time></trkpt><trkpt lat="43.1450623" lon="12.3522105"><ele>310.0</ele><time>2026-04-19T11:03:08.865Z</time></trkpt><trkpt lat="43.1449024" lon="12.3524147"><ele>311.0</ele><time>2026-04-19T11:03:09.864Z</time></trkpt><trkpt lat="43.1447569" lon="12.3526022"><ele>312.0</ele><time>2026-04-19T11:03:10.865Z</time></trkpt><trkpt lat="43.1446195" lon="12.3527829"><ele>313.0</ele><time>2026-04-19T11:03:11.864Z</time></trkpt><trkpt lat="43.1444921" lon="12.3529525"><ele>313.66666666666663</ele><time>2026-04-19T11:03:12.864Z</time></trkpt><trkpt lat="43.1443763" lon="12.353117"><ele>314.3333333333333</ele><time>2026-04-19T11:03:13.864Z</time></trkpt><trkpt lat="43.1442737" lon="12.3532756"><ele>315.0</ele><time>2026-04-19T11:03:14.863Z</time></trkpt><trkpt lat="43.1441807" lon="12.3534513"><ele>315.0</ele><time>2026-04-19T11:03:15.865Z</time></trkpt><trkpt lat="43.1441032" lon="12.3536368"><ele>315.0</ele><time>2026-04-19T11:03:16.864Z</time></trkpt><trkpt lat="43.1440841" lon="12.353835"><ele>315.0</ele><time>2026-04-19T11:03:17.865Z</time></trkpt><trkpt lat="43.1440582" lon="12.354043"><ele>316.3333333333333</ele><time>2026-04-19T11:03:18.864Z</time></trkpt><trkpt lat="43.1441075" lon="12.3542678"><ele>317.66666666666663</ele><time>2026-04-19T11:03:19.865Z</time></trkpt><trkpt lat="43.1441646" lon="12.3544982"><ele>319.0</ele><time>2026-04-19T11:03:20.864Z</time></trkpt><trkpt lat="43.144226" lon="12.354724"><ele>321.66666666666663</ele><time>2026-04-19T11:03:21.864Z</time></trkpt><trkpt lat="43.1442652" lon="12.3549336"><ele>324.3333333333333</ele><time>2026-04-19T11:03:22.865Z</time></trkpt><trkpt lat="43.1442886" lon="12.3551361"><ele>327.0</ele><time>2026-04-19T11:03:23.864Z</time></trkpt><trkpt lat="43.1442885" lon="12.3553358"><ele>327.0</ele><time>2026-04-19T11:03:24.864Z</time></trkpt><trkpt lat="43.1442593" lon="12.3555314"><ele>327.0</ele><time>2026-04-19T11:03:25.863Z</time></trkpt><trkpt lat="43.1442085" lon="12.3556984"><ele>327.0</ele><time>2026-04-19T11:03:26.863Z</time></trkpt><trkpt lat="43.1441323" lon="12.3558483"><ele>327.0</ele><time>2026-04-19T11:03:27.864Z</time></trkpt><trkpt lat="43.1440228" lon="12.3559857"><ele>327.5</ele><time>2026-04-19T11:03:28.864Z</time></trkpt><trkpt lat="43.1438904" lon="12.3561017"><ele>328.0</ele><time>2026-04-19T11:03:29.864Z</time></trkpt><trkpt lat="43.1437499" lon="12.356181"><ele>328.5</ele><time>2026-04-19T11:03:30.865Z</time></trkpt><trkpt lat="43.1436168" lon="12.3562319"><ele>329.0</ele><time>2026-04-19T11:03:31.865Z</time></trkpt><trkpt lat="43.1434788" lon="12.3562537"><ele>329.0</ele><time>2026-04-19T11:03:32.864Z</time></trkpt><trkpt lat="43.1433344" lon="12.3562318"><ele>329.0</ele><time>2026-04-19T11:03:33.864Z</time></trkpt><trkpt lat="43.1432021" lon="12.3561512"><ele>329.0</ele><time>2026-04-19T11:03:34.864Z</time></trkpt><trkpt lat="43.143057" lon="12.3560616"><ele>329.0</ele><time>2026-04-19T11:03:35.865Z</time></trkpt><trkpt lat="43.1429444" lon="12.3558659"><ele>333.0</ele><time>2026-04-19T11:03:36.864Z</time></trkpt><trkpt lat="43.1428231" lon="12.3556658"><ele>337.0</ele><time>2026-04-19T11:03:37.864Z</time></trkpt><trkpt lat="43.1426966" lon="12.3554756"><ele>341.0</ele><time>2026-04-19T11:03:38.865Z</time></trkpt><trkpt lat="43.1425738" lon="12.3552559"><ele>341.0</ele><time>2026-04-19T11:03:39.865Z</time></trkpt><trkpt lat="43.1424518" lon="12.3550595"><ele>341.0</ele><time>2026-04-19T11:03:40.864Z</time></trkpt><trkpt lat="43.1423388" lon="12.3548717"><ele>341.0</ele><time>2026-04-19T11:03:41.865Z</time></trkpt><trkpt lat="43.1422212" lon="12.3547127"><ele>340.6666666666667</ele><time>2026-04-19T11:03:42.864Z</time></trkpt><trkpt lat="43.1420943" lon="12.3545893"><ele>340.3333333333333</ele><time>2026-04-19T11:03:43.865Z</time></trkpt><trkpt lat="43.1419577" lon="12.3544939"><ele>340.0</ele><time>2026-04-19T11:03:44.865Z</time></trkpt><trkpt lat="43.1417899" lon="12.354456"><ele>340.0</ele><time>2026-04-19T11:03:45.865Z</time></trkpt><trkpt lat="43.1416164" lon="12.3544438"><ele>340.0</ele><time>2026-04-19T11:03:46.864Z</time></trkpt><trkpt lat="43.1414322" lon="12.3544583"><ele>340.0</ele><time>2026-04-19T11:03:47.864Z</time></trkpt><trkpt lat="43.1412463" lon="12.3544983"><ele>340.3333333333333</ele><time>2026-04-19T11:03:48.865Z</time></trkpt><trkpt lat="43.1410597" lon="12.3545698"><ele>340.6666666666667</ele><time>2026-04-19T11:03:49.864Z</time></trkpt><trkpt lat="43.1408724" lon="12.354664"><ele>341.0</ele><time>2026-04-19T11:03:50.864Z</time></trkpt><trkpt lat="43.1407084" lon="12.3547919"><ele>344.33333333333337</ele><time>2026-04-19T11:03:51.864Z</time></trkpt><trkpt lat="43.1405688" lon="12.3549269"><ele>347.6666666666667</ele><time>2026-04-19T11:03:52.863Z</time></trkpt><trkpt lat="43.1404427" lon="12.3550827"><ele>351.0</ele><time>2026-04-19T11:03:53.865Z</time></trkpt><trkpt lat="43.140323" lon="12.3552543"><ele>351.0</ele><time>2026-04-19T11:03:54.865Z</time></trkpt><trkpt lat="43.1402322" lon="12.3555029"><ele>351.0</ele><time>2026-04-19T11:03:55.865Z</time></trkpt><trkpt lat="43.1401497" lon="12.3557222"><ele>351.0</ele><time>2026-04-19T11:03:56.865Z</time></trkpt><trkpt lat="43.1400643" lon="12.3559212"><ele>352.5</ele><time>2026-04-19T11:03:57.863Z</time></trkpt><trkpt lat="43.1399696" lon="12.356094"><ele>354.0</ele><time>2026-04-19T11:03:58.863Z</time></trkpt><trkpt lat="43.1398618" lon="12.3562337"><ele>355.5</ele><time>2026-04-19T11:03:59.865Z</time></trkpt><trkpt lat="43.1397397" lon="12.356336"><ele>357.0</ele><time>2026-04-19T11:04:00.864Z</time></trkpt><trkpt lat="43.1395966" lon="12.3563947"><ele>357.25</ele><time>2026-04-19T11:04:01.865Z</time></trkpt><trkpt lat="43.1394488" lon="12.3564058"><ele>357.5</ele><time>2026-04-19T11:04:02.865Z</time></trkpt><trkpt lat="43.139312" lon="12.356377"><ele>357.75</ele><time>2026-04-19T11:04:03.864Z</time></trkpt><trkpt lat="43.1391766" lon="12.3563232"><ele>358.0</ele><time>2026-04-19T11:04:04.863Z</time></trkpt><trkpt lat="43.1390381" lon="12.3562476"><ele>359.0</ele><time>2026-04-19T11:04:05.864Z</time></trkpt><trkpt lat="43.1389043" lon="12.3561704"><ele>360.0</ele><time>2026-04-19T11:04:06.865Z</time></trkpt><trkpt lat="43.1387773" lon="12.3561188"><ele>361.0</ele><time>2026-04-19T11:04:07.864Z</time></trkpt><trkpt lat="43.1386562" lon="12.3560942"><ele>362.0</ele><time>2026-04-19T11:04:08.864Z</time></trkpt><trkpt lat="43.1385362" lon="12.3561051"><ele>362.0</ele><time>2026-04-19T11:04:09.864Z</time></trkpt><trkpt lat="43.1384088" lon="12.3561528"><ele>362.0</ele><time>2026-04-19T11:04:10.865Z</time></trkpt><trkpt lat="43.1382836" lon="12.3562321"><ele>362.0</ele><time>2026-04-19T11:04:11.864Z</time></trkpt><trkpt lat="43.1381503" lon="12.3563541"><ele>362.0</ele><time>2026-04-19T11:04:12.865Z</time></trkpt><trkpt lat="43.1380291" lon="12.3564818"><ele>366.0</ele><time>2026-04-19T11:04:13.863Z</time></trkpt><trkpt lat="43.1379117" lon="12.3565908"><ele>370.0</ele><time>2026-04-19T11:04:14.865Z</time></trkpt><trkpt lat="43.1377826" lon="12.3566736"><ele>374.0</ele><time>2026-04-19T11:04:15.865Z</time></trkpt><trkpt lat="43.1376497" lon="12.356705"><ele>378.0</ele><time>2026-04-19T11:04:16.865Z</time></trkpt><trkpt lat="43.1375094" lon="12.356691"><ele>383.75</ele><time>2026-04-19T11:04:17.864Z</time></trkpt><trkpt lat="43.1373785" lon="12.3566382"><ele>389.5</ele><time>2026-04-19T11:04:18.865Z</time></trkpt><trkpt lat="43.1372565" lon="12.3565397"><ele>395.25</ele><time>2026-04-19T11:04:19.865Z</time></trkpt><trkpt lat="43.1371529" lon="12.3563992"><ele>401.0</ele><time>2026-04-19T11:04:20.864Z</time></trkpt><trkpt lat="43.1370783" lon="12.3562232"><ele>401.25</ele><time>2026-04-19T11:04:21.863Z</time></trkpt><trkpt lat="43.1370387" lon="12.3560399"><ele>401.5</ele><time>2026-04-19T11:04:22.864Z</time></trkpt><trkpt lat="43.1370377" lon="12.3558472"><ele>401.75</ele><time>2026-04-19T11:04:23.864Z</time></trkpt><trkpt lat="43.1370678" lon="12.3556433"><ele>402.0</ele><time>2026-04-19T11:04:24.864Z</time></trkpt><trkpt lat="43.1371138" lon="12.3554302"><ele>399.0</ele><time>2026-04-19T11:04:25.864Z</time></trkpt><trkpt lat="43.1371571" lon="12.3552118"><ele>396.0</ele><time>2026-04-19T11:04:26.864Z</time></trkpt><trkpt lat="43.1371613" lon="12.3549996"><ele>393.0</ele><time>2026-04-19T11:04:27.864Z</time></trkpt><trkpt lat="43.1371777" lon="12.3547912"><ele>390.75</ele><time>2026-04-19T11:04:28.864Z</time></trkpt><trkpt lat="43.1371619" lon="12.3546068"><ele>388.5</ele><time>2026-04-19T11:04:29.865Z</time></trkpt><trkpt lat="43.1370453" lon="12.3544905"><ele>386.25</ele><time>2026-04-19T11:04:30.864Z</time></trkpt><trkpt lat="43.1369615" lon="12.3543257"><ele>384.0</ele><time>2026-04-19T11:04:31.864Z</time></trkpt><trkpt lat="43.1368627" lon="12.3541695"><ele>384.0</ele><time>2026-04-19T11:04:32.863Z</time></trkpt><trkpt lat="43.1367382" lon="12.3540126"><ele>384.0</ele><time>2026-04-19T11:04:33.864Z</time></trkpt><trkpt lat="43.1365866" lon="12.3538615"><ele>384.0</ele><time>2026-04-19T11:04:34.865Z</time></trkpt><trkpt lat="43.1363947" lon="12.3537891"><ele>386.66666666666663</ele><time>2026-04-19T11:04:35.865Z</time></trkpt><trkpt lat="43.1362355" lon="12.3536685"><ele>389.3333333333333</ele><time>2026-04-19T11:04:36.864Z</time></trkpt><trkpt lat="43.1360833" lon="12.3535543"><ele>392.0</ele><time>2026-04-19T11:04:37.863Z</time></trkpt><trkpt lat="43.1359301" lon="12.3534267"><ele>392.0</ele><time>2026-04-19T11:04:38.864Z</time></trkpt><trkpt lat="43.1357696" lon="12.3532892"><ele>392.0</ele><time>2026-04-19T11:04:39.864Z</time></trkpt><trkpt lat="43.1356095" lon="12.3531485"><ele>392.0</ele><time>2026-04-19T11:04:40.865Z</time></trkpt><trkpt lat="43.1354508" lon="12.3530031"><ele>392.66666666666663</ele><time>2026-04-19T11:04:41.865Z</time></trkpt><trkpt lat="43.1352903" lon="12.3528588"><ele>393.33333333333337</ele><time>2026-04-19T11:04:42.865Z</time></trkpt><trkpt lat="43.1351345" lon="12.3527332"><ele>394.0</ele><time>2026-04-19T11:04:43.864Z</time></trkpt><trkpt lat="43.134978" lon="12.3526293"><ele>395.33333333333337</ele><time>2026-04-19T11:04:44.864Z</time></trkpt><trkpt lat="43.1348128" lon="12.3525336"><ele>396.66666666666663</ele><time>2026-04-19T11:04:45.864Z</time></trkpt><trkpt lat="43.1346237" lon="12.3524737"><ele>398.0</ele><time>2026-04-19T11:04:46.865Z</time></trkpt><trkpt lat="43.1344375" lon="12.35241"><ele>398.0</ele><time>2026-04-19T11:04:47.864Z</time></trkpt><trkpt lat="43.1342671" lon="12.3523484"><ele>398.0</ele><time>2026-04-19T11:04:48.865Z</time></trkpt><trkpt lat="43.1341058" lon="12.3522912"><ele>398.0</ele><time>2026-04-19T11:04:49.863Z</time></trkpt><trkpt lat="43.1339552" lon="12.3522427"><ele>398.0</ele><time>2026-04-19T11:04:50.863Z</time></trkpt><trkpt lat="43.1338102" lon="12.3522783"><ele>398.0</ele><time>2026-04-19T11:04:51.863Z</time></trkpt><trkpt lat="43.1336726" lon="12.3522739"><ele>398.0</ele><time>2026-04-19T11:04:52.862Z</time></trkpt><trkpt lat="43.1335547" lon="12.3523416"><ele>398.0</ele><time>2026-04-19T11:04:53.862Z</time></trkpt><trkpt lat="43.1334169" lon="12.3524065"><ele>398.0</ele><time>2026-04-19T11:04:54.864Z</time></trkpt><trkpt lat="43.1332682" lon="12.3525366"><ele>398.0</ele><time>2026-04-19T11:04:55.864Z</time></trkpt><trkpt lat="43.1331172" lon="12.3526585"><ele>398.0</ele><time>2026-04-19T11:04:56.864Z</time></trkpt><trkpt lat="43.1329588" lon="12.3527869"><ele>395.0</ele><time>2026-04-19T11:04:57.863Z</time></trkpt><trkpt lat="43.1328151" lon="12.3529203"><ele>392.0</ele><time>2026-04-19T11:04:58.864Z</time></trkpt><trkpt lat="43.1326647" lon="12.3530831"><ele>389.0</ele><time>2026-04-19T11:04:59.863Z</time></trkpt><trkpt lat="43.1325292" lon="12.3532612"><ele>389.0</ele><time>2026-04-19T11:05:00.863Z</time></trkpt><trkpt lat="43.1324105" lon="12.3534728"><ele>389.0</ele><time>2026-04-19T11:05:01.864Z</time></trkpt><trkpt lat="43.1323044" lon="12.3537"><ele>389.0</ele><time>2026-04-19T11:05:02.863Z</time></trkpt><trkpt lat="43.1322216" lon="12.3539094"><ele>388.0</ele><time>2026-04-19T11:05:03.864Z</time></trkpt><trkpt lat="43.1321517" lon="12.3541108"><ele>387.0</ele><time>2026-04-19T11:05:04.864Z</time></trkpt><trkpt lat="43.1320767" lon="12.3543032"><ele>386.0</ele><time>2026-04-19T11:05:05.862Z</time></trkpt><trkpt lat="43.1319961" lon="12.3544666"><ele>386.0</ele><time>2026-04-19T11:05:06.864Z</time></trkpt><trkpt lat="43.1318996" lon="12.3545979"><ele>386.0</ele><time>2026-04-19T11:05:07.864Z</time></trkpt><trkpt lat="43.1317846" lon="12.3546863"><ele>386.0</ele><time>2026-04-19T11:05:08.863Z</time></trkpt><trkpt lat="43.1316469" lon="12.3547273"><ele>386.0</ele><time>2026-04-19T11:05:09.862Z</time></trkpt><trkpt lat="43.1315037" lon="12.3547062"><ele>387.0</ele><time>2026-04-19T11:05:10.864Z</time></trkpt><trkpt lat="43.1313563" lon="12.3546346"><ele>388.0</ele><time>2026-04-19T11:05:11.864Z</time></trkpt><trkpt lat="43.1311937" lon="12.3545602"><ele>389.0</ele><time>2026-04-19T11:05:12.864Z</time></trkpt><trkpt lat="43.1310284" lon="12.3545105"><ele>389.0</ele><time>2026-04-19T11:05:13.863Z</time></trkpt><trkpt lat="43.1308745" lon="12.3544941"><ele>389.0</ele><time>2026-04-19T11:05:14.863Z</time></trkpt><trkpt lat="43.130736" lon="12.3545183"><ele>389.0</ele><time>2026-04-19T11:05:15.864Z</time></trkpt><trkpt lat="43.1306127" lon="12.3545884"><ele>389.0</ele><time>2026-04-19T11:05:16.864Z</time></trkpt><trkpt lat="43.1304942" lon="12.3546952"><ele>390.0</ele><time>2026-04-19T11:05:17.864Z</time></trkpt><trkpt lat="43.1303915" lon="12.3548354"><ele>391.0</ele><time>2026-04-19T11:05:18.864Z</time></trkpt><trkpt lat="43.1302823" lon="12.3549958"><ele>392.0</ele><time>2026-04-19T11:05:19.863Z</time></trkpt><trkpt lat="43.1301828" lon="12.3552"><ele>392.0</ele><time>2026-04-19T11:05:20.864Z</time></trkpt><trkpt lat="43.1301483" lon="12.3554616"><ele>392.0</ele><time>2026-04-19T11:05:21.863Z</time></trkpt><trkpt lat="43.1301317" lon="12.3557325"><ele>392.0</ele><time>2026-04-19T11:05:22.864Z</time></trkpt><trkpt lat="43.1300963" lon="12.3560161"><ele>393.3333333333333</ele><time>2026-04-19T11:05:23.864Z</time></trkpt><trkpt lat="43.1300865" lon="12.3562925"><ele>394.66666666666663</ele><time>2026-04-19T11:05:24.863Z</time></trkpt><trkpt lat="43.1300721" lon="12.3565844"><ele>396.0</ele><time>2026-04-19T11:05:25.863Z</time></trkpt><trkpt lat="43.1300497" lon="12.356867"><ele>396.33333333333337</ele><time>2026-04-19T11:05:26.863Z</time></trkpt><trkpt lat="43.1300304" lon="12.3571408"><ele>396.6666666666667</ele><time>2026-04-19T11:05:27.864Z</time></trkpt><trkpt lat="43.1300152" lon="12.3574094"><ele>397.0</ele><time>2026-04-19T11:05:28.863Z</time></trkpt><trkpt lat="43.130003" lon="12.3576767"><ele>397.0</ele><time>2026-04-19T11:05:29.863Z</time></trkpt><trkpt lat="43.1299893" lon="12.3579501"><ele>397.0</ele><time>2026-04-19T11:05:30.862Z</time></trkpt><trkpt lat="43.1299695" lon="12.3582364"><ele>397.0</ele><time>2026-04-19T11:05:31.864Z</time></trkpt><trkpt lat="43.1299527" lon="12.3585001"><ele>397.0</ele><time>2026-04-19T11:05:32.864Z</time></trkpt><trkpt lat="43.1299379" lon="12.3587484"><ele>397.0</ele><time>2026-04-19T11:05:33.863Z</time></trkpt><trkpt lat="43.1299272" lon="12.3589841"><ele>397.0</ele><time>2026-04-19T11:05:34.863Z</time></trkpt><trkpt lat="43.1299256" lon="12.3592042"><ele>398.0</ele><time>2026-04-19T11:05:35.864Z</time></trkpt><trkpt lat="43.129945" lon="12.359409"><ele>399.0</ele><time>2026-04-19T11:05:36.864Z</time></trkpt><trkpt lat="43.129993" lon="12.3596136"><ele>400.0</ele><time>2026-04-19T11:05:37.863Z</time></trkpt><trkpt lat="43.1300664" lon="12.3597961"><ele>400.0</ele><time>2026-04-19T11:05:38.863Z</time></trkpt><trkpt lat="43.1301547" lon="12.3599513"><ele>400.0</ele><time>2026-04-19T11:05:39.862Z</time></trkpt><trkpt lat="43.1302341" lon="12.3600812"><ele>400.0</ele><time>2026-04-19T11:05:40.863Z</time></trkpt><trkpt lat="43.1302926" lon="12.3601886"><ele>400.0</ele><time>2026-04-19T11:05:41.864Z</time></trkpt><trkpt lat="43.1303339" lon="12.3602849"><ele>400.0</ele><time>2026-04-19T11:05:42.862Z</time></trkpt><trkpt lat="43.1303683" lon="12.3603779"><ele>399.00000000000006</ele><time>2026-04-19T11:05:43.863Z</time></trkpt><trkpt lat="43.130379" lon="12.3605363"><ele>398.0</ele><time>2026-04-19T11:05:45.863Z</time></trkpt><trkpt lat="43.1303757" lon="12.3606874"><ele>397.0</ele><time>2026-04-19T11:05:47.863Z</time></trkpt><trkpt lat="43.1303698" lon="12.3607784"><ele>396.0</ele><time>2026-04-19T11:05:48.863Z</time></trkpt><trkpt lat="43.1303617" lon="12.3608847"><ele>395.00000000000006</ele><time>2026-04-19T11:05:49.864Z</time></trkpt><trkpt lat="43.1303552" lon="12.3609891"><ele>394.0</ele><time>2026-04-19T11:05:50.863Z</time></trkpt><trkpt lat="43.1303549" lon="12.3610898"><ele>394.0</ele><time>2026-04-19T11:05:51.864Z</time></trkpt><trkpt lat="43.1303463" lon="12.3611894"><ele>394.0</ele><time>2026-04-19T11:05:52.863Z</time></trkpt><trkpt lat="43.1303382" lon="12.3612865"><ele>394.0</ele><time>2026-04-19T11:05:53.863Z</time></trkpt><trkpt lat="43.1303311" lon="12.3614007"><ele>394.0</ele><time>2026-04-19T11:05:54.864Z</time></trkpt><trkpt lat="43.1303251" lon="12.3615103"><ele>394.0</ele><time>2026-04-19T11:05:55.863Z</time></trkpt><trkpt lat="43.1303178" lon="12.3616065"><ele>394.0</ele><time>2026-04-19T11:05:56.862Z</time></trkpt><trkpt lat="43.1303088" lon="12.3616947"><ele>394.0</ele><time>2026-04-19T11:05:57.864Z</time></trkpt><trkpt lat="43.1302905" lon="12.3618311"><ele>393.4</ele><time>2026-04-19T11:05:59.863Z</time></trkpt><trkpt lat="43.1302866" lon="12.3619404"><ele>392.79999999999995</ele><time>2026-04-19T11:06:01.863Z</time></trkpt><trkpt lat="43.1303754" lon="12.3620895"><ele>392.20000000000005</ele><time>2026-04-19T11:06:45.862Z</time></trkpt><trkpt lat="43.130454" lon="12.3621425"><ele>391.6</ele><time>2026-04-19T11:06:46.862Z</time></trkpt><trkpt lat="43.1305358" lon="12.3622323"><ele>391.0</ele><time>2026-04-19T11:06:48.862Z</time></trkpt><trkpt lat="43.1305705" lon="12.3623604"><ele>391.0</ele><time>2026-04-19T11:06:50.862Z</time></trkpt><trkpt lat="43.130568" lon="12.362525"><ele>391.0</ele><time>2026-04-19T11:06:52.861Z</time></trkpt><trkpt lat="43.1305777" lon="12.3626107"><ele>391.0</ele><time>2026-04-19T11:06:53.863Z</time></trkpt><trkpt lat="43.1306642" lon="12.3627099"><ele>391.0</ele><time>2026-04-19T11:06:55.863Z</time></trkpt><trkpt lat="43.1307736" lon="12.3626855"><ele>391.0</ele><time>2026-04-19T11:06:57.863Z</time></trkpt><trkpt lat="43.1308972" lon="12.3626166"><ele>392.1428571428571</ele><time>2026-04-19T11:06:59.862Z</time></trkpt><trkpt lat="43.13097" lon="12.3625892"><ele>393.2857142857143</ele><time>2026-04-19T11:07:00.863Z</time></trkpt><trkpt lat="43.131041" lon="12.3625738"><ele>394.42857142857144</ele><time>2026-04-19T11:07:01.862Z</time></trkpt><trkpt lat="43.1311061" lon="12.3625597"><ele>395.57142857142856</ele><time>2026-04-19T11:07:02.863Z</time></trkpt><trkpt lat="43.1311689" lon="12.362539"><ele>396.7142857142857</ele><time>2026-04-19T11:07:03.863Z</time></trkpt><trkpt lat="43.1312346" lon="12.3625099"><ele>397.85714285714283</ele><time>2026-04-19T11:07:04.862Z</time></trkpt><trkpt lat="43.1313024" lon="12.3624744"><ele>399.0</ele><time>2026-04-19T11:07:05.861Z</time></trkpt><trkpt lat="43.1313742" lon="12.3624385"><ele>399.0</ele><time>2026-04-19T11:07:06.862Z</time></trkpt><trkpt lat="43.1314462" lon="12.3624043"><ele>399.0</ele><time>2026-04-19T11:07:07.862Z</time></trkpt><trkpt lat="43.1315178" lon="12.3623638"><ele>399.0</ele><time>2026-04-19T11:07:08.862Z</time></trkpt><trkpt lat="43.1315883" lon="12.3623138"><ele>399.0</ele><time>2026-04-19T11:07:09.862Z</time></trkpt><trkpt lat="43.1316581" lon="12.3622636"><ele>399.0</ele><time>2026-04-19T11:07:10.863Z</time></trkpt><trkpt lat="43.1317229" lon="12.3622117"><ele>399.0</ele><time>2026-04-19T11:07:11.863Z</time></trkpt><trkpt lat="43.1317868" lon="12.3621541"><ele>400.1666666666667</ele><time>2026-04-19T11:07:12.862Z</time></trkpt><trkpt lat="43.1318469" lon="12.3620788"><ele>401.33333333333337</ele><time>2026-04-19T11:07:13.862Z</time></trkpt><trkpt lat="43.1319013" lon="12.3619983"><ele>402.5</ele><time>2026-04-19T11:07:14.862Z</time></trkpt><trkpt lat="43.1319562" lon="12.3619117"><ele>403.6666666666667</ele><time>2026-04-19T11:07:15.862Z</time></trkpt><trkpt lat="43.1320072" lon="12.3618296"><ele>404.83333333333337</ele><time>2026-04-19T11:07:16.862Z</time></trkpt><trkpt lat="43.1320576" lon="12.3617501"><ele>406.0</ele><time>2026-04-19T11:07:17.863Z</time></trkpt><trkpt lat="43.1321076" lon="12.3616747"><ele>406.00000000000006</ele><time>2026-04-19T11:07:18.863Z</time></trkpt><trkpt lat="43.1321542" lon="12.3616008"><ele>406.0</ele><time>2026-04-19T11:07:19.863Z</time></trkpt><trkpt lat="43.1322023" lon="12.3615353"><ele>406.0</ele><time>2026-04-19T11:07:20.862Z</time></trkpt><trkpt lat="43.1322456" lon="12.3614649"><ele>406.0</ele><time>2026-04-19T11:07:21.863Z</time></trkpt><trkpt lat="43.1323291" lon="12.3613669"><ele>406.00000000000006</ele><time>2026-04-19T11:07:23.862Z</time></trkpt><trkpt lat="43.1324347" lon="12.3613515"><ele>406.0</ele><time>2026-04-19T11:07:25.863Z</time></trkpt><trkpt lat="43.1325038" lon="12.3614698"><ele>407.6666666666667</ele><time>2026-04-19T11:07:27.863Z</time></trkpt><trkpt lat="43.1325148" lon="12.3615585"><ele>409.33333333333337</ele><time>2026-04-19T11:07:28.863Z</time></trkpt><trkpt lat="43.1325156" lon="12.3616589"><ele>411.0</ele><time>2026-04-19T11:07:29.862Z</time></trkpt><trkpt lat="43.1325136" lon="12.3617687"><ele>412.66666666666663</ele><time>2026-04-19T11:07:30.862Z</time></trkpt><trkpt lat="43.1325118" lon="12.3618911"><ele>414.3333333333333</ele><time>2026-04-19T11:07:31.863Z</time></trkpt><trkpt lat="43.1325129" lon="12.3620267"><ele>416.0</ele><time>2026-04-19T11:07:32.862Z</time></trkpt><trkpt lat="43.132514" lon="12.362139"><ele>416.8333333333333</ele><time>2026-04-19T11:07:33.863Z</time></trkpt><trkpt lat="43.1325144" lon="12.3622381"><ele>417.66666666666663</ele><time>2026-04-19T11:07:34.862Z</time></trkpt><trkpt lat="43.1325411" lon="12.3623849"><ele>418.5</ele><time>2026-04-19T11:07:36.861Z</time></trkpt><trkpt lat="43.1325564" lon="12.3624947"><ele>419.33333333333337</ele><time>2026-04-19T11:07:38.863Z</time></trkpt><trkpt lat="43.132515" lon="12.3626127"><ele>420.1666666666667</ele><time>2026-04-19T11:07:40.863Z</time></trkpt><trkpt lat="43.1324729" lon="12.3626921"><ele>421.0</ele><time>2026-04-19T11:07:41.862Z</time></trkpt><trkpt lat="43.132429" lon="12.3627996"><ele>420.0</ele><time>2026-04-19T11:07:42.861Z</time></trkpt><trkpt lat="43.1323765" lon="12.36292"><ele>419.0</ele><time>2026-04-19T11:07:43.863Z</time></trkpt><trkpt lat="43.1323305" lon="12.3630445"><ele>418.0</ele><time>2026-04-19T11:07:44.863Z</time></trkpt><trkpt lat="43.1322811" lon="12.3631862"><ele>417.0</ele><time>2026-04-19T11:07:45.863Z</time></trkpt><trkpt lat="43.1322249" lon="12.3633412"><ele>416.0</ele><time>2026-04-19T11:07:46.863Z</time></trkpt><trkpt lat="43.1321636" lon="12.3635062"><ele>416.0</ele><time>2026-04-19T11:07:47.863Z</time></trkpt><trkpt lat="43.1320999" lon="12.3636712"><ele>416.0</ele><time>2026-04-19T11:07:48.862Z</time></trkpt><trkpt lat="43.132039" lon="12.3638377"><ele>416.0</ele><time>2026-04-19T11:07:49.863Z</time></trkpt><trkpt lat="43.1319713" lon="12.3640141"><ele>416.0</ele><time>2026-04-19T11:07:50.862Z</time></trkpt><trkpt lat="43.1319011" lon="12.3642034"><ele>418.5</ele><time>2026-04-19T11:07:51.862Z</time></trkpt><trkpt lat="43.1318286" lon="12.3643809"><ele>421.0</ele><time>2026-04-19T11:07:52.862Z</time></trkpt><trkpt lat="43.1317602" lon="12.3645604"><ele>423.5</ele><time>2026-04-19T11:07:53.862Z</time></trkpt><trkpt lat="43.1316838" lon="12.3647425"><ele>426.0</ele><time>2026-04-19T11:07:54.862Z</time></trkpt><trkpt lat="43.1316085" lon="12.3649248"><ele>428.66666666666663</ele><time>2026-04-19T11:07:55.861Z</time></trkpt><trkpt lat="43.1315509" lon="12.3651229"><ele>431.3333333333333</ele><time>2026-04-19T11:07:56.863Z</time></trkpt><trkpt lat="43.1315024" lon="12.36533"><ele>434.0</ele><time>2026-04-19T11:07:57.862Z</time></trkpt><trkpt lat="43.1314612" lon="12.3655543"><ele>439.3333333333333</ele><time>2026-04-19T11:07:58.862Z</time></trkpt><trkpt lat="43.131419" lon="12.3657827"><ele>444.66666666666663</ele><time>2026-04-19T11:07:59.861Z</time></trkpt><trkpt lat="43.1313534" lon="12.3659903"><ele>450.0</ele><time>2026-04-19T11:08:00.863Z</time></trkpt><trkpt lat="43.1312776" lon="12.3661853"><ele>452.33333333333337</ele><time>2026-04-19T11:08:01.861Z</time></trkpt><trkpt lat="43.1311928" lon="12.3663787"><ele>454.6666666666667</ele><time>2026-04-19T11:08:02.862Z</time></trkpt><trkpt lat="43.1311038" lon="12.3665524"><ele>457.0</ele><time>2026-04-19T11:08:03.863Z</time></trkpt><trkpt lat="43.1310302" lon="12.3667102"><ele>457.0</ele><time>2026-04-19T11:08:04.862Z</time></trkpt><trkpt lat="43.1309669" lon="12.3668518"><ele>457.0</ele><time>2026-04-19T11:08:05.861Z</time></trkpt><trkpt lat="43.1308998" lon="12.3669782"><ele>457.0</ele><time>2026-04-19T11:08:06.863Z</time></trkpt><trkpt lat="43.1308315" lon="12.3671038"><ele>457.0</ele><time>2026-04-19T11:08:07.863Z</time></trkpt><trkpt lat="43.130757" lon="12.3672379"><ele>454.0</ele><time>2026-04-19T11:08:08.861Z</time></trkpt><trkpt lat="43.1306784" lon="12.3673901"><ele>451.0</ele><time>2026-04-19T11:08:09.863Z</time></trkpt><trkpt lat="43.1305952" lon="12.3675639"><ele>448.0</ele><time>2026-04-19T11:08:10.863Z</time></trkpt><trkpt lat="43.1305223" lon="12.3677461"><ele>445.0</ele><time>2026-04-19T11:08:11.862Z</time></trkpt><trkpt lat="43.1304512" lon="12.3679127"><ele>446.0</ele><time>2026-04-19T11:08:12.863Z</time></trkpt><trkpt lat="43.1303784" lon="12.3681312"><ele>447.0</ele><time>2026-04-19T11:08:13.862Z</time></trkpt><trkpt lat="43.1303424" lon="12.3683453"><ele>448.0</ele><time>2026-04-19T11:08:14.861Z</time></trkpt><trkpt lat="43.1302818" lon="12.3685581"><ele>448.0</ele><time>2026-04-19T11:08:15.863Z</time></trkpt><trkpt lat="43.1302518" lon="12.3687336"><ele>448.0</ele><time>2026-04-19T11:08:16.862Z</time></trkpt><trkpt lat="43.1302219" lon="12.3689266"><ele>448.0</ele><time>2026-04-19T11:08:17.863Z</time></trkpt><trkpt lat="43.1302119" lon="12.3691364"><ele>448.0</ele><time>2026-04-19T11:08:18.862Z</time></trkpt><trkpt lat="43.1302093" lon="12.3693502"><ele>449.33333333333337</ele><time>2026-04-19T11:08:19.861Z</time></trkpt><trkpt lat="43.1302061" lon="12.3695709"><ele>450.66666666666663</ele><time>2026-04-19T11:08:20.862Z</time></trkpt><trkpt lat="43.1302087" lon="12.3697833"><ele>452.0</ele><time>2026-04-19T11:08:21.862Z</time></trkpt><trkpt lat="43.1301929" lon="12.3700204"><ele>452.0</ele><time>2026-04-19T11:08:22.862Z</time></trkpt><trkpt lat="43.1301652" lon="12.3702662"><ele>452.0</ele><time>2026-04-19T11:08:23.862Z</time></trkpt><trkpt lat="43.1301288" lon="12.3705039"><ele>452.0</ele><time>2026-04-19T11:08:24.862Z</time></trkpt><trkpt lat="43.1300772" lon="12.3707442"><ele>451.0</ele><time>2026-04-19T11:08:25.862Z</time></trkpt><trkpt lat="43.1300216" lon="12.370984"><ele>450.0</ele><time>2026-04-19T11:08:26.86Z</time></trkpt><trkpt lat="43.1299577" lon="12.3712441"><ele>449.0</ele><time>2026-04-19T11:08:27.861Z</time></trkpt><trkpt lat="43.1298916" lon="12.3714824"><ele>452.5</ele><time>2026-04-19T11:08:28.862Z</time></trkpt><trkpt lat="43.1298328" lon="12.3716977"><ele>456.0</ele><time>2026-04-19T11:08:29.862Z</time></trkpt><trkpt lat="43.1297719" lon="12.3718753"><ele>459.5</ele><time>2026-04-19T11:08:30.862Z</time></trkpt><trkpt lat="43.1297203" lon="12.3720229"><ele>463.0</ele><time>2026-04-19T11:08:31.861Z</time></trkpt><trkpt lat="43.1296614" lon="12.3721669"><ele>459.79999999999995</ele><time>2026-04-19T11:08:32.861Z</time></trkpt><trkpt lat="43.1295982" lon="12.3722435"><ele>456.59999999999997</ele><time>2026-04-19T11:08:33.861Z</time></trkpt><trkpt lat="43.1295242" lon="12.372322"><ele>453.40000000000003</ele><time>2026-04-19T11:08:34.861Z</time></trkpt><trkpt lat="43.1294397" lon="12.3724073"><ele>450.20000000000005</ele><time>2026-04-19T11:08:35.861Z</time></trkpt><trkpt lat="43.1293328" lon="12.3724919"><ele>447.0</ele><time>2026-04-19T11:08:36.861Z</time></trkpt><trkpt lat="43.1292256" lon="12.3725928"><ele>447.0</ele><time>2026-04-19T11:08:37.861Z</time></trkpt><trkpt lat="43.1291226" lon="12.3726905"><ele>447.0</ele><time>2026-04-19T11:08:38.862Z</time></trkpt><trkpt lat="43.1290211" lon="12.3727761"><ele>447.0</ele><time>2026-04-19T11:08:39.861Z</time></trkpt><trkpt lat="43.1289228" lon="12.372879"><ele>447.0</ele><time>2026-04-19T11:08:40.861Z</time></trkpt><trkpt lat="43.1288171" lon="12.3729685"><ele>444.75</ele><time>2026-04-19T11:08:41.862Z</time></trkpt><trkpt lat="43.1287168" lon="12.3730627"><ele>442.5</ele><time>2026-04-19T11:08:42.86Z</time></trkpt><trkpt lat="43.1286091" lon="12.3731431"><ele>440.25</ele><time>2026-04-19T11:08:43.862Z</time></trkpt><trkpt lat="43.1285056" lon="12.3732088"><ele>438.0</ele><time>2026-04-19T11:08:44.861Z</time></trkpt><trkpt lat="43.1283848" lon="12.3732285"><ele>438.0</ele><time>2026-04-19T11:08:45.861Z</time></trkpt><trkpt lat="43.1282722" lon="12.3732673"><ele>438.0</ele><time>2026-04-19T11:08:46.862Z</time></trkpt><trkpt lat="43.1281662" lon="12.3733159"><ele>438.0</ele><time>2026-04-19T11:08:47.862Z</time></trkpt><trkpt lat="43.1280629" lon="12.3733953"><ele>438.0</ele><time>2026-04-19T11:08:48.86Z</time></trkpt><trkpt lat="43.1279787" lon="12.3735046"><ele>438.75</ele><time>2026-04-19T11:08:49.861Z</time></trkpt><trkpt lat="43.127906" lon="12.3736445"><ele>439.5</ele><time>2026-04-19T11:08:50.861Z</time></trkpt><trkpt lat="43.1278455" lon="12.3737878"><ele>440.25</ele><time>2026-04-19T11:08:51.861Z</time></trkpt><trkpt lat="43.1277862" lon="12.3739323"><ele>441.0</ele><time>2026-04-19T11:08:52.861Z</time></trkpt><trkpt lat="43.1277339" lon="12.374072"><ele>441.0</ele><time>2026-04-19T11:08:53.862Z</time></trkpt><trkpt lat="43.1276893" lon="12.3741851"><ele>441.0</ele><time>2026-04-19T11:08:54.861Z</time></trkpt><trkpt lat="43.127631" lon="12.3742998"><ele>441.0</ele><time>2026-04-19T11:08:55.862Z</time></trkpt><trkpt lat="43.127577" lon="12.3744202"><ele>441.0</ele><time>2026-04-19T11:08:56.862Z</time></trkpt><trkpt lat="43.1275236" lon="12.3745413"><ele>441.0</ele><time>2026-04-19T11:08:57.862Z</time></trkpt><trkpt lat="43.1274771" lon="12.3746707"><ele>440.4</ele><time>2026-04-19T11:08:58.862Z</time></trkpt><trkpt lat="43.1274254" lon="12.3748038"><ele>439.8</ele><time>2026-04-19T11:08:59.862Z</time></trkpt><trkpt lat="43.1273814" lon="12.3749347"><ele>439.19999999999993</ele><time>2026-04-19T11:09:00.862Z</time></trkpt><trkpt lat="43.1273415" lon="12.3750595"><ele>438.59999999999997</ele><time>2026-04-19T11:09:01.862Z</time></trkpt><trkpt lat="43.127301" lon="12.3751762"><ele>438.0</ele><time>2026-04-19T11:09:02.862Z</time></trkpt><trkpt lat="43.1272547" lon="12.375272"><ele>437.6666666666667</ele><time>2026-04-19T11:09:03.861Z</time></trkpt><trkpt lat="43.1271991" lon="12.3753489"><ele>437.33333333333337</ele><time>2026-04-19T11:09:04.862Z</time></trkpt><trkpt lat="43.1271437" lon="12.3754067"><ele>437.0</ele><time>2026-04-19T11:09:05.862Z</time></trkpt><trkpt lat="43.1270611" lon="12.3755123"><ele>436.6666666666667</ele><time>2026-04-19T11:09:07.862Z</time></trkpt><trkpt lat="43.127025" lon="12.3755944"><ele>436.33333333333337</ele><time>2026-04-19T11:09:08.862Z</time></trkpt><trkpt lat="43.1269771" lon="12.3756808"><ele>436.0</ele><time>2026-04-19T11:09:09.861Z</time></trkpt><trkpt lat="43.1269076" lon="12.3757444"><ele>436.0</ele><time>2026-04-19T11:09:10.862Z</time></trkpt><trkpt lat="43.1268428" lon="12.3758117"><ele>436.0</ele><time>2026-04-19T11:09:11.862Z</time></trkpt><trkpt lat="43.1267403" lon="12.3758536"><ele>436.0</ele><time>2026-04-19T11:09:12.862Z</time></trkpt><trkpt lat="43.1266323" lon="12.3758756"><ele>436.0</ele><time>2026-04-19T11:09:13.862Z</time></trkpt><trkpt lat="43.1265255" lon="12.37592"><ele>436.0</ele><time>2026-04-19T11:09:14.862Z</time></trkpt><trkpt lat="43.1264132" lon="12.3759688"><ele>435.0</ele><time>2026-04-19T11:09:15.86Z</time></trkpt><trkpt lat="43.1263013" lon="12.376011"><ele>434.0</ele><time>2026-04-19T11:09:16.862Z</time></trkpt><trkpt lat="43.1261922" lon="12.376056"><ele>433.0</ele><time>2026-04-19T11:09:17.862Z</time></trkpt><trkpt lat="43.1260733" lon="12.3760978"><ele>432.0</ele><time>2026-04-19T11:09:18.862Z</time></trkpt><trkpt lat="43.1259412" lon="12.3761463"><ele>432.0</ele><time>2026-04-19T11:09:19.86Z</time></trkpt><trkpt lat="43.1257926" lon="12.3762093"><ele>432.0</ele><time>2026-04-19T11:09:20.862Z</time></trkpt><trkpt lat="43.1256343" lon="12.3762608"><ele>432.0</ele><time>2026-04-19T11:09:21.862Z</time></trkpt><trkpt lat="43.1255016" lon="12.3763063"><ele>435.75</ele><time>2026-04-19T11:09:22.86Z</time></trkpt><trkpt lat="43.1253678" lon="12.376354"><ele>439.5</ele><time>2026-04-19T11:09:23.862Z</time></trkpt><trkpt lat="43.1252353" lon="12.3763995"><ele>443.25</ele><time>2026-04-19T11:09:24.861Z</time></trkpt><trkpt lat="43.1251137" lon="12.3764544"><ele>447.0</ele><time>2026-04-19T11:09:25.86Z</time></trkpt><trkpt lat="43.1249953" lon="12.3765076"><ele>448.0</ele><time>2026-04-19T11:09:26.862Z</time></trkpt><trkpt lat="43.1248652" lon="12.376558"><ele>449.0</ele><time>2026-04-19T11:09:27.861Z</time></trkpt><trkpt lat="43.1247369" lon="12.3765934"><ele>450.0</ele><time>2026-04-19T11:09:28.86Z</time></trkpt><trkpt lat="43.1246069" lon="12.3766395"><ele>451.0</ele><time>2026-04-19T11:09:29.861Z</time></trkpt><trkpt lat="43.1244847" lon="12.376683"><ele>451.0</ele><time>2026-04-19T11:09:30.862Z</time></trkpt><trkpt lat="43.124376" lon="12.3767239"><ele>451.0</ele><time>2026-04-19T11:09:31.86Z</time></trkpt><trkpt lat="43.1242821" lon="12.3767647"><ele>451.0</ele><time>2026-04-19T11:09:32.86Z</time></trkpt><trkpt lat="43.1242042" lon="12.3768157"><ele>451.0</ele><time>2026-04-19T11:09:33.862Z</time></trkpt><trkpt lat="43.1241395" lon="12.3768933"><ele>451.0</ele><time>2026-04-19T11:09:34.862Z</time></trkpt><trkpt lat="43.124091" lon="12.3769993"><ele>450.4</ele><time>2026-04-19T11:09:35.861Z</time></trkpt><trkpt lat="43.1240464" lon="12.3771241"><ele>449.8</ele><time>2026-04-19T11:09:36.861Z</time></trkpt><trkpt lat="43.1240091" lon="12.3772735"><ele>449.19999999999993</ele><time>2026-04-19T11:09:37.861Z</time></trkpt><trkpt lat="43.1239744" lon="12.37742"><ele>448.59999999999997</ele><time>2026-04-19T11:09:38.861Z</time></trkpt><trkpt lat="43.1239427" lon="12.3775589"><ele>448.0</ele><time>2026-04-19T11:09:39.861Z</time></trkpt><trkpt lat="43.1239076" lon="12.3776902"><ele>448.0</ele><time>2026-04-19T11:09:40.861Z</time></trkpt><trkpt lat="43.1238758" lon="12.377821"><ele>447.99999999999994</ele><time>2026-04-19T11:09:41.86Z</time></trkpt><trkpt lat="43.1238446" lon="12.3779557"><ele>447.99999999999994</ele><time>2026-04-19T11:09:42.861Z</time></trkpt><trkpt lat="43.1238071" lon="12.3780814"><ele>448.0</ele><time>2026-04-19T11:09:43.862Z</time></trkpt><trkpt lat="43.123762" lon="12.3781924"><ele>448.0</ele><time>2026-04-19T11:09:44.861Z</time></trkpt><trkpt lat="43.123713" lon="12.3782973"><ele>451.00000000000006</ele><time>2026-04-19T11:09:45.862Z</time></trkpt><trkpt lat="43.1236611" lon="12.3783863"><ele>454.0</ele><time>2026-04-19T11:09:46.861Z</time></trkpt><trkpt lat="43.1236105" lon="12.3784625"><ele>457.0</ele><time>2026-04-19T11:09:47.861Z</time></trkpt><trkpt lat="43.1235505" lon="12.3785294"><ele>460.0</ele><time>2026-04-19T11:09:48.861Z</time></trkpt><trkpt lat="43.1234753" lon="12.3786064"><ele>463.00000000000006</ele><time>2026-04-19T11:09:49.862Z</time></trkpt><trkpt lat="43.123395" lon="12.3787021"><ele>466.0</ele><time>2026-04-19T11:09:50.861Z</time></trkpt><trkpt lat="43.1233171" lon="12.3787875"><ele>468.5</ele><time>2026-04-19T11:09:51.86Z</time></trkpt><trkpt lat="43.1232348" lon="12.3788737"><ele>471.0</ele><time>2026-04-19T11:09:52.861Z</time></trkpt><trkpt lat="43.1231421" lon="12.3789779"><ele>473.5</ele><time>2026-04-19T11:09:53.861Z</time></trkpt><trkpt lat="43.1230431" lon="12.3790908"><ele>476.0</ele><time>2026-04-19T11:09:54.862Z</time></trkpt><trkpt lat="43.1229445" lon="12.379208"><ele>476.0</ele><time>2026-04-19T11:09:55.862Z</time></trkpt><trkpt lat="43.1228481" lon="12.3793476"><ele>476.0</ele><time>2026-04-19T11:09:56.861Z</time></trkpt><trkpt lat="43.1227616" lon="12.3794814"><ele>476.0</ele><time>2026-04-19T11:09:57.861Z</time></trkpt><trkpt lat="43.1226915" lon="12.3796128"><ele>476.0</ele><time>2026-04-19T11:09:58.862Z</time></trkpt><trkpt lat="43.1226347" lon="12.3797424"><ele>477.4</ele><time>2026-04-19T11:09:59.861Z</time></trkpt><trkpt lat="43.1225694" lon="12.3798791"><ele>478.8</ele><time>2026-04-19T11:10:00.862Z</time></trkpt><trkpt lat="43.1225054" lon="12.3800217"><ele>480.19999999999993</ele><time>2026-04-19T11:10:01.861Z</time></trkpt><trkpt lat="43.1224393" lon="12.3801412"><ele>481.59999999999997</ele><time>2026-04-19T11:10:02.861Z</time></trkpt><trkpt lat="43.1223794" lon="12.3802444"><ele>483.0</ele><time>2026-04-19T11:10:03.861Z</time></trkpt><trkpt lat="43.1223205" lon="12.3803511"><ele>483.0</ele><time>2026-04-19T11:10:04.861Z</time></trkpt><trkpt lat="43.1222679" lon="12.3804597"><ele>482.99999999999994</ele><time>2026-04-19T11:10:05.86Z</time></trkpt><trkpt lat="43.1222102" lon="12.3805711"><ele>482.99999999999994</ele><time>2026-04-19T11:10:06.861Z</time></trkpt><trkpt lat="43.1221501" lon="12.3807034"><ele>483.0</ele><time>2026-04-19T11:10:07.861Z</time></trkpt><trkpt lat="43.1220927" lon="12.3808562"><ele>483.0</ele><time>2026-04-19T11:10:08.861Z</time></trkpt><trkpt lat="43.1220342" lon="12.3810075"><ele>484.0</ele><time>2026-04-19T11:10:09.86Z</time></trkpt><trkpt lat="43.1219735" lon="12.3811559"><ele>485.0</ele><time>2026-04-19T11:10:10.859Z</time></trkpt><trkpt lat="43.1219071" lon="12.381316"><ele>486.0</ele><time>2026-04-19T11:10:11.861Z</time></trkpt><trkpt lat="43.1218387" lon="12.3814583"><ele>487.0</ele><time>2026-04-19T11:10:12.861Z</time></trkpt><trkpt lat="43.12176" lon="12.3815979"><ele>487.0</ele><time>2026-04-19T11:10:13.861Z</time></trkpt><trkpt lat="43.1216777" lon="12.3817158"><ele>487.0</ele><time>2026-04-19T11:10:14.861Z</time></trkpt><trkpt lat="43.1215904" lon="12.3818324"><ele>487.0</ele><time>2026-04-19T11:10:15.861Z</time></trkpt><trkpt lat="43.1214959" lon="12.3819311"><ele>487.0</ele><time>2026-04-19T11:10:16.861Z</time></trkpt><trkpt lat="43.121395" lon="12.3820174"><ele>487.5</ele><time>2026-04-19T11:10:17.859Z</time></trkpt><trkpt lat="43.1212823" lon="12.3820827"><ele>488.0</ele><time>2026-04-19T11:10:18.86Z</time></trkpt><trkpt lat="43.1211554" lon="12.3821385"><ele>488.5</ele><time>2026-04-19T11:10:19.86Z</time></trkpt><trkpt lat="43.1210215" lon="12.3822038"><ele>489.0</ele><time>2026-04-19T11:10:20.86Z</time></trkpt><trkpt lat="43.1208936" lon="12.3822691"><ele>485.0</ele><time>2026-04-19T11:10:21.861Z</time></trkpt><trkpt lat="43.1207827" lon="12.3823549"><ele>481.0</ele><time>2026-04-19T11:10:22.861Z</time></trkpt><trkpt lat="43.1206851" lon="12.3824697"><ele>477.0</ele><time>2026-04-19T11:10:23.86Z</time></trkpt><trkpt lat="43.1206045" lon="12.382575"><ele>473.0</ele><time>2026-04-19T11:10:24.861Z</time></trkpt><trkpt lat="43.1205397" lon="12.3826843"><ele>472.99999999999994</ele><time>2026-04-19T11:10:25.86Z</time></trkpt><trkpt lat="43.1204863" lon="12.3827611"><ele>473.0</ele><time>2026-04-19T11:10:26.861Z</time></trkpt><trkpt lat="43.1204542" lon="12.3828404"><ele>473.0</ele><time>2026-04-19T11:10:27.861Z</time></trkpt><trkpt lat="43.1204154" lon="12.3829166"><ele>473.0</ele><time>2026-04-19T11:10:28.86Z</time></trkpt><trkpt lat="43.1203559" lon="12.3830557"><ele>472.99999999999994</ele><time>2026-04-19T11:10:30.86Z</time></trkpt><trkpt lat="43.1203055" lon="12.3831898"><ele>473.0</ele><time>2026-04-19T11:10:32.86Z</time></trkpt><trkpt lat="43.1203192" lon="12.3833112"><ele>472.99999999999994</ele><time>2026-04-19T11:10:34.859Z</time></trkpt><trkpt lat="43.1204073" lon="12.383371"><ele>473.0</ele><time>2026-04-19T11:10:36.859Z</time></trkpt><trkpt lat="43.1204678" lon="12.3834062"><ele>473.0</ele><time>2026-04-19T11:10:37.859Z</time></trkpt><trkpt lat="43.1205263" lon="12.3834649"><ele>473.0</ele><time>2026-04-19T11:10:38.86Z</time></trkpt><trkpt lat="43.1205772" lon="12.3835385"><ele>472.99999999999994</ele><time>2026-04-19T11:10:39.86Z</time></trkpt><trkpt lat="43.1206153" lon="12.3836388"><ele>473.0</ele><time>2026-04-19T11:10:40.861Z</time></trkpt><trkpt lat="43.1206518" lon="12.3837542"><ele>473.25</ele><time>2026-04-19T11:10:41.861Z</time></trkpt><trkpt lat="43.1206953" lon="12.3838787"><ele>473.5</ele><time>2026-04-19T11:10:42.86Z</time></trkpt><trkpt lat="43.1207552" lon="12.3840296"><ele>473.75</ele><time>2026-04-19T11:10:43.861Z</time></trkpt><trkpt lat="43.1208204" lon="12.3841742"><ele>474.0</ele><time>2026-04-19T11:10:44.861Z</time></trkpt><trkpt lat="43.1208943" lon="12.3843158"><ele>474.0</ele><time>2026-04-19T11:10:45.86Z</time></trkpt><trkpt lat="43.1209935" lon="12.3844425"><ele>474.0</ele><time>2026-04-19T11:10:46.861Z</time></trkpt><trkpt lat="43.1210993" lon="12.3845563"><ele>474.0</ele><time>2026-04-19T11:10:47.861Z</time></trkpt><trkpt lat="43.1211865" lon="12.3846535"><ele>474.0</ele><time>2026-04-19T11:10:48.859Z</time></trkpt><trkpt lat="43.1212453" lon="12.3847365"><ele>474.0</ele><time>2026-04-19T11:10:49.86Z</time></trkpt><trkpt lat="43.121282" lon="12.3848183"><ele>474.0</ele><time>2026-04-19T11:10:50.861Z</time></trkpt><trkpt lat="43.1212907" lon="12.3849601"><ele>474.0</ele><time>2026-04-19T11:10:52.86Z</time></trkpt><trkpt lat="43.1212752" lon="12.385045"><ele>474.0</ele><time>2026-04-19T11:10:53.86Z</time></trkpt><trkpt lat="43.121244" lon="12.3851427"><ele>474.0</ele><time>2026-04-19T11:10:54.861Z</time></trkpt><trkpt lat="43.1212157" lon="12.3852576"><ele>474.0</ele><time>2026-04-19T11:10:55.859Z</time></trkpt><trkpt lat="43.1211798" lon="12.3853837"><ele>474.0</ele><time>2026-04-19T11:10:56.86Z</time></trkpt><trkpt lat="43.1211545" lon="12.3854899"><ele>474.0</ele><time>2026-04-19T11:10:57.86Z</time></trkpt><trkpt lat="43.1211374" lon="12.3856174"><ele>474.0</ele><time>2026-04-19T11:10:58.861Z</time></trkpt><trkpt lat="43.1211321" lon="12.3857607"><ele>474.0</ele><time>2026-04-19T11:10:59.859Z</time></trkpt><trkpt lat="43.1211457" lon="12.385916"><ele>474.0</ele><time>2026-04-19T11:11:00.86Z</time></trkpt><trkpt lat="43.1211624" lon="12.3860523"><ele>474.5</ele><time>2026-04-19T11:11:01.86Z</time></trkpt><trkpt lat="43.1211751" lon="12.3861803"><ele>475.0</ele><time>2026-04-19T11:11:02.861Z</time></trkpt><trkpt lat="43.1211833" lon="12.3862904"><ele>475.5</ele><time>2026-04-19T11:11:03.86Z</time></trkpt><trkpt lat="43.1211725" lon="12.3863862"><ele>476.0</ele><time>2026-04-19T11:11:04.86Z</time></trkpt><trkpt lat="43.1211391" lon="12.386465"><ele>476.5</ele><time>2026-04-19T11:11:05.859Z</time></trkpt><trkpt lat="43.1210792" lon="12.3865264"><ele>477.0</ele><time>2026-04-19T11:11:06.861Z</time></trkpt><trkpt lat="43.1210006" lon="12.3865541"><ele>474.8</ele><time>2026-04-19T11:11:07.861Z</time></trkpt><trkpt lat="43.1209123" lon="12.38658"><ele>472.6</ele><time>2026-04-19T11:11:08.86Z</time></trkpt><trkpt lat="43.120813" lon="12.3865326"><ele>470.40000000000003</ele><time>2026-04-19T11:11:09.86Z</time></trkpt><trkpt lat="43.1207181" lon="12.3865011"><ele>468.20000000000005</ele><time>2026-04-19T11:11:10.86Z</time></trkpt><trkpt lat="43.1206274" lon="12.3864607"><ele>466.0</ele><time>2026-04-19T11:11:11.86Z</time></trkpt><trkpt lat="43.12054" lon="12.3864222"><ele>465.00000000000006</ele><time>2026-04-19T11:11:12.861Z</time></trkpt><trkpt lat="43.1204544" lon="12.3863874"><ele>464.0</ele><time>2026-04-19T11:11:13.86Z</time></trkpt><trkpt lat="43.1203719" lon="12.3863484"><ele>463.0</ele><time>2026-04-19T11:11:14.86Z</time></trkpt><trkpt lat="43.120295" lon="12.3863094"><ele>462.0</ele><time>2026-04-19T11:11:15.86Z</time></trkpt><trkpt lat="43.1202254" lon="12.3862828"><ele>461.00000000000006</ele><time>2026-04-19T11:11:16.861Z</time></trkpt><trkpt lat="43.1201629" lon="12.3862698"><ele>460.0</ele><time>2026-04-19T11:11:17.861Z</time></trkpt><trkpt lat="43.1200374" lon="12.3863102"><ele>460.0</ele><time>2026-04-19T11:11:19.859Z</time></trkpt><trkpt lat="43.1199654" lon="12.386363"><ele>460.0</ele><time>2026-04-19T11:11:20.86Z</time></trkpt><trkpt lat="43.1198677" lon="12.3864148"><ele>460.0</ele><time>2026-04-19T11:11:21.86Z</time></trkpt><trkpt lat="43.1197549" lon="12.3864654"><ele>460.0</ele><time>2026-04-19T11:11:22.86Z</time></trkpt><trkpt lat="43.1196493" lon="12.3865122"><ele>460.0</ele><time>2026-04-19T11:11:23.86Z</time></trkpt><trkpt lat="43.1195444" lon="12.3865397"><ele>463.5</ele><time>2026-04-19T11:11:24.859Z</time></trkpt><trkpt lat="43.1194275" lon="12.3865999"><ele>467.0</ele><time>2026-04-19T11:11:25.86Z</time></trkpt><trkpt lat="43.11933" lon="12.3866862"><ele>470.5</ele><time>2026-04-19T11:11:26.86Z</time></trkpt><trkpt lat="43.1192483" lon="12.3867889"><ele>474.0</ele><time>2026-04-19T11:11:27.86Z</time></trkpt><trkpt lat="43.1191713" lon="12.3869044"><ele>474.0</ele><time>2026-04-19T11:11:28.859Z</time></trkpt><trkpt lat="43.119112" lon="12.3870326"><ele>474.0</ele><time>2026-04-19T11:11:29.86Z</time></trkpt><trkpt lat="43.1190621" lon="12.3871656"><ele>474.0</ele><time>2026-04-19T11:11:30.86Z</time></trkpt><trkpt lat="43.1190036" lon="12.3872892"><ele>474.0</ele><time>2026-04-19T11:11:31.86Z</time></trkpt><trkpt lat="43.1189321" lon="12.3874185"><ele>474.0</ele><time>2026-04-19T11:11:32.86Z</time></trkpt><trkpt lat="43.1188475" lon="12.3875421"><ele>474.0</ele><time>2026-04-19T11:11:33.859Z</time></trkpt><trkpt lat="43.1187591" lon="12.3876623"><ele>474.0</ele><time>2026-04-19T11:11:34.86Z</time></trkpt><trkpt lat="43.1186742" lon="12.3877855"><ele>474.0</ele><time>2026-04-19T11:11:35.86Z</time></trkpt><trkpt lat="43.118589" lon="12.387908"><ele>474.0</ele><time>2026-04-19T11:11:36.86Z</time></trkpt><trkpt lat="43.1185025" lon="12.3880327"><ele>473.5</ele><time>2026-04-19T11:11:37.86Z</time></trkpt><trkpt lat="43.1184309" lon="12.3881522"><ele>473.0</ele><time>2026-04-19T11:11:38.861Z</time></trkpt><trkpt lat="43.1183568" lon="12.3882801"><ele>472.5</ele><time>2026-04-19T11:11:39.86Z</time></trkpt><trkpt lat="43.1182888" lon="12.3884126"><ele>472.0</ele><time>2026-04-19T11:11:40.86Z</time></trkpt><trkpt lat="43.1182193" lon="12.3885465"><ele>472.0</ele><time>2026-04-19T11:11:41.861Z</time></trkpt><trkpt lat="43.1181525" lon="12.3886763"><ele>472.0</ele><time>2026-04-19T11:11:42.86Z</time></trkpt><trkpt lat="43.1180894" lon="12.3888103"><ele>472.0</ele><time>2026-04-19T11:11:43.859Z</time></trkpt><trkpt lat="43.118039" lon="12.3889481"><ele>472.0</ele><time>2026-04-19T11:11:44.861Z</time></trkpt><trkpt lat="43.1180064" lon="12.3890913"><ele>470.0</ele><time>2026-04-19T11:11:45.861Z</time></trkpt><trkpt lat="43.1179865" lon="12.3892388"><ele>468.00000000000006</ele><time>2026-04-19T11:11:46.86Z</time></trkpt><trkpt lat="43.117993" lon="12.3893807"><ele>466.00000000000006</ele><time>2026-04-19T11:11:47.861Z</time></trkpt><trkpt lat="43.118033" lon="12.3895055"><ele>464.0</ele><time>2026-04-19T11:11:48.859Z</time></trkpt><trkpt lat="43.1180881" lon="12.38961"><ele>462.0</ele><time>2026-04-19T11:11:49.859Z</time></trkpt><trkpt lat="43.1181447" lon="12.3896946"><ele>458.1666666666667</ele><time>2026-04-19T11:11:50.859Z</time></trkpt><trkpt lat="43.1181913" lon="12.3897753"><ele>454.33333333333337</ele><time>2026-04-19T11:11:51.86Z</time></trkpt><trkpt lat="43.1182339" lon="12.3898608"><ele>450.5</ele><time>2026-04-19T11:11:52.859Z</time></trkpt><trkpt lat="43.1182548" lon="12.3899585"><ele>446.6666666666667</ele><time>2026-04-19T11:11:53.859Z</time></trkpt><trkpt lat="43.1182477" lon="12.3900615"><ele>442.83333333333337</ele><time>2026-04-19T11:11:54.86Z</time></trkpt><trkpt lat="43.1182195" lon="12.3901784"><ele>439.0</ele><time>2026-04-19T11:11:55.86Z</time></trkpt><trkpt lat="43.1181713" lon="12.3902949"><ele>439.0</ele><time>2026-04-19T11:11:56.86Z</time></trkpt><trkpt lat="43.1181134" lon="12.3903961"><ele>439.0</ele><time>2026-04-19T11:11:57.858Z</time></trkpt><trkpt lat="43.1180414" lon="12.3904648"><ele>439.0</ele><time>2026-04-19T11:11:58.859Z</time></trkpt><trkpt lat="43.1179571" lon="12.390493"><ele>439.0</ele><time>2026-04-19T11:11:59.859Z</time></trkpt><trkpt lat="43.1178494" lon="12.3904913"><ele>439.0</ele><time>2026-04-19T11:12:00.859Z</time></trkpt><trkpt lat="43.1177296" lon="12.3904965"><ele>437.4</ele><time>2026-04-19T11:12:01.859Z</time></trkpt><trkpt lat="43.1176149" lon="12.3905236"><ele>435.79999999999995</ele><time>2026-04-19T11:12:02.859Z</time></trkpt><trkpt lat="43.1174992" lon="12.3905625"><ele>434.20000000000005</ele><time>2026-04-19T11:12:03.86Z</time></trkpt><trkpt lat="43.1173915" lon="12.3906135"><ele>432.6</ele><time>2026-04-19T11:12:04.858Z</time></trkpt><trkpt lat="43.1173057" lon="12.3906749"><ele>431.0</ele><time>2026-04-19T11:12:05.858Z</time></trkpt><trkpt lat="43.1172354" lon="12.3907404"><ele>430.99999999999994</ele><time>2026-04-19T11:12:06.86Z</time></trkpt><trkpt lat="43.1171722" lon="12.3908027"><ele>431.0</ele><time>2026-04-19T11:12:07.86Z</time></trkpt><trkpt lat="43.1171137" lon="12.3908628"><ele>431.0</ele><time>2026-04-19T11:12:08.859Z</time></trkpt><trkpt lat="43.1170591" lon="12.3909115"><ele>431.0</ele><time>2026-04-19T11:12:09.86Z</time></trkpt><trkpt lat="43.1169819" lon="12.3909983"><ele>430.99999999999994</ele><time>2026-04-19T11:12:11.86Z</time></trkpt><trkpt lat="43.1169245" lon="12.3910803"><ele>431.0</ele><time>2026-04-19T11:12:14.86Z</time></trkpt><trkpt lat="43.1169317" lon="12.3911876"><ele>431.0</ele><time>2026-04-19T11:12:18.859Z</time></trkpt><trkpt lat="43.1170033" lon="12.3911862"><ele>431.0</ele><time>2026-04-19T11:12:19.86Z</time></trkpt><trkpt lat="43.1171397" lon="12.3911901"><ele>431.0</ele><time>2026-04-19T11:12:21.859Z</time></trkpt><trkpt lat="43.1172294" lon="12.3912085"><ele>431.0</ele><time>2026-04-19T11:12:22.86Z</time></trkpt><trkpt lat="43.1173374" lon="12.3912197"><ele>431.0</ele><time>2026-04-19T11:12:23.858Z</time></trkpt><trkpt lat="43.1174572" lon="12.3912616"><ele>427.75</ele><time>2026-04-19T11:12:24.86Z</time></trkpt><trkpt lat="43.1175896" lon="12.3912885"><ele>424.5</ele><time>2026-04-19T11:12:25.859Z</time></trkpt><trkpt lat="43.1177333" lon="12.3913233"><ele>421.25</ele><time>2026-04-19T11:12:26.859Z</time></trkpt><trkpt lat="43.1178789" lon="12.3913587"><ele>418.0</ele><time>2026-04-19T11:12:27.86Z</time></trkpt><trkpt lat="43.1180235" lon="12.3913928"><ele>412.0</ele><time>2026-04-19T11:12:28.859Z</time></trkpt><trkpt lat="43.1181639" lon="12.3914217"><ele>406.0</ele><time>2026-04-19T11:12:29.859Z</time></trkpt><trkpt lat="43.1183022" lon="12.3914358"><ele>400.0</ele><time>2026-04-19T11:12:30.86Z</time></trkpt><trkpt lat="43.1184433" lon="12.3914204"><ele>394.0</ele><time>2026-04-19T11:12:31.859Z</time></trkpt><trkpt lat="43.118587" lon="12.3913969"><ele>392.75</ele><time>2026-04-19T11:12:32.859Z</time></trkpt><trkpt lat="43.118728" lon="12.3913692"><ele>391.5</ele><time>2026-04-19T11:12:33.859Z</time></trkpt><trkpt lat="43.1188734" lon="12.3913512"><ele>390.25</ele><time>2026-04-19T11:12:34.86Z</time></trkpt><trkpt lat="43.1189942" lon="12.39132"><ele>389.0</ele><time>2026-04-19T11:12:35.859Z</time></trkpt><trkpt lat="43.1191112" lon="12.3912849"><ele>388.4</ele><time>2026-04-19T11:12:36.86Z</time></trkpt><trkpt lat="43.1192093" lon="12.3912451"><ele>387.79999999999995</ele><time>2026-04-19T11:12:37.859Z</time></trkpt><trkpt lat="43.119293" lon="12.3911857"><ele>387.20000000000005</ele><time>2026-04-19T11:12:38.859Z</time></trkpt><trkpt lat="43.1193704" lon="12.3910937"><ele>386.6</ele><time>2026-04-19T11:12:39.859Z</time></trkpt><trkpt lat="43.1194115" lon="12.3909736"><ele>386.0</ele><time>2026-04-19T11:12:40.86Z</time></trkpt><trkpt lat="43.1194303" lon="12.3908603"><ele>386.0</ele><time>2026-04-19T11:12:41.858Z</time></trkpt><trkpt lat="43.1194408" lon="12.3907204"><ele>386.0</ele><time>2026-04-19T11:12:42.858Z</time></trkpt><trkpt lat="43.1194555" lon="12.3905678"><ele>386.0</ele><time>2026-04-19T11:12:43.86Z</time></trkpt><trkpt lat="43.1194749" lon="12.3904221"><ele>386.0</ele><time>2026-04-19T11:12:44.859Z</time></trkpt><trkpt lat="43.1195042" lon="12.3903066"><ele>386.0</ele><time>2026-04-19T11:12:45.859Z</time></trkpt><trkpt lat="43.1195592" lon="12.3902367"><ele>384.99999999999994</ele><time>2026-04-19T11:12:46.86Z</time></trkpt><trkpt lat="43.1196267" lon="12.3901895"><ele>384.0</ele><time>2026-04-19T11:12:47.86Z</time></trkpt><trkpt lat="43.1197081" lon="12.3901639"><ele>383.0</ele><time>2026-04-19T11:12:48.859Z</time></trkpt><trkpt lat="43.1197956" lon="12.3901561"><ele>382.0</ele><time>2026-04-19T11:12:49.859Z</time></trkpt><trkpt lat="43.1198858" lon="12.3901727"><ele>381.0</ele><time>2026-04-19T11:12:50.859Z</time></trkpt><trkpt lat="43.1199794" lon="12.3902171"><ele>380.0</ele><time>2026-04-19T11:12:51.859Z</time></trkpt><trkpt lat="43.1200604" lon="12.3903019"><ele>380.0</ele><time>2026-04-19T11:12:52.859Z</time></trkpt><trkpt lat="43.1201274" lon="12.3904216"><ele>380.0</ele><time>2026-04-19T11:12:53.858Z</time></trkpt><trkpt lat="43.1201903" lon="12.3905542"><ele>380.0</ele><time>2026-04-19T11:12:54.858Z</time></trkpt><trkpt lat="43.1202486" lon="12.3907227"><ele>380.0</ele><time>2026-04-19T11:12:55.859Z</time></trkpt><trkpt lat="43.1203014" lon="12.3908786"><ele>375.75</ele><time>2026-04-19T11:12:56.86Z</time></trkpt><trkpt lat="43.1203539" lon="12.3910366"><ele>371.5</ele><time>2026-04-19T11:12:57.859Z</time></trkpt><trkpt lat="43.1204077" lon="12.3912006"><ele>367.25</ele><time>2026-04-19T11:12:58.858Z</time></trkpt><trkpt lat="43.1204598" lon="12.391359"><ele>363.0</ele><time>2026-04-19T11:12:59.859Z</time></trkpt><trkpt lat="43.1205115" lon="12.3915095"><ele>359.25</ele><time>2026-04-19T11:13:00.859Z</time></trkpt><trkpt lat="43.1205535" lon="12.3916696"><ele>355.5</ele><time>2026-04-19T11:13:01.86Z</time></trkpt><trkpt lat="43.1205898" lon="12.3918384"><ele>351.75</ele><time>2026-04-19T11:13:02.859Z</time></trkpt><trkpt lat="43.1206247" lon="12.3919999"><ele>348.0</ele><time>2026-04-19T11:13:03.86Z</time></trkpt><trkpt lat="43.1206749" lon="12.3921607"><ele>346.5</ele><time>2026-04-19T11:13:04.859Z</time></trkpt><trkpt lat="43.1207305" lon="12.3923153"><ele>345.0</ele><time>2026-04-19T11:13:05.859Z</time></trkpt><trkpt lat="43.120797" lon="12.3924731"><ele>343.5</ele><time>2026-04-19T11:13:06.858Z</time></trkpt><trkpt lat="43.120879" lon="12.39263"><ele>342.0</ele><time>2026-04-19T11:13:07.859Z</time></trkpt><trkpt lat="43.120975" lon="12.3927765"><ele>342.0</ele><time>2026-04-19T11:13:08.859Z</time></trkpt><trkpt lat="43.1210694" lon="12.3929072"><ele>342.0</ele><time>2026-04-19T11:13:09.86Z</time></trkpt><trkpt lat="43.1211684" lon="12.3930209"><ele>342.0</ele><time>2026-04-19T11:13:10.859Z</time></trkpt><trkpt lat="43.1212926" lon="12.3931512"><ele>342.0</ele><time>2026-04-19T11:13:11.859Z</time></trkpt><trkpt lat="43.1213775" lon="12.3932391"><ele>338.5</ele><time>2026-04-19T11:13:12.859Z</time></trkpt><trkpt lat="43.1214717" lon="12.3933609"><ele>335.0</ele><time>2026-04-19T11:13:13.86Z</time></trkpt><trkpt lat="43.1215756" lon="12.3934855"><ele>331.5</ele><time>2026-04-19T11:13:14.858Z</time></trkpt><trkpt lat="43.1216709" lon="12.3936056"><ele>328.0</ele><time>2026-04-19T11:13:15.858Z</time></trkpt><trkpt lat="43.1217697" lon="12.3937344"><ele>323.75</ele><time>2026-04-19T11:13:16.859Z</time></trkpt><trkpt lat="43.1218724" lon="12.3938776"><ele>319.5</ele><time>2026-04-19T11:13:17.859Z</time></trkpt><trkpt lat="43.1219647" lon="12.3940191"><ele>315.25</ele><time>2026-04-19T11:13:18.859Z</time></trkpt><trkpt lat="43.1220454" lon="12.3941459"><ele>311.0</ele><time>2026-04-19T11:13:19.859Z</time></trkpt><trkpt lat="43.1221262" lon="12.3942664"><ele>311.0</ele><time>2026-04-19T11:13:20.859Z</time></trkpt><trkpt lat="43.1222003" lon="12.3944087"><ele>311.0</ele><time>2026-04-19T11:13:21.859Z</time></trkpt><trkpt lat="43.122267" lon="12.394542"><ele>311.0</ele><time>2026-04-19T11:13:22.858Z</time></trkpt><trkpt lat="43.1223475" lon="12.3946669"><ele>311.0</ele><time>2026-04-19T11:13:23.86Z</time></trkpt><trkpt lat="43.1224361" lon="12.3947952"><ele>308.5</ele><time>2026-04-19T11:13:24.86Z</time></trkpt><trkpt lat="43.1225177" lon="12.3949267"><ele>306.0</ele><time>2026-04-19T11:13:25.858Z</time></trkpt><trkpt lat="43.1226129" lon="12.3950559"><ele>303.5</ele><time>2026-04-19T11:13:26.859Z</time></trkpt><trkpt lat="43.1227158" lon="12.395174"><ele>301.0</ele><time>2026-04-19T11:13:27.858Z</time></trkpt><trkpt lat="43.1228346" lon="12.3952912"><ele>301.0</ele><time>2026-04-19T11:13:28.858Z</time></trkpt><trkpt lat="43.1229462" lon="12.3954159"><ele>301.0</ele><time>2026-04-19T11:13:29.858Z</time></trkpt><trkpt lat="43.123069" lon="12.3955294"><ele>301.0</ele><time>2026-04-19T11:13:30.858Z</time></trkpt><trkpt lat="43.1231919" lon="12.3956515"><ele>301.0</ele><time>2026-04-19T11:13:31.858Z</time></trkpt><trkpt lat="43.1233082" lon="12.3957784"><ele>297.75</ele><time>2026-04-19T11:13:32.858Z</time></trkpt><trkpt lat="43.1234258" lon="12.3959052"><ele>294.5</ele><time>2026-04-19T11:13:33.858Z</time></trkpt><trkpt lat="43.1235421" lon="12.396028"><ele>291.25</ele><time>2026-04-19T11:13:34.859Z</time></trkpt><trkpt lat="43.1236591" lon="12.3961489"><ele>288.0</ele><time>2026-04-19T11:13:35.858Z</time></trkpt><trkpt lat="43.1237757" lon="12.3962677"><ele>289.5</ele><time>2026-04-19T11:13:36.857Z</time></trkpt><trkpt lat="43.1238909" lon="12.3963827"><ele>291.0</ele><time>2026-04-19T11:13:37.858Z</time></trkpt><trkpt lat="43.124" lon="12.3965025"><ele>292.5</ele><time>2026-04-19T11:13:38.859Z</time></trkpt><trkpt lat="43.1241034" lon="12.3966145"><ele>294.0</ele><time>2026-04-19T11:13:39.858Z</time></trkpt><trkpt lat="43.124201" lon="12.3967188"><ele>290.2</ele><time>2026-04-19T11:13:40.859Z</time></trkpt><trkpt lat="43.1242907" lon="12.3968164"><ele>286.4</ele><time>2026-04-19T11:13:41.858Z</time></trkpt><trkpt lat="43.1243701" lon="12.3969148"><ele>282.6</ele><time>2026-04-19T11:13:42.858Z</time></trkpt><trkpt lat="43.1244204" lon="12.3970134"><ele>278.8</ele><time>2026-04-19T11:13:43.857Z</time></trkpt><trkpt lat="43.1244665" lon="12.3971214"><ele>275.0</ele><time>2026-04-19T11:13:44.858Z</time></trkpt><trkpt lat="43.1244853" lon="12.3972447"><ele>274.6</ele><time>2026-04-19T11:13:45.859Z</time></trkpt><trkpt lat="43.1244875" lon="12.3973801"><ele>274.2</ele><time>2026-04-19T11:13:46.857Z</time></trkpt><trkpt lat="43.1244861" lon="12.397517"><ele>273.8</ele><time>2026-04-19T11:13:47.858Z</time></trkpt><trkpt lat="43.124514" lon="12.3976523"><ele>273.4</ele><time>2026-04-19T11:13:48.857Z</time></trkpt><trkpt lat="43.1245735" lon="12.3977834"><ele>273.0</ele><time>2026-04-19T11:13:49.859Z</time></trkpt><trkpt lat="43.1246405" lon="12.3979035"><ele>271.0</ele><time>2026-04-19T11:13:50.859Z</time></trkpt><trkpt lat="43.1247146" lon="12.3980159"><ele>269.0</ele><time>2026-04-19T11:13:51.859Z</time></trkpt><trkpt lat="43.1248249" lon="12.3981089"><ele>267.0</ele><time>2026-04-19T11:13:52.858Z</time></trkpt><trkpt lat="43.1249674" lon="12.3981294"><ele>265.0</ele><time>2026-04-19T11:13:53.858Z</time></trkpt><trkpt lat="43.1251225" lon="12.39814"><ele>264.6</ele><time>2026-04-19T11:13:54.859Z</time></trkpt><trkpt lat="43.1252492" lon="12.3981646"><ele>264.2</ele><time>2026-04-19T11:13:55.859Z</time></trkpt><trkpt lat="43.1253488" lon="12.3982258"><ele>263.8</ele><time>2026-04-19T11:13:56.859Z</time></trkpt><trkpt lat="43.1254263" lon="12.3983077"><ele>263.4</ele><time>2026-04-19T11:13:57.857Z</time></trkpt><trkpt lat="43.1255059" lon="12.3984123"><ele>263.0</ele><time>2026-04-19T11:13:58.859Z</time></trkpt><trkpt lat="43.1255614" lon="12.3985474"><ele>263.0</ele><time>2026-04-19T11:13:59.859Z</time></trkpt><trkpt lat="43.1256055" lon="12.3987018"><ele>263.0</ele><time>2026-04-19T11:14:00.858Z</time></trkpt><trkpt lat="43.1256468" lon="12.3988594"><ele>263.0</ele><time>2026-04-19T11:14:01.858Z</time></trkpt><trkpt lat="43.1256787" lon="12.399019"><ele>263.0</ele><time>2026-04-19T11:14:02.859Z</time></trkpt><trkpt lat="43.1257078" lon="12.3991728"><ele>263.0</ele><time>2026-04-19T11:14:03.857Z</time></trkpt><trkpt lat="43.1257285" lon="12.3993387"><ele>263.0</ele><time>2026-04-19T11:14:04.858Z</time></trkpt><trkpt lat="43.1257427" lon="12.3994992"><ele>263.0</ele><time>2026-04-19T11:14:05.858Z</time></trkpt><trkpt lat="43.1257525" lon="12.3996468"><ele>263.0</ele><time>2026-04-19T11:14:06.858Z</time></trkpt><trkpt lat="43.1257569" lon="12.3997859"><ele>262.8</ele><time>2026-04-19T11:14:07.859Z</time></trkpt><trkpt lat="43.1257557" lon="12.399918"><ele>262.6</ele><time>2026-04-19T11:14:08.859Z</time></trkpt><trkpt lat="43.1257547" lon="12.4000618"><ele>262.4</ele><time>2026-04-19T11:14:09.858Z</time></trkpt><trkpt lat="43.1257379" lon="12.4002055"><ele>262.2</ele><time>2026-04-19T11:14:10.858Z</time></trkpt><trkpt lat="43.1257169" lon="12.4003629"><ele>262.0</ele><time>2026-04-19T11:14:11.859Z</time></trkpt><trkpt lat="43.1256894" lon="12.400524"><ele>262.0</ele><time>2026-04-19T11:14:12.859Z</time></trkpt><trkpt lat="43.1256556" lon="12.4006886"><ele>262.0</ele><time>2026-04-19T11:14:13.859Z</time></trkpt><trkpt lat="43.1256306" lon="12.4008549"><ele>262.0</ele><time>2026-04-19T11:14:14.858Z</time></trkpt><trkpt lat="43.1256144" lon="12.4010274"><ele>262.0</ele><time>2026-04-19T11:14:15.859Z</time></trkpt><trkpt lat="43.1255933" lon="12.4011889"><ele>261.75</ele><time>2026-04-19T11:14:16.858Z</time></trkpt><trkpt lat="43.1255717" lon="12.4013548"><ele>261.5</ele><time>2026-04-19T11:14:17.858Z</time></trkpt><trkpt lat="43.1255591" lon="12.4015315"><ele>261.25</ele><time>2026-04-19T11:14:18.858Z</time></trkpt><trkpt lat="43.1255406" lon="12.401702"><ele>261.0</ele><time>2026-04-19T11:14:19.858Z</time></trkpt><trkpt lat="43.1255233" lon="12.4018846"><ele>261.0</ele><time>2026-04-19T11:14:20.857Z</time></trkpt><trkpt lat="43.1255056" lon="12.4020649"><ele>261.0</ele><time>2026-04-19T11:14:21.857Z</time></trkpt><trkpt lat="43.1254941" lon="12.4022458"><ele>261.0</ele><time>2026-04-19T11:14:22.859Z</time></trkpt><trkpt lat="43.1254844" lon="12.4024329"><ele>261.0</ele><time>2026-04-19T11:14:23.858Z</time></trkpt><trkpt lat="43.1254725" lon="12.4026114"><ele>260.25</ele><time>2026-04-19T11:14:24.857Z</time></trkpt><trkpt lat="43.1254634" lon="12.4027976"><ele>259.5</ele><time>2026-04-19T11:14:25.858Z</time></trkpt><trkpt lat="43.1255047" lon="12.403002"><ele>258.75</ele><time>2026-04-19T11:14:26.859Z</time></trkpt><trkpt lat="43.1255231" lon="12.4031845"><ele>258.0</ele><time>2026-04-19T11:14:27.858Z</time></trkpt><trkpt lat="43.1255633" lon="12.4033714"><ele>257.5</ele><time>2026-04-19T11:14:28.857Z</time></trkpt><trkpt lat="43.1255968" lon="12.4035541"><ele>257.0</ele><time>2026-04-19T11:14:29.859Z</time></trkpt><trkpt lat="43.1256355" lon="12.4037238"><ele>256.5</ele><time>2026-04-19T11:14:30.859Z</time></trkpt><trkpt lat="43.1256887" lon="12.4038813"><ele>256.0</ele><time>2026-04-19T11:14:31.858Z</time></trkpt><trkpt lat="43.1257312" lon="12.4040422"><ele>256.25</ele><time>2026-04-19T11:14:32.857Z</time></trkpt><trkpt lat="43.1257843" lon="12.4042042"><ele>256.5</ele><time>2026-04-19T11:14:33.857Z</time></trkpt><trkpt lat="43.125825" lon="12.4043663"><ele>256.75</ele><time>2026-04-19T11:14:34.858Z</time></trkpt><trkpt lat="43.125873" lon="12.4045252"><ele>257.0</ele><time>2026-04-19T11:14:35.859Z</time></trkpt><trkpt lat="43.1259121" lon="12.4046818"><ele>257.0</ele><time>2026-04-19T11:14:36.859Z</time></trkpt><trkpt lat="43.1259492" lon="12.4048349"><ele>257.0</ele><time>2026-04-19T11:14:37.859Z</time></trkpt><trkpt lat="43.1259851" lon="12.4049881"><ele>257.0</ele><time>2026-04-19T11:14:38.858Z</time></trkpt><trkpt lat="43.1260192" lon="12.4051374"><ele>257.0</ele><time>2026-04-19T11:14:39.858Z</time></trkpt><trkpt lat="43.1260608" lon="12.4052794"><ele>257.0</ele><time>2026-04-19T11:14:40.858Z</time></trkpt><trkpt lat="43.1260972" lon="12.4054232"><ele>257.0</ele><time>2026-04-19T11:14:41.858Z</time></trkpt><trkpt lat="43.1261325" lon="12.405565"><ele>257.0</ele><time>2026-04-19T11:14:42.859Z</time></trkpt><trkpt lat="43.1261677" lon="12.4057061"><ele>257.0</ele><time>2026-04-19T11:14:43.858Z</time></trkpt><trkpt lat="43.1262041" lon="12.4058425"><ele>257.0</ele><time>2026-04-19T11:14:44.857Z</time></trkpt><trkpt lat="43.1262457" lon="12.4059897"><ele>256.0</ele><time>2026-04-19T11:14:45.858Z</time></trkpt><trkpt lat="43.1262881" lon="12.4061485"><ele>255.0</ele><time>2026-04-19T11:14:46.859Z</time></trkpt><trkpt lat="43.1263347" lon="12.4063266"><ele>254.0</ele><time>2026-04-19T11:14:47.858Z</time></trkpt><trkpt lat="43.1263844" lon="12.4065159"><ele>253.0</ele><time>2026-04-19T11:14:48.858Z</time></trkpt><trkpt lat="43.126437" lon="12.4067071"><ele>253.0</ele><time>2026-04-19T11:14:49.857Z</time></trkpt><trkpt lat="43.1264881" lon="12.4068929"><ele>253.0</ele><time>2026-04-19T11:14:50.858Z</time></trkpt><trkpt lat="43.1265391" lon="12.4070814"><ele>253.0</ele><time>2026-04-19T11:14:51.857Z</time></trkpt><trkpt lat="43.1265894" lon="12.4072616"><ele>253.0</ele><time>2026-04-19T11:14:52.858Z</time></trkpt><trkpt lat="43.1266417" lon="12.4074396"><ele>253.25</ele><time>2026-04-19T11:14:53.859Z</time></trkpt><trkpt lat="43.1266965" lon="12.4076088"><ele>253.5</ele><time>2026-04-19T11:14:54.858Z</time></trkpt><trkpt lat="43.126752" lon="12.4077792"><ele>253.75</ele><time>2026-04-19T11:14:55.858Z</time></trkpt><trkpt lat="43.126814" lon="12.4079466"><ele>254.0</ele><time>2026-04-19T11:14:56.858Z</time></trkpt><trkpt lat="43.1268765" lon="12.4081066"><ele>253.0</ele><time>2026-04-19T11:14:57.859Z</time></trkpt><trkpt lat="43.1269461" lon="12.4082723"><ele>252.0</ele><time>2026-04-19T11:14:58.857Z</time></trkpt><trkpt lat="43.1270041" lon="12.4084316"><ele>251.0</ele><time>2026-04-19T11:14:59.858Z</time></trkpt><trkpt lat="43.1270577" lon="12.4085849"><ele>250.0</ele><time>2026-04-19T11:15:00.859Z</time></trkpt><trkpt lat="43.1271325" lon="12.4087411"><ele>249.5</ele><time>2026-04-19T11:15:01.857Z</time></trkpt><trkpt lat="43.127194" lon="12.4089018"><ele>249.0</ele><time>2026-04-19T11:15:02.858Z</time></trkpt><trkpt lat="43.127257" lon="12.4090667"><ele>248.5</ele><time>2026-04-19T11:15:03.859Z</time></trkpt><trkpt lat="43.1273113" lon="12.4092224"><ele>248.0</ele><time>2026-04-19T11:15:04.857Z</time></trkpt><trkpt lat="43.127361" lon="12.4093952"><ele>249.25</ele><time>2026-04-19T11:15:05.858Z</time></trkpt><trkpt lat="43.1273984" lon="12.4095877"><ele>250.5</ele><time>2026-04-19T11:15:06.857Z</time></trkpt><trkpt lat="43.1274212" lon="12.4097691"><ele>251.75</ele><time>2026-04-19T11:15:07.859Z</time></trkpt><trkpt lat="43.1274276" lon="12.4099392"><ele>253.0</ele><time>2026-04-19T11:15:08.859Z</time></trkpt><trkpt lat="43.1274172" lon="12.4101125"><ele>253.0</ele><time>2026-04-19T11:15:09.858Z</time></trkpt><trkpt lat="43.1274063" lon="12.4102833"><ele>253.0</ele><time>2026-04-19T11:15:10.858Z</time></trkpt><trkpt lat="43.1273912" lon="12.4104572"><ele>253.0</ele><time>2026-04-19T11:15:11.857Z</time></trkpt><trkpt lat="43.1273767" lon="12.4106339"><ele>253.0</ele><time>2026-04-19T11:15:12.857Z</time></trkpt><trkpt lat="43.1273636" lon="12.4108097"><ele>251.0</ele><time>2026-04-19T11:15:13.858Z</time></trkpt><trkpt lat="43.1273485" lon="12.4109919"><ele>249.0</ele><time>2026-04-19T11:15:14.858Z</time></trkpt><trkpt lat="43.1273268" lon="12.4111894"><ele>247.0</ele><time>2026-04-19T11:15:15.857Z</time></trkpt><trkpt lat="43.1273036" lon="12.4113833"><ele>245.0</ele><time>2026-04-19T11:15:16.856Z</time></trkpt><trkpt lat="43.1272825" lon="12.4115724"><ele>244.5</ele><time>2026-04-19T11:15:17.858Z</time></trkpt><trkpt lat="43.1272614" lon="12.4117588"><ele>244.0</ele><time>2026-04-19T11:15:18.858Z</time></trkpt><trkpt lat="43.1272582" lon="12.4119441"><ele>243.5</ele><time>2026-04-19T11:15:19.857Z</time></trkpt><trkpt lat="43.1272532" lon="12.4121405"><ele>243.0</ele><time>2026-04-19T11:15:20.858Z</time></trkpt><trkpt lat="43.1272558" lon="12.4123471"><ele>242.25</ele><time>2026-04-19T11:15:21.858Z</time></trkpt><trkpt lat="43.1272672" lon="12.4125416"><ele>241.5</ele><time>2026-04-19T11:15:22.857Z</time></trkpt><trkpt lat="43.1272726" lon="12.4127387"><ele>240.75</ele><time>2026-04-19T11:15:23.858Z</time></trkpt><trkpt lat="43.1272826" lon="12.4129402"><ele>240.0</ele><time>2026-04-19T11:15:24.856Z</time></trkpt><trkpt lat="43.1272915" lon="12.4131401"><ele>239.5</ele><time>2026-04-19T11:15:25.858Z</time></trkpt><trkpt lat="43.1272989" lon="12.4133423"><ele>239.0</ele><time>2026-04-19T11:15:26.857Z</time></trkpt><trkpt lat="43.1273101" lon="12.4135451"><ele>238.5</ele><time>2026-04-19T11:15:27.856Z</time></trkpt><trkpt lat="43.1273215" lon="12.413743"><ele>238.0</ele><time>2026-04-19T11:15:28.858Z</time></trkpt><trkpt lat="43.127334" lon="12.4139311"><ele>237.5</ele><time>2026-04-19T11:15:29.858Z</time></trkpt><trkpt lat="43.1273495" lon="12.4141103"><ele>237.0</ele><time>2026-04-19T11:15:30.856Z</time></trkpt><trkpt lat="43.1273635" lon="12.4142909"><ele>236.5</ele><time>2026-04-19T11:15:31.857Z</time></trkpt><trkpt lat="43.1273783" lon="12.4144544"><ele>236.0</ele><time>2026-04-19T11:15:32.858Z</time></trkpt><trkpt lat="43.1273991" lon="12.4146291"><ele>238.5</ele><time>2026-04-19T11:15:33.857Z</time></trkpt><trkpt lat="43.1274257" lon="12.4148171"><ele>241.0</ele><time>2026-04-19T11:15:34.857Z</time></trkpt><trkpt lat="43.1274517" lon="12.4150176"><ele>243.5</ele><time>2026-04-19T11:15:35.857Z</time></trkpt><trkpt lat="43.1274736" lon="12.4152077"><ele>246.0</ele><time>2026-04-19T11:15:36.858Z</time></trkpt><trkpt lat="43.1274931" lon="12.4154017"><ele>244.5</ele><time>2026-04-19T11:15:37.858Z</time></trkpt><trkpt lat="43.1275208" lon="12.4156057"><ele>243.0</ele><time>2026-04-19T11:15:38.857Z</time></trkpt><trkpt lat="43.127546" lon="12.4158017"><ele>241.5</ele><time>2026-04-19T11:15:39.857Z</time></trkpt><trkpt lat="43.1275711" lon="12.4159873"><ele>240.0</ele><time>2026-04-19T11:15:40.857Z</time></trkpt><trkpt lat="43.1275992" lon="12.4161814"><ele>239.5</ele><time>2026-04-19T11:15:41.857Z</time></trkpt><trkpt lat="43.127624" lon="12.4163685"><ele>239.0</ele><time>2026-04-19T11:15:42.858Z</time></trkpt><trkpt lat="43.1276511" lon="12.4165479"><ele>238.5</ele><time>2026-04-19T11:15:43.858Z</time></trkpt><trkpt lat="43.1276848" lon="12.4167244"><ele>238.0</ele><time>2026-04-19T11:15:44.858Z</time></trkpt><trkpt lat="43.1277239" lon="12.4168922"><ele>238.0</ele><time>2026-04-19T11:15:45.857Z</time></trkpt><trkpt lat="43.1277611" lon="12.4170536"><ele>238.0</ele><time>2026-04-19T11:15:46.858Z</time></trkpt><trkpt lat="43.1278001" lon="12.4172171"><ele>238.0</ele><time>2026-04-19T11:15:47.857Z</time></trkpt><trkpt lat="43.1278469" lon="12.4173888"><ele>238.0</ele><time>2026-04-19T11:15:48.857Z</time></trkpt><trkpt lat="43.127899" lon="12.4175611"><ele>236.75</ele><time>2026-04-19T11:15:49.856Z</time></trkpt><trkpt lat="43.1279502" lon="12.4177367"><ele>235.5</ele><time>2026-04-19T11:15:50.858Z</time></trkpt><trkpt lat="43.1280001" lon="12.4179126"><ele>234.25</ele><time>2026-04-19T11:15:51.858Z</time></trkpt><trkpt lat="43.12805" lon="12.4180879"><ele>233.0</ele><time>2026-04-19T11:15:52.858Z</time></trkpt><trkpt lat="43.1280973" lon="12.4182696"><ele>233.33333333333334</ele><time>2026-04-19T11:15:53.858Z</time></trkpt><trkpt lat="43.1281481" lon="12.4184538"><ele>233.66666666666669</ele><time>2026-04-19T11:15:54.858Z</time></trkpt><trkpt lat="43.1282071" lon="12.4186579"><ele>234.0</ele><time>2026-04-19T11:15:55.857Z</time></trkpt><trkpt lat="43.1282745" lon="12.4188887"><ele>234.0</ele><time>2026-04-19T11:15:56.856Z</time></trkpt><trkpt lat="43.1283462" lon="12.4191368"><ele>234.0</ele><time>2026-04-19T11:15:57.856Z</time></trkpt><trkpt lat="43.1284259" lon="12.4194153"><ele>234.0</ele><time>2026-04-19T11:15:58.857Z</time></trkpt><trkpt lat="43.1285146" lon="12.4197159"><ele>230.0</ele><time>2026-04-19T11:15:59.857Z</time></trkpt><trkpt lat="43.1286033" lon="12.4200307"><ele>226.0</ele><time>2026-04-19T11:16:00.856Z</time></trkpt><trkpt lat="43.1286816" lon="12.4203392"><ele>223.5</ele><time>2026-04-19T11:16:01.857Z</time></trkpt><trkpt lat="43.1287512" lon="12.4206388"><ele>221.0</ele><time>2026-04-19T11:16:02.858Z</time></trkpt><trkpt lat="43.1288175" lon="12.4209288"><ele>221.0</ele><time>2026-04-19T11:16:03.858Z</time></trkpt><trkpt lat="43.1288789" lon="12.4212216"><ele>221.0</ele><time>2026-04-19T11:16:04.857Z</time></trkpt><trkpt lat="43.1289297" lon="12.4215125"><ele>221.0</ele><time>2026-04-19T11:16:05.857Z</time></trkpt><trkpt lat="43.1289593" lon="12.4218032"><ele>221.0</ele><time>2026-04-19T11:16:06.858Z</time></trkpt><trkpt lat="43.1289842" lon="12.4220923"><ele>221.0</ele><time>2026-04-19T11:16:07.857Z</time></trkpt><trkpt lat="43.1290041" lon="12.4223709"><ele>221.0</ele><time>2026-04-19T11:16:08.857Z</time></trkpt><trkpt lat="43.1290223" lon="12.4226368"><ele>221.66666666666669</ele><time>2026-04-19T11:16:09.857Z</time></trkpt><trkpt lat="43.1290413" lon="12.4228985"><ele>222.33333333333331</ele><time>2026-04-19T11:16:10.857Z</time></trkpt><trkpt lat="43.1290594" lon="12.4231617"><ele>223.0</ele><time>2026-04-19T11:16:11.858Z</time></trkpt><trkpt lat="43.1290743" lon="12.4234283"><ele>224.33333333333331</ele><time>2026-04-19T11:16:12.858Z</time></trkpt><trkpt lat="43.1290873" lon="12.423693"><ele>225.66666666666669</ele><time>2026-04-19T11:16:13.856Z</time></trkpt><trkpt lat="43.1290914" lon="12.4239632"><ele>227.0</ele><time>2026-04-19T11:16:14.858Z</time></trkpt><trkpt lat="43.1290938" lon="12.4242303"><ele>227.0</ele><time>2026-04-19T11:16:15.856Z</time></trkpt><trkpt lat="43.1290978" lon="12.4245042"><ele>227.0</ele><time>2026-04-19T11:16:16.857Z</time></trkpt><trkpt lat="43.1291083" lon="12.4247758"><ele>227.0</ele><time>2026-04-19T11:16:17.858Z</time></trkpt><trkpt lat="43.1291134" lon="12.4250487"><ele>226.0</ele><time>2026-04-19T11:16:18.858Z</time></trkpt><trkpt lat="43.1291146" lon="12.4253223"><ele>225.0</ele><time>2026-04-19T11:16:19.858Z</time></trkpt><trkpt lat="43.1291161" lon="12.4256017"><ele>224.0</ele><time>2026-04-19T11:16:20.856Z</time></trkpt><trkpt lat="43.1291185" lon="12.4258821"><ele>223.0</ele><time>2026-04-19T11:16:21.856Z</time></trkpt><trkpt lat="43.129122" lon="12.4261672"><ele>222.0</ele><time>2026-04-19T11:16:22.857Z</time></trkpt><trkpt lat="43.1291262" lon="12.426454"><ele>221.0</ele><time>2026-04-19T11:16:23.857Z</time></trkpt><trkpt lat="43.1291278" lon="12.4267389"><ele>220.33333333333334</ele><time>2026-04-19T11:16:24.857Z</time></trkpt><trkpt lat="43.1291335" lon="12.4270185"><ele>219.66666666666669</ele><time>2026-04-19T11:16:25.858Z</time></trkpt><trkpt lat="43.1291372" lon="12.4272912"><ele>219.0</ele><time>2026-04-19T11:16:26.857Z</time></trkpt><trkpt lat="43.1291407" lon="12.4275541"><ele>218.0</ele><time>2026-04-19T11:16:27.857Z</time></trkpt><trkpt lat="43.1291422" lon="12.4278092"><ele>217.0</ele><time>2026-04-19T11:16:28.857Z</time></trkpt><trkpt lat="43.1291448" lon="12.4280604"><ele>216.0</ele><time>2026-04-19T11:16:29.858Z</time></trkpt><trkpt lat="43.1291472" lon="12.4283043"><ele>215.33333333333331</ele><time>2026-04-19T11:16:30.858Z</time></trkpt><trkpt lat="43.1291514" lon="12.4285443"><ele>214.66666666666666</ele><time>2026-04-19T11:16:31.857Z</time></trkpt><trkpt lat="43.1291544" lon="12.4287892"><ele>214.0</ele><time>2026-04-19T11:16:32.857Z</time></trkpt><trkpt lat="43.129155" lon="12.4290299"><ele>213.33333333333331</ele><time>2026-04-19T11:16:33.857Z</time></trkpt><trkpt lat="43.1291491" lon="12.4292708"><ele>212.66666666666669</ele><time>2026-04-19T11:16:34.858Z</time></trkpt><trkpt lat="43.1291271" lon="12.4295088"><ele>212.0</ele><time>2026-04-19T11:16:35.858Z</time></trkpt><trkpt lat="43.1290927" lon="12.4297414"><ele>209.33333333333334</ele><time>2026-04-19T11:16:36.856Z</time></trkpt><trkpt lat="43.1290428" lon="12.4299679"><ele>206.66666666666669</ele><time>2026-04-19T11:16:37.858Z</time></trkpt><trkpt lat="43.128976" lon="12.4301837"><ele>204.0</ele><time>2026-04-19T11:16:38.857Z</time></trkpt><trkpt lat="43.1288951" lon="12.4303903"><ele>203.33333333333331</ele><time>2026-04-19T11:16:39.857Z</time></trkpt><trkpt lat="43.1288177" lon="12.430589"><ele>202.66666666666666</ele><time>2026-04-19T11:16:40.858Z</time></trkpt><trkpt lat="43.1287227" lon="12.4307934"><ele>202.0</ele><time>2026-04-19T11:16:41.858Z</time></trkpt><trkpt lat="43.1286329" lon="12.4310087"><ele>202.0</ele><time>2026-04-19T11:16:42.857Z</time></trkpt><trkpt lat="43.1285444" lon="12.4312237"><ele>202.0</ele><time>2026-04-19T11:16:43.858Z</time></trkpt><trkpt lat="43.1284468" lon="12.4314402"><ele>202.0</ele><time>2026-04-19T11:16:44.857Z</time></trkpt><trkpt lat="43.1283499" lon="12.4316592"><ele>202.33333333333331</ele><time>2026-04-19T11:16:45.858Z</time></trkpt><trkpt lat="43.1282518" lon="12.4318807"><ele>202.66666666666669</ele><time>2026-04-19T11:16:46.858Z</time></trkpt><trkpt lat="43.1281534" lon="12.4321036"><ele>203.0</ele><time>2026-04-19T11:16:47.858Z</time></trkpt><trkpt lat="43.1280507" lon="12.4323298"><ele>203.0</ele><time>2026-04-19T11:16:48.857Z</time></trkpt><trkpt lat="43.1279479" lon="12.4325619"><ele>203.0</ele><time>2026-04-19T11:16:49.856Z</time></trkpt><trkpt lat="43.1278479" lon="12.4327915"><ele>203.0</ele><time>2026-04-19T11:16:50.856Z</time></trkpt><trkpt lat="43.1277507" lon="12.4330135"><ele>201.0</ele><time>2026-04-19T11:16:51.856Z</time></trkpt><trkpt lat="43.1276601" lon="12.4332297"><ele>199.0</ele><time>2026-04-19T11:16:52.856Z</time></trkpt><trkpt lat="43.1275784" lon="12.4334112"><ele>197.0</ele><time>2026-04-19T11:16:53.856Z</time></trkpt><trkpt lat="43.1275078" lon="12.4335717"><ele>197.0</ele><time>2026-04-19T11:16:54.856Z</time></trkpt><trkpt lat="43.1274363" lon="12.4337268"><ele>197.0</ele><time>2026-04-19T11:16:55.856Z</time></trkpt><trkpt lat="43.1273731" lon="12.4338767"><ele>197.0</ele><time>2026-04-19T11:16:56.855Z</time></trkpt><trkpt lat="43.1273106" lon="12.4340198"><ele>197.0</ele><time>2026-04-19T11:16:57.856Z</time></trkpt><trkpt lat="43.1272455" lon="12.4341623"><ele>196.25</ele><time>2026-04-19T11:16:58.856Z</time></trkpt><trkpt lat="43.1271774" lon="12.4343069"><ele>195.5</ele><time>2026-04-19T11:16:59.856Z</time></trkpt><trkpt lat="43.1271039" lon="12.4344689"><ele>194.75</ele><time>2026-04-19T11:17:00.855Z</time></trkpt><trkpt lat="43.1270259" lon="12.4346498"><ele>194.0</ele><time>2026-04-19T11:17:01.856Z</time></trkpt><trkpt lat="43.1269444" lon="12.4348303"><ele>194.0</ele><time>2026-04-19T11:17:02.857Z</time></trkpt><trkpt lat="43.126859" lon="12.4350249"><ele>194.0</ele><time>2026-04-19T11:17:03.856Z</time></trkpt><trkpt lat="43.1267761" lon="12.4352145"><ele>194.0</ele><time>2026-04-19T11:17:04.856Z</time></trkpt><trkpt lat="43.1266973" lon="12.4353967"><ele>194.66666666666669</ele><time>2026-04-19T11:17:05.857Z</time></trkpt><trkpt lat="43.1266151" lon="12.4355895"><ele>195.33333333333331</ele><time>2026-04-19T11:17:06.857Z</time></trkpt><trkpt lat="43.1265239" lon="12.43579"><ele>196.0</ele><time>2026-04-19T11:17:07.856Z</time></trkpt><trkpt lat="43.126435" lon="12.4359867"><ele>196.33333333333331</ele><time>2026-04-19T11:17:08.856Z</time></trkpt><trkpt lat="43.1263497" lon="12.4361819"><ele>196.66666666666669</ele><time>2026-04-19T11:17:09.855Z</time></trkpt><trkpt lat="43.126263" lon="12.4363872"><ele>197.0</ele><time>2026-04-19T11:17:10.855Z</time></trkpt><trkpt lat="43.1261777" lon="12.4366119"><ele>197.0</ele><time>2026-04-19T11:17:11.857Z</time></trkpt><trkpt lat="43.1261012" lon="12.4368508"><ele>197.0</ele><time>2026-04-19T11:17:12.857Z</time></trkpt><trkpt lat="43.1260384" lon="12.43711"><ele>197.0</ele><time>2026-04-19T11:17:13.857Z</time></trkpt><trkpt lat="43.1259886" lon="12.4373888"><ele>196.66666666666669</ele><time>2026-04-19T11:17:14.855Z</time></trkpt><trkpt lat="43.1259565" lon="12.4376712"><ele>196.33333333333331</ele><time>2026-04-19T11:17:15.856Z</time></trkpt><trkpt lat="43.1259413" lon="12.4379517"><ele>196.0</ele><time>2026-04-19T11:17:16.856Z</time></trkpt><trkpt lat="43.1259376" lon="12.4382356"><ele>196.0</ele><time>2026-04-19T11:17:17.855Z</time></trkpt><trkpt lat="43.1259413" lon="12.438527"><ele>196.0</ele><time>2026-04-19T11:17:18.856Z</time></trkpt><trkpt lat="43.1259508" lon="12.4388182"><ele>196.0</ele><time>2026-04-19T11:17:19.857Z</time></trkpt><trkpt lat="43.1259541" lon="12.4390975"><ele>196.0</ele><time>2026-04-19T11:17:20.857Z</time></trkpt><trkpt lat="43.1259615" lon="12.4393677"><ele>196.0</ele><time>2026-04-19T11:17:21.857Z</time></trkpt><trkpt lat="43.1259645" lon="12.4396389"><ele>196.0</ele><time>2026-04-19T11:17:22.855Z</time></trkpt><trkpt lat="43.1259718" lon="12.439904"><ele>195.66666666666666</ele><time>2026-04-19T11:17:23.857Z</time></trkpt><trkpt lat="43.1259801" lon="12.4401719"><ele>195.33333333333331</ele><time>2026-04-19T11:17:24.856Z</time></trkpt><trkpt lat="43.1259849" lon="12.4404403"><ele>195.0</ele><time>2026-04-19T11:17:25.857Z</time></trkpt><trkpt lat="43.1259891" lon="12.4407107"><ele>195.33333333333331</ele><time>2026-04-19T11:17:26.856Z</time></trkpt><trkpt lat="43.1259927" lon="12.4409826"><ele>195.66666666666666</ele><time>2026-04-19T11:17:27.856Z</time></trkpt><trkpt lat="43.1260012" lon="12.4412631"><ele>196.0</ele><time>2026-04-19T11:17:28.855Z</time></trkpt><trkpt lat="43.1260055" lon="12.4415463"><ele>196.0</ele><time>2026-04-19T11:17:29.857Z</time></trkpt><trkpt lat="43.1260113" lon="12.4418359"><ele>196.0</ele><time>2026-04-19T11:17:30.857Z</time></trkpt><trkpt lat="43.1260145" lon="12.4421236"><ele>196.0</ele><time>2026-04-19T11:17:31.855Z</time></trkpt><trkpt lat="43.1260194" lon="12.4424028"><ele>196.0</ele><time>2026-04-19T11:17:32.857Z</time></trkpt><trkpt lat="43.1260277" lon="12.4426712"><ele>196.0</ele><time>2026-04-19T11:17:33.857Z</time></trkpt><trkpt lat="43.1260351" lon="12.4429298"><ele>196.0</ele><time>2026-04-19T11:17:34.855Z</time></trkpt><trkpt lat="43.1260396" lon="12.4431831"><ele>196.33333333333331</ele><time>2026-04-19T11:17:35.857Z</time></trkpt><trkpt lat="43.126046" lon="12.4434379"><ele>196.66666666666669</ele><time>2026-04-19T11:17:36.857Z</time></trkpt><trkpt lat="43.1260507" lon="12.4436974"><ele>197.0</ele><time>2026-04-19T11:17:37.857Z</time></trkpt><trkpt lat="43.1260559" lon="12.4439523"><ele>197.0</ele><time>2026-04-19T11:17:38.856Z</time></trkpt><trkpt lat="43.1260643" lon="12.4442105"><ele>197.0</ele><time>2026-04-19T11:17:39.856Z</time></trkpt><trkpt lat="43.1260677" lon="12.4444678"><ele>197.0</ele><time>2026-04-19T11:17:40.856Z</time></trkpt><trkpt lat="43.1260704" lon="12.4447138"><ele>196.66666666666669</ele><time>2026-04-19T11:17:41.857Z</time></trkpt><trkpt lat="43.1260742" lon="12.4449492"><ele>196.33333333333331</ele><time>2026-04-19T11:17:42.857Z</time></trkpt><trkpt lat="43.1260789" lon="12.4451756"><ele>196.0</ele><time>2026-04-19T11:17:43.856Z</time></trkpt><trkpt lat="43.1260895" lon="12.4454015"><ele>196.0</ele><time>2026-04-19T11:17:44.856Z</time></trkpt><trkpt lat="43.1260938" lon="12.4456316"><ele>196.0</ele><time>2026-04-19T11:17:45.856Z</time></trkpt><trkpt lat="43.1260953" lon="12.4458567"><ele>196.0</ele><time>2026-04-19T11:17:46.856Z</time></trkpt><trkpt lat="43.1260973" lon="12.4460707"><ele>196.0</ele><time>2026-04-19T11:17:47.856Z</time></trkpt><trkpt lat="43.1260991" lon="12.4462737"><ele>196.0</ele><time>2026-04-19T11:17:48.856Z</time></trkpt><trkpt lat="43.1261065" lon="12.446466"><ele>196.0</ele><time>2026-04-19T11:17:49.856Z</time></trkpt><trkpt lat="43.1261087" lon="12.4466641"><ele>196.0</ele><time>2026-04-19T11:17:50.856Z</time></trkpt><trkpt lat="43.1261154" lon="12.4468761"><ele>196.0</ele><time>2026-04-19T11:17:51.857Z</time></trkpt><trkpt lat="43.1261209" lon="12.4471011"><ele>196.0</ele><time>2026-04-19T11:17:52.856Z</time></trkpt><trkpt lat="43.1261274" lon="12.4473472"><ele>196.0</ele><time>2026-04-19T11:17:53.857Z</time></trkpt><trkpt lat="43.1261315" lon="12.4476076"><ele>196.0</ele><time>2026-04-19T11:17:54.855Z</time></trkpt><trkpt lat="43.1261396" lon="12.4478768"><ele>196.0</ele><time>2026-04-19T11:17:55.856Z</time></trkpt><trkpt lat="43.1261471" lon="12.4481358"><ele>196.0</ele><time>2026-04-19T11:17:56.856Z</time></trkpt><trkpt lat="43.1261548" lon="12.448391"><ele>196.33333333333331</ele><time>2026-04-19T11:17:57.856Z</time></trkpt><trkpt lat="43.1261624" lon="12.4486534"><ele>196.66666666666669</ele><time>2026-04-19T11:17:58.857Z</time></trkpt><trkpt lat="43.1261688" lon="12.4489142"><ele>197.0</ele><time>2026-04-19T11:17:59.857Z</time></trkpt><trkpt lat="43.1261735" lon="12.4491591"><ele>197.33333333333334</ele><time>2026-04-19T11:18:00.856Z</time></trkpt><trkpt lat="43.1261813" lon="12.4494134"><ele>197.66666666666669</ele><time>2026-04-19T11:18:01.857Z</time></trkpt><trkpt lat="43.1261891" lon="12.4496591"><ele>198.0</ele><time>2026-04-19T11:18:02.857Z</time></trkpt><trkpt lat="43.1261937" lon="12.4498893"><ele>198.0</ele><time>2026-04-19T11:18:03.857Z</time></trkpt><trkpt lat="43.1261971" lon="12.4501047"><ele>198.0</ele><time>2026-04-19T11:18:04.857Z</time></trkpt><trkpt lat="43.1261916" lon="12.4502986"><ele>198.0</ele><time>2026-04-19T11:18:05.857Z</time></trkpt><trkpt lat="43.1261835" lon="12.4504711"><ele>198.0</ele><time>2026-04-19T11:18:06.856Z</time></trkpt><trkpt lat="43.1261667" lon="12.4506213"><ele>198.0</ele><time>2026-04-19T11:18:07.855Z</time></trkpt><trkpt lat="43.1261483" lon="12.4507486"><ele>198.0</ele><time>2026-04-19T11:18:08.855Z</time></trkpt><trkpt lat="43.1261281" lon="12.4508578"><ele>198.0</ele><time>2026-04-19T11:18:09.856Z</time></trkpt><trkpt lat="43.1261" lon="12.4509418"><ele>198.0</ele><time>2026-04-19T11:18:10.856Z</time></trkpt><trkpt lat="43.1260252" lon="12.4510471"><ele>198.0</ele><time>2026-04-19T11:18:12.855Z</time></trkpt><trkpt lat="43.1258901" lon="12.4510769"><ele>198.0</ele><time>2026-04-19T11:18:14.856Z</time></trkpt><trkpt lat="43.1257981" lon="12.4510703"><ele>198.0</ele><time>2026-04-19T11:18:15.856Z</time></trkpt><trkpt lat="43.1256941" lon="12.4510658"><ele>198.0</ele><time>2026-04-19T11:18:16.857Z</time></trkpt><trkpt lat="43.125592" lon="12.4510679"><ele>198.0</ele><time>2026-04-19T11:18:17.857Z</time></trkpt><trkpt lat="43.1254946" lon="12.4510817"><ele>198.0</ele><time>2026-04-19T11:18:18.856Z</time></trkpt><trkpt lat="43.1254039" lon="12.4511313"><ele>198.0</ele><time>2026-04-19T11:18:19.856Z</time></trkpt><trkpt lat="43.1253281" lon="12.4511979"><ele>198.0</ele><time>2026-04-19T11:18:20.856Z</time></trkpt><trkpt lat="43.125269" lon="12.4512945"><ele>198.0</ele><time>2026-04-19T11:18:21.855Z</time></trkpt><trkpt lat="43.1252268" lon="12.4513988"><ele>198.0</ele><time>2026-04-19T11:18:22.855Z</time></trkpt><trkpt lat="43.1252001" lon="12.4515106"><ele>198.0</ele><time>2026-04-19T11:18:23.856Z</time></trkpt><trkpt lat="43.125185" lon="12.4516407"><ele>199.0</ele><time>2026-04-19T11:18:24.856Z</time></trkpt><trkpt lat="43.1251998" lon="12.4517504"><ele>200.0</ele><time>2026-04-19T11:18:25.856Z</time></trkpt><trkpt lat="43.1252266" lon="12.4518715"><ele>201.0</ele><time>2026-04-19T11:18:26.856Z</time></trkpt><trkpt lat="43.1253133" lon="12.4519315"><ele>202.0</ele><time>2026-04-19T11:18:27.857Z</time></trkpt><trkpt lat="43.1253994" lon="12.4520014"><ele>203.0</ele><time>2026-04-19T11:18:28.856Z</time></trkpt><trkpt lat="43.1255034" lon="12.4520474"><ele>203.0</ele><time>2026-04-19T11:18:29.857Z</time></trkpt><trkpt lat="43.1256265" lon="12.4520676"><ele>203.0</ele><time>2026-04-19T11:18:30.857Z</time></trkpt><trkpt lat="43.1257615" lon="12.4520724"><ele>203.0</ele><time>2026-04-19T11:18:31.854Z</time></trkpt><trkpt lat="43.1258902" lon="12.4520744"><ele>203.0</ele><time>2026-04-19T11:18:32.855Z</time></trkpt><trkpt lat="43.1260003" lon="12.4520832"><ele>203.00000000000003</ele><time>2026-04-19T11:18:33.855Z</time></trkpt><trkpt lat="43.126094" lon="12.4521126"><ele>203.0</ele><time>2026-04-19T11:18:34.856Z</time></trkpt><trkpt lat="43.1261623" lon="12.4521678"><ele>203.0</ele><time>2026-04-19T11:18:35.855Z</time></trkpt><trkpt lat="43.1262119" lon="12.4522436"><ele>203.0</ele><time>2026-04-19T11:18:36.856Z</time></trkpt><trkpt lat="43.1262304" lon="12.452347"><ele>203.00000000000003</ele><time>2026-04-19T11:18:37.856Z</time></trkpt><trkpt lat="43.1262302" lon="12.4524518"><ele>203.0</ele><time>2026-04-19T11:18:38.855Z</time></trkpt><trkpt lat="43.1261972" lon="12.4525403"><ele>203.8</ele><time>2026-04-19T11:18:39.855Z</time></trkpt><trkpt lat="43.1261498" lon="12.4526052"><ele>204.60000000000002</ele><time>2026-04-19T11:18:40.855Z</time></trkpt><trkpt lat="43.1260407" lon="12.4526678"><ele>205.39999999999998</ele><time>2026-04-19T11:18:42.856Z</time></trkpt><trkpt lat="43.1259728" lon="12.4526621"><ele>206.2</ele><time>2026-04-19T11:18:43.856Z</time></trkpt><trkpt lat="43.125883" lon="12.4526278"><ele>207.0</ele><time>2026-04-19T11:18:44.855Z</time></trkpt><trkpt lat="43.1257756" lon="12.4525669"><ele>209.75</ele><time>2026-04-19T11:18:45.856Z</time></trkpt><trkpt lat="43.1256712" lon="12.4525047"><ele>212.5</ele><time>2026-04-19T11:18:46.855Z</time></trkpt><trkpt lat="43.1255477" lon="12.4524316"><ele>215.25</ele><time>2026-04-19T11:18:47.855Z</time></trkpt><trkpt lat="43.1253992" lon="12.4523547"><ele>218.0</ele><time>2026-04-19T11:18:48.856Z</time></trkpt><trkpt lat="43.1252404" lon="12.4522776"><ele>218.0</ele><time>2026-04-19T11:18:49.856Z</time></trkpt><trkpt lat="43.1250823" lon="12.4522157"><ele>218.0</ele><time>2026-04-19T11:18:50.856Z</time></trkpt><trkpt lat="43.1249196" lon="12.4521548"><ele>218.0</ele><time>2026-04-19T11:18:51.854Z</time></trkpt><trkpt lat="43.1247567" lon="12.4520999"><ele>213.66666666666669</ele><time>2026-04-19T11:18:52.855Z</time></trkpt><trkpt lat="43.1245735" lon="12.4520563"><ele>209.33333333333331</ele><time>2026-04-19T11:18:53.855Z</time></trkpt><trkpt lat="43.1243799" lon="12.4520212"><ele>205.0</ele><time>2026-04-19T11:18:54.855Z</time></trkpt><trkpt lat="43.1241822" lon="12.4520129"><ele>205.33333333333331</ele><time>2026-04-19T11:18:55.856Z</time></trkpt><trkpt lat="43.1239855" lon="12.4520231"><ele>205.66666666666669</ele><time>2026-04-19T11:18:56.855Z</time></trkpt><trkpt lat="43.1237734" lon="12.4520433"><ele>206.0</ele><time>2026-04-19T11:18:57.854Z</time></trkpt><trkpt lat="43.1235575" lon="12.4520826"><ele>207.0</ele><time>2026-04-19T11:18:58.855Z</time></trkpt><trkpt lat="43.1233443" lon="12.4521378"><ele>208.0</ele><time>2026-04-19T11:18:59.855Z</time></trkpt><trkpt lat="43.1231306" lon="12.4521972"><ele>209.0</ele><time>2026-04-19T11:19:00.855Z</time></trkpt><trkpt lat="43.1229279" lon="12.4522617"><ele>209.0</ele><time>2026-04-19T11:19:01.854Z</time></trkpt><trkpt lat="43.1227351" lon="12.4523239"><ele>209.0</ele><time>2026-04-19T11:19:02.856Z</time></trkpt><trkpt lat="43.1225564" lon="12.4523893"><ele>209.0</ele><time>2026-04-19T11:19:03.854Z</time></trkpt><trkpt lat="43.1223863" lon="12.452425"><ele>209.66666666666669</ele><time>2026-04-19T11:19:04.855Z</time></trkpt><trkpt lat="43.1222152" lon="12.4524423"><ele>210.33333333333331</ele><time>2026-04-19T11:19:05.856Z</time></trkpt><trkpt lat="43.122034" lon="12.452425"><ele>211.0</ele><time>2026-04-19T11:19:06.856Z</time></trkpt><trkpt lat="43.121845" lon="12.4523744"><ele>211.0</ele><time>2026-04-19T11:19:07.855Z</time></trkpt><trkpt lat="43.1216587" lon="12.4523011"><ele>211.0</ele><time>2026-04-19T11:19:08.855Z</time></trkpt><trkpt lat="43.12148" lon="12.452232"><ele>211.0</ele><time>2026-04-19T11:19:09.856Z</time></trkpt><trkpt lat="43.1213104" lon="12.4521769"><ele>211.33333333333331</ele><time>2026-04-19T11:19:10.855Z</time></trkpt><trkpt lat="43.121128" lon="12.4521457"><ele>211.66666666666669</ele><time>2026-04-19T11:19:11.854Z</time></trkpt><trkpt lat="43.1209442" lon="12.4521312"><ele>212.0</ele><time>2026-04-19T11:19:12.856Z</time></trkpt><trkpt lat="43.1207762" lon="12.4521347"><ele>209.66666666666669</ele><time>2026-04-19T11:19:13.856Z</time></trkpt><trkpt lat="43.1205855" lon="12.4522066"><ele>207.33333333333331</ele><time>2026-04-19T11:19:14.855Z</time></trkpt><trkpt lat="43.1204034" lon="12.4522969"><ele>205.0</ele><time>2026-04-19T11:19:15.855Z</time></trkpt><trkpt lat="43.1202155" lon="12.4524273"><ele>205.0</ele><time>2026-04-19T11:19:16.854Z</time></trkpt><trkpt lat="43.1200327" lon="12.4525621"><ele>205.0</ele><time>2026-04-19T11:19:17.854Z</time></trkpt><trkpt lat="43.1198653" lon="12.4527027"><ele>205.0</ele><time>2026-04-19T11:19:18.855Z</time></trkpt><trkpt lat="43.1197103" lon="12.4528277"><ele>204.66666666666666</ele><time>2026-04-19T11:19:19.855Z</time></trkpt><trkpt lat="43.1195702" lon="12.4529394"><ele>204.33333333333331</ele><time>2026-04-19T11:19:20.855Z</time></trkpt><trkpt lat="43.1194308" lon="12.4530536"><ele>204.0</ele><time>2026-04-19T11:19:21.856Z</time></trkpt><trkpt lat="43.1192892" lon="12.4531693"><ele>204.0</ele><time>2026-04-19T11:19:22.856Z</time></trkpt><trkpt lat="43.1191465" lon="12.4532806"><ele>204.0</ele><time>2026-04-19T11:19:23.856Z</time></trkpt><trkpt lat="43.1190147" lon="12.4533855"><ele>204.0</ele><time>2026-04-19T11:19:24.856Z</time></trkpt><trkpt lat="43.118885" lon="12.4534809"><ele>202.75</ele><time>2026-04-19T11:19:25.856Z</time></trkpt><trkpt lat="43.1187554" lon="12.4535721"><ele>201.5</ele><time>2026-04-19T11:19:26.856Z</time></trkpt><trkpt lat="43.1186199" lon="12.453645"><ele>200.25</ele><time>2026-04-19T11:19:27.856Z</time></trkpt><trkpt lat="43.1184771" lon="12.4536964"><ele>199.0</ele><time>2026-04-19T11:19:28.856Z</time></trkpt><trkpt lat="43.1183264" lon="12.4537268"><ele>198.0</ele><time>2026-04-19T11:19:29.855Z</time></trkpt><trkpt lat="43.1181638" lon="12.4537312"><ele>197.0</ele><time>2026-04-19T11:19:30.854Z</time></trkpt><trkpt lat="43.1179929" lon="12.4537312"><ele>196.0</ele><time>2026-04-19T11:19:31.855Z</time></trkpt><trkpt lat="43.117809" lon="12.4537276"><ele>196.0</ele><time>2026-04-19T11:19:32.856Z</time></trkpt><trkpt lat="43.1176173" lon="12.4537204"><ele>196.0</ele><time>2026-04-19T11:19:33.856Z</time></trkpt><trkpt lat="43.1174174" lon="12.453716"><ele>196.0</ele><time>2026-04-19T11:19:34.855Z</time></trkpt><trkpt lat="43.1172205" lon="12.4537129"><ele>195.66666666666666</ele><time>2026-04-19T11:19:35.856Z</time></trkpt><trkpt lat="43.1170276" lon="12.4536992"><ele>195.33333333333331</ele><time>2026-04-19T11:19:36.855Z</time></trkpt><trkpt lat="43.1168339" lon="12.4536901"><ele>195.0</ele><time>2026-04-19T11:19:37.855Z</time></trkpt><trkpt lat="43.1166439" lon="12.4536752"><ele>195.0</ele><time>2026-04-19T11:19:38.856Z</time></trkpt><trkpt lat="43.1164635" lon="12.4536688"><ele>195.0</ele><time>2026-04-19T11:19:39.856Z</time></trkpt><trkpt lat="43.1162921" lon="12.4536614"><ele>195.0</ele><time>2026-04-19T11:19:40.856Z</time></trkpt><trkpt lat="43.1161291" lon="12.453654"><ele>195.0</ele><time>2026-04-19T11:19:41.856Z</time></trkpt><trkpt lat="43.1159706" lon="12.4536504"><ele>195.0</ele><time>2026-04-19T11:19:42.856Z</time></trkpt><trkpt lat="43.1158074" lon="12.4536644"><ele>195.0</ele><time>2026-04-19T11:19:43.856Z</time></trkpt><trkpt lat="43.1156414" lon="12.453699"><ele>194.66666666666669</ele><time>2026-04-19T11:19:44.855Z</time></trkpt><trkpt lat="43.1154757" lon="12.4537709"><ele>194.33333333333334</ele><time>2026-04-19T11:19:45.854Z</time></trkpt><trkpt lat="43.1153152" lon="12.4538834"><ele>194.0</ele><time>2026-04-19T11:19:46.854Z</time></trkpt><trkpt lat="43.1151584" lon="12.4540362"><ele>194.0</ele><time>2026-04-19T11:19:47.854Z</time></trkpt><trkpt lat="43.1150041" lon="12.4542104"><ele>194.0</ele><time>2026-04-19T11:19:48.854Z</time></trkpt><trkpt lat="43.1148662" lon="12.4543958"><ele>194.0</ele><time>2026-04-19T11:19:49.855Z</time></trkpt><trkpt lat="43.1147315" lon="12.4545676"><ele>194.33333333333334</ele><time>2026-04-19T11:19:50.855Z</time></trkpt><trkpt lat="43.1145863" lon="12.4547441"><ele>194.66666666666669</ele><time>2026-04-19T11:19:51.854Z</time></trkpt><trkpt lat="43.1144441" lon="12.4549231"><ele>195.0</ele><time>2026-04-19T11:19:52.855Z</time></trkpt><trkpt lat="43.1142972" lon="12.4551091"><ele>195.0</ele><time>2026-04-19T11:19:53.855Z</time></trkpt><trkpt lat="43.1141499" lon="12.4552956"><ele>195.0</ele><time>2026-04-19T11:19:54.856Z</time></trkpt><trkpt lat="43.1140091" lon="12.4554694"><ele>195.0</ele><time>2026-04-19T11:19:55.854Z</time></trkpt><trkpt lat="43.1138772" lon="12.4556386"><ele>194.0</ele><time>2026-04-19T11:19:56.854Z</time></trkpt><trkpt lat="43.1137531" lon="12.4558037"><ele>193.0</ele><time>2026-04-19T11:19:57.855Z</time></trkpt><trkpt lat="43.1136436" lon="12.4559702"><ele>192.0</ele><time>2026-04-19T11:19:58.854Z</time></trkpt><trkpt lat="43.1135547" lon="12.4561427"><ele>191.66666666666666</ele><time>2026-04-19T11:19:59.855Z</time></trkpt><trkpt lat="43.1134731" lon="12.456339"><ele>191.33333333333331</ele><time>2026-04-19T11:20:00.856Z</time></trkpt><trkpt lat="43.1134152" lon="12.4565439"><ele>191.0</ele><time>2026-04-19T11:20:01.855Z</time></trkpt><trkpt lat="43.1133782" lon="12.456751"><ele>191.0</ele><time>2026-04-19T11:20:02.855Z</time></trkpt><trkpt lat="43.1133607" lon="12.4569751"><ele>191.0</ele><time>2026-04-19T11:20:03.855Z</time></trkpt><trkpt lat="43.1133678" lon="12.4572035"><ele>191.0</ele><time>2026-04-19T11:20:04.856Z</time></trkpt><trkpt lat="43.1134018" lon="12.4574327"><ele>191.33333333333331</ele><time>2026-04-19T11:20:05.854Z</time></trkpt><trkpt lat="43.1134683" lon="12.457661"><ele>191.66666666666666</ele><time>2026-04-19T11:20:06.855Z</time></trkpt><trkpt lat="43.1135638" lon="12.4579096"><ele>192.0</ele><time>2026-04-19T11:20:07.855Z</time></trkpt><trkpt lat="43.1136722" lon="12.4581727"><ele>192.0</ele><time>2026-04-19T11:20:08.855Z</time></trkpt><trkpt lat="43.1137886" lon="12.4584537"><ele>192.0</ele><time>2026-04-19T11:20:09.856Z</time></trkpt><trkpt lat="43.1139095" lon="12.4587523"><ele>193.0</ele><time>2026-04-19T11:20:10.854Z</time></trkpt><trkpt lat="43.1140341" lon="12.4590684"><ele>194.0</ele><time>2026-04-19T11:20:11.856Z</time></trkpt><trkpt lat="43.1141545" lon="12.4593667"><ele>194.0</ele><time>2026-04-19T11:20:12.855Z</time></trkpt><trkpt lat="43.1142738" lon="12.4596596"><ele>194.0</ele><time>2026-04-19T11:20:13.856Z</time></trkpt><trkpt lat="43.1143991" lon="12.4599668"><ele>194.0</ele><time>2026-04-19T11:20:14.854Z</time></trkpt><trkpt lat="43.1145266" lon="12.4602837"><ele>194.0</ele><time>2026-04-19T11:20:15.855Z</time></trkpt><trkpt lat="43.1146591" lon="12.4606082"><ele>194.5</ele><time>2026-04-19T11:20:16.854Z</time></trkpt><trkpt lat="43.114791" lon="12.4609271"><ele>195.0</ele><time>2026-04-19T11:20:17.854Z</time></trkpt><trkpt lat="43.1149229" lon="12.4612447"><ele>195.0</ele><time>2026-04-19T11:20:18.855Z</time></trkpt><trkpt lat="43.1150522" lon="12.4615627"><ele>195.0</ele><time>2026-04-19T11:20:19.854Z</time></trkpt><trkpt lat="43.1151803" lon="12.4618808"><ele>195.0</ele><time>2026-04-19T11:20:20.854Z</time></trkpt><trkpt lat="43.1153088" lon="12.4621969"><ele>195.0</ele><time>2026-04-19T11:20:21.854Z</time></trkpt><trkpt lat="43.1154376" lon="12.462512"><ele>195.0</ele><time>2026-04-19T11:20:22.855Z</time></trkpt><trkpt lat="43.1155706" lon="12.4628316"><ele>195.0</ele><time>2026-04-19T11:20:23.855Z</time></trkpt><trkpt lat="43.1157057" lon="12.463158"><ele>196.0</ele><time>2026-04-19T11:20:24.855Z</time></trkpt><trkpt lat="43.1158429" lon="12.4634915"><ele>197.0</ele><time>2026-04-19T11:20:25.853Z</time></trkpt><trkpt lat="43.1159812" lon="12.463829"><ele>197.0</ele><time>2026-04-19T11:20:26.855Z</time></trkpt><trkpt lat="43.1161169" lon="12.4641636"><ele>197.0</ele><time>2026-04-19T11:20:27.855Z</time></trkpt><trkpt lat="43.1162448" lon="12.4644792"><ele>195.5</ele><time>2026-04-19T11:20:28.854Z</time></trkpt><trkpt lat="43.1163647" lon="12.4647771"><ele>194.0</ele><time>2026-04-19T11:20:29.854Z</time></trkpt><trkpt lat="43.1164869" lon="12.4650671"><ele>195.0</ele><time>2026-04-19T11:20:30.854Z</time></trkpt><trkpt lat="43.1166068" lon="12.4653625"><ele>196.0</ele><time>2026-04-19T11:20:31.854Z</time></trkpt><trkpt lat="43.1167275" lon="12.4656624"><ele>196.5</ele><time>2026-04-19T11:20:32.854Z</time></trkpt><trkpt lat="43.1168518" lon="12.4659663"><ele>197.0</ele><time>2026-04-19T11:20:33.854Z</time></trkpt><trkpt lat="43.1169789" lon="12.4662759"><ele>197.0</ele><time>2026-04-19T11:20:34.855Z</time></trkpt><trkpt lat="43.1171055" lon="12.4665906"><ele>197.0</ele><time>2026-04-19T11:20:35.854Z</time></trkpt><trkpt lat="43.1172341" lon="12.4669044"><ele>197.5</ele><time>2026-04-19T11:20:36.854Z</time></trkpt><trkpt lat="43.1173633" lon="12.4672216"><ele>198.0</ele><time>2026-04-19T11:20:37.855Z</time></trkpt><trkpt lat="43.1174941" lon="12.4675435"><ele>200.0</ele><time>2026-04-19T11:20:38.854Z</time></trkpt><trkpt lat="43.1176242" lon="12.4678596"><ele>202.0</ele><time>2026-04-19T11:20:39.854Z</time></trkpt><trkpt lat="43.1177538" lon="12.468171"><ele>203.0</ele><time>2026-04-19T11:20:40.854Z</time></trkpt><trkpt lat="43.1178694" lon="12.4684573"><ele>204.0</ele><time>2026-04-19T11:20:41.853Z</time></trkpt><trkpt lat="43.117973" lon="12.4687141"><ele>204.33333333333331</ele><time>2026-04-19T11:20:42.855Z</time></trkpt><trkpt lat="43.1180713" lon="12.4689566"><ele>204.66666666666666</ele><time>2026-04-19T11:20:43.855Z</time></trkpt><trkpt lat="43.1181614" lon="12.4691853"><ele>205.0</ele><time>2026-04-19T11:20:44.854Z</time></trkpt><trkpt lat="43.1182472" lon="12.4694052"><ele>205.66666666666666</ele><time>2026-04-19T11:20:45.854Z</time></trkpt><trkpt lat="43.1183389" lon="12.4696297"><ele>206.33333333333331</ele><time>2026-04-19T11:20:46.855Z</time></trkpt><trkpt lat="43.118432" lon="12.4698714"><ele>207.0</ele><time>2026-04-19T11:20:47.854Z</time></trkpt><trkpt lat="43.118533" lon="12.4701136"><ele>207.0</ele><time>2026-04-19T11:20:48.855Z</time></trkpt><trkpt lat="43.1186355" lon="12.4703543"><ele>207.0</ele><time>2026-04-19T11:20:49.853Z</time></trkpt><trkpt lat="43.1187448" lon="12.4706069"><ele>207.0</ele><time>2026-04-19T11:20:50.855Z</time></trkpt><trkpt lat="43.118859" lon="12.4708707"><ele>206.33333333333331</ele><time>2026-04-19T11:20:51.855Z</time></trkpt><trkpt lat="43.1189743" lon="12.471137"><ele>205.66666666666666</ele><time>2026-04-19T11:20:52.855Z</time></trkpt><trkpt lat="43.119089" lon="12.4713977"><ele>205.0</ele><time>2026-04-19T11:20:53.855Z</time></trkpt><trkpt lat="43.1192034" lon="12.4716614"><ele>204.5</ele><time>2026-04-19T11:20:54.854Z</time></trkpt><trkpt lat="43.1193192" lon="12.4719368"><ele>204.0</ele><time>2026-04-19T11:20:55.854Z</time></trkpt><trkpt lat="43.1194516" lon="12.4722019"><ele>203.0</ele><time>2026-04-19T11:20:56.853Z</time></trkpt><trkpt lat="43.1195959" lon="12.4724613"><ele>202.0</ele><time>2026-04-19T11:20:57.853Z</time></trkpt><trkpt lat="43.1197453" lon="12.472721"><ele>202.5</ele><time>2026-04-19T11:20:58.855Z</time></trkpt><trkpt lat="43.1198974" lon="12.4729801"><ele>203.0</ele><time>2026-04-19T11:20:59.855Z</time></trkpt><trkpt lat="43.1200522" lon="12.4732377"><ele>202.0</ele><time>2026-04-19T11:21:00.854Z</time></trkpt><trkpt lat="43.1202144" lon="12.4734958"><ele>201.0</ele><time>2026-04-19T11:21:01.853Z</time></trkpt><trkpt lat="43.1203731" lon="12.4737538"><ele>201.5</ele><time>2026-04-19T11:21:02.854Z</time></trkpt><trkpt lat="43.1205246" lon="12.474016"><ele>202.0</ele><time>2026-04-19T11:21:03.854Z</time></trkpt><trkpt lat="43.1206756" lon="12.4742708"><ele>203.0</ele><time>2026-04-19T11:21:04.855Z</time></trkpt><trkpt lat="43.1208237" lon="12.474516"><ele>204.0</ele><time>2026-04-19T11:21:05.854Z</time></trkpt><trkpt lat="43.1209692" lon="12.4747532"><ele>205.33333333333331</ele><time>2026-04-19T11:21:06.854Z</time></trkpt><trkpt lat="43.1211002" lon="12.4749782"><ele>206.66666666666666</ele><time>2026-04-19T11:21:07.854Z</time></trkpt><trkpt lat="43.1212267" lon="12.475184"><ele>208.0</ele><time>2026-04-19T11:21:08.855Z</time></trkpt><trkpt lat="43.1213386" lon="12.4753782"><ele>208.66666666666666</ele><time>2026-04-19T11:21:09.853Z</time></trkpt><trkpt lat="43.1214242" lon="12.4755746"><ele>209.33333333333331</ele><time>2026-04-19T11:21:10.854Z</time></trkpt><trkpt lat="43.1214788" lon="12.4757779"><ele>210.0</ele><time>2026-04-19T11:21:11.854Z</time></trkpt><trkpt lat="43.1214958" lon="12.4760018"><ele>210.0</ele><time>2026-04-19T11:21:12.854Z</time></trkpt><trkpt lat="43.1214738" lon="12.4762454"><ele>210.0</ele><time>2026-04-19T11:21:13.854Z</time></trkpt><trkpt lat="43.1214256" lon="12.4764848"><ele>210.0</ele><time>2026-04-19T11:21:14.853Z</time></trkpt><trkpt lat="43.1213602" lon="12.4767361"><ele>210.66666666666669</ele><time>2026-04-19T11:21:15.854Z</time></trkpt><trkpt lat="43.1212939" lon="12.4769931"><ele>211.33333333333334</ele><time>2026-04-19T11:21:16.854Z</time></trkpt><trkpt lat="43.1212303" lon="12.477231"><ele>212.0</ele><time>2026-04-19T11:21:17.855Z</time></trkpt><trkpt lat="43.1211675" lon="12.4774521"><ele>213.0</ele><time>2026-04-19T11:21:18.854Z</time></trkpt><trkpt lat="43.1211255" lon="12.4776656"><ele>214.0</ele><time>2026-04-19T11:21:19.854Z</time></trkpt><trkpt lat="43.1210977" lon="12.4778759"><ele>215.0</ele><time>2026-04-19T11:21:20.853Z</time></trkpt><trkpt lat="43.1210905" lon="12.4780901"><ele>216.0</ele><time>2026-04-19T11:21:21.855Z</time></trkpt><trkpt lat="43.1211119" lon="12.4783183"><ele>217.0</ele><time>2026-04-19T11:21:22.853Z</time></trkpt><trkpt lat="43.1211496" lon="12.4785521"><ele>218.0</ele><time>2026-04-19T11:21:23.854Z</time></trkpt><trkpt lat="43.1212009" lon="12.4787909"><ele>218.0</ele><time>2026-04-19T11:21:24.854Z</time></trkpt><trkpt lat="43.1212634" lon="12.4790223"><ele>218.0</ele><time>2026-04-19T11:21:25.855Z</time></trkpt><trkpt lat="43.1213382" lon="12.4792453"><ele>218.0</ele><time>2026-04-19T11:21:26.854Z</time></trkpt><trkpt lat="43.1214364" lon="12.4794662"><ele>218.66666666666669</ele><time>2026-04-19T11:21:27.854Z</time></trkpt><trkpt lat="43.1215363" lon="12.4796853"><ele>219.33333333333331</ele><time>2026-04-19T11:21:28.855Z</time></trkpt><trkpt lat="43.1216568" lon="12.4798896"><ele>220.0</ele><time>2026-04-19T11:21:29.855Z</time></trkpt><trkpt lat="43.1217736" lon="12.4800818"><ele>224.0</ele><time>2026-04-19T11:21:30.854Z</time></trkpt><trkpt lat="43.1218864" lon="12.4802595"><ele>228.0</ele><time>2026-04-19T11:21:31.855Z</time></trkpt><trkpt lat="43.1219839" lon="12.4804418"><ele>232.0</ele><time>2026-04-19T11:21:32.853Z</time></trkpt><trkpt lat="43.122068" lon="12.4806373"><ele>232.0</ele><time>2026-04-19T11:21:33.854Z</time></trkpt><trkpt lat="43.1221301" lon="12.4808456"><ele>232.0</ele><time>2026-04-19T11:21:34.855Z</time></trkpt><trkpt lat="43.1221781" lon="12.4810662"><ele>232.0</ele><time>2026-04-19T11:21:35.855Z</time></trkpt><trkpt lat="43.1222118" lon="12.4813004"><ele>232.0</ele><time>2026-04-19T11:21:36.854Z</time></trkpt><trkpt lat="43.1222492" lon="12.4815387"><ele>232.0</ele><time>2026-04-19T11:21:37.854Z</time></trkpt><trkpt lat="43.1222899" lon="12.481783"><ele>232.0</ele><time>2026-04-19T11:21:38.854Z</time></trkpt><trkpt lat="43.1223281" lon="12.4820323"><ele>232.0</ele><time>2026-04-19T11:21:39.854Z</time></trkpt><trkpt lat="43.122373" lon="12.4822839"><ele>232.0</ele><time>2026-04-19T11:21:40.855Z</time></trkpt><trkpt lat="43.1224193" lon="12.4825156"><ele>232.0</ele><time>2026-04-19T11:21:41.854Z</time></trkpt><trkpt lat="43.1224664" lon="12.4827524"><ele>237.66666666666666</ele><time>2026-04-19T11:21:42.854Z</time></trkpt><trkpt lat="43.1225235" lon="12.4829654"><ele>243.33333333333331</ele><time>2026-04-19T11:21:43.853Z</time></trkpt><trkpt lat="43.1225878" lon="12.4831696"><ele>249.0</ele><time>2026-04-19T11:21:44.853Z</time></trkpt><trkpt lat="43.1226699" lon="12.4833685"><ele>249.0</ele><time>2026-04-19T11:21:45.853Z</time></trkpt><trkpt lat="43.122753" lon="12.4835704"><ele>249.0</ele><time>2026-04-19T11:21:46.853Z</time></trkpt><trkpt lat="43.122849" lon="12.4837533"><ele>249.0</ele><time>2026-04-19T11:21:47.855Z</time></trkpt><trkpt lat="43.122967" lon="12.4839344"><ele>247.66666666666669</ele><time>2026-04-19T11:21:48.855Z</time></trkpt><trkpt lat="43.1230907" lon="12.4841175"><ele>246.33333333333334</ele><time>2026-04-19T11:21:49.855Z</time></trkpt><trkpt lat="43.1232199" lon="12.4843029"><ele>245.0</ele><time>2026-04-19T11:21:50.853Z</time></trkpt><trkpt lat="43.1233504" lon="12.4844955"><ele>250.0</ele><time>2026-04-19T11:21:51.855Z</time></trkpt><trkpt lat="43.12348" lon="12.4846823"><ele>255.0</ele><time>2026-04-19T11:21:52.855Z</time></trkpt><trkpt lat="43.123609" lon="12.4848673"><ele>260.0</ele><time>2026-04-19T11:21:53.854Z</time></trkpt><trkpt lat="43.1237364" lon="12.4850462"><ele>260.0</ele><time>2026-04-19T11:21:54.855Z</time></trkpt><trkpt lat="43.1238641" lon="12.4852266"><ele>260.0</ele><time>2026-04-19T11:21:55.854Z</time></trkpt><trkpt lat="43.1239994" lon="12.4854146"><ele>260.0</ele><time>2026-04-19T11:21:56.853Z</time></trkpt><trkpt lat="43.1241376" lon="12.4856114"><ele>262.33333333333337</ele><time>2026-04-19T11:21:57.854Z</time></trkpt><trkpt lat="43.1242762" lon="12.4858127"><ele>264.6666666666667</ele><time>2026-04-19T11:21:58.852Z</time></trkpt><trkpt lat="43.1244172" lon="12.486018"><ele>267.0</ele><time>2026-04-19T11:21:59.853Z</time></trkpt><trkpt lat="43.1245488" lon="12.4862097"><ele>269.0</ele><time>2026-04-19T11:22:00.854Z</time></trkpt><trkpt lat="43.1246835" lon="12.4864031"><ele>271.0</ele><time>2026-04-19T11:22:01.854Z</time></trkpt><trkpt lat="43.1248106" lon="12.4865709"><ele>273.0</ele><time>2026-04-19T11:22:02.853Z</time></trkpt><trkpt lat="43.1249592" lon="12.486719"><ele>273.0</ele><time>2026-04-19T11:22:03.852Z</time></trkpt><trkpt lat="43.1251218" lon="12.4868483"><ele>273.0</ele><time>2026-04-19T11:22:04.852Z</time></trkpt><trkpt lat="43.1252892" lon="12.4869708"><ele>273.0</ele><time>2026-04-19T11:22:05.853Z</time></trkpt><trkpt lat="43.1254572" lon="12.487071"><ele>274.3333333333333</ele><time>2026-04-19T11:22:06.854Z</time></trkpt><trkpt lat="43.1256393" lon="12.4871519"><ele>275.66666666666663</ele><time>2026-04-19T11:22:07.853Z</time></trkpt><trkpt lat="43.1258285" lon="12.487197"><ele>277.0</ele><time>2026-04-19T11:22:08.853Z</time></trkpt><trkpt lat="43.1260276" lon="12.4872074"><ele>277.0</ele><time>2026-04-19T11:22:09.853Z</time></trkpt><trkpt lat="43.1262006" lon="12.4872216"><ele>277.0</ele><time>2026-04-19T11:22:10.853Z</time></trkpt><trkpt lat="43.126364" lon="12.487249"><ele>277.0</ele><time>2026-04-19T11:22:11.853Z</time></trkpt><trkpt lat="43.1265174" lon="12.4873142"><ele>280.66666666666663</ele><time>2026-04-19T11:22:12.853Z</time></trkpt><trkpt lat="43.1266646" lon="12.4874135"><ele>284.3333333333333</ele><time>2026-04-19T11:22:13.853Z</time></trkpt><trkpt lat="43.1268017" lon="12.4875517"><ele>288.0</ele><time>2026-04-19T11:22:14.854Z</time></trkpt><trkpt lat="43.1269278" lon="12.4877318"><ele>287.6666666666667</ele><time>2026-04-19T11:22:15.854Z</time></trkpt><trkpt lat="43.1270391" lon="12.4879415"><ele>287.33333333333337</ele><time>2026-04-19T11:22:16.854Z</time></trkpt><trkpt lat="43.127122" lon="12.4881351"><ele>287.0</ele><time>2026-04-19T11:22:17.854Z</time></trkpt><trkpt lat="43.1271844" lon="12.4883208"><ele>287.0</ele><time>2026-04-19T11:22:18.854Z</time></trkpt><trkpt lat="43.1272173" lon="12.4884931"><ele>287.0</ele><time>2026-04-19T11:22:19.853Z</time></trkpt><trkpt lat="43.1272082" lon="12.4886498"><ele>287.0</ele><time>2026-04-19T11:22:20.854Z</time></trkpt><trkpt lat="43.1271501" lon="12.4887866"><ele>287.0</ele><time>2026-04-19T11:22:21.854Z</time></trkpt><trkpt lat="43.1270514" lon="12.4888925"><ele>287.75</ele><time>2026-04-19T11:22:22.854Z</time></trkpt><trkpt lat="43.126924" lon="12.4889641"><ele>288.5</ele><time>2026-04-19T11:22:23.853Z</time></trkpt><trkpt lat="43.1267794" lon="12.4890182"><ele>289.25</ele><time>2026-04-19T11:22:24.852Z</time></trkpt><trkpt lat="43.1266285" lon="12.4890686"><ele>290.0</ele><time>2026-04-19T11:22:25.853Z</time></trkpt><trkpt lat="43.1264898" lon="12.4891187"><ele>290.0</ele><time>2026-04-19T11:22:26.854Z</time></trkpt><trkpt lat="43.1263725" lon="12.4891733"><ele>290.0</ele><time>2026-04-19T11:22:27.854Z</time></trkpt><trkpt lat="43.1262567" lon="12.4892426"><ele>290.0</ele><time>2026-04-19T11:22:28.853Z</time></trkpt><trkpt lat="43.1261679" lon="12.4893507"><ele>290.0</ele><time>2026-04-19T11:22:29.852Z</time></trkpt><trkpt lat="43.1260882" lon="12.4894602"><ele>290.0</ele><time>2026-04-19T11:22:30.854Z</time></trkpt><trkpt lat="43.126035" lon="12.4895767"><ele>290.0</ele><time>2026-04-19T11:22:31.854Z</time></trkpt><trkpt lat="43.1259941" lon="12.4896934"><ele>290.0</ele><time>2026-04-19T11:22:32.854Z</time></trkpt><trkpt lat="43.1259745" lon="12.4898066"><ele>290.0</ele><time>2026-04-19T11:22:33.854Z</time></trkpt><trkpt lat="43.1259626" lon="12.4899168"><ele>290.0</ele><time>2026-04-19T11:22:34.854Z</time></trkpt><trkpt lat="43.1259453" lon="12.4900131"><ele>290.0</ele><time>2026-04-19T11:22:35.853Z</time></trkpt><trkpt lat="43.1259113" lon="12.4900883"><ele>290.8</ele><time>2026-04-19T11:22:36.853Z</time></trkpt><trkpt lat="43.1258183" lon="12.4901883"><ele>291.6</ele><time>2026-04-19T11:22:38.853Z</time></trkpt><trkpt lat="43.1257108" lon="12.4902377"><ele>292.4</ele><time>2026-04-19T11:22:40.852Z</time></trkpt><trkpt lat="43.1256428" lon="12.490249"><ele>293.2</ele><time>2026-04-19T11:22:41.852Z</time></trkpt><trkpt lat="43.1255596" lon="12.4902523"><ele>294.0</ele><time>2026-04-19T11:22:42.853Z</time></trkpt><trkpt lat="43.1254551" lon="12.4902628"><ele>294.0</ele><time>2026-04-19T11:22:43.854Z</time></trkpt><trkpt lat="43.1253518" lon="12.4902641"><ele>294.0</ele><time>2026-04-19T11:22:44.853Z</time></trkpt><trkpt lat="43.1252392" lon="12.4902706"><ele>294.0</ele><time>2026-04-19T11:22:45.854Z</time></trkpt><trkpt lat="43.1251007" lon="12.4902823"><ele>294.0</ele><time>2026-04-19T11:22:46.854Z</time></trkpt><trkpt lat="43.1249741" lon="12.490298"><ele>294.25</ele><time>2026-04-19T11:22:47.853Z</time></trkpt><trkpt lat="43.1248359" lon="12.4903024"><ele>294.5</ele><time>2026-04-19T11:22:48.853Z</time></trkpt><trkpt lat="43.1246918" lon="12.4903063"><ele>294.75</ele><time>2026-04-19T11:22:49.854Z</time></trkpt><trkpt lat="43.1245555" lon="12.4903178"><ele>295.0</ele><time>2026-04-19T11:22:50.854Z</time></trkpt><trkpt lat="43.1244353" lon="12.4903175"><ele>295.0</ele><time>2026-04-19T11:22:51.853Z</time></trkpt><trkpt lat="43.1243152" lon="12.4903301"><ele>295.0</ele><time>2026-04-19T11:22:52.854Z</time></trkpt><trkpt lat="43.1241811" lon="12.4903487"><ele>295.0</ele><time>2026-04-19T11:22:53.854Z</time></trkpt><trkpt lat="43.124035" lon="12.490384"><ele>295.0</ele><time>2026-04-19T11:22:54.854Z</time></trkpt><trkpt lat="43.1238935" lon="12.4904385"><ele>294.0</ele><time>2026-04-19T11:22:55.854Z</time></trkpt><trkpt lat="43.1237463" lon="12.4905091"><ele>293.0</ele><time>2026-04-19T11:22:56.852Z</time></trkpt><trkpt lat="43.123596" lon="12.490599"><ele>292.0</ele><time>2026-04-19T11:22:57.853Z</time></trkpt><trkpt lat="43.1234478" lon="12.490694"><ele>292.0</ele><time>2026-04-19T11:22:58.852Z</time></trkpt><trkpt lat="43.1232925" lon="12.4908097"><ele>292.0</ele><time>2026-04-19T11:22:59.852Z</time></trkpt><trkpt lat="43.1231229" lon="12.4909383"><ele>292.0</ele><time>2026-04-19T11:23:00.854Z</time></trkpt><trkpt lat="43.122947" lon="12.4910642"><ele>292.0</ele><time>2026-04-19T11:23:01.852Z</time></trkpt><trkpt lat="43.1227612" lon="12.4911968"><ele>292.0</ele><time>2026-04-19T11:23:02.854Z</time></trkpt><trkpt lat="43.1225729" lon="12.4913489"><ele>292.0</ele><time>2026-04-19T11:23:03.854Z</time></trkpt><trkpt lat="43.1223884" lon="12.4915204"><ele>290.0</ele><time>2026-04-19T11:23:04.852Z</time></trkpt><trkpt lat="43.1222137" lon="12.4917101"><ele>288.0</ele><time>2026-04-19T11:23:05.853Z</time></trkpt><trkpt lat="43.1220436" lon="12.4919089"><ele>286.0</ele><time>2026-04-19T11:23:06.853Z</time></trkpt><trkpt lat="43.1218794" lon="12.4920959"><ele>286.0</ele><time>2026-04-19T11:23:07.853Z</time></trkpt><trkpt lat="43.1217151" lon="12.4922837"><ele>286.0</ele><time>2026-04-19T11:23:08.853Z</time></trkpt><trkpt lat="43.1215617" lon="12.4924552"><ele>286.0</ele><time>2026-04-19T11:23:09.853Z</time></trkpt><trkpt lat="43.1214178" lon="12.4926239"><ele>284.66666666666663</ele><time>2026-04-19T11:23:10.853Z</time></trkpt><trkpt lat="43.1212941" lon="12.4927763"><ele>283.3333333333333</ele><time>2026-04-19T11:23:11.853Z</time></trkpt><trkpt lat="43.1211867" lon="12.4929316"><ele>282.0</ele><time>2026-04-19T11:23:12.854Z</time></trkpt><trkpt lat="43.1210833" lon="12.4930973"><ele>282.0</ele><time>2026-04-19T11:23:13.853Z</time></trkpt><trkpt lat="43.1209836" lon="12.4932802"><ele>282.0</ele><time>2026-04-19T11:23:14.854Z</time></trkpt><trkpt lat="43.1208938" lon="12.4934768"><ele>282.0</ele><time>2026-04-19T11:23:15.853Z</time></trkpt><trkpt lat="43.1208164" lon="12.4936714"><ele>282.25</ele><time>2026-04-19T11:23:16.853Z</time></trkpt><trkpt lat="43.1207405" lon="12.4938638"><ele>282.5</ele><time>2026-04-19T11:23:17.854Z</time></trkpt><trkpt lat="43.1206662" lon="12.4940378"><ele>282.75</ele><time>2026-04-19T11:23:18.852Z</time></trkpt><trkpt lat="43.1205935" lon="12.4941948"><ele>283.0</ele><time>2026-04-19T11:23:19.853Z</time></trkpt><trkpt lat="43.1205085" lon="12.4943347"><ele>281.66666666666663</ele><time>2026-04-19T11:23:20.852Z</time></trkpt><trkpt lat="43.1204016" lon="12.4944544"><ele>280.3333333333333</ele><time>2026-04-19T11:23:21.854Z</time></trkpt><trkpt lat="43.1202962" lon="12.4945718"><ele>279.0</ele><time>2026-04-19T11:23:22.854Z</time></trkpt><trkpt lat="43.1201628" lon="12.4947305"><ele>279.0</ele><time>2026-04-19T11:23:23.853Z</time></trkpt><trkpt lat="43.1200294" lon="12.4947852"><ele>279.0</ele><time>2026-04-19T11:23:24.852Z</time></trkpt><trkpt lat="43.1199157" lon="12.4948877"><ele>279.0</ele><time>2026-04-19T11:23:25.853Z</time></trkpt><trkpt lat="43.1198161" lon="12.4949985"><ele>279.0</ele><time>2026-04-19T11:23:26.854Z</time></trkpt><trkpt lat="43.1197252" lon="12.4951437"><ele>278.6666666666667</ele><time>2026-04-19T11:23:27.853Z</time></trkpt><trkpt lat="43.1196399" lon="12.4953123"><ele>278.33333333333337</ele><time>2026-04-19T11:23:28.854Z</time></trkpt><trkpt lat="43.1195624" lon="12.4955008"><ele>278.0</ele><time>2026-04-19T11:23:29.854Z</time></trkpt><trkpt lat="43.1194903" lon="12.4956768"><ele>278.0</ele><time>2026-04-19T11:23:30.853Z</time></trkpt><trkpt lat="43.1194184" lon="12.4958433"><ele>278.0</ele><time>2026-04-19T11:23:31.853Z</time></trkpt><trkpt lat="43.1193291" lon="12.496017"><ele>278.0</ele><time>2026-04-19T11:23:32.853Z</time></trkpt><trkpt lat="43.1192354" lon="12.4962024"><ele>277.6666666666667</ele><time>2026-04-19T11:23:33.852Z</time></trkpt><trkpt lat="43.1191375" lon="12.4963852"><ele>277.3333333333333</ele><time>2026-04-19T11:23:34.853Z</time></trkpt><trkpt lat="43.1190406" lon="12.4965706"><ele>277.0</ele><time>2026-04-19T11:23:35.854Z</time></trkpt><trkpt lat="43.1189537" lon="12.4967487"><ele>274.0</ele><time>2026-04-19T11:23:36.853Z</time></trkpt><trkpt lat="43.1188634" lon="12.4969251"><ele>271.0</ele><time>2026-04-19T11:23:37.852Z</time></trkpt><trkpt lat="43.1187767" lon="12.4970947"><ele>268.0</ele><time>2026-04-19T11:23:38.853Z</time></trkpt><trkpt lat="43.1186902" lon="12.4972617"><ele>268.0</ele><time>2026-04-19T11:23:39.852Z</time></trkpt><trkpt lat="43.1186009" lon="12.4974382"><ele>268.0</ele><time>2026-04-19T11:23:40.853Z</time></trkpt><trkpt lat="43.1185145" lon="12.4976106"><ele>268.0</ele><time>2026-04-19T11:23:41.853Z</time></trkpt><trkpt lat="43.1184283" lon="12.4977749"><ele>268.75</ele><time>2026-04-19T11:23:42.853Z</time></trkpt><trkpt lat="43.1183393" lon="12.4979358"><ele>269.5</ele><time>2026-04-19T11:23:43.852Z</time></trkpt><trkpt lat="43.118249" lon="12.4980861"><ele>270.25</ele><time>2026-04-19T11:23:44.852Z</time></trkpt><trkpt lat="43.1181514" lon="12.4982129"><ele>271.0</ele><time>2026-04-19T11:23:45.853Z</time></trkpt><trkpt lat="43.1180465" lon="12.4983454"><ele>268.0</ele><time>2026-04-19T11:23:46.853Z</time></trkpt><trkpt lat="43.1178951" lon="12.4984007"><ele>265.0</ele><time>2026-04-19T11:23:47.851Z</time></trkpt><trkpt lat="43.1177421" lon="12.4984724"><ele>262.0</ele><time>2026-04-19T11:23:48.853Z</time></trkpt><trkpt lat="43.1175737" lon="12.4985383"><ele>260.66666666666663</ele><time>2026-04-19T11:23:49.853Z</time></trkpt><trkpt lat="43.1173924" lon="12.4986084"><ele>259.3333333333333</ele><time>2026-04-19T11:23:50.851Z</time></trkpt><trkpt lat="43.1172001" lon="12.4986765"><ele>258.0</ele><time>2026-04-19T11:23:51.853Z</time></trkpt><trkpt lat="43.117016" lon="12.4987367"><ele>258.3333333333333</ele><time>2026-04-19T11:23:52.853Z</time></trkpt><trkpt lat="43.1168397" lon="12.4987976"><ele>258.66666666666663</ele><time>2026-04-19T11:23:53.852Z</time></trkpt><trkpt lat="43.11667" lon="12.4988573"><ele>259.0</ele><time>2026-04-19T11:23:54.852Z</time></trkpt><trkpt lat="43.116511" lon="12.4989136"><ele>259.0</ele><time>2026-04-19T11:23:55.852Z</time></trkpt><trkpt lat="43.1163614" lon="12.498968"><ele>259.0</ele><time>2026-04-19T11:23:56.851Z</time></trkpt><trkpt lat="43.1162172" lon="12.4990222"><ele>259.0</ele><time>2026-04-19T11:23:57.853Z</time></trkpt><trkpt lat="43.1160779" lon="12.4990671"><ele>259.0</ele><time>2026-04-19T11:23:58.852Z</time></trkpt><trkpt lat="43.1159339" lon="12.4990864"><ele>259.0</ele><time>2026-04-19T11:23:59.851Z</time></trkpt><trkpt lat="43.1157844" lon="12.499079"><ele>259.0</ele><time>2026-04-19T11:24:00.852Z</time></trkpt><trkpt lat="43.1156381" lon="12.4990382"><ele>259.0</ele><time>2026-04-19T11:24:01.852Z</time></trkpt><trkpt lat="43.1154883" lon="12.4989766"><ele>257.66666666666663</ele><time>2026-04-19T11:24:02.852Z</time></trkpt><trkpt lat="43.1153312" lon="12.4988976"><ele>256.3333333333333</ele><time>2026-04-19T11:24:03.852Z</time></trkpt><trkpt lat="43.1151684" lon="12.4988147"><ele>255.0</ele><time>2026-04-19T11:24:04.853Z</time></trkpt><trkpt lat="43.1149977" lon="12.4987325"><ele>254.33333333333331</ele><time>2026-04-19T11:24:05.853Z</time></trkpt><trkpt lat="43.11483" lon="12.4986557"><ele>253.66666666666666</ele><time>2026-04-19T11:24:06.853Z</time></trkpt><trkpt lat="43.114661" lon="12.4985685"><ele>253.0</ele><time>2026-04-19T11:24:07.853Z</time></trkpt><trkpt lat="43.1144966" lon="12.4984855"><ele>253.0</ele><time>2026-04-19T11:24:08.853Z</time></trkpt><trkpt lat="43.1143303" lon="12.4984047"><ele>253.0</ele><time>2026-04-19T11:24:09.853Z</time></trkpt><trkpt lat="43.1141527" lon="12.4983398"><ele>253.0</ele><time>2026-04-19T11:24:10.852Z</time></trkpt><trkpt lat="43.1139687" lon="12.4982857"><ele>253.66666666666666</ele><time>2026-04-19T11:24:11.852Z</time></trkpt><trkpt lat="43.1137836" lon="12.498247"><ele>254.33333333333331</ele><time>2026-04-19T11:24:12.852Z</time></trkpt><trkpt lat="43.1135907" lon="12.4982182"><ele>255.0</ele><time>2026-04-19T11:24:13.852Z</time></trkpt><trkpt lat="43.1134063" lon="12.4981916"><ele>256.3333333333333</ele><time>2026-04-19T11:24:14.851Z</time></trkpt><trkpt lat="43.11323" lon="12.4981683"><ele>257.66666666666663</ele><time>2026-04-19T11:24:15.851Z</time></trkpt><trkpt lat="43.1130483" lon="12.4981479"><ele>259.0</ele><time>2026-04-19T11:24:16.851Z</time></trkpt><trkpt lat="43.1128713" lon="12.4981265"><ele>259.0</ele><time>2026-04-19T11:24:17.851Z</time></trkpt><trkpt lat="43.1127043" lon="12.4981057"><ele>259.0</ele><time>2026-04-19T11:24:18.851Z</time></trkpt><trkpt lat="43.1125405" lon="12.4980859"><ele>259.0</ele><time>2026-04-19T11:24:19.852Z</time></trkpt><trkpt lat="43.11238" lon="12.4980641"><ele>258.3333333333333</ele><time>2026-04-19T11:24:20.853Z</time></trkpt><trkpt lat="43.1122164" lon="12.498042"><ele>257.6666666666667</ele><time>2026-04-19T11:24:21.853Z</time></trkpt><trkpt lat="43.1120503" lon="12.4980211"><ele>257.0</ele><time>2026-04-19T11:24:22.852Z</time></trkpt><trkpt lat="43.1118812" lon="12.4979883"><ele>257.0</ele><time>2026-04-19T11:24:23.853Z</time></trkpt><trkpt lat="43.1117096" lon="12.4979495"><ele>257.0</ele><time>2026-04-19T11:24:24.852Z</time></trkpt><trkpt lat="43.1115384" lon="12.4979076"><ele>257.0</ele><time>2026-04-19T11:24:25.853Z</time></trkpt><trkpt lat="43.1113769" lon="12.4978636"><ele>256.75</ele><time>2026-04-19T11:24:26.852Z</time></trkpt><trkpt lat="43.1112245" lon="12.4978229"><ele>256.5</ele><time>2026-04-19T11:24:27.852Z</time></trkpt><trkpt lat="43.1110799" lon="12.4977776"><ele>256.25</ele><time>2026-04-19T11:24:28.852Z</time></trkpt><trkpt lat="43.1109455" lon="12.49773"><ele>256.0</ele><time>2026-04-19T11:24:29.853Z</time></trkpt><trkpt lat="43.110822" lon="12.4976661"><ele>256.0</ele><time>2026-04-19T11:24:30.853Z</time></trkpt><trkpt lat="43.1107091" lon="12.4975936"><ele>256.0</ele><time>2026-04-19T11:24:31.853Z</time></trkpt><trkpt lat="43.1105964" lon="12.4975079"><ele>256.0</ele><time>2026-04-19T11:24:32.853Z</time></trkpt><trkpt lat="43.1104893" lon="12.4974102"><ele>256.0</ele><time>2026-04-19T11:24:33.851Z</time></trkpt><trkpt lat="43.1103787" lon="12.4973046"><ele>256.0</ele><time>2026-04-19T11:24:34.851Z</time></trkpt><trkpt lat="43.1102654" lon="12.4971945"><ele>256.0</ele><time>2026-04-19T11:24:35.851Z</time></trkpt><trkpt lat="43.1101516" lon="12.4970869"><ele>256.0</ele><time>2026-04-19T11:24:36.852Z</time></trkpt><trkpt lat="43.1100318" lon="12.496977"><ele>256.0</ele><time>2026-04-19T11:24:37.852Z</time></trkpt><trkpt lat="43.1099201" lon="12.4968574"><ele>256.2</ele><time>2026-04-19T11:24:38.851Z</time></trkpt><trkpt lat="43.1098114" lon="12.4967389"><ele>256.40000000000003</ele><time>2026-04-19T11:24:39.853Z</time></trkpt><trkpt lat="43.1097162" lon="12.4966301"><ele>256.6</ele><time>2026-04-19T11:24:40.852Z</time></trkpt><trkpt lat="43.1096385" lon="12.4965324"><ele>256.8</ele><time>2026-04-19T11:24:41.852Z</time></trkpt><trkpt lat="43.1095859" lon="12.4964623"><ele>257.0</ele><time>2026-04-19T11:24:42.851Z</time></trkpt><trkpt lat="43.1095223" lon="12.4964032"><ele>257.0</ele><time>2026-04-19T11:24:44.853Z</time></trkpt><trkpt lat="43.1094528" lon="12.4964574"><ele>257.0</ele><time>2026-04-19T11:24:47.852Z</time></trkpt><trkpt lat="43.1094077" lon="12.4965425"><ele>257.0</ele><time>2026-04-19T11:24:49.853Z</time></trkpt><trkpt lat="43.109374" lon="12.4966245"><ele>257.0</ele><time>2026-04-19T11:24:50.852Z</time></trkpt><trkpt lat="43.1093405" lon="12.4967054"><ele>257.0</ele><time>2026-04-19T11:24:51.851Z</time></trkpt><trkpt lat="43.1093044" lon="12.4968015"><ele>257.0</ele><time>2026-04-19T11:24:52.852Z</time></trkpt><trkpt lat="43.1092599" lon="12.4969106"><ele>257.0</ele><time>2026-04-19T11:24:53.853Z</time></trkpt><trkpt lat="43.1092084" lon="12.4970313"><ele>257.0</ele><time>2026-04-19T11:24:54.853Z</time></trkpt><trkpt lat="43.1091574" lon="12.4971446"><ele>257.0</ele><time>2026-04-19T11:24:55.853Z</time></trkpt><trkpt lat="43.1090933" lon="12.4972786"><ele>257.0</ele><time>2026-04-19T11:24:56.852Z</time></trkpt><trkpt lat="43.1090259" lon="12.4974414"><ele>255.0</ele><time>2026-04-19T11:24:57.852Z</time></trkpt><trkpt lat="43.1089563" lon="12.4976022"><ele>253.0</ele><time>2026-04-19T11:24:58.853Z</time></trkpt><trkpt lat="43.1088841" lon="12.4977641"><ele>251.0</ele><time>2026-04-19T11:24:59.852Z</time></trkpt><trkpt lat="43.1088038" lon="12.4979412"><ele>249.0</ele><time>2026-04-19T11:25:00.852Z</time></trkpt><trkpt lat="43.1087223" lon="12.4981326"><ele>247.33333333333331</ele><time>2026-04-19T11:25:01.852Z</time></trkpt><trkpt lat="43.1086453" lon="12.4983216"><ele>245.66666666666666</ele><time>2026-04-19T11:25:02.852Z</time></trkpt><trkpt lat="43.1085669" lon="12.4985075"><ele>244.0</ele><time>2026-04-19T11:25:03.853Z</time></trkpt><trkpt lat="43.1084903" lon="12.4986982"><ele>242.0</ele><time>2026-04-19T11:25:04.853Z</time></trkpt><trkpt lat="43.1084109" lon="12.4988819"><ele>240.0</ele><time>2026-04-19T11:25:05.852Z</time></trkpt><trkpt lat="43.1083344" lon="12.4990585"><ele>238.0</ele><time>2026-04-19T11:25:06.852Z</time></trkpt><trkpt lat="43.1082574" lon="12.4992408"><ele>237.0</ele><time>2026-04-19T11:25:07.853Z</time></trkpt><trkpt lat="43.1081805" lon="12.4994325"><ele>236.0</ele><time>2026-04-19T11:25:08.852Z</time></trkpt><trkpt lat="43.108097" lon="12.4996186"><ele>235.0</ele><time>2026-04-19T11:25:09.853Z</time></trkpt><trkpt lat="43.1080173" lon="12.499808"><ele>232.66666666666666</ele><time>2026-04-19T11:25:10.853Z</time></trkpt><trkpt lat="43.1079405" lon="12.4999933"><ele>230.33333333333331</ele><time>2026-04-19T11:25:11.853Z</time></trkpt><trkpt lat="43.107868" lon="12.5001771"><ele>228.0</ele><time>2026-04-19T11:25:12.851Z</time></trkpt><trkpt lat="43.1077935" lon="12.5003662"><ele>227.25</ele><time>2026-04-19T11:25:13.851Z</time></trkpt><trkpt lat="43.1077187" lon="12.5005467"><ele>226.5</ele><time>2026-04-19T11:25:14.852Z</time></trkpt><trkpt lat="43.1076484" lon="12.5007251"><ele>225.75</ele><time>2026-04-19T11:25:15.852Z</time></trkpt><trkpt lat="43.1075749" lon="12.500899"><ele>225.0</ele><time>2026-04-19T11:25:16.853Z</time></trkpt><trkpt lat="43.1075064" lon="12.5010714"><ele>225.0</ele><time>2026-04-19T11:25:17.853Z</time></trkpt><trkpt lat="43.1074384" lon="12.5012399"><ele>225.0</ele><time>2026-04-19T11:25:18.852Z</time></trkpt><trkpt lat="43.1073641" lon="12.501414"><ele>225.0</ele><time>2026-04-19T11:25:19.852Z</time></trkpt><trkpt lat="43.1072925" lon="12.5015978"><ele>225.0</ele><time>2026-04-19T11:25:20.852Z</time></trkpt><trkpt lat="43.1072246" lon="12.5017734"><ele>223.5</ele><time>2026-04-19T11:25:21.851Z</time></trkpt><trkpt lat="43.1071456" lon="12.501951"><ele>222.0</ele><time>2026-04-19T11:25:22.851Z</time></trkpt><trkpt lat="43.1070766" lon="12.5021293"><ele>220.5</ele><time>2026-04-19T11:25:23.852Z</time></trkpt><trkpt lat="43.107005" lon="12.5023052"><ele>219.0</ele><time>2026-04-19T11:25:24.852Z</time></trkpt><trkpt lat="43.1069416" lon="12.502465"><ele>218.79999999999998</ele><time>2026-04-19T11:25:25.852Z</time></trkpt><trkpt lat="43.1068953" lon="12.5026147"><ele>218.59999999999997</ele><time>2026-04-19T11:25:26.852Z</time></trkpt><trkpt lat="43.1068573" lon="12.502757"><ele>218.4</ele><time>2026-04-19T11:25:27.852Z</time></trkpt><trkpt lat="43.1068342" lon="12.5028588"><ele>218.2</ele><time>2026-04-19T11:25:28.851Z</time></trkpt><trkpt lat="43.1068075" lon="12.5029828"><ele>218.0</ele><time>2026-04-19T11:25:30.851Z</time></trkpt><trkpt lat="43.1067757" lon="12.5030677"><ele>217.50000000000003</ele><time>2026-04-19T11:25:53.851Z</time></trkpt><trkpt lat="43.1067054" lon="12.503059"><ele>217.0</ele><time>2026-04-19T11:25:55.851Z</time></trkpt><trkpt lat="43.1066391" lon="12.5030005"><ele>216.5</ele><time>2026-04-19T11:25:56.852Z</time></trkpt><trkpt lat="43.1065835" lon="12.5029503"><ele>216.0</ele><time>2026-04-19T11:25:57.851Z</time></trkpt><trkpt lat="43.1065237" lon="12.5029037"><ele>215.50000000000003</ele><time>2026-04-19T11:25:58.85Z</time></trkpt><trkpt lat="43.1064413" lon="12.5028526"><ele>215.0</ele><time>2026-04-19T11:25:59.852Z</time></trkpt><trkpt lat="43.1063653" lon="12.5027977"><ele>214.8</ele><time>2026-04-19T11:26:00.851Z</time></trkpt><trkpt lat="43.1062873" lon="12.5027366"><ele>214.6</ele><time>2026-04-19T11:26:01.851Z</time></trkpt><trkpt lat="43.1062059" lon="12.5026755"><ele>214.39999999999998</ele><time>2026-04-19T11:26:02.85Z</time></trkpt><trkpt lat="43.106119" lon="12.5025914"><ele>214.2</ele><time>2026-04-19T11:26:03.85Z</time></trkpt><trkpt lat="43.1060294" lon="12.5025153"><ele>214.0</ele><time>2026-04-19T11:26:04.851Z</time></trkpt><trkpt lat="43.105947" lon="12.502437"><ele>213.99999999999997</ele><time>2026-04-19T11:26:05.85Z</time></trkpt><trkpt lat="43.1058892" lon="12.5023684"><ele>214.0</ele><time>2026-04-19T11:26:06.85Z</time></trkpt><trkpt lat="43.10584" lon="12.5023079"><ele>214.0</ele><time>2026-04-19T11:26:08.85Z</time></trkpt><trkpt lat="43.1057811" lon="12.5022723"><ele>214.0</ele><time>2026-04-19T11:26:39.852Z</time></trkpt><trkpt lat="43.1056893" lon="12.502237"><ele>213.99999999999997</ele><time>2026-04-19T11:26:41.852Z</time></trkpt><trkpt lat="43.1055767" lon="12.502162"><ele>214.0</ele><time>2026-04-19T11:26:43.851Z</time></trkpt><trkpt lat="43.1055112" lon="12.5021092"><ele>213.83333333333331</ele><time>2026-04-19T11:26:44.852Z</time></trkpt><trkpt lat="43.1054371" lon="12.5020591"><ele>213.66666666666666</ele><time>2026-04-19T11:26:45.852Z</time></trkpt><trkpt lat="43.1053558" lon="12.5020047"><ele>213.5</ele><time>2026-04-19T11:26:46.851Z</time></trkpt><trkpt lat="43.1052708" lon="12.5019447"><ele>213.33333333333331</ele><time>2026-04-19T11:26:47.851Z</time></trkpt><trkpt lat="43.1051905" lon="12.5018859"><ele>213.16666666666666</ele><time>2026-04-19T11:26:48.851Z</time></trkpt><trkpt lat="43.1051157" lon="12.5018295"><ele>213.0</ele><time>2026-04-19T11:26:49.851Z</time></trkpt><trkpt lat="43.1050469" lon="12.5017831"><ele>213.0</ele><time>2026-04-19T11:26:50.85Z</time></trkpt><trkpt lat="43.1049842" lon="12.5017439"><ele>213.0</ele><time>2026-04-19T11:26:51.85Z</time></trkpt><trkpt lat="43.1049224" lon="12.5017016"><ele>213.0</ele><time>2026-04-19T11:26:52.85Z</time></trkpt><trkpt lat="43.1048626" lon="12.501651"><ele>213.0</ele><time>2026-04-19T11:26:53.852Z</time></trkpt><trkpt lat="43.1047948" lon="12.5015959"><ele>213.0</ele><time>2026-04-19T11:26:54.851Z</time></trkpt><trkpt lat="43.1047182" lon="12.5015425"><ele>213.0</ele><time>2026-04-19T11:26:55.852Z</time></trkpt><trkpt lat="43.1046394" lon="12.5014885"><ele>212.8</ele><time>2026-04-19T11:26:56.852Z</time></trkpt><trkpt lat="43.1045559" lon="12.5014318"><ele>212.60000000000002</ele><time>2026-04-19T11:26:57.852Z</time></trkpt><trkpt lat="43.1044704" lon="12.5013737"><ele>212.39999999999998</ele><time>2026-04-19T11:26:58.852Z</time></trkpt><trkpt lat="43.104384" lon="12.5013102"><ele>212.2</ele><time>2026-04-19T11:26:59.852Z</time></trkpt><trkpt lat="43.1042943" lon="12.5012456"><ele>212.0</ele><time>2026-04-19T11:27:00.851Z</time></trkpt><trkpt lat="43.1042047" lon="12.5011813"><ele>212.0</ele><time>2026-04-19T11:27:01.85Z</time></trkpt><trkpt lat="43.1041157" lon="12.5011191"><ele>212.0</ele><time>2026-04-19T11:27:02.85Z</time></trkpt><trkpt lat="43.1040271" lon="12.5010586"><ele>212.0</ele><time>2026-04-19T11:27:03.851Z</time></trkpt><trkpt lat="43.1039401" lon="12.5010029"><ele>212.0</ele><time>2026-04-19T11:27:04.85Z</time></trkpt><trkpt lat="43.1038537" lon="12.5009525"><ele>212.0</ele><time>2026-04-19T11:27:05.851Z</time></trkpt><trkpt lat="43.1037678" lon="12.5009113"><ele>211.50000000000003</ele><time>2026-04-19T11:27:06.85Z</time></trkpt><trkpt lat="43.1036826" lon="12.5008784"><ele>211.0</ele><time>2026-04-19T11:27:07.85Z</time></trkpt><trkpt lat="43.1035943" lon="12.5008422"><ele>210.5</ele><time>2026-04-19T11:27:08.851Z</time></trkpt><trkpt lat="43.1035149" lon="12.500816"><ele>210.0</ele><time>2026-04-19T11:27:09.851Z</time></trkpt><trkpt lat="43.1034312" lon="12.500787"><ele>209.50000000000003</ele><time>2026-04-19T11:27:10.849Z</time></trkpt><trkpt lat="43.1033554" lon="12.5007606"><ele>209.0</ele><time>2026-04-19T11:27:11.849Z</time></trkpt><trkpt lat="43.1032715" lon="12.5007346"><ele>208.50000000000003</ele><time>2026-04-19T11:27:12.851Z</time></trkpt><trkpt lat="43.1031867" lon="12.5007099"><ele>208.0</ele><time>2026-04-19T11:27:13.85Z</time></trkpt><trkpt lat="43.1031128" lon="12.5006811"><ele>207.5</ele><time>2026-04-19T11:27:14.85Z</time></trkpt><trkpt lat="43.1030343" lon="12.5006458"><ele>207.0</ele><time>2026-04-19T11:27:15.849Z</time></trkpt><trkpt lat="43.1029602" lon="12.5005979"><ele>206.50000000000003</ele><time>2026-04-19T11:27:16.85Z</time></trkpt><trkpt lat="43.1029044" lon="12.5005448"><ele>206.0</ele><time>2026-04-19T11:27:17.851Z</time></trkpt><trkpt lat="43.1028521" lon="12.5004814"><ele>206.00000000000003</ele><time>2026-04-19T11:27:18.851Z</time></trkpt><trkpt lat="43.1028053" lon="12.5004191"><ele>206.0</ele><time>2026-04-19T11:27:19.85Z</time></trkpt><trkpt lat="43.1027229" lon="12.5002847"><ele>206.0</ele><time>2026-04-19T11:27:21.85Z</time></trkpt><trkpt lat="43.1026695" lon="12.5002058"><ele>206.0</ele><time>2026-04-19T11:27:22.851Z</time></trkpt><trkpt lat="43.102608" lon="12.5001205"><ele>206.00000000000003</ele><time>2026-04-19T11:27:23.851Z</time></trkpt><trkpt lat="43.1025439" lon="12.5000408"><ele>206.0</ele><time>2026-04-19T11:27:24.851Z</time></trkpt><trkpt lat="43.1024735" lon="12.4999665"><ele>206.00000000000003</ele><time>2026-04-19T11:27:25.85Z</time></trkpt><trkpt lat="43.1024054" lon="12.4998958"><ele>206.0</ele><time>2026-04-19T11:27:26.85Z</time></trkpt><trkpt lat="43.1023358" lon="12.4998165"><ele>206.0</ele><time>2026-04-19T11:27:27.85Z</time></trkpt><trkpt lat="43.1022679" lon="12.4997397"><ele>206.0</ele><time>2026-04-19T11:27:28.85Z</time></trkpt><trkpt lat="43.1021984" lon="12.4996674"><ele>206.00000000000003</ele><time>2026-04-19T11:27:29.85Z</time></trkpt><trkpt lat="43.1021411" lon="12.4995938"><ele>206.0</ele><time>2026-04-19T11:27:30.85Z</time></trkpt><trkpt lat="43.1020883" lon="12.4995244"><ele>206.00000000000003</ele><time>2026-04-19T11:27:31.849Z</time></trkpt><trkpt lat="43.1020306" lon="12.4994567"><ele>206.0</ele><time>2026-04-19T11:27:32.85Z</time></trkpt><trkpt lat="43.1019664" lon="12.4993906"><ele>206.0</ele><time>2026-04-19T11:27:33.851Z</time></trkpt><trkpt lat="43.1018999" lon="12.4993206"><ele>206.0</ele><time>2026-04-19T11:27:34.851Z</time></trkpt><trkpt lat="43.1018313" lon="12.4992448"><ele>206.00000000000003</ele><time>2026-04-19T11:27:35.85Z</time></trkpt><trkpt lat="43.1017612" lon="12.499162"><ele>206.0</ele><time>2026-04-19T11:27:36.849Z</time></trkpt><trkpt lat="43.1016985" lon="12.4990805"><ele>206.00000000000003</ele><time>2026-04-19T11:27:37.85Z</time></trkpt><trkpt lat="43.1016387" lon="12.4989959"><ele>206.0</ele><time>2026-04-19T11:27:38.85Z</time></trkpt><trkpt lat="43.1015836" lon="12.4989128"><ele>206.0</ele><time>2026-04-19T11:27:39.85Z</time></trkpt><trkpt lat="43.1015274" lon="12.4988239"><ele>206.0</ele><time>2026-04-19T11:27:40.851Z</time></trkpt><trkpt lat="43.1014648" lon="12.498738"><ele>206.00000000000003</ele><time>2026-04-19T11:27:41.851Z</time></trkpt><trkpt lat="43.1014021" lon="12.4986555"><ele>206.0</ele><time>2026-04-19T11:27:42.851Z</time></trkpt><trkpt lat="43.1013341" lon="12.4985836"><ele>206.00000000000003</ele><time>2026-04-19T11:27:43.85Z</time></trkpt><trkpt lat="43.101267" lon="12.4985138"><ele>206.0</ele><time>2026-04-19T11:27:44.851Z</time></trkpt><trkpt lat="43.1012017" lon="12.4984476"><ele>206.0</ele><time>2026-04-19T11:27:45.851Z</time></trkpt><trkpt lat="43.1011315" lon="12.4983869"><ele>206.0</ele><time>2026-04-19T11:27:46.851Z</time></trkpt><trkpt lat="43.1010607" lon="12.4983261"><ele>206.00000000000003</ele><time>2026-04-19T11:27:47.851Z</time></trkpt><trkpt lat="43.1009889" lon="12.4982713"><ele>206.0</ele><time>2026-04-19T11:27:48.849Z</time></trkpt><trkpt lat="43.1009185" lon="12.4982251"><ele>206.00000000000003</ele><time>2026-04-19T11:27:49.849Z</time></trkpt><trkpt lat="43.1008475" lon="12.4981813"><ele>206.0</ele><time>2026-04-19T11:27:50.849Z</time></trkpt><trkpt lat="43.1007753" lon="12.4981393"><ele>206.0</ele><time>2026-04-19T11:27:51.849Z</time></trkpt><trkpt lat="43.1007033" lon="12.4981025"><ele>206.0</ele><time>2026-04-19T11:27:52.851Z</time></trkpt><trkpt lat="43.1006396" lon="12.4980696"><ele>206.00000000000003</ele><time>2026-04-19T11:27:53.849Z</time></trkpt><trkpt lat="43.1005324" lon="12.498008"><ele>206.0</ele><time>2026-04-19T11:27:55.85Z</time></trkpt><trkpt lat="43.1004111" lon="12.4979689"><ele>206.16666666666669</ele><time>2026-04-19T11:27:57.85Z</time></trkpt><trkpt lat="43.1003426" lon="12.4979526"><ele>206.33333333333334</ele><time>2026-04-19T11:27:58.851Z</time></trkpt><trkpt lat="43.100269" lon="12.4979316"><ele>206.5</ele><time>2026-04-19T11:27:59.851Z</time></trkpt><trkpt lat="43.1001913" lon="12.4979046"><ele>206.66666666666669</ele><time>2026-04-19T11:28:00.851Z</time></trkpt><trkpt lat="43.1001132" lon="12.4978729"><ele>206.83333333333334</ele><time>2026-04-19T11:28:01.85Z</time></trkpt><trkpt lat="43.1000333" lon="12.4978417"><ele>207.0</ele><time>2026-04-19T11:28:02.851Z</time></trkpt><trkpt lat="43.0999516" lon="12.4978004"><ele>206.66666666666666</ele><time>2026-04-19T11:28:03.85Z</time></trkpt><trkpt lat="43.0998709" lon="12.497759"><ele>206.33333333333331</ele><time>2026-04-19T11:28:04.85Z</time></trkpt><trkpt lat="43.0997911" lon="12.4977131"><ele>206.0</ele><time>2026-04-19T11:28:05.85Z</time></trkpt><trkpt lat="43.0997132" lon="12.4976702"><ele>205.66666666666666</ele><time>2026-04-19T11:28:06.85Z</time></trkpt><trkpt lat="43.099633" lon="12.497633"><ele>205.33333333333331</ele><time>2026-04-19T11:28:07.849Z</time></trkpt><trkpt lat="43.0995562" lon="12.4975908"><ele>205.0</ele><time>2026-04-19T11:28:08.85Z</time></trkpt><trkpt lat="43.0994761" lon="12.4975409"><ele>205.0</ele><time>2026-04-19T11:28:09.85Z</time></trkpt><trkpt lat="43.0993949" lon="12.4974861"><ele>205.0</ele><time>2026-04-19T11:28:10.849Z</time></trkpt><trkpt lat="43.0993168" lon="12.4974299"><ele>205.0</ele><time>2026-04-19T11:28:11.85Z</time></trkpt><trkpt lat="43.0992367" lon="12.4973629"><ele>205.0</ele><time>2026-04-19T11:28:12.85Z</time></trkpt><trkpt lat="43.0991584" lon="12.4972921"><ele>205.0</ele><time>2026-04-19T11:28:13.849Z</time></trkpt><trkpt lat="43.0990745" lon="12.4972141"><ele>204.8</ele><time>2026-04-19T11:28:14.85Z</time></trkpt><trkpt lat="43.0989898" lon="12.4971352"><ele>204.6</ele><time>2026-04-19T11:28:15.851Z</time></trkpt><trkpt lat="43.0989098" lon="12.4970539"><ele>204.39999999999998</ele><time>2026-04-19T11:28:16.851Z</time></trkpt><trkpt lat="43.0988303" lon="12.4969795"><ele>204.2</ele><time>2026-04-19T11:28:17.85Z</time></trkpt><trkpt lat="43.0987476" lon="12.4969173"><ele>204.0</ele><time>2026-04-19T11:28:18.85Z</time></trkpt><trkpt lat="43.0986643" lon="12.4968489"><ele>204.0</ele><time>2026-04-19T11:28:19.85Z</time></trkpt><trkpt lat="43.0985896" lon="12.4967717"><ele>204.0</ele><time>2026-04-19T11:28:20.85Z</time></trkpt><trkpt lat="43.0985054" lon="12.4967018"><ele>204.0</ele><time>2026-04-19T11:28:21.85Z</time></trkpt><trkpt lat="43.0984299" lon="12.4966295"><ele>204.0</ele><time>2026-04-19T11:28:22.849Z</time></trkpt><trkpt lat="43.0983512" lon="12.4965648"><ele>204.0</ele><time>2026-04-19T11:28:23.851Z</time></trkpt><trkpt lat="43.0982648" lon="12.496506"><ele>204.0</ele><time>2026-04-19T11:28:24.851Z</time></trkpt><trkpt lat="43.0981793" lon="12.4964589"><ele>204.0</ele><time>2026-04-19T11:28:25.849Z</time></trkpt><trkpt lat="43.0981069" lon="12.4964147"><ele>204.0</ele><time>2026-04-19T11:28:26.85Z</time></trkpt><trkpt lat="43.0980419" lon="12.4963656"><ele>204.0</ele><time>2026-04-19T11:28:27.849Z</time></trkpt><trkpt lat="43.0979806" lon="12.4963211"><ele>204.0</ele><time>2026-04-19T11:28:28.85Z</time></trkpt><trkpt lat="43.0979094" lon="12.4962783"><ele>204.0</ele><time>2026-04-19T11:28:29.851Z</time></trkpt><trkpt lat="43.0978231" lon="12.4962402"><ele>203.79999999999998</ele><time>2026-04-19T11:28:30.851Z</time></trkpt><trkpt lat="43.0977319" lon="12.4962118"><ele>203.6</ele><time>2026-04-19T11:28:31.851Z</time></trkpt><trkpt lat="43.0976392" lon="12.4962018"><ele>203.4</ele><time>2026-04-19T11:28:32.849Z</time></trkpt><trkpt lat="43.0975533" lon="12.4961927"><ele>203.2</ele><time>2026-04-19T11:28:33.849Z</time></trkpt><trkpt lat="43.0974617" lon="12.4961915"><ele>203.0</ele><time>2026-04-19T11:28:34.85Z</time></trkpt><trkpt lat="43.0973701" lon="12.4961816"><ele>203.00000000000003</ele><time>2026-04-19T11:28:35.849Z</time></trkpt><trkpt lat="43.0972852" lon="12.4961672"><ele>203.0</ele><time>2026-04-19T11:28:36.851Z</time></trkpt><trkpt lat="43.0972079" lon="12.4961447"><ele>203.0</ele><time>2026-04-19T11:28:37.851Z</time></trkpt><trkpt lat="43.0971311" lon="12.496099"><ele>203.0</ele><time>2026-04-19T11:28:38.85Z</time></trkpt><trkpt lat="43.0970592" lon="12.4960468"><ele>203.00000000000003</ele><time>2026-04-19T11:28:39.851Z</time></trkpt><trkpt lat="43.0969832" lon="12.4959874"><ele>203.0</ele><time>2026-04-19T11:28:40.851Z</time></trkpt><trkpt lat="43.096908" lon="12.4959258"><ele>203.00000000000003</ele><time>2026-04-19T11:28:41.85Z</time></trkpt><trkpt lat="43.0968367" lon="12.4958583"><ele>203.0</ele><time>2026-04-19T11:28:42.85Z</time></trkpt><trkpt lat="43.0967699" lon="12.4958015"><ele>203.0</ele><time>2026-04-19T11:28:43.85Z</time></trkpt><trkpt lat="43.0967009" lon="12.4957358"><ele>203.0</ele><time>2026-04-19T11:28:44.849Z</time></trkpt><trkpt lat="43.096631" lon="12.4956737"><ele>203.00000000000003</ele><time>2026-04-19T11:28:45.849Z</time></trkpt><trkpt lat="43.0965671" lon="12.4956214"><ele>203.0</ele><time>2026-04-19T11:28:46.849Z</time></trkpt><trkpt lat="43.0964911" lon="12.4955688"><ele>203.2</ele><time>2026-04-19T11:28:47.85Z</time></trkpt><trkpt lat="43.0964063" lon="12.4955119"><ele>203.4</ele><time>2026-04-19T11:28:48.848Z</time></trkpt><trkpt lat="43.0963152" lon="12.4954474"><ele>203.6</ele><time>2026-04-19T11:28:49.849Z</time></trkpt><trkpt lat="43.0962226" lon="12.4953818"><ele>203.79999999999998</ele><time>2026-04-19T11:28:50.849Z</time></trkpt><trkpt lat="43.096133" lon="12.4953154"><ele>204.0</ele><time>2026-04-19T11:28:51.849Z</time></trkpt><trkpt lat="43.0960531" lon="12.4952545"><ele>204.0</ele><time>2026-04-19T11:28:52.849Z</time></trkpt><trkpt lat="43.0959688" lon="12.495193"><ele>204.0</ele><time>2026-04-19T11:28:53.85Z</time></trkpt><trkpt lat="43.0958818" lon="12.4951255"><ele>204.0</ele><time>2026-04-19T11:28:54.849Z</time></trkpt><trkpt lat="43.0958079" lon="12.4950662"><ele>204.0</ele><time>2026-04-19T11:28:55.848Z</time></trkpt><trkpt lat="43.0957357" lon="12.4950185"><ele>204.0</ele><time>2026-04-19T11:28:56.848Z</time></trkpt><trkpt lat="43.0956697" lon="12.4949698"><ele>204.0</ele><time>2026-04-19T11:28:57.85Z</time></trkpt><trkpt lat="43.0956113" lon="12.4949281"><ele>203.66666666666666</ele><time>2026-04-19T11:28:58.85Z</time></trkpt><trkpt lat="43.0955309" lon="12.494881"><ele>203.33333333333331</ele><time>2026-04-19T11:29:00.85Z</time></trkpt><trkpt lat="43.0954463" lon="12.4949104"><ele>203.0</ele><time>2026-04-19T11:29:04.849Z</time></trkpt><trkpt lat="43.0954135" lon="12.4949893"><ele>202.66666666666666</ele><time>2026-04-19T11:29:05.85Z</time></trkpt><trkpt lat="43.095375" lon="12.4950849"><ele>202.33333333333331</ele><time>2026-04-19T11:29:06.849Z</time></trkpt><trkpt lat="43.0953357" lon="12.4951881"><ele>202.0</ele><time>2026-04-19T11:29:07.849Z</time></trkpt><trkpt lat="43.0952822" lon="12.4953105"><ele>201.5</ele><time>2026-04-19T11:29:08.849Z</time></trkpt><trkpt lat="43.095224" lon="12.4954496"><ele>201.0</ele><time>2026-04-19T11:29:09.849Z</time></trkpt><trkpt lat="43.0951578" lon="12.4955979"><ele>200.5</ele><time>2026-04-19T11:29:10.848Z</time></trkpt><trkpt lat="43.0950902" lon="12.4957692"><ele>200.0</ele><time>2026-04-19T11:29:11.849Z</time></trkpt><trkpt lat="43.0950179" lon="12.4959596"><ele>200.0</ele><time>2026-04-19T11:29:12.848Z</time></trkpt><trkpt lat="43.0949441" lon="12.4961525"><ele>200.0</ele><time>2026-04-19T11:29:13.848Z</time></trkpt><trkpt lat="43.0948577" lon="12.4963668"><ele>200.0</ele><time>2026-04-19T11:29:14.848Z</time></trkpt><trkpt lat="43.0947742" lon="12.4965811"><ele>200.66666666666669</ele><time>2026-04-19T11:29:15.849Z</time></trkpt><trkpt lat="43.0946915" lon="12.4967992"><ele>201.33333333333331</ele><time>2026-04-19T11:29:16.85Z</time></trkpt><trkpt lat="43.094605" lon="12.4970154"><ele>202.0</ele><time>2026-04-19T11:29:17.85Z</time></trkpt><trkpt lat="43.0945271" lon="12.4972176"><ele>202.0</ele><time>2026-04-19T11:29:18.848Z</time></trkpt><trkpt lat="43.0944489" lon="12.4974184"><ele>202.0</ele><time>2026-04-19T11:29:19.849Z</time></trkpt><trkpt lat="43.0943737" lon="12.4976054"><ele>202.0</ele><time>2026-04-19T11:29:20.849Z</time></trkpt><trkpt lat="43.0943017" lon="12.4977828"><ele>202.0</ele><time>2026-04-19T11:29:21.849Z</time></trkpt><trkpt lat="43.0942369" lon="12.4979538"><ele>202.0</ele><time>2026-04-19T11:29:22.849Z</time></trkpt><trkpt lat="43.0941755" lon="12.4981101"><ele>202.0</ele><time>2026-04-19T11:29:23.849Z</time></trkpt><trkpt lat="43.0941189" lon="12.4982506"><ele>202.0</ele><time>2026-04-19T11:29:24.848Z</time></trkpt><trkpt lat="43.0940679" lon="12.4983653"><ele>201.99999999999997</ele><time>2026-04-19T11:29:25.849Z</time></trkpt><trkpt lat="43.0940116" lon="12.4984507"><ele>202.0</ele><time>2026-04-19T11:29:26.849Z</time></trkpt><trkpt lat="43.0939446" lon="12.4985046"><ele>202.0</ele><time>2026-04-19T11:29:27.85Z</time></trkpt><trkpt lat="43.0938779" lon="12.4985358"><ele>202.0</ele><time>2026-04-19T11:29:28.85Z</time></trkpt><trkpt lat="43.0937964" lon="12.4985497"><ele>201.99999999999997</ele><time>2026-04-19T11:29:29.85Z</time></trkpt><trkpt lat="43.0937178" lon="12.498579"><ele>202.0</ele><time>2026-04-19T11:29:30.85Z</time></trkpt><trkpt lat="43.0936623" lon="12.4986423"><ele>202.0</ele><time>2026-04-19T11:29:31.85Z</time></trkpt><trkpt lat="43.0936299" lon="12.4987339"><ele>202.0</ele><time>2026-04-19T11:29:32.85Z</time></trkpt><trkpt lat="43.093614" lon="12.4988557"><ele>202.0</ele><time>2026-04-19T11:29:33.849Z</time></trkpt><trkpt lat="43.0936149" lon="12.4990067"><ele>202.0</ele><time>2026-04-19T11:29:34.849Z</time></trkpt><trkpt lat="43.0935996" lon="12.4991857"><ele>202.0</ele><time>2026-04-19T11:29:35.849Z</time></trkpt><trkpt lat="43.0935689" lon="12.4993928"><ele>202.33333333333331</ele><time>2026-04-19T11:29:36.85Z</time></trkpt><trkpt lat="43.0935359" lon="12.4995983"><ele>202.66666666666669</ele><time>2026-04-19T11:29:37.849Z</time></trkpt><trkpt lat="43.0934948" lon="12.4998347"><ele>203.0</ele><time>2026-04-19T11:29:38.848Z</time></trkpt><trkpt lat="43.0934461" lon="12.5000852"><ele>203.0</ele><time>2026-04-19T11:29:39.849Z</time></trkpt><trkpt lat="43.0933914" lon="12.5003364"><ele>203.0</ele><time>2026-04-19T11:29:40.85Z</time></trkpt><trkpt lat="43.0933317" lon="12.5006124"><ele>203.0</ele><time>2026-04-19T11:29:41.85Z</time></trkpt><trkpt lat="43.0932719" lon="12.5009039"><ele>202.66666666666669</ele><time>2026-04-19T11:29:42.849Z</time></trkpt><trkpt lat="43.0932127" lon="12.5011928"><ele>202.33333333333331</ele><time>2026-04-19T11:29:43.848Z</time></trkpt><trkpt lat="43.0931518" lon="12.501479"><ele>202.0</ele><time>2026-04-19T11:29:44.848Z</time></trkpt><trkpt lat="43.0930825" lon="12.5017664"><ele>202.0</ele><time>2026-04-19T11:29:45.85Z</time></trkpt><trkpt lat="43.0930113" lon="12.5020406"><ele>202.0</ele><time>2026-04-19T11:29:46.85Z</time></trkpt><trkpt lat="43.0929398" lon="12.5023128"><ele>202.0</ele><time>2026-04-19T11:29:47.849Z</time></trkpt><trkpt lat="43.0928707" lon="12.5025765"><ele>202.0</ele><time>2026-04-19T11:29:48.849Z</time></trkpt><trkpt lat="43.0928133" lon="12.5028017"><ele>202.0</ele><time>2026-04-19T11:29:49.849Z</time></trkpt><trkpt lat="43.0927615" lon="12.5029902"><ele>202.0</ele><time>2026-04-19T11:29:50.849Z</time></trkpt><trkpt lat="43.0927123" lon="12.5031362"><ele>202.0</ele><time>2026-04-19T11:29:51.849Z</time></trkpt><trkpt lat="43.0926552" lon="12.5032524"><ele>202.2</ele><time>2026-04-19T11:29:52.849Z</time></trkpt><trkpt lat="43.0925872" lon="12.5033305"><ele>202.39999999999998</ele><time>2026-04-19T11:29:53.85Z</time></trkpt><trkpt lat="43.0924955" lon="12.503367"><ele>202.60000000000002</ele><time>2026-04-19T11:29:54.849Z</time></trkpt><trkpt lat="43.0923877" lon="12.503355"><ele>202.8</ele><time>2026-04-19T11:29:55.85Z</time></trkpt><trkpt lat="43.0922603" lon="12.5033046"><ele>203.0</ele><time>2026-04-19T11:29:56.848Z</time></trkpt><trkpt lat="43.0921176" lon="12.5032385"><ele>203.0</ele><time>2026-04-19T11:29:57.849Z</time></trkpt><trkpt lat="43.091967" lon="12.5031776"><ele>203.0</ele><time>2026-04-19T11:29:58.849Z</time></trkpt><trkpt lat="43.0917977" lon="12.5031059"><ele>203.0</ele><time>2026-04-19T11:29:59.85Z</time></trkpt><trkpt lat="43.0916148" lon="12.5030133"><ele>202.0</ele><time>2026-04-19T11:30:00.85Z</time></trkpt><trkpt lat="43.0914288" lon="12.5029196"><ele>201.0</ele><time>2026-04-19T11:30:01.85Z</time></trkpt><trkpt lat="43.0912549" lon="12.5028399"><ele>200.0</ele><time>2026-04-19T11:30:02.848Z</time></trkpt><trkpt lat="43.091091" lon="12.5027648"><ele>200.0</ele><time>2026-04-19T11:30:03.849Z</time></trkpt><trkpt lat="43.0909382" lon="12.5026931"><ele>200.0</ele><time>2026-04-19T11:30:04.849Z</time></trkpt><trkpt lat="43.0907941" lon="12.5026339"><ele>200.0</ele><time>2026-04-19T11:30:05.849Z</time></trkpt><trkpt lat="43.0906566" lon="12.5025942"><ele>199.75</ele><time>2026-04-19T11:30:06.848Z</time></trkpt><trkpt lat="43.0905212" lon="12.5025869"><ele>199.5</ele><time>2026-04-19T11:30:07.849Z</time></trkpt><trkpt lat="43.0903928" lon="12.5026145"><ele>199.25</ele><time>2026-04-19T11:30:08.85Z</time></trkpt><trkpt lat="43.0902677" lon="12.5026908"><ele>199.0</ele><time>2026-04-19T11:30:09.85Z</time></trkpt><trkpt lat="43.0901449" lon="12.5028154"><ele>199.0</ele><time>2026-04-19T11:30:10.849Z</time></trkpt><trkpt lat="43.0900244" lon="12.5029762"><ele>199.0</ele><time>2026-04-19T11:30:11.849Z</time></trkpt><trkpt lat="43.0898977" lon="12.5031592"><ele>199.0</ele><time>2026-04-19T11:30:12.85Z</time></trkpt><trkpt lat="43.0897704" lon="12.5033388"><ele>199.0</ele><time>2026-04-19T11:30:13.85Z</time></trkpt><trkpt lat="43.0896511" lon="12.5035078"><ele>199.0</ele><time>2026-04-19T11:30:14.848Z</time></trkpt><trkpt lat="43.0895282" lon="12.5036819"><ele>199.0</ele><time>2026-04-19T11:30:15.848Z</time></trkpt><trkpt lat="43.0894063" lon="12.5038609"><ele>199.33333333333331</ele><time>2026-04-19T11:30:16.849Z</time></trkpt><trkpt lat="43.089284" lon="12.5040399"><ele>199.66666666666669</ele><time>2026-04-19T11:30:17.85Z</time></trkpt><trkpt lat="43.0891517" lon="12.5042219"><ele>200.0</ele><time>2026-04-19T11:30:18.849Z</time></trkpt><trkpt lat="43.0890216" lon="12.5044077"><ele>200.33333333333334</ele><time>2026-04-19T11:30:19.849Z</time></trkpt><trkpt lat="43.0888925" lon="12.5046001"><ele>200.66666666666669</ele><time>2026-04-19T11:30:20.85Z</time></trkpt><trkpt lat="43.0887601" lon="12.5047952"><ele>201.0</ele><time>2026-04-19T11:30:21.85Z</time></trkpt><trkpt lat="43.0886271" lon="12.504978"><ele>201.0</ele><time>2026-04-19T11:30:22.85Z</time></trkpt><trkpt lat="43.0884991" lon="12.50516"><ele>201.0</ele><time>2026-04-19T11:30:23.848Z</time></trkpt><trkpt lat="43.0883696" lon="12.5053425"><ele>201.0</ele><time>2026-04-19T11:30:24.849Z</time></trkpt><trkpt lat="43.0882446" lon="12.5055334"><ele>201.33333333333331</ele><time>2026-04-19T11:30:25.848Z</time></trkpt><trkpt lat="43.0881159" lon="12.5057223"><ele>201.66666666666666</ele><time>2026-04-19T11:30:26.848Z</time></trkpt><trkpt lat="43.0879827" lon="12.5059074"><ele>202.0</ele><time>2026-04-19T11:30:27.848Z</time></trkpt><trkpt lat="43.0878447" lon="12.5061036"><ele>201.66666666666666</ele><time>2026-04-19T11:30:28.848Z</time></trkpt><trkpt lat="43.0877052" lon="12.5062998"><ele>201.33333333333331</ele><time>2026-04-19T11:30:29.849Z</time></trkpt><trkpt lat="43.0875636" lon="12.5065015"><ele>201.0</ele><time>2026-04-19T11:30:30.849Z</time></trkpt><trkpt lat="43.0874199" lon="12.5067016"><ele>200.33333333333331</ele><time>2026-04-19T11:30:31.847Z</time></trkpt><trkpt lat="43.0872835" lon="12.5068918"><ele>199.66666666666666</ele><time>2026-04-19T11:30:32.849Z</time></trkpt><trkpt lat="43.0871516" lon="12.507082"><ele>199.0</ele><time>2026-04-19T11:30:33.849Z</time></trkpt><trkpt lat="43.0870222" lon="12.5072641"><ele>199.0</ele><time>2026-04-19T11:30:34.848Z</time></trkpt><trkpt lat="43.086899" lon="12.5074418"><ele>199.0</ele><time>2026-04-19T11:30:35.848Z</time></trkpt><trkpt lat="43.0867818" lon="12.5076207"><ele>199.0</ele><time>2026-04-19T11:30:36.849Z</time></trkpt><trkpt lat="43.0866746" lon="12.507794"><ele>198.66666666666666</ele><time>2026-04-19T11:30:37.848Z</time></trkpt><trkpt lat="43.086575" lon="12.5079769"><ele>198.33333333333331</ele><time>2026-04-19T11:30:38.848Z</time></trkpt><trkpt lat="43.0864919" lon="12.508163"><ele>198.0</ele><time>2026-04-19T11:30:39.849Z</time></trkpt><trkpt lat="43.0864334" lon="12.5083535"><ele>198.0</ele><time>2026-04-19T11:30:40.848Z</time></trkpt><trkpt lat="43.0863819" lon="12.5085445"><ele>198.0</ele><time>2026-04-19T11:30:41.849Z</time></trkpt><trkpt lat="43.0863302" lon="12.5087297"><ele>198.0</ele><time>2026-04-19T11:30:42.849Z</time></trkpt><trkpt lat="43.0862829" lon="12.5089079"><ele>198.0</ele><time>2026-04-19T11:30:43.849Z</time></trkpt><trkpt lat="43.0862377" lon="12.5090942"><ele>197.66666666666669</ele><time>2026-04-19T11:30:44.848Z</time></trkpt><trkpt lat="43.0861906" lon="12.5092878"><ele>197.33333333333334</ele><time>2026-04-19T11:30:45.848Z</time></trkpt><trkpt lat="43.0861403" lon="12.5094842"><ele>197.0</ele><time>2026-04-19T11:30:46.849Z</time></trkpt><trkpt lat="43.0860874" lon="12.5096885"><ele>197.66666666666669</ele><time>2026-04-19T11:30:47.849Z</time></trkpt><trkpt lat="43.0860302" lon="12.5098971"><ele>198.33333333333331</ele><time>2026-04-19T11:30:48.847Z</time></trkpt><trkpt lat="43.0859735" lon="12.5101151"><ele>199.0</ele><time>2026-04-19T11:30:49.847Z</time></trkpt><trkpt lat="43.0859152" lon="12.5103416"><ele>199.0</ele><time>2026-04-19T11:30:50.849Z</time></trkpt><trkpt lat="43.085857" lon="12.5105755"><ele>199.0</ele><time>2026-04-19T11:30:51.848Z</time></trkpt><trkpt lat="43.0857951" lon="12.5108122"><ele>199.0</ele><time>2026-04-19T11:30:52.849Z</time></trkpt><trkpt lat="43.0857308" lon="12.5110557"><ele>199.33333333333331</ele><time>2026-04-19T11:30:53.848Z</time></trkpt><trkpt lat="43.0856668" lon="12.5113051"><ele>199.66666666666669</ele><time>2026-04-19T11:30:54.848Z</time></trkpt><trkpt lat="43.0856054" lon="12.5115447"><ele>200.0</ele><time>2026-04-19T11:30:55.848Z</time></trkpt><trkpt lat="43.0855433" lon="12.5117793"><ele>200.0</ele><time>2026-04-19T11:30:56.848Z</time></trkpt><trkpt lat="43.0854836" lon="12.512008"><ele>200.0</ele><time>2026-04-19T11:30:57.849Z</time></trkpt><trkpt lat="43.0854271" lon="12.5122309"><ele>200.0</ele><time>2026-04-19T11:30:58.849Z</time></trkpt><trkpt lat="43.0853779" lon="12.5124277"><ele>200.5</ele><time>2026-04-19T11:30:59.849Z</time></trkpt><trkpt lat="43.0853324" lon="12.51261"><ele>201.0</ele><time>2026-04-19T11:31:00.849Z</time></trkpt><trkpt lat="43.0853042" lon="12.5127754"><ele>201.5</ele><time>2026-04-19T11:31:01.847Z</time></trkpt><trkpt lat="43.0853065" lon="12.5129481"><ele>202.0</ele><time>2026-04-19T11:31:02.849Z</time></trkpt><trkpt lat="43.0853445" lon="12.5130977"><ele>202.0</ele><time>2026-04-19T11:31:03.848Z</time></trkpt><trkpt lat="43.085406" lon="12.513223"><ele>202.0</ele><time>2026-04-19T11:31:04.848Z</time></trkpt><trkpt lat="43.0854819" lon="12.5133324"><ele>202.0</ele><time>2026-04-19T11:31:05.849Z</time></trkpt><trkpt lat="43.0855672" lon="12.5134453"><ele>202.0</ele><time>2026-04-19T11:31:06.848Z</time></trkpt><trkpt lat="43.0856397" lon="12.513584"><ele>202.0</ele><time>2026-04-19T11:31:07.849Z</time></trkpt><trkpt lat="43.0856899" lon="12.5137408"><ele>202.0</ele><time>2026-04-19T11:31:08.849Z</time></trkpt><trkpt lat="43.0857022" lon="12.5139144"><ele>202.0</ele><time>2026-04-19T11:31:09.849Z</time></trkpt><trkpt lat="43.0856919" lon="12.5140857"><ele>202.0</ele><time>2026-04-19T11:31:10.848Z</time></trkpt><trkpt lat="43.0856631" lon="12.5142676"><ele>202.0</ele><time>2026-04-19T11:31:11.848Z</time></trkpt><trkpt lat="43.0856283" lon="12.5144584"><ele>202.0</ele><time>2026-04-19T11:31:12.848Z</time></trkpt><trkpt lat="43.0855876" lon="12.5146604"><ele>202.0</ele><time>2026-04-19T11:31:13.848Z</time></trkpt><trkpt lat="43.0855409" lon="12.5148717"><ele>200.66666666666666</ele><time>2026-04-19T11:31:14.848Z</time></trkpt><trkpt lat="43.0854912" lon="12.5150918"><ele>199.33333333333331</ele><time>2026-04-19T11:31:15.848Z</time></trkpt><trkpt lat="43.0854431" lon="12.5153222"><ele>198.0</ele><time>2026-04-19T11:31:16.849Z</time></trkpt><trkpt lat="43.0853923" lon="12.5155619"><ele>198.0</ele><time>2026-04-19T11:31:17.849Z</time></trkpt><trkpt lat="43.0853414" lon="12.5157898"><ele>198.0</ele><time>2026-04-19T11:31:18.849Z</time></trkpt><trkpt lat="43.085295" lon="12.5160044"><ele>198.0</ele><time>2026-04-19T11:31:19.848Z</time></trkpt><trkpt lat="43.0852491" lon="12.516219"><ele>198.33333333333331</ele><time>2026-04-19T11:31:20.849Z</time></trkpt><trkpt lat="43.0852082" lon="12.5164226"><ele>198.66666666666666</ele><time>2026-04-19T11:31:21.848Z</time></trkpt><trkpt lat="43.0851814" lon="12.5166205"><ele>199.0</ele><time>2026-04-19T11:31:22.847Z</time></trkpt><trkpt lat="43.0851698" lon="12.5168305"><ele>199.0</ele><time>2026-04-19T11:31:23.847Z</time></trkpt><trkpt lat="43.0851889" lon="12.5170491"><ele>199.0</ele><time>2026-04-19T11:31:24.849Z</time></trkpt><trkpt lat="43.0852284" lon="12.5172483"><ele>199.0</ele><time>2026-04-19T11:31:25.849Z</time></trkpt><trkpt lat="43.0852911" lon="12.5174372"><ele>199.66666666666666</ele><time>2026-04-19T11:31:26.849Z</time></trkpt><trkpt lat="43.0853758" lon="12.517605"><ele>200.33333333333331</ele><time>2026-04-19T11:31:27.849Z</time></trkpt><trkpt lat="43.0854741" lon="12.5177518"><ele>201.0</ele><time>2026-04-19T11:31:28.848Z</time></trkpt><trkpt lat="43.0856014" lon="12.5178804"><ele>201.33333333333331</ele><time>2026-04-19T11:31:29.848Z</time></trkpt><trkpt lat="43.0857567" lon="12.5179904"><ele>201.66666666666666</ele><time>2026-04-19T11:31:30.849Z</time></trkpt><trkpt lat="43.085931" lon="12.5180861"><ele>202.0</ele><time>2026-04-19T11:31:31.849Z</time></trkpt><trkpt lat="43.0861217" lon="12.5181749"><ele>202.0</ele><time>2026-04-19T11:31:32.848Z</time></trkpt><trkpt lat="43.0863244" lon="12.5182639"><ele>202.0</ele><time>2026-04-19T11:31:33.847Z</time></trkpt><trkpt lat="43.0865231" lon="12.5183526"><ele>202.0</ele><time>2026-04-19T11:31:34.847Z</time></trkpt><trkpt lat="43.0867133" lon="12.5184388"><ele>202.33333333333331</ele><time>2026-04-19T11:31:35.848Z</time></trkpt><trkpt lat="43.0869089" lon="12.5185222"><ele>202.66666666666669</ele><time>2026-04-19T11:31:36.848Z</time></trkpt><trkpt lat="43.0871149" lon="12.5186072"><ele>203.0</ele><time>2026-04-19T11:31:37.848Z</time></trkpt><trkpt lat="43.087325" lon="12.5187001"><ele>202.0</ele><time>2026-04-19T11:31:38.848Z</time></trkpt><trkpt lat="43.0875284" lon="12.5187902"><ele>201.0</ele><time>2026-04-19T11:31:39.848Z</time></trkpt><trkpt lat="43.087719" lon="12.5188736"><ele>200.0</ele><time>2026-04-19T11:31:40.848Z</time></trkpt><trkpt lat="43.0879009" lon="12.518952"><ele>200.0</ele><time>2026-04-19T11:31:41.848Z</time></trkpt><trkpt lat="43.0880711" lon="12.5190273"><ele>200.0</ele><time>2026-04-19T11:31:42.849Z</time></trkpt><trkpt lat="43.0882314" lon="12.519099"><ele>200.0</ele><time>2026-04-19T11:31:43.847Z</time></trkpt><trkpt lat="43.0883846" lon="12.5191681"><ele>200.33333333333334</ele><time>2026-04-19T11:31:44.848Z</time></trkpt><trkpt lat="43.0885346" lon="12.5192339"><ele>200.66666666666669</ele><time>2026-04-19T11:31:45.849Z</time></trkpt><trkpt lat="43.0886884" lon="12.5192912"><ele>201.0</ele><time>2026-04-19T11:31:46.848Z</time></trkpt><trkpt lat="43.0888542" lon="12.5193349"><ele>201.0</ele><time>2026-04-19T11:31:47.847Z</time></trkpt><trkpt lat="43.0890233" lon="12.5193691"><ele>201.0</ele><time>2026-04-19T11:31:48.849Z</time></trkpt><trkpt lat="43.0891986" lon="12.5194063"><ele>201.0</ele><time>2026-04-19T11:31:49.848Z</time></trkpt><trkpt lat="43.0893843" lon="12.5194428"><ele>201.0</ele><time>2026-04-19T11:31:50.849Z</time></trkpt><trkpt lat="43.0895772" lon="12.5194794"><ele>201.0</ele><time>2026-04-19T11:31:51.849Z</time></trkpt><trkpt lat="43.0897752" lon="12.5195222"><ele>201.0</ele><time>2026-04-19T11:31:52.847Z</time></trkpt><trkpt lat="43.0899804" lon="12.5195631"><ele>201.33333333333331</ele><time>2026-04-19T11:31:53.848Z</time></trkpt><trkpt lat="43.0901909" lon="12.5196021"><ele>201.66666666666666</ele><time>2026-04-19T11:31:54.847Z</time></trkpt><trkpt lat="43.0904083" lon="12.5196381"><ele>202.0</ele><time>2026-04-19T11:31:55.849Z</time></trkpt><trkpt lat="43.0906283" lon="12.5196802"><ele>201.33333333333331</ele><time>2026-04-19T11:31:56.849Z</time></trkpt><trkpt lat="43.090849" lon="12.5197227"><ele>200.66666666666669</ele><time>2026-04-19T11:31:57.849Z</time></trkpt><trkpt lat="43.0910686" lon="12.5197597"><ele>200.0</ele><time>2026-04-19T11:31:58.847Z</time></trkpt><trkpt lat="43.0912773" lon="12.5197944"><ele>200.0</ele><time>2026-04-19T11:31:59.849Z</time></trkpt><trkpt lat="43.0914803" lon="12.5198304"><ele>200.0</ele><time>2026-04-19T11:32:00.848Z</time></trkpt><trkpt lat="43.0916745" lon="12.5198679"><ele>200.0</ele><time>2026-04-19T11:32:01.848Z</time></trkpt><trkpt lat="43.0918634" lon="12.519906"><ele>201.0</ele><time>2026-04-19T11:32:02.848Z</time></trkpt><trkpt lat="43.0920459" lon="12.5199406"><ele>202.0</ele><time>2026-04-19T11:32:03.849Z</time></trkpt><trkpt lat="43.0922223" lon="12.5199756"><ele>203.0</ele><time>2026-04-19T11:32:04.848Z</time></trkpt><trkpt lat="43.092394" lon="12.5200122"><ele>203.33333333333334</ele><time>2026-04-19T11:32:05.848Z</time></trkpt><trkpt lat="43.0925697" lon="12.5200582"><ele>203.66666666666669</ele><time>2026-04-19T11:32:06.847Z</time></trkpt><trkpt lat="43.0927517" lon="12.5201087"><ele>204.0</ele><time>2026-04-19T11:32:07.846Z</time></trkpt><trkpt lat="43.0929399" lon="12.5201645"><ele>204.0</ele><time>2026-04-19T11:32:08.846Z</time></trkpt><trkpt lat="43.0931371" lon="12.5202225"><ele>204.0</ele><time>2026-04-19T11:32:09.846Z</time></trkpt><trkpt lat="43.0933446" lon="12.5202834"><ele>204.0</ele><time>2026-04-19T11:32:10.847Z</time></trkpt><trkpt lat="43.0935599" lon="12.5203457"><ele>202.5</ele><time>2026-04-19T11:32:11.846Z</time></trkpt><trkpt lat="43.0937843" lon="12.5204104"><ele>201.0</ele><time>2026-04-19T11:32:12.847Z</time></trkpt><trkpt lat="43.0940169" lon="12.5204814"><ele>200.0</ele><time>2026-04-19T11:32:13.846Z</time></trkpt><trkpt lat="43.0942554" lon="12.52055"><ele>199.0</ele><time>2026-04-19T11:32:14.847Z</time></trkpt><trkpt lat="43.0944999" lon="12.5206232"><ele>199.0</ele><time>2026-04-19T11:32:15.848Z</time></trkpt><trkpt lat="43.0947337" lon="12.5206941"><ele>199.0</ele><time>2026-04-19T11:32:16.848Z</time></trkpt><trkpt lat="43.0949597" lon="12.520759"><ele>200.33333333333331</ele><time>2026-04-19T11:32:17.847Z</time></trkpt><trkpt lat="43.0951784" lon="12.5208216"><ele>201.66666666666669</ele><time>2026-04-19T11:32:18.846Z</time></trkpt><trkpt lat="43.0953892" lon="12.5208816"><ele>203.0</ele><time>2026-04-19T11:32:19.848Z</time></trkpt><trkpt lat="43.0955917" lon="12.5209422"><ele>204.0</ele><time>2026-04-19T11:32:20.847Z</time></trkpt><trkpt lat="43.0957861" lon="12.5210004"><ele>205.0</ele><time>2026-04-19T11:32:21.848Z</time></trkpt><trkpt lat="43.0959768" lon="12.5210562"><ele>206.0</ele><time>2026-04-19T11:32:22.846Z</time></trkpt><trkpt lat="43.0961604" lon="12.5211112"><ele>206.0</ele><time>2026-04-19T11:32:23.846Z</time></trkpt><trkpt lat="43.0963336" lon="12.5211693"><ele>206.0</ele><time>2026-04-19T11:32:24.847Z</time></trkpt><trkpt lat="43.096506" lon="12.5212205"><ele>206.0</ele><time>2026-04-19T11:32:25.848Z</time></trkpt><trkpt lat="43.0966742" lon="12.5212699"><ele>205.66666666666669</ele><time>2026-04-19T11:32:26.847Z</time></trkpt><trkpt lat="43.0968344" lon="12.5213141"><ele>205.33333333333331</ele><time>2026-04-19T11:32:27.848Z</time></trkpt><trkpt lat="43.0969905" lon="12.5213638"><ele>205.0</ele><time>2026-04-19T11:32:28.846Z</time></trkpt><trkpt lat="43.0971418" lon="12.5214135"><ele>205.0</ele><time>2026-04-19T11:32:29.847Z</time></trkpt><trkpt lat="43.0972871" lon="12.5214591"><ele>205.0</ele><time>2026-04-19T11:32:30.847Z</time></trkpt><trkpt lat="43.0974302" lon="12.5215004"><ele>205.0</ele><time>2026-04-19T11:32:31.847Z</time></trkpt><trkpt lat="43.0975701" lon="12.5215376"><ele>205.0</ele><time>2026-04-19T11:32:32.847Z</time></trkpt><trkpt lat="43.097714" lon="12.5215791"><ele>204.66666666666666</ele><time>2026-04-19T11:32:33.846Z</time></trkpt><trkpt lat="43.0978616" lon="12.5216226"><ele>204.33333333333331</ele><time>2026-04-19T11:32:34.846Z</time></trkpt><trkpt lat="43.0980154" lon="12.5216685"><ele>204.0</ele><time>2026-04-19T11:32:35.848Z</time></trkpt><trkpt lat="43.0981719" lon="12.5217066"><ele>204.0</ele><time>2026-04-19T11:32:36.847Z</time></trkpt><trkpt lat="43.0983275" lon="12.5217361"><ele>204.0</ele><time>2026-04-19T11:32:37.847Z</time></trkpt><trkpt lat="43.0984772" lon="12.5217446"><ele>204.0</ele><time>2026-04-19T11:32:38.847Z</time></trkpt><trkpt lat="43.0986222" lon="12.5217312"><ele>204.0</ele><time>2026-04-19T11:32:39.848Z</time></trkpt><trkpt lat="43.098759" lon="12.5217013"><ele>204.0</ele><time>2026-04-19T11:32:40.847Z</time></trkpt><trkpt lat="43.0988907" lon="12.521665"><ele>204.0</ele><time>2026-04-19T11:32:41.847Z</time></trkpt><trkpt lat="43.0990101" lon="12.5216345"><ele>204.0</ele><time>2026-04-19T11:32:42.848Z</time></trkpt><trkpt lat="43.0991229" lon="12.5216067"><ele>204.75</ele><time>2026-04-19T11:32:43.847Z</time></trkpt><trkpt lat="43.0992277" lon="12.5215675"><ele>205.5</ele><time>2026-04-19T11:32:44.847Z</time></trkpt><trkpt lat="43.0993336" lon="12.5215373"><ele>206.25</ele><time>2026-04-19T11:32:45.848Z</time></trkpt><trkpt lat="43.099448" lon="12.5215275"><ele>207.0</ele><time>2026-04-19T11:32:46.847Z</time></trkpt><trkpt lat="43.0995664" lon="12.521532"><ele>207.0</ele><time>2026-04-19T11:32:47.848Z</time></trkpt><trkpt lat="43.0996793" lon="12.5215564"><ele>207.0</ele><time>2026-04-19T11:32:48.847Z</time></trkpt><trkpt lat="43.0997838" lon="12.5215924"><ele>207.0</ele><time>2026-04-19T11:32:49.848Z</time></trkpt><trkpt lat="43.0998799" lon="12.5216363"><ele>207.0</ele><time>2026-04-19T11:32:50.848Z</time></trkpt><trkpt lat="43.0999652" lon="12.5216911"><ele>207.0</ele><time>2026-04-19T11:32:51.846Z</time></trkpt><trkpt lat="43.1000406" lon="12.5217725"><ele>206.8</ele><time>2026-04-19T11:32:52.847Z</time></trkpt><trkpt lat="43.1001146" lon="12.521872"><ele>206.6</ele><time>2026-04-19T11:32:53.848Z</time></trkpt><trkpt lat="43.100192" lon="12.5219642"><ele>206.4</ele><time>2026-04-19T11:32:54.847Z</time></trkpt><trkpt lat="43.1002837" lon="12.5220148"><ele>206.20000000000002</ele><time>2026-04-19T11:32:55.846Z</time></trkpt><trkpt lat="43.1003849" lon="12.5220485"><ele>206.0</ele><time>2026-04-19T11:32:56.848Z</time></trkpt><trkpt lat="43.100482" lon="12.5221107"><ele>206.0</ele><time>2026-04-19T11:32:57.847Z</time></trkpt><trkpt lat="43.1005705" lon="12.5222136"><ele>206.0</ele><time>2026-04-19T11:32:58.847Z</time></trkpt><trkpt lat="43.1006554" lon="12.5223368"><ele>206.0</ele><time>2026-04-19T11:32:59.848Z</time></trkpt><trkpt lat="43.1007477" lon="12.5224667"><ele>206.0</ele><time>2026-04-19T11:33:00.848Z</time></trkpt><trkpt lat="43.10086" lon="12.5225879"><ele>205.75</ele><time>2026-04-19T11:33:01.847Z</time></trkpt><trkpt lat="43.1009797" lon="12.5227034"><ele>205.5</ele><time>2026-04-19T11:33:02.848Z</time></trkpt><trkpt lat="43.1011059" lon="12.5228166"><ele>205.25</ele><time>2026-04-19T11:33:03.847Z</time></trkpt><trkpt lat="43.1012325" lon="12.522913"><ele>205.0</ele><time>2026-04-19T11:33:04.847Z</time></trkpt><trkpt lat="43.1013647" lon="12.5230077"><ele>205.66666666666666</ele><time>2026-04-19T11:33:05.846Z</time></trkpt><trkpt lat="43.1015045" lon="12.5231066"><ele>206.33333333333331</ele><time>2026-04-19T11:33:06.846Z</time></trkpt><trkpt lat="43.1016452" lon="12.5232105"><ele>207.0</ele><time>2026-04-19T11:33:07.848Z</time></trkpt><trkpt lat="43.1017905" lon="12.5233092"><ele>207.0</ele><time>2026-04-19T11:33:08.848Z</time></trkpt><trkpt lat="43.1019391" lon="12.5234159"><ele>207.0</ele><time>2026-04-19T11:33:09.846Z</time></trkpt><trkpt lat="43.1020806" lon="12.5235172"><ele>207.0</ele><time>2026-04-19T11:33:10.847Z</time></trkpt><trkpt lat="43.1022156" lon="12.5236162"><ele>207.0</ele><time>2026-04-19T11:33:11.847Z</time></trkpt><trkpt lat="43.1023397" lon="12.523723"><ele>207.0</ele><time>2026-04-19T11:33:12.846Z</time></trkpt><trkpt lat="43.1024554" lon="12.523861"><ele>207.0</ele><time>2026-04-19T11:33:13.848Z</time></trkpt><trkpt lat="43.1025601" lon="12.5240296"><ele>208.0</ele><time>2026-04-19T11:33:14.847Z</time></trkpt><trkpt lat="43.1026497" lon="12.52422"><ele>209.0</ele><time>2026-04-19T11:33:15.848Z</time></trkpt><trkpt lat="43.1027344" lon="12.5244242"><ele>210.0</ele><time>2026-04-19T11:33:16.847Z</time></trkpt><trkpt lat="43.1028238" lon="12.5246289"><ele>210.0</ele><time>2026-04-19T11:33:17.848Z</time></trkpt><trkpt lat="43.1029098" lon="12.524837"><ele>210.0</ele><time>2026-04-19T11:33:18.847Z</time></trkpt><trkpt lat="43.1029949" lon="12.5250345"><ele>210.0</ele><time>2026-04-19T11:33:19.847Z</time></trkpt><trkpt lat="43.1030801" lon="12.5252312"><ele>210.33333333333331</ele><time>2026-04-19T11:33:20.846Z</time></trkpt><trkpt lat="43.1031634" lon="12.5254257"><ele>210.66666666666666</ele><time>2026-04-19T11:33:21.848Z</time></trkpt><trkpt lat="43.1032461" lon="12.5256174"><ele>211.0</ele><time>2026-04-19T11:33:22.848Z</time></trkpt><trkpt lat="43.1033268" lon="12.5258077"><ele>211.0</ele><time>2026-04-19T11:33:23.847Z</time></trkpt><trkpt lat="43.1034057" lon="12.5259976"><ele>211.0</ele><time>2026-04-19T11:33:24.847Z</time></trkpt><trkpt lat="43.103472" lon="12.5261836"><ele>211.0</ele><time>2026-04-19T11:33:25.847Z</time></trkpt><trkpt lat="43.1035331" lon="12.5263791"><ele>211.0</ele><time>2026-04-19T11:33:26.847Z</time></trkpt><trkpt lat="43.1035855" lon="12.5265783"><ele>211.0</ele><time>2026-04-19T11:33:27.847Z</time></trkpt><trkpt lat="43.1036273" lon="12.5267828"><ele>211.0</ele><time>2026-04-19T11:33:28.847Z</time></trkpt><trkpt lat="43.1036567" lon="12.5270028"><ele>211.33333333333331</ele><time>2026-04-19T11:33:29.848Z</time></trkpt><trkpt lat="43.1036736" lon="12.5272145"><ele>211.66666666666669</ele><time>2026-04-19T11:33:30.847Z</time></trkpt><trkpt lat="43.1036737" lon="12.5274235"><ele>212.0</ele><time>2026-04-19T11:33:31.847Z</time></trkpt><trkpt lat="43.1036709" lon="12.5276182"><ele>212.0</ele><time>2026-04-19T11:33:32.847Z</time></trkpt><trkpt lat="43.1036653" lon="12.5278137"><ele>212.0</ele><time>2026-04-19T11:33:33.848Z</time></trkpt><trkpt lat="43.1036632" lon="12.5280136"><ele>212.0</ele><time>2026-04-19T11:33:34.848Z</time></trkpt><trkpt lat="43.1036599" lon="12.5282123"><ele>212.0</ele><time>2026-04-19T11:33:35.847Z</time></trkpt><trkpt lat="43.1036538" lon="12.52841"><ele>212.5</ele><time>2026-04-19T11:33:36.846Z</time></trkpt><trkpt lat="43.1036409" lon="12.5286009"><ele>213.0</ele><time>2026-04-19T11:33:37.847Z</time></trkpt><trkpt lat="43.1036266" lon="12.5288036"><ele>213.5</ele><time>2026-04-19T11:33:38.846Z</time></trkpt><trkpt lat="43.1036114" lon="12.5289812"><ele>214.0</ele><time>2026-04-19T11:33:39.847Z</time></trkpt><trkpt lat="43.1035859" lon="12.5291376"><ele>214.0</ele><time>2026-04-19T11:33:40.848Z</time></trkpt><trkpt lat="43.103574" lon="12.5293468"><ele>214.0</ele><time>2026-04-19T11:33:41.848Z</time></trkpt><trkpt lat="43.103555" lon="12.5295356"><ele>214.0</ele><time>2026-04-19T11:33:42.848Z</time></trkpt><trkpt lat="43.1035365" lon="12.5297005"><ele>214.0</ele><time>2026-04-19T11:33:43.847Z</time></trkpt><trkpt lat="43.1035142" lon="12.5298708"><ele>213.5</ele><time>2026-04-19T11:33:44.845Z</time></trkpt><trkpt lat="43.10349" lon="12.5300461"><ele>213.0</ele><time>2026-04-19T11:33:45.845Z</time></trkpt><trkpt lat="43.1034684" lon="12.5302223"><ele>212.5</ele><time>2026-04-19T11:33:46.846Z</time></trkpt><trkpt lat="43.1034551" lon="12.5304017"><ele>212.0</ele><time>2026-04-19T11:33:47.846Z</time></trkpt><trkpt lat="43.1034364" lon="12.5306002"><ele>212.0</ele><time>2026-04-19T11:33:48.846Z</time></trkpt><trkpt lat="43.1034323" lon="12.5308032"><ele>212.0</ele><time>2026-04-19T11:33:49.847Z</time></trkpt><trkpt lat="43.1034218" lon="12.5310187"><ele>212.0</ele><time>2026-04-19T11:33:50.847Z</time></trkpt><trkpt lat="43.1034243" lon="12.5312344"><ele>212.33333333333334</ele><time>2026-04-19T11:33:51.846Z</time></trkpt><trkpt lat="43.1034238" lon="12.5314522"><ele>212.66666666666669</ele><time>2026-04-19T11:33:52.847Z</time></trkpt><trkpt lat="43.1034233" lon="12.5316585"><ele>213.0</ele><time>2026-04-19T11:33:53.847Z</time></trkpt><trkpt lat="43.1034104" lon="12.531859"><ele>212.75</ele><time>2026-04-19T11:33:54.847Z</time></trkpt><trkpt lat="43.1033994" lon="12.532062"><ele>212.5</ele><time>2026-04-19T11:33:55.847Z</time></trkpt><trkpt lat="43.1033798" lon="12.5322609"><ele>212.25</ele><time>2026-04-19T11:33:56.846Z</time></trkpt><trkpt lat="43.1033495" lon="12.5324627"><ele>212.0</ele><time>2026-04-19T11:33:57.847Z</time></trkpt><trkpt lat="43.1033115" lon="12.5326721"><ele>212.0</ele><time>2026-04-19T11:33:58.846Z</time></trkpt><trkpt lat="43.1032768" lon="12.5328875"><ele>212.0</ele><time>2026-04-19T11:33:59.847Z</time></trkpt><trkpt lat="43.1032399" lon="12.5330932"><ele>212.0</ele><time>2026-04-19T11:34:00.847Z</time></trkpt><trkpt lat="43.1032008" lon="12.5332963"><ele>212.0</ele><time>2026-04-19T11:34:01.846Z</time></trkpt><trkpt lat="43.103166" lon="12.5334969"><ele>212.0</ele><time>2026-04-19T11:34:02.846Z</time></trkpt><trkpt lat="43.1031331" lon="12.5336909"><ele>212.0</ele><time>2026-04-19T11:34:03.846Z</time></trkpt><trkpt lat="43.1030974" lon="12.5338808"><ele>212.0</ele><time>2026-04-19T11:34:04.846Z</time></trkpt><trkpt lat="43.103061" lon="12.5340727"><ele>212.0</ele><time>2026-04-19T11:34:05.845Z</time></trkpt><trkpt lat="43.1030263" lon="12.5342633"><ele>212.0</ele><time>2026-04-19T11:34:06.846Z</time></trkpt><trkpt lat="43.1029929" lon="12.5344586"><ele>212.0</ele><time>2026-04-19T11:34:07.847Z</time></trkpt><trkpt lat="43.1029571" lon="12.5346556"><ele>212.0</ele><time>2026-04-19T11:34:08.847Z</time></trkpt><trkpt lat="43.1029223" lon="12.5348455"><ele>212.0</ele><time>2026-04-19T11:34:09.847Z</time></trkpt><trkpt lat="43.1028922" lon="12.5350258"><ele>212.0</ele><time>2026-04-19T11:34:10.846Z</time></trkpt><trkpt lat="43.1028655" lon="12.5351937"><ele>212.0</ele><time>2026-04-19T11:34:11.845Z</time></trkpt><trkpt lat="43.1028399" lon="12.5353353"><ele>212.0</ele><time>2026-04-19T11:34:12.846Z</time></trkpt><trkpt lat="43.102814" lon="12.5354561"><ele>211.83333333333334</ele><time>2026-04-19T11:34:13.846Z</time></trkpt><trkpt lat="43.1027932" lon="12.5355441"><ele>211.66666666666669</ele><time>2026-04-19T11:34:14.846Z</time></trkpt><trkpt lat="43.1027634" lon="12.5356521"><ele>211.5</ele><time>2026-04-19T11:34:16.847Z</time></trkpt><trkpt lat="43.102684" lon="12.5356548"><ele>211.33333333333331</ele><time>2026-04-19T11:34:19.847Z</time></trkpt><trkpt lat="43.1025745" lon="12.5355925"><ele>211.16666666666666</ele><time>2026-04-19T11:34:21.847Z</time></trkpt><trkpt lat="43.1025039" lon="12.535562"><ele>211.0</ele><time>2026-04-19T11:34:22.846Z</time></trkpt><trkpt lat="43.1024191" lon="12.535524"><ele>211.0</ele><time>2026-04-19T11:34:23.846Z</time></trkpt><trkpt lat="43.1023187" lon="12.5354896"><ele>211.0</ele><time>2026-04-19T11:34:24.846Z</time></trkpt><trkpt lat="43.1022219" lon="12.5354572"><ele>211.0</ele><time>2026-04-19T11:34:25.846Z</time></trkpt><trkpt lat="43.1021047" lon="12.5354262"><ele>211.0</ele><time>2026-04-19T11:34:26.846Z</time></trkpt><trkpt lat="43.1019691" lon="12.5353979"><ele>211.0</ele><time>2026-04-19T11:34:27.846Z</time></trkpt><trkpt lat="43.1018382" lon="12.5353715"><ele>211.0</ele><time>2026-04-19T11:34:28.846Z</time></trkpt><trkpt lat="43.1016879" lon="12.5353376"><ele>211.0</ele><time>2026-04-19T11:34:29.846Z</time></trkpt><trkpt lat="43.1015268" lon="12.5353056"><ele>211.0</ele><time>2026-04-19T11:34:30.847Z</time></trkpt><trkpt lat="43.1013623" lon="12.5352641"><ele>211.0</ele><time>2026-04-19T11:34:31.847Z</time></trkpt><trkpt lat="43.101205" lon="12.5352259"><ele>211.0</ele><time>2026-04-19T11:34:32.846Z</time></trkpt><trkpt lat="43.1010589" lon="12.5351909"><ele>211.0</ele><time>2026-04-19T11:34:33.846Z</time></trkpt><trkpt lat="43.1009142" lon="12.5351563"><ele>211.0</ele><time>2026-04-19T11:34:34.846Z</time></trkpt><trkpt lat="43.1007779" lon="12.5351214"><ele>211.0</ele><time>2026-04-19T11:34:35.845Z</time></trkpt><trkpt lat="43.1006466" lon="12.5350948"><ele>211.0</ele><time>2026-04-19T11:34:36.845Z</time></trkpt><trkpt lat="43.1005231" lon="12.5350982"><ele>211.0</ele><time>2026-04-19T11:34:37.846Z</time></trkpt><trkpt lat="43.100407" lon="12.5351273"><ele>211.0</ele><time>2026-04-19T11:34:38.846Z</time></trkpt><trkpt lat="43.1003151" lon="12.53518"><ele>211.0</ele><time>2026-04-19T11:34:39.846Z</time></trkpt><trkpt lat="43.1002125" lon="12.5352749"><ele>211.0</ele><time>2026-04-19T11:34:40.846Z</time></trkpt><trkpt lat="43.1001231" lon="12.5353485"><ele>211.0</ele><time>2026-04-19T11:34:41.847Z</time></trkpt><trkpt lat="43.1000623" lon="12.5354426"><ele>211.0</ele><time>2026-04-19T11:34:42.847Z</time></trkpt><trkpt lat="43.1000143" lon="12.5355517"><ele>210.75</ele><time>2026-04-19T11:34:43.845Z</time></trkpt><trkpt lat="43.0999671" lon="12.5356646"><ele>210.5</ele><time>2026-04-19T11:34:44.847Z</time></trkpt><trkpt lat="43.0998874" lon="12.5357757"><ele>210.25</ele><time>2026-04-19T11:34:45.847Z</time></trkpt><trkpt lat="43.0997804" lon="12.5358718"><ele>210.0</ele><time>2026-04-19T11:34:46.847Z</time></trkpt><trkpt lat="43.099666" lon="12.5359638"><ele>209.5</ele><time>2026-04-19T11:34:47.845Z</time></trkpt><trkpt lat="43.0995624" lon="12.5360766"><ele>209.0</ele><time>2026-04-19T11:34:48.847Z</time></trkpt><trkpt lat="43.0994573" lon="12.536214"><ele>208.5</ele><time>2026-04-19T11:34:49.847Z</time></trkpt><trkpt lat="43.0993405" lon="12.5363732"><ele>208.0</ele><time>2026-04-19T11:34:50.845Z</time></trkpt><trkpt lat="43.0992167" lon="12.5365421"><ele>208.0</ele><time>2026-04-19T11:34:51.845Z</time></trkpt><trkpt lat="43.0990934" lon="12.5367186"><ele>208.0</ele><time>2026-04-19T11:34:52.847Z</time></trkpt><trkpt lat="43.0989721" lon="12.5368947"><ele>208.0</ele><time>2026-04-19T11:34:53.847Z</time></trkpt><trkpt lat="43.0988423" lon="12.5370829"><ele>208.0</ele><time>2026-04-19T11:34:54.845Z</time></trkpt><trkpt lat="43.0987101" lon="12.5372763"><ele>208.0</ele><time>2026-04-19T11:34:55.846Z</time></trkpt><trkpt lat="43.0985752" lon="12.5374681"><ele>208.0</ele><time>2026-04-19T11:34:56.846Z</time></trkpt><trkpt lat="43.0984425" lon="12.5376647"><ele>208.0</ele><time>2026-04-19T11:34:57.846Z</time></trkpt><trkpt lat="43.0983032" lon="12.5378667"><ele>208.0</ele><time>2026-04-19T11:34:58.846Z</time></trkpt><trkpt lat="43.0981632" lon="12.5380672"><ele>208.0</ele><time>2026-04-19T11:34:59.846Z</time></trkpt><trkpt lat="43.0980244" lon="12.5382629"><ele>208.66666666666666</ele><time>2026-04-19T11:35:00.847Z</time></trkpt><trkpt lat="43.0978873" lon="12.5384628"><ele>209.33333333333331</ele><time>2026-04-19T11:35:01.845Z</time></trkpt><trkpt lat="43.0977436" lon="12.5386749"><ele>210.0</ele><time>2026-04-19T11:35:02.846Z</time></trkpt><trkpt lat="43.0975985" lon="12.5388855"><ele>210.0</ele><time>2026-04-19T11:35:03.846Z</time></trkpt><trkpt lat="43.0974568" lon="12.5390935"><ele>210.0</ele><time>2026-04-19T11:35:04.846Z</time></trkpt><trkpt lat="43.0973193" lon="12.5393021"><ele>210.0</ele><time>2026-04-19T11:35:05.847Z</time></trkpt><trkpt lat="43.0971837" lon="12.5395143"><ele>209.33333333333331</ele><time>2026-04-19T11:35:06.846Z</time></trkpt><trkpt lat="43.0970506" lon="12.5397256"><ele>208.66666666666666</ele><time>2026-04-19T11:35:07.845Z</time></trkpt><trkpt lat="43.0969164" lon="12.5399328"><ele>208.0</ele><time>2026-04-19T11:35:08.847Z</time></trkpt><trkpt lat="43.0967813" lon="12.5401476"><ele>208.0</ele><time>2026-04-19T11:35:09.847Z</time></trkpt><trkpt lat="43.096646" lon="12.5403644"><ele>208.0</ele><time>2026-04-19T11:35:10.847Z</time></trkpt><trkpt lat="43.0965083" lon="12.5405761"><ele>208.0</ele><time>2026-04-19T11:35:11.845Z</time></trkpt><trkpt lat="43.0963736" lon="12.5407893"><ele>208.0</ele><time>2026-04-19T11:35:12.846Z</time></trkpt><trkpt lat="43.0962294" lon="12.5409903"><ele>208.0</ele><time>2026-04-19T11:35:13.847Z</time></trkpt><trkpt lat="43.0960801" lon="12.5411853"><ele>208.0</ele><time>2026-04-19T11:35:14.847Z</time></trkpt><trkpt lat="43.0959299" lon="12.5413754"><ele>208.0</ele><time>2026-04-19T11:35:15.847Z</time></trkpt><trkpt lat="43.0957809" lon="12.5415659"><ele>208.0</ele><time>2026-04-19T11:35:16.846Z</time></trkpt><trkpt lat="43.0956278" lon="12.5417505"><ele>208.0</ele><time>2026-04-19T11:35:17.846Z</time></trkpt><trkpt lat="43.0954702" lon="12.5419391"><ele>207.66666666666666</ele><time>2026-04-19T11:35:18.846Z</time></trkpt><trkpt lat="43.0953156" lon="12.5421254"><ele>207.33333333333331</ele><time>2026-04-19T11:35:19.845Z</time></trkpt><trkpt lat="43.0951615" lon="12.5423103"><ele>207.0</ele><time>2026-04-19T11:35:20.847Z</time></trkpt><trkpt lat="43.0950062" lon="12.5425003"><ele>207.0</ele><time>2026-04-19T11:35:21.846Z</time></trkpt><trkpt lat="43.0948508" lon="12.5426893"><ele>207.0</ele><time>2026-04-19T11:35:22.845Z</time></trkpt><trkpt lat="43.0946918" lon="12.5428718"><ele>207.0</ele><time>2026-04-19T11:35:23.845Z</time></trkpt><trkpt lat="43.0945246" lon="12.5430546"><ele>207.0</ele><time>2026-04-19T11:35:24.844Z</time></trkpt><trkpt lat="43.0943531" lon="12.543219"><ele>207.0</ele><time>2026-04-19T11:35:25.845Z</time></trkpt><trkpt lat="43.0941672" lon="12.5433534"><ele>207.0</ele><time>2026-04-19T11:35:26.844Z</time></trkpt><trkpt lat="43.0939793" lon="12.5434783"><ele>207.33333333333331</ele><time>2026-04-19T11:35:27.846Z</time></trkpt><trkpt lat="43.0937874" lon="12.5435884"><ele>207.66666666666666</ele><time>2026-04-19T11:35:28.845Z</time></trkpt><trkpt lat="43.093598" lon="12.5437034"><ele>208.0</ele><time>2026-04-19T11:35:29.845Z</time></trkpt><trkpt lat="43.0934045" lon="12.5438175"><ele>207.0</ele><time>2026-04-19T11:35:30.846Z</time></trkpt><trkpt lat="43.0932121" lon="12.5439301"><ele>206.0</ele><time>2026-04-19T11:35:31.846Z</time></trkpt><trkpt lat="43.0930167" lon="12.5440373"><ele>205.0</ele><time>2026-04-19T11:35:32.845Z</time></trkpt><trkpt lat="43.0928243" lon="12.5441418"><ele>205.0</ele><time>2026-04-19T11:35:33.845Z</time></trkpt><trkpt lat="43.0926331" lon="12.5442381"><ele>205.0</ele><time>2026-04-19T11:35:34.846Z</time></trkpt><trkpt lat="43.0924406" lon="12.5443198"><ele>205.0</ele><time>2026-04-19T11:35:35.845Z</time></trkpt><trkpt lat="43.09224" lon="12.544383"><ele>205.0</ele><time>2026-04-19T11:35:36.846Z</time></trkpt><trkpt lat="43.0920385" lon="12.5444283"><ele>205.0</ele><time>2026-04-19T11:35:37.846Z</time></trkpt><trkpt lat="43.0918361" lon="12.5444674"><ele>205.0</ele><time>2026-04-19T11:35:38.845Z</time></trkpt><trkpt lat="43.0916349" lon="12.5445065"><ele>204.66666666666666</ele><time>2026-04-19T11:35:39.845Z</time></trkpt><trkpt lat="43.0914346" lon="12.5445429"><ele>204.33333333333331</ele><time>2026-04-19T11:35:40.846Z</time></trkpt><trkpt lat="43.0912294" lon="12.5445846"><ele>204.0</ele><time>2026-04-19T11:35:41.846Z</time></trkpt><trkpt lat="43.0910219" lon="12.5446179"><ele>203.66666666666669</ele><time>2026-04-19T11:35:42.846Z</time></trkpt><trkpt lat="43.0908181" lon="12.5446579"><ele>203.33333333333334</ele><time>2026-04-19T11:35:43.845Z</time></trkpt><trkpt lat="43.0906098" lon="12.5446915"><ele>203.0</ele><time>2026-04-19T11:35:44.846Z</time></trkpt><trkpt lat="43.0904032" lon="12.5447245"><ele>203.0</ele><time>2026-04-19T11:35:45.846Z</time></trkpt><trkpt lat="43.0901985" lon="12.5447495"><ele>203.0</ele><time>2026-04-19T11:35:46.845Z</time></trkpt><trkpt lat="43.0899938" lon="12.5447665"><ele>203.0</ele><time>2026-04-19T11:35:47.845Z</time></trkpt><trkpt lat="43.0897887" lon="12.5447828"><ele>204.33333333333334</ele><time>2026-04-19T11:35:48.845Z</time></trkpt><trkpt lat="43.0895814" lon="12.5448009"><ele>205.66666666666669</ele><time>2026-04-19T11:35:49.845Z</time></trkpt><trkpt lat="43.0893725" lon="12.5448182"><ele>207.0</ele><time>2026-04-19T11:35:50.845Z</time></trkpt><trkpt lat="43.0891634" lon="12.5448344"><ele>206.0</ele><time>2026-04-19T11:35:51.844Z</time></trkpt><trkpt lat="43.0889521" lon="12.5448502"><ele>205.0</ele><time>2026-04-19T11:35:52.845Z</time></trkpt><trkpt lat="43.0887337" lon="12.5448673"><ele>204.0</ele><time>2026-04-19T11:35:53.845Z</time></trkpt><trkpt lat="43.0885177" lon="12.544885"><ele>204.0</ele><time>2026-04-19T11:35:54.845Z</time></trkpt><trkpt lat="43.0883025" lon="12.5449031"><ele>204.0</ele><time>2026-04-19T11:35:55.846Z</time></trkpt><trkpt lat="43.0880877" lon="12.5449145"><ele>204.0</ele><time>2026-04-19T11:35:56.846Z</time></trkpt><trkpt lat="43.0878682" lon="12.5449339"><ele>203.33333333333331</ele><time>2026-04-19T11:35:57.846Z</time></trkpt><trkpt lat="43.0876488" lon="12.544951"><ele>202.66666666666666</ele><time>2026-04-19T11:35:58.845Z</time></trkpt><trkpt lat="43.087429" lon="12.5449689"><ele>202.0</ele><time>2026-04-19T11:35:59.844Z</time></trkpt><trkpt lat="43.0872154" lon="12.5449749"><ele>202.0</ele><time>2026-04-19T11:36:00.846Z</time></trkpt><trkpt lat="43.086996" lon="12.5449864"><ele>202.0</ele><time>2026-04-19T11:36:01.846Z</time></trkpt><trkpt lat="43.0867755" lon="12.5450034"><ele>202.0</ele><time>2026-04-19T11:36:02.845Z</time></trkpt><trkpt lat="43.0865534" lon="12.54502"><ele>202.0</ele><time>2026-04-19T11:36:03.846Z</time></trkpt><trkpt lat="43.0863289" lon="12.5450349"><ele>202.0</ele><time>2026-04-19T11:36:04.845Z</time></trkpt><trkpt lat="43.0861049" lon="12.5450544"><ele>202.0</ele><time>2026-04-19T11:36:05.845Z</time></trkpt><trkpt lat="43.0858857" lon="12.5450703"><ele>202.33333333333331</ele><time>2026-04-19T11:36:06.846Z</time></trkpt><trkpt lat="43.0856632" lon="12.5450867"><ele>202.66666666666669</ele><time>2026-04-19T11:36:07.845Z</time></trkpt><trkpt lat="43.0854391" lon="12.5451026"><ele>203.0</ele><time>2026-04-19T11:36:08.846Z</time></trkpt><trkpt lat="43.0852196" lon="12.5451203"><ele>203.0</ele><time>2026-04-19T11:36:09.846Z</time></trkpt><trkpt lat="43.0849981" lon="12.5451384"><ele>203.0</ele><time>2026-04-19T11:36:10.845Z</time></trkpt><trkpt lat="43.0847862" lon="12.5451513"><ele>203.0</ele><time>2026-04-19T11:36:11.846Z</time></trkpt><trkpt lat="43.0845739" lon="12.5451745"><ele>203.0</ele><time>2026-04-19T11:36:12.845Z</time></trkpt><trkpt lat="43.0843599" lon="12.5451937"><ele>203.0</ele><time>2026-04-19T11:36:13.845Z</time></trkpt><trkpt lat="43.0841492" lon="12.5452115"><ele>203.0</ele><time>2026-04-19T11:36:14.846Z</time></trkpt><trkpt lat="43.0839419" lon="12.5452282"><ele>203.0</ele><time>2026-04-19T11:36:15.845Z</time></trkpt><trkpt lat="43.0837501" lon="12.5452414"><ele>203.0</ele><time>2026-04-19T11:36:16.846Z</time></trkpt><trkpt lat="43.0835658" lon="12.545255"><ele>203.0</ele><time>2026-04-19T11:36:17.845Z</time></trkpt><trkpt lat="43.0833908" lon="12.5452704"><ele>203.0</ele><time>2026-04-19T11:36:18.846Z</time></trkpt><trkpt lat="43.0832183" lon="12.5452888"><ele>203.0</ele><time>2026-04-19T11:36:19.846Z</time></trkpt><trkpt lat="43.0830659" lon="12.5452972"><ele>203.0</ele><time>2026-04-19T11:36:20.845Z</time></trkpt><trkpt lat="43.082916" lon="12.5453088"><ele>203.0</ele><time>2026-04-19T11:36:21.846Z</time></trkpt><trkpt lat="43.0827698" lon="12.5453198"><ele>203.0</ele><time>2026-04-19T11:36:22.846Z</time></trkpt><trkpt lat="43.0826265" lon="12.5453314"><ele>203.0</ele><time>2026-04-19T11:36:23.844Z</time></trkpt><trkpt lat="43.0824782" lon="12.5453453"><ele>203.0</ele><time>2026-04-19T11:36:24.844Z</time></trkpt><trkpt lat="43.082328" lon="12.5453633"><ele>203.0</ele><time>2026-04-19T11:36:25.845Z</time></trkpt><trkpt lat="43.0821801" lon="12.5453747"><ele>203.0</ele><time>2026-04-19T11:36:26.845Z</time></trkpt><trkpt lat="43.0820433" lon="12.5453792"><ele>203.0</ele><time>2026-04-19T11:36:27.845Z</time></trkpt><trkpt lat="43.0819016" lon="12.5453862"><ele>203.0</ele><time>2026-04-19T11:36:28.845Z</time></trkpt><trkpt lat="43.0817614" lon="12.5453839"><ele>202.66666666666669</ele><time>2026-04-19T11:36:29.846Z</time></trkpt><trkpt lat="43.0816141" lon="12.5453792"><ele>202.33333333333331</ele><time>2026-04-19T11:36:30.844Z</time></trkpt><trkpt lat="43.0814634" lon="12.5453622"><ele>202.0</ele><time>2026-04-19T11:36:31.845Z</time></trkpt><trkpt lat="43.0813118" lon="12.54533"><ele>202.0</ele><time>2026-04-19T11:36:32.846Z</time></trkpt><trkpt lat="43.0811576" lon="12.5452895"><ele>202.0</ele><time>2026-04-19T11:36:33.846Z</time></trkpt><trkpt lat="43.0809984" lon="12.545236"><ele>202.0</ele><time>2026-04-19T11:36:34.846Z</time></trkpt><trkpt lat="43.0808392" lon="12.5451704"><ele>202.33333333333331</ele><time>2026-04-19T11:36:35.846Z</time></trkpt><trkpt lat="43.0806804" lon="12.5450849"><ele>202.66666666666669</ele><time>2026-04-19T11:36:36.844Z</time></trkpt><trkpt lat="43.0805184" lon="12.5449932"><ele>203.0</ele><time>2026-04-19T11:36:37.845Z</time></trkpt><trkpt lat="43.0803518" lon="12.5448956"><ele>203.0</ele><time>2026-04-19T11:36:38.844Z</time></trkpt><trkpt lat="43.0801829" lon="12.5447975"><ele>203.0</ele><time>2026-04-19T11:36:39.845Z</time></trkpt><trkpt lat="43.0800142" lon="12.5446976"><ele>203.0</ele><time>2026-04-19T11:36:40.845Z</time></trkpt><trkpt lat="43.0798496" lon="12.5446003"><ele>201.66666666666669</ele><time>2026-04-19T11:36:41.844Z</time></trkpt><trkpt lat="43.0796954" lon="12.5445027"><ele>200.33333333333331</ele><time>2026-04-19T11:36:42.845Z</time></trkpt><trkpt lat="43.0795378" lon="12.5444115"><ele>199.0</ele><time>2026-04-19T11:36:43.845Z</time></trkpt><trkpt lat="43.0793807" lon="12.5443194"><ele>199.0</ele><time>2026-04-19T11:36:44.845Z</time></trkpt><trkpt lat="43.0792236" lon="12.544226"><ele>199.0</ele><time>2026-04-19T11:36:45.846Z</time></trkpt><trkpt lat="43.079064" lon="12.5441287"><ele>199.0</ele><time>2026-04-19T11:36:46.845Z</time></trkpt><trkpt lat="43.0789012" lon="12.5440407"><ele>198.66666666666666</ele><time>2026-04-19T11:36:47.845Z</time></trkpt><trkpt lat="43.078736" lon="12.5439537"><ele>198.33333333333331</ele><time>2026-04-19T11:36:48.845Z</time></trkpt><trkpt lat="43.0785687" lon="12.5438781"><ele>198.0</ele><time>2026-04-19T11:36:49.846Z</time></trkpt><trkpt lat="43.0784045" lon="12.5438171"><ele>198.66666666666669</ele><time>2026-04-19T11:36:50.846Z</time></trkpt><trkpt lat="43.0782506" lon="12.5437565"><ele>199.33333333333334</ele><time>2026-04-19T11:36:51.845Z</time></trkpt><trkpt lat="43.0781092" lon="12.5436873"><ele>200.0</ele><time>2026-04-19T11:36:52.846Z</time></trkpt><trkpt lat="43.0779581" lon="12.5436243"><ele>200.33333333333334</ele><time>2026-04-19T11:36:53.845Z</time></trkpt><trkpt lat="43.077805" lon="12.5435637"><ele>200.66666666666669</ele><time>2026-04-19T11:36:54.845Z</time></trkpt><trkpt lat="43.0776543" lon="12.5435036"><ele>201.0</ele><time>2026-04-19T11:36:55.845Z</time></trkpt><trkpt lat="43.0775096" lon="12.5434482"><ele>201.25</ele><time>2026-04-19T11:36:56.845Z</time></trkpt><trkpt lat="43.0773711" lon="12.5434023"><ele>201.5</ele><time>2026-04-19T11:36:57.846Z</time></trkpt><trkpt lat="43.0772403" lon="12.5433557"><ele>201.75</ele><time>2026-04-19T11:36:58.846Z</time></trkpt><trkpt lat="43.0771195" lon="12.5433066"><ele>202.0</ele><time>2026-04-19T11:36:59.846Z</time></trkpt><trkpt lat="43.0770069" lon="12.5432592"><ele>202.0</ele><time>2026-04-19T11:37:00.846Z</time></trkpt><trkpt lat="43.0769025" lon="12.5432143"><ele>202.0</ele><time>2026-04-19T11:37:01.845Z</time></trkpt><trkpt lat="43.0768076" lon="12.5431648"><ele>202.0</ele><time>2026-04-19T11:37:02.845Z</time></trkpt><trkpt lat="43.0767116" lon="12.5431244"><ele>202.0</ele><time>2026-04-19T11:37:03.843Z</time></trkpt><trkpt lat="43.0766329" lon="12.5430986"><ele>202.0</ele><time>2026-04-19T11:37:04.845Z</time></trkpt><trkpt lat="43.0765646" lon="12.5430736"><ele>202.0</ele><time>2026-04-19T11:37:06.844Z</time></trkpt><trkpt lat="43.0764569" lon="12.5430354"><ele>202.0</ele><time>2026-04-19T11:37:11.844Z</time></trkpt><trkpt lat="43.0763474" lon="12.5430664"><ele>202.0</ele><time>2026-04-19T11:37:13.844Z</time></trkpt><trkpt lat="43.0762818" lon="12.543183"><ele>202.0</ele><time>2026-04-19T11:37:15.844Z</time></trkpt><trkpt lat="43.0762734" lon="12.5432785"><ele>202.0</ele><time>2026-04-19T11:37:16.844Z</time></trkpt><trkpt lat="43.0762882" lon="12.5433909"><ele>202.0</ele><time>2026-04-19T11:37:17.844Z</time></trkpt><trkpt lat="43.0762958" lon="12.5435239"><ele>202.0</ele><time>2026-04-19T11:37:18.845Z</time></trkpt><trkpt lat="43.0762882" lon="12.5436494"><ele>202.0</ele><time>2026-04-19T11:37:19.845Z</time></trkpt><trkpt lat="43.0762681" lon="12.5437882"><ele>202.0</ele><time>2026-04-19T11:37:20.844Z</time></trkpt><trkpt lat="43.0762454" lon="12.5439509"><ele>202.0</ele><time>2026-04-19T11:37:21.844Z</time></trkpt><trkpt lat="43.076222" lon="12.5441233"><ele>202.0</ele><time>2026-04-19T11:37:22.844Z</time></trkpt><trkpt lat="43.0761959" lon="12.5442961"><ele>202.0</ele><time>2026-04-19T11:37:23.844Z</time></trkpt><trkpt lat="43.0761711" lon="12.5444727"><ele>202.0</ele><time>2026-04-19T11:37:24.845Z</time></trkpt><trkpt lat="43.0761422" lon="12.5446514"><ele>202.0</ele><time>2026-04-19T11:37:25.845Z</time></trkpt><trkpt lat="43.0761159" lon="12.5448519"><ele>202.25</ele><time>2026-04-19T11:37:26.845Z</time></trkpt><trkpt lat="43.0760894" lon="12.5450463"><ele>202.5</ele><time>2026-04-19T11:37:27.844Z</time></trkpt><trkpt lat="43.0760615" lon="12.5452365"><ele>202.75</ele><time>2026-04-19T11:37:28.845Z</time></trkpt><trkpt lat="43.0760333" lon="12.545422"><ele>203.0</ele><time>2026-04-19T11:37:29.845Z</time></trkpt><trkpt lat="43.0760013" lon="12.5456066"><ele>203.0</ele><time>2026-04-19T11:37:30.844Z</time></trkpt><trkpt lat="43.0759669" lon="12.5457903"><ele>203.0</ele><time>2026-04-19T11:37:31.844Z</time></trkpt><trkpt lat="43.0759323" lon="12.5459682"><ele>203.0</ele><time>2026-04-19T11:37:32.843Z</time></trkpt><trkpt lat="43.0758989" lon="12.5461624"><ele>203.0</ele><time>2026-04-19T11:37:33.843Z</time></trkpt><trkpt lat="43.0758574" lon="12.5463728"><ele>203.0</ele><time>2026-04-19T11:37:34.844Z</time></trkpt><trkpt lat="43.0758098" lon="12.5465949"><ele>203.0</ele><time>2026-04-19T11:37:35.845Z</time></trkpt><trkpt lat="43.075768" lon="12.5468342"><ele>203.0</ele><time>2026-04-19T11:37:36.844Z</time></trkpt><trkpt lat="43.0757207" lon="12.547076"><ele>202.33333333333334</ele><time>2026-04-19T11:37:37.844Z</time></trkpt><trkpt lat="43.0756787" lon="12.5473043"><ele>201.66666666666669</ele><time>2026-04-19T11:37:38.845Z</time></trkpt><trkpt lat="43.0756321" lon="12.547536"><ele>201.0</ele><time>2026-04-19T11:37:39.845Z</time></trkpt><trkpt lat="43.0755837" lon="12.5477771"><ele>200.66666666666669</ele><time>2026-04-19T11:37:40.845Z</time></trkpt><trkpt lat="43.0755335" lon="12.5480195"><ele>200.33333333333334</ele><time>2026-04-19T11:37:41.845Z</time></trkpt><trkpt lat="43.0754821" lon="12.5482582"><ele>200.0</ele><time>2026-04-19T11:37:42.845Z</time></trkpt><trkpt lat="43.0754355" lon="12.548493"><ele>199.33333333333334</ele><time>2026-04-19T11:37:43.845Z</time></trkpt><trkpt lat="43.0753952" lon="12.5487191"><ele>198.66666666666669</ele><time>2026-04-19T11:37:44.844Z</time></trkpt><trkpt lat="43.075361" lon="12.5489249"><ele>198.0</ele><time>2026-04-19T11:37:45.844Z</time></trkpt><trkpt lat="43.0753415" lon="12.5491184"><ele>198.0</ele><time>2026-04-19T11:37:46.843Z</time></trkpt><trkpt lat="43.0753294" lon="12.5493055"><ele>198.0</ele><time>2026-04-19T11:37:47.845Z</time></trkpt><trkpt lat="43.0753174" lon="12.549482"><ele>198.0</ele><time>2026-04-19T11:37:48.844Z</time></trkpt><trkpt lat="43.075305" lon="12.5496499"><ele>198.0</ele><time>2026-04-19T11:37:49.845Z</time></trkpt><trkpt lat="43.0752943" lon="12.549786"><ele>198.0</ele><time>2026-04-19T11:37:50.845Z</time></trkpt><trkpt lat="43.0752805" lon="12.5498978"><ele>198.0</ele><time>2026-04-19T11:37:51.845Z</time></trkpt><trkpt lat="43.0752519" lon="12.5500012"><ele>198.0</ele><time>2026-04-19T11:37:52.844Z</time></trkpt><trkpt lat="43.0752057" lon="12.5500736"><ele>198.0</ele><time>2026-04-19T11:37:53.844Z</time></trkpt><trkpt lat="43.0751425" lon="12.5501307"><ele>198.0</ele><time>2026-04-19T11:37:54.843Z</time></trkpt><trkpt lat="43.075056" lon="12.5501632"><ele>198.0</ele><time>2026-04-19T11:37:55.844Z</time></trkpt><trkpt lat="43.0749703" lon="12.5501912"><ele>198.75</ele><time>2026-04-19T11:37:56.844Z</time></trkpt><trkpt lat="43.0748737" lon="12.550221"><ele>199.5</ele><time>2026-04-19T11:37:57.844Z</time></trkpt><trkpt lat="43.0747639" lon="12.5502534"><ele>200.25</ele><time>2026-04-19T11:37:58.844Z</time></trkpt><trkpt lat="43.0746504" lon="12.5502831"><ele>201.0</ele><time>2026-04-19T11:37:59.843Z</time></trkpt><trkpt lat="43.0745196" lon="12.5502887"><ele>201.0</ele><time>2026-04-19T11:38:00.845Z</time></trkpt><trkpt lat="43.074391" lon="12.5502793"><ele>201.0</ele><time>2026-04-19T11:38:01.845Z</time></trkpt><trkpt lat="43.0742613" lon="12.5502677"><ele>201.0</ele><time>2026-04-19T11:38:02.843Z</time></trkpt><trkpt lat="43.0741233" lon="12.5502547"><ele>201.0</ele><time>2026-04-19T11:38:03.845Z</time></trkpt><trkpt lat="43.0739772" lon="12.5502325"><ele>201.66666666666669</ele><time>2026-04-19T11:38:04.843Z</time></trkpt><trkpt lat="43.073829" lon="12.5502097"><ele>202.33333333333334</ele><time>2026-04-19T11:38:05.844Z</time></trkpt><trkpt lat="43.0736731" lon="12.5501886"><ele>203.0</ele><time>2026-04-19T11:38:06.844Z</time></trkpt><trkpt lat="43.0735216" lon="12.5501758"><ele>203.0</ele><time>2026-04-19T11:38:07.845Z</time></trkpt><trkpt lat="43.0733634" lon="12.5501568"><ele>203.0</ele><time>2026-04-19T11:38:08.844Z</time></trkpt><trkpt lat="43.0732045" lon="12.5501363"><ele>203.0</ele><time>2026-04-19T11:38:09.843Z</time></trkpt><trkpt lat="43.0730497" lon="12.550112"><ele>202.66666666666669</ele><time>2026-04-19T11:38:10.845Z</time></trkpt><trkpt lat="43.0728927" lon="12.550089"><ele>202.33333333333331</ele><time>2026-04-19T11:38:11.845Z</time></trkpt><trkpt lat="43.0727366" lon="12.550054"><ele>202.0</ele><time>2026-04-19T11:38:12.845Z</time></trkpt><trkpt lat="43.0725718" lon="12.5500407"><ele>201.0</ele><time>2026-04-19T11:38:13.844Z</time></trkpt><trkpt lat="43.0724122" lon="12.5500211"><ele>200.0</ele><time>2026-04-19T11:38:14.845Z</time></trkpt><trkpt lat="43.072247" lon="12.5499971"><ele>199.0</ele><time>2026-04-19T11:38:15.844Z</time></trkpt><trkpt lat="43.0720747" lon="12.5499743"><ele>199.0</ele><time>2026-04-19T11:38:16.845Z</time></trkpt><trkpt lat="43.071911" lon="12.549952"><ele>199.0</ele><time>2026-04-19T11:38:17.844Z</time></trkpt><trkpt lat="43.0717573" lon="12.5499376"><ele>199.0</ele><time>2026-04-19T11:38:18.845Z</time></trkpt><trkpt lat="43.0716101" lon="12.5499215"><ele>199.2</ele><time>2026-04-19T11:38:19.844Z</time></trkpt><trkpt lat="43.0714773" lon="12.5499075"><ele>199.39999999999998</ele><time>2026-04-19T11:38:20.844Z</time></trkpt><trkpt lat="43.0713632" lon="12.5498974"><ele>199.6</ele><time>2026-04-19T11:38:21.844Z</time></trkpt><trkpt lat="43.0712748" lon="12.5498893"><ele>199.8</ele><time>2026-04-19T11:38:22.845Z</time></trkpt><trkpt lat="43.0712119" lon="12.5499044"><ele>200.0</ele><time>2026-04-19T11:38:23.844Z</time></trkpt><trkpt lat="43.0711583" lon="12.5500402"><ele>200.0</ele><time>2026-04-19T11:38:25.844Z</time></trkpt><trkpt lat="43.0711461" lon="12.5501498"><ele>200.0</ele><time>2026-04-19T11:38:26.845Z</time></trkpt><trkpt lat="43.0711448" lon="12.5502912"><ele>200.0</ele><time>2026-04-19T11:38:27.843Z</time></trkpt><trkpt lat="43.0711445" lon="12.5504599"><ele>200.0</ele><time>2026-04-19T11:38:28.845Z</time></trkpt><trkpt lat="43.0711399" lon="12.5506374"><ele>200.0</ele><time>2026-04-19T11:38:29.844Z</time></trkpt><trkpt lat="43.07113" lon="12.5508129"><ele>200.0</ele><time>2026-04-19T11:38:30.844Z</time></trkpt><trkpt lat="43.0711224" lon="12.5510049"><ele>200.0</ele><time>2026-04-19T11:38:31.844Z</time></trkpt><trkpt lat="43.0711131" lon="12.551213"><ele>200.0</ele><time>2026-04-19T11:38:32.844Z</time></trkpt><trkpt lat="43.0711006" lon="12.5514342"><ele>200.33333333333334</ele><time>2026-04-19T11:38:33.843Z</time></trkpt><trkpt lat="43.0710828" lon="12.5516714"><ele>200.66666666666669</ele><time>2026-04-19T11:38:34.845Z</time></trkpt><trkpt lat="43.0710721" lon="12.5519036"><ele>201.0</ele><time>2026-04-19T11:38:35.844Z</time></trkpt><trkpt lat="43.0710554" lon="12.552127"><ele>201.66666666666669</ele><time>2026-04-19T11:38:36.845Z</time></trkpt><trkpt lat="43.0710432" lon="12.5523477"><ele>202.33333333333334</ele><time>2026-04-19T11:38:37.845Z</time></trkpt><trkpt lat="43.0710384" lon="12.5525507"><ele>203.0</ele><time>2026-04-19T11:38:38.845Z</time></trkpt><trkpt lat="43.0710323" lon="12.5527459"><ele>203.0</ele><time>2026-04-19T11:38:39.843Z</time></trkpt><trkpt lat="43.0710299" lon="12.5529255"><ele>203.0</ele><time>2026-04-19T11:38:40.844Z</time></trkpt><trkpt lat="43.0710195" lon="12.5530941"><ele>203.0</ele><time>2026-04-19T11:38:41.845Z</time></trkpt><trkpt lat="43.0710175" lon="12.5532505"><ele>203.0</ele><time>2026-04-19T11:38:42.845Z</time></trkpt><trkpt lat="43.0710133" lon="12.5534133"><ele>203.0</ele><time>2026-04-19T11:38:43.845Z</time></trkpt><trkpt lat="43.071009" lon="12.5535837"><ele>203.0</ele><time>2026-04-19T11:38:44.843Z</time></trkpt><trkpt lat="43.0710032" lon="12.5537671"><ele>203.0</ele><time>2026-04-19T11:38:45.844Z</time></trkpt><trkpt lat="43.0709963" lon="12.5539374"><ele>203.0</ele><time>2026-04-19T11:38:46.843Z</time></trkpt><trkpt lat="43.0709933" lon="12.5540872"><ele>203.2</ele><time>2026-04-19T11:38:47.844Z</time></trkpt><trkpt lat="43.0709994" lon="12.5542076"><ele>203.4</ele><time>2026-04-19T11:38:48.844Z</time></trkpt><trkpt lat="43.071042" lon="12.5543579"><ele>203.6</ele><time>2026-04-19T11:38:50.844Z</time></trkpt><trkpt lat="43.0711262" lon="12.5544053"><ele>203.79999999999998</ele><time>2026-04-19T11:38:52.843Z</time></trkpt><trkpt lat="43.0712576" lon="12.5544042"><ele>204.0</ele><time>2026-04-19T11:38:54.842Z</time></trkpt><trkpt lat="43.0713511" lon="12.5544016"><ele>204.0</ele><time>2026-04-19T11:38:55.843Z</time></trkpt><trkpt lat="43.0714419" lon="12.5544107"><ele>204.0</ele><time>2026-04-19T11:38:56.844Z</time></trkpt><trkpt lat="43.0715374" lon="12.5544148"><ele>204.0</ele><time>2026-04-19T11:38:57.844Z</time></trkpt><trkpt lat="43.071648" lon="12.5544139"><ele>204.0</ele><time>2026-04-19T11:38:58.843Z</time></trkpt><trkpt lat="43.0717666" lon="12.5544182"><ele>204.0</ele><time>2026-04-19T11:38:59.843Z</time></trkpt><trkpt lat="43.0718936" lon="12.5544242"><ele>203.79999999999998</ele><time>2026-04-19T11:39:00.844Z</time></trkpt><trkpt lat="43.0720173" lon="12.5544344"><ele>203.6</ele><time>2026-04-19T11:39:01.844Z</time></trkpt><trkpt lat="43.0721313" lon="12.5544388"><ele>203.4</ele><time>2026-04-19T11:39:02.843Z</time></trkpt><trkpt lat="43.0722386" lon="12.5544449"><ele>203.2</ele><time>2026-04-19T11:39:03.842Z</time></trkpt><trkpt lat="43.0723376" lon="12.5544511"><ele>203.0</ele><time>2026-04-19T11:39:04.844Z</time></trkpt><trkpt lat="43.0724256" lon="12.5544604"><ele>203.0</ele><time>2026-04-19T11:39:05.844Z</time></trkpt><trkpt lat="43.0725398" lon="12.554464"><ele>205.0</ele><time>2026-04-19T11:39:07.842Z</time></trkpt><trkpt lat="43.0726208" lon="12.5544403"><ele>205.0</ele><time>2026-04-19T11:39:09.843Z</time></trkpt></trkseg></trk></gpx>